<?xml version='1.0' encoding='UTF-8'?><gpx version="1.1" creator="JPX - https://github.com/jenetics/jpx" xmlns="http://www.topografix.com/GPX/1/1"><trk><trkseg><trkpt lat="45.5973784" lon="10.7245115"><ele>261.0</ele><time>2026-04-26T08:05:20.948Z</time></trkpt><trkpt lat="45.5974377" lon="10.7244724"><ele>261.0</ele><time>2026-04-26T08:05:22.948Z</time></trkpt><trkpt lat="45.5975351" lon="10.7244546"><ele>261.0</ele><time>2026-04-26T08:05:25.948Z</time></trkpt><trkpt lat="45.5976118" lon="10.7245501"><ele>261.0</ele><time>2026-04-26T08:05:27.948Z</time></trkpt><trkpt lat="45.5976641" lon="10.724601"><ele>261.0</ele><time>2026-04-26T08:05:28.948Z</time></trkpt><trkpt lat="45.5977318" lon="10.7246527"><ele>261.0</ele><time>2026-04-26T08:05:29.947Z</time></trkpt><trkpt lat="45.5977979" lon="10.7246866"><ele>261.1666666666667</ele><time>2026-04-26T08:05:30.948Z</time></trkpt><trkpt lat="45.5978683" lon="10.7247106"><ele>261.3333333333333</ele><time>2026-04-26T08:05:31.946Z</time></trkpt><trkpt lat="45.5979482" lon="10.7247216"><ele>261.5</ele><time>2026-04-26T08:05:32.947Z</time></trkpt><trkpt lat="45.5980232" lon="10.7247266"><ele>261.66666666666663</ele><time>2026-04-26T08:05:33.948Z</time></trkpt><trkpt lat="45.5980967" lon="10.7247249"><ele>261.8333333333333</ele><time>2026-04-26T08:05:34.948Z</time></trkpt><trkpt lat="45.5981859" lon="10.7247226"><ele>262.0</ele><time>2026-04-26T08:05:35.948Z</time></trkpt><trkpt lat="45.5982825" lon="10.7247107"><ele>262.0</ele><time>2026-04-26T08:05:36.948Z</time></trkpt><trkpt lat="45.5983811" lon="10.7246899"><ele>262.0</ele><time>2026-04-26T08:05:37.947Z</time></trkpt><trkpt lat="45.5984882" lon="10.724663"><ele>262.0</ele><time>2026-04-26T08:05:38.947Z</time></trkpt><trkpt lat="45.5985999" lon="10.7246339"><ele>262.0</ele><time>2026-04-26T08:05:39.948Z</time></trkpt><trkpt lat="45.5986954" lon="10.7245972"><ele>262.0</ele><time>2026-04-26T08:05:40.948Z</time></trkpt><trkpt lat="45.5987881" lon="10.7245419"><ele>263.25</ele><time>2026-04-26T08:05:41.948Z</time></trkpt><trkpt lat="45.5988888" lon="10.7244795"><ele>264.5</ele><time>2026-04-26T08:05:42.948Z</time></trkpt><trkpt lat="45.5989934" lon="10.7244156"><ele>265.75</ele><time>2026-04-26T08:05:43.948Z</time></trkpt><trkpt lat="45.5991028" lon="10.724364"><ele>267.0</ele><time>2026-04-26T08:05:44.947Z</time></trkpt><trkpt lat="45.5992138" lon="10.7243156"><ele>267.0</ele><time>2026-04-26T08:05:45.948Z</time></trkpt><trkpt lat="45.5993271" lon="10.7242685"><ele>267.0</ele><time>2026-04-26T08:05:46.948Z</time></trkpt><trkpt lat="45.5994381" lon="10.7242095"><ele>267.0</ele><time>2026-04-26T08:05:47.948Z</time></trkpt><trkpt lat="45.5995514" lon="10.7241467"><ele>267.0</ele><time>2026-04-26T08:05:48.948Z</time></trkpt><trkpt lat="45.599665" lon="10.7240856"><ele>267.25</ele><time>2026-04-26T08:05:49.947Z</time></trkpt><trkpt lat="45.5997828" lon="10.7240355"><ele>267.5</ele><time>2026-04-26T08:05:50.947Z</time></trkpt><trkpt lat="45.5998998" lon="10.7239813"><ele>267.75</ele><time>2026-04-26T08:05:51.948Z</time></trkpt><trkpt lat="45.6000094" lon="10.72391"><ele>268.0</ele><time>2026-04-26T08:05:52.948Z</time></trkpt><trkpt lat="45.6001135" lon="10.7238231"><ele>268.0</ele><time>2026-04-26T08:05:53.948Z</time></trkpt><trkpt lat="45.6002122" lon="10.7237329"><ele>268.0</ele><time>2026-04-26T08:05:54.948Z</time></trkpt><trkpt lat="45.6003007" lon="10.7236633"><ele>268.0</ele><time>2026-04-26T08:05:55.948Z</time></trkpt><trkpt lat="45.600381" lon="10.7236244"><ele>268.0</ele><time>2026-04-26T08:05:56.948Z</time></trkpt><trkpt lat="45.6004715" lon="10.7236131"><ele>268.0</ele><time>2026-04-26T08:05:57.948Z</time></trkpt><trkpt lat="45.6005743" lon="10.7236232"><ele>269.0</ele><time>2026-04-26T08:05:58.948Z</time></trkpt><trkpt lat="45.6006851" lon="10.7236246"><ele>270.0</ele><time>2026-04-26T08:05:59.948Z</time></trkpt><trkpt lat="45.6007937" lon="10.7236036"><ele>271.0</ele><time>2026-04-26T08:06:00.948Z</time></trkpt><trkpt lat="45.6008937" lon="10.7235601"><ele>272.0</ele><time>2026-04-26T08:06:01.948Z</time></trkpt><trkpt lat="45.600997" lon="10.7234865"><ele>273.0</ele><time>2026-04-26T08:06:02.947Z</time></trkpt><trkpt lat="45.6010968" lon="10.7233875"><ele>274.25</ele><time>2026-04-26T08:06:03.948Z</time></trkpt><trkpt lat="45.6011957" lon="10.723282"><ele>275.5</ele><time>2026-04-26T08:06:04.948Z</time></trkpt><trkpt lat="45.601289" lon="10.7231815"><ele>276.75</ele><time>2026-04-26T08:06:05.948Z</time></trkpt><trkpt lat="45.6013815" lon="10.7230769"><ele>278.0</ele><time>2026-04-26T08:06:06.948Z</time></trkpt><trkpt lat="45.6014765" lon="10.7229713"><ele>278.0</ele><time>2026-04-26T08:06:07.948Z</time></trkpt><trkpt lat="45.6015584" lon="10.722885"><ele>278.0</ele><time>2026-04-26T08:06:08.948Z</time></trkpt><trkpt lat="45.6016337" lon="10.7228225"><ele>278.0</ele><time>2026-04-26T08:06:09.948Z</time></trkpt><trkpt lat="45.6017127" lon="10.722777"><ele>278.0</ele><time>2026-04-26T08:06:10.948Z</time></trkpt><trkpt lat="45.6017852" lon="10.7227504"><ele>278.0</ele><time>2026-04-26T08:06:11.948Z</time></trkpt><trkpt lat="45.6018715" lon="10.7227254"><ele>278.0</ele><time>2026-04-26T08:06:13.947Z</time></trkpt><trkpt lat="45.6019579" lon="10.7227157"><ele>280.6</ele><time>2026-04-26T08:06:15.948Z</time></trkpt><trkpt lat="45.6020581" lon="10.7226857"><ele>283.20000000000005</ele><time>2026-04-26T08:06:17.948Z</time></trkpt><trkpt lat="45.6021666" lon="10.7226628"><ele>285.8</ele><time>2026-04-26T08:06:19.948Z</time></trkpt><trkpt lat="45.6022731" lon="10.7226498"><ele>288.40000000000003</ele><time>2026-04-26T08:06:21.948Z</time></trkpt><trkpt lat="45.6023383" lon="10.7226174"><ele>291.0</ele><time>2026-04-26T08:06:23.947Z</time></trkpt><trkpt lat="45.6024333" lon="10.7225844"><ele>291.0</ele><time>2026-04-26T08:06:26.948Z</time></trkpt><trkpt lat="45.6025197" lon="10.7225833"><ele>291.0</ele><time>2026-04-26T08:06:28.948Z</time></trkpt><trkpt lat="45.6025897" lon="10.7225851"><ele>291.0</ele><time>2026-04-26T08:06:30.948Z</time></trkpt><trkpt lat="45.6025554" lon="10.7225055"><ele>291.0</ele><time>2026-04-26T08:06:36.948Z</time></trkpt><trkpt lat="45.6024946" lon="10.7224727"><ele>291.0</ele><time>2026-04-26T08:06:37.948Z</time></trkpt><trkpt lat="45.6024126" lon="10.722418"><ele>291.0</ele><time>2026-04-26T08:06:38.948Z</time></trkpt><trkpt lat="45.6022976" lon="10.7223576"><ele>291.0</ele><time>2026-04-26T08:06:39.948Z</time></trkpt><trkpt lat="45.6021741" lon="10.7223211"><ele>291.0</ele><time>2026-04-26T08:06:40.948Z</time></trkpt><trkpt lat="45.6020448" lon="10.7222862"><ele>291.0</ele><time>2026-04-26T08:06:41.948Z</time></trkpt><trkpt lat="45.60192" lon="10.7222195"><ele>291.0</ele><time>2026-04-26T08:06:42.948Z</time></trkpt><trkpt lat="45.6018063" lon="10.722114"><ele>290.25</ele><time>2026-04-26T08:06:43.947Z</time></trkpt><trkpt lat="45.6017092" lon="10.7219779"><ele>289.5</ele><time>2026-04-26T08:06:44.948Z</time></trkpt><trkpt lat="45.6016289" lon="10.7218121"><ele>288.75</ele><time>2026-04-26T08:06:45.948Z</time></trkpt><trkpt lat="45.6015562" lon="10.7216499"><ele>288.0</ele><time>2026-04-26T08:06:46.947Z</time></trkpt><trkpt lat="45.6014783" lon="10.7214891"><ele>288.0</ele><time>2026-04-26T08:06:47.947Z</time></trkpt><trkpt lat="45.6013979" lon="10.7213353"><ele>288.0</ele><time>2026-04-26T08:06:48.948Z</time></trkpt><trkpt lat="45.6013116" lon="10.7211893"><ele>288.0</ele><time>2026-04-26T08:06:49.947Z</time></trkpt><trkpt lat="45.6012192" lon="10.7210548"><ele>288.0</ele><time>2026-04-26T08:06:50.947Z</time></trkpt><trkpt lat="45.6011155" lon="10.72094"><ele>287.0</ele><time>2026-04-26T08:06:51.948Z</time></trkpt><trkpt lat="45.6010037" lon="10.7208408"><ele>286.0</ele><time>2026-04-26T08:06:52.948Z</time></trkpt><trkpt lat="45.6008877" lon="10.7207618"><ele>285.0</ele><time>2026-04-26T08:06:53.947Z</time></trkpt><trkpt lat="45.6007706" lon="10.7206884"><ele>284.0</ele><time>2026-04-26T08:06:54.948Z</time></trkpt><trkpt lat="45.6006543" lon="10.7206095"><ele>284.0</ele><time>2026-04-26T08:06:55.948Z</time></trkpt><trkpt lat="45.6005438" lon="10.7205232"><ele>284.0</ele><time>2026-04-26T08:06:56.948Z</time></trkpt><trkpt lat="45.6004334" lon="10.7204304"><ele>284.0</ele><time>2026-04-26T08:06:57.948Z</time></trkpt><trkpt lat="45.6003281" lon="10.7203263"><ele>284.0</ele><time>2026-04-26T08:06:58.947Z</time></trkpt><trkpt lat="45.6002234" lon="10.7202175"><ele>284.0</ele><time>2026-04-26T08:06:59.947Z</time></trkpt><trkpt lat="45.6001186" lon="10.7201044"><ele>284.0</ele><time>2026-04-26T08:07:00.947Z</time></trkpt><trkpt lat="45.6000166" lon="10.7199892"><ele>284.0</ele><time>2026-04-26T08:07:01.947Z</time></trkpt><trkpt lat="45.5999245" lon="10.7198699"><ele>284.0</ele><time>2026-04-26T08:07:02.948Z</time></trkpt><trkpt lat="45.5998392" lon="10.7197376"><ele>284.0</ele><time>2026-04-26T08:07:03.947Z</time></trkpt><trkpt lat="45.599761" lon="10.7195904"><ele>284.0</ele><time>2026-04-26T08:07:04.948Z</time></trkpt><trkpt lat="45.5996897" lon="10.7194401"><ele>284.0</ele><time>2026-04-26T08:07:05.947Z</time></trkpt><trkpt lat="45.599633" lon="10.7193052"><ele>284.0</ele><time>2026-04-26T08:07:06.948Z</time></trkpt><trkpt lat="45.5995811" lon="10.7191859"><ele>284.59999999999997</ele><time>2026-04-26T08:07:07.947Z</time></trkpt><trkpt lat="45.5995391" lon="10.7190842"><ele>285.2</ele><time>2026-04-26T08:07:08.948Z</time></trkpt><trkpt lat="45.5995154" lon="10.7189861"><ele>285.79999999999995</ele><time>2026-04-26T08:07:09.947Z</time></trkpt><trkpt lat="45.5995342" lon="10.7187981"><ele>286.4</ele><time>2026-04-26T08:07:11.948Z</time></trkpt><trkpt lat="45.5995819" lon="10.7186935"><ele>287.0</ele><time>2026-04-26T08:07:12.948Z</time></trkpt><trkpt lat="45.5996314" lon="10.7185786"><ele>286.5</ele><time>2026-04-26T08:07:13.948Z</time></trkpt><trkpt lat="45.5996849" lon="10.7184492"><ele>286.0</ele><time>2026-04-26T08:07:14.948Z</time></trkpt><trkpt lat="45.5997419" lon="10.7183101"><ele>285.5</ele><time>2026-04-26T08:07:15.948Z</time></trkpt><trkpt lat="45.5998018" lon="10.7181639"><ele>285.0</ele><time>2026-04-26T08:07:16.948Z</time></trkpt><trkpt lat="45.5998685" lon="10.7180165"><ele>285.0</ele><time>2026-04-26T08:07:17.947Z</time></trkpt><trkpt lat="45.5999381" lon="10.7178627"><ele>285.0</ele><time>2026-04-26T08:07:18.947Z</time></trkpt><trkpt lat="45.6000085" lon="10.717714"><ele>285.0</ele><time>2026-04-26T08:07:19.948Z</time></trkpt><trkpt lat="45.6000797" lon="10.7175849"><ele>285.0</ele><time>2026-04-26T08:07:20.948Z</time></trkpt><trkpt lat="45.6001622" lon="10.7174663"><ele>284.75</ele><time>2026-04-26T08:07:21.948Z</time></trkpt><trkpt lat="45.6002574" lon="10.7173674"><ele>284.5</ele><time>2026-04-26T08:07:22.947Z</time></trkpt><trkpt lat="45.6003618" lon="10.7172848"><ele>284.25</ele><time>2026-04-26T08:07:23.947Z</time></trkpt><trkpt lat="45.6004724" lon="10.7172096"><ele>284.0</ele><time>2026-04-26T08:07:24.948Z</time></trkpt><trkpt lat="45.6005815" lon="10.7171424"><ele>284.4</ele><time>2026-04-26T08:07:25.948Z</time></trkpt><trkpt lat="45.6006905" lon="10.7170757"><ele>284.79999999999995</ele><time>2026-04-26T08:07:26.948Z</time></trkpt><trkpt lat="45.6007923" lon="10.7170093"><ele>285.20000000000005</ele><time>2026-04-26T08:07:27.947Z</time></trkpt><trkpt lat="45.6008817" lon="10.716933"><ele>285.6</ele><time>2026-04-26T08:07:28.948Z</time></trkpt><trkpt lat="45.6009581" lon="10.7168552"><ele>286.0</ele><time>2026-04-26T08:07:29.948Z</time></trkpt><trkpt lat="45.6010285" lon="10.7167885"><ele>286.0</ele><time>2026-04-26T08:07:30.948Z</time></trkpt><trkpt lat="45.6010929" lon="10.7167555"><ele>286.0</ele><time>2026-04-26T08:07:31.948Z</time></trkpt><trkpt lat="45.6011577" lon="10.7167592"><ele>286.0</ele><time>2026-04-26T08:07:32.948Z</time></trkpt><trkpt lat="45.6012136" lon="10.7168366"><ele>286.0</ele><time>2026-04-26T08:07:34.947Z</time></trkpt><trkpt lat="45.6012956" lon="10.7168671"><ele>286.0</ele><time>2026-04-26T08:07:37.948Z</time></trkpt><trkpt lat="45.6013793" lon="10.7168407"><ele>286.0</ele><time>2026-04-26T08:07:39.947Z</time></trkpt><trkpt lat="45.6014662" lon="10.7167783"><ele>287.8333333333333</ele><time>2026-04-26T08:07:41.948Z</time></trkpt><trkpt lat="45.6015575" lon="10.7166949"><ele>289.66666666666663</ele><time>2026-04-26T08:07:43.948Z</time></trkpt><trkpt lat="45.6016141" lon="10.7166384"><ele>291.5</ele><time>2026-04-26T08:07:44.947Z</time></trkpt><trkpt lat="45.6016695" lon="10.7165767"><ele>293.3333333333333</ele><time>2026-04-26T08:07:45.948Z</time></trkpt><trkpt lat="45.6017119" lon="10.7164987"><ele>295.1666666666667</ele><time>2026-04-26T08:07:46.947Z</time></trkpt><trkpt lat="45.6017525" lon="10.7164031"><ele>297.0</ele><time>2026-04-26T08:07:47.947Z</time></trkpt><trkpt lat="45.601766" lon="10.7162497"><ele>297.0</ele><time>2026-04-26T08:07:48.947Z</time></trkpt><trkpt lat="45.6017951" lon="10.7161556"><ele>297.0</ele><time>2026-04-26T08:07:49.948Z</time></trkpt><trkpt lat="45.6018271" lon="10.7160723"><ele>297.0</ele><time>2026-04-26T08:07:50.948Z</time></trkpt><trkpt lat="45.6019099" lon="10.7159999"><ele>297.0</ele><time>2026-04-26T08:07:52.948Z</time></trkpt><trkpt lat="45.6019811" lon="10.7159841"><ele>297.0</ele><time>2026-04-26T08:07:53.948Z</time></trkpt><trkpt lat="45.6020769" lon="10.7159885"><ele>297.0</ele><time>2026-04-26T08:07:54.948Z</time></trkpt><trkpt lat="45.6021952" lon="10.716007"><ele>297.5</ele><time>2026-04-26T08:07:55.947Z</time></trkpt><trkpt lat="45.6023323" lon="10.7160223"><ele>298.0</ele><time>2026-04-26T08:07:56.948Z</time></trkpt><trkpt lat="45.6024876" lon="10.7160241"><ele>298.5</ele><time>2026-04-26T08:07:57.946Z</time></trkpt><trkpt lat="45.6026296" lon="10.7160197"><ele>299.0</ele><time>2026-04-26T08:07:58.948Z</time></trkpt><trkpt lat="45.6027511" lon="10.7160004"><ele>301.75</ele><time>2026-04-26T08:07:59.948Z</time></trkpt><trkpt lat="45.6028656" lon="10.7159604"><ele>304.5</ele><time>2026-04-26T08:08:00.948Z</time></trkpt><trkpt lat="45.6029618" lon="10.7158948"><ele>307.25</ele><time>2026-04-26T08:08:01.948Z</time></trkpt><trkpt lat="45.6030667" lon="10.7157985"><ele>310.0</ele><time>2026-04-26T08:08:02.948Z</time></trkpt><trkpt lat="45.6031812" lon="10.7157072"><ele>310.0</ele><time>2026-04-26T08:08:03.948Z</time></trkpt><trkpt lat="45.6032933" lon="10.7156387"><ele>310.0</ele><time>2026-04-26T08:08:04.947Z</time></trkpt><trkpt lat="45.6033988" lon="10.7155934"><ele>310.0</ele><time>2026-04-26T08:08:05.947Z</time></trkpt><trkpt lat="45.603496" lon="10.7155663"><ele>310.0</ele><time>2026-04-26T08:08:06.948Z</time></trkpt><trkpt lat="45.6035735" lon="10.7155433"><ele>310.0</ele><time>2026-04-26T08:08:07.947Z</time></trkpt><trkpt lat="45.6036486" lon="10.7155344"><ele>311.25</ele><time>2026-04-26T08:08:08.947Z</time></trkpt><trkpt lat="45.6037431" lon="10.7155326"><ele>312.5</ele><time>2026-04-26T08:08:09.947Z</time></trkpt><trkpt lat="45.6038594" lon="10.7155367"><ele>313.75</ele><time>2026-04-26T08:08:10.948Z</time></trkpt><trkpt lat="45.6039828" lon="10.7155429"><ele>315.0</ele><time>2026-04-26T08:08:11.948Z</time></trkpt><trkpt lat="45.6041121" lon="10.715554"><ele>315.0</ele><time>2026-04-26T08:08:12.948Z</time></trkpt><trkpt lat="45.6042465" lon="10.7155627"><ele>315.0</ele><time>2026-04-26T08:08:13.948Z</time></trkpt><trkpt lat="45.6043868" lon="10.7155611"><ele>315.0</ele><time>2026-04-26T08:08:14.948Z</time></trkpt><trkpt lat="45.6045317" lon="10.7155515"><ele>315.0</ele><time>2026-04-26T08:08:15.948Z</time></trkpt><trkpt lat="45.6046774" lon="10.7155383"><ele>316.25</ele><time>2026-04-26T08:08:16.947Z</time></trkpt><trkpt lat="45.6048178" lon="10.7155172"><ele>317.5</ele><time>2026-04-26T08:08:17.948Z</time></trkpt><trkpt lat="45.6049483" lon="10.7155067"><ele>318.75</ele><time>2026-04-26T08:08:18.947Z</time></trkpt><trkpt lat="45.6050761" lon="10.7155102"><ele>320.0</ele><time>2026-04-26T08:08:19.948Z</time></trkpt><trkpt lat="45.6051999" lon="10.7155134"><ele>320.0</ele><time>2026-04-26T08:08:20.948Z</time></trkpt><trkpt lat="45.6052933" lon="10.7155174"><ele>320.0</ele><time>2026-04-26T08:08:21.947Z</time></trkpt><trkpt lat="45.6053635" lon="10.7155208"><ele>320.0</ele><time>2026-04-26T08:08:22.947Z</time></trkpt><trkpt lat="45.6054685" lon="10.7155325"><ele>320.0</ele><time>2026-04-26T08:08:24.947Z</time></trkpt><trkpt lat="45.6055797" lon="10.7155641"><ele>320.0</ele><time>2026-04-26T08:08:26.948Z</time></trkpt><trkpt lat="45.6056901" lon="10.7155906"><ele>320.83333333333337</ele><time>2026-04-26T08:08:28.948Z</time></trkpt><trkpt lat="45.6057623" lon="10.7156006"><ele>321.6666666666667</ele><time>2026-04-26T08:08:30.947Z</time></trkpt><trkpt lat="45.6058167" lon="10.7155336"><ele>322.5</ele><time>2026-04-26T08:08:32.948Z</time></trkpt><trkpt lat="45.6058447" lon="10.7154007"><ele>323.3333333333333</ele><time>2026-04-26T08:08:34.948Z</time></trkpt><trkpt lat="45.6058998" lon="10.715341"><ele>324.16666666666663</ele><time>2026-04-26T08:08:36.948Z</time></trkpt><trkpt lat="45.6060174" lon="10.7152842"><ele>325.0</ele><time>2026-04-26T08:08:38.948Z</time></trkpt><trkpt lat="45.606092" lon="10.7152434"><ele>324.8333333333333</ele><time>2026-04-26T08:08:39.947Z</time></trkpt><trkpt lat="45.6061509" lon="10.7152065"><ele>324.66666666666663</ele><time>2026-04-26T08:08:40.948Z</time></trkpt><trkpt lat="45.6062202" lon="10.7151538"><ele>324.5</ele><time>2026-04-26T08:08:41.948Z</time></trkpt><trkpt lat="45.606322" lon="10.7151207"><ele>324.3333333333333</ele><time>2026-04-26T08:08:43.948Z</time></trkpt><trkpt lat="45.6064009" lon="10.7150918"><ele>324.1666666666667</ele><time>2026-04-26T08:08:50.947Z</time></trkpt><trkpt lat="45.6064992" lon="10.7150176"><ele>324.0</ele><time>2026-04-26T08:08:52.948Z</time></trkpt><trkpt lat="45.6065847" lon="10.7149947"><ele>324.0</ele><time>2026-04-26T08:08:54.948Z</time></trkpt><trkpt lat="45.606611" lon="10.7151795"><ele>324.0</ele><time>2026-04-26T08:08:57.947Z</time></trkpt><trkpt lat="45.606582" lon="10.7153057"><ele>324.0</ele><time>2026-04-26T08:08:58.947Z</time></trkpt><trkpt lat="45.6065578" lon="10.7154527"><ele>324.0</ele><time>2026-04-26T08:08:59.948Z</time></trkpt><trkpt lat="45.6065242" lon="10.7155514"><ele>324.0</ele><time>2026-04-26T08:09:00.947Z</time></trkpt><trkpt lat="45.6064829" lon="10.7156419"><ele>324.25</ele><time>2026-04-26T08:09:01.947Z</time></trkpt><trkpt lat="45.6064014" lon="10.7156919"><ele>324.5</ele><time>2026-04-26T08:09:02.947Z</time></trkpt><trkpt lat="45.6062973" lon="10.7157164"><ele>324.75</ele><time>2026-04-26T08:09:03.948Z</time></trkpt><trkpt lat="45.6061877" lon="10.7157451"><ele>325.0</ele><time>2026-04-26T08:09:04.948Z</time></trkpt><trkpt lat="45.6060013" lon="10.715765"><ele>325.0</ele><time>2026-04-26T08:09:05.948Z</time></trkpt><trkpt lat="45.6058878" lon="10.7157831"><ele>325.0</ele><time>2026-04-26T08:09:06.948Z</time></trkpt><trkpt lat="45.6058048" lon="10.7158131"><ele>325.0</ele><time>2026-04-26T08:09:07.947Z</time></trkpt><trkpt lat="45.6056922" lon="10.7158374"><ele>325.0</ele><time>2026-04-26T08:09:08.948Z</time></trkpt><trkpt lat="45.6055877" lon="10.7158594"><ele>325.0</ele><time>2026-04-26T08:09:09.948Z</time></trkpt><trkpt lat="45.6054668" lon="10.7158417"><ele>325.0</ele><time>2026-04-26T08:09:10.948Z</time></trkpt><trkpt lat="45.6053392" lon="10.7158437"><ele>325.0</ele><time>2026-04-26T08:09:11.948Z</time></trkpt><trkpt lat="45.6052222" lon="10.7158541"><ele>325.0</ele><time>2026-04-26T08:09:12.948Z</time></trkpt><trkpt lat="45.6050749" lon="10.7159037"><ele>325.0</ele><time>2026-04-26T08:09:13.947Z</time></trkpt><trkpt lat="45.6049412" lon="10.7159503"><ele>326.0</ele><time>2026-04-26T08:09:14.948Z</time></trkpt><trkpt lat="45.6048063" lon="10.7160031"><ele>327.0</ele><time>2026-04-26T08:09:15.947Z</time></trkpt><trkpt lat="45.6046668" lon="10.716042"><ele>328.0</ele><time>2026-04-26T08:09:16.947Z</time></trkpt><trkpt lat="45.6045549" lon="10.7160687"><ele>329.0</ele><time>2026-04-26T08:09:17.948Z</time></trkpt><trkpt lat="45.6044313" lon="10.716074"><ele>329.0</ele><time>2026-04-26T08:09:18.947Z</time></trkpt><trkpt lat="45.604313" lon="10.7160725"><ele>329.0</ele><time>2026-04-26T08:09:19.948Z</time></trkpt><trkpt lat="45.6042142" lon="10.7160684"><ele>329.0</ele><time>2026-04-26T08:09:20.948Z</time></trkpt><trkpt lat="45.6041153" lon="10.716088"><ele>329.0</ele><time>2026-04-26T08:09:21.947Z</time></trkpt><trkpt lat="45.6039983" lon="10.7161245"><ele>329.0</ele><time>2026-04-26T08:09:22.948Z</time></trkpt><trkpt lat="45.6038836" lon="10.7161346"><ele>329.0</ele><time>2026-04-26T08:09:23.947Z</time></trkpt><trkpt lat="45.6037891" lon="10.7161727"><ele>329.0</ele><time>2026-04-26T08:09:24.948Z</time></trkpt><trkpt lat="45.6036954" lon="10.7162235"><ele>329.0</ele><time>2026-04-26T08:09:25.948Z</time></trkpt><trkpt lat="45.6036409" lon="10.7163074"><ele>329.0</ele><time>2026-04-26T08:09:26.947Z</time></trkpt><trkpt lat="45.6035939" lon="10.7163973"><ele>329.0</ele><time>2026-04-26T08:09:27.947Z</time></trkpt><trkpt lat="45.6035645" lon="10.7165096"><ele>329.0</ele><time>2026-04-26T08:09:28.948Z</time></trkpt><trkpt lat="45.6035492" lon="10.7166114"><ele>326.59999999999997</ele><time>2026-04-26T08:09:29.947Z</time></trkpt><trkpt lat="45.6035428" lon="10.71673"><ele>324.2</ele><time>2026-04-26T08:09:30.948Z</time></trkpt><trkpt lat="45.6035492" lon="10.7168523"><ele>321.79999999999995</ele><time>2026-04-26T08:09:31.948Z</time></trkpt><trkpt lat="45.6035577" lon="10.7169869"><ele>319.4</ele><time>2026-04-26T08:09:32.946Z</time></trkpt><trkpt lat="45.6035458" lon="10.7171315"><ele>317.0</ele><time>2026-04-26T08:09:33.947Z</time></trkpt><trkpt lat="45.6035389" lon="10.7172719"><ele>317.0</ele><time>2026-04-26T08:09:34.946Z</time></trkpt><trkpt lat="45.603538" lon="10.7174047"><ele>317.0</ele><time>2026-04-26T08:09:35.947Z</time></trkpt><trkpt lat="45.603544" lon="10.7175122"><ele>317.0</ele><time>2026-04-26T08:09:36.946Z</time></trkpt><trkpt lat="45.6035999" lon="10.7176292"><ele>317.0</ele><time>2026-04-26T08:09:37.946Z</time></trkpt><trkpt lat="45.6036281" lon="10.7177256"><ele>317.0</ele><time>2026-04-26T08:09:38.946Z</time></trkpt><trkpt lat="45.6036385" lon="10.7179102"><ele>316.8</ele><time>2026-04-26T08:09:40.947Z</time></trkpt><trkpt lat="45.6036299" lon="10.7180143"><ele>316.6</ele><time>2026-04-26T08:09:41.947Z</time></trkpt><trkpt lat="45.6036002" lon="10.7181123"><ele>316.40000000000003</ele><time>2026-04-26T08:09:42.947Z</time></trkpt><trkpt lat="45.6035478" lon="10.7182059"><ele>316.2</ele><time>2026-04-26T08:09:43.946Z</time></trkpt><trkpt lat="45.6034812" lon="10.7183218"><ele>316.0</ele><time>2026-04-26T08:09:44.947Z</time></trkpt><trkpt lat="45.6034044" lon="10.7184574"><ele>316.66666666666663</ele><time>2026-04-26T08:09:45.946Z</time></trkpt><trkpt lat="45.6033353" lon="10.7185731"><ele>317.3333333333333</ele><time>2026-04-26T08:09:46.947Z</time></trkpt><trkpt lat="45.6032822" lon="10.7186675"><ele>318.0</ele><time>2026-04-26T08:09:47.946Z</time></trkpt><trkpt lat="45.6032535" lon="10.7187636"><ele>318.6666666666667</ele><time>2026-04-26T08:09:48.946Z</time></trkpt><trkpt lat="45.6032507" lon="10.7188561"><ele>319.33333333333337</ele><time>2026-04-26T08:09:49.946Z</time></trkpt><trkpt lat="45.6032733" lon="10.7189531"><ele>320.0</ele><time>2026-04-26T08:09:50.947Z</time></trkpt><trkpt lat="45.6033198" lon="10.7190613"><ele>320.0</ele><time>2026-04-26T08:09:51.946Z</time></trkpt><trkpt lat="45.6033586" lon="10.7191907"><ele>320.0</ele><time>2026-04-26T08:09:52.947Z</time></trkpt><trkpt lat="45.6033937" lon="10.7193212"><ele>320.0</ele><time>2026-04-26T08:09:54.945Z</time></trkpt><trkpt lat="45.603442" lon="10.7193902"><ele>320.0</ele><time>2026-04-26T08:10:01.947Z</time></trkpt><trkpt lat="45.6035526" lon="10.7194331"><ele>320.0</ele><time>2026-04-26T08:10:03.947Z</time></trkpt><trkpt lat="45.6036239" lon="10.7194956"><ele>319.2</ele><time>2026-04-26T08:10:04.947Z</time></trkpt><trkpt lat="45.6037011" lon="10.7195665"><ele>318.4</ele><time>2026-04-26T08:10:05.946Z</time></trkpt><trkpt lat="45.603783" lon="10.7196214"><ele>317.6</ele><time>2026-04-26T08:10:06.947Z</time></trkpt><trkpt lat="45.603876" lon="10.7196426"><ele>316.8</ele><time>2026-04-26T08:10:07.947Z</time></trkpt><trkpt lat="45.6039683" lon="10.719652"><ele>316.0</ele><time>2026-04-26T08:10:08.947Z</time></trkpt><trkpt lat="45.6040503" lon="10.7196602"><ele>316.0</ele><time>2026-04-26T08:10:09.947Z</time></trkpt><trkpt lat="45.6041356" lon="10.7196929"><ele>316.0</ele><time>2026-04-26T08:10:10.947Z</time></trkpt><trkpt lat="45.6042231" lon="10.7197578"><ele>316.0</ele><time>2026-04-26T08:10:11.946Z</time></trkpt><trkpt lat="45.6043057" lon="10.7198483"><ele>316.0</ele><time>2026-04-26T08:10:12.947Z</time></trkpt><trkpt lat="45.604383" lon="10.7199531"><ele>316.0</ele><time>2026-04-26T08:10:13.947Z</time></trkpt><trkpt lat="45.6044673" lon="10.7200677"><ele>317.0</ele><time>2026-04-26T08:10:14.947Z</time></trkpt><trkpt lat="45.604557" lon="10.7201902"><ele>318.0</ele><time>2026-04-26T08:10:15.947Z</time></trkpt><trkpt lat="45.6046462" lon="10.7203138"><ele>319.0</ele><time>2026-04-26T08:10:16.947Z</time></trkpt><trkpt lat="45.6047308" lon="10.7204399"><ele>320.0</ele><time>2026-04-26T08:10:17.947Z</time></trkpt><trkpt lat="45.604799" lon="10.720587"><ele>320.25</ele><time>2026-04-26T08:10:18.946Z</time></trkpt><trkpt lat="45.6048552" lon="10.7207566"><ele>320.5</ele><time>2026-04-26T08:10:19.947Z</time></trkpt><trkpt lat="45.60491" lon="10.7209294"><ele>320.75</ele><time>2026-04-26T08:10:20.947Z</time></trkpt><trkpt lat="45.6049653" lon="10.7211068"><ele>321.0</ele><time>2026-04-26T08:10:21.946Z</time></trkpt><trkpt lat="45.6050197" lon="10.7212882"><ele>321.0</ele><time>2026-04-26T08:10:22.946Z</time></trkpt><trkpt lat="45.6050698" lon="10.72146"><ele>321.0</ele><time>2026-04-26T08:10:23.947Z</time></trkpt><trkpt lat="45.6051128" lon="10.7215918"><ele>321.0</ele><time>2026-04-26T08:10:24.946Z</time></trkpt><trkpt lat="45.6051522" lon="10.7216921"><ele>321.0</ele><time>2026-04-26T08:10:25.947Z</time></trkpt><trkpt lat="45.605214" lon="10.7217917"><ele>321.0</ele><time>2026-04-26T08:10:27.947Z</time></trkpt><trkpt lat="45.6052858" lon="10.7217647"><ele>322.4</ele><time>2026-04-26T08:10:30.946Z</time></trkpt><trkpt lat="45.6053766" lon="10.721622"><ele>323.8</ele><time>2026-04-26T08:10:32.946Z</time></trkpt><trkpt lat="45.6054364" lon="10.7215394"><ele>325.2</ele><time>2026-04-26T08:10:33.945Z</time></trkpt><trkpt lat="45.6055073" lon="10.721442"><ele>326.59999999999997</ele><time>2026-04-26T08:10:34.947Z</time></trkpt><trkpt lat="45.605575" lon="10.7213776"><ele>328.0</ele><time>2026-04-26T08:10:35.946Z</time></trkpt><trkpt lat="45.6056565" lon="10.721332"><ele>328.0</ele><time>2026-04-26T08:10:36.947Z</time></trkpt><trkpt lat="45.605743" lon="10.7213066"><ele>328.0</ele><time>2026-04-26T08:10:37.946Z</time></trkpt><trkpt lat="45.6058308" lon="10.7212748"><ele>328.0</ele><time>2026-04-26T08:10:38.947Z</time></trkpt><trkpt lat="45.6059169" lon="10.7212169"><ele>328.0</ele><time>2026-04-26T08:10:39.946Z</time></trkpt><trkpt lat="45.6059959" lon="10.7211428"><ele>328.0</ele><time>2026-04-26T08:10:40.947Z</time></trkpt><trkpt lat="45.6060527" lon="10.7210329"><ele>328.2</ele><time>2026-04-26T08:10:41.946Z</time></trkpt><trkpt lat="45.6060938" lon="10.7209105"><ele>328.4</ele><time>2026-04-26T08:10:42.946Z</time></trkpt><trkpt lat="45.606124" lon="10.720777"><ele>328.59999999999997</ele><time>2026-04-26T08:10:43.947Z</time></trkpt><trkpt lat="45.6061546" lon="10.7206438"><ele>328.79999999999995</ele><time>2026-04-26T08:10:44.946Z</time></trkpt><trkpt lat="45.6061976" lon="10.720513"><ele>329.0</ele><time>2026-04-26T08:10:45.947Z</time></trkpt><trkpt lat="45.6062534" lon="10.7203998"><ele>330.4</ele><time>2026-04-26T08:10:46.947Z</time></trkpt><trkpt lat="45.6063213" lon="10.7203024"><ele>331.79999999999995</ele><time>2026-04-26T08:10:47.947Z</time></trkpt><trkpt lat="45.6063976" lon="10.7202175"><ele>333.20000000000005</ele><time>2026-04-26T08:10:48.947Z</time></trkpt><trkpt lat="45.6064762" lon="10.7201448"><ele>334.6</ele><time>2026-04-26T08:10:49.947Z</time></trkpt><trkpt lat="45.6065543" lon="10.7200786"><ele>336.0</ele><time>2026-04-26T08:10:50.947Z</time></trkpt><trkpt lat="45.6066232" lon="10.7200192"><ele>337.20000000000005</ele><time>2026-04-26T08:10:51.946Z</time></trkpt><trkpt lat="45.6067084" lon="10.7199293"><ele>338.40000000000003</ele><time>2026-04-26T08:10:53.946Z</time></trkpt><trkpt lat="45.6067524" lon="10.7198621"><ele>339.6</ele><time>2026-04-26T08:10:55.946Z</time></trkpt><trkpt lat="45.6067582" lon="10.7197477"><ele>340.8</ele><time>2026-04-26T08:10:57.947Z</time></trkpt><trkpt lat="45.6067433" lon="10.7195636"><ele>342.0</ele><time>2026-04-26T08:10:59.945Z</time></trkpt><trkpt lat="45.6067144" lon="10.7194695"><ele>342.6666666666667</ele><time>2026-04-26T08:11:00.947Z</time></trkpt><trkpt lat="45.6066895" lon="10.7193812"><ele>343.3333333333333</ele><time>2026-04-26T08:11:01.947Z</time></trkpt><trkpt lat="45.6066795" lon="10.719289"><ele>344.0</ele><time>2026-04-26T08:11:02.946Z</time></trkpt><trkpt lat="45.6067166" lon="10.7191345"><ele>344.66666666666663</ele><time>2026-04-26T08:11:04.947Z</time></trkpt><trkpt lat="45.6067745" lon="10.7190529"><ele>345.3333333333333</ele><time>2026-04-26T08:11:05.947Z</time></trkpt><trkpt lat="45.6068555" lon="10.7189693"><ele>346.0</ele><time>2026-04-26T08:11:06.946Z</time></trkpt><trkpt lat="45.6069557" lon="10.7188717"><ele>349.20000000000005</ele><time>2026-04-26T08:11:07.946Z</time></trkpt><trkpt lat="45.6070691" lon="10.7187667"><ele>352.40000000000003</ele><time>2026-04-26T08:11:08.947Z</time></trkpt><trkpt lat="45.6071659" lon="10.7186788"><ele>355.6</ele><time>2026-04-26T08:11:09.945Z</time></trkpt><trkpt lat="45.6072339" lon="10.7186158"><ele>358.8</ele><time>2026-04-26T08:11:10.947Z</time></trkpt><trkpt lat="45.6073013" lon="10.7185549"><ele>362.0</ele><time>2026-04-26T08:11:12.947Z</time></trkpt><trkpt lat="45.6072993" lon="10.7184206"><ele>362.20000000000005</ele><time>2026-04-26T08:11:16.947Z</time></trkpt><trkpt lat="45.6072909" lon="10.7182958"><ele>362.4</ele><time>2026-04-26T08:11:17.947Z</time></trkpt><trkpt lat="45.6072655" lon="10.7181532"><ele>362.6</ele><time>2026-04-26T08:11:18.947Z</time></trkpt><trkpt lat="45.6072425" lon="10.7179985"><ele>362.79999999999995</ele><time>2026-04-26T08:11:19.946Z</time></trkpt><trkpt lat="45.6072293" lon="10.7178451"><ele>363.0</ele><time>2026-04-26T08:11:20.946Z</time></trkpt><trkpt lat="45.6072177" lon="10.7176942"><ele>362.6666666666667</ele><time>2026-04-26T08:11:21.946Z</time></trkpt><trkpt lat="45.6072311" lon="10.7175813"><ele>362.3333333333333</ele><time>2026-04-26T08:11:22.947Z</time></trkpt><trkpt lat="45.6072367" lon="10.7174475"><ele>362.0</ele><time>2026-04-26T08:11:23.947Z</time></trkpt><trkpt lat="45.6072393" lon="10.7173412"><ele>361.66666666666663</ele><time>2026-04-26T08:11:24.947Z</time></trkpt><trkpt lat="45.6072452" lon="10.717237"><ele>361.3333333333333</ele><time>2026-04-26T08:11:25.947Z</time></trkpt><trkpt lat="45.6072871" lon="10.7171242"><ele>361.0</ele><time>2026-04-26T08:11:27.947Z</time></trkpt><trkpt lat="45.607373" lon="10.7170903"><ele>361.0</ele><time>2026-04-26T08:11:29.947Z</time></trkpt><trkpt lat="45.6074897" lon="10.7171034"><ele>361.0</ele><time>2026-04-26T08:11:31.946Z</time></trkpt><trkpt lat="45.6075708" lon="10.7171124"><ele>361.0</ele><time>2026-04-26T08:11:32.947Z</time></trkpt><trkpt lat="45.6076618" lon="10.7171108"><ele>361.0</ele><time>2026-04-26T08:11:33.947Z</time></trkpt><trkpt lat="45.6077674" lon="10.7171172"><ele>361.0</ele><time>2026-04-26T08:11:34.947Z</time></trkpt><trkpt lat="45.6078748" lon="10.7171198"><ele>363.3333333333333</ele><time>2026-04-26T08:11:35.947Z</time></trkpt><trkpt lat="45.6079728" lon="10.7171212"><ele>365.66666666666663</ele><time>2026-04-26T08:11:36.947Z</time></trkpt><trkpt lat="45.6080609" lon="10.7171169"><ele>368.0</ele><time>2026-04-26T08:11:37.946Z</time></trkpt><trkpt lat="45.6081413" lon="10.7171163"><ele>370.3333333333333</ele><time>2026-04-26T08:11:38.947Z</time></trkpt><trkpt lat="45.6082212" lon="10.7171153"><ele>372.6666666666667</ele><time>2026-04-26T08:11:39.946Z</time></trkpt><trkpt lat="45.6082894" lon="10.7171299"><ele>375.0</ele><time>2026-04-26T08:11:40.947Z</time></trkpt><trkpt lat="45.6083699" lon="10.7171456"><ele>375.0</ele><time>2026-04-26T08:11:41.947Z</time></trkpt><trkpt lat="45.6084415" lon="10.7171865"><ele>375.0</ele><time>2026-04-26T08:11:42.947Z</time></trkpt><trkpt lat="45.6085179" lon="10.7171982"><ele>375.0</ele><time>2026-04-26T08:11:43.947Z</time></trkpt><trkpt lat="45.6085997" lon="10.7171637"><ele>375.0</ele><time>2026-04-26T08:11:44.946Z</time></trkpt><trkpt lat="45.6086774" lon="10.717117"><ele>375.0</ele><time>2026-04-26T08:11:45.947Z</time></trkpt><trkpt lat="45.6087637" lon="10.7170633"><ele>375.0</ele><time>2026-04-26T08:11:46.947Z</time></trkpt><trkpt lat="45.6088572" lon="10.7170065"><ele>376.0</ele><time>2026-04-26T08:11:47.947Z</time></trkpt><trkpt lat="45.6089504" lon="10.7169453"><ele>377.0</ele><time>2026-04-26T08:11:48.947Z</time></trkpt><trkpt lat="45.6090375" lon="10.7168909"><ele>378.0</ele><time>2026-04-26T08:11:49.947Z</time></trkpt><trkpt lat="45.6091232" lon="10.7168505"><ele>379.0</ele><time>2026-04-26T08:11:50.946Z</time></trkpt><trkpt lat="45.6092108" lon="10.7168237"><ele>380.0</ele><time>2026-04-26T08:11:51.947Z</time></trkpt><trkpt lat="45.6092947" lon="10.7167961"><ele>380.0</ele><time>2026-04-26T08:11:52.947Z</time></trkpt><trkpt lat="45.609389" lon="10.7167637"><ele>380.0</ele><time>2026-04-26T08:11:53.947Z</time></trkpt><trkpt lat="45.6094874" lon="10.7167254"><ele>380.0</ele><time>2026-04-26T08:11:54.947Z</time></trkpt><trkpt lat="45.6095888" lon="10.7166949"><ele>380.0</ele><time>2026-04-26T08:11:55.947Z</time></trkpt><trkpt lat="45.6096911" lon="10.7166686"><ele>380.0</ele><time>2026-04-26T08:11:56.946Z</time></trkpt><trkpt lat="45.6097939" lon="10.7166459"><ele>383.4</ele><time>2026-04-26T08:11:57.947Z</time></trkpt><trkpt lat="45.609893" lon="10.7166213"><ele>386.8</ele><time>2026-04-26T08:11:58.947Z</time></trkpt><trkpt lat="45.609991" lon="10.7165924"><ele>390.20000000000005</ele><time>2026-04-26T08:11:59.947Z</time></trkpt><trkpt lat="45.6100917" lon="10.7165546"><ele>393.6</ele><time>2026-04-26T08:12:00.946Z</time></trkpt><trkpt lat="45.610188" lon="10.7165078"><ele>397.0</ele><time>2026-04-26T08:12:01.947Z</time></trkpt><trkpt lat="45.6102971" lon="10.7164662"><ele>399.0</ele><time>2026-04-26T08:12:02.946Z</time></trkpt><trkpt lat="45.610402" lon="10.7164211"><ele>401.0</ele><time>2026-04-26T08:12:03.947Z</time></trkpt><trkpt lat="45.6105028" lon="10.7163739"><ele>403.0</ele><time>2026-04-26T08:12:04.947Z</time></trkpt><trkpt lat="45.6106092" lon="10.7163398"><ele>405.0</ele><time>2026-04-26T08:12:05.946Z</time></trkpt><trkpt lat="45.6107172" lon="10.7163015"><ele>407.0</ele><time>2026-04-26T08:12:06.946Z</time></trkpt><trkpt lat="45.6108295" lon="10.7162676"><ele>407.0</ele><time>2026-04-26T08:12:07.947Z</time></trkpt><trkpt lat="45.6109451" lon="10.7162388"><ele>407.0</ele><time>2026-04-26T08:12:08.947Z</time></trkpt><trkpt lat="45.6110525" lon="10.7162112"><ele>407.0</ele><time>2026-04-26T08:12:09.947Z</time></trkpt><trkpt lat="45.6111501" lon="10.7161729"><ele>407.0</ele><time>2026-04-26T08:12:10.947Z</time></trkpt><trkpt lat="45.6112465" lon="10.7161373"><ele>407.0</ele><time>2026-04-26T08:12:11.947Z</time></trkpt><trkpt lat="45.6113346" lon="10.7161033"><ele>408.49999999999994</ele><time>2026-04-26T08:12:12.947Z</time></trkpt><trkpt lat="45.6114137" lon="10.7160805"><ele>410.0</ele><time>2026-04-26T08:12:13.947Z</time></trkpt><trkpt lat="45.611483" lon="10.7160437"><ele>411.5</ele><time>2026-04-26T08:12:14.947Z</time></trkpt><trkpt lat="45.611545" lon="10.716004"><ele>413.0</ele><time>2026-04-26T08:12:15.947Z</time></trkpt><trkpt lat="45.6116146" lon="10.7159724"><ele>414.49999999999994</ele><time>2026-04-26T08:12:16.947Z</time></trkpt><trkpt lat="45.6116981" lon="10.715945"><ele>416.0</ele><time>2026-04-26T08:12:17.947Z</time></trkpt><trkpt lat="45.611792" lon="10.7159037"><ele>412.0</ele><time>2026-04-26T08:12:18.947Z</time></trkpt><trkpt lat="45.6118924" lon="10.715867"><ele>408.0</ele><time>2026-04-26T08:12:19.947Z</time></trkpt><trkpt lat="45.6119802" lon="10.7158321"><ele>404.0</ele><time>2026-04-26T08:12:20.947Z</time></trkpt><trkpt lat="45.6120614" lon="10.7158198"><ele>400.0</ele><time>2026-04-26T08:12:21.946Z</time></trkpt><trkpt lat="45.6121425" lon="10.715838"><ele>396.0</ele><time>2026-04-26T08:12:22.947Z</time></trkpt><trkpt lat="45.6122418" lon="10.7158868"><ele>395.6</ele><time>2026-04-26T08:12:23.946Z</time></trkpt><trkpt lat="45.6123457" lon="10.7159427"><ele>395.20000000000005</ele><time>2026-04-26T08:12:24.946Z</time></trkpt><trkpt lat="45.6124481" lon="10.7159779"><ele>394.79999999999995</ele><time>2026-04-26T08:12:25.946Z</time></trkpt><trkpt lat="45.6125358" lon="10.7159866"><ele>394.4</ele><time>2026-04-26T08:12:26.947Z</time></trkpt><trkpt lat="45.6126216" lon="10.7159587"><ele>394.0</ele><time>2026-04-26T08:12:27.946Z</time></trkpt><trkpt lat="45.6127254" lon="10.7159297"><ele>394.0</ele><time>2026-04-26T08:12:28.947Z</time></trkpt><trkpt lat="45.6128023" lon="10.7159268"><ele>394.0</ele><time>2026-04-26T08:12:29.947Z</time></trkpt><trkpt lat="45.6128672" lon="10.7159517"><ele>394.0</ele><time>2026-04-26T08:12:30.946Z</time></trkpt><trkpt lat="45.6129386" lon="10.7159917"><ele>394.0</ele><time>2026-04-26T08:12:31.945Z</time></trkpt><trkpt lat="45.612984" lon="10.7160701"><ele>394.0</ele><time>2026-04-26T08:12:32.947Z</time></trkpt><trkpt lat="45.6130391" lon="10.7161429"><ele>394.0</ele><time>2026-04-26T08:12:33.947Z</time></trkpt><trkpt lat="45.6131065" lon="10.7161434"><ele>394.0</ele><time>2026-04-26T08:12:34.946Z</time></trkpt><trkpt lat="45.6131724" lon="10.7161767"><ele>393.6</ele><time>2026-04-26T08:12:35.947Z</time></trkpt><trkpt lat="45.6132933" lon="10.7161061"><ele>393.2</ele><time>2026-04-26T08:12:36.947Z</time></trkpt><trkpt lat="45.6134023" lon="10.7160663"><ele>392.8</ele><time>2026-04-26T08:12:37.947Z</time></trkpt><trkpt lat="45.6135016" lon="10.7160322"><ele>392.40000000000003</ele><time>2026-04-26T08:12:38.947Z</time></trkpt><trkpt lat="45.6135796" lon="10.7160175"><ele>392.0</ele><time>2026-04-26T08:12:39.947Z</time></trkpt><trkpt lat="45.6136726" lon="10.716033"><ele>392.0</ele><time>2026-04-26T08:12:40.947Z</time></trkpt><trkpt lat="45.6137723" lon="10.7160446"><ele>392.0</ele><time>2026-04-26T08:12:41.946Z</time></trkpt><trkpt lat="45.6138807" lon="10.7160722"><ele>392.0</ele><time>2026-04-26T08:12:42.947Z</time></trkpt><trkpt lat="45.6139855" lon="10.7161113"><ele>392.0</ele><time>2026-04-26T08:12:43.947Z</time></trkpt><trkpt lat="45.6140781" lon="10.7161527"><ele>392.0</ele><time>2026-04-26T08:12:44.946Z</time></trkpt><trkpt lat="45.6141414" lon="10.7161848"><ele>391.8</ele><time>2026-04-26T08:12:45.947Z</time></trkpt><trkpt lat="45.6142477" lon="10.7161839"><ele>391.6</ele><time>2026-04-26T08:12:47.947Z</time></trkpt><trkpt lat="45.6143306" lon="10.7161617"><ele>391.40000000000003</ele><time>2026-04-26T08:12:48.947Z</time></trkpt><trkpt lat="45.614429" lon="10.7161244"><ele>391.20000000000005</ele><time>2026-04-26T08:12:49.947Z</time></trkpt><trkpt lat="45.6145307" lon="10.7160836"><ele>391.0</ele><time>2026-04-26T08:12:50.947Z</time></trkpt><trkpt lat="45.6146381" lon="10.7160359"><ele>391.0</ele><time>2026-04-26T08:12:51.946Z</time></trkpt><trkpt lat="45.6147296" lon="10.7159955"><ele>391.0</ele><time>2026-04-26T08:12:52.947Z</time></trkpt><trkpt lat="45.6148047" lon="10.7159216"><ele>391.0</ele><time>2026-04-26T08:12:53.947Z</time></trkpt><trkpt lat="45.6149045" lon="10.7158399"><ele>391.0</ele><time>2026-04-26T08:12:54.947Z</time></trkpt><trkpt lat="45.6149908" lon="10.7157404"><ele>391.0</ele><time>2026-04-26T08:12:55.947Z</time></trkpt><trkpt lat="45.615081" lon="10.7156658"><ele>391.0</ele><time>2026-04-26T08:12:56.946Z</time></trkpt><trkpt lat="45.6151609" lon="10.7156003"><ele>391.0</ele><time>2026-04-26T08:12:57.947Z</time></trkpt><trkpt lat="45.61525" lon="10.7155502"><ele>391.0</ele><time>2026-04-26T08:12:58.947Z</time></trkpt><trkpt lat="45.6153503" lon="10.7154933"><ele>391.0</ele><time>2026-04-26T08:12:59.946Z</time></trkpt><trkpt lat="45.6154494" lon="10.7154349"><ele>391.0</ele><time>2026-04-26T08:13:00.947Z</time></trkpt><trkpt lat="45.6155319" lon="10.7153481"><ele>392.00000000000006</ele><time>2026-04-26T08:13:01.947Z</time></trkpt><trkpt lat="45.6156046" lon="10.7152703"><ele>393.0</ele><time>2026-04-26T08:13:02.946Z</time></trkpt><trkpt lat="45.6156609" lon="10.7151818"><ele>394.0</ele><time>2026-04-26T08:13:03.946Z</time></trkpt><trkpt lat="45.6157086" lon="10.7150943"><ele>395.0</ele><time>2026-04-26T08:13:04.947Z</time></trkpt><trkpt lat="45.6157449" lon="10.7149891"><ele>396.00000000000006</ele><time>2026-04-26T08:13:05.947Z</time></trkpt><trkpt lat="45.615786" lon="10.7148973"><ele>397.0</ele><time>2026-04-26T08:13:06.947Z</time></trkpt><trkpt lat="45.6158366" lon="10.7148204"><ele>397.42857142857144</ele><time>2026-04-26T08:13:07.947Z</time></trkpt><trkpt lat="45.6158922" lon="10.7147524"><ele>397.85714285714283</ele><time>2026-04-26T08:13:08.947Z</time></trkpt><trkpt lat="45.6159502" lon="10.7146871"><ele>398.28571428571433</ele><time>2026-04-26T08:13:09.946Z</time></trkpt><trkpt lat="45.6160096" lon="10.7146326"><ele>398.7142857142857</ele><time>2026-04-26T08:13:10.946Z</time></trkpt><trkpt lat="45.616072" lon="10.7145941"><ele>399.14285714285717</ele><time>2026-04-26T08:13:11.946Z</time></trkpt><trkpt lat="45.6161344" lon="10.7145596"><ele>399.5714285714286</ele><time>2026-04-26T08:13:12.947Z</time></trkpt><trkpt lat="45.6161974" lon="10.7145161"><ele>400.0</ele><time>2026-04-26T08:13:13.947Z</time></trkpt><trkpt lat="45.6162688" lon="10.7144758"><ele>401.28571428571433</ele><time>2026-04-26T08:13:14.947Z</time></trkpt><trkpt lat="45.6163472" lon="10.714432"><ele>402.57142857142856</ele><time>2026-04-26T08:13:15.947Z</time></trkpt><trkpt lat="45.6164216" lon="10.7143962"><ele>403.8571428571429</ele><time>2026-04-26T08:13:16.947Z</time></trkpt><trkpt lat="45.6164906" lon="10.7143806"><ele>405.14285714285717</ele><time>2026-04-26T08:13:17.947Z</time></trkpt><trkpt lat="45.6165585" lon="10.7143765"><ele>406.42857142857144</ele><time>2026-04-26T08:13:18.946Z</time></trkpt><trkpt lat="45.6166263" lon="10.7143845"><ele>407.7142857142857</ele><time>2026-04-26T08:13:19.946Z</time></trkpt><trkpt lat="45.6166944" lon="10.7144016"><ele>409.0</ele><time>2026-04-26T08:13:20.947Z</time></trkpt><trkpt lat="45.616768" lon="10.7144278"><ele>409.50000000000006</ele><time>2026-04-26T08:13:21.947Z</time></trkpt><trkpt lat="45.6168396" lon="10.7144503"><ele>410.0</ele><time>2026-04-26T08:13:22.947Z</time></trkpt><trkpt lat="45.6169131" lon="10.7144732"><ele>410.5</ele><time>2026-04-26T08:13:23.947Z</time></trkpt><trkpt lat="45.6169888" lon="10.7144904"><ele>411.0</ele><time>2026-04-26T08:13:24.947Z</time></trkpt><trkpt lat="45.6170621" lon="10.7144873"><ele>411.50000000000006</ele><time>2026-04-26T08:13:25.947Z</time></trkpt><trkpt lat="45.6171361" lon="10.7144734"><ele>412.0</ele><time>2026-04-26T08:13:26.947Z</time></trkpt><trkpt lat="45.6172537" lon="10.714444"><ele>412.0</ele><time>2026-04-26T08:13:28.946Z</time></trkpt><trkpt lat="45.617166" lon="10.7144182"><ele>412.0</ele><time>2026-04-26T08:13:39.946Z</time></trkpt><trkpt lat="45.6170667" lon="10.7144651"><ele>412.0</ele><time>2026-04-26T08:13:40.947Z</time></trkpt><trkpt lat="45.6169996" lon="10.7144759"><ele>412.0</ele><time>2026-04-26T08:13:41.947Z</time></trkpt><trkpt lat="45.6168944" lon="10.7144586"><ele>412.0</ele><time>2026-04-26T08:13:43.947Z</time></trkpt><trkpt lat="45.6168067" lon="10.714438"><ele>412.0</ele><time>2026-04-26T08:13:45.947Z</time></trkpt><trkpt lat="45.6167165" lon="10.7144122"><ele>412.0</ele><time>2026-04-26T08:13:47.947Z</time></trkpt><trkpt lat="45.6166028" lon="10.714385"><ele>412.0</ele><time>2026-04-26T08:13:49.947Z</time></trkpt><trkpt lat="45.6165123" lon="10.7143807"><ele>412.0</ele><time>2026-04-26T08:13:51.947Z</time></trkpt><trkpt lat="45.6164312" lon="10.7143975"><ele>412.0</ele><time>2026-04-26T08:13:53.947Z</time></trkpt><trkpt lat="45.6163489" lon="10.7144363"><ele>412.00000000000006</ele><time>2026-04-26T08:13:55.948Z</time></trkpt><trkpt lat="45.6162662" lon="10.7144798"><ele>412.0</ele><time>2026-04-26T08:13:57.947Z</time></trkpt><trkpt lat="45.61619" lon="10.7145253"><ele>412.0</ele><time>2026-04-26T08:13:59.946Z</time></trkpt><trkpt lat="45.6161271" lon="10.7145647"><ele>412.0</ele><time>2026-04-26T08:14:01.947Z</time></trkpt><trkpt lat="45.6160635" lon="10.7145863"><ele>412.00000000000006</ele><time>2026-04-26T08:14:10.947Z</time></trkpt><trkpt lat="45.615969" lon="10.7146444"><ele>412.0</ele><time>2026-04-26T08:14:13.947Z</time></trkpt><trkpt lat="45.6159" lon="10.7146899"><ele>410.00000000000006</ele><time>2026-04-26T08:14:15.947Z</time></trkpt><trkpt lat="45.6158431" lon="10.7147753"><ele>408.0</ele><time>2026-04-26T08:14:17.946Z</time></trkpt><trkpt lat="45.6157798" lon="10.714869"><ele>406.0</ele><time>2026-04-26T08:14:19.947Z</time></trkpt><trkpt lat="45.6157326" lon="10.7149745"><ele>404.0</ele><time>2026-04-26T08:14:21.946Z</time></trkpt><trkpt lat="45.6156996" lon="10.7150841"><ele>402.00000000000006</ele><time>2026-04-26T08:14:23.946Z</time></trkpt><trkpt lat="45.6156777" lon="10.7151698"><ele>400.0</ele><time>2026-04-26T08:14:25.947Z</time></trkpt><trkpt lat="45.6156675" lon="10.7152782"><ele>399.50000000000006</ele><time>2026-04-26T08:14:43.947Z</time></trkpt><trkpt lat="45.6156556" lon="10.7154309"><ele>399.0</ele><time>2026-04-26T08:14:45.947Z</time></trkpt><trkpt lat="45.6156346" lon="10.7155179"><ele>398.5</ele><time>2026-04-26T08:14:46.946Z</time></trkpt><trkpt lat="45.6155888" lon="10.7155911"><ele>398.0</ele><time>2026-04-26T08:14:47.947Z</time></trkpt><trkpt lat="45.6155315" lon="10.7156929"><ele>397.50000000000006</ele><time>2026-04-26T08:14:48.947Z</time></trkpt><trkpt lat="45.6154818" lon="10.7157912"><ele>397.0</ele><time>2026-04-26T08:14:49.947Z</time></trkpt><trkpt lat="45.6154304" lon="10.7158731"><ele>397.00000000000006</ele><time>2026-04-26T08:14:50.947Z</time></trkpt><trkpt lat="45.6153841" lon="10.7159527"><ele>397.0</ele><time>2026-04-26T08:14:51.946Z</time></trkpt><trkpt lat="45.6153612" lon="10.7160626"><ele>397.0</ele><time>2026-04-26T08:14:52.946Z</time></trkpt><trkpt lat="45.615337" lon="10.7161526"><ele>397.0</ele><time>2026-04-26T08:14:53.946Z</time></trkpt><trkpt lat="45.6153139" lon="10.716301"><ele>397.00000000000006</ele><time>2026-04-26T08:14:55.946Z</time></trkpt><trkpt lat="45.6152651" lon="10.7164016"><ele>397.0</ele><time>2026-04-26T08:14:57.947Z</time></trkpt><trkpt lat="45.6152086" lon="10.7165459"><ele>395.20000000000005</ele><time>2026-04-26T08:14:59.946Z</time></trkpt><trkpt lat="45.6151128" lon="10.7166519"><ele>393.4</ele><time>2026-04-26T08:15:01.947Z</time></trkpt><trkpt lat="45.6150176" lon="10.7167381"><ele>391.6</ele><time>2026-04-26T08:15:03.947Z</time></trkpt><trkpt lat="45.614955" lon="10.7168363"><ele>389.79999999999995</ele><time>2026-04-26T08:15:05.947Z</time></trkpt><trkpt lat="45.6149002" lon="10.7169814"><ele>388.0</ele><time>2026-04-26T08:15:07.947Z</time></trkpt><trkpt lat="45.6148374" lon="10.7170949"><ele>385.59999999999997</ele><time>2026-04-26T08:15:09.947Z</time></trkpt><trkpt lat="45.6147596" lon="10.7171851"><ele>383.2</ele><time>2026-04-26T08:15:11.946Z</time></trkpt><trkpt lat="45.6146728" lon="10.717259"><ele>380.8</ele><time>2026-04-26T08:15:13.947Z</time></trkpt><trkpt lat="45.6146269" lon="10.7173594"><ele>378.4</ele><time>2026-04-26T08:15:15.947Z</time></trkpt><trkpt lat="45.6146278" lon="10.7175397"><ele>376.0</ele><time>2026-04-26T08:15:17.946Z</time></trkpt><trkpt lat="45.6146322" lon="10.7176301"><ele>374.0</ele><time>2026-04-26T08:15:18.946Z</time></trkpt><trkpt lat="45.614638" lon="10.7177363"><ele>372.0</ele><time>2026-04-26T08:15:19.947Z</time></trkpt><trkpt lat="45.6146433" lon="10.7178465"><ele>370.0</ele><time>2026-04-26T08:15:20.947Z</time></trkpt><trkpt lat="45.6146469" lon="10.7179501"><ele>368.0</ele><time>2026-04-26T08:15:21.947Z</time></trkpt><trkpt lat="45.6146358" lon="10.7180679"><ele>366.0</ele><time>2026-04-26T08:15:22.947Z</time></trkpt><trkpt lat="45.6146202" lon="10.7181789"><ele>364.0</ele><time>2026-04-26T08:15:23.946Z</time></trkpt><trkpt lat="45.6146012" lon="10.7182915"><ele>364.0</ele><time>2026-04-26T08:15:24.947Z</time></trkpt><trkpt lat="45.6145968" lon="10.7184254"><ele>364.0</ele><time>2026-04-26T08:15:25.947Z</time></trkpt><trkpt lat="45.6145794" lon="10.7185423"><ele>364.0</ele><time>2026-04-26T08:15:26.947Z</time></trkpt><trkpt lat="45.6145658" lon="10.7186442"><ele>364.0</ele><time>2026-04-26T08:15:27.946Z</time></trkpt><trkpt lat="45.6145337" lon="10.7187523"><ele>364.0</ele><time>2026-04-26T08:15:29.947Z</time></trkpt><trkpt lat="45.6144732" lon="10.7188486"><ele>364.0</ele><time>2026-04-26T08:15:31.947Z</time></trkpt><trkpt lat="45.6144133" lon="10.7189206"><ele>363.0</ele><time>2026-04-26T08:15:33.947Z</time></trkpt><trkpt lat="45.614306" lon="10.7189413"><ele>362.0</ele><time>2026-04-26T08:15:35.947Z</time></trkpt><trkpt lat="45.6141738" lon="10.7189277"><ele>361.0</ele><time>2026-04-26T08:15:37.947Z</time></trkpt><trkpt lat="45.6140957" lon="10.7189326"><ele>360.0</ele><time>2026-04-26T08:15:38.947Z</time></trkpt><trkpt lat="45.6140026" lon="10.7189714"><ele>359.0</ele><time>2026-04-26T08:15:39.947Z</time></trkpt><trkpt lat="45.6139246" lon="10.7190133"><ele>359.0</ele><time>2026-04-26T08:15:40.946Z</time></trkpt><trkpt lat="45.6138555" lon="10.71904"><ele>359.0</ele><time>2026-04-26T08:15:41.946Z</time></trkpt><trkpt lat="45.6137912" lon="10.7190666"><ele>359.0</ele><time>2026-04-26T08:15:42.946Z</time></trkpt><trkpt lat="45.6136841" lon="10.7191562"><ele>359.0</ele><time>2026-04-26T08:15:44.947Z</time></trkpt><trkpt lat="45.6136297" lon="10.7192231"><ele>359.0</ele><time>2026-04-26T08:15:45.946Z</time></trkpt><trkpt lat="45.6135756" lon="10.7192946"><ele>359.0</ele><time>2026-04-26T08:15:46.947Z</time></trkpt><trkpt lat="45.6135118" lon="10.7193607"><ele>357.14285714285717</ele><time>2026-04-26T08:15:47.946Z</time></trkpt><trkpt lat="45.6134426" lon="10.7194064"><ele>355.28571428571433</ele><time>2026-04-26T08:15:48.947Z</time></trkpt><trkpt lat="45.6133803" lon="10.7194597"><ele>353.42857142857144</ele><time>2026-04-26T08:15:49.946Z</time></trkpt><trkpt lat="45.6133288" lon="10.7195242"><ele>351.57142857142856</ele><time>2026-04-26T08:15:50.946Z</time></trkpt><trkpt lat="45.6132647" lon="10.7195726"><ele>349.7142857142857</ele><time>2026-04-26T08:15:51.947Z</time></trkpt><trkpt lat="45.6131927" lon="10.7196119"><ele>347.85714285714283</ele><time>2026-04-26T08:15:52.947Z</time></trkpt><trkpt lat="45.613126" lon="10.7196625"><ele>346.0</ele><time>2026-04-26T08:15:53.946Z</time></trkpt><trkpt lat="45.6130631" lon="10.7197172"><ele>346.0</ele><time>2026-04-26T08:15:54.947Z</time></trkpt><trkpt lat="45.6130122" lon="10.719772"><ele>346.0</ele><time>2026-04-26T08:15:55.947Z</time></trkpt><trkpt lat="45.61292" lon="10.7198701"><ele>346.0</ele><time>2026-04-26T08:15:57.947Z</time></trkpt><trkpt lat="45.6128585" lon="10.7200046"><ele>346.0</ele><time>2026-04-26T08:15:59.947Z</time></trkpt><trkpt lat="45.6127699" lon="10.7201326"><ele>346.0</ele><time>2026-04-26T08:16:01.947Z</time></trkpt><trkpt lat="45.6126811" lon="10.720266"><ele>345.20000000000005</ele><time>2026-04-26T08:16:03.947Z</time></trkpt><trkpt lat="45.6125903" lon="10.7203891"><ele>344.40000000000003</ele><time>2026-04-26T08:16:05.947Z</time></trkpt><trkpt lat="45.612522" lon="10.7205655"><ele>343.6</ele><time>2026-04-26T08:16:07.947Z</time></trkpt><trkpt lat="45.6124828" lon="10.7206502"><ele>342.8</ele><time>2026-04-26T08:16:08.946Z</time></trkpt><trkpt lat="45.612442" lon="10.7207208"><ele>342.0</ele><time>2026-04-26T08:16:09.947Z</time></trkpt><trkpt lat="45.6123967" lon="10.7207883"><ele>342.0</ele><time>2026-04-26T08:16:10.946Z</time></trkpt><trkpt lat="45.6123599" lon="10.7209345"><ele>342.0</ele><time>2026-04-26T08:16:12.947Z</time></trkpt><trkpt lat="45.6123719" lon="10.7210268"><ele>342.0</ele><time>2026-04-26T08:16:13.947Z</time></trkpt><trkpt lat="45.6123843" lon="10.7211188"><ele>342.0</ele><time>2026-04-26T08:16:14.947Z</time></trkpt><trkpt lat="45.6124044" lon="10.7212986"><ele>342.0</ele><time>2026-04-26T08:16:16.947Z</time></trkpt><trkpt lat="45.612411" lon="10.7214304"><ele>341.0</ele><time>2026-04-26T08:16:18.947Z</time></trkpt><trkpt lat="45.6123275" lon="10.7215265"><ele>340.0</ele><time>2026-04-26T08:16:30.947Z</time></trkpt><trkpt lat="45.6122458" lon="10.7215903"><ele>339.0</ele><time>2026-04-26T08:16:31.946Z</time></trkpt><trkpt lat="45.6121593" lon="10.7216379"><ele>338.0</ele><time>2026-04-26T08:16:32.947Z</time></trkpt><trkpt lat="45.6120673" lon="10.7216939"><ele>337.0</ele><time>2026-04-26T08:16:33.946Z</time></trkpt><trkpt lat="45.61197" lon="10.7217464"><ele>337.0</ele><time>2026-04-26T08:16:34.947Z</time></trkpt><trkpt lat="45.6118775" lon="10.72179"><ele>337.0</ele><time>2026-04-26T08:16:35.947Z</time></trkpt><trkpt lat="45.6117919" lon="10.7218392"><ele>337.0</ele><time>2026-04-26T08:16:36.947Z</time></trkpt><trkpt lat="45.6117088" lon="10.721945"><ele>337.0</ele><time>2026-04-26T08:16:37.947Z</time></trkpt><trkpt lat="45.6116291" lon="10.7220412"><ele>337.0</ele><time>2026-04-26T08:16:38.947Z</time></trkpt><trkpt lat="45.6115505" lon="10.7221273"><ele>336.0</ele><time>2026-04-26T08:16:39.947Z</time></trkpt><trkpt lat="45.6114715" lon="10.7222008"><ele>335.0</ele><time>2026-04-26T08:16:40.946Z</time></trkpt><trkpt lat="45.6113845" lon="10.7222647"><ele>334.0</ele><time>2026-04-26T08:16:41.947Z</time></trkpt><trkpt lat="45.6112902" lon="10.722324"><ele>333.0</ele><time>2026-04-26T08:16:42.947Z</time></trkpt><trkpt lat="45.6112076" lon="10.7223751"><ele>332.0</ele><time>2026-04-26T08:16:43.947Z</time></trkpt><trkpt lat="45.6111316" lon="10.7223886"><ele>331.0</ele><time>2026-04-26T08:16:44.947Z</time></trkpt><trkpt lat="45.6110484" lon="10.7223926"><ele>330.0</ele><time>2026-04-26T08:16:45.947Z</time></trkpt><trkpt lat="45.6109629" lon="10.7223975"><ele>329.0</ele><time>2026-04-26T08:16:46.947Z</time></trkpt><trkpt lat="45.610882" lon="10.7224147"><ele>328.0</ele><time>2026-04-26T08:16:47.947Z</time></trkpt><trkpt lat="45.6108094" lon="10.7224228"><ele>327.0</ele><time>2026-04-26T08:16:48.946Z</time></trkpt><trkpt lat="45.6107396" lon="10.7224182"><ele>326.0</ele><time>2026-04-26T08:16:49.947Z</time></trkpt><trkpt lat="45.610663" lon="10.7224318"><ele>326.0</ele><time>2026-04-26T08:16:50.947Z</time></trkpt><trkpt lat="45.6105803" lon="10.7224592"><ele>326.0</ele><time>2026-04-26T08:16:51.947Z</time></trkpt><trkpt lat="45.6104926" lon="10.7224933"><ele>326.0</ele><time>2026-04-26T08:16:52.946Z</time></trkpt><trkpt lat="45.6104049" lon="10.7225379"><ele>326.0</ele><time>2026-04-26T08:16:53.947Z</time></trkpt><trkpt lat="45.6103154" lon="10.7225866"><ele>326.0</ele><time>2026-04-26T08:16:54.947Z</time></trkpt><trkpt lat="45.6102209" lon="10.7226287"><ele>326.20000000000005</ele><time>2026-04-26T08:16:55.947Z</time></trkpt><trkpt lat="45.6101217" lon="10.7226715"><ele>326.40000000000003</ele><time>2026-04-26T08:16:56.946Z</time></trkpt><trkpt lat="45.6100224" lon="10.7227109"><ele>326.6</ele><time>2026-04-26T08:16:57.947Z</time></trkpt><trkpt lat="45.6099203" lon="10.7227573"><ele>326.8</ele><time>2026-04-26T08:16:58.947Z</time></trkpt><trkpt lat="45.6098168" lon="10.7228057"><ele>327.0</ele><time>2026-04-26T08:16:59.947Z</time></trkpt><trkpt lat="45.6097182" lon="10.7228593"><ele>327.0</ele><time>2026-04-26T08:17:00.947Z</time></trkpt><trkpt lat="45.6096247" lon="10.722922"><ele>327.0</ele><time>2026-04-26T08:17:01.947Z</time></trkpt><trkpt lat="45.6095335" lon="10.7229803"><ele>327.0</ele><time>2026-04-26T08:17:02.946Z</time></trkpt><trkpt lat="45.6094367" lon="10.7230288"><ele>327.0</ele><time>2026-04-26T08:17:03.947Z</time></trkpt><trkpt lat="45.6093379" lon="10.7230809"><ele>327.0</ele><time>2026-04-26T08:17:04.946Z</time></trkpt><trkpt lat="45.6092346" lon="10.7231382"><ele>325.40000000000003</ele><time>2026-04-26T08:17:05.947Z</time></trkpt><trkpt lat="45.6091348" lon="10.7232039"><ele>323.8</ele><time>2026-04-26T08:17:06.947Z</time></trkpt><trkpt lat="45.6090433" lon="10.7232795"><ele>322.2</ele><time>2026-04-26T08:17:07.947Z</time></trkpt><trkpt lat="45.6089588" lon="10.7233572"><ele>320.6</ele><time>2026-04-26T08:17:08.947Z</time></trkpt><trkpt lat="45.6088831" lon="10.7234187"><ele>319.0</ele><time>2026-04-26T08:17:09.946Z</time></trkpt><trkpt lat="45.6087815" lon="10.7234515"><ele>319.0</ele><time>2026-04-26T08:17:11.947Z</time></trkpt><trkpt lat="45.608664" lon="10.7234707"><ele>319.0</ele><time>2026-04-26T08:17:13.947Z</time></trkpt><trkpt lat="45.6085994" lon="10.7234604"><ele>319.0</ele><time>2026-04-26T08:17:14.947Z</time></trkpt><trkpt lat="45.6085265" lon="10.7234447"><ele>319.0</ele><time>2026-04-26T08:17:15.946Z</time></trkpt><trkpt lat="45.6084453" lon="10.7234331"><ele>319.0</ele><time>2026-04-26T08:17:16.947Z</time></trkpt><trkpt lat="45.6083615" lon="10.7234236"><ele>319.0</ele><time>2026-04-26T08:17:17.947Z</time></trkpt><trkpt lat="45.6082833" lon="10.7234136"><ele>319.0</ele><time>2026-04-26T08:17:18.946Z</time></trkpt><trkpt lat="45.6082064" lon="10.7234083"><ele>319.0</ele><time>2026-04-26T08:17:19.947Z</time></trkpt><trkpt lat="45.6081306" lon="10.723402"><ele>319.0</ele><time>2026-04-26T08:17:20.946Z</time></trkpt><trkpt lat="45.608051" lon="10.7234156"><ele>319.0</ele><time>2026-04-26T08:17:21.946Z</time></trkpt><trkpt lat="45.6079713" lon="10.7234686"><ele>319.0</ele><time>2026-04-26T08:17:22.946Z</time></trkpt><trkpt lat="45.6079066" lon="10.7235323"><ele>319.0</ele><time>2026-04-26T08:17:23.946Z</time></trkpt><trkpt lat="45.6078479" lon="10.7235879"><ele>317.5</ele><time>2026-04-26T08:17:24.947Z</time></trkpt><trkpt lat="45.6077857" lon="10.723639"><ele>316.0</ele><time>2026-04-26T08:17:25.946Z</time></trkpt><trkpt lat="45.6077225" lon="10.7236846"><ele>314.5</ele><time>2026-04-26T08:17:26.947Z</time></trkpt><trkpt lat="45.607655" lon="10.7237151"><ele>313.0</ele><time>2026-04-26T08:17:27.947Z</time></trkpt><trkpt lat="45.6075802" lon="10.7237325"><ele>311.5</ele><time>2026-04-26T08:17:28.945Z</time></trkpt><trkpt lat="45.6075007" lon="10.7237456"><ele>310.0</ele><time>2026-04-26T08:17:29.947Z</time></trkpt><trkpt lat="45.607418" lon="10.7237531"><ele>310.0</ele><time>2026-04-26T08:17:30.947Z</time></trkpt><trkpt lat="45.6073327" lon="10.7237602"><ele>310.0</ele><time>2026-04-26T08:17:31.947Z</time></trkpt><trkpt lat="45.6072474" lon="10.7237714"><ele>310.0</ele><time>2026-04-26T08:17:32.947Z</time></trkpt><trkpt lat="45.6071634" lon="10.7237929"><ele>310.0</ele><time>2026-04-26T08:17:33.947Z</time></trkpt><trkpt lat="45.6070874" lon="10.7238239"><ele>310.0</ele><time>2026-04-26T08:17:34.947Z</time></trkpt><trkpt lat="45.6070265" lon="10.7238481"><ele>310.0</ele><time>2026-04-26T08:17:35.947Z</time></trkpt><trkpt lat="45.6069606" lon="10.7238643"><ele>310.0</ele><time>2026-04-26T08:17:38.947Z</time></trkpt><trkpt lat="45.606902" lon="10.7239577"><ele>310.0</ele><time>2026-04-26T08:17:42.947Z</time></trkpt><trkpt lat="45.6068568" lon="10.7241562"><ele>310.0</ele><time>2026-04-26T08:17:44.946Z</time></trkpt><trkpt lat="45.606799" lon="10.7242875"><ele>310.0</ele><time>2026-04-26T08:17:45.947Z</time></trkpt><trkpt lat="45.6067325" lon="10.7244293"><ele>310.0</ele><time>2026-04-26T08:17:46.947Z</time></trkpt><trkpt lat="45.6066595" lon="10.7245876"><ele>310.0</ele><time>2026-04-26T08:17:47.947Z</time></trkpt><trkpt lat="45.6065903" lon="10.7247535"><ele>310.0</ele><time>2026-04-26T08:17:48.946Z</time></trkpt><trkpt lat="45.6065285" lon="10.7249266"><ele>310.0</ele><time>2026-04-26T08:17:49.947Z</time></trkpt><trkpt lat="45.606481" lon="10.7251029"><ele>311.25</ele><time>2026-04-26T08:17:50.946Z</time></trkpt><trkpt lat="45.6064436" lon="10.7252797"><ele>312.5</ele><time>2026-04-26T08:17:51.947Z</time></trkpt><trkpt lat="45.6064221" lon="10.7254568"><ele>313.75</ele><time>2026-04-26T08:17:52.947Z</time></trkpt><trkpt lat="45.606413" lon="10.725635"><ele>315.0</ele><time>2026-04-26T08:17:53.946Z</time></trkpt><trkpt lat="45.606419" lon="10.7258101"><ele>315.0</ele><time>2026-04-26T08:17:54.947Z</time></trkpt><trkpt lat="45.6064418" lon="10.7259735"><ele>315.0</ele><time>2026-04-26T08:17:55.947Z</time></trkpt><trkpt lat="45.6064697" lon="10.7261201"><ele>315.0</ele><time>2026-04-26T08:17:56.946Z</time></trkpt><trkpt lat="45.6064944" lon="10.7262466"><ele>315.0</ele><time>2026-04-26T08:17:57.947Z</time></trkpt><trkpt lat="45.6065025" lon="10.7263528"><ele>315.0</ele><time>2026-04-26T08:17:58.947Z</time></trkpt><trkpt lat="45.606512" lon="10.726448"><ele>315.1666666666667</ele><time>2026-04-26T08:17:59.947Z</time></trkpt><trkpt lat="45.6065379" lon="10.7266067"><ele>315.3333333333333</ele><time>2026-04-26T08:18:01.946Z</time></trkpt><trkpt lat="45.6065718" lon="10.7267233"><ele>315.5</ele><time>2026-04-26T08:18:03.946Z</time></trkpt><trkpt lat="45.6066093" lon="10.7267978"><ele>315.66666666666663</ele><time>2026-04-26T08:18:06.946Z</time></trkpt><trkpt lat="45.6065467" lon="10.7268523"><ele>315.8333333333333</ele><time>2026-04-26T08:18:09.947Z</time></trkpt><trkpt lat="45.6064475" lon="10.7268937"><ele>316.0</ele><time>2026-04-26T08:18:11.947Z</time></trkpt><trkpt lat="45.6063588" lon="10.7269612"><ele>316.0</ele><time>2026-04-26T08:18:13.946Z</time></trkpt><trkpt lat="45.6062695" lon="10.7270411"><ele>316.0</ele><time>2026-04-26T08:18:15.945Z</time></trkpt><trkpt lat="45.6061546" lon="10.7271453"><ele>316.0</ele><time>2026-04-26T08:18:17.946Z</time></trkpt><trkpt lat="45.6060842" lon="10.7271941"><ele>316.0</ele><time>2026-04-26T08:18:18.946Z</time></trkpt><trkpt lat="45.6060015" lon="10.727226"><ele>316.0</ele><time>2026-04-26T08:18:19.946Z</time></trkpt><trkpt lat="45.6059088" lon="10.7272533"><ele>315.40000000000003</ele><time>2026-04-26T08:18:20.946Z</time></trkpt><trkpt lat="45.6058131" lon="10.7272757"><ele>314.8</ele><time>2026-04-26T08:18:21.946Z</time></trkpt><trkpt lat="45.6057149" lon="10.7272949"><ele>314.20000000000005</ele><time>2026-04-26T08:18:22.946Z</time></trkpt><trkpt lat="45.6056193" lon="10.7273013"><ele>313.6</ele><time>2026-04-26T08:18:23.946Z</time></trkpt><trkpt lat="45.605523" lon="10.7272972"><ele>313.0</ele><time>2026-04-26T08:18:24.945Z</time></trkpt><trkpt lat="45.6054238" lon="10.7272849"><ele>313.2</ele><time>2026-04-26T08:18:25.946Z</time></trkpt><trkpt lat="45.6053231" lon="10.7272765"><ele>313.4</ele><time>2026-04-26T08:18:26.946Z</time></trkpt><trkpt lat="45.6052249" lon="10.7272678"><ele>313.59999999999997</ele><time>2026-04-26T08:18:27.946Z</time></trkpt><trkpt lat="45.6051274" lon="10.727259"><ele>313.8</ele><time>2026-04-26T08:18:28.946Z</time></trkpt><trkpt lat="45.6050368" lon="10.7272508"><ele>314.0</ele><time>2026-04-26T08:18:29.945Z</time></trkpt><trkpt lat="45.6049515" lon="10.7272429"><ele>314.0</ele><time>2026-04-26T08:18:30.945Z</time></trkpt><trkpt lat="45.6048693" lon="10.7272361"><ele>314.0</ele><time>2026-04-26T08:18:31.946Z</time></trkpt><trkpt lat="45.6047829" lon="10.7272305"><ele>314.0</ele><time>2026-04-26T08:18:32.945Z</time></trkpt><trkpt lat="45.6046899" lon="10.7272281"><ele>314.0</ele><time>2026-04-26T08:18:33.946Z</time></trkpt><trkpt lat="45.6045836" lon="10.7272411"><ele>314.0</ele><time>2026-04-26T08:18:34.946Z</time></trkpt><trkpt lat="45.6044691" lon="10.7272676"><ele>314.0</ele><time>2026-04-26T08:18:35.946Z</time></trkpt><trkpt lat="45.6043492" lon="10.727303"><ele>314.0</ele><time>2026-04-26T08:18:36.946Z</time></trkpt><trkpt lat="45.6042232" lon="10.7273466"><ele>314.0</ele><time>2026-04-26T08:18:37.945Z</time></trkpt><trkpt lat="45.6040947" lon="10.7273914"><ele>314.0</ele><time>2026-04-26T08:18:38.945Z</time></trkpt><trkpt lat="45.6039647" lon="10.727426"><ele>314.0</ele><time>2026-04-26T08:18:39.945Z</time></trkpt><trkpt lat="45.6038324" lon="10.7274483"><ele>314.0</ele><time>2026-04-26T08:18:40.946Z</time></trkpt><trkpt lat="45.6036992" lon="10.7274724"><ele>314.0</ele><time>2026-04-26T08:18:41.946Z</time></trkpt><trkpt lat="45.6035599" lon="10.7275127"><ele>314.0</ele><time>2026-04-26T08:18:42.945Z</time></trkpt><trkpt lat="45.6034187" lon="10.727569"><ele>314.25</ele><time>2026-04-26T08:18:43.945Z</time></trkpt><trkpt lat="45.603283" lon="10.7276388"><ele>314.5</ele><time>2026-04-26T08:18:44.945Z</time></trkpt><trkpt lat="45.6031606" lon="10.7277121"><ele>314.75</ele><time>2026-04-26T08:18:45.945Z</time></trkpt><trkpt lat="45.6030457" lon="10.7277839"><ele>315.0</ele><time>2026-04-26T08:18:46.946Z</time></trkpt><trkpt lat="45.6029415" lon="10.7278475"><ele>315.0</ele><time>2026-04-26T08:18:47.945Z</time></trkpt><trkpt lat="45.6028475" lon="10.7279043"><ele>315.0</ele><time>2026-04-26T08:18:48.946Z</time></trkpt><trkpt lat="45.6027596" lon="10.7279593"><ele>315.0</ele><time>2026-04-26T08:18:49.946Z</time></trkpt><trkpt lat="45.6026729" lon="10.7280115"><ele>315.0</ele><time>2026-04-26T08:18:50.945Z</time></trkpt><trkpt lat="45.6025896" lon="10.728058"><ele>315.0</ele><time>2026-04-26T08:18:51.946Z</time></trkpt><trkpt lat="45.6025107" lon="10.7280945"><ele>314.8333333333333</ele><time>2026-04-26T08:18:52.945Z</time></trkpt><trkpt lat="45.6024424" lon="10.72813"><ele>314.6666666666667</ele><time>2026-04-26T08:18:53.945Z</time></trkpt><trkpt lat="45.6023808" lon="10.7281668"><ele>314.5</ele><time>2026-04-26T08:18:54.945Z</time></trkpt><trkpt lat="45.6023055" lon="10.7282996"><ele>314.33333333333337</ele><time>2026-04-26T08:18:56.945Z</time></trkpt><trkpt lat="45.6022789" lon="10.7284007"><ele>314.1666666666667</ele><time>2026-04-26T08:18:57.945Z</time></trkpt><trkpt lat="45.602249" lon="10.7285231"><ele>314.0</ele><time>2026-04-26T08:18:58.946Z</time></trkpt><trkpt lat="45.6022176" lon="10.7286517"><ele>314.0</ele><time>2026-04-26T08:18:59.946Z</time></trkpt><trkpt lat="45.60219" lon="10.7287796"><ele>314.0</ele><time>2026-04-26T08:19:00.945Z</time></trkpt><trkpt lat="45.6021728" lon="10.7288838"><ele>314.0</ele><time>2026-04-26T08:19:01.946Z</time></trkpt><trkpt lat="45.6021614" lon="10.7290502"><ele>314.0</ele><time>2026-04-26T08:19:03.946Z</time></trkpt><trkpt lat="45.6021667" lon="10.7292352"><ele>314.0</ele><time>2026-04-26T08:19:05.946Z</time></trkpt><trkpt lat="45.6021731" lon="10.7293407"><ele>313.5</ele><time>2026-04-26T08:19:06.946Z</time></trkpt><trkpt lat="45.6021765" lon="10.7294403"><ele>313.0</ele><time>2026-04-26T08:19:07.946Z</time></trkpt><trkpt lat="45.6021767" lon="10.7295365"><ele>312.5</ele><time>2026-04-26T08:19:08.945Z</time></trkpt><trkpt lat="45.6021741" lon="10.7296284"><ele>312.0</ele><time>2026-04-26T08:19:09.945Z</time></trkpt><trkpt lat="45.6021761" lon="10.729788"><ele>311.5</ele><time>2026-04-26T08:19:11.945Z</time></trkpt><trkpt lat="45.60218" lon="10.7299602"><ele>311.0</ele><time>2026-04-26T08:19:13.946Z</time></trkpt><trkpt lat="45.6021503" lon="10.7301024"><ele>311.0</ele><time>2026-04-26T08:19:15.945Z</time></trkpt><trkpt lat="45.602067" lon="10.7301979"><ele>311.0</ele><time>2026-04-26T08:19:17.946Z</time></trkpt><trkpt lat="45.6020088" lon="10.7302415"><ele>311.0</ele><time>2026-04-26T08:19:18.945Z</time></trkpt><trkpt lat="45.6019484" lon="10.7302922"><ele>311.0</ele><time>2026-04-26T08:19:19.945Z</time></trkpt><trkpt lat="45.6018905" lon="10.7303411"><ele>311.0</ele><time>2026-04-26T08:19:20.946Z</time></trkpt><trkpt lat="45.601831" lon="10.730392"><ele>311.0</ele><time>2026-04-26T08:19:21.946Z</time></trkpt><trkpt lat="45.6017667" lon="10.7304456"><ele>311.0</ele><time>2026-04-26T08:19:22.945Z</time></trkpt><trkpt lat="45.601695" lon="10.7305012"><ele>311.0</ele><time>2026-04-26T08:19:23.946Z</time></trkpt><trkpt lat="45.6016176" lon="10.7305579"><ele>311.0</ele><time>2026-04-26T08:19:24.946Z</time></trkpt><trkpt lat="45.6015407" lon="10.7306169"><ele>311.0</ele><time>2026-04-26T08:19:25.945Z</time></trkpt><trkpt lat="45.6014615" lon="10.7306779"><ele>311.0</ele><time>2026-04-26T08:19:26.946Z</time></trkpt><trkpt lat="45.6013845" lon="10.7307402"><ele>311.0</ele><time>2026-04-26T08:19:27.945Z</time></trkpt><trkpt lat="45.6013133" lon="10.7308158"><ele>311.0</ele><time>2026-04-26T08:19:28.946Z</time></trkpt><trkpt lat="45.6012463" lon="10.7308984"><ele>311.0</ele><time>2026-04-26T08:19:29.945Z</time></trkpt><trkpt lat="45.6011786" lon="10.7309782"><ele>311.0</ele><time>2026-04-26T08:19:30.946Z</time></trkpt><trkpt lat="45.601115" lon="10.7310392"><ele>311.0</ele><time>2026-04-26T08:19:31.945Z</time></trkpt><trkpt lat="45.6010518" lon="10.7310915"><ele>311.0</ele><time>2026-04-26T08:19:32.946Z</time></trkpt><trkpt lat="45.6009803" lon="10.7311333"><ele>311.0</ele><time>2026-04-26T08:19:33.946Z</time></trkpt><trkpt lat="45.6009017" lon="10.7311771"><ele>310.1666666666667</ele><time>2026-04-26T08:19:34.946Z</time></trkpt><trkpt lat="45.6008167" lon="10.7312194"><ele>309.33333333333337</ele><time>2026-04-26T08:19:35.946Z</time></trkpt><trkpt lat="45.6007388" lon="10.7312652"><ele>308.5</ele><time>2026-04-26T08:19:36.946Z</time></trkpt><trkpt lat="45.6006589" lon="10.7313137"><ele>307.6666666666667</ele><time>2026-04-26T08:19:37.946Z</time></trkpt><trkpt lat="45.6005788" lon="10.7313574"><ele>306.8333333333333</ele><time>2026-04-26T08:19:38.946Z</time></trkpt><trkpt lat="45.6004957" lon="10.731397"><ele>306.0</ele><time>2026-04-26T08:19:39.946Z</time></trkpt><trkpt lat="45.6004134" lon="10.7314465"><ele>306.0</ele><time>2026-04-26T08:19:40.946Z</time></trkpt><trkpt lat="45.6003259" lon="10.7314937"><ele>306.0</ele><time>2026-04-26T08:19:41.945Z</time></trkpt><trkpt lat="45.6002356" lon="10.7315395"><ele>306.0</ele><time>2026-04-26T08:19:42.946Z</time></trkpt><trkpt lat="45.6001455" lon="10.731585"><ele>306.0</ele><time>2026-04-26T08:19:43.946Z</time></trkpt><trkpt lat="45.6000556" lon="10.7316278"><ele>306.0</ele><time>2026-04-26T08:19:44.946Z</time></trkpt><trkpt lat="45.5999746" lon="10.7316674"><ele>306.0</ele><time>2026-04-26T08:19:45.945Z</time></trkpt><trkpt lat="45.5998987" lon="10.7317145"><ele>306.0</ele><time>2026-04-26T08:19:46.946Z</time></trkpt><trkpt lat="45.5998173" lon="10.7317629"><ele>306.0</ele><time>2026-04-26T08:19:47.945Z</time></trkpt><trkpt lat="45.5997363" lon="10.7318158"><ele>306.0</ele><time>2026-04-26T08:19:48.946Z</time></trkpt><trkpt lat="45.5996502" lon="10.7318781"><ele>306.0</ele><time>2026-04-26T08:19:49.945Z</time></trkpt><trkpt lat="45.5995631" lon="10.7319314"><ele>305.2</ele><time>2026-04-26T08:19:50.945Z</time></trkpt><trkpt lat="45.5994806" lon="10.7320009"><ele>304.40000000000003</ele><time>2026-04-26T08:19:51.946Z</time></trkpt><trkpt lat="45.599394" lon="10.7320783"><ele>303.6</ele><time>2026-04-26T08:19:52.946Z</time></trkpt><trkpt lat="45.5993087" lon="10.7321527"><ele>302.8</ele><time>2026-04-26T08:19:53.945Z</time></trkpt><trkpt lat="45.599222" lon="10.7322245"><ele>302.0</ele><time>2026-04-26T08:19:54.946Z</time></trkpt><trkpt lat="45.5991417" lon="10.7322878"><ele>302.0</ele><time>2026-04-26T08:19:55.946Z</time></trkpt><trkpt lat="45.599072" lon="10.7323537"><ele>302.0</ele><time>2026-04-26T08:19:56.945Z</time></trkpt><trkpt lat="45.5990042" lon="10.7324301"><ele>302.0</ele><time>2026-04-26T08:19:57.945Z</time></trkpt><trkpt lat="45.5989434" lon="10.7325096"><ele>302.0</ele><time>2026-04-26T08:19:58.946Z</time></trkpt><trkpt lat="45.5988839" lon="10.7325937"><ele>302.0</ele><time>2026-04-26T08:19:59.946Z</time></trkpt><trkpt lat="45.5988234" lon="10.7326681"><ele>302.0</ele><time>2026-04-26T08:20:00.946Z</time></trkpt><trkpt lat="45.5987537" lon="10.732729"><ele>301.33333333333337</ele><time>2026-04-26T08:20:01.945Z</time></trkpt><trkpt lat="45.5986776" lon="10.7327864"><ele>300.6666666666667</ele><time>2026-04-26T08:20:02.946Z</time></trkpt><trkpt lat="45.5986093" lon="10.7328386"><ele>300.0</ele><time>2026-04-26T08:20:03.945Z</time></trkpt><trkpt lat="45.5985424" lon="10.7328916"><ele>299.3333333333333</ele><time>2026-04-26T08:20:04.946Z</time></trkpt><trkpt lat="45.5984743" lon="10.7329544"><ele>298.66666666666663</ele><time>2026-04-26T08:20:05.946Z</time></trkpt><trkpt lat="45.598398" lon="10.733037"><ele>298.0</ele><time>2026-04-26T08:20:06.945Z</time></trkpt><trkpt lat="45.5983189" lon="10.7331247"><ele>298.0</ele><time>2026-04-26T08:20:07.945Z</time></trkpt><trkpt lat="45.5982428" lon="10.733194"><ele>298.0</ele><time>2026-04-26T08:20:08.946Z</time></trkpt><trkpt lat="45.5981613" lon="10.73326"><ele>298.0</ele><time>2026-04-26T08:20:09.946Z</time></trkpt><trkpt lat="45.5980655" lon="10.7333262"><ele>298.0</ele><time>2026-04-26T08:20:10.946Z</time></trkpt><trkpt lat="45.5979654" lon="10.7333734"><ele>298.0</ele><time>2026-04-26T08:20:11.945Z</time></trkpt><trkpt lat="45.5978566" lon="10.7334056"><ele>297.25</ele><time>2026-04-26T08:20:12.946Z</time></trkpt><trkpt lat="45.5977345" lon="10.7334348"><ele>296.5</ele><time>2026-04-26T08:20:13.945Z</time></trkpt><trkpt lat="45.5976119" lon="10.7334533"><ele>295.75</ele><time>2026-04-26T08:20:14.946Z</time></trkpt><trkpt lat="45.5974943" lon="10.7334867"><ele>295.0</ele><time>2026-04-26T08:20:15.946Z</time></trkpt><trkpt lat="45.5973738" lon="10.7335206"><ele>295.0</ele><time>2026-04-26T08:20:16.945Z</time></trkpt><trkpt lat="45.5972588" lon="10.733555"><ele>295.0</ele><time>2026-04-26T08:20:17.946Z</time></trkpt><trkpt lat="45.5971458" lon="10.7335849"><ele>295.0</ele><time>2026-04-26T08:20:18.945Z</time></trkpt><trkpt lat="45.5970404" lon="10.7336438"><ele>295.0</ele><time>2026-04-26T08:20:19.946Z</time></trkpt><trkpt lat="45.5969517" lon="10.7337182"><ele>295.0</ele><time>2026-04-26T08:20:20.945Z</time></trkpt><trkpt lat="45.5968756" lon="10.7337924"><ele>291.8333333333333</ele><time>2026-04-26T08:20:21.946Z</time></trkpt><trkpt lat="45.5968194" lon="10.7338335"><ele>288.66666666666663</ele><time>2026-04-26T08:20:22.946Z</time></trkpt><trkpt lat="45.596763" lon="10.733875"><ele>285.5</ele><time>2026-04-26T08:20:24.946Z</time></trkpt><trkpt lat="45.5966628" lon="10.7339173"><ele>282.3333333333333</ele><time>2026-04-26T08:20:26.946Z</time></trkpt><trkpt lat="45.5965877" lon="10.7339549"><ele>279.1666666666667</ele><time>2026-04-26T08:20:27.946Z</time></trkpt><trkpt lat="45.5965223" lon="10.7339933"><ele>276.0</ele><time>2026-04-26T08:20:28.945Z</time></trkpt><trkpt lat="45.5964676" lon="10.7340546"><ele>276.0</ele><time>2026-04-26T08:20:29.946Z</time></trkpt><trkpt lat="45.5964216" lon="10.7341287"><ele>276.0</ele><time>2026-04-26T08:20:30.945Z</time></trkpt><trkpt lat="45.5963784" lon="10.7342029"><ele>276.0</ele><time>2026-04-26T08:20:31.946Z</time></trkpt><trkpt lat="45.596327" lon="10.7342779"><ele>276.0</ele><time>2026-04-26T08:20:32.945Z</time></trkpt><trkpt lat="45.5962701" lon="10.7343698"><ele>276.0</ele><time>2026-04-26T08:20:33.946Z</time></trkpt><trkpt lat="45.5962069" lon="10.7344694"><ele>276.0</ele><time>2026-04-26T08:20:34.946Z</time></trkpt><trkpt lat="45.5961404" lon="10.7345694"><ele>273.0</ele><time>2026-04-26T08:20:35.946Z</time></trkpt><trkpt lat="45.5960803" lon="10.7346615"><ele>270.0</ele><time>2026-04-26T08:20:36.946Z</time></trkpt><trkpt lat="45.5960269" lon="10.7347411"><ele>267.0</ele><time>2026-04-26T08:20:37.945Z</time></trkpt><trkpt lat="45.5959822" lon="10.7348065"><ele>264.0</ele><time>2026-04-26T08:20:38.945Z</time></trkpt><trkpt lat="45.5958982" lon="10.7348571"><ele>261.0</ele><time>2026-04-26T08:20:40.945Z</time></trkpt><trkpt lat="45.5958341" lon="10.7348757"><ele>258.0</ele><time>2026-04-26T08:20:42.946Z</time></trkpt><trkpt lat="45.5957739" lon="10.7349473"><ele>258.0</ele><time>2026-04-26T08:20:44.945Z</time></trkpt><trkpt lat="45.5956968" lon="10.7350659"><ele>258.0</ele><time>2026-04-26T08:20:46.946Z</time></trkpt><trkpt lat="45.595654" lon="10.735156"><ele>258.0</ele><time>2026-04-26T08:20:47.946Z</time></trkpt><trkpt lat="45.5956066" lon="10.7352383"><ele>258.0</ele><time>2026-04-26T08:20:48.945Z</time></trkpt><trkpt lat="45.5955555" lon="10.7353513"><ele>258.0</ele><time>2026-04-26T08:20:50.945Z</time></trkpt><trkpt lat="45.5955822" lon="10.7354761"><ele>258.0</ele><time>2026-04-26T08:20:52.945Z</time></trkpt><trkpt lat="45.5956665" lon="10.7356096"><ele>256.1666666666667</ele><time>2026-04-26T08:20:54.946Z</time></trkpt><trkpt lat="45.5957277" lon="10.7356615"><ele>254.33333333333331</ele><time>2026-04-26T08:20:55.946Z</time></trkpt><trkpt lat="45.5957847" lon="10.7357007"><ele>252.5</ele><time>2026-04-26T08:20:56.946Z</time></trkpt><trkpt lat="45.5958733" lon="10.7357801"><ele>250.66666666666666</ele><time>2026-04-26T08:20:58.946Z</time></trkpt><trkpt lat="45.5958761" lon="10.7358935"><ele>248.83333333333331</ele><time>2026-04-26T08:21:00.946Z</time></trkpt><trkpt lat="45.5957805" lon="10.7359541"><ele>247.0</ele><time>2026-04-26T08:21:02.945Z</time></trkpt><trkpt lat="45.5957095" lon="10.7359452"><ele>246.99999999999997</ele><time>2026-04-26T08:21:03.945Z</time></trkpt><trkpt lat="45.5956301" lon="10.7359122"><ele>247.0</ele><time>2026-04-26T08:21:04.946Z</time></trkpt><trkpt lat="45.5955519" lon="10.7358543"><ele>247.0</ele><time>2026-04-26T08:21:05.945Z</time></trkpt><trkpt lat="45.5954839" lon="10.7357924"><ele>247.0</ele><time>2026-04-26T08:21:06.946Z</time></trkpt><trkpt lat="45.5954228" lon="10.735743"><ele>246.99999999999997</ele><time>2026-04-26T08:21:07.945Z</time></trkpt><trkpt lat="45.5953554" lon="10.7356962"><ele>247.0</ele><time>2026-04-26T08:21:08.945Z</time></trkpt><trkpt lat="45.5952941" lon="10.7356499"><ele>246.99999999999997</ele><time>2026-04-26T08:21:09.946Z</time></trkpt><trkpt lat="45.5952123" lon="10.7356018"><ele>247.0</ele><time>2026-04-26T08:21:11.946Z</time></trkpt><trkpt lat="45.5952305" lon="10.7357265"><ele>247.0</ele><time>2026-04-26T08:21:14.945Z</time></trkpt><trkpt lat="45.5952902" lon="10.735804"><ele>247.0</ele><time>2026-04-26T08:21:15.946Z</time></trkpt><trkpt lat="45.5953428" lon="10.7358999"><ele>246.99999999999997</ele><time>2026-04-26T08:21:16.945Z</time></trkpt><trkpt lat="45.5953909" lon="10.7359942"><ele>247.0</ele><time>2026-04-26T08:21:17.945Z</time></trkpt><trkpt lat="45.5954107" lon="10.7360989"><ele>245.39999999999998</ele><time>2026-04-26T08:21:18.945Z</time></trkpt><trkpt lat="45.5954325" lon="10.7361883"><ele>243.79999999999998</ele><time>2026-04-26T08:21:19.946Z</time></trkpt><trkpt lat="45.5954366" lon="10.7363219"><ele>242.2</ele><time>2026-04-26T08:21:21.946Z</time></trkpt><trkpt lat="45.5954021" lon="10.7364162"><ele>240.6</ele><time>2026-04-26T08:21:23.946Z</time></trkpt><trkpt lat="45.5953353" lon="10.7365213"><ele>239.0</ele><time>2026-04-26T08:21:25.945Z</time></trkpt><trkpt lat="45.5952511" lon="10.7366463"><ele>239.0</ele><time>2026-04-26T08:21:27.945Z</time></trkpt><trkpt lat="45.5951696" lon="10.7367298"><ele>238.99999999999997</ele><time>2026-04-26T08:21:29.946Z</time></trkpt><trkpt lat="45.5950735" lon="10.7367134"><ele>238.99999999999997</ele><time>2026-04-26T08:21:31.946Z</time></trkpt><trkpt lat="45.5949628" lon="10.7366737"><ele>239.0</ele><time>2026-04-26T08:21:33.946Z</time></trkpt><trkpt lat="45.5948562" lon="10.7365887"><ele>239.0</ele><time>2026-04-26T08:21:35.945Z</time></trkpt><trkpt lat="45.5947486" lon="10.7364951"><ele>239.00000000000003</ele><time>2026-04-26T08:21:37.946Z</time></trkpt><trkpt lat="45.5946901" lon="10.7364559"><ele>239.0</ele><time>2026-04-26T08:21:38.946Z</time></trkpt><trkpt lat="45.5946202" lon="10.7364111"><ele>239.0</ele><time>2026-04-26T08:21:39.945Z</time></trkpt><trkpt lat="45.5945464" lon="10.7363602"><ele>239.0</ele><time>2026-04-26T08:21:40.946Z</time></trkpt><trkpt lat="45.5944632" lon="10.7363256"><ele>239.00000000000003</ele><time>2026-04-26T08:21:41.946Z</time></trkpt><trkpt lat="45.5943952" lon="10.7363018"><ele>239.0</ele><time>2026-04-26T08:21:42.946Z</time></trkpt><trkpt lat="45.5942953" lon="10.7362646"><ele>239.83333333333334</ele><time>2026-04-26T08:21:44.945Z</time></trkpt><trkpt lat="45.5941831" lon="10.7362184"><ele>240.66666666666669</ele><time>2026-04-26T08:21:46.946Z</time></trkpt><trkpt lat="45.5941343" lon="10.7361533"><ele>241.5</ele><time>2026-04-26T08:21:47.946Z</time></trkpt><trkpt lat="45.5940445" lon="10.7360912"><ele>242.33333333333331</ele><time>2026-04-26T08:21:49.945Z</time></trkpt><trkpt lat="45.5940737" lon="10.7362208"><ele>243.16666666666666</ele><time>2026-04-26T08:21:53.946Z</time></trkpt><trkpt lat="45.5941237" lon="10.7362837"><ele>244.0</ele><time>2026-04-26T08:21:54.946Z</time></trkpt><trkpt lat="45.5941816" lon="10.7363679"><ele>244.0</ele><time>2026-04-26T08:21:55.945Z</time></trkpt><trkpt lat="45.5942504" lon="10.7364651"><ele>243.99999999999997</ele><time>2026-04-26T08:21:56.946Z</time></trkpt><trkpt lat="45.5943257" lon="10.736575"><ele>243.99999999999997</ele><time>2026-04-26T08:21:57.946Z</time></trkpt><trkpt lat="45.5944068" lon="10.736691"><ele>244.0</ele><time>2026-04-26T08:21:58.946Z</time></trkpt><trkpt lat="45.5944983" lon="10.7368158"><ele>244.0</ele><time>2026-04-26T08:21:59.946Z</time></trkpt><trkpt lat="45.5945913" lon="10.736947"><ele>244.5</ele><time>2026-04-26T08:22:00.945Z</time></trkpt><trkpt lat="45.5946916" lon="10.7370816"><ele>245.0</ele><time>2026-04-26T08:22:01.946Z</time></trkpt><trkpt lat="45.5947981" lon="10.7372147"><ele>245.5</ele><time>2026-04-26T08:22:02.946Z</time></trkpt><trkpt lat="45.5949068" lon="10.7373544"><ele>246.0</ele><time>2026-04-26T08:22:03.946Z</time></trkpt><trkpt lat="45.5950075" lon="10.7375113"><ele>246.0</ele><time>2026-04-26T08:22:04.945Z</time></trkpt><trkpt lat="45.5950988" lon="10.7376808"><ele>246.0</ele><time>2026-04-26T08:22:05.945Z</time></trkpt><trkpt lat="45.5951766" lon="10.7378534"><ele>246.0</ele><time>2026-04-26T08:22:06.946Z</time></trkpt><trkpt lat="45.595236" lon="10.7380183"><ele>246.0</ele><time>2026-04-26T08:22:07.946Z</time></trkpt><trkpt lat="45.5952879" lon="10.7381737"><ele>246.0</ele><time>2026-04-26T08:22:08.946Z</time></trkpt><trkpt lat="45.5953329" lon="10.7383201"><ele>246.00000000000003</ele><time>2026-04-26T08:22:09.946Z</time></trkpt><trkpt lat="45.5953786" lon="10.7384589"><ele>246.00000000000003</ele><time>2026-04-26T08:22:10.945Z</time></trkpt><trkpt lat="45.5954157" lon="10.7385727"><ele>246.0</ele><time>2026-04-26T08:22:11.946Z</time></trkpt><trkpt lat="45.5954436" lon="10.7386684"><ele>246.0</ele><time>2026-04-26T08:22:12.946Z</time></trkpt><trkpt lat="45.5954653" lon="10.7387714"><ele>246.0</ele><time>2026-04-26T08:22:14.946Z</time></trkpt><trkpt lat="45.5954917" lon="10.7388615"><ele>246.00000000000003</ele><time>2026-04-26T08:22:18.946Z</time></trkpt><trkpt lat="45.5955279" lon="10.7389363"><ele>246.00000000000003</ele><time>2026-04-26T08:22:19.946Z</time></trkpt><trkpt lat="45.5955845" lon="10.7390538"><ele>246.0</ele><time>2026-04-26T08:22:20.946Z</time></trkpt><trkpt lat="45.5956382" lon="10.7392263"><ele>246.0</ele><time>2026-04-26T08:22:21.946Z</time></trkpt><trkpt lat="45.5956996" lon="10.7394303"><ele>245.5</ele><time>2026-04-26T08:22:22.946Z</time></trkpt><trkpt lat="45.5957636" lon="10.7396166"><ele>245.0</ele><time>2026-04-26T08:22:23.946Z</time></trkpt><trkpt lat="45.5958256" lon="10.7398003"><ele>244.5</ele><time>2026-04-26T08:22:24.946Z</time></trkpt><trkpt lat="45.5958889" lon="10.7399975"><ele>244.0</ele><time>2026-04-26T08:22:25.946Z</time></trkpt><trkpt lat="45.5959595" lon="10.740189"><ele>243.75</ele><time>2026-04-26T08:22:26.946Z</time></trkpt><trkpt lat="45.5960228" lon="10.7403619"><ele>243.5</ele><time>2026-04-26T08:22:27.946Z</time></trkpt><trkpt lat="45.5960937" lon="10.7405336"><ele>243.25</ele><time>2026-04-26T08:22:28.945Z</time></trkpt><trkpt lat="45.5961512" lon="10.7407064"><ele>243.0</ele><time>2026-04-26T08:22:29.945Z</time></trkpt><trkpt lat="45.5962123" lon="10.7408791"><ele>243.75</ele><time>2026-04-26T08:22:30.946Z</time></trkpt><trkpt lat="45.5962828" lon="10.7410513"><ele>244.5</ele><time>2026-04-26T08:22:31.946Z</time></trkpt><trkpt lat="45.596347" lon="10.7412222"><ele>245.25</ele><time>2026-04-26T08:22:32.946Z</time></trkpt><trkpt lat="45.5964053" lon="10.7413855"><ele>246.0</ele><time>2026-04-26T08:22:33.945Z</time></trkpt><trkpt lat="45.5964464" lon="10.7414988"><ele>246.00000000000003</ele><time>2026-04-26T08:22:34.946Z</time></trkpt><trkpt lat="45.596482" lon="10.7415813"><ele>246.0</ele><time>2026-04-26T08:22:35.946Z</time></trkpt><trkpt lat="45.5965304" lon="10.7416542"><ele>246.00000000000003</ele><time>2026-04-26T08:22:38.945Z</time></trkpt><trkpt lat="45.5964617" lon="10.7416992"><ele>246.00000000000003</ele><time>2026-04-26T08:22:42.945Z</time></trkpt><trkpt lat="45.5963758" lon="10.7417313"><ele>246.0</ele><time>2026-04-26T08:22:45.945Z</time></trkpt><trkpt lat="45.5963086" lon="10.7417729"><ele>246.00000000000003</ele><time>2026-04-26T08:22:48.946Z</time></trkpt><trkpt lat="45.5962447" lon="10.7417923"><ele>246.00000000000003</ele><time>2026-04-26T08:22:51.946Z</time></trkpt><trkpt lat="45.5963494" lon="10.7417632"><ele>246.0</ele><time>2026-04-26T08:22:56.946Z</time></trkpt><trkpt lat="45.5964089" lon="10.7417159"><ele>246.0</ele><time>2026-04-26T08:22:57.945Z</time></trkpt><trkpt lat="45.5964762" lon="10.7416867"><ele>246.0</ele><time>2026-04-26T08:22:58.945Z</time></trkpt><trkpt lat="45.5965513" lon="10.7416649"><ele>246.0</ele><time>2026-04-26T08:22:59.946Z</time></trkpt><trkpt lat="45.5966246" lon="10.7416452"><ele>246.0</ele><time>2026-04-26T08:23:00.945Z</time></trkpt><trkpt lat="45.5967008" lon="10.7416617"><ele>246.0</ele><time>2026-04-26T08:23:01.946Z</time></trkpt><trkpt lat="45.5967917" lon="10.7417401"><ele>246.0</ele><time>2026-04-26T08:23:03.946Z</time></trkpt><trkpt lat="45.5968394" lon="10.7418362"><ele>246.00000000000003</ele><time>2026-04-26T08:23:04.946Z</time></trkpt><trkpt lat="45.5968461" lon="10.742005"><ele>246.00000000000003</ele><time>2026-04-26T08:23:05.945Z</time></trkpt><trkpt lat="45.5968876" lon="10.7421301"><ele>246.0</ele><time>2026-04-26T08:23:06.946Z</time></trkpt><trkpt lat="45.5969495" lon="10.7422635"><ele>246.0</ele><time>2026-04-26T08:23:07.945Z</time></trkpt><trkpt lat="45.5970189" lon="10.7424013"><ele>247.25</ele><time>2026-04-26T08:23:08.946Z</time></trkpt><trkpt lat="45.597107" lon="10.7425292"><ele>248.5</ele><time>2026-04-26T08:23:09.945Z</time></trkpt><trkpt lat="45.5972057" lon="10.7426632"><ele>249.75</ele><time>2026-04-26T08:23:10.946Z</time></trkpt><trkpt lat="45.5972949" lon="10.7427834"><ele>251.0</ele><time>2026-04-26T08:23:11.946Z</time></trkpt><trkpt lat="45.5973824" lon="10.7428946"><ele>251.20000000000002</ele><time>2026-04-26T08:23:12.945Z</time></trkpt><trkpt lat="45.5974549" lon="10.7429922"><ele>251.40000000000003</ele><time>2026-04-26T08:23:13.946Z</time></trkpt><trkpt lat="45.5975308" lon="10.7430856"><ele>251.6</ele><time>2026-04-26T08:23:14.945Z</time></trkpt><trkpt lat="45.5976113" lon="10.7431321"><ele>251.8</ele><time>2026-04-26T08:23:15.945Z</time></trkpt><trkpt lat="45.5976993" lon="10.7431689"><ele>252.0</ele><time>2026-04-26T08:23:16.946Z</time></trkpt><trkpt lat="45.597776" lon="10.7432"><ele>251.5</ele><time>2026-04-26T08:23:17.946Z</time></trkpt><trkpt lat="45.5978374" lon="10.7432455"><ele>251.0</ele><time>2026-04-26T08:23:18.946Z</time></trkpt><trkpt lat="45.5978827" lon="10.7433371"><ele>250.5</ele><time>2026-04-26T08:23:20.946Z</time></trkpt><trkpt lat="45.5978803" lon="10.7434364"><ele>250.0</ele><time>2026-04-26T08:23:22.946Z</time></trkpt><trkpt lat="45.5978731" lon="10.7435904"><ele>249.5</ele><time>2026-04-26T08:23:24.946Z</time></trkpt><trkpt lat="45.5978711" lon="10.7437022"><ele>249.0</ele><time>2026-04-26T08:23:26.946Z</time></trkpt><trkpt lat="45.5978107" lon="10.7437394"><ele>249.0</ele><time>2026-04-26T08:23:38.946Z</time></trkpt><trkpt lat="45.5977162" lon="10.7436976"><ele>249.0</ele><time>2026-04-26T08:23:41.946Z</time></trkpt><trkpt lat="45.5976398" lon="10.7436674"><ele>249.0</ele><time>2026-04-26T08:23:43.945Z</time></trkpt><trkpt lat="45.5975663" lon="10.7436171"><ele>249.0</ele><time>2026-04-26T08:23:45.946Z</time></trkpt><trkpt lat="45.5975115" lon="10.7435313"><ele>249.0</ele><time>2026-04-26T08:23:47.946Z</time></trkpt><trkpt lat="45.5974593" lon="10.7434724"><ele>249.0</ele><time>2026-04-26T08:23:49.946Z</time></trkpt><trkpt lat="45.5974083" lon="10.7435485"><ele>249.0</ele><time>2026-04-26T08:23:52.946Z</time></trkpt><trkpt lat="45.5974077" lon="10.7436803"><ele>248.99999999999997</ele><time>2026-04-26T08:24:00.945Z</time></trkpt><trkpt lat="45.5973945" lon="10.7437895"><ele>248.99999999999997</ele><time>2026-04-26T08:24:01.946Z</time></trkpt><trkpt lat="45.5973781" lon="10.7439421"><ele>249.0</ele><time>2026-04-26T08:24:02.946Z</time></trkpt><trkpt lat="45.5973703" lon="10.7440907"><ele>249.0</ele><time>2026-04-26T08:24:03.945Z</time></trkpt><trkpt lat="45.5973686" lon="10.7442062"><ele>249.0</ele><time>2026-04-26T08:24:04.945Z</time></trkpt><trkpt lat="45.5973739" lon="10.7443324"><ele>248.99999999999997</ele><time>2026-04-26T08:24:05.945Z</time></trkpt><trkpt lat="45.5973967" lon="10.7444783"><ele>248.99999999999997</ele><time>2026-04-26T08:24:06.945Z</time></trkpt><trkpt lat="45.5974159" lon="10.7446491"><ele>249.0</ele><time>2026-04-26T08:24:07.946Z</time></trkpt><trkpt lat="45.5974238" lon="10.744825"><ele>249.0</ele><time>2026-04-26T08:24:08.945Z</time></trkpt><trkpt lat="45.5974207" lon="10.7449874"><ele>248.25</ele><time>2026-04-26T08:24:09.946Z</time></trkpt><trkpt lat="45.5974025" lon="10.7451542"><ele>247.5</ele><time>2026-04-26T08:24:10.945Z</time></trkpt><trkpt lat="45.5973684" lon="10.7453176"><ele>246.75</ele><time>2026-04-26T08:24:11.946Z</time></trkpt><trkpt lat="45.5973301" lon="10.7454847"><ele>246.0</ele><time>2026-04-26T08:24:12.946Z</time></trkpt><trkpt lat="45.5972952" lon="10.7456555"><ele>245.25</ele><time>2026-04-26T08:24:13.945Z</time></trkpt><trkpt lat="45.597267" lon="10.7458337"><ele>244.5</ele><time>2026-04-26T08:24:14.945Z</time></trkpt><trkpt lat="45.5972503" lon="10.7460067"><ele>243.75</ele><time>2026-04-26T08:24:15.946Z</time></trkpt><trkpt lat="45.5972448" lon="10.7461713"><ele>243.0</ele><time>2026-04-26T08:24:16.945Z</time></trkpt><trkpt lat="45.597248" lon="10.7462946"><ele>243.0</ele><time>2026-04-26T08:24:17.946Z</time></trkpt><trkpt lat="45.5972596" lon="10.7463872"><ele>243.0</ele><time>2026-04-26T08:24:18.946Z</time></trkpt><trkpt lat="45.5972588" lon="10.7465027"><ele>243.0</ele><time>2026-04-26T08:24:20.946Z</time></trkpt><trkpt lat="45.5971998" lon="10.746683"><ele>243.0</ele><time>2026-04-26T08:24:22.945Z</time></trkpt><trkpt lat="45.5971803" lon="10.7468126"><ele>243.0</ele><time>2026-04-26T08:24:23.946Z</time></trkpt><trkpt lat="45.5971692" lon="10.7469633"><ele>243.0</ele><time>2026-04-26T08:24:24.945Z</time></trkpt><trkpt lat="45.5971537" lon="10.7471163"><ele>243.0</ele><time>2026-04-26T08:24:25.946Z</time></trkpt><trkpt lat="45.5971362" lon="10.7472836"><ele>243.0</ele><time>2026-04-26T08:24:26.945Z</time></trkpt><trkpt lat="45.5971241" lon="10.7474493"><ele>243.0</ele><time>2026-04-26T08:24:27.945Z</time></trkpt><trkpt lat="45.5971116" lon="10.7476171"><ele>242.5</ele><time>2026-04-26T08:24:28.945Z</time></trkpt><trkpt lat="45.5970995" lon="10.7477867"><ele>242.0</ele><time>2026-04-26T08:24:29.946Z</time></trkpt><trkpt lat="45.5970882" lon="10.7479601"><ele>241.5</ele><time>2026-04-26T08:24:30.946Z</time></trkpt><trkpt lat="45.5970783" lon="10.7481352"><ele>241.0</ele><time>2026-04-26T08:24:31.945Z</time></trkpt><trkpt lat="45.5970673" lon="10.7483085"><ele>241.0</ele><time>2026-04-26T08:24:32.946Z</time></trkpt><trkpt lat="45.5970449" lon="10.7484765"><ele>241.0</ele><time>2026-04-26T08:24:33.946Z</time></trkpt><trkpt lat="45.597004" lon="10.748636"><ele>241.0</ele><time>2026-04-26T08:24:34.946Z</time></trkpt><trkpt lat="45.5969466" lon="10.7487836"><ele>241.0</ele><time>2026-04-26T08:24:35.946Z</time></trkpt><trkpt lat="45.5968874" lon="10.7489268"><ele>240.25</ele><time>2026-04-26T08:24:36.945Z</time></trkpt><trkpt lat="45.5968403" lon="10.7490816"><ele>239.5</ele><time>2026-04-26T08:24:37.945Z</time></trkpt><trkpt lat="45.5968043" lon="10.7492483"><ele>238.75</ele><time>2026-04-26T08:24:38.946Z</time></trkpt><trkpt lat="45.5967717" lon="10.7494212"><ele>238.0</ele><time>2026-04-26T08:24:39.946Z</time></trkpt><trkpt lat="45.596732" lon="10.7495914"><ele>238.0</ele><time>2026-04-26T08:24:40.945Z</time></trkpt><trkpt lat="45.5966842" lon="10.7497574"><ele>238.0</ele><time>2026-04-26T08:24:41.946Z</time></trkpt><trkpt lat="45.5966277" lon="10.7499168"><ele>238.0</ele><time>2026-04-26T08:24:42.946Z</time></trkpt><trkpt lat="45.596569" lon="10.7500664"><ele>238.0</ele><time>2026-04-26T08:24:43.946Z</time></trkpt><trkpt lat="45.596515" lon="10.7502033"><ele>238.2</ele><time>2026-04-26T08:24:44.945Z</time></trkpt><trkpt lat="45.5964677" lon="10.7503329"><ele>238.4</ele><time>2026-04-26T08:24:45.946Z</time></trkpt><trkpt lat="45.5964297" lon="10.7504584"><ele>238.59999999999997</ele><time>2026-04-26T08:24:46.946Z</time></trkpt><trkpt lat="45.5963993" lon="10.7505789"><ele>238.79999999999998</ele><time>2026-04-26T08:24:47.945Z</time></trkpt><trkpt lat="45.5963752" lon="10.7506759"><ele>239.0</ele><time>2026-04-26T08:24:48.946Z</time></trkpt><trkpt lat="45.5963414" lon="10.7508391"><ele>239.00000000000003</ele><time>2026-04-26T08:24:50.946Z</time></trkpt><trkpt lat="45.5963225" lon="10.7509485"><ele>239.0</ele><time>2026-04-26T08:24:51.945Z</time></trkpt><trkpt lat="45.5962992" lon="10.7510786"><ele>239.0</ele><time>2026-04-26T08:24:52.946Z</time></trkpt><trkpt lat="45.5962756" lon="10.7512216"><ele>239.0</ele><time>2026-04-26T08:24:53.945Z</time></trkpt><trkpt lat="45.5962562" lon="10.7513402"><ele>239.00000000000003</ele><time>2026-04-26T08:24:54.946Z</time></trkpt><trkpt lat="45.5962423" lon="10.7514426"><ele>239.0</ele><time>2026-04-26T08:24:55.946Z</time></trkpt><trkpt lat="45.596216" lon="10.7515361"><ele>238.6</ele><time>2026-04-26T08:24:56.946Z</time></trkpt><trkpt lat="45.5961751" lon="10.7516459"><ele>238.2</ele><time>2026-04-26T08:24:57.944Z</time></trkpt><trkpt lat="45.5961238" lon="10.7517668"><ele>237.79999999999998</ele><time>2026-04-26T08:24:58.946Z</time></trkpt><trkpt lat="45.5960718" lon="10.7519032"><ele>237.39999999999998</ele><time>2026-04-26T08:24:59.946Z</time></trkpt><trkpt lat="45.5960143" lon="10.7520479"><ele>237.0</ele><time>2026-04-26T08:25:00.946Z</time></trkpt><trkpt lat="45.5959482" lon="10.7521735"><ele>236.0</ele><time>2026-04-26T08:25:01.946Z</time></trkpt><trkpt lat="45.5958773" lon="10.7522827"><ele>235.0</ele><time>2026-04-26T08:25:02.946Z</time></trkpt><trkpt lat="45.5958029" lon="10.7523778"><ele>234.0</ele><time>2026-04-26T08:25:03.946Z</time></trkpt><trkpt lat="45.5957298" lon="10.7524647"><ele>233.0</ele><time>2026-04-26T08:25:04.945Z</time></trkpt><trkpt lat="45.595663" lon="10.7525456"><ele>232.0</ele><time>2026-04-26T08:25:05.945Z</time></trkpt><trkpt lat="45.5955995" lon="10.7526426"><ele>232.33333333333331</ele><time>2026-04-26T08:25:07.946Z</time></trkpt><trkpt lat="45.5955993" lon="10.7527553"><ele>232.66666666666666</ele><time>2026-04-26T08:25:10.945Z</time></trkpt><trkpt lat="45.5957007" lon="10.7528361"><ele>233.0</ele><time>2026-04-26T08:25:12.945Z</time></trkpt><trkpt lat="45.5957736" lon="10.7528781"><ele>233.33333333333331</ele><time>2026-04-26T08:25:13.946Z</time></trkpt><trkpt lat="45.5958377" lon="10.7529801"><ele>233.66666666666666</ele><time>2026-04-26T08:25:15.945Z</time></trkpt><trkpt lat="45.5957999" lon="10.7530807"><ele>234.0</ele><time>2026-04-26T08:25:17.945Z</time></trkpt><trkpt lat="45.5956686" lon="10.7531244"><ele>234.0</ele><time>2026-04-26T08:25:19.946Z</time></trkpt><trkpt lat="45.595604" lon="10.7531463"><ele>233.99999999999997</ele><time>2026-04-26T08:25:20.946Z</time></trkpt><trkpt lat="45.5955279" lon="10.7531753"><ele>233.99999999999997</ele><time>2026-04-26T08:25:21.946Z</time></trkpt><trkpt lat="45.595446" lon="10.7532098"><ele>234.0</ele><time>2026-04-26T08:25:22.946Z</time></trkpt><trkpt lat="45.5953276" lon="10.7532695"><ele>234.0</ele><time>2026-04-26T08:25:23.945Z</time></trkpt><trkpt lat="45.5952029" lon="10.7533513"><ele>231.66666666666669</ele><time>2026-04-26T08:25:24.946Z</time></trkpt><trkpt lat="45.5950645" lon="10.7534606"><ele>229.33333333333334</ele><time>2026-04-26T08:25:25.945Z</time></trkpt><trkpt lat="45.5949117" lon="10.7535821"><ele>227.0</ele><time>2026-04-26T08:25:26.946Z</time></trkpt><trkpt lat="45.5947503" lon="10.7537096"><ele>227.0</ele><time>2026-04-26T08:25:27.946Z</time></trkpt><trkpt lat="45.5945804" lon="10.7538436"><ele>227.0</ele><time>2026-04-26T08:25:28.945Z</time></trkpt><trkpt lat="45.5943971" lon="10.7539834"><ele>227.0</ele><time>2026-04-26T08:25:29.946Z</time></trkpt><trkpt lat="45.5942014" lon="10.7541314"><ele>226.33333333333334</ele><time>2026-04-26T08:25:30.946Z</time></trkpt><trkpt lat="45.5940168" lon="10.7542749"><ele>225.66666666666669</ele><time>2026-04-26T08:25:31.946Z</time></trkpt><trkpt lat="45.5938513" lon="10.7544003"><ele>225.0</ele><time>2026-04-26T08:25:32.945Z</time></trkpt><trkpt lat="45.5936949" lon="10.7545146"><ele>223.66666666666669</ele><time>2026-04-26T08:25:33.945Z</time></trkpt><trkpt lat="45.5935536" lon="10.7546241"><ele>222.33333333333334</ele><time>2026-04-26T08:25:34.945Z</time></trkpt><trkpt lat="45.5934157" lon="10.7547347"><ele>221.0</ele><time>2026-04-26T08:25:35.945Z</time></trkpt><trkpt lat="45.5932797" lon="10.7548506"><ele>221.0</ele><time>2026-04-26T08:25:36.945Z</time></trkpt><trkpt lat="45.5931511" lon="10.7549555"><ele>221.0</ele><time>2026-04-26T08:25:37.945Z</time></trkpt><trkpt lat="45.5930274" lon="10.7550517"><ele>221.0</ele><time>2026-04-26T08:25:38.946Z</time></trkpt><trkpt lat="45.5929093" lon="10.7551372"><ele>221.0</ele><time>2026-04-26T08:25:39.946Z</time></trkpt><trkpt lat="45.5927931" lon="10.755218"><ele>219.75</ele><time>2026-04-26T08:25:40.946Z</time></trkpt><trkpt lat="45.5926774" lon="10.7553052"><ele>218.5</ele><time>2026-04-26T08:25:41.945Z</time></trkpt><trkpt lat="45.5925667" lon="10.7553977"><ele>217.25</ele><time>2026-04-26T08:25:42.945Z</time></trkpt><trkpt lat="45.5924754" lon="10.7554706"><ele>216.0</ele><time>2026-04-26T08:25:43.946Z</time></trkpt><trkpt lat="45.592398" lon="10.7555323"><ele>216.0</ele><time>2026-04-26T08:25:44.946Z</time></trkpt><trkpt lat="45.5923371" lon="10.7555733"><ele>216.0</ele><time>2026-04-26T08:25:45.946Z</time></trkpt><trkpt lat="45.5922721" lon="10.7556172"><ele>216.0</ele><time>2026-04-26T08:25:47.946Z</time></trkpt><trkpt lat="45.5923505" lon="10.7556104"><ele>216.0</ele><time>2026-04-26T08:25:51.945Z</time></trkpt><trkpt lat="45.5924038" lon="10.7555556"><ele>216.0</ele><time>2026-04-26T08:25:52.946Z</time></trkpt><trkpt lat="45.5924696" lon="10.7555353"><ele>216.0</ele><time>2026-04-26T08:25:54.946Z</time></trkpt><trkpt lat="45.5925168" lon="10.7556406"><ele>216.0</ele><time>2026-04-26T08:25:56.945Z</time></trkpt><trkpt lat="45.5925482" lon="10.7557504"><ele>216.0</ele><time>2026-04-26T08:25:57.946Z</time></trkpt><trkpt lat="45.592582" lon="10.7558767"><ele>216.00000000000003</ele><time>2026-04-26T08:25:58.946Z</time></trkpt><trkpt lat="45.5926207" lon="10.7560156"><ele>216.00000000000003</ele><time>2026-04-26T08:25:59.946Z</time></trkpt><trkpt lat="45.5926616" lon="10.7561728"><ele>216.0</ele><time>2026-04-26T08:26:00.946Z</time></trkpt><trkpt lat="45.5926942" lon="10.7563165"><ele>216.0</ele><time>2026-04-26T08:26:01.946Z</time></trkpt><trkpt lat="45.59273" lon="10.7564717"><ele>216.0</ele><time>2026-04-26T08:26:02.946Z</time></trkpt><trkpt lat="45.5927716" lon="10.7565948"><ele>216.00000000000003</ele><time>2026-04-26T08:26:03.945Z</time></trkpt><trkpt lat="45.5928174" lon="10.7567209"><ele>216.00000000000003</ele><time>2026-04-26T08:26:04.946Z</time></trkpt><trkpt lat="45.5928486" lon="10.756858"><ele>216.0</ele><time>2026-04-26T08:26:05.946Z</time></trkpt><trkpt lat="45.5928867" lon="10.7570027"><ele>216.0</ele><time>2026-04-26T08:26:06.946Z</time></trkpt><trkpt lat="45.5929326" lon="10.7571529"><ele>216.4</ele><time>2026-04-26T08:26:07.946Z</time></trkpt><trkpt lat="45.5929786" lon="10.7573075"><ele>216.8</ele><time>2026-04-26T08:26:08.945Z</time></trkpt><trkpt lat="45.5930264" lon="10.7574647"><ele>217.20000000000002</ele><time>2026-04-26T08:26:09.946Z</time></trkpt><trkpt lat="45.5930714" lon="10.757606"><ele>217.60000000000002</ele><time>2026-04-26T08:26:10.946Z</time></trkpt><trkpt lat="45.5931105" lon="10.757729"><ele>218.0</ele><time>2026-04-26T08:26:11.946Z</time></trkpt><trkpt lat="45.5931395" lon="10.7578234"><ele>218.00000000000003</ele><time>2026-04-26T08:26:12.946Z</time></trkpt><trkpt lat="45.593199" lon="10.757947"><ele>218.0</ele><time>2026-04-26T08:26:14.946Z</time></trkpt><trkpt lat="45.5932903" lon="10.7580197"><ele>218.0</ele><time>2026-04-26T08:26:16.946Z</time></trkpt><trkpt lat="45.5933555" lon="10.7580334"><ele>218.0</ele><time>2026-04-26T08:26:17.946Z</time></trkpt><trkpt lat="45.5934352" lon="10.7580349"><ele>218.00000000000003</ele><time>2026-04-26T08:26:18.945Z</time></trkpt><trkpt lat="45.593524" lon="10.7580351"><ele>218.0</ele><time>2026-04-26T08:26:19.944Z</time></trkpt><trkpt lat="45.5936223" lon="10.7580351"><ele>218.33333333333334</ele><time>2026-04-26T08:26:20.946Z</time></trkpt><trkpt lat="45.5937281" lon="10.7580415"><ele>218.66666666666669</ele><time>2026-04-26T08:26:21.946Z</time></trkpt><trkpt lat="45.5938244" lon="10.7580516"><ele>219.0</ele><time>2026-04-26T08:26:22.945Z</time></trkpt><trkpt lat="45.5938914" lon="10.7580576"><ele>219.33333333333331</ele><time>2026-04-26T08:26:23.946Z</time></trkpt><trkpt lat="45.5939559" lon="10.7580804"><ele>219.66666666666666</ele><time>2026-04-26T08:26:25.946Z</time></trkpt><trkpt lat="45.5939493" lon="10.7581927"><ele>220.0</ele><time>2026-04-26T08:26:50.945Z</time></trkpt><trkpt lat="45.593927" lon="10.7583155"><ele>220.0</ele><time>2026-04-26T08:26:52.945Z</time></trkpt><trkpt lat="45.5938961" lon="10.758404"><ele>220.0</ele><time>2026-04-26T08:26:54.944Z</time></trkpt><trkpt lat="45.5938509" lon="10.7585327"><ele>220.0</ele><time>2026-04-26T08:26:56.945Z</time></trkpt><trkpt lat="45.5938354" lon="10.7586426"><ele>220.0</ele><time>2026-04-26T08:26:57.944Z</time></trkpt><trkpt lat="45.5938249" lon="10.7587726"><ele>220.0</ele><time>2026-04-26T08:26:58.945Z</time></trkpt><trkpt lat="45.5938074" lon="10.7589284"><ele>220.5</ele><time>2026-04-26T08:26:59.945Z</time></trkpt><trkpt lat="45.5937889" lon="10.7590994"><ele>221.0</ele><time>2026-04-26T08:27:00.945Z</time></trkpt><trkpt lat="45.5937715" lon="10.7592788"><ele>221.5</ele><time>2026-04-26T08:27:01.945Z</time></trkpt><trkpt lat="45.593756" lon="10.7594687"><ele>222.0</ele><time>2026-04-26T08:27:02.945Z</time></trkpt><trkpt lat="45.5937478" lon="10.7596714"><ele>220.66666666666669</ele><time>2026-04-26T08:27:03.943Z</time></trkpt><trkpt lat="45.5937409" lon="10.7598833"><ele>219.33333333333334</ele><time>2026-04-26T08:27:04.945Z</time></trkpt><trkpt lat="45.5937333" lon="10.7601069"><ele>218.0</ele><time>2026-04-26T08:27:05.945Z</time></trkpt><trkpt lat="45.5937288" lon="10.7603324"><ele>217.33333333333334</ele><time>2026-04-26T08:27:06.945Z</time></trkpt><trkpt lat="45.5937241" lon="10.7605574"><ele>216.66666666666669</ele><time>2026-04-26T08:27:07.945Z</time></trkpt><trkpt lat="45.5937192" lon="10.7607833"><ele>216.0</ele><time>2026-04-26T08:27:08.945Z</time></trkpt><trkpt lat="45.5937142" lon="10.7610117"><ele>216.0</ele><time>2026-04-26T08:27:09.945Z</time></trkpt><trkpt lat="45.593709" lon="10.7612331"><ele>216.0</ele><time>2026-04-26T08:27:10.944Z</time></trkpt><trkpt lat="45.5937059" lon="10.7614329"><ele>216.0</ele><time>2026-04-26T08:27:11.945Z</time></trkpt><trkpt lat="45.5937032" lon="10.7616128"><ele>216.0</ele><time>2026-04-26T08:27:12.944Z</time></trkpt><trkpt lat="45.5936929" lon="10.7617741"><ele>216.0</ele><time>2026-04-26T08:27:13.945Z</time></trkpt><trkpt lat="45.5936801" lon="10.7619203"><ele>216.00000000000003</ele><time>2026-04-26T08:27:14.945Z</time></trkpt><trkpt lat="45.5936674" lon="10.7620534"><ele>216.00000000000003</ele><time>2026-04-26T08:27:15.945Z</time></trkpt><trkpt lat="45.5936462" lon="10.7621931"><ele>216.0</ele><time>2026-04-26T08:27:16.945Z</time></trkpt><trkpt lat="45.593619" lon="10.7623523"><ele>216.0</ele><time>2026-04-26T08:27:17.945Z</time></trkpt><trkpt lat="45.5935909" lon="10.7625202"><ele>216.0</ele><time>2026-04-26T08:27:18.945Z</time></trkpt><trkpt lat="45.5935643" lon="10.7626586"><ele>216.00000000000003</ele><time>2026-04-26T08:27:19.945Z</time></trkpt><trkpt lat="45.5935276" lon="10.7627805"><ele>216.00000000000003</ele><time>2026-04-26T08:27:20.945Z</time></trkpt><trkpt lat="45.593492" lon="10.7629043"><ele>216.0</ele><time>2026-04-26T08:27:21.945Z</time></trkpt><trkpt lat="45.5934547" lon="10.763048"><ele>216.0</ele><time>2026-04-26T08:27:22.945Z</time></trkpt><trkpt lat="45.5934043" lon="10.7632049"><ele>216.0</ele><time>2026-04-26T08:27:23.944Z</time></trkpt><trkpt lat="45.5933453" lon="10.7633614"><ele>216.00000000000003</ele><time>2026-04-26T08:27:24.945Z</time></trkpt><trkpt lat="45.5932919" lon="10.7635007"><ele>216.00000000000003</ele><time>2026-04-26T08:27:25.945Z</time></trkpt><trkpt lat="45.5932495" lon="10.7636093"><ele>216.0</ele><time>2026-04-26T08:27:26.945Z</time></trkpt><trkpt lat="45.593205" lon="10.7637261"><ele>216.0</ele><time>2026-04-26T08:27:28.945Z</time></trkpt><trkpt lat="45.5931617" lon="10.7638323"><ele>216.0</ele><time>2026-04-26T08:27:32.945Z</time></trkpt><trkpt lat="45.5931071" lon="10.7639053"><ele>216.0</ele><time>2026-04-26T08:27:35.945Z</time></trkpt><trkpt lat="45.5930256" lon="10.7639796"><ele>216.0</ele><time>2026-04-26T08:27:37.945Z</time></trkpt><trkpt lat="45.5929685" lon="10.7640442"><ele>216.0</ele><time>2026-04-26T08:27:38.945Z</time></trkpt><trkpt lat="45.5928987" lon="10.7641162"><ele>216.0</ele><time>2026-04-26T08:27:39.945Z</time></trkpt><trkpt lat="45.5928317" lon="10.764195"><ele>216.0</ele><time>2026-04-26T08:27:40.944Z</time></trkpt><trkpt lat="45.5927718" lon="10.7642827"><ele>216.16666666666666</ele><time>2026-04-26T08:27:41.945Z</time></trkpt><trkpt lat="45.5927184" lon="10.7643867"><ele>216.33333333333331</ele><time>2026-04-26T08:27:42.945Z</time></trkpt><trkpt lat="45.5926727" lon="10.7644713"><ele>216.5</ele><time>2026-04-26T08:27:43.945Z</time></trkpt><trkpt lat="45.5926201" lon="10.7645642"><ele>216.66666666666666</ele><time>2026-04-26T08:27:45.945Z</time></trkpt><trkpt lat="45.5926109" lon="10.7646899"><ele>216.83333333333331</ele><time>2026-04-26T08:27:48.945Z</time></trkpt><trkpt lat="45.5926191" lon="10.764796"><ele>217.0</ele><time>2026-04-26T08:27:50.945Z</time></trkpt><trkpt lat="45.5925938" lon="10.7649068"><ele>217.0</ele><time>2026-04-26T08:27:53.945Z</time></trkpt><trkpt lat="45.5925518" lon="10.7650146"><ele>217.0</ele><time>2026-04-26T08:27:55.945Z</time></trkpt><trkpt lat="45.5925172" lon="10.7651031"><ele>217.0</ele><time>2026-04-26T08:27:56.945Z</time></trkpt><trkpt lat="45.5924617" lon="10.7651931"><ele>217.0</ele><time>2026-04-26T08:27:57.945Z</time></trkpt><trkpt lat="45.5923941" lon="10.765302"><ele>217.0</ele><time>2026-04-26T08:27:58.944Z</time></trkpt><trkpt lat="45.592313" lon="10.7654337"><ele>216.75</ele><time>2026-04-26T08:27:59.943Z</time></trkpt><trkpt lat="45.5922251" lon="10.7655641"><ele>216.5</ele><time>2026-04-26T08:28:00.944Z</time></trkpt><trkpt lat="45.5921458" lon="10.7656916"><ele>216.25</ele><time>2026-04-26T08:28:01.945Z</time></trkpt><trkpt lat="45.5920674" lon="10.7658327"><ele>216.0</ele><time>2026-04-26T08:28:02.945Z</time></trkpt><trkpt lat="45.5919886" lon="10.765982"><ele>216.0</ele><time>2026-04-26T08:28:03.945Z</time></trkpt><trkpt lat="45.5919168" lon="10.7661432"><ele>216.0</ele><time>2026-04-26T08:28:04.945Z</time></trkpt><trkpt lat="45.5918518" lon="10.7663082"><ele>216.0</ele><time>2026-04-26T08:28:05.944Z</time></trkpt><trkpt lat="45.5917891" lon="10.7664852"><ele>216.0</ele><time>2026-04-26T08:28:06.945Z</time></trkpt><trkpt lat="45.5917286" lon="10.7666498"><ele>216.0</ele><time>2026-04-26T08:28:07.944Z</time></trkpt><trkpt lat="45.5916683" lon="10.766793"><ele>216.0</ele><time>2026-04-26T08:28:08.945Z</time></trkpt><trkpt lat="45.5916159" lon="10.7669411"><ele>216.0</ele><time>2026-04-26T08:28:09.944Z</time></trkpt><trkpt lat="45.5915746" lon="10.7671019"><ele>216.0</ele><time>2026-04-26T08:28:10.945Z</time></trkpt><trkpt lat="45.5915484" lon="10.7672659"><ele>216.20000000000002</ele><time>2026-04-26T08:28:11.945Z</time></trkpt><trkpt lat="45.5915281" lon="10.7674266"><ele>216.40000000000003</ele><time>2026-04-26T08:28:12.945Z</time></trkpt><trkpt lat="45.5915128" lon="10.7675704"><ele>216.6</ele><time>2026-04-26T08:28:13.944Z</time></trkpt><trkpt lat="45.5915094" lon="10.7677086"><ele>216.8</ele><time>2026-04-26T08:28:14.945Z</time></trkpt><trkpt lat="45.5915194" lon="10.7678614"><ele>217.0</ele><time>2026-04-26T08:28:15.945Z</time></trkpt><trkpt lat="45.5915339" lon="10.7680233"><ele>217.0</ele><time>2026-04-26T08:28:16.945Z</time></trkpt><trkpt lat="45.5915444" lon="10.7681847"><ele>217.0</ele><time>2026-04-26T08:28:17.945Z</time></trkpt><trkpt lat="45.5915623" lon="10.768312"><ele>217.0</ele><time>2026-04-26T08:28:18.945Z</time></trkpt><trkpt lat="45.5916008" lon="10.7684531"><ele>217.0</ele><time>2026-04-26T08:28:19.943Z</time></trkpt><trkpt lat="45.5916473" lon="10.7686093"><ele>217.0</ele><time>2026-04-26T08:28:20.945Z</time></trkpt><trkpt lat="45.5916916" lon="10.7687773"><ele>217.0</ele><time>2026-04-26T08:28:21.944Z</time></trkpt><trkpt lat="45.5917327" lon="10.7689338"><ele>217.0</ele><time>2026-04-26T08:28:22.945Z</time></trkpt><trkpt lat="45.5917677" lon="10.7690661"><ele>217.0</ele><time>2026-04-26T08:28:23.945Z</time></trkpt><trkpt lat="45.591815" lon="10.7691966"><ele>217.0</ele><time>2026-04-26T08:28:24.944Z</time></trkpt><trkpt lat="45.5918801" lon="10.7693411"><ele>217.0</ele><time>2026-04-26T08:28:25.945Z</time></trkpt><trkpt lat="45.5919497" lon="10.7694922"><ele>217.5</ele><time>2026-04-26T08:28:26.945Z</time></trkpt><trkpt lat="45.5920181" lon="10.7696308"><ele>218.0</ele><time>2026-04-26T08:28:27.945Z</time></trkpt><trkpt lat="45.5920939" lon="10.7697637"><ele>218.5</ele><time>2026-04-26T08:28:28.945Z</time></trkpt><trkpt lat="45.5921738" lon="10.7698993"><ele>219.0</ele><time>2026-04-26T08:28:29.945Z</time></trkpt><trkpt lat="45.592249" lon="10.7700444"><ele>219.0</ele><time>2026-04-26T08:28:30.945Z</time></trkpt><trkpt lat="45.5923248" lon="10.7701925"><ele>219.0</ele><time>2026-04-26T08:28:31.945Z</time></trkpt><trkpt lat="45.5923926" lon="10.770323"><ele>219.0</ele><time>2026-04-26T08:28:32.944Z</time></trkpt><trkpt lat="45.5924551" lon="10.7704469"><ele>219.0</ele><time>2026-04-26T08:28:33.945Z</time></trkpt><trkpt lat="45.5925229" lon="10.7705547"><ele>219.0</ele><time>2026-04-26T08:28:34.945Z</time></trkpt><trkpt lat="45.592611" lon="10.7706499"><ele>219.0</ele><time>2026-04-26T08:28:35.945Z</time></trkpt><trkpt lat="45.59271" lon="10.7707584"><ele>219.0</ele><time>2026-04-26T08:28:36.945Z</time></trkpt><trkpt lat="45.5928074" lon="10.7708909"><ele>219.0</ele><time>2026-04-26T08:28:37.945Z</time></trkpt><trkpt lat="45.5929033" lon="10.7710358"><ele>219.25</ele><time>2026-04-26T08:28:38.944Z</time></trkpt><trkpt lat="45.5930054" lon="10.7711724"><ele>219.5</ele><time>2026-04-26T08:28:39.945Z</time></trkpt><trkpt lat="45.5931197" lon="10.7712942"><ele>219.75</ele><time>2026-04-26T08:28:40.945Z</time></trkpt><trkpt lat="45.5932485" lon="10.7714185"><ele>220.0</ele><time>2026-04-26T08:28:41.944Z</time></trkpt><trkpt lat="45.5933713" lon="10.7715596"><ele>220.0</ele><time>2026-04-26T08:28:42.944Z</time></trkpt><trkpt lat="45.5934711" lon="10.771699"><ele>220.0</ele><time>2026-04-26T08:28:43.944Z</time></trkpt><trkpt lat="45.5935643" lon="10.7718355"><ele>220.0</ele><time>2026-04-26T08:28:44.945Z</time></trkpt><trkpt lat="45.5936611" lon="10.7719703"><ele>220.0</ele><time>2026-04-26T08:28:45.944Z</time></trkpt><trkpt lat="45.5937755" lon="10.7720968"><ele>220.33333333333331</ele><time>2026-04-26T08:28:46.945Z</time></trkpt><trkpt lat="45.593917" lon="10.7722249"><ele>220.66666666666669</ele><time>2026-04-26T08:28:47.945Z</time></trkpt><trkpt lat="45.5940613" lon="10.772343"><ele>221.0</ele><time>2026-04-26T08:28:48.945Z</time></trkpt><trkpt lat="45.594186" lon="10.7724407"><ele>221.0</ele><time>2026-04-26T08:28:49.945Z</time></trkpt><trkpt lat="45.5943072" lon="10.7725295"><ele>221.0</ele><time>2026-04-26T08:28:50.944Z</time></trkpt><trkpt lat="45.5944248" lon="10.7726075"><ele>221.0</ele><time>2026-04-26T08:28:51.945Z</time></trkpt><trkpt lat="45.5945182" lon="10.7726642"><ele>221.0</ele><time>2026-04-26T08:28:52.945Z</time></trkpt><trkpt lat="45.5945914" lon="10.7727185"><ele>221.4</ele><time>2026-04-26T08:28:53.945Z</time></trkpt><trkpt lat="45.5946593" lon="10.7727914"><ele>221.8</ele><time>2026-04-26T08:28:54.945Z</time></trkpt><trkpt lat="45.5947325" lon="10.7728789"><ele>222.20000000000002</ele><time>2026-04-26T08:28:55.944Z</time></trkpt><trkpt lat="45.5948222" lon="10.7729644"><ele>222.60000000000002</ele><time>2026-04-26T08:28:56.944Z</time></trkpt><trkpt lat="45.5949317" lon="10.7730473"><ele>223.0</ele><time>2026-04-26T08:28:57.945Z</time></trkpt><trkpt lat="45.5950562" lon="10.7731177"><ele>223.0</ele><time>2026-04-26T08:28:58.945Z</time></trkpt><trkpt lat="45.5951977" lon="10.7731747"><ele>223.0</ele><time>2026-04-26T08:28:59.945Z</time></trkpt><trkpt lat="45.5953551" lon="10.7732147"><ele>223.0</ele><time>2026-04-26T08:29:00.945Z</time></trkpt><trkpt lat="45.5955215" lon="10.7732395"><ele>222.75</ele><time>2026-04-26T08:29:01.945Z</time></trkpt><trkpt lat="45.5956832" lon="10.7732537"><ele>222.5</ele><time>2026-04-26T08:29:02.945Z</time></trkpt><trkpt lat="45.5958183" lon="10.7732825"><ele>222.25</ele><time>2026-04-26T08:29:03.945Z</time></trkpt><trkpt lat="45.5959317" lon="10.7733485"><ele>222.0</ele><time>2026-04-26T08:29:04.944Z</time></trkpt><trkpt lat="45.5960517" lon="10.7734548"><ele>222.66666666666669</ele><time>2026-04-26T08:29:05.945Z</time></trkpt><trkpt lat="45.5961853" lon="10.7735953"><ele>223.33333333333334</ele><time>2026-04-26T08:29:06.944Z</time></trkpt><trkpt lat="45.5963221" lon="10.7737424"><ele>224.0</ele><time>2026-04-26T08:29:07.944Z</time></trkpt><trkpt lat="45.5964358" lon="10.7738388"><ele>224.00000000000003</ele><time>2026-04-26T08:29:08.945Z</time></trkpt><trkpt lat="45.5965221" lon="10.7739108"><ele>224.0</ele><time>2026-04-26T08:29:09.945Z</time></trkpt><trkpt lat="45.5965788" lon="10.773964"><ele>224.0</ele><time>2026-04-26T08:29:10.945Z</time></trkpt><trkpt lat="45.5966325" lon="10.7740389"><ele>224.0</ele><time>2026-04-26T08:29:12.945Z</time></trkpt><trkpt lat="45.5966494" lon="10.7741386"><ele>224.00000000000003</ele><time>2026-04-26T08:29:16.944Z</time></trkpt><trkpt lat="45.5967095" lon="10.7742094"><ele>224.0</ele><time>2026-04-26T08:29:20.944Z</time></trkpt><trkpt lat="45.5967864" lon="10.7742013"><ele>224.0</ele><time>2026-04-26T08:29:28.945Z</time></trkpt><trkpt lat="45.596881" lon="10.7742089"><ele>223.99999999999997</ele><time>2026-04-26T08:29:30.945Z</time></trkpt><trkpt lat="45.5969463" lon="10.774247"><ele>223.99999999999997</ele><time>2026-04-26T08:29:31.945Z</time></trkpt><trkpt lat="45.5970136" lon="10.7743088"><ele>224.0</ele><time>2026-04-26T08:29:32.945Z</time></trkpt><trkpt lat="45.5970876" lon="10.7744034"><ele>224.0</ele><time>2026-04-26T08:29:33.944Z</time></trkpt><trkpt lat="45.597154" lon="10.774523"><ele>224.6</ele><time>2026-04-26T08:29:34.945Z</time></trkpt><trkpt lat="45.5972133" lon="10.7746741"><ele>225.2</ele><time>2026-04-26T08:29:35.945Z</time></trkpt><trkpt lat="45.5972658" lon="10.7748349"><ele>225.79999999999998</ele><time>2026-04-26T08:29:36.945Z</time></trkpt><trkpt lat="45.5973094" lon="10.774975"><ele>226.39999999999998</ele><time>2026-04-26T08:29:37.945Z</time></trkpt><trkpt lat="45.5973471" lon="10.7750926"><ele>227.0</ele><time>2026-04-26T08:29:38.945Z</time></trkpt><trkpt lat="45.5973789" lon="10.7751933"><ele>227.00000000000003</ele><time>2026-04-26T08:29:39.945Z</time></trkpt><trkpt lat="45.597405" lon="10.7752764"><ele>227.0</ele><time>2026-04-26T08:29:40.945Z</time></trkpt><trkpt lat="45.5974338" lon="10.7753938"><ele>227.0</ele><time>2026-04-26T08:29:42.945Z</time></trkpt><trkpt lat="45.5974636" lon="10.7752972"><ele>227.0</ele><time>2026-04-26T08:29:52.945Z</time></trkpt><trkpt lat="45.5974121" lon="10.7751923"><ele>227.00000000000003</ele><time>2026-04-26T08:29:53.945Z</time></trkpt><trkpt lat="45.597372" lon="10.7750714"><ele>227.0</ele><time>2026-04-26T08:29:54.944Z</time></trkpt><trkpt lat="45.5973318" lon="10.7749269"><ele>227.0</ele><time>2026-04-26T08:29:55.945Z</time></trkpt><trkpt lat="45.5972857" lon="10.7747773"><ele>227.0</ele><time>2026-04-26T08:29:56.945Z</time></trkpt><trkpt lat="45.5972427" lon="10.7746399"><ele>227.0</ele><time>2026-04-26T08:29:57.945Z</time></trkpt><trkpt lat="45.5972077" lon="10.7745103"><ele>227.0</ele><time>2026-04-26T08:29:58.945Z</time></trkpt><trkpt lat="45.5971818" lon="10.7743925"><ele>227.0</ele><time>2026-04-26T08:29:59.945Z</time></trkpt><trkpt lat="45.5971657" lon="10.7742797"><ele>227.16666666666669</ele><time>2026-04-26T08:30:00.945Z</time></trkpt><trkpt lat="45.597155" lon="10.7741735"><ele>227.33333333333334</ele><time>2026-04-26T08:30:01.944Z</time></trkpt><trkpt lat="45.5971435" lon="10.7740695"><ele>227.5</ele><time>2026-04-26T08:30:02.945Z</time></trkpt><trkpt lat="45.5971225" lon="10.7739801"><ele>227.66666666666669</ele><time>2026-04-26T08:30:03.945Z</time></trkpt><trkpt lat="45.5970856" lon="10.7739071"><ele>227.83333333333334</ele><time>2026-04-26T08:30:04.945Z</time></trkpt><trkpt lat="45.5969847" lon="10.7738749"><ele>228.0</ele><time>2026-04-26T08:30:06.945Z</time></trkpt><trkpt lat="45.5969095" lon="10.7739461"><ele>227.33333333333334</ele><time>2026-04-26T08:30:08.944Z</time></trkpt><trkpt lat="45.5968452" lon="10.7740346"><ele>226.66666666666669</ele><time>2026-04-26T08:30:10.945Z</time></trkpt><trkpt lat="45.5967686" lon="10.7741132"><ele>226.0</ele><time>2026-04-26T08:30:12.945Z</time></trkpt><trkpt lat="45.5966658" lon="10.7741741"><ele>225.33333333333334</ele><time>2026-04-26T08:30:14.944Z</time></trkpt><trkpt lat="45.5965982" lon="10.7742095"><ele>224.66666666666669</ele><time>2026-04-26T08:30:15.945Z</time></trkpt><trkpt lat="45.5965245" lon="10.774251"><ele>224.0</ele><time>2026-04-26T08:30:16.944Z</time></trkpt><trkpt lat="45.5964477" lon="10.7743092"><ele>224.0</ele><time>2026-04-26T08:30:17.945Z</time></trkpt><trkpt lat="45.5963717" lon="10.7743839"><ele>223.99999999999997</ele><time>2026-04-26T08:30:18.944Z</time></trkpt><trkpt lat="45.5962993" lon="10.774474"><ele>223.99999999999997</ele><time>2026-04-26T08:30:19.944Z</time></trkpt><trkpt lat="45.5962272" lon="10.7745797"><ele>224.0</ele><time>2026-04-26T08:30:20.944Z</time></trkpt><trkpt lat="45.596155" lon="10.7747017"><ele>224.0</ele><time>2026-04-26T08:30:21.944Z</time></trkpt><trkpt lat="45.5960781" lon="10.774829"><ele>223.75</ele><time>2026-04-26T08:30:22.944Z</time></trkpt><trkpt lat="45.5959965" lon="10.7749551"><ele>223.5</ele><time>2026-04-26T08:30:23.945Z</time></trkpt><trkpt lat="45.595905" lon="10.7750734"><ele>223.25</ele><time>2026-04-26T08:30:24.945Z</time></trkpt><trkpt lat="45.5958036" lon="10.7751707"><ele>223.0</ele><time>2026-04-26T08:30:25.945Z</time></trkpt><trkpt lat="45.5956947" lon="10.7752523"><ele>223.75</ele><time>2026-04-26T08:30:26.945Z</time></trkpt><trkpt lat="45.5955841" lon="10.7753329"><ele>224.5</ele><time>2026-04-26T08:30:27.945Z</time></trkpt><trkpt lat="45.5954732" lon="10.7754162"><ele>225.25</ele><time>2026-04-26T08:30:28.945Z</time></trkpt><trkpt lat="45.595364" lon="10.7755029"><ele>226.0</ele><time>2026-04-26T08:30:29.945Z</time></trkpt><trkpt lat="45.5952565" lon="10.7755972"><ele>226.0</ele><time>2026-04-26T08:30:30.945Z</time></trkpt><trkpt lat="45.5951523" lon="10.7756962"><ele>226.0</ele><time>2026-04-26T08:30:31.945Z</time></trkpt><trkpt lat="45.5950487" lon="10.775799"><ele>226.0</ele><time>2026-04-26T08:30:32.945Z</time></trkpt><trkpt lat="45.5949456" lon="10.7759025"><ele>226.0</ele><time>2026-04-26T08:30:33.945Z</time></trkpt><trkpt lat="45.5948426" lon="10.7760044"><ele>226.25</ele><time>2026-04-26T08:30:34.944Z</time></trkpt><trkpt lat="45.5947394" lon="10.7761077"><ele>226.5</ele><time>2026-04-26T08:30:35.945Z</time></trkpt><trkpt lat="45.594641" lon="10.7762154"><ele>226.75</ele><time>2026-04-26T08:30:36.945Z</time></trkpt><trkpt lat="45.5945452" lon="10.7763338"><ele>227.0</ele><time>2026-04-26T08:30:37.945Z</time></trkpt><trkpt lat="45.5944488" lon="10.776454"><ele>226.5</ele><time>2026-04-26T08:30:38.944Z</time></trkpt><trkpt lat="45.5943474" lon="10.776576"><ele>226.0</ele><time>2026-04-26T08:30:39.945Z</time></trkpt><trkpt lat="45.5942446" lon="10.7767013"><ele>225.5</ele><time>2026-04-26T08:30:40.944Z</time></trkpt><trkpt lat="45.5941412" lon="10.7768302"><ele>225.0</ele><time>2026-04-26T08:30:41.944Z</time></trkpt><trkpt lat="45.5940369" lon="10.7769643"><ele>224.75</ele><time>2026-04-26T08:30:42.944Z</time></trkpt><trkpt lat="45.5939318" lon="10.7771024"><ele>224.5</ele><time>2026-04-26T08:30:43.945Z</time></trkpt><trkpt lat="45.5938273" lon="10.7772382"><ele>224.25</ele><time>2026-04-26T08:30:44.944Z</time></trkpt><trkpt lat="45.5937229" lon="10.7773717"><ele>224.0</ele><time>2026-04-26T08:30:45.944Z</time></trkpt><trkpt lat="45.5936167" lon="10.7775025"><ele>224.0</ele><time>2026-04-26T08:30:46.945Z</time></trkpt><trkpt lat="45.5935113" lon="10.7776297"><ele>224.0</ele><time>2026-04-26T08:30:47.944Z</time></trkpt><trkpt lat="45.5934063" lon="10.7777564"><ele>224.0</ele><time>2026-04-26T08:30:48.944Z</time></trkpt><trkpt lat="45.5932998" lon="10.7778797"><ele>224.0</ele><time>2026-04-26T08:30:49.945Z</time></trkpt><trkpt lat="45.5931922" lon="10.7780013"><ele>224.0</ele><time>2026-04-26T08:30:50.945Z</time></trkpt><trkpt lat="45.5930845" lon="10.7781193"><ele>224.0</ele><time>2026-04-26T08:30:51.944Z</time></trkpt><trkpt lat="45.5929748" lon="10.778236"><ele>224.0</ele><time>2026-04-26T08:30:52.945Z</time></trkpt><trkpt lat="45.59287" lon="10.7783534"><ele>224.0</ele><time>2026-04-26T08:30:53.945Z</time></trkpt><trkpt lat="45.5927658" lon="10.7784722"><ele>224.5</ele><time>2026-04-26T08:30:54.945Z</time></trkpt><trkpt lat="45.5926666" lon="10.7785939"><ele>225.0</ele><time>2026-04-26T08:30:55.944Z</time></trkpt><trkpt lat="45.5925731" lon="10.7787175"><ele>225.5</ele><time>2026-04-26T08:30:56.945Z</time></trkpt><trkpt lat="45.592488" lon="10.7788506"><ele>226.0</ele><time>2026-04-26T08:30:57.945Z</time></trkpt><trkpt lat="45.5924218" lon="10.7789864"><ele>226.0</ele><time>2026-04-26T08:30:58.945Z</time></trkpt><trkpt lat="45.5923812" lon="10.7791108"><ele>226.00000000000003</ele><time>2026-04-26T08:30:59.945Z</time></trkpt><trkpt lat="45.5923568" lon="10.7792319"><ele>226.00000000000003</ele><time>2026-04-26T08:31:00.945Z</time></trkpt><trkpt lat="45.5923379" lon="10.7793523"><ele>226.0</ele><time>2026-04-26T08:31:01.945Z</time></trkpt><trkpt lat="45.5923104" lon="10.7794795"><ele>226.0</ele><time>2026-04-26T08:31:02.945Z</time></trkpt><trkpt lat="45.5922685" lon="10.7796031"><ele>226.4</ele><time>2026-04-26T08:31:03.945Z</time></trkpt><trkpt lat="45.5922109" lon="10.7797228"><ele>226.8</ele><time>2026-04-26T08:31:04.944Z</time></trkpt><trkpt lat="45.5921444" lon="10.7798402"><ele>227.20000000000002</ele><time>2026-04-26T08:31:05.945Z</time></trkpt><trkpt lat="45.59207" lon="10.779959"><ele>227.60000000000002</ele><time>2026-04-26T08:31:06.945Z</time></trkpt><trkpt lat="45.5919938" lon="10.7800759"><ele>228.0</ele><time>2026-04-26T08:31:07.945Z</time></trkpt><trkpt lat="45.5919192" lon="10.7801971"><ele>229.2</ele><time>2026-04-26T08:31:08.945Z</time></trkpt><trkpt lat="45.5918435" lon="10.780319"><ele>230.4</ele><time>2026-04-26T08:31:09.945Z</time></trkpt><trkpt lat="45.5917751" lon="10.7804461"><ele>231.59999999999997</ele><time>2026-04-26T08:31:10.945Z</time></trkpt><trkpt lat="45.5917186" lon="10.7805671"><ele>232.79999999999998</ele><time>2026-04-26T08:31:11.944Z</time></trkpt><trkpt lat="45.5916801" lon="10.780658"><ele>234.0</ele><time>2026-04-26T08:31:12.945Z</time></trkpt><trkpt lat="45.5916501" lon="10.7807938"><ele>234.0</ele><time>2026-04-26T08:31:14.944Z</time></trkpt><trkpt lat="45.5916816" lon="10.7808906"><ele>234.0</ele><time>2026-04-26T08:31:17.944Z</time></trkpt><trkpt lat="45.5916433" lon="10.7809924"><ele>234.0</ele><time>2026-04-26T08:31:21.945Z</time></trkpt><trkpt lat="45.591595" lon="10.7810744"><ele>234.0</ele><time>2026-04-26T08:31:23.945Z</time></trkpt><trkpt lat="45.5915542" lon="10.7811829"><ele>234.0</ele><time>2026-04-26T08:31:25.945Z</time></trkpt><trkpt lat="45.5915096" lon="10.7813506"><ele>234.0</ele><time>2026-04-26T08:31:27.945Z</time></trkpt><trkpt lat="45.5914817" lon="10.7814438"><ele>235.0</ele><time>2026-04-26T08:31:28.945Z</time></trkpt><trkpt lat="45.5914349" lon="10.7815621"><ele>236.0</ele><time>2026-04-26T08:31:30.945Z</time></trkpt><trkpt lat="45.5913687" lon="10.7815474"><ele>237.0</ele><time>2026-04-26T08:31:33.945Z</time></trkpt><trkpt lat="45.5913231" lon="10.7814827"><ele>238.0</ele><time>2026-04-26T08:31:36.944Z</time></trkpt><trkpt lat="45.5913844" lon="10.7815557"><ele>239.0</ele><time>2026-04-26T08:31:44.945Z</time></trkpt><trkpt lat="45.5914355" lon="10.7816506"><ele>240.0</ele><time>2026-04-26T08:31:46.944Z</time></trkpt><trkpt lat="45.5914378" lon="10.7817681"><ele>241.0</ele><time>2026-04-26T08:31:48.944Z</time></trkpt><trkpt lat="45.5914129" lon="10.7819197"><ele>242.0</ele><time>2026-04-26T08:31:50.945Z</time></trkpt><trkpt lat="45.5913684" lon="10.7820363"><ele>243.0</ele><time>2026-04-26T08:31:52.944Z</time></trkpt><trkpt lat="45.5912986" lon="10.7820909"><ele>244.0</ele><time>2026-04-26T08:31:54.945Z</time></trkpt><trkpt lat="45.5912141" lon="10.7820518"><ele>245.0</ele><time>2026-04-26T08:31:56.944Z</time></trkpt><trkpt lat="45.5911232" lon="10.7819602"><ele>245.4</ele><time>2026-04-26T08:31:58.945Z</time></trkpt><trkpt lat="45.5910477" lon="10.7818508"><ele>245.8</ele><time>2026-04-26T08:32:00.944Z</time></trkpt><trkpt lat="45.5909741" lon="10.7817713"><ele>246.2</ele><time>2026-04-26T08:32:02.944Z</time></trkpt><trkpt lat="45.5908824" lon="10.7816809"><ele>246.6</ele><time>2026-04-26T08:32:04.944Z</time></trkpt><trkpt lat="45.5907847" lon="10.781582"><ele>247.0</ele><time>2026-04-26T08:32:06.945Z</time></trkpt><trkpt lat="45.5906894" lon="10.78147"><ele>246.99999999999997</ele><time>2026-04-26T08:32:08.944Z</time></trkpt><trkpt lat="45.5905788" lon="10.781374"><ele>247.0</ele><time>2026-04-26T08:32:10.945Z</time></trkpt><trkpt lat="45.5905188" lon="10.7813219"><ele>247.0</ele><time>2026-04-26T08:32:11.944Z</time></trkpt><trkpt lat="45.5904591" lon="10.781266"><ele>247.0</ele><time>2026-04-26T08:32:12.945Z</time></trkpt><trkpt lat="45.5903994" lon="10.7812069"><ele>246.99999999999997</ele><time>2026-04-26T08:32:13.944Z</time></trkpt><trkpt lat="45.5903434" lon="10.7811494"><ele>247.0</ele><time>2026-04-26T08:32:14.945Z</time></trkpt><trkpt lat="45.5902882" lon="10.7810896"><ele>246.83333333333331</ele><time>2026-04-26T08:32:15.945Z</time></trkpt><trkpt lat="45.5902262" lon="10.7810248"><ele>246.66666666666666</ele><time>2026-04-26T08:32:16.945Z</time></trkpt><trkpt lat="45.5901658" lon="10.7809624"><ele>246.5</ele><time>2026-04-26T08:32:17.945Z</time></trkpt><trkpt lat="45.5900834" lon="10.7808854"><ele>246.33333333333331</ele><time>2026-04-26T08:32:19.944Z</time></trkpt><trkpt lat="45.5900145" lon="10.7808746"><ele>246.16666666666666</ele><time>2026-04-26T08:32:22.945Z</time></trkpt><trkpt lat="45.5899424" lon="10.7809483"><ele>246.0</ele><time>2026-04-26T08:32:24.944Z</time></trkpt><trkpt lat="45.5898563" lon="10.7810735"><ele>246.0</ele><time>2026-04-26T08:32:26.945Z</time></trkpt><trkpt lat="45.5898135" lon="10.7811634"><ele>246.0</ele><time>2026-04-26T08:32:27.945Z</time></trkpt><trkpt lat="45.5897841" lon="10.7812715"><ele>246.0</ele><time>2026-04-26T08:32:28.944Z</time></trkpt><trkpt lat="45.5897648" lon="10.7813965"><ele>246.0</ele><time>2026-04-26T08:32:29.945Z</time></trkpt><trkpt lat="45.5897448" lon="10.7815301"><ele>246.0</ele><time>2026-04-26T08:32:30.945Z</time></trkpt><trkpt lat="45.589725" lon="10.7816761"><ele>246.0</ele><time>2026-04-26T08:32:31.945Z</time></trkpt><trkpt lat="45.5897047" lon="10.7818287"><ele>246.16666666666666</ele><time>2026-04-26T08:32:32.945Z</time></trkpt><trkpt lat="45.5896784" lon="10.7819756"><ele>246.33333333333331</ele><time>2026-04-26T08:32:33.943Z</time></trkpt><trkpt lat="45.5896603" lon="10.7820792"><ele>246.5</ele><time>2026-04-26T08:32:34.945Z</time></trkpt><trkpt lat="45.5896237" lon="10.7822241"><ele>246.66666666666666</ele><time>2026-04-26T08:32:36.944Z</time></trkpt><trkpt lat="45.5895873" lon="10.7823068"><ele>246.83333333333331</ele><time>2026-04-26T08:32:37.945Z</time></trkpt><trkpt lat="45.5895562" lon="10.7824004"><ele>247.0</ele><time>2026-04-26T08:32:38.944Z</time></trkpt><trkpt lat="45.589534" lon="10.7824957"><ele>247.39999999999998</ele><time>2026-04-26T08:32:39.944Z</time></trkpt><trkpt lat="45.5894821" lon="10.782622"><ele>247.79999999999998</ele><time>2026-04-26T08:32:41.944Z</time></trkpt><trkpt lat="45.5894248" lon="10.7826701"><ele>248.2</ele><time>2026-04-26T08:32:46.945Z</time></trkpt><trkpt lat="45.5893298" lon="10.7825988"><ele>248.6</ele><time>2026-04-26T08:32:48.945Z</time></trkpt><trkpt lat="45.5892539" lon="10.7825466"><ele>249.0</ele><time>2026-04-26T08:32:49.945Z</time></trkpt><trkpt lat="45.5891646" lon="10.7824851"><ele>249.0</ele><time>2026-04-26T08:32:50.944Z</time></trkpt><trkpt lat="45.5890698" lon="10.78241"><ele>249.0</ele><time>2026-04-26T08:32:51.945Z</time></trkpt><trkpt lat="45.5889667" lon="10.7823295"><ele>249.0</ele><time>2026-04-26T08:32:52.944Z</time></trkpt><trkpt lat="45.5888557" lon="10.7822469"><ele>249.0</ele><time>2026-04-26T08:32:53.945Z</time></trkpt><trkpt lat="45.5887395" lon="10.782161"><ele>248.0</ele><time>2026-04-26T08:32:54.945Z</time></trkpt><trkpt lat="45.5886223" lon="10.7820767"><ele>247.0</ele><time>2026-04-26T08:32:55.944Z</time></trkpt><trkpt lat="45.5885001" lon="10.7819838"><ele>246.0</ele><time>2026-04-26T08:32:56.945Z</time></trkpt><trkpt lat="45.5883761" lon="10.7818864"><ele>245.0</ele><time>2026-04-26T08:32:57.944Z</time></trkpt><trkpt lat="45.5882489" lon="10.7817862"><ele>245.0</ele><time>2026-04-26T08:32:58.945Z</time></trkpt><trkpt lat="45.5881183" lon="10.781689"><ele>245.0</ele><time>2026-04-26T08:32:59.945Z</time></trkpt><trkpt lat="45.5879851" lon="10.7815902"><ele>245.0</ele><time>2026-04-26T08:33:00.944Z</time></trkpt><trkpt lat="45.5878516" lon="10.7814909"><ele>245.0</ele><time>2026-04-26T08:33:01.945Z</time></trkpt><trkpt lat="45.5877179" lon="10.7813904"><ele>244.75</ele><time>2026-04-26T08:33:02.945Z</time></trkpt><trkpt lat="45.5875848" lon="10.7812871"><ele>244.5</ele><time>2026-04-26T08:33:03.945Z</time></trkpt><trkpt lat="45.5874537" lon="10.7811867"><ele>244.25</ele><time>2026-04-26T08:33:04.944Z</time></trkpt><trkpt lat="45.5873237" lon="10.781087"><ele>244.0</ele><time>2026-04-26T08:33:05.945Z</time></trkpt><trkpt lat="45.5871996" lon="10.7809924"><ele>244.0</ele><time>2026-04-26T08:33:06.944Z</time></trkpt><trkpt lat="45.5870789" lon="10.7809013"><ele>244.0</ele><time>2026-04-26T08:33:07.945Z</time></trkpt><trkpt lat="45.5869549" lon="10.780809"><ele>244.0</ele><time>2026-04-26T08:33:08.945Z</time></trkpt><trkpt lat="45.5868248" lon="10.7807124"><ele>244.0</ele><time>2026-04-26T08:33:09.945Z</time></trkpt><trkpt lat="45.586694" lon="10.7806191"><ele>245.0</ele><time>2026-04-26T08:33:10.944Z</time></trkpt><trkpt lat="45.5865644" lon="10.7805316"><ele>246.0</ele><time>2026-04-26T08:33:11.944Z</time></trkpt><trkpt lat="45.5864344" lon="10.7804412"><ele>247.0</ele><time>2026-04-26T08:33:12.944Z</time></trkpt><trkpt lat="45.5863037" lon="10.7803505"><ele>248.0</ele><time>2026-04-26T08:33:13.944Z</time></trkpt><trkpt lat="45.5861744" lon="10.7802629"><ele>247.25</ele><time>2026-04-26T08:33:14.944Z</time></trkpt><trkpt lat="45.5860431" lon="10.7801758"><ele>246.5</ele><time>2026-04-26T08:33:15.945Z</time></trkpt><trkpt lat="45.5859161" lon="10.7800887"><ele>245.75</ele><time>2026-04-26T08:33:16.945Z</time></trkpt><trkpt lat="45.5857878" lon="10.7799997"><ele>245.0</ele><time>2026-04-26T08:33:17.945Z</time></trkpt><trkpt lat="45.5856579" lon="10.7799121"><ele>245.0</ele><time>2026-04-26T08:33:18.945Z</time></trkpt><trkpt lat="45.5855283" lon="10.7798225"><ele>245.0</ele><time>2026-04-26T08:33:19.944Z</time></trkpt><trkpt lat="45.5853967" lon="10.7797307"><ele>245.0</ele><time>2026-04-26T08:33:20.945Z</time></trkpt><trkpt lat="45.5852636" lon="10.7796381"><ele>245.0</ele><time>2026-04-26T08:33:21.945Z</time></trkpt><trkpt lat="45.585129" lon="10.779545"><ele>245.25</ele><time>2026-04-26T08:33:22.945Z</time></trkpt><trkpt lat="45.5849938" lon="10.7794525"><ele>245.5</ele><time>2026-04-26T08:33:23.945Z</time></trkpt><trkpt lat="45.5848596" lon="10.7793615"><ele>245.75</ele><time>2026-04-26T08:33:24.944Z</time></trkpt><trkpt lat="45.5847261" lon="10.7792705"><ele>246.0</ele><time>2026-04-26T08:33:25.945Z</time></trkpt><trkpt lat="45.5845963" lon="10.7791802"><ele>245.25</ele><time>2026-04-26T08:33:26.945Z</time></trkpt><trkpt lat="45.5844687" lon="10.77909"><ele>244.5</ele><time>2026-04-26T08:33:27.945Z</time></trkpt><trkpt lat="45.5843463" lon="10.7790032"><ele>243.75</ele><time>2026-04-26T08:33:28.945Z</time></trkpt><trkpt lat="45.5842289" lon="10.7789198"><ele>243.0</ele><time>2026-04-26T08:33:29.945Z</time></trkpt><trkpt lat="45.5841164" lon="10.7788418"><ele>243.0</ele><time>2026-04-26T08:33:30.944Z</time></trkpt><trkpt lat="45.5840183" lon="10.7787582"><ele>243.0</ele><time>2026-04-26T08:33:31.945Z</time></trkpt><trkpt lat="45.5839298" lon="10.7786703"><ele>243.0</ele><time>2026-04-26T08:33:32.945Z</time></trkpt><trkpt lat="45.5838419" lon="10.778575"><ele>243.0</ele><time>2026-04-26T08:33:33.945Z</time></trkpt><trkpt lat="45.5837535" lon="10.7784729"><ele>243.0</ele><time>2026-04-26T08:33:34.945Z</time></trkpt><trkpt lat="45.5836694" lon="10.7783679"><ele>241.2</ele><time>2026-04-26T08:33:35.945Z</time></trkpt><trkpt lat="45.583594" lon="10.7782628"><ele>239.4</ele><time>2026-04-26T08:33:36.945Z</time></trkpt><trkpt lat="45.5835245" lon="10.7781553"><ele>237.59999999999997</ele><time>2026-04-26T08:33:37.945Z</time></trkpt><trkpt lat="45.5834584" lon="10.7780481"><ele>235.79999999999998</ele><time>2026-04-26T08:33:38.945Z</time></trkpt><trkpt lat="45.5833975" lon="10.777942"><ele>234.0</ele><time>2026-04-26T08:33:39.944Z</time></trkpt><trkpt lat="45.5833479" lon="10.7778524"><ele>234.0</ele><time>2026-04-26T08:33:40.944Z</time></trkpt><trkpt lat="45.5833034" lon="10.7777718"><ele>234.0</ele><time>2026-04-26T08:33:41.945Z</time></trkpt><trkpt lat="45.5832653" lon="10.7776812"><ele>234.0</ele><time>2026-04-26T08:33:42.945Z</time></trkpt><trkpt lat="45.5832245" lon="10.7775936"><ele>234.0</ele><time>2026-04-26T08:33:43.944Z</time></trkpt><trkpt lat="45.5831881" lon="10.7775107"><ele>234.0</ele><time>2026-04-26T08:33:44.945Z</time></trkpt><trkpt lat="45.5831195" lon="10.7773804"><ele>234.0</ele><time>2026-04-26T08:33:46.944Z</time></trkpt><trkpt lat="45.5830606" lon="10.7772902"><ele>234.0</ele><time>2026-04-26T08:33:48.944Z</time></trkpt><trkpt lat="45.583074" lon="10.7774289"><ele>233.99999999999997</ele><time>2026-04-26T08:33:53.945Z</time></trkpt><trkpt lat="45.5831629" lon="10.7775767"><ele>233.99999999999997</ele><time>2026-04-26T08:33:55.943Z</time></trkpt><trkpt lat="45.5832118" lon="10.7776551"><ele>234.0</ele><time>2026-04-26T08:33:56.943Z</time></trkpt><trkpt lat="45.5832688" lon="10.7777739"><ele>234.0</ele><time>2026-04-26T08:33:58.943Z</time></trkpt><trkpt lat="45.5832503" lon="10.7779192"><ele>234.0</ele><time>2026-04-26T08:34:01.944Z</time></trkpt><trkpt lat="45.5832307" lon="10.778006"><ele>234.0</ele><time>2026-04-26T08:34:02.944Z</time></trkpt><trkpt lat="45.5831925" lon="10.7781619"><ele>234.0</ele><time>2026-04-26T08:34:04.944Z</time></trkpt><trkpt lat="45.5831811" lon="10.7782525"><ele>234.0</ele><time>2026-04-26T08:34:05.944Z</time></trkpt><trkpt lat="45.5831708" lon="10.7783703"><ele>234.0</ele><time>2026-04-26T08:34:06.943Z</time></trkpt><trkpt lat="45.5831552" lon="10.7785029"><ele>234.0</ele><time>2026-04-26T08:34:07.944Z</time></trkpt><trkpt lat="45.5831367" lon="10.7786372"><ele>234.39999999999998</ele><time>2026-04-26T08:34:08.944Z</time></trkpt><trkpt lat="45.5831056" lon="10.7787706"><ele>234.79999999999998</ele><time>2026-04-26T08:34:09.943Z</time></trkpt><trkpt lat="45.5830793" lon="10.7789145"><ele>235.20000000000002</ele><time>2026-04-26T08:34:10.943Z</time></trkpt><trkpt lat="45.5830572" lon="10.7790819"><ele>235.60000000000002</ele><time>2026-04-26T08:34:11.943Z</time></trkpt><trkpt lat="45.583031" lon="10.7792538"><ele>236.0</ele><time>2026-04-26T08:34:12.944Z</time></trkpt><trkpt lat="45.5830047" lon="10.7794304"><ele>237.5</ele><time>2026-04-26T08:34:13.943Z</time></trkpt><trkpt lat="45.5829801" lon="10.7796122"><ele>239.0</ele><time>2026-04-26T08:34:14.944Z</time></trkpt><trkpt lat="45.5829548" lon="10.7797972"><ele>240.5</ele><time>2026-04-26T08:34:15.943Z</time></trkpt><trkpt lat="45.5829291" lon="10.7799631"><ele>242.0</ele><time>2026-04-26T08:34:16.944Z</time></trkpt><trkpt lat="45.582907" lon="10.7801037"><ele>242.6</ele><time>2026-04-26T08:34:17.943Z</time></trkpt><trkpt lat="45.5828864" lon="10.7802178"><ele>243.2</ele><time>2026-04-26T08:34:18.944Z</time></trkpt><trkpt lat="45.5828786" lon="10.7803073"><ele>243.8</ele><time>2026-04-26T08:34:19.944Z</time></trkpt><trkpt lat="45.5829433" lon="10.780387"><ele>244.4</ele><time>2026-04-26T08:34:21.943Z</time></trkpt><trkpt lat="45.5830715" lon="10.7804111"><ele>245.0</ele><time>2026-04-26T08:34:23.943Z</time></trkpt><trkpt lat="45.5831344" lon="10.7805596"><ele>245.0</ele><time>2026-04-26T08:34:25.944Z</time></trkpt><trkpt lat="45.5831553" lon="10.7807074"><ele>245.0</ele><time>2026-04-26T08:34:26.943Z</time></trkpt><trkpt lat="45.5832012" lon="10.7808718"><ele>245.0</ele><time>2026-04-26T08:34:27.943Z</time></trkpt><trkpt lat="45.5832545" lon="10.7810482"><ele>245.0</ele><time>2026-04-26T08:34:28.944Z</time></trkpt><trkpt lat="45.5833166" lon="10.7812088"><ele>245.0</ele><time>2026-04-26T08:34:29.943Z</time></trkpt><trkpt lat="45.5833945" lon="10.7813966"><ele>245.0</ele><time>2026-04-26T08:34:30.944Z</time></trkpt><trkpt lat="45.5834654" lon="10.7815883"><ele>245.0</ele><time>2026-04-26T08:34:31.944Z</time></trkpt><trkpt lat="45.5835322" lon="10.7817628"><ele>245.0</ele><time>2026-04-26T08:34:32.944Z</time></trkpt><trkpt lat="45.5835944" lon="10.7819112"><ele>245.0</ele><time>2026-04-26T08:34:33.944Z</time></trkpt><trkpt lat="45.5836611" lon="10.7820439"><ele>245.0</ele><time>2026-04-26T08:34:34.944Z</time></trkpt><trkpt lat="45.5837117" lon="10.7821395"><ele>245.0</ele><time>2026-04-26T08:34:35.944Z</time></trkpt><trkpt lat="45.5837707" lon="10.7822375"><ele>245.0</ele><time>2026-04-26T08:34:36.944Z</time></trkpt><trkpt lat="45.5838539" lon="10.7823266"><ele>245.0</ele><time>2026-04-26T08:34:37.943Z</time></trkpt><trkpt lat="45.5839491" lon="10.7824237"><ele>245.25</ele><time>2026-04-26T08:34:38.944Z</time></trkpt><trkpt lat="45.5840557" lon="10.7825251"><ele>245.5</ele><time>2026-04-26T08:34:39.943Z</time></trkpt><trkpt lat="45.5841594" lon="10.7826309"><ele>245.75</ele><time>2026-04-26T08:34:40.943Z</time></trkpt><trkpt lat="45.5842531" lon="10.7827381"><ele>246.0</ele><time>2026-04-26T08:34:41.944Z</time></trkpt><trkpt lat="45.5843394" lon="10.7828494"><ele>245.4</ele><time>2026-04-26T08:34:42.944Z</time></trkpt><trkpt lat="45.5843955" lon="10.782958"><ele>244.8</ele><time>2026-04-26T08:34:43.944Z</time></trkpt><trkpt lat="45.5844384" lon="10.7830657"><ele>244.20000000000002</ele><time>2026-04-26T08:34:44.943Z</time></trkpt><trkpt lat="45.5844702" lon="10.7831883"><ele>243.60000000000002</ele><time>2026-04-26T08:34:45.944Z</time></trkpt><trkpt lat="45.5844865" lon="10.7833066"><ele>243.0</ele><time>2026-04-26T08:34:46.944Z</time></trkpt><trkpt lat="45.5844902" lon="10.7834465"><ele>243.5</ele><time>2026-04-26T08:34:47.944Z</time></trkpt><trkpt lat="45.5844952" lon="10.7836096"><ele>244.0</ele><time>2026-04-26T08:34:48.944Z</time></trkpt><trkpt lat="45.5845076" lon="10.7837811"><ele>244.5</ele><time>2026-04-26T08:34:49.943Z</time></trkpt><trkpt lat="45.5845165" lon="10.7839592"><ele>245.0</ele><time>2026-04-26T08:34:50.944Z</time></trkpt><trkpt lat="45.5845235" lon="10.7841465"><ele>246.6</ele><time>2026-04-26T08:34:51.943Z</time></trkpt><trkpt lat="45.5845263" lon="10.7843269"><ele>248.2</ele><time>2026-04-26T08:34:52.944Z</time></trkpt><trkpt lat="45.5845298" lon="10.7844842"><ele>249.8</ele><time>2026-04-26T08:34:53.944Z</time></trkpt><trkpt lat="45.5845323" lon="10.7846344"><ele>251.4</ele><time>2026-04-26T08:34:54.944Z</time></trkpt><trkpt lat="45.5845366" lon="10.7847702"><ele>253.0</ele><time>2026-04-26T08:34:55.944Z</time></trkpt><trkpt lat="45.5845572" lon="10.7848708"><ele>252.99999999999997</ele><time>2026-04-26T08:34:56.943Z</time></trkpt><trkpt lat="45.5845962" lon="10.784959"><ele>253.0</ele><time>2026-04-26T08:34:57.943Z</time></trkpt><trkpt lat="45.5846497" lon="10.7850641"><ele>253.0</ele><time>2026-04-26T08:34:59.944Z</time></trkpt><trkpt lat="45.5846948" lon="10.7849994"><ele>253.0</ele><time>2026-04-26T08:35:04.944Z</time></trkpt><trkpt lat="45.5846918" lon="10.7849066"><ele>252.99999999999997</ele><time>2026-04-26T08:35:06.943Z</time></trkpt><trkpt lat="45.584742" lon="10.784837"><ele>253.0</ele><time>2026-04-26T08:35:10.943Z</time></trkpt><trkpt lat="45.5848494" lon="10.7847698"><ele>253.0</ele><time>2026-04-26T08:35:12.944Z</time></trkpt><trkpt lat="45.5849077" lon="10.784717"><ele>253.0</ele><time>2026-04-26T08:35:13.944Z</time></trkpt><trkpt lat="45.5849533" lon="10.7845902"><ele>253.0</ele><time>2026-04-26T08:35:15.944Z</time></trkpt><trkpt lat="45.5849164" lon="10.7844069"><ele>253.0</ele><time>2026-04-26T08:35:16.944Z</time></trkpt><trkpt lat="45.5849069" lon="10.784243"><ele>253.0</ele><time>2026-04-26T08:35:17.944Z</time></trkpt><trkpt lat="45.5848988" lon="10.7840777"><ele>253.25</ele><time>2026-04-26T08:35:18.943Z</time></trkpt><trkpt lat="45.5849133" lon="10.7838878"><ele>253.5</ele><time>2026-04-26T08:35:19.944Z</time></trkpt><trkpt lat="45.5849407" lon="10.7836863"><ele>253.75</ele><time>2026-04-26T08:35:20.943Z</time></trkpt><trkpt lat="45.5849732" lon="10.7834878"><ele>254.0</ele><time>2026-04-26T08:35:21.944Z</time></trkpt><trkpt lat="45.5849955" lon="10.783309"><ele>254.0</ele><time>2026-04-26T08:35:22.943Z</time></trkpt><trkpt lat="45.5850079" lon="10.7831647"><ele>253.99999999999997</ele><time>2026-04-26T08:35:23.943Z</time></trkpt><trkpt lat="45.5850037" lon="10.7830428"><ele>253.99999999999997</ele><time>2026-04-26T08:35:24.944Z</time></trkpt><trkpt lat="45.5849896" lon="10.7829231"><ele>254.0</ele><time>2026-04-26T08:35:25.944Z</time></trkpt><trkpt lat="45.5849653" lon="10.7828071"><ele>254.0</ele><time>2026-04-26T08:35:26.944Z</time></trkpt><trkpt lat="45.5849902" lon="10.7826447"><ele>254.50000000000003</ele><time>2026-04-26T08:35:28.944Z</time></trkpt><trkpt lat="45.5850251" lon="10.782557"><ele>255.0</ele><time>2026-04-26T08:35:29.943Z</time></trkpt><trkpt lat="45.5850815" lon="10.782474"><ele>255.5</ele><time>2026-04-26T08:35:30.943Z</time></trkpt><trkpt lat="45.5851406" lon="10.78243"><ele>256.0</ele><time>2026-04-26T08:35:31.944Z</time></trkpt><trkpt lat="45.5852431" lon="10.7824673"><ele>256.5</ele><time>2026-04-26T08:35:33.944Z</time></trkpt><trkpt lat="45.5852916" lon="10.7825457"><ele>257.0</ele><time>2026-04-26T08:35:34.944Z</time></trkpt><trkpt lat="45.5853573" lon="10.782654"><ele>258.0</ele><time>2026-04-26T08:35:35.944Z</time></trkpt><trkpt lat="45.5854521" lon="10.7827687"><ele>259.0</ele><time>2026-04-26T08:35:36.943Z</time></trkpt><trkpt lat="45.5855665" lon="10.78288"><ele>260.0</ele><time>2026-04-26T08:35:37.944Z</time></trkpt><trkpt lat="45.5857059" lon="10.7829774"><ele>261.0</ele><time>2026-04-26T08:35:38.943Z</time></trkpt><trkpt lat="45.5858736" lon="10.783057"><ele>261.0</ele><time>2026-04-26T08:35:39.944Z</time></trkpt><trkpt lat="45.5860497" lon="10.783133"><ele>261.0</ele><time>2026-04-26T08:35:40.943Z</time></trkpt><trkpt lat="45.5862189" lon="10.7831942"><ele>261.0</ele><time>2026-04-26T08:35:41.944Z</time></trkpt><trkpt lat="45.5863796" lon="10.7832597"><ele>261.6666666666667</ele><time>2026-04-26T08:35:42.944Z</time></trkpt><trkpt lat="45.5865353" lon="10.7833579"><ele>262.33333333333337</ele><time>2026-04-26T08:35:43.944Z</time></trkpt><trkpt lat="45.586687" lon="10.7834735"><ele>263.0</ele><time>2026-04-26T08:35:44.944Z</time></trkpt><trkpt lat="45.5868298" lon="10.7835839"><ele>263.33333333333337</ele><time>2026-04-26T08:35:45.944Z</time></trkpt><trkpt lat="45.5869657" lon="10.783687"><ele>263.6666666666667</ele><time>2026-04-26T08:35:46.943Z</time></trkpt><trkpt lat="45.5871018" lon="10.7837879"><ele>264.0</ele><time>2026-04-26T08:35:47.944Z</time></trkpt><trkpt lat="45.5872382" lon="10.783883"><ele>263.5</ele><time>2026-04-26T08:35:48.944Z</time></trkpt><trkpt lat="45.5873779" lon="10.7839648"><ele>263.0</ele><time>2026-04-26T08:35:49.944Z</time></trkpt><trkpt lat="45.5875183" lon="10.7840243"><ele>262.5</ele><time>2026-04-26T08:35:50.944Z</time></trkpt><trkpt lat="45.587661" lon="10.7840697"><ele>262.0</ele><time>2026-04-26T08:35:51.943Z</time></trkpt><trkpt lat="45.5877866" lon="10.784115"><ele>261.8</ele><time>2026-04-26T08:35:52.944Z</time></trkpt><trkpt lat="45.5878959" lon="10.7841673"><ele>261.6</ele><time>2026-04-26T08:35:53.944Z</time></trkpt><trkpt lat="45.5879906" lon="10.784225"><ele>261.40000000000003</ele><time>2026-04-26T08:35:54.944Z</time></trkpt><trkpt lat="45.5880769" lon="10.784286"><ele>261.2</ele><time>2026-04-26T08:35:55.944Z</time></trkpt><trkpt lat="45.5881534" lon="10.784346"><ele>261.0</ele><time>2026-04-26T08:35:56.944Z</time></trkpt><trkpt lat="45.5882242" lon="10.7844056"><ele>261.0</ele><time>2026-04-26T08:35:57.944Z</time></trkpt><trkpt lat="45.5882855" lon="10.7844565"><ele>261.0</ele><time>2026-04-26T08:35:58.944Z</time></trkpt><trkpt lat="45.5883598" lon="10.7845183"><ele>261.0</ele><time>2026-04-26T08:36:00.944Z</time></trkpt><trkpt lat="45.5884343" lon="10.7845258"><ele>261.0</ele><time>2026-04-26T08:36:03.944Z</time></trkpt><trkpt lat="45.5884983" lon="10.7844993"><ele>261.0</ele><time>2026-04-26T08:36:05.944Z</time></trkpt><trkpt lat="45.58857" lon="10.7845029"><ele>261.0</ele><time>2026-04-26T08:36:07.944Z</time></trkpt><trkpt lat="45.5886752" lon="10.7845922"><ele>261.0</ele><time>2026-04-26T08:36:09.944Z</time></trkpt><trkpt lat="45.5887475" lon="10.7846478"><ele>261.0</ele><time>2026-04-26T08:36:10.943Z</time></trkpt><trkpt lat="45.5888322" lon="10.7847031"><ele>261.0</ele><time>2026-04-26T08:36:11.944Z</time></trkpt><trkpt lat="45.5889202" lon="10.7847727"><ele>261.0</ele><time>2026-04-26T08:36:12.944Z</time></trkpt><trkpt lat="45.5890077" lon="10.7848573"><ele>261.0</ele><time>2026-04-26T08:36:13.944Z</time></trkpt><trkpt lat="45.589093" lon="10.784954"><ele>261.0</ele><time>2026-04-26T08:36:14.943Z</time></trkpt><trkpt lat="45.5891758" lon="10.7850586"><ele>261.0</ele><time>2026-04-26T08:36:15.944Z</time></trkpt><trkpt lat="45.5892587" lon="10.7851705"><ele>261.0</ele><time>2026-04-26T08:36:16.943Z</time></trkpt><trkpt lat="45.5893534" lon="10.7852837"><ele>261.0</ele><time>2026-04-26T08:36:17.943Z</time></trkpt><trkpt lat="45.5894485" lon="10.7854022"><ele>262.0</ele><time>2026-04-26T08:36:18.944Z</time></trkpt><trkpt lat="45.5895412" lon="10.7855241"><ele>263.0</ele><time>2026-04-26T08:36:19.944Z</time></trkpt><trkpt lat="45.5896358" lon="10.7856484"><ele>264.0</ele><time>2026-04-26T08:36:20.944Z</time></trkpt><trkpt lat="45.589737" lon="10.7857597"><ele>265.0</ele><time>2026-04-26T08:36:21.943Z</time></trkpt><trkpt lat="45.5898409" lon="10.7858656"><ele>265.0</ele><time>2026-04-26T08:36:22.944Z</time></trkpt><trkpt lat="45.5899448" lon="10.7859677"><ele>265.0</ele><time>2026-04-26T08:36:23.944Z</time></trkpt><trkpt lat="45.5900525" lon="10.7860716"><ele>265.0</ele><time>2026-04-26T08:36:24.944Z</time></trkpt><trkpt lat="45.5901607" lon="10.7861797"><ele>265.0</ele><time>2026-04-26T08:36:25.944Z</time></trkpt><trkpt lat="45.5902688" lon="10.7862942"><ele>265.5</ele><time>2026-04-26T08:36:26.944Z</time></trkpt><trkpt lat="45.5903777" lon="10.7864139"><ele>266.0</ele><time>2026-04-26T08:36:27.943Z</time></trkpt><trkpt lat="45.590485" lon="10.7865419"><ele>266.5</ele><time>2026-04-26T08:36:28.944Z</time></trkpt><trkpt lat="45.5905905" lon="10.7866707"><ele>267.0</ele><time>2026-04-26T08:36:29.943Z</time></trkpt><trkpt lat="45.5906952" lon="10.7867995"><ele>268.5</ele><time>2026-04-26T08:36:30.944Z</time></trkpt><trkpt lat="45.5907992" lon="10.7869315"><ele>270.0</ele><time>2026-04-26T08:36:31.944Z</time></trkpt><trkpt lat="45.5909011" lon="10.7870639"><ele>271.5</ele><time>2026-04-26T08:36:32.944Z</time></trkpt><trkpt lat="45.5910084" lon="10.787198"><ele>273.0</ele><time>2026-04-26T08:36:33.944Z</time></trkpt><trkpt lat="45.5911175" lon="10.7873334"><ele>272.75</ele><time>2026-04-26T08:36:34.944Z</time></trkpt><trkpt lat="45.5912302" lon="10.7874692"><ele>272.5</ele><time>2026-04-26T08:36:35.943Z</time></trkpt><trkpt lat="45.5913414" lon="10.7876068"><ele>272.25</ele><time>2026-04-26T08:36:36.944Z</time></trkpt><trkpt lat="45.5914535" lon="10.7877474"><ele>272.0</ele><time>2026-04-26T08:36:37.944Z</time></trkpt><trkpt lat="45.5915639" lon="10.7878856"><ele>272.0</ele><time>2026-04-26T08:36:38.944Z</time></trkpt><trkpt lat="45.5916713" lon="10.788013"><ele>272.0</ele><time>2026-04-26T08:36:39.944Z</time></trkpt><trkpt lat="45.5917778" lon="10.7881252"><ele>272.0</ele><time>2026-04-26T08:36:40.944Z</time></trkpt><trkpt lat="45.5918836" lon="10.7882314"><ele>272.0</ele><time>2026-04-26T08:36:41.944Z</time></trkpt><trkpt lat="45.591987" lon="10.7883383"><ele>272.25</ele><time>2026-04-26T08:36:42.944Z</time></trkpt><trkpt lat="45.5920856" lon="10.7884494"><ele>272.5</ele><time>2026-04-26T08:36:43.943Z</time></trkpt><trkpt lat="45.5921734" lon="10.7885716"><ele>272.75</ele><time>2026-04-26T08:36:44.944Z</time></trkpt><trkpt lat="45.5922562" lon="10.7886839"><ele>273.0</ele><time>2026-04-26T08:36:45.944Z</time></trkpt><trkpt lat="45.5923312" lon="10.7887702"><ele>273.0</ele><time>2026-04-26T08:36:46.944Z</time></trkpt><trkpt lat="45.5924203" lon="10.7888422"><ele>273.0</ele><time>2026-04-26T08:36:47.943Z</time></trkpt><trkpt lat="45.5925266" lon="10.7889235"><ele>273.0</ele><time>2026-04-26T08:36:48.944Z</time></trkpt><trkpt lat="45.5926313" lon="10.7890329"><ele>273.0</ele><time>2026-04-26T08:36:49.943Z</time></trkpt><trkpt lat="45.5927319" lon="10.7891549"><ele>273.0</ele><time>2026-04-26T08:36:50.944Z</time></trkpt><trkpt lat="45.5928282" lon="10.7892794"><ele>273.0</ele><time>2026-04-26T08:36:51.944Z</time></trkpt><trkpt lat="45.5929131" lon="10.7893925"><ele>273.0</ele><time>2026-04-26T08:36:52.943Z</time></trkpt><trkpt lat="45.5929856" lon="10.7894925"><ele>273.0</ele><time>2026-04-26T08:36:53.943Z</time></trkpt><trkpt lat="45.5930388" lon="10.7895798"><ele>273.0</ele><time>2026-04-26T08:36:54.944Z</time></trkpt><trkpt lat="45.5930572" lon="10.7897313"><ele>273.8</ele><time>2026-04-26T08:36:56.944Z</time></trkpt><trkpt lat="45.5929562" lon="10.7898823"><ele>274.6</ele><time>2026-04-26T08:36:58.944Z</time></trkpt><trkpt lat="45.5929043" lon="10.789966"><ele>275.4</ele><time>2026-04-26T08:36:59.944Z</time></trkpt><trkpt lat="45.5928609" lon="10.7900932"><ele>276.2</ele><time>2026-04-26T08:37:01.944Z</time></trkpt><trkpt lat="45.5929024" lon="10.7902005"><ele>277.0</ele><time>2026-04-26T08:37:03.943Z</time></trkpt><trkpt lat="45.5929608" lon="10.7902774"><ele>277.5</ele><time>2026-04-26T08:37:04.943Z</time></trkpt><trkpt lat="45.593058" lon="10.7903825"><ele>278.0</ele><time>2026-04-26T08:37:05.944Z</time></trkpt><trkpt lat="45.5931634" lon="10.7905159"><ele>278.5</ele><time>2026-04-26T08:37:06.944Z</time></trkpt><trkpt lat="45.5932538" lon="10.7906376"><ele>279.0</ele><time>2026-04-26T08:37:07.943Z</time></trkpt><trkpt lat="45.5933285" lon="10.7907595"><ele>279.0</ele><time>2026-04-26T08:37:08.944Z</time></trkpt><trkpt lat="45.5934056" lon="10.790918"><ele>279.0</ele><time>2026-04-26T08:37:09.944Z</time></trkpt><trkpt lat="45.5934892" lon="10.7910648"><ele>279.0</ele><time>2026-04-26T08:37:10.944Z</time></trkpt><trkpt lat="45.5935784" lon="10.7911857"><ele>279.0</ele><time>2026-04-26T08:37:11.944Z</time></trkpt><trkpt lat="45.593673" lon="10.7913043"><ele>279.75</ele><time>2026-04-26T08:37:12.944Z</time></trkpt><trkpt lat="45.593768" lon="10.7914323"><ele>280.5</ele><time>2026-04-26T08:37:13.944Z</time></trkpt><trkpt lat="45.593849" lon="10.7915485"><ele>281.25</ele><time>2026-04-26T08:37:14.944Z</time></trkpt><trkpt lat="45.5939142" lon="10.7916752"><ele>282.0</ele><time>2026-04-26T08:37:15.943Z</time></trkpt><trkpt lat="45.593971" lon="10.7918243"><ele>283.0</ele><time>2026-04-26T08:37:16.943Z</time></trkpt><trkpt lat="45.5940206" lon="10.7919806"><ele>284.0</ele><time>2026-04-26T08:37:17.944Z</time></trkpt><trkpt lat="45.5940829" lon="10.7921297"><ele>285.0</ele><time>2026-04-26T08:37:18.943Z</time></trkpt><trkpt lat="45.5941561" lon="10.7922303"><ele>286.0</ele><time>2026-04-26T08:37:19.943Z</time></trkpt><trkpt lat="45.5942455" lon="10.7923255"><ele>286.0</ele><time>2026-04-26T08:37:20.943Z</time></trkpt><trkpt lat="45.5943176" lon="10.7924106"><ele>286.0</ele><time>2026-04-26T08:37:21.944Z</time></trkpt><trkpt lat="45.5943781" lon="10.7925058"><ele>286.0</ele><time>2026-04-26T08:37:22.943Z</time></trkpt><trkpt lat="45.5944465" lon="10.7926219"><ele>286.0</ele><time>2026-04-26T08:37:23.943Z</time></trkpt><trkpt lat="45.5945452" lon="10.7927605"><ele>286.0</ele><time>2026-04-26T08:37:24.944Z</time></trkpt><trkpt lat="45.5946319" lon="10.7929159"><ele>285.75</ele><time>2026-04-26T08:37:25.944Z</time></trkpt><trkpt lat="45.5947092" lon="10.7930477"><ele>285.5</ele><time>2026-04-26T08:37:26.944Z</time></trkpt><trkpt lat="45.5947815" lon="10.7931949"><ele>285.25</ele><time>2026-04-26T08:37:27.943Z</time></trkpt><trkpt lat="45.5948535" lon="10.7933344"><ele>285.0</ele><time>2026-04-26T08:37:28.944Z</time></trkpt><trkpt lat="45.5949353" lon="10.7934672"><ele>286.0</ele><time>2026-04-26T08:37:29.944Z</time></trkpt><trkpt lat="45.5950311" lon="10.7935953"><ele>287.0</ele><time>2026-04-26T08:37:30.944Z</time></trkpt><trkpt lat="45.5951339" lon="10.7937211"><ele>288.0</ele><time>2026-04-26T08:37:31.944Z</time></trkpt><trkpt lat="45.5952167" lon="10.7938359"><ele>289.0</ele><time>2026-04-26T08:37:32.944Z</time></trkpt><trkpt lat="45.5953043" lon="10.7939568"><ele>288.0</ele><time>2026-04-26T08:37:33.944Z</time></trkpt><trkpt lat="45.5953953" lon="10.7940873"><ele>287.0</ele><time>2026-04-26T08:37:34.943Z</time></trkpt><trkpt lat="45.5954732" lon="10.7942023"><ele>286.0</ele><time>2026-04-26T08:37:35.944Z</time></trkpt><trkpt lat="45.5955343" lon="10.7942957"><ele>285.0</ele><time>2026-04-26T08:37:36.944Z</time></trkpt><trkpt lat="45.5955764" lon="10.7943735"><ele>284.0</ele><time>2026-04-26T08:37:37.944Z</time></trkpt><trkpt lat="45.5956333" lon="10.7944722"><ele>284.0</ele><time>2026-04-26T08:37:39.943Z</time></trkpt><trkpt lat="45.5956918" lon="10.7945217"><ele>284.0</ele><time>2026-04-26T08:37:42.944Z</time></trkpt><trkpt lat="45.5957557" lon="10.7945167"><ele>284.0</ele><time>2026-04-26T08:37:45.944Z</time></trkpt><trkpt lat="45.5958178" lon="10.7944846"><ele>284.0</ele><time>2026-04-26T08:37:52.943Z</time></trkpt><trkpt lat="45.5958911" lon="10.7944662"><ele>284.0</ele><time>2026-04-26T08:37:54.944Z</time></trkpt><trkpt lat="45.5960307" lon="10.7944616"><ele>284.0</ele><time>2026-04-26T08:37:56.944Z</time></trkpt><trkpt lat="45.596108" lon="10.7944476"><ele>282.59999999999997</ele><time>2026-04-26T08:37:57.943Z</time></trkpt><trkpt lat="45.5961905" lon="10.7944286"><ele>281.2</ele><time>2026-04-26T08:37:58.944Z</time></trkpt><trkpt lat="45.5962811" lon="10.7943965"><ele>279.79999999999995</ele><time>2026-04-26T08:37:59.944Z</time></trkpt><trkpt lat="45.5963797" lon="10.794365"><ele>278.4</ele><time>2026-04-26T08:38:00.944Z</time></trkpt><trkpt lat="45.5964821" lon="10.7943251"><ele>277.0</ele><time>2026-04-26T08:38:01.944Z</time></trkpt><trkpt lat="45.5965938" lon="10.7942968"><ele>276.4</ele><time>2026-04-26T08:38:02.944Z</time></trkpt><trkpt lat="45.5967086" lon="10.7942793"><ele>275.79999999999995</ele><time>2026-04-26T08:38:03.943Z</time></trkpt><trkpt lat="45.5968214" lon="10.7942704"><ele>275.2</ele><time>2026-04-26T08:38:04.943Z</time></trkpt><trkpt lat="45.5969353" lon="10.7942704"><ele>274.59999999999997</ele><time>2026-04-26T08:38:05.943Z</time></trkpt><trkpt lat="45.5970371" lon="10.7942743"><ele>274.0</ele><time>2026-04-26T08:38:06.943Z</time></trkpt><trkpt lat="45.5971342" lon="10.7942867"><ele>272.4</ele><time>2026-04-26T08:38:07.944Z</time></trkpt><trkpt lat="45.5972261" lon="10.7943152"><ele>270.79999999999995</ele><time>2026-04-26T08:38:08.944Z</time></trkpt><trkpt lat="45.5973139" lon="10.7943756"><ele>269.20000000000005</ele><time>2026-04-26T08:38:09.943Z</time></trkpt><trkpt lat="45.5974075" lon="10.794445"><ele>267.6</ele><time>2026-04-26T08:38:10.943Z</time></trkpt><trkpt lat="45.5975079" lon="10.794516"><ele>266.0</ele><time>2026-04-26T08:38:11.943Z</time></trkpt><trkpt lat="45.5976139" lon="10.7945852"><ele>266.0</ele><time>2026-04-26T08:38:12.944Z</time></trkpt><trkpt lat="45.5977112" lon="10.7946465"><ele>266.0</ele><time>2026-04-26T08:38:13.943Z</time></trkpt><trkpt lat="45.5978078" lon="10.7947042"><ele>266.0</ele><time>2026-04-26T08:38:14.944Z</time></trkpt><trkpt lat="45.5979068" lon="10.7947663"><ele>266.0</ele><time>2026-04-26T08:38:15.944Z</time></trkpt><trkpt lat="45.5979942" lon="10.7948179"><ele>266.0</ele><time>2026-04-26T08:38:16.944Z</time></trkpt><trkpt lat="45.5980712" lon="10.7948757"><ele>264.1666666666667</ele><time>2026-04-26T08:38:17.943Z</time></trkpt><trkpt lat="45.5981376" lon="10.7949508"><ele>262.33333333333337</ele><time>2026-04-26T08:38:18.944Z</time></trkpt><trkpt lat="45.598189" lon="10.7950315"><ele>260.5</ele><time>2026-04-26T08:38:19.944Z</time></trkpt><trkpt lat="45.5982435" lon="10.7950847"><ele>258.6666666666667</ele><time>2026-04-26T08:38:20.943Z</time></trkpt><trkpt lat="45.5983644" lon="10.7951063"><ele>256.8333333333333</ele><time>2026-04-26T08:38:22.943Z</time></trkpt><trkpt lat="45.598451" lon="10.7950924"><ele>255.0</ele><time>2026-04-26T08:38:23.944Z</time></trkpt><trkpt lat="45.5985535" lon="10.7950727"><ele>255.0</ele><time>2026-04-26T08:38:24.944Z</time></trkpt><trkpt lat="45.5986623" lon="10.7950413"><ele>255.0</ele><time>2026-04-26T08:38:25.944Z</time></trkpt><trkpt lat="45.5987783" lon="10.7949848"><ele>255.0</ele><time>2026-04-26T08:38:26.943Z</time></trkpt><trkpt lat="45.5988972" lon="10.7949157"><ele>255.0</ele><time>2026-04-26T08:38:27.944Z</time></trkpt><trkpt lat="45.5990098" lon="10.794843"><ele>254.0</ele><time>2026-04-26T08:38:28.944Z</time></trkpt><trkpt lat="45.5991179" lon="10.7947785"><ele>253.0</ele><time>2026-04-26T08:38:29.944Z</time></trkpt><trkpt lat="45.5992262" lon="10.7947479"><ele>252.0</ele><time>2026-04-26T08:38:30.944Z</time></trkpt><trkpt lat="45.5993283" lon="10.7947367"><ele>251.0</ele><time>2026-04-26T08:38:31.944Z</time></trkpt><trkpt lat="45.5994175" lon="10.7947348"><ele>250.0</ele><time>2026-04-26T08:38:32.943Z</time></trkpt><trkpt lat="45.5994981" lon="10.7947408"><ele>249.83333333333331</ele><time>2026-04-26T08:38:33.943Z</time></trkpt><trkpt lat="45.5995642" lon="10.7947311"><ele>249.66666666666666</ele><time>2026-04-26T08:38:34.944Z</time></trkpt><trkpt lat="45.5996699" lon="10.7947045"><ele>249.5</ele><time>2026-04-26T08:38:36.944Z</time></trkpt><trkpt lat="45.5997425" lon="10.7946915"><ele>249.33333333333331</ele><time>2026-04-26T08:38:38.944Z</time></trkpt><trkpt lat="45.5998058" lon="10.7946842"><ele>249.16666666666666</ele><time>2026-04-26T08:38:41.944Z</time></trkpt><trkpt lat="45.5998837" lon="10.7946845"><ele>249.0</ele><time>2026-04-26T08:38:43.943Z</time></trkpt><trkpt lat="45.5999858" lon="10.7946673"><ele>249.0</ele><time>2026-04-26T08:38:45.943Z</time></trkpt><trkpt lat="45.6000482" lon="10.7946457"><ele>249.0</ele><time>2026-04-26T08:38:46.944Z</time></trkpt><trkpt lat="45.6001233" lon="10.7946245"><ele>249.0</ele><time>2026-04-26T08:38:47.944Z</time></trkpt><trkpt lat="45.6002026" lon="10.7946068"><ele>249.0</ele><time>2026-04-26T08:38:48.944Z</time></trkpt><trkpt lat="45.6002854" lon="10.7945973"><ele>249.0</ele><time>2026-04-26T08:38:49.944Z</time></trkpt><trkpt lat="45.600369" lon="10.7945833"><ele>249.0</ele><time>2026-04-26T08:38:50.944Z</time></trkpt><trkpt lat="45.6004533" lon="10.794562"><ele>249.0</ele><time>2026-04-26T08:38:51.944Z</time></trkpt><trkpt lat="45.6005341" lon="10.794536"><ele>248.99999999999997</ele><time>2026-04-26T08:38:52.944Z</time></trkpt><trkpt lat="45.6006123" lon="10.7945103"><ele>248.99999999999997</ele><time>2026-04-26T08:38:53.944Z</time></trkpt><trkpt lat="45.6007124" lon="10.7944765"><ele>249.0</ele><time>2026-04-26T08:38:55.944Z</time></trkpt><trkpt lat="45.6008159" lon="10.7945187"><ele>249.0</ele><time>2026-04-26T08:38:57.944Z</time></trkpt><trkpt lat="45.6008779" lon="10.7945966"><ele>249.0</ele><time>2026-04-26T08:38:58.943Z</time></trkpt><trkpt lat="45.6009456" lon="10.7946884"><ele>248.99999999999997</ele><time>2026-04-26T08:38:59.944Z</time></trkpt><trkpt lat="45.6010237" lon="10.7947916"><ele>248.99999999999997</ele><time>2026-04-26T08:39:00.943Z</time></trkpt><trkpt lat="45.6011105" lon="10.7948954"><ele>249.0</ele><time>2026-04-26T08:39:01.944Z</time></trkpt><trkpt lat="45.6012064" lon="10.794998"><ele>249.0</ele><time>2026-04-26T08:39:02.943Z</time></trkpt><trkpt lat="45.6013082" lon="10.7950791"><ele>248.75</ele><time>2026-04-26T08:39:03.943Z</time></trkpt><trkpt lat="45.6014229" lon="10.79513"><ele>248.5</ele><time>2026-04-26T08:39:04.944Z</time></trkpt><trkpt lat="45.6015449" lon="10.795154"><ele>248.25</ele><time>2026-04-26T08:39:05.944Z</time></trkpt><trkpt lat="45.6016709" lon="10.7951622"><ele>248.0</ele><time>2026-04-26T08:39:06.943Z</time></trkpt><trkpt lat="45.6017988" lon="10.795163"><ele>248.0</ele><time>2026-04-26T08:39:07.943Z</time></trkpt><trkpt lat="45.6019331" lon="10.7951635"><ele>248.0</ele><time>2026-04-26T08:39:08.944Z</time></trkpt><trkpt lat="45.6020626" lon="10.7951645"><ele>248.0</ele><time>2026-04-26T08:39:09.944Z</time></trkpt><trkpt lat="45.6021873" lon="10.7951647"><ele>248.0</ele><time>2026-04-26T08:39:10.944Z</time></trkpt><trkpt lat="45.6023035" lon="10.7951728"><ele>248.60000000000002</ele><time>2026-04-26T08:39:11.944Z</time></trkpt><trkpt lat="45.6023943" lon="10.7951906"><ele>249.20000000000002</ele><time>2026-04-26T08:39:12.944Z</time></trkpt><trkpt lat="45.6024726" lon="10.7952181"><ele>249.8</ele><time>2026-04-26T08:39:13.944Z</time></trkpt><trkpt lat="45.6025502" lon="10.7952729"><ele>250.4</ele><time>2026-04-26T08:39:14.944Z</time></trkpt><trkpt lat="45.6026229" lon="10.7953644"><ele>251.0</ele><time>2026-04-26T08:39:15.943Z</time></trkpt><trkpt lat="45.6026823" lon="10.7954805"><ele>251.0</ele><time>2026-04-26T08:39:16.943Z</time></trkpt><trkpt lat="45.6027163" lon="10.7956204"><ele>251.00000000000003</ele><time>2026-04-26T08:39:17.944Z</time></trkpt><trkpt lat="45.6027231" lon="10.7957721"><ele>251.00000000000003</ele><time>2026-04-26T08:39:18.943Z</time></trkpt><trkpt lat="45.6027205" lon="10.7959319"><ele>251.0</ele><time>2026-04-26T08:39:19.943Z</time></trkpt><trkpt lat="45.6027227" lon="10.7960986"><ele>251.0</ele><time>2026-04-26T08:39:20.944Z</time></trkpt><trkpt lat="45.6027267" lon="10.7962681"><ele>251.0</ele><time>2026-04-26T08:39:21.944Z</time></trkpt><trkpt lat="45.6027319" lon="10.7964413"><ele>251.0</ele><time>2026-04-26T08:39:22.943Z</time></trkpt><trkpt lat="45.6027414" lon="10.796615"><ele>251.0</ele><time>2026-04-26T08:39:23.943Z</time></trkpt><trkpt lat="45.6027594" lon="10.7967781"><ele>251.0</ele><time>2026-04-26T08:39:24.944Z</time></trkpt><trkpt lat="45.6027758" lon="10.7969257"><ele>251.0</ele><time>2026-04-26T08:39:25.943Z</time></trkpt><trkpt lat="45.6027948" lon="10.7970427"><ele>251.00000000000003</ele><time>2026-04-26T08:39:26.944Z</time></trkpt><trkpt lat="45.6028348" lon="10.7971395"><ele>251.00000000000003</ele><time>2026-04-26T08:39:27.944Z</time></trkpt><trkpt lat="45.6029047" lon="10.7972273"><ele>251.0</ele><time>2026-04-26T08:39:28.944Z</time></trkpt><trkpt lat="45.6029962" lon="10.7972976"><ele>251.0</ele><time>2026-04-26T08:39:29.943Z</time></trkpt><trkpt lat="45.6030938" lon="10.7973554"><ele>251.00000000000003</ele><time>2026-04-26T08:39:30.944Z</time></trkpt><trkpt lat="45.6031561" lon="10.7974264"><ele>251.0</ele><time>2026-04-26T08:39:31.943Z</time></trkpt><trkpt lat="45.6031885" lon="10.7975154"><ele>251.0</ele><time>2026-04-26T08:39:32.943Z</time></trkpt><trkpt lat="45.6031985" lon="10.7976306"><ele>251.0</ele><time>2026-04-26T08:39:33.944Z</time></trkpt><trkpt lat="45.6031909" lon="10.797764"><ele>251.00000000000003</ele><time>2026-04-26T08:39:34.944Z</time></trkpt><trkpt lat="45.6031911" lon="10.7978899"><ele>251.0</ele><time>2026-04-26T08:39:35.943Z</time></trkpt><trkpt lat="45.603214" lon="10.7980123"><ele>251.0</ele><time>2026-04-26T08:39:36.944Z</time></trkpt><trkpt lat="45.6032669" lon="10.7981115"><ele>251.0</ele><time>2026-04-26T08:39:37.944Z</time></trkpt><trkpt lat="45.6033614" lon="10.7981975"><ele>251.0</ele><time>2026-04-26T08:39:38.942Z</time></trkpt><trkpt lat="45.6034793" lon="10.7982642"><ele>251.0</ele><time>2026-04-26T08:39:39.944Z</time></trkpt><trkpt lat="45.6036088" lon="10.7983239"><ele>251.25</ele><time>2026-04-26T08:39:40.944Z</time></trkpt><trkpt lat="45.6037462" lon="10.7983877"><ele>251.5</ele><time>2026-04-26T08:39:41.944Z</time></trkpt><trkpt lat="45.6038866" lon="10.7984579"><ele>251.75</ele><time>2026-04-26T08:39:42.943Z</time></trkpt><trkpt lat="45.6040256" lon="10.7985361"><ele>252.0</ele><time>2026-04-26T08:39:43.944Z</time></trkpt><trkpt lat="45.604164" lon="10.7986186"><ele>252.0</ele><time>2026-04-26T08:39:44.944Z</time></trkpt><trkpt lat="45.6043036" lon="10.7987016"><ele>252.0</ele><time>2026-04-26T08:39:45.943Z</time></trkpt><trkpt lat="45.6044513" lon="10.7987846"><ele>252.0</ele><time>2026-04-26T08:39:46.944Z</time></trkpt><trkpt lat="45.6046061" lon="10.7988709"><ele>252.0</ele><time>2026-04-26T08:39:47.944Z</time></trkpt><trkpt lat="45.6047533" lon="10.7989541"><ele>252.0</ele><time>2026-04-26T08:39:48.943Z</time></trkpt><trkpt lat="45.6048852" lon="10.7990276"><ele>252.0</ele><time>2026-04-26T08:39:49.944Z</time></trkpt><trkpt lat="45.6050141" lon="10.7990977"><ele>252.0</ele><time>2026-04-26T08:39:50.943Z</time></trkpt><trkpt lat="45.6051333" lon="10.7991703"><ele>252.0</ele><time>2026-04-26T08:39:51.944Z</time></trkpt><trkpt lat="45.6052327" lon="10.7992384"><ele>252.0</ele><time>2026-04-26T08:39:52.944Z</time></trkpt><trkpt lat="45.6053232" lon="10.7993018"><ele>252.0</ele><time>2026-04-26T08:39:53.943Z</time></trkpt><trkpt lat="45.6054018" lon="10.7993719"><ele>252.0</ele><time>2026-04-26T08:39:54.944Z</time></trkpt><trkpt lat="45.6054575" lon="10.7994578"><ele>252.0</ele><time>2026-04-26T08:39:55.944Z</time></trkpt><trkpt lat="45.6054927" lon="10.7995591"><ele>254.25</ele><time>2026-04-26T08:39:56.943Z</time></trkpt><trkpt lat="45.605518" lon="10.7996967"><ele>256.5</ele><time>2026-04-26T08:39:57.944Z</time></trkpt><trkpt lat="45.6055239" lon="10.7998602"><ele>258.75</ele><time>2026-04-26T08:39:58.944Z</time></trkpt><trkpt lat="45.6055109" lon="10.8000399"><ele>261.0</ele><time>2026-04-26T08:39:59.942Z</time></trkpt><trkpt lat="45.6054847" lon="10.8002256"><ele>261.5</ele><time>2026-04-26T08:40:00.943Z</time></trkpt><trkpt lat="45.6054618" lon="10.800413"><ele>262.0</ele><time>2026-04-26T08:40:01.943Z</time></trkpt><trkpt lat="45.6054419" lon="10.8006156"><ele>262.5</ele><time>2026-04-26T08:40:02.943Z</time></trkpt><trkpt lat="45.6054212" lon="10.8008217"><ele>263.0</ele><time>2026-04-26T08:40:03.943Z</time></trkpt><trkpt lat="45.6054014" lon="10.8010218"><ele>264.25</ele><time>2026-04-26T08:40:04.944Z</time></trkpt><trkpt lat="45.6053819" lon="10.8012298"><ele>265.5</ele><time>2026-04-26T08:40:05.944Z</time></trkpt><trkpt lat="45.6053632" lon="10.8014365"><ele>266.75</ele><time>2026-04-26T08:40:06.944Z</time></trkpt><trkpt lat="45.6053447" lon="10.8016442"><ele>268.0</ele><time>2026-04-26T08:40:07.944Z</time></trkpt><trkpt lat="45.6053274" lon="10.801845"><ele>265.0</ele><time>2026-04-26T08:40:08.943Z</time></trkpt><trkpt lat="45.6053104" lon="10.8020411"><ele>262.0</ele><time>2026-04-26T08:40:09.944Z</time></trkpt><trkpt lat="45.6052835" lon="10.8022265"><ele>259.0</ele><time>2026-04-26T08:40:10.943Z</time></trkpt><trkpt lat="45.6052412" lon="10.8024032"><ele>256.0</ele><time>2026-04-26T08:40:11.943Z</time></trkpt><trkpt lat="45.6051992" lon="10.8025735"><ele>256.2</ele><time>2026-04-26T08:40:12.944Z</time></trkpt><trkpt lat="45.6051735" lon="10.8027312"><ele>256.40000000000003</ele><time>2026-04-26T08:40:13.943Z</time></trkpt><trkpt lat="45.6051709" lon="10.802891"><ele>256.6</ele><time>2026-04-26T08:40:14.943Z</time></trkpt><trkpt lat="45.6051932" lon="10.8030336"><ele>256.8</ele><time>2026-04-26T08:40:15.944Z</time></trkpt><trkpt lat="45.6052191" lon="10.8031643"><ele>257.0</ele><time>2026-04-26T08:40:16.943Z</time></trkpt><trkpt lat="45.6052334" lon="10.8032904"><ele>257.0</ele><time>2026-04-26T08:40:17.943Z</time></trkpt><trkpt lat="45.6052355" lon="10.8034068"><ele>257.0</ele><time>2026-04-26T08:40:18.944Z</time></trkpt><trkpt lat="45.6052302" lon="10.8035211"><ele>257.0</ele><time>2026-04-26T08:40:19.944Z</time></trkpt><trkpt lat="45.6052128" lon="10.8036659"><ele>257.0</ele><time>2026-04-26T08:40:20.944Z</time></trkpt><trkpt lat="45.6051924" lon="10.8038259"><ele>257.0</ele><time>2026-04-26T08:40:21.944Z</time></trkpt><trkpt lat="45.6051766" lon="10.8039965"><ele>257.75</ele><time>2026-04-26T08:40:22.944Z</time></trkpt><trkpt lat="45.605153" lon="10.8041703"><ele>258.5</ele><time>2026-04-26T08:40:23.944Z</time></trkpt><trkpt lat="45.6051338" lon="10.8043432"><ele>259.25</ele><time>2026-04-26T08:40:24.944Z</time></trkpt><trkpt lat="45.6051248" lon="10.8045065"><ele>260.0</ele><time>2026-04-26T08:40:25.944Z</time></trkpt><trkpt lat="45.6051226" lon="10.8046627"><ele>260.2</ele><time>2026-04-26T08:40:26.944Z</time></trkpt><trkpt lat="45.6051225" lon="10.8048045"><ele>260.4</ele><time>2026-04-26T08:40:27.944Z</time></trkpt><trkpt lat="45.605123" lon="10.8049217"><ele>260.6</ele><time>2026-04-26T08:40:28.943Z</time></trkpt><trkpt lat="45.6051347" lon="10.8050604"><ele>260.8</ele><time>2026-04-26T08:40:30.943Z</time></trkpt><trkpt lat="45.6051523" lon="10.8052038"><ele>261.0</ele><time>2026-04-26T08:40:32.944Z</time></trkpt><trkpt lat="45.6052399" lon="10.8053431"><ele>261.0</ele><time>2026-04-26T08:40:34.943Z</time></trkpt><trkpt lat="45.605311" lon="10.8054222"><ele>261.0</ele><time>2026-04-26T08:40:35.943Z</time></trkpt><trkpt lat="45.6053839" lon="10.8055107"><ele>261.0</ele><time>2026-04-26T08:40:36.944Z</time></trkpt><trkpt lat="45.6054591" lon="10.8056147"><ele>261.0</ele><time>2026-04-26T08:40:37.944Z</time></trkpt><trkpt lat="45.6055216" lon="10.8057402"><ele>261.0</ele><time>2026-04-26T08:40:38.944Z</time></trkpt><trkpt lat="45.6055689" lon="10.8058858"><ele>262.0</ele><time>2026-04-26T08:40:39.943Z</time></trkpt><trkpt lat="45.6056174" lon="10.8060367"><ele>263.0</ele><time>2026-04-26T08:40:40.944Z</time></trkpt><trkpt lat="45.6056626" lon="10.8061938"><ele>264.0</ele><time>2026-04-26T08:40:41.943Z</time></trkpt><trkpt lat="45.6057044" lon="10.8063549"><ele>265.0</ele><time>2026-04-26T08:40:42.943Z</time></trkpt><trkpt lat="45.6057462" lon="10.8065225"><ele>265.0</ele><time>2026-04-26T08:40:43.943Z</time></trkpt><trkpt lat="45.6057896" lon="10.8066917"><ele>265.0</ele><time>2026-04-26T08:40:44.944Z</time></trkpt><trkpt lat="45.6058319" lon="10.8068592"><ele>265.0</ele><time>2026-04-26T08:40:45.943Z</time></trkpt><trkpt lat="45.6058752" lon="10.8070321"><ele>265.0</ele><time>2026-04-26T08:40:46.943Z</time></trkpt><trkpt lat="45.6059192" lon="10.8072069"><ele>264.75</ele><time>2026-04-26T08:40:47.944Z</time></trkpt><trkpt lat="45.6059688" lon="10.8073869"><ele>264.5</ele><time>2026-04-26T08:40:48.943Z</time></trkpt><trkpt lat="45.6060183" lon="10.8075672"><ele>264.25</ele><time>2026-04-26T08:40:49.944Z</time></trkpt><trkpt lat="45.6060664" lon="10.8077436"><ele>264.0</ele><time>2026-04-26T08:40:50.943Z</time></trkpt><trkpt lat="45.6061145" lon="10.8079191"><ele>264.0</ele><time>2026-04-26T08:40:51.944Z</time></trkpt><trkpt lat="45.6061531" lon="10.8080839"><ele>264.0</ele><time>2026-04-26T08:40:52.944Z</time></trkpt><trkpt lat="45.6061811" lon="10.8082224"><ele>264.0</ele><time>2026-04-26T08:40:53.942Z</time></trkpt><trkpt lat="45.6062049" lon="10.8083463"><ele>264.0</ele><time>2026-04-26T08:40:54.943Z</time></trkpt><trkpt lat="45.606234" lon="10.8084543"><ele>264.0</ele><time>2026-04-26T08:40:55.943Z</time></trkpt><trkpt lat="45.6062674" lon="10.8085523"><ele>264.59999999999997</ele><time>2026-04-26T08:40:56.943Z</time></trkpt><trkpt lat="45.6063104" lon="10.8086413"><ele>265.2</ele><time>2026-04-26T08:40:57.944Z</time></trkpt><trkpt lat="45.6063864" lon="10.8087582"><ele>265.79999999999995</ele><time>2026-04-26T08:40:59.943Z</time></trkpt><trkpt lat="45.6064555" lon="10.808851"><ele>266.4</ele><time>2026-04-26T08:41:01.944Z</time></trkpt><trkpt lat="45.6065357" lon="10.8089717"><ele>267.0</ele><time>2026-04-26T08:41:03.943Z</time></trkpt><trkpt lat="45.6065851" lon="10.8090444"><ele>267.0</ele><time>2026-04-26T08:41:04.944Z</time></trkpt><trkpt lat="45.6066434" lon="10.8091167"><ele>267.0</ele><time>2026-04-26T08:41:05.944Z</time></trkpt><trkpt lat="45.6067069" lon="10.8091865"><ele>267.0</ele><time>2026-04-26T08:41:06.944Z</time></trkpt><trkpt lat="45.6067736" lon="10.8092624"><ele>267.0</ele><time>2026-04-26T08:41:07.944Z</time></trkpt><trkpt lat="45.6068389" lon="10.8093434"><ele>267.0</ele><time>2026-04-26T08:41:08.942Z</time></trkpt><trkpt lat="45.6068981" lon="10.8094283"><ele>267.0</ele><time>2026-04-26T08:41:09.943Z</time></trkpt><trkpt lat="45.6069423" lon="10.8095044"><ele>267.0</ele><time>2026-04-26T08:41:10.943Z</time></trkpt><trkpt lat="45.6070136" lon="10.8096148"><ele>267.0</ele><time>2026-04-26T08:41:12.943Z</time></trkpt><trkpt lat="45.6070586" lon="10.8096972"><ele>267.0</ele><time>2026-04-26T08:41:16.943Z</time></trkpt><trkpt lat="45.6070472" lon="10.8097981"><ele>267.0</ele><time>2026-04-26T08:41:20.943Z</time></trkpt><trkpt lat="45.6069866" lon="10.8098426"><ele>267.0</ele><time>2026-04-26T08:41:22.943Z</time></trkpt><trkpt lat="45.606915" lon="10.8098912"><ele>267.0</ele><time>2026-04-26T08:41:24.943Z</time></trkpt><trkpt lat="45.6068388" lon="10.8099384"><ele>267.0</ele><time>2026-04-26T08:41:26.943Z</time></trkpt><trkpt lat="45.6067504" lon="10.8099803"><ele>267.0</ele><time>2026-04-26T08:41:28.943Z</time></trkpt><trkpt lat="45.6066632" lon="10.810031"><ele>267.0</ele><time>2026-04-26T08:41:30.942Z</time></trkpt><trkpt lat="45.6065698" lon="10.8101112"><ele>267.0</ele><time>2026-04-26T08:41:32.943Z</time></trkpt><trkpt lat="45.6065059" lon="10.8102002"><ele>267.0</ele><time>2026-04-26T08:41:34.942Z</time></trkpt><trkpt lat="45.6064797" lon="10.8102836"><ele>267.0</ele><time>2026-04-26T08:41:36.943Z</time></trkpt><trkpt lat="45.6064389" lon="10.8103752"><ele>267.0</ele><time>2026-04-26T08:41:38.943Z</time></trkpt><trkpt lat="45.6063757" lon="10.8105059"><ele>267.0</ele><time>2026-04-26T08:41:40.943Z</time></trkpt><trkpt lat="45.6063401" lon="10.8105827"><ele>267.0</ele><time>2026-04-26T08:41:41.943Z</time></trkpt><trkpt lat="45.6063026" lon="10.8106646"><ele>267.0</ele><time>2026-04-26T08:41:42.942Z</time></trkpt><trkpt lat="45.6062587" lon="10.8107502"><ele>267.0</ele><time>2026-04-26T08:41:43.943Z</time></trkpt><trkpt lat="45.6062063" lon="10.8108432"><ele>267.0</ele><time>2026-04-26T08:41:44.943Z</time></trkpt><trkpt lat="45.6061479" lon="10.8109519"><ele>267.4</ele><time>2026-04-26T08:41:45.943Z</time></trkpt><trkpt lat="45.6060796" lon="10.8110679"><ele>267.79999999999995</ele><time>2026-04-26T08:41:46.943Z</time></trkpt><trkpt lat="45.6060079" lon="10.8111855"><ele>268.2</ele><time>2026-04-26T08:41:47.943Z</time></trkpt><trkpt lat="45.6059317" lon="10.8113079"><ele>268.59999999999997</ele><time>2026-04-26T08:41:48.943Z</time></trkpt><trkpt lat="45.6058515" lon="10.8114248"><ele>269.0</ele><time>2026-04-26T08:41:49.942Z</time></trkpt><trkpt lat="45.6057793" lon="10.8115411"><ele>269.0</ele><time>2026-04-26T08:41:50.942Z</time></trkpt><trkpt lat="45.6057191" lon="10.8116526"><ele>269.0</ele><time>2026-04-26T08:41:51.943Z</time></trkpt><trkpt lat="45.6056764" lon="10.8117666"><ele>269.0</ele><time>2026-04-26T08:41:52.942Z</time></trkpt><trkpt lat="45.6056493" lon="10.8118938"><ele>269.0</ele><time>2026-04-26T08:41:53.942Z</time></trkpt><trkpt lat="45.6056234" lon="10.8120386"><ele>269.0</ele><time>2026-04-26T08:41:54.942Z</time></trkpt><trkpt lat="45.6055962" lon="10.8121734"><ele>269.2</ele><time>2026-04-26T08:41:55.943Z</time></trkpt><trkpt lat="45.6055683" lon="10.8122823"><ele>269.4</ele><time>2026-04-26T08:41:56.942Z</time></trkpt><trkpt lat="45.6055397" lon="10.8124035"><ele>269.6</ele><time>2026-04-26T08:41:58.942Z</time></trkpt><trkpt lat="45.6054695" lon="10.8125265"><ele>269.8</ele><time>2026-04-26T08:42:00.942Z</time></trkpt><trkpt lat="45.6053856" lon="10.8126361"><ele>270.0</ele><time>2026-04-26T08:42:02.943Z</time></trkpt><trkpt lat="45.6053337" lon="10.8127297"><ele>269.6</ele><time>2026-04-26T08:42:03.943Z</time></trkpt><trkpt lat="45.6052917" lon="10.8128417"><ele>269.2</ele><time>2026-04-26T08:42:04.943Z</time></trkpt><trkpt lat="45.6052434" lon="10.8129734"><ele>268.8</ele><time>2026-04-26T08:42:05.943Z</time></trkpt><trkpt lat="45.6052006" lon="10.8130934"><ele>268.4</ele><time>2026-04-26T08:42:06.942Z</time></trkpt><trkpt lat="45.6051598" lon="10.8132204"><ele>268.0</ele><time>2026-04-26T08:42:07.943Z</time></trkpt><trkpt lat="45.6051123" lon="10.8133655"><ele>268.0</ele><time>2026-04-26T08:42:08.943Z</time></trkpt><trkpt lat="45.6050657" lon="10.8135165"><ele>268.0</ele><time>2026-04-26T08:42:09.942Z</time></trkpt><trkpt lat="45.6050221" lon="10.8136778"><ele>268.0</ele><time>2026-04-26T08:42:10.943Z</time></trkpt><trkpt lat="45.6049788" lon="10.8138394"><ele>268.0</ele><time>2026-04-26T08:42:11.943Z</time></trkpt><trkpt lat="45.6049318" lon="10.8140089"><ele>268.0</ele><time>2026-04-26T08:42:12.943Z</time></trkpt><trkpt lat="45.6048906" lon="10.8141789"><ele>268.0</ele><time>2026-04-26T08:42:13.942Z</time></trkpt><trkpt lat="45.604849" lon="10.8143446"><ele>268.0</ele><time>2026-04-26T08:42:14.943Z</time></trkpt><trkpt lat="45.6048101" lon="10.8145081"><ele>268.0</ele><time>2026-04-26T08:42:15.943Z</time></trkpt><trkpt lat="45.6047783" lon="10.8146771"><ele>268.25</ele><time>2026-04-26T08:42:16.942Z</time></trkpt><trkpt lat="45.6047422" lon="10.8148443"><ele>268.5</ele><time>2026-04-26T08:42:17.943Z</time></trkpt><trkpt lat="45.6047095" lon="10.8150108"><ele>268.75</ele><time>2026-04-26T08:42:18.943Z</time></trkpt><trkpt lat="45.6046815" lon="10.8151768"><ele>269.0</ele><time>2026-04-26T08:42:19.943Z</time></trkpt><trkpt lat="45.6046588" lon="10.8153335"><ele>269.0</ele><time>2026-04-26T08:42:20.943Z</time></trkpt><trkpt lat="45.6046441" lon="10.8154743"><ele>269.0</ele><time>2026-04-26T08:42:21.943Z</time></trkpt><trkpt lat="45.6046384" lon="10.8155965"><ele>269.0</ele><time>2026-04-26T08:42:22.943Z</time></trkpt><trkpt lat="45.6046333" lon="10.81569"><ele>269.0</ele><time>2026-04-26T08:42:23.943Z</time></trkpt><trkpt lat="45.6046292" lon="10.8158114"><ele>269.0</ele><time>2026-04-26T08:42:25.942Z</time></trkpt><trkpt lat="45.6046466" lon="10.8159074"><ele>269.0</ele><time>2026-04-26T08:42:28.943Z</time></trkpt><trkpt lat="45.6046804" lon="10.8160036"><ele>269.0</ele><time>2026-04-26T08:42:30.942Z</time></trkpt><trkpt lat="45.6046713" lon="10.8161708"><ele>269.0</ele><time>2026-04-26T08:42:32.943Z</time></trkpt><trkpt lat="45.604665" lon="10.8162762"><ele>269.0</ele><time>2026-04-26T08:42:33.942Z</time></trkpt><trkpt lat="45.6046628" lon="10.8164023"><ele>269.0</ele><time>2026-04-26T08:42:34.942Z</time></trkpt><trkpt lat="45.6046606" lon="10.816537"><ele>269.0</ele><time>2026-04-26T08:42:35.943Z</time></trkpt><trkpt lat="45.6046603" lon="10.8166802"><ele>270.0</ele><time>2026-04-26T08:42:36.943Z</time></trkpt><trkpt lat="45.6046698" lon="10.8168343"><ele>271.0</ele><time>2026-04-26T08:42:37.943Z</time></trkpt><trkpt lat="45.6046918" lon="10.8169907"><ele>272.0</ele><time>2026-04-26T08:42:38.943Z</time></trkpt><trkpt lat="45.6047231" lon="10.8171595"><ele>273.0</ele><time>2026-04-26T08:42:39.943Z</time></trkpt><trkpt lat="45.6047622" lon="10.8173249"><ele>273.0</ele><time>2026-04-26T08:42:40.943Z</time></trkpt><trkpt lat="45.6047879" lon="10.8174915"><ele>273.0</ele><time>2026-04-26T08:42:41.943Z</time></trkpt><trkpt lat="45.6047842" lon="10.8176458"><ele>273.0</ele><time>2026-04-26T08:42:42.943Z</time></trkpt><trkpt lat="45.6047573" lon="10.8178097"><ele>273.0</ele><time>2026-04-26T08:42:43.942Z</time></trkpt><trkpt lat="45.6046985" lon="10.8179901"><ele>273.25</ele><time>2026-04-26T08:42:44.943Z</time></trkpt><trkpt lat="45.6046233" lon="10.8181656"><ele>273.5</ele><time>2026-04-26T08:42:45.942Z</time></trkpt><trkpt lat="45.6045485" lon="10.8183422"><ele>273.75</ele><time>2026-04-26T08:42:46.942Z</time></trkpt><trkpt lat="45.6044943" lon="10.8185069"><ele>274.0</ele><time>2026-04-26T08:42:47.943Z</time></trkpt><trkpt lat="45.6044533" lon="10.8186481"><ele>273.4</ele><time>2026-04-26T08:42:48.941Z</time></trkpt><trkpt lat="45.6044271" lon="10.8187795"><ele>272.79999999999995</ele><time>2026-04-26T08:42:49.943Z</time></trkpt><trkpt lat="45.6044171" lon="10.8189058"><ele>272.20000000000005</ele><time>2026-04-26T08:42:50.942Z</time></trkpt><trkpt lat="45.6044143" lon="10.8190384"><ele>271.6</ele><time>2026-04-26T08:42:51.943Z</time></trkpt><trkpt lat="45.6044145" lon="10.8191651"><ele>271.0</ele><time>2026-04-26T08:42:52.942Z</time></trkpt><trkpt lat="45.6044293" lon="10.8193076"><ele>271.5</ele><time>2026-04-26T08:42:53.943Z</time></trkpt><trkpt lat="45.604463" lon="10.8194626"><ele>272.0</ele><time>2026-04-26T08:42:54.942Z</time></trkpt><trkpt lat="45.6045031" lon="10.8196355"><ele>272.5</ele><time>2026-04-26T08:42:55.943Z</time></trkpt><trkpt lat="45.6045154" lon="10.8198036"><ele>273.0</ele><time>2026-04-26T08:42:56.943Z</time></trkpt><trkpt lat="45.6045096" lon="10.8199975"><ele>274.0</ele><time>2026-04-26T08:42:57.941Z</time></trkpt><trkpt lat="45.6044782" lon="10.8202062"><ele>275.0</ele><time>2026-04-26T08:42:58.943Z</time></trkpt><trkpt lat="45.6044422" lon="10.8203825"><ele>276.0</ele><time>2026-04-26T08:42:59.942Z</time></trkpt><trkpt lat="45.6044153" lon="10.8205355"><ele>277.0</ele><time>2026-04-26T08:43:00.943Z</time></trkpt><trkpt lat="45.6043915" lon="10.8206675"><ele>277.0</ele><time>2026-04-26T08:43:01.942Z</time></trkpt><trkpt lat="45.6043708" lon="10.8207754"><ele>277.0</ele><time>2026-04-26T08:43:02.943Z</time></trkpt><trkpt lat="45.6043502" lon="10.8208957"><ele>277.0</ele><time>2026-04-26T08:43:04.943Z</time></trkpt><trkpt lat="45.6042751" lon="10.8209631"><ele>277.0</ele><time>2026-04-26T08:43:07.941Z</time></trkpt><trkpt lat="45.6041585" lon="10.8210127"><ele>277.0</ele><time>2026-04-26T08:43:09.943Z</time></trkpt><trkpt lat="45.6040854" lon="10.8210376"><ele>276.5</ele><time>2026-04-26T08:43:10.942Z</time></trkpt><trkpt lat="45.6040039" lon="10.82106"><ele>276.0</ele><time>2026-04-26T08:43:11.943Z</time></trkpt><trkpt lat="45.6039223" lon="10.8210894"><ele>275.5</ele><time>2026-04-26T08:43:12.943Z</time></trkpt><trkpt lat="45.6038438" lon="10.8211159"><ele>275.0</ele><time>2026-04-26T08:43:13.942Z</time></trkpt><trkpt lat="45.6037778" lon="10.8211395"><ele>274.5</ele><time>2026-04-26T08:43:14.943Z</time></trkpt><trkpt lat="45.6036638" lon="10.8211794"><ele>274.0</ele><time>2026-04-26T08:43:16.942Z</time></trkpt><trkpt lat="45.6035664" lon="10.8212167"><ele>274.0</ele><time>2026-04-26T08:43:18.943Z</time></trkpt><trkpt lat="45.6034424" lon="10.8212579"><ele>274.0</ele><time>2026-04-26T08:43:20.942Z</time></trkpt><trkpt lat="45.6033736" lon="10.8212808"><ele>274.0</ele><time>2026-04-26T08:43:21.943Z</time></trkpt><trkpt lat="45.6033055" lon="10.8213056"><ele>274.0</ele><time>2026-04-26T08:43:22.942Z</time></trkpt><trkpt lat="45.6032377" lon="10.8213315"><ele>274.0</ele><time>2026-04-26T08:43:23.942Z</time></trkpt><trkpt lat="45.6031721" lon="10.8213578"><ele>274.0</ele><time>2026-04-26T08:43:24.943Z</time></trkpt><trkpt lat="45.603105" lon="10.8213802"><ele>274.0</ele><time>2026-04-26T08:43:25.943Z</time></trkpt><trkpt lat="45.6029964" lon="10.8214139"><ele>274.0</ele><time>2026-04-26T08:43:27.942Z</time></trkpt><trkpt lat="45.6029232" lon="10.8214405"><ele>274.0</ele><time>2026-04-26T08:43:29.943Z</time></trkpt><trkpt lat="45.6029014" lon="10.8215306"><ele>274.0</ele><time>2026-04-26T08:43:32.941Z</time></trkpt><trkpt lat="45.602957" lon="10.8216331"><ele>274.0</ele><time>2026-04-26T08:43:34.943Z</time></trkpt><trkpt lat="45.6030168" lon="10.821756"><ele>274.0</ele><time>2026-04-26T08:43:36.942Z</time></trkpt><trkpt lat="45.6030832" lon="10.8218751"><ele>274.8</ele><time>2026-04-26T08:43:38.943Z</time></trkpt><trkpt lat="45.6031388" lon="10.8220141"><ele>275.59999999999997</ele><time>2026-04-26T08:43:40.943Z</time></trkpt><trkpt lat="45.6031627" lon="10.8221782"><ele>276.4</ele><time>2026-04-26T08:43:42.943Z</time></trkpt><trkpt lat="45.6031633" lon="10.8222733"><ele>277.2</ele><time>2026-04-26T08:43:44.942Z</time></trkpt><trkpt lat="45.6031824" lon="10.8224132"><ele>278.0</ele><time>2026-04-26T08:43:47.943Z</time></trkpt><trkpt lat="45.603223" lon="10.8225492"><ele>278.83333333333337</ele><time>2026-04-26T08:43:49.943Z</time></trkpt><trkpt lat="45.6032515" lon="10.8226512"><ele>279.6666666666667</ele><time>2026-04-26T08:43:50.942Z</time></trkpt><trkpt lat="45.603281" lon="10.8227694"><ele>280.5</ele><time>2026-04-26T08:43:51.943Z</time></trkpt><trkpt lat="45.6033101" lon="10.8229006"><ele>281.3333333333333</ele><time>2026-04-26T08:43:52.943Z</time></trkpt><trkpt lat="45.6033294" lon="10.8230105"><ele>282.16666666666663</ele><time>2026-04-26T08:43:53.942Z</time></trkpt><trkpt lat="45.6033493" lon="10.8231089"><ele>283.0</ele><time>2026-04-26T08:43:54.943Z</time></trkpt><trkpt lat="45.6033758" lon="10.8232445"><ele>283.0</ele><time>2026-04-26T08:43:56.942Z</time></trkpt><trkpt lat="45.6033617" lon="10.8231546"><ele>283.0</ele><time>2026-04-26T08:44:01.942Z</time></trkpt><trkpt lat="45.603316" lon="10.8229963"><ele>283.0</ele><time>2026-04-26T08:44:03.942Z</time></trkpt><trkpt lat="45.6032979" lon="10.8228866"><ele>283.0</ele><time>2026-04-26T08:44:05.942Z</time></trkpt><trkpt lat="45.6032728" lon="10.8227893"><ele>283.0</ele><time>2026-04-26T08:44:07.943Z</time></trkpt><trkpt lat="45.6032571" lon="10.8226594"><ele>283.0</ele><time>2026-04-26T08:44:09.943Z</time></trkpt><trkpt lat="45.603215" lon="10.8225129"><ele>282.16666666666663</ele><time>2026-04-26T08:44:11.943Z</time></trkpt><trkpt lat="45.6031861" lon="10.8224184"><ele>281.3333333333333</ele><time>2026-04-26T08:44:13.942Z</time></trkpt><trkpt lat="45.6031557" lon="10.8223336"><ele>280.5</ele><time>2026-04-26T08:44:15.943Z</time></trkpt><trkpt lat="45.6030402" lon="10.8223329"><ele>279.6666666666667</ele><time>2026-04-26T08:44:18.942Z</time></trkpt><trkpt lat="45.602965" lon="10.8223822"><ele>278.83333333333337</ele><time>2026-04-26T08:44:19.943Z</time></trkpt><trkpt lat="45.6028737" lon="10.8224242"><ele>278.0</ele><time>2026-04-26T08:44:20.943Z</time></trkpt><trkpt lat="45.6027699" lon="10.822476"><ele>277.5</ele><time>2026-04-26T08:44:21.942Z</time></trkpt><trkpt lat="45.6026619" lon="10.822532"><ele>277.0</ele><time>2026-04-26T08:44:22.943Z</time></trkpt><trkpt lat="45.6025548" lon="10.8226025"><ele>276.5</ele><time>2026-04-26T08:44:23.943Z</time></trkpt><trkpt lat="45.602453" lon="10.8226787"><ele>276.0</ele><time>2026-04-26T08:44:24.943Z</time></trkpt><trkpt lat="45.6023519" lon="10.8227519"><ele>276.8</ele><time>2026-04-26T08:44:25.943Z</time></trkpt><trkpt lat="45.6022544" lon="10.8228259"><ele>277.6</ele><time>2026-04-26T08:44:26.943Z</time></trkpt><trkpt lat="45.6021563" lon="10.8228966"><ele>278.4</ele><time>2026-04-26T08:44:27.942Z</time></trkpt><trkpt lat="45.6020581" lon="10.8229706"><ele>279.2</ele><time>2026-04-26T08:44:28.943Z</time></trkpt><trkpt lat="45.6019769" lon="10.8230335"><ele>280.0</ele><time>2026-04-26T08:44:29.942Z</time></trkpt><trkpt lat="45.6018924" lon="10.8230935"><ele>280.0</ele><time>2026-04-26T08:44:30.943Z</time></trkpt><trkpt lat="45.6018121" lon="10.823154"><ele>280.0</ele><time>2026-04-26T08:44:31.943Z</time></trkpt><trkpt lat="45.6017289" lon="10.8232217"><ele>280.0</ele><time>2026-04-26T08:44:33.943Z</time></trkpt><trkpt lat="45.6016782" lon="10.8232803"><ele>280.0</ele><time>2026-04-26T08:44:41.943Z</time></trkpt><trkpt lat="45.6016058" lon="10.823379"><ele>280.0</ele><time>2026-04-26T08:44:43.943Z</time></trkpt><trkpt lat="45.6015553" lon="10.8234615"><ele>280.0</ele><time>2026-04-26T08:44:44.943Z</time></trkpt><trkpt lat="45.6014848" lon="10.8235556"><ele>282.0</ele><time>2026-04-26T08:44:46.943Z</time></trkpt><trkpt lat="45.6013831" lon="10.8236351"><ele>284.0</ele><time>2026-04-26T08:44:48.943Z</time></trkpt><trkpt lat="45.6012873" lon="10.8237193"><ele>286.0</ele><time>2026-04-26T08:44:50.943Z</time></trkpt><trkpt lat="45.6011729" lon="10.8237937"><ele>288.0</ele><time>2026-04-26T08:44:52.942Z</time></trkpt><trkpt lat="45.6011098" lon="10.8238324"><ele>290.0</ele><time>2026-04-26T08:44:53.943Z</time></trkpt><trkpt lat="45.6010477" lon="10.823861"><ele>290.1666666666667</ele><time>2026-04-26T08:44:54.943Z</time></trkpt><trkpt lat="45.6009292" lon="10.8239273"><ele>290.33333333333337</ele><time>2026-04-26T08:44:56.942Z</time></trkpt><trkpt lat="45.6008677" lon="10.8239604"><ele>290.5</ele><time>2026-04-26T08:44:57.943Z</time></trkpt><trkpt lat="45.6008055" lon="10.8240018"><ele>290.6666666666667</ele><time>2026-04-26T08:44:58.941Z</time></trkpt><trkpt lat="45.6007446" lon="10.8240327"><ele>290.8333333333333</ele><time>2026-04-26T08:44:59.943Z</time></trkpt><trkpt lat="45.6006731" lon="10.8240551"><ele>291.0</ele><time>2026-04-26T08:45:01.942Z</time></trkpt><trkpt lat="45.600585" lon="10.8240173"><ele>291.0</ele><time>2026-04-26T08:45:03.943Z</time></trkpt><trkpt lat="45.6005282" lon="10.8239736"><ele>291.0</ele><time>2026-04-26T08:45:04.943Z</time></trkpt><trkpt lat="45.6004586" lon="10.8239219"><ele>291.0</ele><time>2026-04-26T08:45:05.942Z</time></trkpt><trkpt lat="45.6003843" lon="10.8238741"><ele>291.0</ele><time>2026-04-26T08:45:06.943Z</time></trkpt><trkpt lat="45.6003025" lon="10.823821"><ele>291.0</ele><time>2026-04-26T08:45:07.943Z</time></trkpt><trkpt lat="45.6002199" lon="10.8237654"><ele>291.0</ele><time>2026-04-26T08:45:08.943Z</time></trkpt><trkpt lat="45.6001347" lon="10.8237117"><ele>291.40000000000003</ele><time>2026-04-26T08:45:09.942Z</time></trkpt><trkpt lat="45.6000466" lon="10.8236559"><ele>291.8</ele><time>2026-04-26T08:45:10.943Z</time></trkpt><trkpt lat="45.599961" lon="10.8236061"><ele>292.20000000000005</ele><time>2026-04-26T08:45:11.943Z</time></trkpt><trkpt lat="45.5998789" lon="10.8235558"><ele>292.6</ele><time>2026-04-26T08:45:12.943Z</time></trkpt><trkpt lat="45.5997938" lon="10.8235011"><ele>293.0</ele><time>2026-04-26T08:45:13.943Z</time></trkpt><trkpt lat="45.5997142" lon="10.8234439"><ele>291.83333333333337</ele><time>2026-04-26T08:45:14.942Z</time></trkpt><trkpt lat="45.599648" lon="10.8233817"><ele>290.6666666666667</ele><time>2026-04-26T08:45:15.943Z</time></trkpt><trkpt lat="45.5995849" lon="10.823326"><ele>289.5</ele><time>2026-04-26T08:45:16.943Z</time></trkpt><trkpt lat="45.5995179" lon="10.8232907"><ele>288.3333333333333</ele><time>2026-04-26T08:45:17.943Z</time></trkpt><trkpt lat="45.5994507" lon="10.8232691"><ele>287.16666666666663</ele><time>2026-04-26T08:45:18.943Z</time></trkpt><trkpt lat="45.5993731" lon="10.8232596"><ele>286.0</ele><time>2026-04-26T08:45:19.943Z</time></trkpt><trkpt lat="45.5992866" lon="10.8232372"><ele>286.0</ele><time>2026-04-26T08:45:20.942Z</time></trkpt><trkpt lat="45.5992095" lon="10.82322"><ele>286.0</ele><time>2026-04-26T08:45:21.943Z</time></trkpt><trkpt lat="45.5991292" lon="10.8232034"><ele>286.0</ele><time>2026-04-26T08:45:22.943Z</time></trkpt><trkpt lat="45.5990438" lon="10.8231794"><ele>286.0</ele><time>2026-04-26T08:45:23.943Z</time></trkpt><trkpt lat="45.5989602" lon="10.8231567"><ele>286.0</ele><time>2026-04-26T08:45:24.943Z</time></trkpt><trkpt lat="45.5988727" lon="10.8231282"><ele>286.0</ele><time>2026-04-26T08:45:25.943Z</time></trkpt><trkpt lat="45.5987853" lon="10.8231031"><ele>286.0</ele><time>2026-04-26T08:45:26.942Z</time></trkpt><trkpt lat="45.5986965" lon="10.8230766"><ele>286.0</ele><time>2026-04-26T08:45:27.943Z</time></trkpt><trkpt lat="45.5986098" lon="10.8230429"><ele>286.0</ele><time>2026-04-26T08:45:28.943Z</time></trkpt><trkpt lat="45.5985203" lon="10.8230107"><ele>286.0</ele><time>2026-04-26T08:45:29.943Z</time></trkpt><trkpt lat="45.5984398" lon="10.8229714"><ele>286.0</ele><time>2026-04-26T08:45:30.942Z</time></trkpt><trkpt lat="45.5983544" lon="10.8229454"><ele>286.0</ele><time>2026-04-26T08:45:31.943Z</time></trkpt><trkpt lat="45.5982612" lon="10.8229282"><ele>286.6</ele><time>2026-04-26T08:45:32.942Z</time></trkpt><trkpt lat="45.5981735" lon="10.822907"><ele>287.20000000000005</ele><time>2026-04-26T08:45:33.943Z</time></trkpt><trkpt lat="45.5980845" lon="10.8228868"><ele>287.79999999999995</ele><time>2026-04-26T08:45:34.942Z</time></trkpt><trkpt lat="45.5979931" lon="10.8228719"><ele>288.4</ele><time>2026-04-26T08:45:35.943Z</time></trkpt><trkpt lat="45.5978972" lon="10.8228553"><ele>289.0</ele><time>2026-04-26T08:45:36.943Z</time></trkpt><trkpt lat="45.5978026" lon="10.8228289"><ele>287.8</ele><time>2026-04-26T08:45:37.943Z</time></trkpt><trkpt lat="45.5977098" lon="10.8227966"><ele>286.59999999999997</ele><time>2026-04-26T08:45:38.943Z</time></trkpt><trkpt lat="45.5976168" lon="10.8227593"><ele>285.4</ele><time>2026-04-26T08:45:39.943Z</time></trkpt><trkpt lat="45.5975221" lon="10.8227191"><ele>284.2</ele><time>2026-04-26T08:45:40.943Z</time></trkpt><trkpt lat="45.5974303" lon="10.8226767"><ele>283.0</ele><time>2026-04-26T08:45:41.943Z</time></trkpt><trkpt lat="45.5973393" lon="10.822636"><ele>281.3333333333333</ele><time>2026-04-26T08:45:42.942Z</time></trkpt><trkpt lat="45.5972483" lon="10.8225964"><ele>279.66666666666663</ele><time>2026-04-26T08:45:43.943Z</time></trkpt><trkpt lat="45.5971623" lon="10.8225556"><ele>278.0</ele><time>2026-04-26T08:45:44.943Z</time></trkpt><trkpt lat="45.597082" lon="10.8225103"><ele>276.3333333333333</ele><time>2026-04-26T08:45:45.943Z</time></trkpt><trkpt lat="45.597015" lon="10.8224527"><ele>274.6666666666667</ele><time>2026-04-26T08:45:46.943Z</time></trkpt><trkpt lat="45.596966" lon="10.8223677"><ele>273.0</ele><time>2026-04-26T08:45:47.942Z</time></trkpt><trkpt lat="45.5969126" lon="10.8222818"><ele>273.0</ele><time>2026-04-26T08:45:48.943Z</time></trkpt><trkpt lat="45.596865" lon="10.8222102"><ele>273.0</ele><time>2026-04-26T08:45:49.942Z</time></trkpt><trkpt lat="45.5968239" lon="10.822136"><ele>273.0</ele><time>2026-04-26T08:45:50.943Z</time></trkpt><trkpt lat="45.5967786" lon="10.8220552"><ele>273.0</ele><time>2026-04-26T08:45:52.942Z</time></trkpt><trkpt lat="45.5966828" lon="10.8221007"><ele>273.0</ele><time>2026-04-26T08:45:56.942Z</time></trkpt><trkpt lat="45.5966216" lon="10.8221561"><ele>273.0</ele><time>2026-04-26T08:45:57.943Z</time></trkpt><trkpt lat="45.5965633" lon="10.8222196"><ele>273.0</ele><time>2026-04-26T08:45:58.942Z</time></trkpt><trkpt lat="45.5965006" lon="10.8222618"><ele>273.0</ele><time>2026-04-26T08:45:59.943Z</time></trkpt><trkpt lat="45.5964057" lon="10.8223411"><ele>273.0</ele><time>2026-04-26T08:46:01.942Z</time></trkpt><trkpt lat="45.596343" lon="10.8223804"><ele>273.0</ele><time>2026-04-26T08:46:02.943Z</time></trkpt><trkpt lat="45.5962305" lon="10.8224617"><ele>273.0</ele><time>2026-04-26T08:46:04.943Z</time></trkpt><trkpt lat="45.5961654" lon="10.8225131"><ele>273.0</ele><time>2026-04-26T08:46:05.943Z</time></trkpt><trkpt lat="45.5960816" lon="10.8225623"><ele>273.6666666666667</ele><time>2026-04-26T08:46:06.943Z</time></trkpt><trkpt lat="45.595996" lon="10.8226195"><ele>274.3333333333333</ele><time>2026-04-26T08:46:07.943Z</time></trkpt><trkpt lat="45.5959112" lon="10.8226826"><ele>275.0</ele><time>2026-04-26T08:46:08.943Z</time></trkpt><trkpt lat="45.5958306" lon="10.8227469"><ele>275.66666666666663</ele><time>2026-04-26T08:46:09.943Z</time></trkpt><trkpt lat="45.5957739" lon="10.8228187"><ele>276.3333333333333</ele><time>2026-04-26T08:46:10.943Z</time></trkpt><trkpt lat="45.5957021" lon="10.8228825"><ele>277.0</ele><time>2026-04-26T08:46:11.943Z</time></trkpt><trkpt lat="45.5956417" lon="10.8229565"><ele>277.0</ele><time>2026-04-26T08:46:12.943Z</time></trkpt><trkpt lat="45.5955837" lon="10.8230372"><ele>277.0</ele><time>2026-04-26T08:46:13.943Z</time></trkpt><trkpt lat="45.5955204" lon="10.8231232"><ele>277.0</ele><time>2026-04-26T08:46:14.943Z</time></trkpt><trkpt lat="45.5954609" lon="10.8232184"><ele>277.0</ele><time>2026-04-26T08:46:15.943Z</time></trkpt><trkpt lat="45.5954103" lon="10.8233103"><ele>277.0</ele><time>2026-04-26T08:46:16.943Z</time></trkpt><trkpt lat="45.5953679" lon="10.8233965"><ele>277.0</ele><time>2026-04-26T08:46:17.943Z</time></trkpt><trkpt lat="45.5952839" lon="10.8235498"><ele>276.42857142857144</ele><time>2026-04-26T08:46:19.942Z</time></trkpt><trkpt lat="45.5952372" lon="10.823644"><ele>275.85714285714283</ele><time>2026-04-26T08:46:20.942Z</time></trkpt><trkpt lat="45.595179" lon="10.8237143"><ele>275.2857142857143</ele><time>2026-04-26T08:46:21.942Z</time></trkpt><trkpt lat="45.5951303" lon="10.8237791"><ele>274.7142857142857</ele><time>2026-04-26T08:46:22.943Z</time></trkpt><trkpt lat="45.5950749" lon="10.8238461"><ele>274.1428571428571</ele><time>2026-04-26T08:46:23.944Z</time></trkpt><trkpt lat="45.5950278" lon="10.8239145"><ele>273.57142857142856</ele><time>2026-04-26T08:46:24.943Z</time></trkpt><trkpt lat="45.5949834" lon="10.8239818"><ele>273.0</ele><time>2026-04-26T08:46:25.943Z</time></trkpt><trkpt lat="45.594892" lon="10.8240967"><ele>273.0</ele><time>2026-04-26T08:46:27.943Z</time></trkpt><trkpt lat="45.5948343" lon="10.8241472"><ele>273.0</ele><time>2026-04-26T08:46:28.943Z</time></trkpt><trkpt lat="45.5947698" lon="10.8241856"><ele>273.0</ele><time>2026-04-26T08:46:29.943Z</time></trkpt><trkpt lat="45.5947" lon="10.8242075"><ele>273.0</ele><time>2026-04-26T08:46:30.943Z</time></trkpt><trkpt lat="45.5946279" lon="10.8242176"><ele>273.0</ele><time>2026-04-26T08:46:31.942Z</time></trkpt><trkpt lat="45.5945186" lon="10.8242799"><ele>273.0</ele><time>2026-04-26T08:46:33.942Z</time></trkpt><trkpt lat="45.5944518" lon="10.8242776"><ele>272.0</ele><time>2026-04-26T08:46:34.942Z</time></trkpt><trkpt lat="45.5943636" lon="10.8242555"><ele>271.0</ele><time>2026-04-26T08:46:35.943Z</time></trkpt><trkpt lat="45.5942755" lon="10.8242314"><ele>270.0</ele><time>2026-04-26T08:46:36.942Z</time></trkpt><trkpt lat="45.5941922" lon="10.8241876"><ele>269.0</ele><time>2026-04-26T08:46:37.943Z</time></trkpt><trkpt lat="45.5941179" lon="10.8241319"><ele>268.0</ele><time>2026-04-26T08:46:38.943Z</time></trkpt><trkpt lat="45.5940582" lon="10.8240833"><ele>267.0</ele><time>2026-04-26T08:46:39.943Z</time></trkpt><trkpt lat="45.5940037" lon="10.8240277"><ele>267.0</ele><time>2026-04-26T08:46:40.942Z</time></trkpt><trkpt lat="45.5939562" lon="10.8239577"><ele>267.0</ele><time>2026-04-26T08:46:41.943Z</time></trkpt><trkpt lat="45.5939148" lon="10.8238853"><ele>267.0</ele><time>2026-04-26T08:46:42.943Z</time></trkpt><trkpt lat="45.593861" lon="10.8238108"><ele>267.0</ele><time>2026-04-26T08:46:43.943Z</time></trkpt><trkpt lat="45.5937911" lon="10.8237322"><ele>267.0</ele><time>2026-04-26T08:46:44.943Z</time></trkpt><trkpt lat="45.59371" lon="10.823659"><ele>267.0</ele><time>2026-04-26T08:46:45.942Z</time></trkpt><trkpt lat="45.5936244" lon="10.8235984"><ele>267.6</ele><time>2026-04-26T08:46:46.942Z</time></trkpt><trkpt lat="45.5935392" lon="10.823536"><ele>268.2</ele><time>2026-04-26T08:46:47.942Z</time></trkpt><trkpt lat="45.5934499" lon="10.823471"><ele>268.8</ele><time>2026-04-26T08:46:48.943Z</time></trkpt><trkpt lat="45.5933537" lon="10.8234099"><ele>269.4</ele><time>2026-04-26T08:46:49.943Z</time></trkpt><trkpt lat="45.5932582" lon="10.8233525"><ele>270.0</ele><time>2026-04-26T08:46:50.943Z</time></trkpt><trkpt lat="45.5931803" lon="10.823301"><ele>267.5</ele><time>2026-04-26T08:46:51.943Z</time></trkpt><trkpt lat="45.5931114" lon="10.82325"><ele>265.0</ele><time>2026-04-26T08:46:52.943Z</time></trkpt><trkpt lat="45.593027" lon="10.823206"><ele>262.5</ele><time>2026-04-26T08:46:53.943Z</time></trkpt><trkpt lat="45.5929313" lon="10.8231811"><ele>260.0</ele><time>2026-04-26T08:46:54.943Z</time></trkpt><trkpt lat="45.5928372" lon="10.8231788"><ele>257.5</ele><time>2026-04-26T08:46:55.942Z</time></trkpt><trkpt lat="45.5927513" lon="10.823176"><ele>255.0</ele><time>2026-04-26T08:46:56.943Z</time></trkpt><trkpt lat="45.5926815" lon="10.8231462"><ele>255.0</ele><time>2026-04-26T08:46:57.943Z</time></trkpt><trkpt lat="45.5926173" lon="10.8230879"><ele>255.0</ele><time>2026-04-26T08:46:58.942Z</time></trkpt><trkpt lat="45.5925639" lon="10.8230381"><ele>255.0</ele><time>2026-04-26T08:46:59.942Z</time></trkpt><trkpt lat="45.5924802" lon="10.8229597"><ele>255.0</ele><time>2026-04-26T08:47:01.943Z</time></trkpt><trkpt lat="45.5924331" lon="10.8228499"><ele>255.0</ele><time>2026-04-26T08:47:03.943Z</time></trkpt><trkpt lat="45.5924491" lon="10.8226653"><ele>252.83333333333334</ele><time>2026-04-26T08:47:05.943Z</time></trkpt><trkpt lat="45.5924679" lon="10.8225648"><ele>250.66666666666669</ele><time>2026-04-26T08:47:06.943Z</time></trkpt><trkpt lat="45.5924853" lon="10.8224609"><ele>248.5</ele><time>2026-04-26T08:47:07.943Z</time></trkpt><trkpt lat="45.5925075" lon="10.8223547"><ele>246.33333333333334</ele><time>2026-04-26T08:47:08.943Z</time></trkpt><trkpt lat="45.5925113" lon="10.8222649"><ele>244.16666666666669</ele><time>2026-04-26T08:47:09.941Z</time></trkpt><trkpt lat="45.5924538" lon="10.8221916"><ele>242.0</ele><time>2026-04-26T08:47:11.942Z</time></trkpt><trkpt lat="45.5923543" lon="10.8221712"><ele>242.00000000000003</ele><time>2026-04-26T08:47:13.942Z</time></trkpt><trkpt lat="45.5922851" lon="10.8221614"><ele>242.0</ele><time>2026-04-26T08:47:14.943Z</time></trkpt><trkpt lat="45.5922053" lon="10.8221508"><ele>242.0</ele><time>2026-04-26T08:47:15.943Z</time></trkpt><trkpt lat="45.5921206" lon="10.8221376"><ele>242.0</ele><time>2026-04-26T08:47:16.942Z</time></trkpt><trkpt lat="45.5920312" lon="10.8221258"><ele>242.00000000000003</ele><time>2026-04-26T08:47:17.943Z</time></trkpt><trkpt lat="45.5919382" lon="10.822114"><ele>242.0</ele><time>2026-04-26T08:47:18.943Z</time></trkpt><trkpt lat="45.5918415" lon="10.8221027"><ele>241.66666666666669</ele><time>2026-04-26T08:47:19.943Z</time></trkpt><trkpt lat="45.5917553" lon="10.8220988"><ele>241.33333333333334</ele><time>2026-04-26T08:47:20.943Z</time></trkpt><trkpt lat="45.5916747" lon="10.8221086"><ele>241.0</ele><time>2026-04-26T08:47:21.943Z</time></trkpt><trkpt lat="45.5915958" lon="10.8221232"><ele>240.66666666666669</ele><time>2026-04-26T08:47:22.942Z</time></trkpt><trkpt lat="45.5915207" lon="10.8221374"><ele>240.33333333333334</ele><time>2026-04-26T08:47:23.943Z</time></trkpt><trkpt lat="45.5914403" lon="10.8221438"><ele>240.0</ele><time>2026-04-26T08:47:24.943Z</time></trkpt><trkpt lat="45.5913624" lon="10.8221281"><ele>240.0</ele><time>2026-04-26T08:47:25.943Z</time></trkpt><trkpt lat="45.5912767" lon="10.8220892"><ele>240.0</ele><time>2026-04-26T08:47:26.943Z</time></trkpt><trkpt lat="45.5911805" lon="10.8220359"><ele>240.0</ele><time>2026-04-26T08:47:27.942Z</time></trkpt><trkpt lat="45.5910824" lon="10.8219915"><ele>240.0</ele><time>2026-04-26T08:47:28.943Z</time></trkpt><trkpt lat="45.5909727" lon="10.821947"><ele>240.0</ele><time>2026-04-26T08:47:29.943Z</time></trkpt><trkpt lat="45.5908544" lon="10.8218977"><ele>239.75</ele><time>2026-04-26T08:47:30.942Z</time></trkpt><trkpt lat="45.5907373" lon="10.8218508"><ele>239.5</ele><time>2026-04-26T08:47:31.942Z</time></trkpt><trkpt lat="45.5906169" lon="10.8218048"><ele>239.25</ele><time>2026-04-26T08:47:32.943Z</time></trkpt><trkpt lat="45.5904983" lon="10.8217598"><ele>239.0</ele><time>2026-04-26T08:47:33.943Z</time></trkpt><trkpt lat="45.5903896" lon="10.8217209"><ele>236.50000000000003</ele><time>2026-04-26T08:47:34.943Z</time></trkpt><trkpt lat="45.5902887" lon="10.8216869"><ele>234.0</ele><time>2026-04-26T08:47:35.942Z</time></trkpt><trkpt lat="45.5901999" lon="10.8216565"><ele>231.5</ele><time>2026-04-26T08:47:36.943Z</time></trkpt><trkpt lat="45.5901165" lon="10.8216313"><ele>229.0</ele><time>2026-04-26T08:47:37.942Z</time></trkpt><trkpt lat="45.590035" lon="10.8216062"><ele>226.50000000000003</ele><time>2026-04-26T08:47:38.942Z</time></trkpt><trkpt lat="45.5899584" lon="10.8215848"><ele>224.0</ele><time>2026-04-26T08:47:39.943Z</time></trkpt><trkpt lat="45.5898804" lon="10.821563"><ele>224.00000000000003</ele><time>2026-04-26T08:47:40.942Z</time></trkpt><trkpt lat="45.5898062" lon="10.8215441"><ele>224.0</ele><time>2026-04-26T08:47:41.943Z</time></trkpt><trkpt lat="45.589735" lon="10.8215355"><ele>224.0</ele><time>2026-04-26T08:47:42.942Z</time></trkpt><trkpt lat="45.5896638" lon="10.8215309"><ele>224.0</ele><time>2026-04-26T08:47:43.943Z</time></trkpt><trkpt lat="45.589591" lon="10.8215421"><ele>224.00000000000003</ele><time>2026-04-26T08:47:44.942Z</time></trkpt><trkpt lat="45.5895089" lon="10.821562"><ele>224.0</ele><time>2026-04-26T08:47:45.943Z</time></trkpt><trkpt lat="45.5894272" lon="10.821578"><ele>223.66666666666669</ele><time>2026-04-26T08:47:46.943Z</time></trkpt><trkpt lat="45.5893489" lon="10.8215893"><ele>223.33333333333334</ele><time>2026-04-26T08:47:47.942Z</time></trkpt><trkpt lat="45.5892686" lon="10.8216031"><ele>223.0</ele><time>2026-04-26T08:47:48.942Z</time></trkpt><trkpt lat="45.5891885" lon="10.8216223"><ele>222.66666666666669</ele><time>2026-04-26T08:47:49.943Z</time></trkpt><trkpt lat="45.5891056" lon="10.8216459"><ele>222.33333333333334</ele><time>2026-04-26T08:47:50.943Z</time></trkpt><trkpt lat="45.5890231" lon="10.8216739"><ele>222.0</ele><time>2026-04-26T08:47:51.942Z</time></trkpt><trkpt lat="45.5889331" lon="10.8216939"><ele>222.0</ele><time>2026-04-26T08:47:52.943Z</time></trkpt><trkpt lat="45.5888455" lon="10.821715"><ele>222.0</ele><time>2026-04-26T08:47:53.943Z</time></trkpt><trkpt lat="45.5887601" lon="10.8217339"><ele>222.0</ele><time>2026-04-26T08:47:54.942Z</time></trkpt><trkpt lat="45.5886762" lon="10.8217487"><ele>222.0</ele><time>2026-04-26T08:47:55.943Z</time></trkpt><trkpt lat="45.5885919" lon="10.8217628"><ele>222.0</ele><time>2026-04-26T08:47:56.943Z</time></trkpt><trkpt lat="45.5885035" lon="10.8217622"><ele>222.0</ele><time>2026-04-26T08:47:57.942Z</time></trkpt><trkpt lat="45.5884188" lon="10.8217477"><ele>221.33333333333334</ele><time>2026-04-26T08:47:58.942Z</time></trkpt><trkpt lat="45.588327" lon="10.8217341"><ele>220.66666666666669</ele><time>2026-04-26T08:47:59.943Z</time></trkpt><trkpt lat="45.5882372" lon="10.8217092"><ele>220.0</ele><time>2026-04-26T08:48:00.943Z</time></trkpt><trkpt lat="45.5881525" lon="10.8216792"><ele>219.33333333333334</ele><time>2026-04-26T08:48:01.943Z</time></trkpt><trkpt lat="45.5880707" lon="10.821649"><ele>218.66666666666669</ele><time>2026-04-26T08:48:02.942Z</time></trkpt><trkpt lat="45.5879919" lon="10.8216305"><ele>218.0</ele><time>2026-04-26T08:48:03.943Z</time></trkpt><trkpt lat="45.5879044" lon="10.8216007"><ele>217.50000000000003</ele><time>2026-04-26T08:48:04.943Z</time></trkpt><trkpt lat="45.5878148" lon="10.8215796"><ele>217.0</ele><time>2026-04-26T08:48:05.943Z</time></trkpt><trkpt lat="45.5877254" lon="10.8215699"><ele>216.5</ele><time>2026-04-26T08:48:06.943Z</time></trkpt><trkpt lat="45.5876415" lon="10.8215565"><ele>216.0</ele><time>2026-04-26T08:48:07.942Z</time></trkpt><trkpt lat="45.5875652" lon="10.8215353"><ele>215.50000000000003</ele><time>2026-04-26T08:48:08.943Z</time></trkpt><trkpt lat="45.5874963" lon="10.8215371"><ele>215.0</ele><time>2026-04-26T08:48:09.942Z</time></trkpt><trkpt lat="45.587382" lon="10.8215486"><ele>215.00000000000003</ele><time>2026-04-26T08:48:11.942Z</time></trkpt><trkpt lat="45.5873196" lon="10.8215319"><ele>215.0</ele><time>2026-04-26T08:48:13.942Z</time></trkpt><trkpt lat="45.5872525" lon="10.8215797"><ele>215.0</ele><time>2026-04-26T08:48:16.941Z</time></trkpt><trkpt lat="45.5871862" lon="10.8216238"><ele>215.0</ele><time>2026-04-26T08:48:19.941Z</time></trkpt><trkpt lat="45.5870867" lon="10.8216586"><ele>215.00000000000003</ele><time>2026-04-26T08:48:22.941Z</time></trkpt><trkpt lat="45.5870068" lon="10.8216433"><ele>215.0</ele><time>2026-04-26T08:48:25.942Z</time></trkpt><trkpt lat="45.586946" lon="10.8216145"><ele>215.00000000000003</ele><time>2026-04-26T08:48:34.941Z</time></trkpt><trkpt lat="45.5870398" lon="10.8216355"><ele>215.0</ele><time>2026-04-26T08:48:39.942Z</time></trkpt><trkpt lat="45.5871132" lon="10.8216593"><ele>215.0</ele><time>2026-04-26T08:48:56.942Z</time></trkpt><trkpt lat="45.5871722" lon="10.8216203"><ele>215.0</ele><time>2026-04-26T08:48:58.942Z</time></trkpt><trkpt lat="45.5872464" lon="10.8215861"><ele>215.00000000000003</ele><time>2026-04-26T08:49:01.942Z</time></trkpt><trkpt lat="45.587296" lon="10.821515"><ele>215.0</ele><time>2026-04-26T08:49:04.942Z</time></trkpt><trkpt lat="45.587304" lon="10.8213574"><ele>215.0</ele><time>2026-04-26T08:49:06.942Z</time></trkpt><trkpt lat="45.5872812" lon="10.8212291"><ele>215.0</ele><time>2026-04-26T08:49:08.942Z</time></trkpt><trkpt lat="45.5872177" lon="10.82117"><ele>215.0</ele><time>2026-04-26T08:49:10.941Z</time></trkpt><trkpt lat="45.5871153" lon="10.8211375"><ele>215.0</ele><time>2026-04-26T08:49:12.942Z</time></trkpt><trkpt lat="45.5869953" lon="10.8210722"><ele>215.0</ele><time>2026-04-26T08:49:14.942Z</time></trkpt><trkpt lat="45.5869235" lon="10.821023"><ele>212.50000000000003</ele><time>2026-04-26T08:49:15.942Z</time></trkpt><trkpt lat="45.586845" lon="10.8209795"><ele>210.0</ele><time>2026-04-26T08:49:16.942Z</time></trkpt><trkpt lat="45.5867932" lon="10.8209239"><ele>207.5</ele><time>2026-04-26T08:49:17.942Z</time></trkpt><trkpt lat="45.5867477" lon="10.8207894"><ele>205.0</ele><time>2026-04-26T08:49:19.941Z</time></trkpt><trkpt lat="45.5867836" lon="10.8206635"><ele>202.50000000000003</ele><time>2026-04-26T08:49:21.942Z</time></trkpt><trkpt lat="45.5868623" lon="10.8205997"><ele>200.0</ele><time>2026-04-26T08:49:23.941Z</time></trkpt><trkpt lat="45.5869882" lon="10.8206011"><ele>200.00000000000003</ele><time>2026-04-26T08:49:25.941Z</time></trkpt><trkpt lat="45.5870603" lon="10.8205654"><ele>200.0</ele><time>2026-04-26T08:49:26.942Z</time></trkpt><trkpt lat="45.5870968" lon="10.8204579"><ele>200.0</ele><time>2026-04-26T08:49:28.942Z</time></trkpt><trkpt lat="45.5870489" lon="10.8203401"><ele>200.0</ele><time>2026-04-26T08:49:30.941Z</time></trkpt><trkpt lat="45.5869932" lon="10.8202831"><ele>200.00000000000003</ele><time>2026-04-26T08:49:31.941Z</time></trkpt><trkpt lat="45.5869286" lon="10.8202453"><ele>200.0</ele><time>2026-04-26T08:49:32.942Z</time></trkpt><trkpt lat="45.586854" lon="10.8202178"><ele>200.00000000000003</ele><time>2026-04-26T08:49:33.942Z</time></trkpt><trkpt lat="45.5867958" lon="10.8201826"><ele>200.0</ele><time>2026-04-26T08:49:34.942Z</time></trkpt><trkpt lat="45.5867547" lon="10.8200563"><ele>200.0</ele><time>2026-04-26T08:49:36.942Z</time></trkpt><trkpt lat="45.5867523" lon="10.8199643"><ele>200.0</ele><time>2026-04-26T08:49:37.942Z</time></trkpt><trkpt lat="45.5867523" lon="10.8198633"><ele>200.00000000000003</ele><time>2026-04-26T08:49:38.941Z</time></trkpt><trkpt lat="45.5867472" lon="10.8197406"><ele>200.0</ele><time>2026-04-26T08:49:39.942Z</time></trkpt><trkpt lat="45.5867413" lon="10.8195997"><ele>199.0</ele><time>2026-04-26T08:49:40.941Z</time></trkpt><trkpt lat="45.5867426" lon="10.8194472"><ele>198.0</ele><time>2026-04-26T08:49:41.942Z</time></trkpt><trkpt lat="45.5867461" lon="10.8192889"><ele>197.0</ele><time>2026-04-26T08:49:42.941Z</time></trkpt><trkpt lat="45.5867434" lon="10.8191209"><ele>196.0</ele><time>2026-04-26T08:49:43.942Z</time></trkpt><trkpt lat="45.586736" lon="10.8189432"><ele>195.60000000000002</ele><time>2026-04-26T08:49:44.941Z</time></trkpt><trkpt lat="45.5867282" lon="10.8187674"><ele>195.2</ele><time>2026-04-26T08:49:45.941Z</time></trkpt><trkpt lat="45.5867252" lon="10.8186045"><ele>194.8</ele><time>2026-04-26T08:49:46.942Z</time></trkpt><trkpt lat="45.5867239" lon="10.8184542"><ele>194.39999999999998</ele><time>2026-04-26T08:49:47.942Z</time></trkpt><trkpt lat="45.5867218" lon="10.8183074"><ele>194.0</ele><time>2026-04-26T08:49:48.942Z</time></trkpt><trkpt lat="45.5867129" lon="10.8181538"><ele>194.0</ele><time>2026-04-26T08:49:49.942Z</time></trkpt><trkpt lat="45.5866849" lon="10.818008"><ele>194.0</ele><time>2026-04-26T08:49:50.942Z</time></trkpt><trkpt lat="45.5866465" lon="10.817871"><ele>194.0</ele><time>2026-04-26T08:49:51.941Z</time></trkpt><trkpt lat="45.5866208" lon="10.8177318"><ele>194.0</ele><time>2026-04-26T08:49:52.942Z</time></trkpt><trkpt lat="45.5866156" lon="10.8175989"><ele>194.0</ele><time>2026-04-26T08:49:53.942Z</time></trkpt><trkpt lat="45.5866188" lon="10.817465"><ele>193.83333333333334</ele><time>2026-04-26T08:49:54.942Z</time></trkpt><trkpt lat="45.5866303" lon="10.8173372"><ele>193.66666666666669</ele><time>2026-04-26T08:49:55.942Z</time></trkpt><trkpt lat="45.5866421" lon="10.8172118"><ele>193.5</ele><time>2026-04-26T08:49:56.942Z</time></trkpt><trkpt lat="45.5866442" lon="10.8170969"><ele>193.33333333333331</ele><time>2026-04-26T08:49:57.942Z</time></trkpt><trkpt lat="45.5866357" lon="10.816997"><ele>193.16666666666666</ele><time>2026-04-26T08:49:58.942Z</time></trkpt><trkpt lat="45.5866178" lon="10.8169048"><ele>193.0</ele><time>2026-04-26T08:49:59.942Z</time></trkpt><trkpt lat="45.5865833" lon="10.8168146"><ele>192.4</ele><time>2026-04-26T08:50:00.941Z</time></trkpt><trkpt lat="45.5865275" lon="10.8167191"><ele>191.8</ele><time>2026-04-26T08:50:01.942Z</time></trkpt><trkpt lat="45.5864659" lon="10.8166207"><ele>191.2</ele><time>2026-04-26T08:50:02.942Z</time></trkpt><trkpt lat="45.5864028" lon="10.8165178"><ele>190.6</ele><time>2026-04-26T08:50:03.942Z</time></trkpt><trkpt lat="45.5863363" lon="10.8164142"><ele>190.0</ele><time>2026-04-26T08:50:04.942Z</time></trkpt><trkpt lat="45.5862713" lon="10.8163018"><ele>190.0</ele><time>2026-04-26T08:50:05.941Z</time></trkpt><trkpt lat="45.5862055" lon="10.8161831"><ele>190.0</ele><time>2026-04-26T08:50:06.941Z</time></trkpt><trkpt lat="45.5861351" lon="10.8160642"><ele>190.0</ele><time>2026-04-26T08:50:07.942Z</time></trkpt><trkpt lat="45.5860596" lon="10.8159402"><ele>190.0</ele><time>2026-04-26T08:50:08.942Z</time></trkpt><trkpt lat="45.5859826" lon="10.8158158"><ele>190.0</ele><time>2026-04-26T08:50:09.942Z</time></trkpt><trkpt lat="45.5859012" lon="10.8156926"><ele>189.0</ele><time>2026-04-26T08:50:10.941Z</time></trkpt><trkpt lat="45.5858229" lon="10.815566"><ele>188.0</ele><time>2026-04-26T08:50:11.942Z</time></trkpt><trkpt lat="45.5857462" lon="10.8154352"><ele>187.0</ele><time>2026-04-26T08:50:12.942Z</time></trkpt><trkpt lat="45.5856672" lon="10.8153053"><ele>186.0</ele><time>2026-04-26T08:50:13.942Z</time></trkpt><trkpt lat="45.585587" lon="10.8151769"><ele>186.25</ele><time>2026-04-26T08:50:14.941Z</time></trkpt><trkpt lat="45.5855062" lon="10.8150478"><ele>186.5</ele><time>2026-04-26T08:50:15.942Z</time></trkpt><trkpt lat="45.5854257" lon="10.8149183"><ele>186.75</ele><time>2026-04-26T08:50:16.942Z</time></trkpt><trkpt lat="45.5853457" lon="10.8147888"><ele>187.0</ele><time>2026-04-26T08:50:17.942Z</time></trkpt><trkpt lat="45.5852669" lon="10.8146601"><ele>186.6</ele><time>2026-04-26T08:50:18.942Z</time></trkpt><trkpt lat="45.5851888" lon="10.8145315"><ele>186.2</ele><time>2026-04-26T08:50:19.942Z</time></trkpt><trkpt lat="45.585112" lon="10.8144026"><ele>185.8</ele><time>2026-04-26T08:50:20.942Z</time></trkpt><trkpt lat="45.5850411" lon="10.8142767"><ele>185.4</ele><time>2026-04-26T08:50:21.942Z</time></trkpt><trkpt lat="45.5849808" lon="10.8141668"><ele>185.0</ele><time>2026-04-26T08:50:22.941Z</time></trkpt><trkpt lat="45.584926" lon="10.8140745"><ele>185.0</ele><time>2026-04-26T08:50:23.941Z</time></trkpt><trkpt lat="45.5848773" lon="10.8140037"><ele>185.0</ele><time>2026-04-26T08:50:24.941Z</time></trkpt><trkpt lat="45.5848122" lon="10.813967"><ele>185.0</ele><time>2026-04-26T08:50:26.941Z</time></trkpt><trkpt lat="45.5847698" lon="10.8140973"><ele>185.0</ele><time>2026-04-26T08:50:29.942Z</time></trkpt><trkpt lat="45.5847958" lon="10.814186"><ele>185.0</ele><time>2026-04-26T08:50:30.941Z</time></trkpt><trkpt lat="45.5848363" lon="10.8142814"><ele>185.0</ele><time>2026-04-26T08:50:31.942Z</time></trkpt><trkpt lat="45.5848703" lon="10.8143877"><ele>184.2</ele><time>2026-04-26T08:50:32.941Z</time></trkpt><trkpt lat="45.5849007" lon="10.8145058"><ele>183.4</ele><time>2026-04-26T08:50:33.941Z</time></trkpt><trkpt lat="45.5849288" lon="10.8146371"><ele>182.60000000000002</ele><time>2026-04-26T08:50:34.942Z</time></trkpt><trkpt lat="45.5849505" lon="10.8147737"><ele>181.8</ele><time>2026-04-26T08:50:35.942Z</time></trkpt><trkpt lat="45.5849553" lon="10.8149032"><ele>181.0</ele><time>2026-04-26T08:50:36.942Z</time></trkpt><trkpt lat="45.5849477" lon="10.8150482"><ele>181.0</ele><time>2026-04-26T08:50:37.941Z</time></trkpt><trkpt lat="45.5849311" lon="10.815196"><ele>181.0</ele><time>2026-04-26T08:50:38.942Z</time></trkpt><trkpt lat="45.5849118" lon="10.8153478"><ele>181.0</ele><time>2026-04-26T08:50:39.942Z</time></trkpt><trkpt lat="45.5848874" lon="10.8155019"><ele>181.0</ele><time>2026-04-26T08:50:40.942Z</time></trkpt><trkpt lat="45.5848532" lon="10.8156557"><ele>181.0</ele><time>2026-04-26T08:50:41.94Z</time></trkpt><trkpt lat="45.584807" lon="10.815815"><ele>181.0</ele><time>2026-04-26T08:50:42.941Z</time></trkpt><trkpt lat="45.5847461" lon="10.8159707"><ele>181.0</ele><time>2026-04-26T08:50:43.942Z</time></trkpt><trkpt lat="45.5846726" lon="10.8161121"><ele>181.0</ele><time>2026-04-26T08:50:44.941Z</time></trkpt><trkpt lat="45.5845915" lon="10.8162531"><ele>181.0</ele><time>2026-04-26T08:50:45.942Z</time></trkpt><trkpt lat="45.584506" lon="10.816391"><ele>179.0</ele><time>2026-04-26T08:50:46.942Z</time></trkpt><trkpt lat="45.5844203" lon="10.8165281"><ele>177.0</ele><time>2026-04-26T08:50:47.942Z</time></trkpt><trkpt lat="45.5843413" lon="10.816668"><ele>175.0</ele><time>2026-04-26T08:50:48.942Z</time></trkpt><trkpt lat="45.5842726" lon="10.8168103"><ele>173.0</ele><time>2026-04-26T08:50:49.941Z</time></trkpt><trkpt lat="45.5842159" lon="10.8169561"><ele>173.0</ele><time>2026-04-26T08:50:50.942Z</time></trkpt><trkpt lat="45.5841786" lon="10.8171104"><ele>173.0</ele><time>2026-04-26T08:50:51.941Z</time></trkpt><trkpt lat="45.5841632" lon="10.8172752"><ele>173.0</ele><time>2026-04-26T08:50:52.942Z</time></trkpt><trkpt lat="45.5841656" lon="10.8174517"><ele>173.0</ele><time>2026-04-26T08:50:53.941Z</time></trkpt><trkpt lat="45.5841714" lon="10.8176288"><ele>171.75</ele><time>2026-04-26T08:50:54.942Z</time></trkpt><trkpt lat="45.5841717" lon="10.8177979"><ele>170.5</ele><time>2026-04-26T08:50:55.941Z</time></trkpt><trkpt lat="45.5841643" lon="10.8179642"><ele>169.25</ele><time>2026-04-26T08:50:56.942Z</time></trkpt><trkpt lat="45.5841464" lon="10.8181334"><ele>168.0</ele><time>2026-04-26T08:50:57.942Z</time></trkpt><trkpt lat="45.5841261" lon="10.8183066"><ele>168.0</ele><time>2026-04-26T08:50:58.941Z</time></trkpt><trkpt lat="45.5841105" lon="10.8184812"><ele>168.0</ele><time>2026-04-26T08:50:59.942Z</time></trkpt><trkpt lat="45.5840966" lon="10.8186569"><ele>168.0</ele><time>2026-04-26T08:51:00.941Z</time></trkpt><trkpt lat="45.584089" lon="10.8188357"><ele>168.0</ele><time>2026-04-26T08:51:01.941Z</time></trkpt><trkpt lat="45.5840964" lon="10.8190149"><ele>167.25</ele><time>2026-04-26T08:51:02.941Z</time></trkpt><trkpt lat="45.5841174" lon="10.8191914"><ele>166.5</ele><time>2026-04-26T08:51:03.941Z</time></trkpt><trkpt lat="45.5841455" lon="10.8193613"><ele>165.75</ele><time>2026-04-26T08:51:04.942Z</time></trkpt><trkpt lat="45.584178" lon="10.8195263"><ele>165.0</ele><time>2026-04-26T08:51:05.942Z</time></trkpt><trkpt lat="45.584215" lon="10.8196833"><ele>164.2</ele><time>2026-04-26T08:51:06.941Z</time></trkpt><trkpt lat="45.584252" lon="10.8198329"><ele>163.4</ele><time>2026-04-26T08:51:07.941Z</time></trkpt><trkpt lat="45.5842763" lon="10.8199716"><ele>162.60000000000002</ele><time>2026-04-26T08:51:08.942Z</time></trkpt><trkpt lat="45.5842812" lon="10.8200998"><ele>161.8</ele><time>2026-04-26T08:51:09.941Z</time></trkpt><trkpt lat="45.5842606" lon="10.820209"><ele>161.0</ele><time>2026-04-26T08:51:10.941Z</time></trkpt><trkpt lat="45.5842083" lon="10.820275"><ele>161.0</ele><time>2026-04-26T08:51:11.941Z</time></trkpt><trkpt lat="45.5841391" lon="10.8202937"><ele>161.0</ele><time>2026-04-26T08:51:12.942Z</time></trkpt><trkpt lat="45.5840737" lon="10.8202617"><ele>161.0</ele><time>2026-04-26T08:51:13.942Z</time></trkpt><trkpt lat="45.5840088" lon="10.8201862"><ele>161.0</ele><time>2026-04-26T08:51:14.942Z</time></trkpt><trkpt lat="45.5839524" lon="10.8200812"><ele>161.0</ele><time>2026-04-26T08:51:15.942Z</time></trkpt><trkpt lat="45.5838978" lon="10.8199607"><ele>161.0</ele><time>2026-04-26T08:51:16.942Z</time></trkpt><trkpt lat="45.5838469" lon="10.8198331"><ele>161.0</ele><time>2026-04-26T08:51:17.942Z</time></trkpt><trkpt lat="45.5837948" lon="10.8197017"><ele>161.0</ele><time>2026-04-26T08:51:18.941Z</time></trkpt><trkpt lat="45.58375" lon="10.8195607"><ele>161.0</ele><time>2026-04-26T08:51:19.942Z</time></trkpt><trkpt lat="45.5837161" lon="10.8194133"><ele>161.0</ele><time>2026-04-26T08:51:20.942Z</time></trkpt><trkpt lat="45.5836958" lon="10.8192561"><ele>161.0</ele><time>2026-04-26T08:51:21.942Z</time></trkpt><trkpt lat="45.5836799" lon="10.8190897"><ele>158.0</ele><time>2026-04-26T08:51:22.942Z</time></trkpt><trkpt lat="45.5836598" lon="10.8189216"><ele>155.0</ele><time>2026-04-26T08:51:23.942Z</time></trkpt><trkpt lat="45.5836308" lon="10.8187681"><ele>152.0</ele><time>2026-04-26T08:51:24.94Z</time></trkpt><trkpt lat="45.5835898" lon="10.8186315"><ele>149.0</ele><time>2026-04-26T08:51:25.942Z</time></trkpt><trkpt lat="45.5835279" lon="10.8185312"><ele>146.0</ele><time>2026-04-26T08:51:26.942Z</time></trkpt><trkpt lat="45.5834426" lon="10.8184826"><ele>146.0</ele><time>2026-04-26T08:51:27.942Z</time></trkpt><trkpt lat="45.5833555" lon="10.818496"><ele>146.0</ele><time>2026-04-26T08:51:28.942Z</time></trkpt><trkpt lat="45.5832848" lon="10.8185647"><ele>146.0</ele><time>2026-04-26T08:51:29.942Z</time></trkpt><trkpt lat="45.5832405" lon="10.8186712"><ele>146.0</ele><time>2026-04-26T08:51:30.942Z</time></trkpt><trkpt lat="45.5832313" lon="10.8188027"><ele>146.0</ele><time>2026-04-26T08:51:31.941Z</time></trkpt><trkpt lat="45.5832502" lon="10.8189408"><ele>146.0</ele><time>2026-04-26T08:51:32.942Z</time></trkpt><trkpt lat="45.5832738" lon="10.8190886"><ele>146.0</ele><time>2026-04-26T08:51:33.942Z</time></trkpt><trkpt lat="45.5832908" lon="10.8192514"><ele>146.0</ele><time>2026-04-26T08:51:34.941Z</time></trkpt><trkpt lat="45.5832875" lon="10.8194198"><ele>146.0</ele><time>2026-04-26T08:51:35.942Z</time></trkpt><trkpt lat="45.5832604" lon="10.819588"><ele>144.25</ele><time>2026-04-26T08:51:36.941Z</time></trkpt><trkpt lat="45.5832154" lon="10.8197511"><ele>142.5</ele><time>2026-04-26T08:51:37.942Z</time></trkpt><trkpt lat="45.5831496" lon="10.8199015"><ele>140.75</ele><time>2026-04-26T08:51:38.942Z</time></trkpt><trkpt lat="45.5830674" lon="10.8200276"><ele>139.0</ele><time>2026-04-26T08:51:39.942Z</time></trkpt><trkpt lat="45.5829885" lon="10.8201452"><ele>138.0</ele><time>2026-04-26T08:51:40.942Z</time></trkpt><trkpt lat="45.5829293" lon="10.8202884"><ele>137.0</ele><time>2026-04-26T08:51:41.941Z</time></trkpt><trkpt lat="45.5828887" lon="10.8204523"><ele>136.0</ele><time>2026-04-26T08:51:42.941Z</time></trkpt><trkpt lat="45.5828659" lon="10.8206317"><ele>135.0</ele><time>2026-04-26T08:51:43.941Z</time></trkpt><trkpt lat="45.582849" lon="10.8208139"><ele>133.5</ele><time>2026-04-26T08:51:44.942Z</time></trkpt><trkpt lat="45.5828483" lon="10.8210022"><ele>132.0</ele><time>2026-04-26T08:51:45.942Z</time></trkpt><trkpt lat="45.5828644" lon="10.8211931"><ele>130.5</ele><time>2026-04-26T08:51:46.942Z</time></trkpt><trkpt lat="45.5828931" lon="10.8213816"><ele>129.0</ele><time>2026-04-26T08:51:47.942Z</time></trkpt><trkpt lat="45.5829268" lon="10.8215764"><ele>129.0</ele><time>2026-04-26T08:51:48.941Z</time></trkpt><trkpt lat="45.5829593" lon="10.8217708"><ele>129.0</ele><time>2026-04-26T08:51:49.942Z</time></trkpt><trkpt lat="45.5829919" lon="10.8219651"><ele>129.0</ele><time>2026-04-26T08:51:50.941Z</time></trkpt><trkpt lat="45.5830235" lon="10.8221598"><ele>129.0</ele><time>2026-04-26T08:51:51.942Z</time></trkpt><trkpt lat="45.5830539" lon="10.8223534"><ele>127.5</ele><time>2026-04-26T08:51:52.942Z</time></trkpt><trkpt lat="45.5830847" lon="10.8225468"><ele>126.0</ele><time>2026-04-26T08:51:53.941Z</time></trkpt><trkpt lat="45.5831147" lon="10.8227398"><ele>124.5</ele><time>2026-04-26T08:51:54.942Z</time></trkpt><trkpt lat="45.5831463" lon="10.8229319"><ele>123.0</ele><time>2026-04-26T08:51:55.942Z</time></trkpt><trkpt lat="45.5831824" lon="10.8231154"><ele>122.25</ele><time>2026-04-26T08:51:56.941Z</time></trkpt><trkpt lat="45.5832339" lon="10.8232802"><ele>121.5</ele><time>2026-04-26T08:51:57.942Z</time></trkpt><trkpt lat="45.5833107" lon="10.8234118"><ele>120.75</ele><time>2026-04-26T08:51:58.941Z</time></trkpt><trkpt lat="45.5834108" lon="10.8235032"><ele>120.0</ele><time>2026-04-26T08:51:59.942Z</time></trkpt><trkpt lat="45.5835305" lon="10.8235536"><ele>117.75</ele><time>2026-04-26T08:52:00.942Z</time></trkpt><trkpt lat="45.5836594" lon="10.8235872"><ele>115.5</ele><time>2026-04-26T08:52:01.942Z</time></trkpt><trkpt lat="45.5837915" lon="10.8236244"><ele>113.25</ele><time>2026-04-26T08:52:02.942Z</time></trkpt><trkpt lat="45.5839239" lon="10.8236703"><ele>111.0</ele><time>2026-04-26T08:52:03.942Z</time></trkpt><trkpt lat="45.5840582" lon="10.8237185"><ele>110.5</ele><time>2026-04-26T08:52:04.941Z</time></trkpt><trkpt lat="45.584194" lon="10.8237617"><ele>110.0</ele><time>2026-04-26T08:52:05.941Z</time></trkpt><trkpt lat="45.58433" lon="10.8238108"><ele>109.5</ele><time>2026-04-26T08:52:06.942Z</time></trkpt><trkpt lat="45.5844505" lon="10.8238956"><ele>109.0</ele><time>2026-04-26T08:52:07.942Z</time></trkpt><trkpt lat="45.5845476" lon="10.8240215"><ele>116.25</ele><time>2026-04-26T08:52:08.942Z</time></trkpt><trkpt lat="45.5846258" lon="10.8241844"><ele>123.5</ele><time>2026-04-26T08:52:09.942Z</time></trkpt><trkpt lat="45.5846912" lon="10.824359"><ele>130.75</ele><time>2026-04-26T08:52:10.942Z</time></trkpt><trkpt lat="45.5847559" lon="10.8245338"><ele>138.0</ele><time>2026-04-26T08:52:11.942Z</time></trkpt><trkpt lat="45.584821" lon="10.8247073"><ele>138.0</ele><time>2026-04-26T08:52:12.942Z</time></trkpt><trkpt lat="45.5848833" lon="10.8248812"><ele>138.0</ele><time>2026-04-26T08:52:13.942Z</time></trkpt><trkpt lat="45.5849439" lon="10.8250542"><ele>138.0</ele><time>2026-04-26T08:52:14.941Z</time></trkpt><trkpt lat="45.5850042" lon="10.8252273"><ele>138.0</ele><time>2026-04-26T08:52:15.942Z</time></trkpt><trkpt lat="45.585064" lon="10.8253963"><ele>131.25</ele><time>2026-04-26T08:52:16.942Z</time></trkpt><trkpt lat="45.5851256" lon="10.8255632"><ele>124.5</ele><time>2026-04-26T08:52:17.942Z</time></trkpt><trkpt lat="45.5851863" lon="10.8257286"><ele>117.75</ele><time>2026-04-26T08:52:18.941Z</time></trkpt><trkpt lat="45.5852442" lon="10.8258947"><ele>111.0</ele><time>2026-04-26T08:52:19.942Z</time></trkpt><trkpt lat="45.5853012" lon="10.8260575"><ele>120.25</ele><time>2026-04-26T08:52:20.942Z</time></trkpt><trkpt lat="45.5853587" lon="10.8262187"><ele>129.5</ele><time>2026-04-26T08:52:21.942Z</time></trkpt><trkpt lat="45.5854137" lon="10.8263795"><ele>138.75</ele><time>2026-04-26T08:52:22.942Z</time></trkpt><trkpt lat="45.5854639" lon="10.8265429"><ele>148.0</ele><time>2026-04-26T08:52:23.941Z</time></trkpt><trkpt lat="45.585518" lon="10.8267038"><ele>140.5</ele><time>2026-04-26T08:52:24.942Z</time></trkpt><trkpt lat="45.5855841" lon="10.826859"><ele>133.0</ele><time>2026-04-26T08:52:25.942Z</time></trkpt><trkpt lat="45.5856535" lon="10.8270057"><ele>125.5</ele><time>2026-04-26T08:52:26.942Z</time></trkpt><trkpt lat="45.5857238" lon="10.8271548"><ele>118.0</ele><time>2026-04-26T08:52:27.942Z</time></trkpt><trkpt lat="45.5857913" lon="10.8273029"><ele>118.0</ele><time>2026-04-26T08:52:28.941Z</time></trkpt><trkpt lat="45.5858593" lon="10.8274521"><ele>118.00000000000001</ele><time>2026-04-26T08:52:29.942Z</time></trkpt><trkpt lat="45.5859206" lon="10.8276016"><ele>118.00000000000001</ele><time>2026-04-26T08:52:30.941Z</time></trkpt><trkpt lat="45.5859712" lon="10.8277431"><ele>118.0</ele><time>2026-04-26T08:52:31.941Z</time></trkpt><trkpt lat="45.5860106" lon="10.8278582"><ele>118.0</ele><time>2026-04-26T08:52:32.942Z</time></trkpt><trkpt lat="45.5860411" lon="10.8279593"><ele>116.00000000000001</ele><time>2026-04-26T08:52:33.942Z</time></trkpt><trkpt lat="45.5860523" lon="10.828052"><ele>114.0</ele><time>2026-04-26T08:52:34.942Z</time></trkpt><trkpt lat="45.5860427" lon="10.8281478"><ele>112.0</ele><time>2026-04-26T08:52:35.942Z</time></trkpt><trkpt lat="45.5859825" lon="10.8282996"><ele>110.0</ele><time>2026-04-26T08:52:37.942Z</time></trkpt><trkpt lat="45.5859378" lon="10.8284584"><ele>108.00000000000001</ele><time>2026-04-26T08:52:39.941Z</time></trkpt><trkpt lat="45.5859383" lon="10.8285554"><ele>106.0</ele><time>2026-04-26T08:52:40.942Z</time></trkpt><trkpt lat="45.5859476" lon="10.8286613"><ele>105.4</ele><time>2026-04-26T08:52:41.942Z</time></trkpt><trkpt lat="45.58596" lon="10.8287698"><ele>104.8</ele><time>2026-04-26T08:52:42.941Z</time></trkpt><trkpt lat="45.5859728" lon="10.828896"><ele>104.2</ele><time>2026-04-26T08:52:43.942Z</time></trkpt><trkpt lat="45.585981" lon="10.829029"><ele>103.60000000000001</ele><time>2026-04-26T08:52:44.942Z</time></trkpt><trkpt lat="45.5859934" lon="10.829165"><ele>103.0</ele><time>2026-04-26T08:52:45.942Z</time></trkpt><trkpt lat="45.5860158" lon="10.8292955"><ele>102.2</ele><time>2026-04-26T08:52:46.942Z</time></trkpt><trkpt lat="45.5860511" lon="10.829424"><ele>101.4</ele><time>2026-04-26T08:52:47.941Z</time></trkpt><trkpt lat="45.586098" lon="10.8295525"><ele>100.60000000000001</ele><time>2026-04-26T08:52:48.942Z</time></trkpt><trkpt lat="45.5861525" lon="10.8296814"><ele>99.80000000000001</ele><time>2026-04-26T08:52:49.942Z</time></trkpt><trkpt lat="45.586206" lon="10.8298175"><ele>99.0</ele><time>2026-04-26T08:52:50.94Z</time></trkpt><trkpt lat="45.5862592" lon="10.829965"><ele>101.5</ele><time>2026-04-26T08:52:51.942Z</time></trkpt><trkpt lat="45.5863064" lon="10.8301224"><ele>104.0</ele><time>2026-04-26T08:52:52.942Z</time></trkpt><trkpt lat="45.5863478" lon="10.8302889"><ele>106.5</ele><time>2026-04-26T08:52:53.942Z</time></trkpt><trkpt lat="45.5863838" lon="10.8304588"><ele>109.0</ele><time>2026-04-26T08:52:54.942Z</time></trkpt><trkpt lat="45.5864208" lon="10.8306273"><ele>109.0</ele><time>2026-04-26T08:52:55.942Z</time></trkpt><trkpt lat="45.5864622" lon="10.8307938"><ele>109.0</ele><time>2026-04-26T08:52:56.942Z</time></trkpt><trkpt lat="45.5865076" lon="10.8309571"><ele>109.0</ele><time>2026-04-26T08:52:57.942Z</time></trkpt><trkpt lat="45.5865603" lon="10.8311163"><ele>109.0</ele><time>2026-04-26T08:52:58.941Z</time></trkpt><trkpt lat="45.5866184" lon="10.8312698"><ele>107.5</ele><time>2026-04-26T08:52:59.941Z</time></trkpt><trkpt lat="45.5866796" lon="10.8314215"><ele>106.0</ele><time>2026-04-26T08:53:00.941Z</time></trkpt><trkpt lat="45.5867437" lon="10.8315694"><ele>104.5</ele><time>2026-04-26T08:53:01.942Z</time></trkpt><trkpt lat="45.5868108" lon="10.8317152"><ele>103.0</ele><time>2026-04-26T08:53:02.942Z</time></trkpt><trkpt lat="45.5868816" lon="10.8318565"><ele>103.0</ele><time>2026-04-26T08:53:03.942Z</time></trkpt><trkpt lat="45.5869599" lon="10.8319857"><ele>103.0</ele><time>2026-04-26T08:53:04.942Z</time></trkpt><trkpt lat="45.5870456" lon="10.8320958"><ele>103.0</ele><time>2026-04-26T08:53:05.942Z</time></trkpt><trkpt lat="45.5871352" lon="10.8321915"><ele>103.0</ele><time>2026-04-26T08:53:06.942Z</time></trkpt><trkpt lat="45.5872252" lon="10.8322855"><ele>102.75</ele><time>2026-04-26T08:53:07.942Z</time></trkpt><trkpt lat="45.5873167" lon="10.8323826"><ele>102.5</ele><time>2026-04-26T08:53:08.942Z</time></trkpt><trkpt lat="45.587408" lon="10.8324849"><ele>102.25</ele><time>2026-04-26T08:53:09.941Z</time></trkpt><trkpt lat="45.5874951" lon="10.8325974"><ele>102.0</ele><time>2026-04-26T08:53:10.941Z</time></trkpt><trkpt lat="45.5875759" lon="10.8327229"><ele>102.0</ele><time>2026-04-26T08:53:11.941Z</time></trkpt><trkpt lat="45.5876525" lon="10.8328555"><ele>102.0</ele><time>2026-04-26T08:53:12.942Z</time></trkpt><trkpt lat="45.5877252" lon="10.8329941"><ele>102.0</ele><time>2026-04-26T08:53:13.942Z</time></trkpt><trkpt lat="45.5877966" lon="10.8331355"><ele>102.0</ele><time>2026-04-26T08:53:14.941Z</time></trkpt><trkpt lat="45.5878663" lon="10.833279"><ele>102.25</ele><time>2026-04-26T08:53:15.942Z</time></trkpt><trkpt lat="45.5879364" lon="10.8334223"><ele>102.5</ele><time>2026-04-26T08:53:16.942Z</time></trkpt><trkpt lat="45.588004" lon="10.8335667"><ele>102.75</ele><time>2026-04-26T08:53:17.942Z</time></trkpt><trkpt lat="45.5880742" lon="10.8337087"><ele>103.0</ele><time>2026-04-26T08:53:18.941Z</time></trkpt><trkpt lat="45.5881475" lon="10.8338469"><ele>103.0</ele><time>2026-04-26T08:53:19.941Z</time></trkpt><trkpt lat="45.5882111" lon="10.8339732"><ele>103.0</ele><time>2026-04-26T08:53:20.942Z</time></trkpt><trkpt lat="45.5882605" lon="10.8340826"><ele>103.0</ele><time>2026-04-26T08:53:21.941Z</time></trkpt><trkpt lat="45.5882977" lon="10.8341798"><ele>103.0</ele><time>2026-04-26T08:53:22.942Z</time></trkpt><trkpt lat="45.5883295" lon="10.8342681"><ele>103.0</ele><time>2026-04-26T08:53:23.942Z</time></trkpt><trkpt lat="45.58841" lon="10.8344027"><ele>103.2</ele><time>2026-04-26T08:53:25.942Z</time></trkpt><trkpt lat="45.5884703" lon="10.834472"><ele>103.4</ele><time>2026-04-26T08:53:26.941Z</time></trkpt><trkpt lat="45.588541" lon="10.8345461"><ele>103.60000000000001</ele><time>2026-04-26T08:53:27.942Z</time></trkpt><trkpt lat="45.5886233" lon="10.834621"><ele>103.80000000000001</ele><time>2026-04-26T08:53:28.941Z</time></trkpt><trkpt lat="45.5887149" lon="10.8346884"><ele>104.0</ele><time>2026-04-26T08:53:29.942Z</time></trkpt><trkpt lat="45.5888097" lon="10.8347593"><ele>103.5</ele><time>2026-04-26T08:53:30.942Z</time></trkpt><trkpt lat="45.5889053" lon="10.8348279"><ele>103.0</ele><time>2026-04-26T08:53:31.942Z</time></trkpt><trkpt lat="45.5890091" lon="10.8348977"><ele>102.5</ele><time>2026-04-26T08:53:32.942Z</time></trkpt><trkpt lat="45.5891184" lon="10.8349673"><ele>102.0</ele><time>2026-04-26T08:53:33.941Z</time></trkpt><trkpt lat="45.5892314" lon="10.8350372"><ele>102.0</ele><time>2026-04-26T08:53:34.941Z</time></trkpt><trkpt lat="45.5893458" lon="10.8351062"><ele>102.0</ele><time>2026-04-26T08:53:35.942Z</time></trkpt><trkpt lat="45.5894639" lon="10.8351745"><ele>102.0</ele><time>2026-04-26T08:53:36.942Z</time></trkpt><trkpt lat="45.5895781" lon="10.8352377"><ele>102.0</ele><time>2026-04-26T08:53:37.942Z</time></trkpt><trkpt lat="45.5896839" lon="10.8352941"><ele>102.6</ele><time>2026-04-26T08:53:38.942Z</time></trkpt><trkpt lat="45.5897942" lon="10.8353576"><ele>103.19999999999999</ele><time>2026-04-26T08:53:39.942Z</time></trkpt><trkpt lat="45.5898994" lon="10.8354162"><ele>103.8</ele><time>2026-04-26T08:53:40.942Z</time></trkpt><trkpt lat="45.5899906" lon="10.8354642"><ele>104.4</ele><time>2026-04-26T08:53:41.942Z</time></trkpt><trkpt lat="45.5900795" lon="10.8355069"><ele>105.0</ele><time>2026-04-26T08:53:42.942Z</time></trkpt><trkpt lat="45.5901721" lon="10.8355509"><ele>105.0</ele><time>2026-04-26T08:53:43.942Z</time></trkpt><trkpt lat="45.5902697" lon="10.8356026"><ele>105.0</ele><time>2026-04-26T08:53:44.941Z</time></trkpt><trkpt lat="45.5903673" lon="10.8356569"><ele>105.0</ele><time>2026-04-26T08:53:45.942Z</time></trkpt><trkpt lat="45.5904668" lon="10.8357002"><ele>105.0</ele><time>2026-04-26T08:53:46.942Z</time></trkpt><trkpt lat="45.5905596" lon="10.8357328"><ele>105.0</ele><time>2026-04-26T08:53:47.942Z</time></trkpt><trkpt lat="45.5906343" lon="10.8357774"><ele>105.0</ele><time>2026-04-26T08:53:48.941Z</time></trkpt><trkpt lat="45.5907159" lon="10.8358414"><ele>105.0</ele><time>2026-04-26T08:53:50.942Z</time></trkpt><trkpt lat="45.5907796" lon="10.8358817"><ele>105.0</ele><time>2026-04-26T08:53:52.941Z</time></trkpt><trkpt lat="45.5908501" lon="10.8359149"><ele>105.0</ele><time>2026-04-26T08:53:54.941Z</time></trkpt><trkpt lat="45.5909231" lon="10.8359621"><ele>105.0</ele><time>2026-04-26T08:53:56.941Z</time></trkpt><trkpt lat="45.590997" lon="10.8360059"><ele>105.0</ele><time>2026-04-26T08:53:58.941Z</time></trkpt><trkpt lat="45.5910749" lon="10.8360502"><ele>105.5</ele><time>2026-04-26T08:54:00.942Z</time></trkpt><trkpt lat="45.5911581" lon="10.836101"><ele>106.0</ele><time>2026-04-26T08:54:02.941Z</time></trkpt><trkpt lat="45.5912251" lon="10.8361409"><ele>106.5</ele><time>2026-04-26T08:54:04.941Z</time></trkpt><trkpt lat="45.5912957" lon="10.8361789"><ele>107.0</ele><time>2026-04-26T08:54:11.942Z</time></trkpt><trkpt lat="45.5913583" lon="10.8362487"><ele>107.5</ele><time>2026-04-26T08:54:14.941Z</time></trkpt><trkpt lat="45.591444" lon="10.8363244"><ele>108.0</ele><time>2026-04-26T08:54:16.942Z</time></trkpt><trkpt lat="45.5915278" lon="10.836394"><ele>109.5</ele><time>2026-04-26T08:54:18.942Z</time></trkpt><trkpt lat="45.591586" lon="10.8364291"><ele>111.0</ele><time>2026-04-26T08:54:20.942Z</time></trkpt><trkpt lat="45.5916571" lon="10.8363928"><ele>112.5</ele><time>2026-04-26T08:54:22.941Z</time></trkpt><trkpt lat="45.5917122" lon="10.8362882"><ele>114.0</ele><time>2026-04-26T08:54:24.942Z</time></trkpt><trkpt lat="45.591754" lon="10.8361964"><ele>115.5</ele><time>2026-04-26T08:54:25.941Z</time></trkpt><trkpt lat="45.5917946" lon="10.8361051"><ele>117.0</ele><time>2026-04-26T08:54:26.942Z</time></trkpt><trkpt lat="45.5918295" lon="10.8360129"><ele>117.5</ele><time>2026-04-26T08:54:27.942Z</time></trkpt><trkpt lat="45.5918523" lon="10.8359223"><ele>118.0</ele><time>2026-04-26T08:54:28.942Z</time></trkpt><trkpt lat="45.5918847" lon="10.8357443"><ele>118.5</ele><time>2026-04-26T08:54:30.942Z</time></trkpt><trkpt lat="45.5919136" lon="10.8356386"><ele>119.0</ele><time>2026-04-26T08:54:31.942Z</time></trkpt><trkpt lat="45.5919424" lon="10.8355286"><ele>119.5</ele><time>2026-04-26T08:54:32.941Z</time></trkpt><trkpt lat="45.5919912" lon="10.8354405"><ele>120.0</ele><time>2026-04-26T08:54:35.94Z</time></trkpt><trkpt lat="45.5920603" lon="10.8354814"><ele>122.4</ele><time>2026-04-26T08:54:37.942Z</time></trkpt><trkpt lat="45.5921313" lon="10.8355283"><ele>124.8</ele><time>2026-04-26T08:54:39.942Z</time></trkpt><trkpt lat="45.5921937" lon="10.8355694"><ele>127.19999999999999</ele><time>2026-04-26T08:54:42.942Z</time></trkpt><trkpt lat="45.5922858" lon="10.8356574"><ele>129.6</ele><time>2026-04-26T08:54:58.941Z</time></trkpt><trkpt lat="45.5924103" lon="10.8357526"><ele>132.0</ele><time>2026-04-26T08:55:00.942Z</time></trkpt><trkpt lat="45.5924848" lon="10.835824"><ele>132.0</ele><time>2026-04-26T08:55:01.942Z</time></trkpt><trkpt lat="45.5925649" lon="10.8359063"><ele>132.0</ele><time>2026-04-26T08:55:02.941Z</time></trkpt><trkpt lat="45.5926522" lon="10.8360026"><ele>132.0</ele><time>2026-04-26T08:55:03.942Z</time></trkpt><trkpt lat="45.5927428" lon="10.8361088"><ele>132.0</ele><time>2026-04-26T08:55:04.941Z</time></trkpt><trkpt lat="45.592836" lon="10.8362205"><ele>132.0</ele><time>2026-04-26T08:55:05.942Z</time></trkpt><trkpt lat="45.5929241" lon="10.8363207"><ele>131.4</ele><time>2026-04-26T08:55:06.942Z</time></trkpt><trkpt lat="45.5930013" lon="10.8364043"><ele>130.79999999999998</ele><time>2026-04-26T08:55:07.941Z</time></trkpt><trkpt lat="45.5930528" lon="10.8364799"><ele>130.2</ele><time>2026-04-26T08:55:08.942Z</time></trkpt><trkpt lat="45.5930577" lon="10.8366298"><ele>129.6</ele><time>2026-04-26T08:55:10.942Z</time></trkpt><trkpt lat="45.5930136" lon="10.8367267"><ele>129.0</ele><time>2026-04-26T08:55:11.941Z</time></trkpt><trkpt lat="45.592949" lon="10.8368421"><ele>129.0</ele><time>2026-04-26T08:55:12.942Z</time></trkpt><trkpt lat="45.5929145" lon="10.8369505"><ele>129.0</ele><time>2026-04-26T08:55:13.941Z</time></trkpt><trkpt lat="45.5929289" lon="10.837095"><ele>129.0</ele><time>2026-04-26T08:55:15.94Z</time></trkpt><trkpt lat="45.5929852" lon="10.8371518"><ele>129.0</ele><time>2026-04-26T08:55:16.942Z</time></trkpt><trkpt lat="45.5930796" lon="10.8372083"><ele>129.0</ele><time>2026-04-26T08:55:17.942Z</time></trkpt><trkpt lat="45.5931876" lon="10.8372818"><ele>129.0</ele><time>2026-04-26T08:55:18.941Z</time></trkpt><trkpt lat="45.5933246" lon="10.8373663"><ele>129.0</ele><time>2026-04-26T08:55:19.942Z</time></trkpt><trkpt lat="45.5934828" lon="10.8374628"><ele>129.0</ele><time>2026-04-26T08:55:20.942Z</time></trkpt><trkpt lat="45.5936428" lon="10.8375633"><ele>128.0</ele><time>2026-04-26T08:55:21.941Z</time></trkpt><trkpt lat="45.5938084" lon="10.8376635"><ele>127.0</ele><time>2026-04-26T08:55:22.942Z</time></trkpt><trkpt lat="45.59397" lon="10.8377697"><ele>126.0</ele><time>2026-04-26T08:55:23.941Z</time></trkpt><trkpt lat="45.5941319" lon="10.8378775"><ele>126.0</ele><time>2026-04-26T08:55:24.94Z</time></trkpt><trkpt lat="45.5942925" lon="10.8379834"><ele>126.0</ele><time>2026-04-26T08:55:25.941Z</time></trkpt><trkpt lat="45.5944528" lon="10.8380902"><ele>126.0</ele><time>2026-04-26T08:55:26.941Z</time></trkpt><trkpt lat="45.5946078" lon="10.8381991"><ele>126.33333333333334</ele><time>2026-04-26T08:55:27.941Z</time></trkpt><trkpt lat="45.594759" lon="10.8383136"><ele>126.66666666666667</ele><time>2026-04-26T08:55:28.941Z</time></trkpt><trkpt lat="45.5949094" lon="10.8384332"><ele>127.0</ele><time>2026-04-26T08:55:29.941Z</time></trkpt><trkpt lat="45.5950586" lon="10.838552"><ele>127.0</ele><time>2026-04-26T08:55:30.941Z</time></trkpt><trkpt lat="45.5952057" lon="10.838676"><ele>127.0</ele><time>2026-04-26T08:55:31.941Z</time></trkpt><trkpt lat="45.5953546" lon="10.8387972"><ele>127.0</ele><time>2026-04-26T08:55:32.941Z</time></trkpt><trkpt lat="45.5955" lon="10.8389204"><ele>127.66666666666667</ele><time>2026-04-26T08:55:33.941Z</time></trkpt><trkpt lat="45.5956369" lon="10.8390375"><ele>128.33333333333334</ele><time>2026-04-26T08:55:34.941Z</time></trkpt><trkpt lat="45.5957676" lon="10.8391538"><ele>129.0</ele><time>2026-04-26T08:55:35.94Z</time></trkpt><trkpt lat="45.5958988" lon="10.8392709"><ele>128.66666666666666</ele><time>2026-04-26T08:55:36.941Z</time></trkpt><trkpt lat="45.5960335" lon="10.8393932"><ele>128.33333333333331</ele><time>2026-04-26T08:55:37.941Z</time></trkpt><trkpt lat="45.5961694" lon="10.83952"><ele>128.0</ele><time>2026-04-26T08:55:38.94Z</time></trkpt><trkpt lat="45.5963105" lon="10.8396435"><ele>128.66666666666666</ele><time>2026-04-26T08:55:39.94Z</time></trkpt><trkpt lat="45.5964527" lon="10.8397642"><ele>129.33333333333334</ele><time>2026-04-26T08:55:40.94Z</time></trkpt><trkpt lat="45.5965929" lon="10.839892"><ele>130.0</ele><time>2026-04-26T08:55:41.941Z</time></trkpt><trkpt lat="45.5967147" lon="10.8400114"><ele>130.0</ele><time>2026-04-26T08:55:42.94Z</time></trkpt><trkpt lat="45.5968217" lon="10.8401156"><ele>130.0</ele><time>2026-04-26T08:55:43.94Z</time></trkpt><trkpt lat="45.5969137" lon="10.8402079"><ele>130.0</ele><time>2026-04-26T08:55:44.941Z</time></trkpt><trkpt lat="45.5969943" lon="10.8402898"><ele>130.0</ele><time>2026-04-26T08:55:45.941Z</time></trkpt><trkpt lat="45.5970546" lon="10.8403507"><ele>130.0</ele><time>2026-04-26T08:55:46.94Z</time></trkpt><trkpt lat="45.5971595" lon="10.8403597"><ele>130.0</ele><time>2026-04-26T08:55:48.94Z</time></trkpt><trkpt lat="45.5972645" lon="10.8402206"><ele>130.0</ele><time>2026-04-26T08:55:50.941Z</time></trkpt><trkpt lat="45.5973256" lon="10.840135"><ele>130.0</ele><time>2026-04-26T08:55:51.94Z</time></trkpt><trkpt lat="45.5974511" lon="10.8401262"><ele>130.0</ele><time>2026-04-26T08:55:53.941Z</time></trkpt><trkpt lat="45.597525" lon="10.8401852"><ele>130.0</ele><time>2026-04-26T08:55:54.94Z</time></trkpt><trkpt lat="45.597612" lon="10.8402701"><ele>130.2</ele><time>2026-04-26T08:55:55.941Z</time></trkpt><trkpt lat="45.5977111" lon="10.8403529"><ele>130.4</ele><time>2026-04-26T08:55:56.94Z</time></trkpt><trkpt lat="45.597808" lon="10.8404311"><ele>130.6</ele><time>2026-04-26T08:55:57.941Z</time></trkpt><trkpt lat="45.5979024" lon="10.8404999"><ele>130.8</ele><time>2026-04-26T08:55:58.94Z</time></trkpt><trkpt lat="45.5979833" lon="10.8405542"><ele>131.0</ele><time>2026-04-26T08:55:59.941Z</time></trkpt><trkpt lat="45.5980566" lon="10.8405996"><ele>131.0</ele><time>2026-04-26T08:56:00.941Z</time></trkpt><trkpt lat="45.5981265" lon="10.8406316"><ele>131.0</ele><time>2026-04-26T08:56:01.941Z</time></trkpt><trkpt lat="45.5982119" lon="10.8406836"><ele>131.0</ele><time>2026-04-26T08:56:03.94Z</time></trkpt><trkpt lat="45.5982205" lon="10.8407944"><ele>131.0</ele><time>2026-04-26T08:56:06.941Z</time></trkpt><trkpt lat="45.5981825" lon="10.8408796"><ele>131.0</ele><time>2026-04-26T08:56:08.941Z</time></trkpt><trkpt lat="45.5981424" lon="10.8409627"><ele>131.0</ele><time>2026-04-26T08:56:10.941Z</time></trkpt><trkpt lat="45.5981022" lon="10.8410507"><ele>130.33333333333331</ele><time>2026-04-26T08:56:12.941Z</time></trkpt><trkpt lat="45.5980542" lon="10.8411455"><ele>129.66666666666666</ele><time>2026-04-26T08:56:14.94Z</time></trkpt><trkpt lat="45.5980067" lon="10.8412535"><ele>129.0</ele><time>2026-04-26T08:56:16.94Z</time></trkpt><trkpt lat="45.5979636" lon="10.8413506"><ele>128.33333333333334</ele><time>2026-04-26T08:56:18.94Z</time></trkpt><trkpt lat="45.5979208" lon="10.8414497"><ele>127.66666666666667</ele><time>2026-04-26T08:56:20.941Z</time></trkpt><trkpt lat="45.5978707" lon="10.841558"><ele>127.0</ele><time>2026-04-26T08:56:22.941Z</time></trkpt><trkpt lat="45.5978161" lon="10.8416783"><ele>126.6</ele><time>2026-04-26T08:56:24.941Z</time></trkpt><trkpt lat="45.5977618" lon="10.8418089"><ele>126.19999999999999</ele><time>2026-04-26T08:56:26.94Z</time></trkpt><trkpt lat="45.5977426" lon="10.8419404"><ele>125.8</ele><time>2026-04-26T08:56:28.941Z</time></trkpt><trkpt lat="45.5977877" lon="10.8420723"><ele>125.4</ele><time>2026-04-26T08:56:30.94Z</time></trkpt><trkpt lat="45.5978328" lon="10.8421402"><ele>125.0</ele><time>2026-04-26T08:56:31.94Z</time></trkpt><trkpt lat="45.5978926" lon="10.8422202"><ele>125.0</ele><time>2026-04-26T08:56:32.941Z</time></trkpt><trkpt lat="45.5979648" lon="10.8423064"><ele>125.0</ele><time>2026-04-26T08:56:33.94Z</time></trkpt><trkpt lat="45.5980493" lon="10.8424012"><ele>125.0</ele><time>2026-04-26T08:56:34.94Z</time></trkpt><trkpt lat="45.5981414" lon="10.8425013"><ele>125.0</ele><time>2026-04-26T08:56:35.941Z</time></trkpt><trkpt lat="45.5982386" lon="10.8426074"><ele>125.0</ele><time>2026-04-26T08:56:36.94Z</time></trkpt><trkpt lat="45.5983409" lon="10.8427164"><ele>124.75</ele><time>2026-04-26T08:56:37.94Z</time></trkpt><trkpt lat="45.5984469" lon="10.8428244"><ele>124.5</ele><time>2026-04-26T08:56:38.94Z</time></trkpt><trkpt lat="45.5985515" lon="10.8429271"><ele>124.25</ele><time>2026-04-26T08:56:39.941Z</time></trkpt><trkpt lat="45.5986569" lon="10.843029"><ele>124.0</ele><time>2026-04-26T08:56:40.941Z</time></trkpt><trkpt lat="45.5987658" lon="10.8431334"><ele>124.0</ele><time>2026-04-26T08:56:41.941Z</time></trkpt><trkpt lat="45.5988789" lon="10.8432448"><ele>124.0</ele><time>2026-04-26T08:56:42.941Z</time></trkpt><trkpt lat="45.5989967" lon="10.8433495"><ele>124.0</ele><time>2026-04-26T08:56:43.941Z</time></trkpt><trkpt lat="45.5991188" lon="10.8434416"><ele>124.0</ele><time>2026-04-26T08:56:44.941Z</time></trkpt><trkpt lat="45.599242" lon="10.8435313"><ele>123.5</ele><time>2026-04-26T08:56:45.941Z</time></trkpt><trkpt lat="45.5993661" lon="10.8436205"><ele>123.0</ele><time>2026-04-26T08:56:46.941Z</time></trkpt><trkpt lat="45.5994907" lon="10.8437097"><ele>122.5</ele><time>2026-04-26T08:56:47.941Z</time></trkpt><trkpt lat="45.5996157" lon="10.8437983"><ele>122.0</ele><time>2026-04-26T08:56:48.941Z</time></trkpt><trkpt lat="45.5997416" lon="10.8438857"><ele>122.0</ele><time>2026-04-26T08:56:49.94Z</time></trkpt><trkpt lat="45.5998686" lon="10.84397"><ele>122.0</ele><time>2026-04-26T08:56:50.94Z</time></trkpt><trkpt lat="45.5999962" lon="10.8440531"><ele>122.0</ele><time>2026-04-26T08:56:51.94Z</time></trkpt><trkpt lat="45.6001233" lon="10.8441366"><ele>122.0</ele><time>2026-04-26T08:56:52.94Z</time></trkpt><trkpt lat="45.6002492" lon="10.8442217"><ele>121.0</ele><time>2026-04-26T08:56:53.94Z</time></trkpt><trkpt lat="45.6003723" lon="10.8443119"><ele>120.0</ele><time>2026-04-26T08:56:54.941Z</time></trkpt><trkpt lat="45.6004922" lon="10.8444095"><ele>119.0</ele><time>2026-04-26T08:56:55.94Z</time></trkpt><trkpt lat="45.600606" lon="10.8445204"><ele>118.0</ele><time>2026-04-26T08:56:56.941Z</time></trkpt><trkpt lat="45.600716" lon="10.8446368"><ele>118.0</ele><time>2026-04-26T08:56:57.941Z</time></trkpt><trkpt lat="45.6008279" lon="10.8447466"><ele>118.0</ele><time>2026-04-26T08:56:58.94Z</time></trkpt><trkpt lat="45.6009423" lon="10.8448522"><ele>118.0</ele><time>2026-04-26T08:56:59.941Z</time></trkpt><trkpt lat="45.6010593" lon="10.8449541"><ele>118.0</ele><time>2026-04-26T08:57:00.941Z</time></trkpt><trkpt lat="45.6011773" lon="10.8450531"><ele>118.25</ele><time>2026-04-26T08:57:01.941Z</time></trkpt><trkpt lat="45.6012962" lon="10.84515"><ele>118.5</ele><time>2026-04-26T08:57:02.94Z</time></trkpt><trkpt lat="45.601417" lon="10.8452453"><ele>118.75</ele><time>2026-04-26T08:57:03.94Z</time></trkpt><trkpt lat="45.60154" lon="10.8453381"><ele>119.0</ele><time>2026-04-26T08:57:04.941Z</time></trkpt><trkpt lat="45.6016625" lon="10.8454303"><ele>119.0</ele><time>2026-04-26T08:57:05.941Z</time></trkpt><trkpt lat="45.6017845" lon="10.8455232"><ele>119.0</ele><time>2026-04-26T08:57:06.941Z</time></trkpt><trkpt lat="45.6019048" lon="10.8456207"><ele>119.0</ele><time>2026-04-26T08:57:07.941Z</time></trkpt><trkpt lat="45.6020257" lon="10.8457182"><ele>119.0</ele><time>2026-04-26T08:57:08.94Z</time></trkpt><trkpt lat="45.6021494" lon="10.8458127"><ele>118.75</ele><time>2026-04-26T08:57:09.941Z</time></trkpt><trkpt lat="45.6022764" lon="10.8459078"><ele>118.5</ele><time>2026-04-26T08:57:10.94Z</time></trkpt><trkpt lat="45.6024034" lon="10.8460108"><ele>118.25</ele><time>2026-04-26T08:57:11.94Z</time></trkpt><trkpt lat="45.6025311" lon="10.8461198"><ele>118.0</ele><time>2026-04-26T08:57:12.941Z</time></trkpt><trkpt lat="45.6026596" lon="10.8462314"><ele>118.0</ele><time>2026-04-26T08:57:13.941Z</time></trkpt><trkpt lat="45.6027843" lon="10.8463408"><ele>118.0</ele><time>2026-04-26T08:57:14.941Z</time></trkpt><trkpt lat="45.6029055" lon="10.8464469"><ele>118.0</ele><time>2026-04-26T08:57:15.941Z</time></trkpt><trkpt lat="45.6030242" lon="10.8465521"><ele>118.0</ele><time>2026-04-26T08:57:16.94Z</time></trkpt><trkpt lat="45.6031413" lon="10.8466557"><ele>117.5</ele><time>2026-04-26T08:57:17.94Z</time></trkpt><trkpt lat="45.6032585" lon="10.8467557"><ele>117.0</ele><time>2026-04-26T08:57:18.94Z</time></trkpt><trkpt lat="45.6033755" lon="10.8468549"><ele>116.5</ele><time>2026-04-26T08:57:19.94Z</time></trkpt><trkpt lat="45.6034916" lon="10.8469564"><ele>116.0</ele><time>2026-04-26T08:57:20.941Z</time></trkpt><trkpt lat="45.6036075" lon="10.8470583"><ele>116.25</ele><time>2026-04-26T08:57:21.941Z</time></trkpt><trkpt lat="45.6037237" lon="10.8471604"><ele>116.5</ele><time>2026-04-26T08:57:22.941Z</time></trkpt><trkpt lat="45.6038401" lon="10.8472646"><ele>116.75</ele><time>2026-04-26T08:57:23.94Z</time></trkpt><trkpt lat="45.6039562" lon="10.8473701"><ele>117.0</ele><time>2026-04-26T08:57:24.94Z</time></trkpt><trkpt lat="45.6040729" lon="10.8474751"><ele>117.0</ele><time>2026-04-26T08:57:25.941Z</time></trkpt><trkpt lat="45.6041906" lon="10.8475796"><ele>117.0</ele><time>2026-04-26T08:57:26.941Z</time></trkpt><trkpt lat="45.6043099" lon="10.8476826"><ele>117.0</ele><time>2026-04-26T08:57:27.94Z</time></trkpt><trkpt lat="45.6044304" lon="10.847785"><ele>117.0</ele><time>2026-04-26T08:57:28.941Z</time></trkpt><trkpt lat="45.6045514" lon="10.8478855"><ele>116.75</ele><time>2026-04-26T08:57:29.94Z</time></trkpt><trkpt lat="45.6046701" lon="10.8479896"><ele>116.5</ele><time>2026-04-26T08:57:30.94Z</time></trkpt><trkpt lat="45.604788" lon="10.8480977"><ele>116.25</ele><time>2026-04-26T08:57:31.941Z</time></trkpt><trkpt lat="45.6049067" lon="10.8482016"><ele>116.0</ele><time>2026-04-26T08:57:32.94Z</time></trkpt><trkpt lat="45.6050259" lon="10.848303"><ele>116.0</ele><time>2026-04-26T08:57:33.941Z</time></trkpt><trkpt lat="45.6051443" lon="10.8484045"><ele>116.0</ele><time>2026-04-26T08:57:34.94Z</time></trkpt><trkpt lat="45.6052621" lon="10.8485072"><ele>116.0</ele><time>2026-04-26T08:57:35.941Z</time></trkpt><trkpt lat="45.6053781" lon="10.8486102"><ele>116.0</ele><time>2026-04-26T08:57:36.941Z</time></trkpt><trkpt lat="45.6054948" lon="10.8487126"><ele>115.5</ele><time>2026-04-26T08:57:37.941Z</time></trkpt><trkpt lat="45.6056091" lon="10.8488142"><ele>115.0</ele><time>2026-04-26T08:57:38.941Z</time></trkpt><trkpt lat="45.6057238" lon="10.8489154"><ele>114.5</ele><time>2026-04-26T08:57:39.941Z</time></trkpt><trkpt lat="45.6058374" lon="10.849017"><ele>114.0</ele><time>2026-04-26T08:57:40.941Z</time></trkpt><trkpt lat="45.6059508" lon="10.8491194"><ele>114.0</ele><time>2026-04-26T08:57:41.941Z</time></trkpt><trkpt lat="45.6060644" lon="10.8492221"><ele>114.0</ele><time>2026-04-26T08:57:42.941Z</time></trkpt><trkpt lat="45.6061785" lon="10.8493231"><ele>114.0</ele><time>2026-04-26T08:57:43.941Z</time></trkpt><trkpt lat="45.6062933" lon="10.8494225"><ele>114.0</ele><time>2026-04-26T08:57:44.941Z</time></trkpt><trkpt lat="45.6064072" lon="10.849521"><ele>114.0</ele><time>2026-04-26T08:57:45.941Z</time></trkpt><trkpt lat="45.6065212" lon="10.8496222"><ele>114.0</ele><time>2026-04-26T08:57:46.94Z</time></trkpt><trkpt lat="45.6066369" lon="10.8497217"><ele>114.0</ele><time>2026-04-26T08:57:47.941Z</time></trkpt><trkpt lat="45.6067534" lon="10.8498184"><ele>114.0</ele><time>2026-04-26T08:57:48.941Z</time></trkpt><trkpt lat="45.6068707" lon="10.8499124"><ele>114.0</ele><time>2026-04-26T08:57:49.94Z</time></trkpt><trkpt lat="45.606991" lon="10.850002"><ele>114.0</ele><time>2026-04-26T08:57:50.941Z</time></trkpt><trkpt lat="45.6071122" lon="10.8500902"><ele>114.0</ele><time>2026-04-26T08:57:51.941Z</time></trkpt><trkpt lat="45.6072339" lon="10.8501713"><ele>114.0</ele><time>2026-04-26T08:57:52.941Z</time></trkpt><trkpt lat="45.6073582" lon="10.8502452"><ele>113.5</ele><time>2026-04-26T08:57:53.941Z</time></trkpt><trkpt lat="45.607486" lon="10.8503118"><ele>113.0</ele><time>2026-04-26T08:57:54.941Z</time></trkpt><trkpt lat="45.6076167" lon="10.850371"><ele>112.5</ele><time>2026-04-26T08:57:55.941Z</time></trkpt><trkpt lat="45.607749" lon="10.8504264"><ele>112.0</ele><time>2026-04-26T08:57:56.941Z</time></trkpt><trkpt lat="45.6078816" lon="10.8504812"><ele>112.0</ele><time>2026-04-26T08:57:57.94Z</time></trkpt><trkpt lat="45.6080137" lon="10.8505415"><ele>112.0</ele><time>2026-04-26T08:57:58.941Z</time></trkpt><trkpt lat="45.6081434" lon="10.8506048"><ele>112.0</ele><time>2026-04-26T08:57:59.941Z</time></trkpt><trkpt lat="45.6082739" lon="10.8506677"><ele>112.0</ele><time>2026-04-26T08:58:00.939Z</time></trkpt><trkpt lat="45.6084041" lon="10.8507299"><ele>112.0</ele><time>2026-04-26T08:58:01.941Z</time></trkpt><trkpt lat="45.6085359" lon="10.8507908"><ele>112.0</ele><time>2026-04-26T08:58:02.941Z</time></trkpt><trkpt lat="45.6086667" lon="10.8508503"><ele>112.0</ele><time>2026-04-26T08:58:03.941Z</time></trkpt><trkpt lat="45.6087971" lon="10.8509083"><ele>112.0</ele><time>2026-04-26T08:58:04.941Z</time></trkpt><trkpt lat="45.6089273" lon="10.8509635"><ele>112.25</ele><time>2026-04-26T08:58:05.94Z</time></trkpt><trkpt lat="45.609058" lon="10.8510196"><ele>112.5</ele><time>2026-04-26T08:58:06.941Z</time></trkpt><trkpt lat="45.6091875" lon="10.8510784"><ele>112.75</ele><time>2026-04-26T08:58:07.941Z</time></trkpt><trkpt lat="45.6093155" lon="10.851139"><ele>113.0</ele><time>2026-04-26T08:58:08.941Z</time></trkpt><trkpt lat="45.6094413" lon="10.8512002"><ele>112.75</ele><time>2026-04-26T08:58:09.941Z</time></trkpt><trkpt lat="45.6095666" lon="10.851267"><ele>112.5</ele><time>2026-04-26T08:58:10.941Z</time></trkpt><trkpt lat="45.6096888" lon="10.8513401"><ele>112.25</ele><time>2026-04-26T08:58:11.94Z</time></trkpt><trkpt lat="45.6098083" lon="10.8514234"><ele>112.0</ele><time>2026-04-26T08:58:12.94Z</time></trkpt><trkpt lat="45.6099259" lon="10.8515129"><ele>112.0</ele><time>2026-04-26T08:58:13.941Z</time></trkpt><trkpt lat="45.610042" lon="10.8516033"><ele>112.0</ele><time>2026-04-26T08:58:14.941Z</time></trkpt><trkpt lat="45.6101601" lon="10.8516933"><ele>112.0</ele><time>2026-04-26T08:58:15.941Z</time></trkpt><trkpt lat="45.6102803" lon="10.8517847"><ele>112.0</ele><time>2026-04-26T08:58:16.941Z</time></trkpt><trkpt lat="45.6104013" lon="10.8518787"><ele>111.5</ele><time>2026-04-26T08:58:17.941Z</time></trkpt><trkpt lat="45.6105248" lon="10.8519726"><ele>111.0</ele><time>2026-04-26T08:58:18.94Z</time></trkpt><trkpt lat="45.61065" lon="10.8520641"><ele>110.5</ele><time>2026-04-26T08:58:19.941Z</time></trkpt><trkpt lat="45.6107739" lon="10.8521535"><ele>110.0</ele><time>2026-04-26T08:58:20.941Z</time></trkpt><trkpt lat="45.610896" lon="10.8522459"><ele>110.0</ele><time>2026-04-26T08:58:21.941Z</time></trkpt><trkpt lat="45.6110186" lon="10.8523376"><ele>110.0</ele><time>2026-04-26T08:58:22.94Z</time></trkpt><trkpt lat="45.611144" lon="10.8524248"><ele>110.0</ele><time>2026-04-26T08:58:23.94Z</time></trkpt><trkpt lat="45.6112698" lon="10.8525073"><ele>110.0</ele><time>2026-04-26T08:58:24.941Z</time></trkpt><trkpt lat="45.6113996" lon="10.8525756"><ele>109.5</ele><time>2026-04-26T08:58:25.941Z</time></trkpt><trkpt lat="45.6115356" lon="10.8526143"><ele>109.0</ele><time>2026-04-26T08:58:26.941Z</time></trkpt><trkpt lat="45.611675" lon="10.8526219"><ele>108.5</ele><time>2026-04-26T08:58:27.941Z</time></trkpt><trkpt lat="45.6118161" lon="10.8526001"><ele>108.0</ele><time>2026-04-26T08:58:28.941Z</time></trkpt><trkpt lat="45.6119544" lon="10.8525508"><ele>107.5</ele><time>2026-04-26T08:58:29.941Z</time></trkpt><trkpt lat="45.6120976" lon="10.8524971"><ele>107.0</ele><time>2026-04-26T08:58:30.94Z</time></trkpt><trkpt lat="45.6122382" lon="10.8524539"><ele>106.5</ele><time>2026-04-26T08:58:31.941Z</time></trkpt><trkpt lat="45.6123762" lon="10.852422"><ele>106.0</ele><time>2026-04-26T08:58:32.94Z</time></trkpt><trkpt lat="45.6125027" lon="10.8523575"><ele>106.0</ele><time>2026-04-26T08:58:33.941Z</time></trkpt><trkpt lat="45.6126329" lon="10.8522924"><ele>106.0</ele><time>2026-04-26T08:58:34.941Z</time></trkpt><trkpt lat="45.6127585" lon="10.8522262"><ele>106.0</ele><time>2026-04-26T08:58:35.941Z</time></trkpt><trkpt lat="45.6128867" lon="10.8521626"><ele>106.0</ele><time>2026-04-26T08:58:36.941Z</time></trkpt><trkpt lat="45.6130152" lon="10.8521017"><ele>105.0</ele><time>2026-04-26T08:58:37.941Z</time></trkpt><trkpt lat="45.6131433" lon="10.8520417"><ele>104.0</ele><time>2026-04-26T08:58:38.941Z</time></trkpt><trkpt lat="45.6132728" lon="10.8519812"><ele>103.0</ele><time>2026-04-26T08:58:39.941Z</time></trkpt><trkpt lat="45.613405" lon="10.8519207"><ele>102.0</ele><time>2026-04-26T08:58:40.94Z</time></trkpt><trkpt lat="45.6135357" lon="10.8518631"><ele>102.0</ele><time>2026-04-26T08:58:41.941Z</time></trkpt><trkpt lat="45.6136681" lon="10.8518165"><ele>102.0</ele><time>2026-04-26T08:58:42.941Z</time></trkpt><trkpt lat="45.6138028" lon="10.8517916"><ele>102.0</ele><time>2026-04-26T08:58:43.94Z</time></trkpt><trkpt lat="45.6139398" lon="10.8517905"><ele>102.0</ele><time>2026-04-26T08:58:44.94Z</time></trkpt><trkpt lat="45.614078" lon="10.8518072"><ele>102.0</ele><time>2026-04-26T08:58:45.941Z</time></trkpt><trkpt lat="45.6142159" lon="10.8518223"><ele>102.0</ele><time>2026-04-26T08:58:46.941Z</time></trkpt><trkpt lat="45.6143562" lon="10.8518357"><ele>102.0</ele><time>2026-04-26T08:58:47.94Z</time></trkpt><trkpt lat="45.6144967" lon="10.851847"><ele>102.0</ele><time>2026-04-26T08:58:48.941Z</time></trkpt><trkpt lat="45.614638" lon="10.851866"><ele>102.75</ele><time>2026-04-26T08:58:49.941Z</time></trkpt><trkpt lat="45.6147767" lon="10.8518939"><ele>103.5</ele><time>2026-04-26T08:58:50.941Z</time></trkpt><trkpt lat="45.6149127" lon="10.8519293"><ele>104.25</ele><time>2026-04-26T08:58:51.94Z</time></trkpt><trkpt lat="45.6150472" lon="10.8519667"><ele>105.0</ele><time>2026-04-26T08:58:52.941Z</time></trkpt><trkpt lat="45.6151822" lon="10.8520019"><ele>105.0</ele><time>2026-04-26T08:58:53.94Z</time></trkpt><trkpt lat="45.6153181" lon="10.8520339"><ele>105.0</ele><time>2026-04-26T08:58:54.94Z</time></trkpt><trkpt lat="45.6154527" lon="10.8520672"><ele>105.0</ele><time>2026-04-26T08:58:55.94Z</time></trkpt><trkpt lat="45.6155893" lon="10.8520966"><ele>105.0</ele><time>2026-04-26T08:58:56.941Z</time></trkpt><trkpt lat="45.615725" lon="10.8521248"><ele>104.75</ele><time>2026-04-26T08:58:57.94Z</time></trkpt><trkpt lat="45.6158595" lon="10.852151"><ele>104.5</ele><time>2026-04-26T08:58:58.941Z</time></trkpt><trkpt lat="45.6159926" lon="10.8521705"><ele>104.25</ele><time>2026-04-26T08:58:59.941Z</time></trkpt><trkpt lat="45.6161254" lon="10.8521854"><ele>104.0</ele><time>2026-04-26T08:59:00.94Z</time></trkpt><trkpt lat="45.6162623" lon="10.8521955"><ele>104.0</ele><time>2026-04-26T08:59:01.94Z</time></trkpt><trkpt lat="45.6163963" lon="10.8522088"><ele>104.0</ele><time>2026-04-26T08:59:02.941Z</time></trkpt><trkpt lat="45.61653" lon="10.852221"><ele>104.0</ele><time>2026-04-26T08:59:03.941Z</time></trkpt><trkpt lat="45.6166635" lon="10.8522354"><ele>104.0</ele><time>2026-04-26T08:59:04.94Z</time></trkpt><trkpt lat="45.6167941" lon="10.8522561"><ele>104.0</ele><time>2026-04-26T08:59:05.94Z</time></trkpt><trkpt lat="45.6169241" lon="10.8522844"><ele>104.0</ele><time>2026-04-26T08:59:06.941Z</time></trkpt><trkpt lat="45.6170557" lon="10.8523162"><ele>104.0</ele><time>2026-04-26T08:59:07.94Z</time></trkpt><trkpt lat="45.6171866" lon="10.8523504"><ele>104.0</ele><time>2026-04-26T08:59:08.94Z</time></trkpt><trkpt lat="45.6173197" lon="10.8523814"><ele>104.75</ele><time>2026-04-26T08:59:09.94Z</time></trkpt><trkpt lat="45.6174574" lon="10.8524156"><ele>105.5</ele><time>2026-04-26T08:59:10.941Z</time></trkpt><trkpt lat="45.6175939" lon="10.852449"><ele>106.25</ele><time>2026-04-26T08:59:11.94Z</time></trkpt><trkpt lat="45.6177278" lon="10.852482"><ele>107.0</ele><time>2026-04-26T08:59:12.94Z</time></trkpt><trkpt lat="45.6178614" lon="10.8525171"><ele>105.25</ele><time>2026-04-26T08:59:13.941Z</time></trkpt><trkpt lat="45.6179936" lon="10.8525533"><ele>103.5</ele><time>2026-04-26T08:59:14.941Z</time></trkpt><trkpt lat="45.6181223" lon="10.8525898"><ele>101.75</ele><time>2026-04-26T08:59:15.941Z</time></trkpt><trkpt lat="45.6182527" lon="10.8526208"><ele>100.0</ele><time>2026-04-26T08:59:16.94Z</time></trkpt><trkpt lat="45.6183811" lon="10.852649"><ele>100.0</ele><time>2026-04-26T08:59:17.941Z</time></trkpt><trkpt lat="45.6185128" lon="10.852675"><ele>100.0</ele><time>2026-04-26T08:59:18.941Z</time></trkpt><trkpt lat="45.6186428" lon="10.8526949"><ele>100.0</ele><time>2026-04-26T08:59:19.941Z</time></trkpt><trkpt lat="45.6187756" lon="10.8527143"><ele>100.0</ele><time>2026-04-26T08:59:20.94Z</time></trkpt><trkpt lat="45.6189025" lon="10.8527465"><ele>100.5</ele><time>2026-04-26T08:59:21.941Z</time></trkpt><trkpt lat="45.6190284" lon="10.852792"><ele>101.0</ele><time>2026-04-26T08:59:22.94Z</time></trkpt><trkpt lat="45.6191539" lon="10.8528528"><ele>101.5</ele><time>2026-04-26T08:59:23.94Z</time></trkpt><trkpt lat="45.6192752" lon="10.8529242"><ele>102.0</ele><time>2026-04-26T08:59:24.941Z</time></trkpt><trkpt lat="45.6193965" lon="10.8529989"><ele>104.5</ele><time>2026-04-26T08:59:25.941Z</time></trkpt><trkpt lat="45.6195162" lon="10.8530723"><ele>107.0</ele><time>2026-04-26T08:59:26.94Z</time></trkpt><trkpt lat="45.6196326" lon="10.8531442"><ele>109.5</ele><time>2026-04-26T08:59:27.941Z</time></trkpt><trkpt lat="45.6197511" lon="10.8532129"><ele>112.0</ele><time>2026-04-26T08:59:28.941Z</time></trkpt><trkpt lat="45.6198709" lon="10.8532778"><ele>112.0</ele><time>2026-04-26T08:59:29.941Z</time></trkpt><trkpt lat="45.6199928" lon="10.8533459"><ele>112.0</ele><time>2026-04-26T08:59:30.94Z</time></trkpt><trkpt lat="45.6201153" lon="10.8534173"><ele>112.0</ele><time>2026-04-26T08:59:31.94Z</time></trkpt><trkpt lat="45.6202397" lon="10.8534889"><ele>112.0</ele><time>2026-04-26T08:59:32.941Z</time></trkpt><trkpt lat="45.6203628" lon="10.8535652"><ele>110.75</ele><time>2026-04-26T08:59:33.941Z</time></trkpt><trkpt lat="45.6204873" lon="10.85364"><ele>109.5</ele><time>2026-04-26T08:59:34.94Z</time></trkpt><trkpt lat="45.6206104" lon="10.853712"><ele>108.25</ele><time>2026-04-26T08:59:35.94Z</time></trkpt><trkpt lat="45.6207334" lon="10.8537864"><ele>107.0</ele><time>2026-04-26T08:59:36.941Z</time></trkpt><trkpt lat="45.620855" lon="10.8538624"><ele>107.0</ele><time>2026-04-26T08:59:37.941Z</time></trkpt><trkpt lat="45.6209736" lon="10.8539468"><ele>107.0</ele><time>2026-04-26T08:59:38.94Z</time></trkpt><trkpt lat="45.6210863" lon="10.8540439"><ele>107.0</ele><time>2026-04-26T08:59:39.94Z</time></trkpt><trkpt lat="45.621193" lon="10.8541502"><ele>107.0</ele><time>2026-04-26T08:59:40.94Z</time></trkpt><trkpt lat="45.6212959" lon="10.8542617"><ele>108.0</ele><time>2026-04-26T08:59:41.941Z</time></trkpt><trkpt lat="45.6213996" lon="10.854376"><ele>109.0</ele><time>2026-04-26T08:59:42.94Z</time></trkpt><trkpt lat="45.6215035" lon="10.8544903"><ele>110.0</ele><time>2026-04-26T08:59:43.941Z</time></trkpt><trkpt lat="45.6216081" lon="10.8546035"><ele>111.0</ele><time>2026-04-26T08:59:44.941Z</time></trkpt><trkpt lat="45.6217124" lon="10.8547154"><ele>111.0</ele><time>2026-04-26T08:59:45.94Z</time></trkpt><trkpt lat="45.6218184" lon="10.8548271"><ele>111.0</ele><time>2026-04-26T08:59:46.94Z</time></trkpt><trkpt lat="45.6219199" lon="10.854942"><ele>111.0</ele><time>2026-04-26T08:59:47.94Z</time></trkpt><trkpt lat="45.6220172" lon="10.8550634"><ele>111.0</ele><time>2026-04-26T08:59:48.94Z</time></trkpt><trkpt lat="45.6221067" lon="10.8551928"><ele>113.25</ele><time>2026-04-26T08:59:49.941Z</time></trkpt><trkpt lat="45.6221847" lon="10.8553367"><ele>115.5</ele><time>2026-04-26T08:59:50.941Z</time></trkpt><trkpt lat="45.6222558" lon="10.8554869"><ele>117.75</ele><time>2026-04-26T08:59:51.94Z</time></trkpt><trkpt lat="45.6223265" lon="10.8556373"><ele>120.0</ele><time>2026-04-26T08:59:52.941Z</time></trkpt><trkpt lat="45.6223998" lon="10.8557849"><ele>120.0</ele><time>2026-04-26T08:59:53.94Z</time></trkpt><trkpt lat="45.6224739" lon="10.8559311"><ele>120.0</ele><time>2026-04-26T08:59:54.941Z</time></trkpt><trkpt lat="45.6225467" lon="10.8560808"><ele>120.0</ele><time>2026-04-26T08:59:55.941Z</time></trkpt><trkpt lat="45.6226165" lon="10.8562327"><ele>120.0</ele><time>2026-04-26T08:59:56.941Z</time></trkpt><trkpt lat="45.6226911" lon="10.8563802"><ele>120.0</ele><time>2026-04-26T08:59:57.94Z</time></trkpt><trkpt lat="45.6227643" lon="10.8565292"><ele>120.0</ele><time>2026-04-26T08:59:58.941Z</time></trkpt><trkpt lat="45.6228373" lon="10.8566778"><ele>120.0</ele><time>2026-04-26T08:59:59.941Z</time></trkpt><trkpt lat="45.6229156" lon="10.8568265"><ele>120.0</ele><time>2026-04-26T09:00:00.94Z</time></trkpt><trkpt lat="45.622993" lon="10.8569751"><ele>120.0</ele><time>2026-04-26T09:00:01.941Z</time></trkpt><trkpt lat="45.6230672" lon="10.8571262"><ele>120.0</ele><time>2026-04-26T09:00:02.941Z</time></trkpt><trkpt lat="45.6231422" lon="10.8572781"><ele>120.0</ele><time>2026-04-26T09:00:03.94Z</time></trkpt><trkpt lat="45.6232157" lon="10.8574273"><ele>120.0</ele><time>2026-04-26T09:00:04.941Z</time></trkpt><trkpt lat="45.6232913" lon="10.8575775"><ele>120.0</ele><time>2026-04-26T09:00:05.941Z</time></trkpt><trkpt lat="45.6233657" lon="10.8577256"><ele>120.0</ele><time>2026-04-26T09:00:06.941Z</time></trkpt><trkpt lat="45.6234409" lon="10.8578751"><ele>120.0</ele><time>2026-04-26T09:00:07.941Z</time></trkpt><trkpt lat="45.6235146" lon="10.8580201"><ele>120.0</ele><time>2026-04-26T09:00:08.941Z</time></trkpt><trkpt lat="45.6235871" lon="10.8581675"><ele>122.0</ele><time>2026-04-26T09:00:09.941Z</time></trkpt><trkpt lat="45.6236579" lon="10.8583139"><ele>124.0</ele><time>2026-04-26T09:00:10.941Z</time></trkpt><trkpt lat="45.623725" lon="10.8584644"><ele>126.0</ele><time>2026-04-26T09:00:11.941Z</time></trkpt><trkpt lat="45.6237865" lon="10.8586221"><ele>128.0</ele><time>2026-04-26T09:00:12.941Z</time></trkpt><trkpt lat="45.6238389" lon="10.8587846"><ele>128.5</ele><time>2026-04-26T09:00:13.94Z</time></trkpt><trkpt lat="45.6238836" lon="10.8589543"><ele>129.0</ele><time>2026-04-26T09:00:14.941Z</time></trkpt><trkpt lat="45.6239252" lon="10.8591291"><ele>129.5</ele><time>2026-04-26T09:00:15.94Z</time></trkpt><trkpt lat="45.6239652" lon="10.8593044"><ele>130.0</ele><time>2026-04-26T09:00:16.941Z</time></trkpt><trkpt lat="45.624006" lon="10.8594804"><ele>130.0</ele><time>2026-04-26T09:00:17.94Z</time></trkpt><trkpt lat="45.6240445" lon="10.8596594"><ele>130.0</ele><time>2026-04-26T09:00:18.94Z</time></trkpt><trkpt lat="45.6240843" lon="10.8598393"><ele>130.0</ele><time>2026-04-26T09:00:19.941Z</time></trkpt><trkpt lat="45.6241205" lon="10.860021"><ele>130.0</ele><time>2026-04-26T09:00:20.941Z</time></trkpt><trkpt lat="45.6241587" lon="10.8602023"><ele>130.5</ele><time>2026-04-26T09:00:21.94Z</time></trkpt><trkpt lat="45.6241991" lon="10.8603797"><ele>131.0</ele><time>2026-04-26T09:00:22.941Z</time></trkpt><trkpt lat="45.6242387" lon="10.8605613"><ele>131.5</ele><time>2026-04-26T09:00:23.94Z</time></trkpt><trkpt lat="45.6242809" lon="10.8607413"><ele>132.0</ele><time>2026-04-26T09:00:24.941Z</time></trkpt><trkpt lat="45.6243278" lon="10.8609245"><ele>131.25</ele><time>2026-04-26T09:00:25.94Z</time></trkpt><trkpt lat="45.6243822" lon="10.8611034"><ele>130.5</ele><time>2026-04-26T09:00:26.94Z</time></trkpt><trkpt lat="45.6244448" lon="10.8612827"><ele>129.75</ele><time>2026-04-26T09:00:27.941Z</time></trkpt><trkpt lat="45.6245097" lon="10.8614628"><ele>129.0</ele><time>2026-04-26T09:00:28.94Z</time></trkpt><trkpt lat="45.6245774" lon="10.8616438"><ele>129.0</ele><time>2026-04-26T09:00:29.941Z</time></trkpt><trkpt lat="45.6246433" lon="10.8618235"><ele>129.0</ele><time>2026-04-26T09:00:30.94Z</time></trkpt><trkpt lat="45.6247052" lon="10.862001"><ele>129.0</ele><time>2026-04-26T09:00:31.94Z</time></trkpt><trkpt lat="45.6247712" lon="10.8621776"><ele>129.0</ele><time>2026-04-26T09:00:32.941Z</time></trkpt><trkpt lat="45.6248391" lon="10.8623492"><ele>129.0</ele><time>2026-04-26T09:00:33.941Z</time></trkpt><trkpt lat="45.6249106" lon="10.8625101"><ele>129.0</ele><time>2026-04-26T09:00:34.94Z</time></trkpt><trkpt lat="45.6249813" lon="10.8626441"><ele>129.0</ele><time>2026-04-26T09:00:35.939Z</time></trkpt><trkpt lat="45.6250443" lon="10.8627562"><ele>129.0</ele><time>2026-04-26T09:00:36.94Z</time></trkpt><trkpt lat="45.6250975" lon="10.8628452"><ele>129.0</ele><time>2026-04-26T09:00:37.941Z</time></trkpt><trkpt lat="45.6251243" lon="10.8629704"><ele>128.83333333333334</ele><time>2026-04-26T09:00:39.941Z</time></trkpt><trkpt lat="45.6250657" lon="10.8630846"><ele>128.66666666666666</ele><time>2026-04-26T09:00:41.941Z</time></trkpt><trkpt lat="45.6250337" lon="10.863178"><ele>128.5</ele><time>2026-04-26T09:00:42.939Z</time></trkpt><trkpt lat="45.6250085" lon="10.863281"><ele>128.33333333333331</ele><time>2026-04-26T09:00:43.94Z</time></trkpt><trkpt lat="45.62499" lon="10.8633916"><ele>128.16666666666666</ele><time>2026-04-26T09:00:44.94Z</time></trkpt><trkpt lat="45.6249772" lon="10.8635289"><ele>128.0</ele><time>2026-04-26T09:00:45.94Z</time></trkpt><trkpt lat="45.6249715" lon="10.8636677"><ele>127.60000000000001</ele><time>2026-04-26T09:00:46.94Z</time></trkpt><trkpt lat="45.6249766" lon="10.863821"><ele>127.20000000000002</ele><time>2026-04-26T09:00:47.94Z</time></trkpt><trkpt lat="45.6249659" lon="10.8639654"><ele>126.8</ele><time>2026-04-26T09:00:48.94Z</time></trkpt><trkpt lat="45.6249365" lon="10.8641004"><ele>126.4</ele><time>2026-04-26T09:00:49.939Z</time></trkpt><trkpt lat="45.6248848" lon="10.8642378"><ele>126.0</ele><time>2026-04-26T09:00:50.94Z</time></trkpt><trkpt lat="45.6248237" lon="10.8643762"><ele>125.66666666666667</ele><time>2026-04-26T09:00:51.939Z</time></trkpt><trkpt lat="45.6247639" lon="10.8645142"><ele>125.33333333333334</ele><time>2026-04-26T09:00:52.94Z</time></trkpt><trkpt lat="45.6247155" lon="10.8646227"><ele>125.0</ele><time>2026-04-26T09:00:53.94Z</time></trkpt><trkpt lat="45.6246799" lon="10.8647147"><ele>124.66666666666667</ele><time>2026-04-26T09:00:54.94Z</time></trkpt><trkpt lat="45.6246488" lon="10.864847"><ele>124.33333333333334</ele><time>2026-04-26T09:00:56.94Z</time></trkpt><trkpt lat="45.6246964" lon="10.8649265"><ele>124.0</ele><time>2026-04-26T09:00:59.939Z</time></trkpt><trkpt lat="45.62477" lon="10.8649542"><ele>124.0</ele><time>2026-04-26T09:01:01.939Z</time></trkpt><trkpt lat="45.6248832" lon="10.8649981"><ele>124.0</ele><time>2026-04-26T09:01:03.939Z</time></trkpt><trkpt lat="45.6249622" lon="10.8650286"><ele>124.0</ele><time>2026-04-26T09:01:04.94Z</time></trkpt><trkpt lat="45.6250557" lon="10.8650724"><ele>124.0</ele><time>2026-04-26T09:01:05.94Z</time></trkpt><trkpt lat="45.6251655" lon="10.8651245"><ele>124.0</ele><time>2026-04-26T09:01:06.939Z</time></trkpt><trkpt lat="45.6252855" lon="10.8651864"><ele>124.0</ele><time>2026-04-26T09:01:07.94Z</time></trkpt><trkpt lat="45.6254105" lon="10.8652702"><ele>124.0</ele><time>2026-04-26T09:01:08.94Z</time></trkpt><trkpt lat="45.6255485" lon="10.8653808"><ele>124.0</ele><time>2026-04-26T09:01:09.94Z</time></trkpt><trkpt lat="45.625697" lon="10.865504"><ele>124.0</ele><time>2026-04-26T09:01:10.94Z</time></trkpt><trkpt lat="45.6258377" lon="10.865629"><ele>124.0</ele><time>2026-04-26T09:01:11.939Z</time></trkpt><trkpt lat="45.625987" lon="10.865745"><ele>124.0</ele><time>2026-04-26T09:01:12.94Z</time></trkpt><trkpt lat="45.6261389" lon="10.8658674"><ele>123.66666666666667</ele><time>2026-04-26T09:01:13.94Z</time></trkpt><trkpt lat="45.6262854" lon="10.8659932"><ele>123.33333333333334</ele><time>2026-04-26T09:01:14.939Z</time></trkpt><trkpt lat="45.6264215" lon="10.8661104"><ele>123.0</ele><time>2026-04-26T09:01:15.94Z</time></trkpt><trkpt lat="45.6265651" lon="10.8662356"><ele>123.0</ele><time>2026-04-26T09:01:16.94Z</time></trkpt><trkpt lat="45.6267087" lon="10.8663556"><ele>123.0</ele><time>2026-04-26T09:01:17.94Z</time></trkpt><trkpt lat="45.626851" lon="10.8664775"><ele>123.0</ele><time>2026-04-26T09:01:18.94Z</time></trkpt><trkpt lat="45.6269936" lon="10.8665971"><ele>122.66666666666666</ele><time>2026-04-26T09:01:19.939Z</time></trkpt><trkpt lat="45.6271369" lon="10.8667167"><ele>122.33333333333333</ele><time>2026-04-26T09:01:20.939Z</time></trkpt><trkpt lat="45.627278" lon="10.8668406"><ele>122.0</ele><time>2026-04-26T09:01:21.94Z</time></trkpt><trkpt lat="45.6274187" lon="10.8669622"><ele>121.66666666666666</ele><time>2026-04-26T09:01:22.94Z</time></trkpt><trkpt lat="45.6275562" lon="10.8670797"><ele>121.33333333333334</ele><time>2026-04-26T09:01:23.939Z</time></trkpt><trkpt lat="45.6276922" lon="10.8671952"><ele>121.0</ele><time>2026-04-26T09:01:24.939Z</time></trkpt><trkpt lat="45.6278318" lon="10.8673091"><ele>121.66666666666667</ele><time>2026-04-26T09:01:25.939Z</time></trkpt><trkpt lat="45.6279767" lon="10.8674315"><ele>122.33333333333334</ele><time>2026-04-26T09:01:26.94Z</time></trkpt><trkpt lat="45.6281214" lon="10.8675574"><ele>123.0</ele><time>2026-04-26T09:01:27.939Z</time></trkpt><trkpt lat="45.6282697" lon="10.8676812"><ele>123.0</ele><time>2026-04-26T09:01:28.94Z</time></trkpt><trkpt lat="45.6284168" lon="10.8678066"><ele>123.0</ele><time>2026-04-26T09:01:29.939Z</time></trkpt><trkpt lat="45.6285582" lon="10.8679263"><ele>123.0</ele><time>2026-04-26T09:01:30.94Z</time></trkpt><trkpt lat="45.6286932" lon="10.8680444"><ele>123.66666666666666</ele><time>2026-04-26T09:01:31.94Z</time></trkpt><trkpt lat="45.6288279" lon="10.868163"><ele>124.33333333333333</ele><time>2026-04-26T09:01:32.94Z</time></trkpt><trkpt lat="45.6289652" lon="10.8682823"><ele>125.0</ele><time>2026-04-26T09:01:33.94Z</time></trkpt><trkpt lat="45.6291002" lon="10.8684003"><ele>124.66666666666666</ele><time>2026-04-26T09:01:34.94Z</time></trkpt><trkpt lat="45.6292427" lon="10.8685231"><ele>124.33333333333334</ele><time>2026-04-26T09:01:35.94Z</time></trkpt><trkpt lat="45.6293871" lon="10.8686516"><ele>124.0</ele><time>2026-04-26T09:01:36.939Z</time></trkpt><trkpt lat="45.6295327" lon="10.8687781"><ele>124.0</ele><time>2026-04-26T09:01:37.94Z</time></trkpt><trkpt lat="45.6296816" lon="10.8689059"><ele>124.0</ele><time>2026-04-26T09:01:38.94Z</time></trkpt><trkpt lat="45.6298309" lon="10.8690332"><ele>124.0</ele><time>2026-04-26T09:01:39.94Z</time></trkpt><trkpt lat="45.6299802" lon="10.8691613"><ele>123.33333333333334</ele><time>2026-04-26T09:01:40.939Z</time></trkpt><trkpt lat="45.6301289" lon="10.8692887"><ele>122.66666666666666</ele><time>2026-04-26T09:01:41.94Z</time></trkpt><trkpt lat="45.6302765" lon="10.8694171"><ele>122.0</ele><time>2026-04-26T09:01:42.94Z</time></trkpt><trkpt lat="45.630422" lon="10.8695441"><ele>122.0</ele><time>2026-04-26T09:01:43.94Z</time></trkpt><trkpt lat="45.6305664" lon="10.8696696"><ele>122.0</ele><time>2026-04-26T09:01:44.94Z</time></trkpt><trkpt lat="45.6307114" lon="10.8697909"><ele>122.0</ele><time>2026-04-26T09:01:45.94Z</time></trkpt><trkpt lat="45.6308534" lon="10.86991"><ele>122.0</ele><time>2026-04-26T09:01:46.94Z</time></trkpt><trkpt lat="45.630991" lon="10.870028"><ele>122.0</ele><time>2026-04-26T09:01:47.94Z</time></trkpt><trkpt lat="45.6311252" lon="10.8701523"><ele>122.0</ele><time>2026-04-26T09:01:48.94Z</time></trkpt><trkpt lat="45.6312575" lon="10.8702852"><ele>122.0</ele><time>2026-04-26T09:01:49.939Z</time></trkpt><trkpt lat="45.6313883" lon="10.8704218"><ele>122.0</ele><time>2026-04-26T09:01:50.94Z</time></trkpt><trkpt lat="45.6315179" lon="10.8705577"><ele>122.0</ele><time>2026-04-26T09:01:51.939Z</time></trkpt><trkpt lat="45.6316455" lon="10.8706896"><ele>122.0</ele><time>2026-04-26T09:01:52.939Z</time></trkpt><trkpt lat="45.631771" lon="10.8708196"><ele>122.0</ele><time>2026-04-26T09:01:53.939Z</time></trkpt><trkpt lat="45.6318959" lon="10.8709468"><ele>122.0</ele><time>2026-04-26T09:01:54.939Z</time></trkpt><trkpt lat="45.6320123" lon="10.8710686"><ele>122.6</ele><time>2026-04-26T09:01:55.939Z</time></trkpt><trkpt lat="45.6321116" lon="10.8711695"><ele>123.19999999999999</ele><time>2026-04-26T09:01:56.94Z</time></trkpt><trkpt lat="45.6321941" lon="10.871253"><ele>123.8</ele><time>2026-04-26T09:01:57.94Z</time></trkpt><trkpt lat="45.6322659" lon="10.8713269"><ele>124.4</ele><time>2026-04-26T09:01:58.939Z</time></trkpt><trkpt lat="45.6323329" lon="10.871392"><ele>125.0</ele><time>2026-04-26T09:01:59.939Z</time></trkpt><trkpt lat="45.6323836" lon="10.8714581"><ele>125.0</ele><time>2026-04-26T09:02:00.94Z</time></trkpt><trkpt lat="45.6324331" lon="10.8716278"><ele>125.0</ele><time>2026-04-26T09:02:02.939Z</time></trkpt><trkpt lat="45.6324355" lon="10.8717462"><ele>125.0</ele><time>2026-04-26T09:02:03.94Z</time></trkpt><trkpt lat="45.6324345" lon="10.8718689"><ele>125.0</ele><time>2026-04-26T09:02:04.939Z</time></trkpt><trkpt lat="45.6324341" lon="10.8719981"><ele>125.0</ele><time>2026-04-26T09:02:05.939Z</time></trkpt><trkpt lat="45.6324339" lon="10.872131"><ele>125.0</ele><time>2026-04-26T09:02:06.94Z</time></trkpt><trkpt lat="45.6324591" lon="10.8722567"><ele>125.0</ele><time>2026-04-26T09:02:07.939Z</time></trkpt><trkpt lat="45.6325144" lon="10.8723723"><ele>125.0</ele><time>2026-04-26T09:02:08.94Z</time></trkpt><trkpt lat="45.6325956" lon="10.8724629"><ele>125.0</ele><time>2026-04-26T09:02:09.939Z</time></trkpt><trkpt lat="45.6327076" lon="10.8725348"><ele>125.0</ele><time>2026-04-26T09:02:10.939Z</time></trkpt><trkpt lat="45.6328428" lon="10.8726262"><ele>125.0</ele><time>2026-04-26T09:02:11.94Z</time></trkpt><trkpt lat="45.63298" lon="10.8727237"><ele>125.0</ele><time>2026-04-26T09:02:12.94Z</time></trkpt><trkpt lat="45.6331239" lon="10.872811"><ele>125.0</ele><time>2026-04-26T09:02:13.94Z</time></trkpt><trkpt lat="45.6332631" lon="10.8729003"><ele>125.0</ele><time>2026-04-26T09:02:14.939Z</time></trkpt><trkpt lat="45.6333971" lon="10.8729931"><ele>125.0</ele><time>2026-04-26T09:02:15.939Z</time></trkpt><trkpt lat="45.6335357" lon="10.87309"><ele>125.0</ele><time>2026-04-26T09:02:16.94Z</time></trkpt><trkpt lat="45.6336763" lon="10.8731914"><ele>124.0</ele><time>2026-04-26T09:02:17.94Z</time></trkpt><trkpt lat="45.6338194" lon="10.8732981"><ele>123.0</ele><time>2026-04-26T09:02:18.938Z</time></trkpt><trkpt lat="45.6339636" lon="10.8734048"><ele>122.0</ele><time>2026-04-26T09:02:19.94Z</time></trkpt><trkpt lat="45.634102" lon="10.8735083"><ele>122.0</ele><time>2026-04-26T09:02:20.94Z</time></trkpt><trkpt lat="45.634226" lon="10.8736025"><ele>122.0</ele><time>2026-04-26T09:02:21.94Z</time></trkpt><trkpt lat="45.6343422" lon="10.8736955"><ele>122.0</ele><time>2026-04-26T09:02:22.94Z</time></trkpt><trkpt lat="45.634456" lon="10.8737875"><ele>122.0</ele><time>2026-04-26T09:02:23.94Z</time></trkpt><trkpt lat="45.6345517" lon="10.8738612"><ele>122.0</ele><time>2026-04-26T09:02:24.94Z</time></trkpt><trkpt lat="45.6346217" lon="10.8739084"><ele>121.99999999999999</ele><time>2026-04-26T09:02:25.94Z</time></trkpt><trkpt lat="45.6347073" lon="10.8739267"><ele>121.99999999999999</ele><time>2026-04-26T09:02:27.94Z</time></trkpt><trkpt lat="45.6347609" lon="10.8738439"><ele>122.0</ele><time>2026-04-26T09:02:29.94Z</time></trkpt><trkpt lat="45.6348294" lon="10.8736584"><ele>122.0</ele><time>2026-04-26T09:02:31.94Z</time></trkpt><trkpt lat="45.6348693" lon="10.8735675"><ele>121.99999999999999</ele><time>2026-04-26T09:02:32.939Z</time></trkpt><trkpt lat="45.6349276" lon="10.8734444"><ele>122.0</ele><time>2026-04-26T09:02:34.94Z</time></trkpt><trkpt lat="45.6349926" lon="10.8734227"><ele>122.0</ele><time>2026-04-26T09:02:36.94Z</time></trkpt><trkpt lat="45.6350765" lon="10.8734975"><ele>122.0</ele><time>2026-04-26T09:02:38.94Z</time></trkpt><trkpt lat="45.6351363" lon="10.8735699"><ele>121.99999999999999</ele><time>2026-04-26T09:02:39.94Z</time></trkpt><trkpt lat="45.6352168" lon="10.8736469"><ele>122.0</ele><time>2026-04-26T09:02:40.94Z</time></trkpt><trkpt lat="45.6353175" lon="10.8737258"><ele>122.0</ele><time>2026-04-26T09:02:41.94Z</time></trkpt><trkpt lat="45.6354293" lon="10.8738187"><ele>122.0</ele><time>2026-04-26T09:02:42.94Z</time></trkpt><trkpt lat="45.635546" lon="10.8739167"><ele>122.0</ele><time>2026-04-26T09:02:43.939Z</time></trkpt><trkpt lat="45.6356677" lon="10.8740214"><ele>122.0</ele><time>2026-04-26T09:02:44.94Z</time></trkpt><trkpt lat="45.6357876" lon="10.8741423"><ele>122.0</ele><time>2026-04-26T09:02:45.94Z</time></trkpt><trkpt lat="45.6359144" lon="10.8742629"><ele>122.0</ele><time>2026-04-26T09:02:46.94Z</time></trkpt><trkpt lat="45.6360464" lon="10.8743808"><ele>122.0</ele><time>2026-04-26T09:02:47.94Z</time></trkpt><trkpt lat="45.6361767" lon="10.8745052"><ele>121.66666666666666</ele><time>2026-04-26T09:02:48.94Z</time></trkpt><trkpt lat="45.6363047" lon="10.8746368"><ele>121.33333333333334</ele><time>2026-04-26T09:02:49.939Z</time></trkpt><trkpt lat="45.6364329" lon="10.8747638"><ele>121.0</ele><time>2026-04-26T09:02:50.94Z</time></trkpt><trkpt lat="45.6365624" lon="10.8748895"><ele>121.0</ele><time>2026-04-26T09:02:51.94Z</time></trkpt><trkpt lat="45.6366852" lon="10.8750235"><ele>121.0</ele><time>2026-04-26T09:02:52.94Z</time></trkpt><trkpt lat="45.6368136" lon="10.8751478"><ele>121.0</ele><time>2026-04-26T09:02:53.939Z</time></trkpt><trkpt lat="45.63693" lon="10.8752592"><ele>121.0</ele><time>2026-04-26T09:02:54.94Z</time></trkpt><trkpt lat="45.6370492" lon="10.8753743"><ele>121.0</ele><time>2026-04-26T09:02:55.94Z</time></trkpt><trkpt lat="45.6371706" lon="10.8754917"><ele>121.0</ele><time>2026-04-26T09:02:56.94Z</time></trkpt><trkpt lat="45.6372896" lon="10.8756057"><ele>121.0</ele><time>2026-04-26T09:02:57.94Z</time></trkpt><trkpt lat="45.637397" lon="10.8757109"><ele>121.0</ele><time>2026-04-26T09:02:58.94Z</time></trkpt><trkpt lat="45.6374863" lon="10.8757999"><ele>121.0</ele><time>2026-04-26T09:02:59.94Z</time></trkpt><trkpt lat="45.6375535" lon="10.8758715"><ele>121.0</ele><time>2026-04-26T09:03:00.938Z</time></trkpt><trkpt lat="45.637614" lon="10.8760133"><ele>121.0</ele><time>2026-04-26T09:03:02.939Z</time></trkpt><trkpt lat="45.6376092" lon="10.8761221"><ele>121.0</ele><time>2026-04-26T09:03:03.939Z</time></trkpt><trkpt lat="45.6376024" lon="10.8762556"><ele>120.8</ele><time>2026-04-26T09:03:04.94Z</time></trkpt><trkpt lat="45.637615" lon="10.8763789"><ele>120.6</ele><time>2026-04-26T09:03:05.94Z</time></trkpt><trkpt lat="45.6376581" lon="10.8764804"><ele>120.4</ele><time>2026-04-26T09:03:06.939Z</time></trkpt><trkpt lat="45.6377293" lon="10.8765573"><ele>120.2</ele><time>2026-04-26T09:03:07.94Z</time></trkpt><trkpt lat="45.6378343" lon="10.8766161"><ele>120.0</ele><time>2026-04-26T09:03:08.94Z</time></trkpt><trkpt lat="45.6379659" lon="10.8766751"><ele>120.0</ele><time>2026-04-26T09:03:09.94Z</time></trkpt><trkpt lat="45.6380663" lon="10.8767265"><ele>120.0</ele><time>2026-04-26T09:03:10.939Z</time></trkpt><trkpt lat="45.6381409" lon="10.8768295"><ele>120.0</ele><time>2026-04-26T09:03:12.939Z</time></trkpt><trkpt lat="45.6381498" lon="10.87696"><ele>120.0</ele><time>2026-04-26T09:03:14.94Z</time></trkpt><trkpt lat="45.6381312" lon="10.8771173"><ele>120.0</ele><time>2026-04-26T09:03:17.939Z</time></trkpt><trkpt lat="45.6380897" lon="10.8772143"><ele>119.6</ele><time>2026-04-26T09:03:18.94Z</time></trkpt><trkpt lat="45.6380396" lon="10.8773269"><ele>119.2</ele><time>2026-04-26T09:03:19.94Z</time></trkpt><trkpt lat="45.6379947" lon="10.8774618"><ele>118.80000000000001</ele><time>2026-04-26T09:03:20.939Z</time></trkpt><trkpt lat="45.637954" lon="10.8776267"><ele>118.4</ele><time>2026-04-26T09:03:21.939Z</time></trkpt><trkpt lat="45.6379154" lon="10.8777938"><ele>118.0</ele><time>2026-04-26T09:03:22.94Z</time></trkpt><trkpt lat="45.6378843" lon="10.8779249"><ele>117.60000000000001</ele><time>2026-04-26T09:03:23.94Z</time></trkpt><trkpt lat="45.6378615" lon="10.8780388"><ele>117.20000000000002</ele><time>2026-04-26T09:03:24.939Z</time></trkpt><trkpt lat="45.6378398" lon="10.8781518"><ele>116.8</ele><time>2026-04-26T09:03:25.94Z</time></trkpt><trkpt lat="45.6378135" lon="10.8782515"><ele>116.4</ele><time>2026-04-26T09:03:26.94Z</time></trkpt><trkpt lat="45.6377682" lon="10.8783677"><ele>116.0</ele><time>2026-04-26T09:03:28.939Z</time></trkpt><trkpt lat="45.6378214" lon="10.8782031"><ele>116.0</ele><time>2026-04-26T09:03:36.939Z</time></trkpt><trkpt lat="45.637854" lon="10.8780871"><ele>116.0</ele><time>2026-04-26T09:03:37.939Z</time></trkpt><trkpt lat="45.6378848" lon="10.8779467"><ele>116.0</ele><time>2026-04-26T09:03:38.939Z</time></trkpt><trkpt lat="45.6379166" lon="10.8777919"><ele>116.0</ele><time>2026-04-26T09:03:39.94Z</time></trkpt><trkpt lat="45.6379594" lon="10.8776276"><ele>116.0</ele><time>2026-04-26T09:03:40.939Z</time></trkpt><trkpt lat="45.6380074" lon="10.8774545"><ele>116.4</ele><time>2026-04-26T09:03:41.94Z</time></trkpt><trkpt lat="45.6380607" lon="10.8772826"><ele>116.8</ele><time>2026-04-26T09:03:42.94Z</time></trkpt><trkpt lat="45.6381145" lon="10.877119"><ele>117.20000000000002</ele><time>2026-04-26T09:03:43.94Z</time></trkpt><trkpt lat="45.6381603" lon="10.8769886"><ele>117.60000000000001</ele><time>2026-04-26T09:03:44.94Z</time></trkpt><trkpt lat="45.6381926" lon="10.8768993"><ele>118.0</ele><time>2026-04-26T09:03:45.94Z</time></trkpt><trkpt lat="45.6382278" lon="10.8768078"><ele>118.0</ele><time>2026-04-26T09:03:47.94Z</time></trkpt><trkpt lat="45.6382762" lon="10.8767385"><ele>118.00000000000001</ele><time>2026-04-26T09:03:52.939Z</time></trkpt><trkpt lat="45.6383453" lon="10.8767861"><ele>118.00000000000001</ele><time>2026-04-26T09:03:54.939Z</time></trkpt><trkpt lat="45.6384545" lon="10.8769131"><ele>118.0</ele><time>2026-04-26T09:03:56.94Z</time></trkpt><trkpt lat="45.6385278" lon="10.876998"><ele>118.0</ele><time>2026-04-26T09:03:57.939Z</time></trkpt><trkpt lat="45.6386073" lon="10.8771007"><ele>118.0</ele><time>2026-04-26T09:03:58.94Z</time></trkpt><trkpt lat="45.6386978" lon="10.8772203"><ele>118.0</ele><time>2026-04-26T09:03:59.939Z</time></trkpt><trkpt lat="45.6388021" lon="10.8773511"><ele>118.0</ele><time>2026-04-26T09:04:00.94Z</time></trkpt><trkpt lat="45.6389139" lon="10.8774877"><ele>118.0</ele><time>2026-04-26T09:04:01.94Z</time></trkpt><trkpt lat="45.6390352" lon="10.8776364"><ele>118.0</ele><time>2026-04-26T09:04:02.94Z</time></trkpt><trkpt lat="45.6391584" lon="10.8777828"><ele>118.0</ele><time>2026-04-26T09:04:03.939Z</time></trkpt><trkpt lat="45.6392802" lon="10.8779239"><ele>118.0</ele><time>2026-04-26T09:04:04.94Z</time></trkpt><trkpt lat="45.6393974" lon="10.8780665"><ele>118.66666666666667</ele><time>2026-04-26T09:04:05.94Z</time></trkpt><trkpt lat="45.6395175" lon="10.8782114"><ele>119.33333333333334</ele><time>2026-04-26T09:04:06.94Z</time></trkpt><trkpt lat="45.6396386" lon="10.8783416"><ele>120.0</ele><time>2026-04-26T09:04:07.94Z</time></trkpt><trkpt lat="45.6397726" lon="10.8784674"><ele>118.33333333333334</ele><time>2026-04-26T09:04:08.94Z</time></trkpt><trkpt lat="45.6399009" lon="10.8785944"><ele>116.66666666666667</ele><time>2026-04-26T09:04:09.939Z</time></trkpt><trkpt lat="45.6400281" lon="10.8787194"><ele>115.0</ele><time>2026-04-26T09:04:10.94Z</time></trkpt><trkpt lat="45.6401547" lon="10.8788376"><ele>115.0</ele><time>2026-04-26T09:04:11.939Z</time></trkpt><trkpt lat="45.6402871" lon="10.8789439"><ele>115.0</ele><time>2026-04-26T09:04:12.94Z</time></trkpt><trkpt lat="45.6404235" lon="10.8790511"><ele>115.0</ele><time>2026-04-26T09:04:13.94Z</time></trkpt><trkpt lat="45.6405582" lon="10.8791642"><ele>114.66666666666667</ele><time>2026-04-26T09:04:14.94Z</time></trkpt><trkpt lat="45.6407" lon="10.8792668"><ele>114.33333333333334</ele><time>2026-04-26T09:04:15.94Z</time></trkpt><trkpt lat="45.6408439" lon="10.8793669"><ele>114.0</ele><time>2026-04-26T09:04:16.939Z</time></trkpt><trkpt lat="45.6409884" lon="10.8794611"><ele>114.66666666666666</ele><time>2026-04-26T09:04:17.94Z</time></trkpt><trkpt lat="45.6411339" lon="10.8795585"><ele>115.33333333333333</ele><time>2026-04-26T09:04:18.94Z</time></trkpt><trkpt lat="45.6412783" lon="10.879659"><ele>116.0</ele><time>2026-04-26T09:04:19.939Z</time></trkpt><trkpt lat="45.6414189" lon="10.8797617"><ele>116.0</ele><time>2026-04-26T09:04:20.94Z</time></trkpt><trkpt lat="45.6415605" lon="10.8798655"><ele>116.0</ele><time>2026-04-26T09:04:21.94Z</time></trkpt><trkpt lat="45.6416997" lon="10.8799771"><ele>116.0</ele><time>2026-04-26T09:04:22.94Z</time></trkpt><trkpt lat="45.6418278" lon="10.8800894"><ele>115.0</ele><time>2026-04-26T09:04:23.94Z</time></trkpt><trkpt lat="45.6419439" lon="10.8802022"><ele>114.0</ele><time>2026-04-26T09:04:24.939Z</time></trkpt><trkpt lat="45.6420501" lon="10.8803184"><ele>113.0</ele><time>2026-04-26T09:04:25.94Z</time></trkpt><trkpt lat="45.6421586" lon="10.8804405"><ele>112.0</ele><time>2026-04-26T09:04:26.94Z</time></trkpt><trkpt lat="45.6422697" lon="10.8805588"><ele>111.66666666666667</ele><time>2026-04-26T09:04:27.939Z</time></trkpt><trkpt lat="45.6423595" lon="10.8806548"><ele>111.33333333333334</ele><time>2026-04-26T09:04:28.94Z</time></trkpt><trkpt lat="45.6424248" lon="10.8807188"><ele>111.0</ele><time>2026-04-26T09:04:29.94Z</time></trkpt><trkpt lat="45.6424868" lon="10.8807395"><ele>110.66666666666666</ele><time>2026-04-26T09:04:30.939Z</time></trkpt><trkpt lat="45.6425756" lon="10.8807225"><ele>110.33333333333333</ele><time>2026-04-26T09:04:31.94Z</time></trkpt><trkpt lat="45.642635" lon="10.8806765"><ele>110.0</ele><time>2026-04-26T09:04:32.94Z</time></trkpt><trkpt lat="45.642709" lon="10.8806023"><ele>110.0</ele><time>2026-04-26T09:04:33.94Z</time></trkpt><trkpt lat="45.6427848" lon="10.8805176"><ele>110.0</ele><time>2026-04-26T09:04:34.94Z</time></trkpt><trkpt lat="45.6428592" lon="10.8804349"><ele>110.0</ele><time>2026-04-26T09:04:35.94Z</time></trkpt><trkpt lat="45.6429647" lon="10.8804117"><ele>110.0</ele><time>2026-04-26T09:04:36.94Z</time></trkpt><trkpt lat="45.6430581" lon="10.8803306"><ele>110.0</ele><time>2026-04-26T09:04:37.94Z</time></trkpt><trkpt lat="45.6431517" lon="10.8802405"><ele>109.8</ele><time>2026-04-26T09:04:38.939Z</time></trkpt><trkpt lat="45.6432244" lon="10.880153"><ele>109.6</ele><time>2026-04-26T09:04:39.94Z</time></trkpt><trkpt lat="45.64327" lon="10.8800339"><ele>109.4</ele><time>2026-04-26T09:04:40.938Z</time></trkpt><trkpt lat="45.6433074" lon="10.8798766"><ele>109.2</ele><time>2026-04-26T09:04:41.94Z</time></trkpt><trkpt lat="45.6433229" lon="10.8796989"><ele>109.0</ele><time>2026-04-26T09:04:42.94Z</time></trkpt><trkpt lat="45.6433254" lon="10.8795121"><ele>109.0</ele><time>2026-04-26T09:04:43.94Z</time></trkpt><trkpt lat="45.6433102" lon="10.8793027"><ele>109.0</ele><time>2026-04-26T09:04:44.939Z</time></trkpt><trkpt lat="45.6432737" lon="10.8790677"><ele>109.0</ele><time>2026-04-26T09:04:45.94Z</time></trkpt><trkpt lat="45.6432269" lon="10.878875"><ele>110.0</ele><time>2026-04-26T09:04:46.939Z</time></trkpt><trkpt lat="45.6431662" lon="10.878716"><ele>111.0</ele><time>2026-04-26T09:04:47.939Z</time></trkpt><trkpt lat="45.6431112" lon="10.8785845"><ele>112.0</ele><time>2026-04-26T09:04:48.94Z</time></trkpt><trkpt lat="45.643074" lon="10.8784667"><ele>113.0</ele><time>2026-04-26T09:04:50.94Z</time></trkpt><trkpt lat="45.6431332" lon="10.8784245"><ele>114.0</ele><time>2026-04-26T09:04:59.94Z</time></trkpt><trkpt lat="45.6432321" lon="10.8784822"><ele>114.0</ele><time>2026-04-26T09:05:01.94Z</time></trkpt><trkpt lat="45.6433002" lon="10.8785053"><ele>114.0</ele><time>2026-04-26T09:05:02.94Z</time></trkpt><trkpt lat="45.6433765" lon="10.8785298"><ele>114.0</ele><time>2026-04-26T09:05:03.939Z</time></trkpt><trkpt lat="45.6434574" lon="10.8785588"><ele>114.0</ele><time>2026-04-26T09:05:04.939Z</time></trkpt><trkpt lat="45.6435458" lon="10.8785908"><ele>114.0</ele><time>2026-04-26T09:05:05.94Z</time></trkpt><trkpt lat="45.6436411" lon="10.8786263"><ele>114.0</ele><time>2026-04-26T09:05:06.939Z</time></trkpt><trkpt lat="45.6437415" lon="10.8786616"><ele>114.5</ele><time>2026-04-26T09:05:07.94Z</time></trkpt><trkpt lat="45.6438451" lon="10.8786962"><ele>115.0</ele><time>2026-04-26T09:05:08.94Z</time></trkpt><trkpt lat="45.6439551" lon="10.8787329"><ele>115.5</ele><time>2026-04-26T09:05:09.939Z</time></trkpt><trkpt lat="45.6440701" lon="10.878772"><ele>116.0</ele><time>2026-04-26T09:05:10.94Z</time></trkpt><trkpt lat="45.6441852" lon="10.8788132"><ele>116.0</ele><time>2026-04-26T09:05:11.939Z</time></trkpt><trkpt lat="45.6442986" lon="10.8788518"><ele>116.0</ele><time>2026-04-26T09:05:12.94Z</time></trkpt><trkpt lat="45.6444097" lon="10.8788869"><ele>116.0</ele><time>2026-04-26T09:05:13.939Z</time></trkpt><trkpt lat="45.6445193" lon="10.878923"><ele>116.0</ele><time>2026-04-26T09:05:14.94Z</time></trkpt><trkpt lat="45.6446315" lon="10.8789632"><ele>117.5</ele><time>2026-04-26T09:05:15.939Z</time></trkpt><trkpt lat="45.6447455" lon="10.8790039"><ele>119.0</ele><time>2026-04-26T09:05:16.939Z</time></trkpt><trkpt lat="45.6448632" lon="10.8790442"><ele>120.5</ele><time>2026-04-26T09:05:17.94Z</time></trkpt><trkpt lat="45.6449845" lon="10.8790849"><ele>122.0</ele><time>2026-04-26T09:05:18.94Z</time></trkpt><trkpt lat="45.6451069" lon="10.8791275"><ele>122.0</ele><time>2026-04-26T09:05:19.94Z</time></trkpt><trkpt lat="45.6452297" lon="10.8791704"><ele>122.0</ele><time>2026-04-26T09:05:20.94Z</time></trkpt><trkpt lat="45.6453526" lon="10.8792169"><ele>122.0</ele><time>2026-04-26T09:05:21.94Z</time></trkpt><trkpt lat="45.6454744" lon="10.8792624"><ele>122.0</ele><time>2026-04-26T09:05:22.939Z</time></trkpt><trkpt lat="45.6455957" lon="10.8793067"><ele>119.5</ele><time>2026-04-26T09:05:23.94Z</time></trkpt><trkpt lat="45.6457173" lon="10.8793502"><ele>117.0</ele><time>2026-04-26T09:05:24.94Z</time></trkpt><trkpt lat="45.6458387" lon="10.8793914"><ele>114.5</ele><time>2026-04-26T09:05:25.94Z</time></trkpt><trkpt lat="45.6459604" lon="10.8794342"><ele>112.0</ele><time>2026-04-26T09:05:26.94Z</time></trkpt><trkpt lat="45.6460811" lon="10.87948"><ele>117.0</ele><time>2026-04-26T09:05:27.94Z</time></trkpt><trkpt lat="45.6461995" lon="10.8795349"><ele>122.0</ele><time>2026-04-26T09:05:28.939Z</time></trkpt><trkpt lat="45.6463145" lon="10.8796016"><ele>127.0</ele><time>2026-04-26T09:05:29.939Z</time></trkpt><trkpt lat="45.646424" lon="10.8796893"><ele>132.0</ele><time>2026-04-26T09:05:30.94Z</time></trkpt><trkpt lat="45.6465261" lon="10.8797907"><ele>132.0</ele><time>2026-04-26T09:05:31.94Z</time></trkpt><trkpt lat="45.6466197" lon="10.8799063"><ele>132.0</ele><time>2026-04-26T09:05:32.94Z</time></trkpt><trkpt lat="45.6467046" lon="10.8800377"><ele>132.0</ele><time>2026-04-26T09:05:33.94Z</time></trkpt><trkpt lat="45.6467837" lon="10.8801796"><ele>132.0</ele><time>2026-04-26T09:05:34.939Z</time></trkpt><trkpt lat="45.6468593" lon="10.8803307"><ele>132.0</ele><time>2026-04-26T09:05:35.94Z</time></trkpt><trkpt lat="45.6469342" lon="10.8804901"><ele>132.0</ele><time>2026-04-26T09:05:36.94Z</time></trkpt><trkpt lat="45.6470133" lon="10.8806571"><ele>132.0</ele><time>2026-04-26T09:05:37.939Z</time></trkpt><trkpt lat="45.6470968" lon="10.8808286"><ele>132.0</ele><time>2026-04-26T09:05:38.94Z</time></trkpt><trkpt lat="45.647182" lon="10.881005"><ele>132.0</ele><time>2026-04-26T09:05:39.94Z</time></trkpt><trkpt lat="45.6472708" lon="10.8811848"><ele>132.0</ele><time>2026-04-26T09:05:40.939Z</time></trkpt><trkpt lat="45.6473591" lon="10.8813672"><ele>132.0</ele><time>2026-04-26T09:05:41.939Z</time></trkpt><trkpt lat="45.6474462" lon="10.881552"><ele>132.0</ele><time>2026-04-26T09:05:42.939Z</time></trkpt><trkpt lat="45.6475339" lon="10.8817347"><ele>132.0</ele><time>2026-04-26T09:05:43.939Z</time></trkpt><trkpt lat="45.6476194" lon="10.8819122"><ele>132.0</ele><time>2026-04-26T09:05:44.94Z</time></trkpt><trkpt lat="45.6477023" lon="10.8820844"><ele>132.25</ele><time>2026-04-26T09:05:45.939Z</time></trkpt><trkpt lat="45.6477832" lon="10.8822515"><ele>132.5</ele><time>2026-04-26T09:05:46.94Z</time></trkpt><trkpt lat="45.6478661" lon="10.8824083"><ele>132.75</ele><time>2026-04-26T09:05:47.94Z</time></trkpt><trkpt lat="45.6479512" lon="10.8825573"><ele>133.0</ele><time>2026-04-26T09:05:48.94Z</time></trkpt><trkpt lat="45.6480431" lon="10.8826998"><ele>130.5</ele><time>2026-04-26T09:05:49.94Z</time></trkpt><trkpt lat="45.6481403" lon="10.8828369"><ele>128.0</ele><time>2026-04-26T09:05:50.939Z</time></trkpt><trkpt lat="45.6482397" lon="10.882972"><ele>125.5</ele><time>2026-04-26T09:05:51.939Z</time></trkpt><trkpt lat="45.6483425" lon="10.8831034"><ele>123.0</ele><time>2026-04-26T09:05:52.938Z</time></trkpt><trkpt lat="45.6484505" lon="10.8832272"><ele>123.0</ele><time>2026-04-26T09:05:53.939Z</time></trkpt><trkpt lat="45.6485617" lon="10.8833465"><ele>123.0</ele><time>2026-04-26T09:05:54.938Z</time></trkpt><trkpt lat="45.6486754" lon="10.8834626"><ele>123.0</ele><time>2026-04-26T09:05:55.938Z</time></trkpt><trkpt lat="45.6487914" lon="10.8835754"><ele>123.0</ele><time>2026-04-26T09:05:56.938Z</time></trkpt><trkpt lat="45.6489103" lon="10.8836827"><ele>123.0</ele><time>2026-04-26T09:05:57.939Z</time></trkpt><trkpt lat="45.6490299" lon="10.8837863"><ele>123.0</ele><time>2026-04-26T09:05:58.939Z</time></trkpt><trkpt lat="45.6491465" lon="10.8838918"><ele>123.0</ele><time>2026-04-26T09:05:59.939Z</time></trkpt><trkpt lat="45.6492599" lon="10.8839978"><ele>123.0</ele><time>2026-04-26T09:06:00.938Z</time></trkpt><trkpt lat="45.6493727" lon="10.8841035"><ele>124.5</ele><time>2026-04-26T09:06:01.939Z</time></trkpt><trkpt lat="45.6494855" lon="10.8842068"><ele>126.0</ele><time>2026-04-26T09:06:02.938Z</time></trkpt><trkpt lat="45.6495984" lon="10.8843079"><ele>127.5</ele><time>2026-04-26T09:06:03.939Z</time></trkpt><trkpt lat="45.6497109" lon="10.8844095"><ele>129.0</ele><time>2026-04-26T09:06:04.939Z</time></trkpt><trkpt lat="45.6498231" lon="10.8845129"><ele>129.0</ele><time>2026-04-26T09:06:05.939Z</time></trkpt><trkpt lat="45.6499353" lon="10.8846171"><ele>129.0</ele><time>2026-04-26T09:06:06.939Z</time></trkpt><trkpt lat="45.6500467" lon="10.8847234"><ele>129.0</ele><time>2026-04-26T09:06:07.938Z</time></trkpt><trkpt lat="45.6501578" lon="10.8848316"><ele>129.0</ele><time>2026-04-26T09:06:08.938Z</time></trkpt><trkpt lat="45.6502663" lon="10.8849413"><ele>129.0</ele><time>2026-04-26T09:06:09.939Z</time></trkpt><trkpt lat="45.6503699" lon="10.885057"><ele>129.0</ele><time>2026-04-26T09:06:10.938Z</time></trkpt><trkpt lat="45.6504674" lon="10.8851815"><ele>129.0</ele><time>2026-04-26T09:06:11.939Z</time></trkpt><trkpt lat="45.6505596" lon="10.8853141"><ele>129.0</ele><time>2026-04-26T09:06:12.938Z</time></trkpt><trkpt lat="45.6506501" lon="10.8854508"><ele>129.0</ele><time>2026-04-26T09:06:13.938Z</time></trkpt><trkpt lat="45.650741" lon="10.8855885"><ele>129.0</ele><time>2026-04-26T09:06:14.938Z</time></trkpt><trkpt lat="45.6508338" lon="10.8857265"><ele>129.0</ele><time>2026-04-26T09:06:15.939Z</time></trkpt><trkpt lat="45.6509286" lon="10.8858629"><ele>129.0</ele><time>2026-04-26T09:06:16.939Z</time></trkpt><trkpt lat="45.6510234" lon="10.8860004"><ele>128.0</ele><time>2026-04-26T09:06:17.939Z</time></trkpt><trkpt lat="45.6511188" lon="10.8861386"><ele>127.0</ele><time>2026-04-26T09:06:18.939Z</time></trkpt><trkpt lat="45.6512142" lon="10.8862773"><ele>126.0</ele><time>2026-04-26T09:06:19.939Z</time></trkpt><trkpt lat="45.6513096" lon="10.8864146"><ele>125.0</ele><time>2026-04-26T09:06:20.938Z</time></trkpt><trkpt lat="45.6514027" lon="10.8865504"><ele>125.75</ele><time>2026-04-26T09:06:21.939Z</time></trkpt><trkpt lat="45.6514954" lon="10.8866825"><ele>126.5</ele><time>2026-04-26T09:06:22.939Z</time></trkpt><trkpt lat="45.6515875" lon="10.8868132"><ele>127.25</ele><time>2026-04-26T09:06:23.938Z</time></trkpt><trkpt lat="45.6516768" lon="10.8869465"><ele>128.0</ele><time>2026-04-26T09:06:24.938Z</time></trkpt><trkpt lat="45.6517656" lon="10.8870787"><ele>128.0</ele><time>2026-04-26T09:06:25.938Z</time></trkpt><trkpt lat="45.6518529" lon="10.8872075"><ele>128.0</ele><time>2026-04-26T09:06:26.938Z</time></trkpt><trkpt lat="45.6519402" lon="10.8873324"><ele>128.0</ele><time>2026-04-26T09:06:27.939Z</time></trkpt><trkpt lat="45.6520295" lon="10.8874561"><ele>128.0</ele><time>2026-04-26T09:06:28.939Z</time></trkpt><trkpt lat="45.6521221" lon="10.8875766"><ele>129.0</ele><time>2026-04-26T09:06:29.937Z</time></trkpt><trkpt lat="45.6522192" lon="10.8876925"><ele>130.0</ele><time>2026-04-26T09:06:30.939Z</time></trkpt><trkpt lat="45.6523179" lon="10.8878075"><ele>131.0</ele><time>2026-04-26T09:06:31.938Z</time></trkpt><trkpt lat="45.6524168" lon="10.8879221"><ele>132.0</ele><time>2026-04-26T09:06:32.938Z</time></trkpt><trkpt lat="45.6525191" lon="10.8880277"><ele>132.0</ele><time>2026-04-26T09:06:33.939Z</time></trkpt><trkpt lat="45.6526193" lon="10.8881114"><ele>132.0</ele><time>2026-04-26T09:06:34.938Z</time></trkpt><trkpt lat="45.6527089" lon="10.8881799"><ele>132.0</ele><time>2026-04-26T09:06:35.939Z</time></trkpt><trkpt lat="45.6527812" lon="10.8882737"><ele>132.0</ele><time>2026-04-26T09:06:36.939Z</time></trkpt><trkpt lat="45.6528303" lon="10.8884081"><ele>132.0</ele><time>2026-04-26T09:06:37.938Z</time></trkpt><trkpt lat="45.6528632" lon="10.8885625"><ele>131.75</ele><time>2026-04-26T09:06:38.939Z</time></trkpt><trkpt lat="45.6528983" lon="10.888719"><ele>131.5</ele><time>2026-04-26T09:06:39.939Z</time></trkpt><trkpt lat="45.6529405" lon="10.8888764"><ele>131.25</ele><time>2026-04-26T09:06:40.938Z</time></trkpt><trkpt lat="45.652984" lon="10.8890363"><ele>131.0</ele><time>2026-04-26T09:06:41.939Z</time></trkpt><trkpt lat="45.6530249" lon="10.8891982"><ele>130.5</ele><time>2026-04-26T09:06:42.939Z</time></trkpt><trkpt lat="45.6530645" lon="10.8893621"><ele>130.0</ele><time>2026-04-26T09:06:43.938Z</time></trkpt><trkpt lat="45.6531065" lon="10.8895264"><ele>129.5</ele><time>2026-04-26T09:06:44.939Z</time></trkpt><trkpt lat="45.6531508" lon="10.8896914"><ele>129.0</ele><time>2026-04-26T09:06:45.939Z</time></trkpt><trkpt lat="45.6531926" lon="10.8898539"><ele>129.0</ele><time>2026-04-26T09:06:46.939Z</time></trkpt><trkpt lat="45.6532331" lon="10.8900118"><ele>129.0</ele><time>2026-04-26T09:06:47.938Z</time></trkpt><trkpt lat="45.6532763" lon="10.8901707"><ele>129.0</ele><time>2026-04-26T09:06:48.939Z</time></trkpt><trkpt lat="45.653322" lon="10.8903329"><ele>129.0</ele><time>2026-04-26T09:06:49.939Z</time></trkpt><trkpt lat="45.6533702" lon="10.8904944"><ele>128.5</ele><time>2026-04-26T09:06:50.938Z</time></trkpt><trkpt lat="45.6534243" lon="10.8906519"><ele>128.0</ele><time>2026-04-26T09:06:51.939Z</time></trkpt><trkpt lat="45.6534868" lon="10.8908043"><ele>127.5</ele><time>2026-04-26T09:06:52.938Z</time></trkpt><trkpt lat="45.653556" lon="10.8909458"><ele>127.0</ele><time>2026-04-26T09:06:53.938Z</time></trkpt><trkpt lat="45.6536306" lon="10.8910708"><ele>127.0</ele><time>2026-04-26T09:06:54.938Z</time></trkpt><trkpt lat="45.6537045" lon="10.8911906"><ele>126.99999999999999</ele><time>2026-04-26T09:06:55.939Z</time></trkpt><trkpt lat="45.6537728" lon="10.8913092"><ele>126.99999999999999</ele><time>2026-04-26T09:06:56.938Z</time></trkpt><trkpt lat="45.6538372" lon="10.8914259"><ele>127.0</ele><time>2026-04-26T09:06:57.938Z</time></trkpt><trkpt lat="45.6538999" lon="10.891542"><ele>127.0</ele><time>2026-04-26T09:06:58.939Z</time></trkpt><trkpt lat="45.6539637" lon="10.891657"><ele>126.8</ele><time>2026-04-26T09:06:59.939Z</time></trkpt><trkpt lat="45.6540292" lon="10.891773"><ele>126.6</ele><time>2026-04-26T09:07:00.938Z</time></trkpt><trkpt lat="45.6540929" lon="10.8918952"><ele>126.39999999999999</ele><time>2026-04-26T09:07:01.938Z</time></trkpt><trkpt lat="45.654152" lon="10.892026"><ele>126.19999999999999</ele><time>2026-04-26T09:07:02.939Z</time></trkpt><trkpt lat="45.6542041" lon="10.8921654"><ele>126.0</ele><time>2026-04-26T09:07:03.939Z</time></trkpt><trkpt lat="45.6542496" lon="10.8923124"><ele>126.0</ele><time>2026-04-26T09:07:04.939Z</time></trkpt><trkpt lat="45.6542896" lon="10.8924648"><ele>126.0</ele><time>2026-04-26T09:07:05.939Z</time></trkpt><trkpt lat="45.6543291" lon="10.8926182"><ele>126.0</ele><time>2026-04-26T09:07:06.938Z</time></trkpt><trkpt lat="45.65437" lon="10.8927677"><ele>126.0</ele><time>2026-04-26T09:07:07.939Z</time></trkpt><trkpt lat="45.6544115" lon="10.8929119"><ele>126.0</ele><time>2026-04-26T09:07:08.939Z</time></trkpt><trkpt lat="45.6544525" lon="10.8930471"><ele>125.4</ele><time>2026-04-26T09:07:09.938Z</time></trkpt><trkpt lat="45.6544953" lon="10.8931724"><ele>124.8</ele><time>2026-04-26T09:07:10.938Z</time></trkpt><trkpt lat="45.6545456" lon="10.8932926"><ele>124.20000000000002</ele><time>2026-04-26T09:07:11.938Z</time></trkpt><trkpt lat="45.6546069" lon="10.8934077"><ele>123.60000000000001</ele><time>2026-04-26T09:07:12.939Z</time></trkpt><trkpt lat="45.6546763" lon="10.8935164"><ele>123.0</ele><time>2026-04-26T09:07:13.939Z</time></trkpt><trkpt lat="45.6547535" lon="10.8936175"><ele>122.2</ele><time>2026-04-26T09:07:14.939Z</time></trkpt><trkpt lat="45.654842" lon="10.8936999"><ele>121.4</ele><time>2026-04-26T09:07:15.939Z</time></trkpt><trkpt lat="45.6549425" lon="10.8937565"><ele>120.60000000000001</ele><time>2026-04-26T09:07:16.939Z</time></trkpt><trkpt lat="45.655046" lon="10.8937938"><ele>119.80000000000001</ele><time>2026-04-26T09:07:17.939Z</time></trkpt><trkpt lat="45.6551473" lon="10.893824"><ele>119.0</ele><time>2026-04-26T09:07:18.939Z</time></trkpt><trkpt lat="45.6552468" lon="10.8938511"><ele>119.4</ele><time>2026-04-26T09:07:19.939Z</time></trkpt><trkpt lat="45.6553457" lon="10.8938732"><ele>119.80000000000001</ele><time>2026-04-26T09:07:20.938Z</time></trkpt><trkpt lat="45.6554429" lon="10.8938904"><ele>120.19999999999999</ele><time>2026-04-26T09:07:21.939Z</time></trkpt><trkpt lat="45.6555385" lon="10.8939018"><ele>120.6</ele><time>2026-04-26T09:07:22.939Z</time></trkpt><trkpt lat="45.6556345" lon="10.8939088"><ele>121.0</ele><time>2026-04-26T09:07:23.939Z</time></trkpt><trkpt lat="45.6557303" lon="10.8939146"><ele>121.0</ele><time>2026-04-26T09:07:24.939Z</time></trkpt><trkpt lat="45.6558282" lon="10.8939263"><ele>121.0</ele><time>2026-04-26T09:07:25.939Z</time></trkpt><trkpt lat="45.655927" lon="10.8939481"><ele>121.0</ele><time>2026-04-26T09:07:26.939Z</time></trkpt><trkpt lat="45.6560244" lon="10.8939706"><ele>121.0</ele><time>2026-04-26T09:07:27.939Z</time></trkpt><trkpt lat="45.656117" lon="10.8939909"><ele>121.0</ele><time>2026-04-26T09:07:28.938Z</time></trkpt><trkpt lat="45.6562035" lon="10.8940104"><ele>120.66666666666667</ele><time>2026-04-26T09:07:29.939Z</time></trkpt><trkpt lat="45.6562865" lon="10.8940254"><ele>120.33333333333334</ele><time>2026-04-26T09:07:30.939Z</time></trkpt><trkpt lat="45.6563661" lon="10.8940383"><ele>120.0</ele><time>2026-04-26T09:07:31.939Z</time></trkpt><trkpt lat="45.6564445" lon="10.8940537"><ele>119.66666666666666</ele><time>2026-04-26T09:07:32.939Z</time></trkpt><trkpt lat="45.6565194" lon="10.8940706"><ele>119.33333333333333</ele><time>2026-04-26T09:07:33.938Z</time></trkpt><trkpt lat="45.6565861" lon="10.8940932"><ele>119.0</ele><time>2026-04-26T09:07:34.938Z</time></trkpt><trkpt lat="45.6566839" lon="10.8941577"><ele>117.80000000000001</ele><time>2026-04-26T09:07:36.939Z</time></trkpt><trkpt lat="45.6567105" lon="10.8942893"><ele>116.60000000000001</ele><time>2026-04-26T09:07:38.939Z</time></trkpt><trkpt lat="45.6566908" lon="10.8944585"><ele>115.4</ele><time>2026-04-26T09:07:40.939Z</time></trkpt><trkpt lat="45.656679" lon="10.8945604"><ele>114.2</ele><time>2026-04-26T09:07:41.939Z</time></trkpt><trkpt lat="45.656669" lon="10.8946587"><ele>113.0</ele><time>2026-04-26T09:07:42.939Z</time></trkpt><trkpt lat="45.6566518" lon="10.8948075"><ele>112.99999999999999</ele><time>2026-04-26T09:07:44.939Z</time></trkpt><trkpt lat="45.6566385" lon="10.894896"><ele>113.0</ele><time>2026-04-26T09:07:46.938Z</time></trkpt><trkpt lat="45.6566372" lon="10.8949997"><ele>113.0</ele><time>2026-04-26T09:09:45.938Z</time></trkpt><trkpt lat="45.6566325" lon="10.8951065"><ele>113.0</ele><time>2026-04-26T09:09:48.938Z</time></trkpt><trkpt lat="45.6566202" lon="10.8952447"><ele>112.99999999999999</ele><time>2026-04-26T09:09:50.937Z</time></trkpt><trkpt lat="45.6566086" lon="10.895343"><ele>113.0</ele><time>2026-04-26T09:09:51.938Z</time></trkpt><trkpt lat="45.656595" lon="10.8954506"><ele>113.0</ele><time>2026-04-26T09:09:52.939Z</time></trkpt><trkpt lat="45.6565879" lon="10.8955692"><ele>113.00000000000001</ele><time>2026-04-26T09:09:53.938Z</time></trkpt><trkpt lat="45.6565789" lon="10.8956958"><ele>113.00000000000001</ele><time>2026-04-26T09:09:54.938Z</time></trkpt><trkpt lat="45.6565649" lon="10.8958317"><ele>113.0</ele><time>2026-04-26T09:09:55.937Z</time></trkpt><trkpt lat="45.6565473" lon="10.8959734"><ele>113.0</ele><time>2026-04-26T09:09:56.937Z</time></trkpt><trkpt lat="45.6565363" lon="10.8961236"><ele>114.0</ele><time>2026-04-26T09:09:57.937Z</time></trkpt><trkpt lat="45.6565197" lon="10.896274"><ele>115.0</ele><time>2026-04-26T09:09:58.938Z</time></trkpt><trkpt lat="45.656505" lon="10.8964347"><ele>116.0</ele><time>2026-04-26T09:09:59.938Z</time></trkpt><trkpt lat="45.6564877" lon="10.8966016"><ele>117.0</ele><time>2026-04-26T09:10:00.938Z</time></trkpt><trkpt lat="45.6564639" lon="10.89678"><ele>117.5</ele><time>2026-04-26T09:10:01.938Z</time></trkpt><trkpt lat="45.6564465" lon="10.8969603"><ele>118.0</ele><time>2026-04-26T09:10:02.937Z</time></trkpt><trkpt lat="45.6564274" lon="10.8971352"><ele>118.5</ele><time>2026-04-26T09:10:03.937Z</time></trkpt><trkpt lat="45.6564121" lon="10.8973006"><ele>119.0</ele><time>2026-04-26T09:10:04.938Z</time></trkpt><trkpt lat="45.6563929" lon="10.8974428"><ele>118.99999999999999</ele><time>2026-04-26T09:10:05.938Z</time></trkpt><trkpt lat="45.6563741" lon="10.8975698"><ele>119.0</ele><time>2026-04-26T09:10:06.937Z</time></trkpt><trkpt lat="45.6563521" lon="10.8976799"><ele>119.0</ele><time>2026-04-26T09:10:07.938Z</time></trkpt><trkpt lat="45.6563345" lon="10.8977782"><ele>119.0</ele><time>2026-04-26T09:10:08.937Z</time></trkpt><trkpt lat="45.6562911" lon="10.8979276"><ele>118.99999999999999</ele><time>2026-04-26T09:10:10.937Z</time></trkpt><trkpt lat="45.6562547" lon="10.8980396"><ele>119.0</ele><time>2026-04-26T09:10:12.937Z</time></trkpt><trkpt lat="45.6562567" lon="10.8981355"><ele>119.0</ele><time>2026-04-26T09:10:15.938Z</time></trkpt><trkpt lat="45.6562953" lon="10.8980526"><ele>119.0</ele><time>2026-04-26T09:11:06.938Z</time></trkpt><trkpt lat="45.6563281" lon="10.8979446"><ele>119.0</ele><time>2026-04-26T09:11:08.937Z</time></trkpt><trkpt lat="45.656352" lon="10.8977892"><ele>119.0</ele><time>2026-04-26T09:11:10.937Z</time></trkpt><trkpt lat="45.6563695" lon="10.8977023"><ele>119.0</ele><time>2026-04-26T09:11:11.937Z</time></trkpt><trkpt lat="45.6563972" lon="10.8975266"><ele>119.0</ele><time>2026-04-26T09:11:13.938Z</time></trkpt><trkpt lat="45.6564096" lon="10.8974382"><ele>119.0</ele><time>2026-04-26T09:11:14.938Z</time></trkpt><trkpt lat="45.6564372" lon="10.8972674"><ele>119.0</ele><time>2026-04-26T09:11:16.937Z</time></trkpt><trkpt lat="45.6564567" lon="10.8971002"><ele>119.0</ele><time>2026-04-26T09:11:18.937Z</time></trkpt><trkpt lat="45.6564757" lon="10.8969037"><ele>119.0</ele><time>2026-04-26T09:11:20.937Z</time></trkpt><trkpt lat="45.6564871" lon="10.8967782"><ele>118.6</ele><time>2026-04-26T09:11:21.937Z</time></trkpt><trkpt lat="45.6565" lon="10.8966428"><ele>118.2</ele><time>2026-04-26T09:11:22.937Z</time></trkpt><trkpt lat="45.656513" lon="10.8964925"><ele>117.79999999999998</ele><time>2026-04-26T09:11:23.937Z</time></trkpt><trkpt lat="45.6565268" lon="10.8963445"><ele>117.39999999999999</ele><time>2026-04-26T09:11:24.936Z</time></trkpt><trkpt lat="45.6565401" lon="10.8961996"><ele>117.0</ele><time>2026-04-26T09:11:25.937Z</time></trkpt><trkpt lat="45.6565508" lon="10.8960532"><ele>116.19999999999999</ele><time>2026-04-26T09:11:26.937Z</time></trkpt><trkpt lat="45.6565683" lon="10.8959091"><ele>115.39999999999999</ele><time>2026-04-26T09:11:27.936Z</time></trkpt><trkpt lat="45.6565877" lon="10.8957564"><ele>114.60000000000001</ele><time>2026-04-26T09:11:28.936Z</time></trkpt><trkpt lat="45.6566022" lon="10.8956161"><ele>113.80000000000001</ele><time>2026-04-26T09:11:29.937Z</time></trkpt><trkpt lat="45.6566158" lon="10.8955036"><ele>113.0</ele><time>2026-04-26T09:11:30.936Z</time></trkpt><trkpt lat="45.6566287" lon="10.8953917"><ele>112.99999999999999</ele><time>2026-04-26T09:11:31.936Z</time></trkpt><trkpt lat="45.6566387" lon="10.8952897"><ele>113.0</ele><time>2026-04-26T09:11:32.937Z</time></trkpt><trkpt lat="45.6566435" lon="10.8951932"><ele>113.0</ele><time>2026-04-26T09:11:33.937Z</time></trkpt><trkpt lat="45.65665" lon="10.8951032"><ele>113.0</ele><time>2026-04-26T09:11:34.936Z</time></trkpt><trkpt lat="45.656665" lon="10.8949371"><ele>112.99999999999999</ele><time>2026-04-26T09:11:36.937Z</time></trkpt><trkpt lat="45.656677" lon="10.8947948"><ele>113.0</ele><time>2026-04-26T09:11:38.937Z</time></trkpt><trkpt lat="45.6566841" lon="10.8946712"><ele>112.99999999999999</ele><time>2026-04-26T09:11:40.936Z</time></trkpt><trkpt lat="45.6566522" lon="10.8947803"><ele>113.0</ele><time>2026-04-26T09:11:46.937Z</time></trkpt><trkpt lat="45.6566483" lon="10.8948767"><ele>113.0</ele><time>2026-04-26T09:11:47.937Z</time></trkpt><trkpt lat="45.6566417" lon="10.8949883"><ele>113.0</ele><time>2026-04-26T09:11:48.936Z</time></trkpt><trkpt lat="45.6566311" lon="10.8951072"><ele>112.99999999999999</ele><time>2026-04-26T09:11:49.936Z</time></trkpt><trkpt lat="45.6566181" lon="10.895218"><ele>113.0</ele><time>2026-04-26T09:11:50.936Z</time></trkpt><trkpt lat="45.6566045" lon="10.8953259"><ele>113.0</ele><time>2026-04-26T09:11:51.936Z</time></trkpt><trkpt lat="45.656596" lon="10.8954202"><ele>113.00000000000001</ele><time>2026-04-26T09:11:52.937Z</time></trkpt><trkpt lat="45.6565807" lon="10.895585"><ele>113.00000000000001</ele><time>2026-04-26T09:11:54.937Z</time></trkpt><trkpt lat="45.6565671" lon="10.8957144"><ele>113.0</ele><time>2026-04-26T09:11:56.936Z</time></trkpt><trkpt lat="45.6565558" lon="10.8958371"><ele>113.0</ele><time>2026-04-26T09:11:58.937Z</time></trkpt><trkpt lat="45.656541" lon="10.8960047"><ele>113.80000000000001</ele><time>2026-04-26T09:12:00.937Z</time></trkpt><trkpt lat="45.6565321" lon="10.8961068"><ele>114.60000000000001</ele><time>2026-04-26T09:12:01.937Z</time></trkpt><trkpt lat="45.6565219" lon="10.8962241"><ele>115.39999999999999</ele><time>2026-04-26T09:12:02.937Z</time></trkpt><trkpt lat="45.6565074" lon="10.8963515"><ele>116.19999999999999</ele><time>2026-04-26T09:12:03.937Z</time></trkpt><trkpt lat="45.6564919" lon="10.8964979"><ele>117.0</ele><time>2026-04-26T09:12:04.937Z</time></trkpt><trkpt lat="45.6564765" lon="10.8966481"><ele>117.39999999999999</ele><time>2026-04-26T09:12:05.936Z</time></trkpt><trkpt lat="45.6564616" lon="10.8967883"><ele>117.79999999999998</ele><time>2026-04-26T09:12:06.937Z</time></trkpt><trkpt lat="45.6564435" lon="10.8969397"><ele>118.2</ele><time>2026-04-26T09:12:07.937Z</time></trkpt><trkpt lat="45.6564278" lon="10.8971018"><ele>118.6</ele><time>2026-04-26T09:12:08.936Z</time></trkpt><trkpt lat="45.6564128" lon="10.8972611"><ele>119.0</ele><time>2026-04-26T09:12:09.937Z</time></trkpt><trkpt lat="45.6564004" lon="10.8973928"><ele>118.99999999999999</ele><time>2026-04-26T09:12:10.937Z</time></trkpt><trkpt lat="45.6563849" lon="10.8975025"><ele>119.0</ele><time>2026-04-26T09:12:11.936Z</time></trkpt><trkpt lat="45.6563554" lon="10.897639"><ele>119.0</ele><time>2026-04-26T09:12:13.937Z</time></trkpt><trkpt lat="45.6563335" lon="10.8975124"><ele>119.0</ele><time>2026-04-26T09:12:18.937Z</time></trkpt><trkpt lat="45.6563439" lon="10.8973999"><ele>118.99999999999999</ele><time>2026-04-26T09:12:19.936Z</time></trkpt><trkpt lat="45.6563533" lon="10.8972731"><ele>119.0</ele><time>2026-04-26T09:12:20.937Z</time></trkpt><trkpt lat="45.6563647" lon="10.8971112"><ele>119.0</ele><time>2026-04-26T09:12:21.936Z</time></trkpt><trkpt lat="45.6563882" lon="10.8969175"><ele>119.0</ele><time>2026-04-26T09:12:22.937Z</time></trkpt><trkpt lat="45.6564097" lon="10.8966983"><ele>119.0</ele><time>2026-04-26T09:12:23.937Z</time></trkpt><trkpt lat="45.6564298" lon="10.8964789"><ele>119.0</ele><time>2026-04-26T09:12:24.937Z</time></trkpt><trkpt lat="45.6564475" lon="10.8962714"><ele>118.6</ele><time>2026-04-26T09:12:25.937Z</time></trkpt><trkpt lat="45.6564637" lon="10.8960751"><ele>118.2</ele><time>2026-04-26T09:12:26.937Z</time></trkpt><trkpt lat="45.6564744" lon="10.8959109"><ele>117.79999999999998</ele><time>2026-04-26T09:12:27.936Z</time></trkpt><trkpt lat="45.6564865" lon="10.8957726"><ele>117.39999999999999</ele><time>2026-04-26T09:12:28.937Z</time></trkpt><trkpt lat="45.6564902" lon="10.8956826"><ele>117.0</ele><time>2026-04-26T09:12:29.936Z</time></trkpt><trkpt lat="45.6564364" lon="10.8955798"><ele>116.25</ele><time>2026-04-26T09:12:31.937Z</time></trkpt><trkpt lat="45.6563671" lon="10.8955433"><ele>115.5</ele><time>2026-04-26T09:12:32.937Z</time></trkpt><trkpt lat="45.6562509" lon="10.8955134"><ele>114.75</ele><time>2026-04-26T09:12:33.937Z</time></trkpt><trkpt lat="45.6561107" lon="10.8954944"><ele>114.0</ele><time>2026-04-26T09:12:34.937Z</time></trkpt><trkpt lat="45.6559417" lon="10.895487"><ele>114.0</ele><time>2026-04-26T09:12:35.936Z</time></trkpt><trkpt lat="45.6557552" lon="10.8954899"><ele>114.0</ele><time>2026-04-26T09:12:36.937Z</time></trkpt><trkpt lat="45.6555646" lon="10.89549"><ele>114.0</ele><time>2026-04-26T09:12:37.937Z</time></trkpt><trkpt lat="45.6553966" lon="10.8955021"><ele>114.0</ele><time>2026-04-26T09:12:38.936Z</time></trkpt><trkpt lat="45.6552312" lon="10.8955146"><ele>114.0</ele><time>2026-04-26T09:12:39.937Z</time></trkpt><trkpt lat="45.6550861" lon="10.8955252"><ele>114.0</ele><time>2026-04-26T09:12:40.937Z</time></trkpt><trkpt lat="45.6549555" lon="10.8955472"><ele>114.0</ele><time>2026-04-26T09:12:41.937Z</time></trkpt><trkpt lat="45.6548577" lon="10.8955739"><ele>114.0</ele><time>2026-04-26T09:12:42.936Z</time></trkpt><trkpt lat="45.6547766" lon="10.8956181"><ele>114.0</ele><time>2026-04-26T09:12:43.937Z</time></trkpt><trkpt lat="45.6547218" lon="10.895685"><ele>114.0</ele><time>2026-04-26T09:12:44.937Z</time></trkpt><trkpt lat="45.6546949" lon="10.895837"><ele>114.0</ele><time>2026-04-26T09:12:46.937Z</time></trkpt><trkpt lat="45.6547126" lon="10.8959724"><ele>114.0</ele><time>2026-04-26T09:12:47.936Z</time></trkpt><trkpt lat="45.6547172" lon="10.8961277"><ele>114.0</ele><time>2026-04-26T09:12:48.937Z</time></trkpt><trkpt lat="45.6547416" lon="10.8963144"><ele>114.0</ele><time>2026-04-26T09:12:49.937Z</time></trkpt><trkpt lat="45.6547844" lon="10.8965366"><ele>114.0</ele><time>2026-04-26T09:12:50.937Z</time></trkpt><trkpt lat="45.6548435" lon="10.8967728"><ele>114.0</ele><time>2026-04-26T09:12:51.937Z</time></trkpt><trkpt lat="45.6549052" lon="10.8969967"><ele>114.0</ele><time>2026-04-26T09:12:52.936Z</time></trkpt><trkpt lat="45.654956" lon="10.8971995"><ele>114.0</ele><time>2026-04-26T09:12:53.936Z</time></trkpt><trkpt lat="45.655" lon="10.8973757"><ele>114.0</ele><time>2026-04-26T09:12:54.936Z</time></trkpt><trkpt lat="45.6550386" lon="10.8975327"><ele>114.0</ele><time>2026-04-26T09:12:55.937Z</time></trkpt><trkpt lat="45.6550653" lon="10.8976638"><ele>114.0</ele><time>2026-04-26T09:12:56.937Z</time></trkpt><trkpt lat="45.6550827" lon="10.8977659"><ele>114.0</ele><time>2026-04-26T09:12:57.937Z</time></trkpt><trkpt lat="45.6550708" lon="10.8978929"><ele>114.0</ele><time>2026-04-26T09:12:59.937Z</time></trkpt><trkpt lat="45.6549888" lon="10.8978391"><ele>114.0</ele><time>2026-04-26T09:13:02.936Z</time></trkpt><trkpt lat="45.6549799" lon="10.897655"><ele>114.0</ele><time>2026-04-26T09:13:04.937Z</time></trkpt><trkpt lat="45.6549886" lon="10.8975048"><ele>114.0</ele><time>2026-04-26T09:13:06.937Z</time></trkpt><trkpt lat="45.6549885" lon="10.8973729"><ele>114.0</ele><time>2026-04-26T09:13:08.936Z</time></trkpt><trkpt lat="45.6549781" lon="10.8972827"><ele>114.0</ele><time>2026-04-26T09:13:09.936Z</time></trkpt><trkpt lat="45.6549513" lon="10.8971604"><ele>114.0</ele><time>2026-04-26T09:13:10.937Z</time></trkpt><trkpt lat="45.654916" lon="10.8970221"><ele>114.0</ele><time>2026-04-26T09:13:11.936Z</time></trkpt><trkpt lat="45.6548695" lon="10.8968441"><ele>114.0</ele><time>2026-04-26T09:13:12.937Z</time></trkpt><trkpt lat="45.6548195" lon="10.8966537"><ele>114.0</ele><time>2026-04-26T09:13:13.937Z</time></trkpt><trkpt lat="45.65478" lon="10.8965016"><ele>114.0</ele><time>2026-04-26T09:13:14.936Z</time></trkpt><trkpt lat="45.6547497" lon="10.8963679"><ele>114.0</ele><time>2026-04-26T09:13:15.937Z</time></trkpt><trkpt lat="45.6547271" lon="10.896257"><ele>114.0</ele><time>2026-04-26T09:13:16.937Z</time></trkpt><trkpt lat="45.6547024" lon="10.896172"><ele>114.0</ele><time>2026-04-26T09:13:17.937Z</time></trkpt><trkpt lat="45.654623" lon="10.8960612"><ele>114.0</ele><time>2026-04-26T09:13:19.937Z</time></trkpt><trkpt lat="45.6545041" lon="10.8960252"><ele>114.0</ele><time>2026-04-26T09:13:21.936Z</time></trkpt><trkpt lat="45.6544305" lon="10.8960082"><ele>114.0</ele><time>2026-04-26T09:13:22.936Z</time></trkpt><trkpt lat="45.6543712" lon="10.8959624"><ele>114.0</ele><time>2026-04-26T09:13:23.937Z</time></trkpt><trkpt lat="45.6543086" lon="10.895804"><ele>114.0</ele><time>2026-04-26T09:13:25.936Z</time></trkpt><trkpt lat="45.6542836" lon="10.8957084"><ele>114.0</ele><time>2026-04-26T09:13:26.936Z</time></trkpt><trkpt lat="45.6542068" lon="10.895635"><ele>114.0</ele><time>2026-04-26T09:13:28.937Z</time></trkpt><trkpt lat="45.6541206" lon="10.8956256"><ele>114.0</ele><time>2026-04-26T09:13:29.936Z</time></trkpt><trkpt lat="45.6540049" lon="10.8956453"><ele>114.0</ele><time>2026-04-26T09:13:30.936Z</time></trkpt><trkpt lat="45.653862" lon="10.8956796"><ele>114.0</ele><time>2026-04-26T09:13:31.936Z</time></trkpt><trkpt lat="45.6537193" lon="10.8957145"><ele>114.0</ele><time>2026-04-26T09:13:32.937Z</time></trkpt><trkpt lat="45.6535807" lon="10.8957475"><ele>114.0</ele><time>2026-04-26T09:13:33.936Z</time></trkpt><trkpt lat="45.6534469" lon="10.8957911"><ele>114.0</ele><time>2026-04-26T09:13:34.936Z</time></trkpt><trkpt lat="45.6533173" lon="10.8958416"><ele>114.0</ele><time>2026-04-26T09:13:35.936Z</time></trkpt><trkpt lat="45.6531931" lon="10.8958872"><ele>114.0</ele><time>2026-04-26T09:13:36.937Z</time></trkpt><trkpt lat="45.6530727" lon="10.8959351"><ele>114.4</ele><time>2026-04-26T09:13:37.937Z</time></trkpt><trkpt lat="45.652962" lon="10.8959867"><ele>114.80000000000001</ele><time>2026-04-26T09:13:38.936Z</time></trkpt><trkpt lat="45.6528545" lon="10.8960383"><ele>115.19999999999999</ele><time>2026-04-26T09:13:39.936Z</time></trkpt><trkpt lat="45.6527627" lon="10.8960827"><ele>115.6</ele><time>2026-04-26T09:13:40.937Z</time></trkpt><trkpt lat="45.6526926" lon="10.8961233"><ele>116.0</ele><time>2026-04-26T09:13:41.937Z</time></trkpt><trkpt lat="45.6526378" lon="10.8962228"><ele>116.0</ele><time>2026-04-26T09:13:43.936Z</time></trkpt><trkpt lat="45.6526542" lon="10.8963178"><ele>116.0</ele><time>2026-04-26T09:13:44.937Z</time></trkpt><trkpt lat="45.6526865" lon="10.8964623"><ele>116.0</ele><time>2026-04-26T09:13:45.936Z</time></trkpt><trkpt lat="45.6527164" lon="10.8966367"><ele>116.0</ele><time>2026-04-26T09:13:46.936Z</time></trkpt><trkpt lat="45.6527536" lon="10.8968321"><ele>116.0</ele><time>2026-04-26T09:13:47.936Z</time></trkpt><trkpt lat="45.6527868" lon="10.8970229"><ele>115.75</ele><time>2026-04-26T09:13:48.937Z</time></trkpt><trkpt lat="45.6528181" lon="10.8972042"><ele>115.5</ele><time>2026-04-26T09:13:49.936Z</time></trkpt><trkpt lat="45.6528385" lon="10.8973773"><ele>115.25</ele><time>2026-04-26T09:13:50.937Z</time></trkpt><trkpt lat="45.6528473" lon="10.8975401"><ele>115.0</ele><time>2026-04-26T09:13:51.937Z</time></trkpt><trkpt lat="45.6528477" lon="10.8976952"><ele>115.4</ele><time>2026-04-26T09:13:52.937Z</time></trkpt><trkpt lat="45.6528443" lon="10.89785"><ele>115.8</ele><time>2026-04-26T09:13:53.937Z</time></trkpt><trkpt lat="45.6528448" lon="10.8979924"><ele>116.19999999999999</ele><time>2026-04-26T09:13:54.937Z</time></trkpt><trkpt lat="45.6528428" lon="10.8981243"><ele>116.6</ele><time>2026-04-26T09:13:55.937Z</time></trkpt><trkpt lat="45.6528379" lon="10.8982443"><ele>117.0</ele><time>2026-04-26T09:13:56.937Z</time></trkpt><trkpt lat="45.6528311" lon="10.8983474"><ele>117.6</ele><time>2026-04-26T09:13:57.937Z</time></trkpt><trkpt lat="45.6528119" lon="10.8985055"><ele>118.19999999999999</ele><time>2026-04-26T09:13:59.937Z</time></trkpt><trkpt lat="45.6527826" lon="10.8986709"><ele>118.8</ele><time>2026-04-26T09:14:01.937Z</time></trkpt><trkpt lat="45.6527673" lon="10.8987661"><ele>119.4</ele><time>2026-04-26T09:14:02.937Z</time></trkpt><trkpt lat="45.6527312" lon="10.8988794"><ele>120.0</ele><time>2026-04-26T09:14:03.936Z</time></trkpt><trkpt lat="45.652709" lon="10.8989912"><ele>120.16666666666667</ele><time>2026-04-26T09:14:04.937Z</time></trkpt><trkpt lat="45.6526934" lon="10.899115"><ele>120.33333333333334</ele><time>2026-04-26T09:14:05.937Z</time></trkpt><trkpt lat="45.6526747" lon="10.8992432"><ele>120.5</ele><time>2026-04-26T09:14:06.937Z</time></trkpt><trkpt lat="45.6526642" lon="10.8993721"><ele>120.66666666666667</ele><time>2026-04-26T09:14:07.936Z</time></trkpt><trkpt lat="45.6526565" lon="10.8994948"><ele>120.83333333333334</ele><time>2026-04-26T09:14:08.936Z</time></trkpt><trkpt lat="45.6526518" lon="10.8996023"><ele>121.0</ele><time>2026-04-26T09:14:09.936Z</time></trkpt><trkpt lat="45.6526543" lon="10.8997052"><ele>123.19999999999999</ele><time>2026-04-26T09:14:10.937Z</time></trkpt><trkpt lat="45.6526715" lon="10.8998056"><ele>125.39999999999999</ele><time>2026-04-26T09:14:11.937Z</time></trkpt><trkpt lat="45.6527197" lon="10.8999079"><ele>127.6</ele><time>2026-04-26T09:14:12.937Z</time></trkpt><trkpt lat="45.6527858" lon="10.8999995"><ele>129.79999999999998</ele><time>2026-04-26T09:14:13.937Z</time></trkpt><trkpt lat="45.652863" lon="10.9000906"><ele>132.0</ele><time>2026-04-26T09:14:14.936Z</time></trkpt><trkpt lat="45.6529434" lon="10.9001745"><ele>132.33333333333334</ele><time>2026-04-26T09:14:15.937Z</time></trkpt><trkpt lat="45.6530179" lon="10.9002447"><ele>132.66666666666666</ele><time>2026-04-26T09:14:16.937Z</time></trkpt><trkpt lat="45.6531025" lon="10.9003287"><ele>133.0</ele><time>2026-04-26T09:14:18.937Z</time></trkpt><trkpt lat="45.6530463" lon="10.9003808"><ele>133.33333333333331</ele><time>2026-04-26T09:14:22.937Z</time></trkpt><trkpt lat="45.6529535" lon="10.9002984"><ele>133.66666666666666</ele><time>2026-04-26T09:14:24.937Z</time></trkpt><trkpt lat="45.652888" lon="10.9002453"><ele>134.0</ele><time>2026-04-26T09:14:25.936Z</time></trkpt><trkpt lat="45.6528096" lon="10.9001807"><ele>133.5</ele><time>2026-04-26T09:14:26.937Z</time></trkpt><trkpt lat="45.6527212" lon="10.9001121"><ele>133.0</ele><time>2026-04-26T09:14:27.936Z</time></trkpt><trkpt lat="45.652623" lon="10.9000305"><ele>132.5</ele><time>2026-04-26T09:14:28.937Z</time></trkpt><trkpt lat="45.652518" lon="10.899944"><ele>132.0</ele><time>2026-04-26T09:14:29.936Z</time></trkpt><trkpt lat="45.6524086" lon="10.8998545"><ele>132.0</ele><time>2026-04-26T09:14:30.937Z</time></trkpt><trkpt lat="45.6522975" lon="10.8997636"><ele>132.0</ele><time>2026-04-26T09:14:31.936Z</time></trkpt><trkpt lat="45.6521844" lon="10.8996702"><ele>132.0</ele><time>2026-04-26T09:14:32.936Z</time></trkpt><trkpt lat="45.6520676" lon="10.8995745"><ele>132.0</ele><time>2026-04-26T09:14:33.936Z</time></trkpt><trkpt lat="45.6519503" lon="10.8994792"><ele>131.0</ele><time>2026-04-26T09:14:34.937Z</time></trkpt><trkpt lat="45.6518347" lon="10.8993859"><ele>130.0</ele><time>2026-04-26T09:14:35.937Z</time></trkpt><trkpt lat="45.6517203" lon="10.8992929"><ele>129.0</ele><time>2026-04-26T09:14:36.937Z</time></trkpt><trkpt lat="45.6516071" lon="10.8992002"><ele>128.0</ele><time>2026-04-26T09:14:37.937Z</time></trkpt><trkpt lat="45.6514944" lon="10.8991112"><ele>128.0</ele><time>2026-04-26T09:14:38.936Z</time></trkpt><trkpt lat="45.6513797" lon="10.8990277"><ele>128.0</ele><time>2026-04-26T09:14:39.936Z</time></trkpt><trkpt lat="45.6512629" lon="10.8989514"><ele>128.0</ele><time>2026-04-26T09:14:40.937Z</time></trkpt><trkpt lat="45.6511443" lon="10.898878"><ele>128.0</ele><time>2026-04-26T09:14:41.936Z</time></trkpt><trkpt lat="45.6510228" lon="10.8988023"><ele>131.75</ele><time>2026-04-26T09:14:42.937Z</time></trkpt><trkpt lat="45.6508967" lon="10.8987245"><ele>135.5</ele><time>2026-04-26T09:14:43.937Z</time></trkpt><trkpt lat="45.6507654" lon="10.8986476"><ele>139.25</ele><time>2026-04-26T09:14:44.937Z</time></trkpt><trkpt lat="45.6506333" lon="10.8985728"><ele>143.0</ele><time>2026-04-26T09:14:45.937Z</time></trkpt><trkpt lat="45.6505008" lon="10.8984945"><ele>143.0</ele><time>2026-04-26T09:14:46.936Z</time></trkpt><trkpt lat="45.6503716" lon="10.8984196"><ele>143.0</ele><time>2026-04-26T09:14:47.937Z</time></trkpt><trkpt lat="45.6502406" lon="10.8983425"><ele>143.0</ele><time>2026-04-26T09:14:48.937Z</time></trkpt><trkpt lat="45.6501064" lon="10.8982658"><ele>143.0</ele><time>2026-04-26T09:14:49.937Z</time></trkpt><trkpt lat="45.6499725" lon="10.8981884"><ele>142.75</ele><time>2026-04-26T09:14:50.937Z</time></trkpt><trkpt lat="45.6498382" lon="10.8981119"><ele>142.5</ele><time>2026-04-26T09:14:51.937Z</time></trkpt><trkpt lat="45.649703" lon="10.8980367"><ele>142.25</ele><time>2026-04-26T09:14:52.937Z</time></trkpt><trkpt lat="45.6495657" lon="10.8979596"><ele>142.0</ele><time>2026-04-26T09:14:53.936Z</time></trkpt><trkpt lat="45.6494267" lon="10.8978864"><ele>142.0</ele><time>2026-04-26T09:14:54.937Z</time></trkpt><trkpt lat="45.6492877" lon="10.8978113"><ele>142.0</ele><time>2026-04-26T09:14:55.936Z</time></trkpt><trkpt lat="45.6491486" lon="10.8977295"><ele>142.0</ele><time>2026-04-26T09:14:56.937Z</time></trkpt><trkpt lat="45.6490103" lon="10.8976449"><ele>142.0</ele><time>2026-04-26T09:14:57.936Z</time></trkpt><trkpt lat="45.6488703" lon="10.89756"><ele>139.66666666666669</ele><time>2026-04-26T09:14:58.937Z</time></trkpt><trkpt lat="45.6487294" lon="10.8974756"><ele>137.33333333333334</ele><time>2026-04-26T09:14:59.937Z</time></trkpt><trkpt lat="45.6485901" lon="10.8973813"><ele>135.0</ele><time>2026-04-26T09:15:00.936Z</time></trkpt><trkpt lat="45.6484539" lon="10.8972828"><ele>135.0</ele><time>2026-04-26T09:15:01.936Z</time></trkpt><trkpt lat="45.6483181" lon="10.89718"><ele>135.0</ele><time>2026-04-26T09:15:02.937Z</time></trkpt><trkpt lat="45.6481856" lon="10.8970785"><ele>135.0</ele><time>2026-04-26T09:15:03.937Z</time></trkpt><trkpt lat="45.6480559" lon="10.8969771"><ele>135.0</ele><time>2026-04-26T09:15:04.937Z</time></trkpt><trkpt lat="45.6479287" lon="10.8968766"><ele>135.0</ele><time>2026-04-26T09:15:05.937Z</time></trkpt><trkpt lat="45.6478045" lon="10.8967728"><ele>135.0</ele><time>2026-04-26T09:15:06.937Z</time></trkpt><trkpt lat="45.6476826" lon="10.89667"><ele>135.0</ele><time>2026-04-26T09:15:07.937Z</time></trkpt><trkpt lat="45.6475595" lon="10.8965631"><ele>134.5</ele><time>2026-04-26T09:15:08.936Z</time></trkpt><trkpt lat="45.6474382" lon="10.896453"><ele>134.0</ele><time>2026-04-26T09:15:09.936Z</time></trkpt><trkpt lat="45.6473182" lon="10.8963393"><ele>133.5</ele><time>2026-04-26T09:15:10.936Z</time></trkpt><trkpt lat="45.6471971" lon="10.8962261"><ele>133.0</ele><time>2026-04-26T09:15:11.936Z</time></trkpt><trkpt lat="45.6470781" lon="10.8961132"><ele>133.0</ele><time>2026-04-26T09:15:12.935Z</time></trkpt><trkpt lat="45.6469633" lon="10.8960053"><ele>133.0</ele><time>2026-04-26T09:15:13.935Z</time></trkpt><trkpt lat="45.6468475" lon="10.8958946"><ele>133.0</ele><time>2026-04-26T09:15:14.936Z</time></trkpt><trkpt lat="45.6467332" lon="10.8957775"><ele>133.0</ele><time>2026-04-26T09:15:15.936Z</time></trkpt><trkpt lat="45.6466239" lon="10.8956508"><ele>132.5</ele><time>2026-04-26T09:15:16.936Z</time></trkpt><trkpt lat="45.6465211" lon="10.895519"><ele>132.0</ele><time>2026-04-26T09:15:17.936Z</time></trkpt><trkpt lat="45.6464241" lon="10.8953836"><ele>131.5</ele><time>2026-04-26T09:15:18.936Z</time></trkpt><trkpt lat="45.6463292" lon="10.895247"><ele>131.0</ele><time>2026-04-26T09:15:19.936Z</time></trkpt><trkpt lat="45.6462346" lon="10.8951029"><ele>132.25</ele><time>2026-04-26T09:15:20.936Z</time></trkpt><trkpt lat="45.646143" lon="10.8949555"><ele>133.5</ele><time>2026-04-26T09:15:21.936Z</time></trkpt><trkpt lat="45.6460581" lon="10.8948158"><ele>134.75</ele><time>2026-04-26T09:15:22.935Z</time></trkpt><trkpt lat="45.6459839" lon="10.8946874"><ele>136.0</ele><time>2026-04-26T09:15:23.935Z</time></trkpt><trkpt lat="45.6459222" lon="10.8945788"><ele>136.0</ele><time>2026-04-26T09:15:24.935Z</time></trkpt><trkpt lat="45.6458758" lon="10.8944965"><ele>136.0</ele><time>2026-04-26T09:15:25.936Z</time></trkpt><trkpt lat="45.6457954" lon="10.8944303"><ele>136.0</ele><time>2026-04-26T09:15:27.935Z</time></trkpt><trkpt lat="45.6457123" lon="10.8945097"><ele>136.0</ele><time>2026-04-26T09:15:29.936Z</time></trkpt><trkpt lat="45.6456605" lon="10.8945765"><ele>136.0</ele><time>2026-04-26T09:15:30.936Z</time></trkpt><trkpt lat="45.645596" lon="10.8946549"><ele>136.0</ele><time>2026-04-26T09:15:31.936Z</time></trkpt><trkpt lat="45.6455225" lon="10.8947453"><ele>136.0</ele><time>2026-04-26T09:15:32.936Z</time></trkpt><trkpt lat="45.6454444" lon="10.8948326"><ele>136.0</ele><time>2026-04-26T09:15:33.936Z</time></trkpt><trkpt lat="45.645366" lon="10.8948933"><ele>136.0</ele><time>2026-04-26T09:15:34.936Z</time></trkpt><trkpt lat="45.6452866" lon="10.8949284"><ele>136.0</ele><time>2026-04-26T09:15:35.935Z</time></trkpt><trkpt lat="45.6452084" lon="10.8949592"><ele>136.0</ele><time>2026-04-26T09:15:36.936Z</time></trkpt><trkpt lat="45.6451356" lon="10.8949665"><ele>136.0</ele><time>2026-04-26T09:15:37.936Z</time></trkpt><trkpt lat="45.6450624" lon="10.8949456"><ele>140.25</ele><time>2026-04-26T09:15:38.936Z</time></trkpt><trkpt lat="45.6449713" lon="10.8948942"><ele>144.5</ele><time>2026-04-26T09:15:39.936Z</time></trkpt><trkpt lat="45.6448531" lon="10.894827"><ele>148.75</ele><time>2026-04-26T09:15:40.936Z</time></trkpt><trkpt lat="45.6447247" lon="10.8947584"><ele>153.0</ele><time>2026-04-26T09:15:41.935Z</time></trkpt><trkpt lat="45.6446005" lon="10.8946925"><ele>153.0</ele><time>2026-04-26T09:15:42.935Z</time></trkpt><trkpt lat="45.644493" lon="10.8946197"><ele>153.0</ele><time>2026-04-26T09:15:43.936Z</time></trkpt><trkpt lat="45.6443918" lon="10.8945473"><ele>153.0</ele><time>2026-04-26T09:15:44.935Z</time></trkpt><trkpt lat="45.6442948" lon="10.8944806"><ele>153.0</ele><time>2026-04-26T09:15:45.935Z</time></trkpt><trkpt lat="45.6441995" lon="10.8944334"><ele>153.0</ele><time>2026-04-26T09:15:46.935Z</time></trkpt><trkpt lat="45.6440973" lon="10.89439"><ele>154.25</ele><time>2026-04-26T09:15:47.935Z</time></trkpt><trkpt lat="45.6439726" lon="10.8943447"><ele>155.5</ele><time>2026-04-26T09:15:48.936Z</time></trkpt><trkpt lat="45.643857" lon="10.8942907"><ele>156.75</ele><time>2026-04-26T09:15:49.936Z</time></trkpt><trkpt lat="45.6437529" lon="10.8942394"><ele>158.0</ele><time>2026-04-26T09:15:50.936Z</time></trkpt><trkpt lat="45.6436638" lon="10.8941931"><ele>160.4</ele><time>2026-04-26T09:15:51.936Z</time></trkpt><trkpt lat="45.6435702" lon="10.8941479"><ele>162.8</ele><time>2026-04-26T09:15:52.935Z</time></trkpt><trkpt lat="45.6434737" lon="10.894113"><ele>165.2</ele><time>2026-04-26T09:15:53.936Z</time></trkpt><trkpt lat="45.6433851" lon="10.894094"><ele>167.6</ele><time>2026-04-26T09:15:54.935Z</time></trkpt><trkpt lat="45.6433208" lon="10.8940828"><ele>170.0</ele><time>2026-04-26T09:15:55.936Z</time></trkpt><trkpt lat="45.643224" lon="10.8939882"><ele>170.0</ele><time>2026-04-26T09:15:58.935Z</time></trkpt><trkpt lat="45.6431459" lon="10.8939207"><ele>170.0</ele><time>2026-04-26T09:15:59.935Z</time></trkpt><trkpt lat="45.6430335" lon="10.8938623"><ele>170.0</ele><time>2026-04-26T09:16:00.936Z</time></trkpt><trkpt lat="45.6429206" lon="10.8938212"><ele>170.0</ele><time>2026-04-26T09:16:01.936Z</time></trkpt><trkpt lat="45.6428101" lon="10.8938065"><ele>170.0</ele><time>2026-04-26T09:16:02.936Z</time></trkpt><trkpt lat="45.6426969" lon="10.8937992"><ele>171.0</ele><time>2026-04-26T09:16:03.935Z</time></trkpt><trkpt lat="45.6426154" lon="10.893789"><ele>172.0</ele><time>2026-04-26T09:16:04.935Z</time></trkpt><trkpt lat="45.6425305" lon="10.89379"><ele>173.0</ele><time>2026-04-26T09:16:05.936Z</time></trkpt><trkpt lat="45.6424178" lon="10.8938496"><ele>174.0</ele><time>2026-04-26T09:16:07.936Z</time></trkpt><trkpt lat="45.6423476" lon="10.8938938"><ele>175.0</ele><time>2026-04-26T09:16:08.936Z</time></trkpt><trkpt lat="45.6422859" lon="10.8938739"><ele>176.0</ele><time>2026-04-26T09:16:11.935Z</time></trkpt><trkpt lat="45.6422283" lon="10.8937612"><ele>176.0</ele><time>2026-04-26T09:16:13.936Z</time></trkpt><trkpt lat="45.6421795" lon="10.8936236"><ele>176.0</ele><time>2026-04-26T09:16:15.936Z</time></trkpt><trkpt lat="45.6421512" lon="10.893532"><ele>176.0</ele><time>2026-04-26T09:16:16.936Z</time></trkpt><trkpt lat="45.6421094" lon="10.8933684"><ele>176.0</ele><time>2026-04-26T09:16:18.936Z</time></trkpt><trkpt lat="45.642149" lon="10.8932182"><ele>176.0</ele><time>2026-04-26T09:16:20.936Z</time></trkpt><trkpt lat="45.6421988" lon="10.8931116"><ele>174.5</ele><time>2026-04-26T09:16:21.936Z</time></trkpt><trkpt lat="45.6422648" lon="10.8929928"><ele>173.0</ele><time>2026-04-26T09:16:22.935Z</time></trkpt><trkpt lat="45.6423022" lon="10.8929012"><ele>171.5</ele><time>2026-04-26T09:16:23.936Z</time></trkpt><trkpt lat="45.642272" lon="10.8928061"><ele>170.0</ele><time>2026-04-26T09:16:24.936Z</time></trkpt><trkpt lat="45.6422663" lon="10.8926981"><ele>168.5</ele><time>2026-04-26T09:16:25.935Z</time></trkpt><trkpt lat="45.6422284" lon="10.8925984"><ele>167.0</ele><time>2026-04-26T09:16:26.936Z</time></trkpt><trkpt lat="45.6422007" lon="10.8925125"><ele>165.6</ele><time>2026-04-26T09:16:27.936Z</time></trkpt><trkpt lat="45.6421924" lon="10.8924196"><ele>164.2</ele><time>2026-04-26T09:16:28.936Z</time></trkpt><trkpt lat="45.6422219" lon="10.8922068"><ele>162.8</ele><time>2026-04-26T09:16:30.935Z</time></trkpt><trkpt lat="45.6422425" lon="10.8920783"><ele>161.4</ele><time>2026-04-26T09:16:31.935Z</time></trkpt><trkpt lat="45.6422592" lon="10.8919638"><ele>160.0</ele><time>2026-04-26T09:16:32.936Z</time></trkpt><trkpt lat="45.6422875" lon="10.8918105"><ele>160.0</ele><time>2026-04-26T09:16:34.936Z</time></trkpt><trkpt lat="45.6422993" lon="10.8917153"><ele>160.0</ele><time>2026-04-26T09:16:36.936Z</time></trkpt><trkpt lat="45.6422245" lon="10.8917633"><ele>160.0</ele><time>2026-04-26T09:16:40.936Z</time></trkpt><trkpt lat="45.6422982" lon="10.8917657"><ele>160.0</ele><time>2026-04-26T09:17:49.936Z</time></trkpt><trkpt lat="45.6423277" lon="10.8916502"><ele>160.0</ele><time>2026-04-26T09:17:51.936Z</time></trkpt><trkpt lat="45.6423476" lon="10.8915533"><ele>160.0</ele><time>2026-04-26T09:17:52.936Z</time></trkpt><trkpt lat="45.6423684" lon="10.8914289"><ele>158.5</ele><time>2026-04-26T09:17:53.936Z</time></trkpt><trkpt lat="45.6423959" lon="10.8912817"><ele>157.0</ele><time>2026-04-26T09:17:54.935Z</time></trkpt><trkpt lat="45.6424334" lon="10.8911177"><ele>155.5</ele><time>2026-04-26T09:17:55.936Z</time></trkpt><trkpt lat="45.6424816" lon="10.890937"><ele>154.0</ele><time>2026-04-26T09:17:56.935Z</time></trkpt><trkpt lat="45.6425282" lon="10.8907546"><ele>152.2</ele><time>2026-04-26T09:17:57.935Z</time></trkpt><trkpt lat="45.6425677" lon="10.8905778"><ele>150.4</ele><time>2026-04-26T09:17:58.935Z</time></trkpt><trkpt lat="45.642603" lon="10.8904142"><ele>148.6</ele><time>2026-04-26T09:17:59.936Z</time></trkpt><trkpt lat="45.6426338" lon="10.8902759"><ele>146.8</ele><time>2026-04-26T09:18:00.935Z</time></trkpt><trkpt lat="45.6426597" lon="10.8901658"><ele>145.0</ele><time>2026-04-26T09:18:01.936Z</time></trkpt><trkpt lat="45.642697" lon="10.8900585"><ele>143.6</ele><time>2026-04-26T09:18:03.936Z</time></trkpt><trkpt lat="45.642773" lon="10.8900063"><ele>142.2</ele><time>2026-04-26T09:18:07.935Z</time></trkpt><trkpt lat="45.642891" lon="10.8900125"><ele>140.8</ele><time>2026-04-26T09:18:09.936Z</time></trkpt><trkpt lat="45.6429923" lon="10.890002"><ele>139.4</ele><time>2026-04-26T09:18:11.935Z</time></trkpt><trkpt lat="45.6430433" lon="10.8899118"><ele>138.0</ele><time>2026-04-26T09:18:13.935Z</time></trkpt><trkpt lat="45.643061" lon="10.8897043"><ele>137.4</ele><time>2026-04-26T09:18:15.936Z</time></trkpt><trkpt lat="45.6430842" lon="10.8895472"><ele>136.8</ele><time>2026-04-26T09:18:16.936Z</time></trkpt><trkpt lat="45.6431046" lon="10.8894062"><ele>136.2</ele><time>2026-04-26T09:18:17.936Z</time></trkpt><trkpt lat="45.6431222" lon="10.8892898"><ele>135.6</ele><time>2026-04-26T09:18:18.936Z</time></trkpt><trkpt lat="45.6431313" lon="10.8891994"><ele>135.0</ele><time>2026-04-26T09:18:19.935Z</time></trkpt><trkpt lat="45.6430896" lon="10.8890767"><ele>134.6</ele><time>2026-04-26T09:18:21.935Z</time></trkpt><trkpt lat="45.6430177" lon="10.8890013"><ele>134.2</ele><time>2026-04-26T09:18:22.936Z</time></trkpt><trkpt lat="45.6429629" lon="10.8889337"><ele>133.8</ele><time>2026-04-26T09:18:23.936Z</time></trkpt><trkpt lat="45.6429089" lon="10.8888754"><ele>133.4</ele><time>2026-04-26T09:18:24.936Z</time></trkpt><trkpt lat="45.6428158" lon="10.8887697"><ele>133.0</ele><time>2026-04-26T09:18:26.936Z</time></trkpt><trkpt lat="45.6427263" lon="10.8886703"><ele>133.0</ele><time>2026-04-26T09:18:28.936Z</time></trkpt><trkpt lat="45.6426335" lon="10.8885639"><ele>133.0</ele><time>2026-04-26T09:18:30.936Z</time></trkpt><trkpt lat="45.6425387" lon="10.8884562"><ele>133.0</ele><time>2026-04-26T09:18:32.934Z</time></trkpt><trkpt lat="45.6424877" lon="10.888398"><ele>133.0</ele><time>2026-04-26T09:18:33.936Z</time></trkpt><trkpt lat="45.6424371" lon="10.8883373"><ele>133.0</ele><time>2026-04-26T09:18:34.936Z</time></trkpt><trkpt lat="45.642387" lon="10.8882791"><ele>133.0</ele><time>2026-04-26T09:18:35.935Z</time></trkpt><trkpt lat="45.6423319" lon="10.8882278"><ele>132.5</ele><time>2026-04-26T09:18:36.936Z</time></trkpt><trkpt lat="45.6422341" lon="10.8881179"><ele>132.0</ele><time>2026-04-26T09:18:38.936Z</time></trkpt><trkpt lat="45.6421355" lon="10.8880162"><ele>131.5</ele><time>2026-04-26T09:18:40.936Z</time></trkpt><trkpt lat="45.6420422" lon="10.8879167"><ele>131.0</ele><time>2026-04-26T09:18:42.935Z</time></trkpt><trkpt lat="45.6419472" lon="10.8878123"><ele>131.0</ele><time>2026-04-26T09:18:44.936Z</time></trkpt><trkpt lat="45.6418526" lon="10.8877085"><ele>131.0</ele><time>2026-04-26T09:18:46.935Z</time></trkpt><trkpt lat="45.6417569" lon="10.8876088"><ele>131.0</ele><time>2026-04-26T09:18:48.935Z</time></trkpt><trkpt lat="45.6416564" lon="10.8874991"><ele>131.0</ele><time>2026-04-26T09:18:50.934Z</time></trkpt><trkpt lat="45.6416031" lon="10.8874421"><ele>131.0</ele><time>2026-04-26T09:18:51.935Z</time></trkpt><trkpt lat="45.6415483" lon="10.8873857"><ele>130.28571428571428</ele><time>2026-04-26T09:18:52.935Z</time></trkpt><trkpt lat="45.6414956" lon="10.8873272"><ele>129.57142857142858</ele><time>2026-04-26T09:18:53.936Z</time></trkpt><trkpt lat="45.64144" lon="10.8872716"><ele>128.85714285714286</ele><time>2026-04-26T09:18:54.935Z</time></trkpt><trkpt lat="45.6413831" lon="10.8872163"><ele>128.14285714285714</ele><time>2026-04-26T09:18:55.935Z</time></trkpt><trkpt lat="45.6413282" lon="10.8871552"><ele>127.42857142857143</ele><time>2026-04-26T09:18:56.935Z</time></trkpt><trkpt lat="45.6412712" lon="10.8870942"><ele>126.71428571428572</ele><time>2026-04-26T09:18:57.936Z</time></trkpt><trkpt lat="45.6412133" lon="10.887036"><ele>126.0</ele><time>2026-04-26T09:18:58.936Z</time></trkpt><trkpt lat="45.641159" lon="10.8869757"><ele>126.0</ele><time>2026-04-26T09:18:59.936Z</time></trkpt><trkpt lat="45.6411037" lon="10.8869173"><ele>126.0</ele><time>2026-04-26T09:19:00.935Z</time></trkpt><trkpt lat="45.6410515" lon="10.8868479"><ele>126.0</ele><time>2026-04-26T09:19:01.935Z</time></trkpt><trkpt lat="45.6409953" lon="10.8867763"><ele>126.0</ele><time>2026-04-26T09:19:02.936Z</time></trkpt><trkpt lat="45.6409288" lon="10.8867015"><ele>126.0</ele><time>2026-04-26T09:19:03.936Z</time></trkpt><trkpt lat="45.6408521" lon="10.8866192"><ele>126.0</ele><time>2026-04-26T09:19:04.936Z</time></trkpt><trkpt lat="45.6407697" lon="10.8865295"><ele>125.4</ele><time>2026-04-26T09:19:05.934Z</time></trkpt><trkpt lat="45.6406845" lon="10.8864391"><ele>124.8</ele><time>2026-04-26T09:19:06.936Z</time></trkpt><trkpt lat="45.6405876" lon="10.886345"><ele>124.20000000000002</ele><time>2026-04-26T09:19:07.935Z</time></trkpt><trkpt lat="45.6404916" lon="10.8862506"><ele>123.60000000000001</ele><time>2026-04-26T09:19:08.936Z</time></trkpt><trkpt lat="45.6404108" lon="10.8861716"><ele>123.0</ele><time>2026-04-26T09:19:09.935Z</time></trkpt><trkpt lat="45.6403279" lon="10.8861011"><ele>123.5</ele><time>2026-04-26T09:19:10.935Z</time></trkpt><trkpt lat="45.6402433" lon="10.8860152"><ele>124.0</ele><time>2026-04-26T09:19:11.935Z</time></trkpt><trkpt lat="45.6401469" lon="10.8859121"><ele>124.5</ele><time>2026-04-26T09:19:12.935Z</time></trkpt><trkpt lat="45.6400377" lon="10.8858062"><ele>125.0</ele><time>2026-04-26T09:19:13.936Z</time></trkpt><trkpt lat="45.6399263" lon="10.8857054"><ele>125.0</ele><time>2026-04-26T09:19:14.936Z</time></trkpt><trkpt lat="45.6398187" lon="10.8856184"><ele>125.0</ele><time>2026-04-26T09:19:15.935Z</time></trkpt><trkpt lat="45.639713" lon="10.8855156"><ele>125.0</ele><time>2026-04-26T09:19:16.936Z</time></trkpt><trkpt lat="45.6395987" lon="10.8854087"><ele>125.0</ele><time>2026-04-26T09:19:17.936Z</time></trkpt><trkpt lat="45.6394706" lon="10.8852887"><ele>124.66666666666666</ele><time>2026-04-26T09:19:18.936Z</time></trkpt><trkpt lat="45.6393433" lon="10.8851647"><ele>124.33333333333334</ele><time>2026-04-26T09:19:19.936Z</time></trkpt><trkpt lat="45.6392133" lon="10.8850395"><ele>124.0</ele><time>2026-04-26T09:19:20.936Z</time></trkpt><trkpt lat="45.6390962" lon="10.8849315"><ele>124.0</ele><time>2026-04-26T09:19:21.936Z</time></trkpt><trkpt lat="45.6389764" lon="10.8848166"><ele>124.0</ele><time>2026-04-26T09:19:22.935Z</time></trkpt><trkpt lat="45.6388491" lon="10.8846886"><ele>124.0</ele><time>2026-04-26T09:19:23.936Z</time></trkpt><trkpt lat="45.6387183" lon="10.8845649"><ele>123.66666666666667</ele><time>2026-04-26T09:19:24.936Z</time></trkpt><trkpt lat="45.6385862" lon="10.8844374"><ele>123.33333333333334</ele><time>2026-04-26T09:19:25.936Z</time></trkpt><trkpt lat="45.6384461" lon="10.8843071"><ele>123.0</ele><time>2026-04-26T09:19:26.936Z</time></trkpt><trkpt lat="45.638312" lon="10.8841761"><ele>123.0</ele><time>2026-04-26T09:19:27.936Z</time></trkpt><trkpt lat="45.6381671" lon="10.8840418"><ele>123.0</ele><time>2026-04-26T09:19:28.936Z</time></trkpt><trkpt lat="45.6380252" lon="10.8839011"><ele>123.0</ele><time>2026-04-26T09:19:29.936Z</time></trkpt><trkpt lat="45.6378798" lon="10.8837611"><ele>123.0</ele><time>2026-04-26T09:19:30.935Z</time></trkpt><trkpt lat="45.6377356" lon="10.8836276"><ele>123.0</ele><time>2026-04-26T09:19:31.936Z</time></trkpt><trkpt lat="45.6375926" lon="10.8834902"><ele>123.0</ele><time>2026-04-26T09:19:32.936Z</time></trkpt><trkpt lat="45.6374472" lon="10.8833507"><ele>123.0</ele><time>2026-04-26T09:19:33.936Z</time></trkpt><trkpt lat="45.6373032" lon="10.8832142"><ele>123.0</ele><time>2026-04-26T09:19:34.936Z</time></trkpt><trkpt lat="45.6371619" lon="10.8830785"><ele>123.0</ele><time>2026-04-26T09:19:35.936Z</time></trkpt><trkpt lat="45.6370209" lon="10.882943"><ele>123.33333333333334</ele><time>2026-04-26T09:19:36.936Z</time></trkpt><trkpt lat="45.6368817" lon="10.8828092"><ele>123.66666666666667</ele><time>2026-04-26T09:19:37.936Z</time></trkpt><trkpt lat="45.6367429" lon="10.8826771"><ele>124.0</ele><time>2026-04-26T09:19:38.936Z</time></trkpt><trkpt lat="45.6366063" lon="10.882547"><ele>124.0</ele><time>2026-04-26T09:19:39.935Z</time></trkpt><trkpt lat="45.6364694" lon="10.882417"><ele>124.0</ele><time>2026-04-26T09:19:40.935Z</time></trkpt><trkpt lat="45.6363335" lon="10.8822856"><ele>124.0</ele><time>2026-04-26T09:19:41.936Z</time></trkpt><trkpt lat="45.6361961" lon="10.8821545"><ele>125.0</ele><time>2026-04-26T09:19:42.935Z</time></trkpt><trkpt lat="45.6360578" lon="10.8820232"><ele>126.0</ele><time>2026-04-26T09:19:43.936Z</time></trkpt><trkpt lat="45.6359383" lon="10.8819096"><ele>127.0</ele><time>2026-04-26T09:19:44.935Z</time></trkpt><trkpt lat="45.6358483" lon="10.8818247"><ele>128.0</ele><time>2026-04-26T09:19:45.936Z</time></trkpt><trkpt lat="45.6357935" lon="10.88177"><ele>128.0</ele><time>2026-04-26T09:19:46.935Z</time></trkpt><trkpt lat="45.6357269" lon="10.8817918"><ele>128.0</ele><time>2026-04-26T09:19:48.936Z</time></trkpt><trkpt lat="45.6356981" lon="10.881875"><ele>128.0</ele><time>2026-04-26T09:19:49.936Z</time></trkpt><trkpt lat="45.6356776" lon="10.8820073"><ele>128.0</ele><time>2026-04-26T09:19:50.935Z</time></trkpt><trkpt lat="45.635657" lon="10.8821965"><ele>128.0</ele><time>2026-04-26T09:19:51.936Z</time></trkpt><trkpt lat="45.6356302" lon="10.8823471"><ele>128.0</ele><time>2026-04-26T09:19:52.936Z</time></trkpt><trkpt lat="45.6356008" lon="10.8824344"><ele>127.99999999999999</ele><time>2026-04-26T09:19:53.935Z</time></trkpt><trkpt lat="45.635534" lon="10.8824736"><ele>128.0</ele><time>2026-04-26T09:19:55.936Z</time></trkpt><trkpt lat="45.6354753" lon="10.8824193"><ele>128.0</ele><time>2026-04-26T09:19:58.935Z</time></trkpt><trkpt lat="45.6354309" lon="10.8823154"><ele>127.99999999999999</ele><time>2026-04-26T09:20:01.936Z</time></trkpt><trkpt lat="45.6353997" lon="10.8822312"><ele>128.0</ele><time>2026-04-26T09:20:03.935Z</time></trkpt><trkpt lat="45.6353589" lon="10.8821232"><ele>128.0</ele><time>2026-04-26T09:20:05.934Z</time></trkpt><trkpt lat="45.6353242" lon="10.8820287"><ele>128.33333333333331</ele><time>2026-04-26T09:20:07.936Z</time></trkpt><trkpt lat="45.6352901" lon="10.8819288"><ele>128.66666666666666</ele><time>2026-04-26T09:20:10.934Z</time></trkpt><trkpt lat="45.6352371" lon="10.881823"><ele>129.0</ele><time>2026-04-26T09:20:15.936Z</time></trkpt><trkpt lat="45.6352021" lon="10.8817299"><ele>129.33333333333334</ele><time>2026-04-26T09:20:16.936Z</time></trkpt><trkpt lat="45.6351578" lon="10.88162"><ele>129.66666666666669</ele><time>2026-04-26T09:20:17.936Z</time></trkpt><trkpt lat="45.635106" lon="10.8814971"><ele>130.0</ele><time>2026-04-26T09:20:18.936Z</time></trkpt><trkpt lat="45.6350435" lon="10.8813577"><ele>130.0</ele><time>2026-04-26T09:20:19.935Z</time></trkpt><trkpt lat="45.6349769" lon="10.8812086"><ele>130.0</ele><time>2026-04-26T09:20:20.936Z</time></trkpt><trkpt lat="45.6348847" lon="10.8810613"><ele>130.0</ele><time>2026-04-26T09:20:21.936Z</time></trkpt><trkpt lat="45.6347771" lon="10.8809188"><ele>130.0</ele><time>2026-04-26T09:20:22.934Z</time></trkpt><trkpt lat="45.6346583" lon="10.8807866"><ele>129.33333333333334</ele><time>2026-04-26T09:20:23.935Z</time></trkpt><trkpt lat="45.6345327" lon="10.88066"><ele>128.66666666666666</ele><time>2026-04-26T09:20:24.935Z</time></trkpt><trkpt lat="45.6343993" lon="10.8805397"><ele>128.0</ele><time>2026-04-26T09:20:25.936Z</time></trkpt><trkpt lat="45.6342612" lon="10.8804297"><ele>128.0</ele><time>2026-04-26T09:20:26.935Z</time></trkpt><trkpt lat="45.6341181" lon="10.8803316"><ele>128.0</ele><time>2026-04-26T09:20:27.935Z</time></trkpt><trkpt lat="45.6339702" lon="10.8802485"><ele>128.0</ele><time>2026-04-26T09:20:28.936Z</time></trkpt><trkpt lat="45.6338186" lon="10.880176"><ele>128.0</ele><time>2026-04-26T09:20:29.935Z</time></trkpt><trkpt lat="45.6336648" lon="10.880111"><ele>128.0</ele><time>2026-04-26T09:20:30.936Z</time></trkpt><trkpt lat="45.6335108" lon="10.8800598"><ele>128.0</ele><time>2026-04-26T09:20:31.936Z</time></trkpt><trkpt lat="45.6333576" lon="10.8800179"><ele>128.25</ele><time>2026-04-26T09:20:32.936Z</time></trkpt><trkpt lat="45.6332105" lon="10.879988"><ele>128.5</ele><time>2026-04-26T09:20:33.936Z</time></trkpt><trkpt lat="45.6330689" lon="10.8799618"><ele>128.75</ele><time>2026-04-26T09:20:34.935Z</time></trkpt><trkpt lat="45.6329323" lon="10.8799301"><ele>129.0</ele><time>2026-04-26T09:20:35.936Z</time></trkpt><trkpt lat="45.6327993" lon="10.879895"><ele>129.0</ele><time>2026-04-26T09:20:36.936Z</time></trkpt><trkpt lat="45.6326701" lon="10.8798629"><ele>129.0</ele><time>2026-04-26T09:20:37.936Z</time></trkpt><trkpt lat="45.632544" lon="10.8798284"><ele>129.0</ele><time>2026-04-26T09:20:38.935Z</time></trkpt><trkpt lat="45.6324199" lon="10.8797903"><ele>129.0</ele><time>2026-04-26T09:20:39.935Z</time></trkpt><trkpt lat="45.6322996" lon="10.8797421"><ele>129.0</ele><time>2026-04-26T09:20:40.936Z</time></trkpt><trkpt lat="45.6321814" lon="10.8796898"><ele>129.0</ele><time>2026-04-26T09:20:41.935Z</time></trkpt><trkpt lat="45.6320641" lon="10.8796331"><ele>129.0</ele><time>2026-04-26T09:20:42.936Z</time></trkpt><trkpt lat="45.6319482" lon="10.8795691"><ele>129.0</ele><time>2026-04-26T09:20:43.936Z</time></trkpt><trkpt lat="45.6318345" lon="10.8795009"><ele>127.75</ele><time>2026-04-26T09:20:44.936Z</time></trkpt><trkpt lat="45.6317211" lon="10.879427"><ele>126.5</ele><time>2026-04-26T09:20:45.936Z</time></trkpt><trkpt lat="45.6316077" lon="10.8793428"><ele>125.25</ele><time>2026-04-26T09:20:46.935Z</time></trkpt><trkpt lat="45.6315041" lon="10.8792586"><ele>124.0</ele><time>2026-04-26T09:20:47.935Z</time></trkpt><trkpt lat="45.6314092" lon="10.8791798"><ele>124.00000000000001</ele><time>2026-04-26T09:20:48.935Z</time></trkpt><trkpt lat="45.6313283" lon="10.8791137"><ele>124.0</ele><time>2026-04-26T09:20:49.936Z</time></trkpt><trkpt lat="45.6312671" lon="10.8790619"><ele>124.0</ele><time>2026-04-26T09:20:50.936Z</time></trkpt><trkpt lat="45.6312621" lon="10.8789695"><ele>124.0</ele><time>2026-04-26T09:20:53.936Z</time></trkpt><trkpt lat="45.6313619" lon="10.8790437"><ele>124.00000000000001</ele><time>2026-04-26T09:20:55.936Z</time></trkpt><trkpt lat="45.6314565" lon="10.8791073"><ele>124.0</ele><time>2026-04-26T09:20:56.935Z</time></trkpt><trkpt lat="45.6315625" lon="10.8791623"><ele>124.0</ele><time>2026-04-26T09:20:57.935Z</time></trkpt><trkpt lat="45.6316747" lon="10.8792256"><ele>124.0</ele><time>2026-04-26T09:20:58.935Z</time></trkpt><trkpt lat="45.6317711" lon="10.8792768"><ele>124.0</ele><time>2026-04-26T09:20:59.935Z</time></trkpt><trkpt lat="45.6318682" lon="10.8793271"><ele>124.0</ele><time>2026-04-26T09:21:00.936Z</time></trkpt><trkpt lat="45.6319577" lon="10.8793777"><ele>124.0</ele><time>2026-04-26T09:21:01.935Z</time></trkpt><trkpt lat="45.6320364" lon="10.8794397"><ele>124.83333333333334</ele><time>2026-04-26T09:21:02.936Z</time></trkpt><trkpt lat="45.6321079" lon="10.8794864"><ele>125.66666666666667</ele><time>2026-04-26T09:21:03.935Z</time></trkpt><trkpt lat="45.6321685" lon="10.8795298"><ele>126.5</ele><time>2026-04-26T09:21:04.936Z</time></trkpt><trkpt lat="45.632236" lon="10.8795661"><ele>127.33333333333334</ele><time>2026-04-26T09:21:06.936Z</time></trkpt><trkpt lat="45.6321921" lon="10.8794791"><ele>128.16666666666666</ele><time>2026-04-26T09:21:15.936Z</time></trkpt><trkpt lat="45.6321735" lon="10.879388"><ele>129.0</ele><time>2026-04-26T09:21:19.936Z</time></trkpt><trkpt lat="45.6322995" lon="10.8789412"><ele>126.2</ele><time>2026-04-26T09:21:27.936Z</time></trkpt><trkpt lat="45.6323286" lon="10.8787951"><ele>123.4</ele><time>2026-04-26T09:21:29.936Z</time></trkpt><trkpt lat="45.6323571" lon="10.8786637"><ele>120.6</ele><time>2026-04-26T09:21:31.935Z</time></trkpt><trkpt lat="45.6323757" lon="10.8785691"><ele>117.8</ele><time>2026-04-26T09:21:32.936Z</time></trkpt><trkpt lat="45.6324146" lon="10.8784193"><ele>115.0</ele><time>2026-04-26T09:21:34.936Z</time></trkpt><trkpt lat="45.6324499" lon="10.8782683"><ele>113.6</ele><time>2026-04-26T09:21:36.934Z</time></trkpt><trkpt lat="45.6324821" lon="10.8781153"><ele>112.2</ele><time>2026-04-26T09:21:38.935Z</time></trkpt><trkpt lat="45.6325201" lon="10.8779629"><ele>110.80000000000001</ele><time>2026-04-26T09:21:40.934Z</time></trkpt><trkpt lat="45.6325509" lon="10.8778149"><ele>109.4</ele><time>2026-04-26T09:21:42.935Z</time></trkpt><trkpt lat="45.6324958" lon="10.8777002"><ele>108.0</ele><time>2026-04-26T09:21:44.935Z</time></trkpt><trkpt lat="45.6324293" lon="10.8776724"><ele>108.0</ele><time>2026-04-26T09:21:45.935Z</time></trkpt><trkpt lat="45.6323463" lon="10.8776441"><ele>108.00000000000001</ele><time>2026-04-26T09:21:46.935Z</time></trkpt><trkpt lat="45.632256" lon="10.8776173"><ele>108.00000000000001</ele><time>2026-04-26T09:21:47.935Z</time></trkpt><trkpt lat="45.6321422" lon="10.8775981"><ele>108.0</ele><time>2026-04-26T09:21:48.935Z</time></trkpt><trkpt lat="45.6320171" lon="10.877584"><ele>108.0</ele><time>2026-04-26T09:21:49.935Z</time></trkpt><trkpt lat="45.6318824" lon="10.8775675"><ele>108.25</ele><time>2026-04-26T09:21:50.934Z</time></trkpt><trkpt lat="45.6317419" lon="10.8775513"><ele>108.5</ele><time>2026-04-26T09:21:51.935Z</time></trkpt><trkpt lat="45.6315938" lon="10.8775352"><ele>108.75</ele><time>2026-04-26T09:21:52.934Z</time></trkpt><trkpt lat="45.6314432" lon="10.8775203"><ele>109.0</ele><time>2026-04-26T09:21:53.935Z</time></trkpt><trkpt lat="45.6312892" lon="10.8775058"><ele>108.75</ele><time>2026-04-26T09:21:54.935Z</time></trkpt><trkpt lat="45.6311396" lon="10.8774906"><ele>108.5</ele><time>2026-04-26T09:21:55.934Z</time></trkpt><trkpt lat="45.6309988" lon="10.877471"><ele>108.25</ele><time>2026-04-26T09:21:56.935Z</time></trkpt><trkpt lat="45.6308666" lon="10.8774524"><ele>108.0</ele><time>2026-04-26T09:21:57.935Z</time></trkpt><trkpt lat="45.6307466" lon="10.8774253"><ele>108.0</ele><time>2026-04-26T09:21:58.934Z</time></trkpt><trkpt lat="45.6306246" lon="10.8773975"><ele>108.00000000000001</ele><time>2026-04-26T09:21:59.935Z</time></trkpt><trkpt lat="45.6305153" lon="10.8773763"><ele>108.00000000000001</ele><time>2026-04-26T09:22:00.933Z</time></trkpt><trkpt lat="45.630413" lon="10.8773489"><ele>108.0</ele><time>2026-04-26T09:22:01.935Z</time></trkpt><trkpt lat="45.6303094" lon="10.8773165"><ele>108.0</ele><time>2026-04-26T09:22:02.934Z</time></trkpt><trkpt lat="45.6302072" lon="10.8772738"><ele>109.66666666666667</ele><time>2026-04-26T09:22:03.935Z</time></trkpt><trkpt lat="45.630116" lon="10.8772259"><ele>111.33333333333334</ele><time>2026-04-26T09:22:04.935Z</time></trkpt><trkpt lat="45.630033" lon="10.87718"><ele>113.0</ele><time>2026-04-26T09:22:05.935Z</time></trkpt><trkpt lat="45.629956" lon="10.8771378"><ele>114.66666666666667</ele><time>2026-04-26T09:22:06.935Z</time></trkpt><trkpt lat="45.6298894" lon="10.8771046"><ele>116.33333333333334</ele><time>2026-04-26T09:22:07.935Z</time></trkpt><trkpt lat="45.6298271" lon="10.8770749"><ele>118.0</ele><time>2026-04-26T09:22:08.935Z</time></trkpt><trkpt lat="45.6297284" lon="10.8770231"><ele>118.00000000000001</ele><time>2026-04-26T09:22:10.935Z</time></trkpt><trkpt lat="45.6296566" lon="10.8769667"><ele>118.0</ele><time>2026-04-26T09:22:12.935Z</time></trkpt><trkpt lat="45.6295861" lon="10.8768957"><ele>118.0</ele><time>2026-04-26T09:22:15.934Z</time></trkpt><trkpt lat="45.629521" lon="10.8768385"><ele>118.0</ele><time>2026-04-26T09:22:17.935Z</time></trkpt><trkpt lat="45.6294635" lon="10.8767596"><ele>118.00000000000001</ele><time>2026-04-26T09:22:19.935Z</time></trkpt><trkpt lat="45.6293894" lon="10.8766534"><ele>118.0</ele><time>2026-04-26T09:22:21.934Z</time></trkpt><trkpt lat="45.629336" lon="10.8765898"><ele>117.83333333333334</ele><time>2026-04-26T09:22:22.935Z</time></trkpt><trkpt lat="45.6292837" lon="10.8765223"><ele>117.66666666666667</ele><time>2026-04-26T09:22:23.934Z</time></trkpt><trkpt lat="45.6292321" lon="10.8764421"><ele>117.5</ele><time>2026-04-26T09:22:24.934Z</time></trkpt><trkpt lat="45.6291718" lon="10.8763544"><ele>117.33333333333334</ele><time>2026-04-26T09:22:25.935Z</time></trkpt><trkpt lat="45.6291039" lon="10.8762581"><ele>117.16666666666667</ele><time>2026-04-26T09:22:26.935Z</time></trkpt><trkpt lat="45.6290421" lon="10.876155"><ele>117.0</ele><time>2026-04-26T09:22:27.935Z</time></trkpt><trkpt lat="45.6289763" lon="10.8760474"><ele>115.39999999999999</ele><time>2026-04-26T09:22:28.935Z</time></trkpt><trkpt lat="45.6289128" lon="10.8759345"><ele>113.79999999999998</ele><time>2026-04-26T09:22:29.935Z</time></trkpt><trkpt lat="45.6288502" lon="10.8758231"><ele>112.2</ele><time>2026-04-26T09:22:30.935Z</time></trkpt><trkpt lat="45.6287864" lon="10.8757082"><ele>110.6</ele><time>2026-04-26T09:22:31.935Z</time></trkpt><trkpt lat="45.628721" lon="10.8755842"><ele>109.0</ele><time>2026-04-26T09:22:32.934Z</time></trkpt><trkpt lat="45.6286595" lon="10.8754488"><ele>109.80000000000001</ele><time>2026-04-26T09:22:33.935Z</time></trkpt><trkpt lat="45.6285937" lon="10.8753166"><ele>110.60000000000001</ele><time>2026-04-26T09:22:34.935Z</time></trkpt><trkpt lat="45.6285327" lon="10.8751825"><ele>111.4</ele><time>2026-04-26T09:22:35.935Z</time></trkpt><trkpt lat="45.6284704" lon="10.8750446"><ele>112.2</ele><time>2026-04-26T09:22:36.935Z</time></trkpt><trkpt lat="45.6284095" lon="10.8749181"><ele>113.0</ele><time>2026-04-26T09:22:37.935Z</time></trkpt><trkpt lat="45.6283522" lon="10.8748073"><ele>112.99999999999999</ele><time>2026-04-26T09:22:38.935Z</time></trkpt><trkpt lat="45.6283013" lon="10.8747103"><ele>113.0</ele><time>2026-04-26T09:22:39.935Z</time></trkpt><trkpt lat="45.6282532" lon="10.8746279"><ele>113.0</ele><time>2026-04-26T09:22:40.935Z</time></trkpt><trkpt lat="45.6282094" lon="10.8745546"><ele>113.0</ele><time>2026-04-26T09:22:41.935Z</time></trkpt><trkpt lat="45.6281482" lon="10.8744439"><ele>112.99999999999999</ele><time>2026-04-26T09:22:43.934Z</time></trkpt><trkpt lat="45.6281013" lon="10.8743549"><ele>113.0</ele><time>2026-04-26T09:22:46.934Z</time></trkpt><trkpt lat="45.6280414" lon="10.8742976"><ele>112.99999999999999</ele><time>2026-04-26T09:23:01.934Z</time></trkpt><trkpt lat="45.6280834" lon="10.8743701"><ele>113.0</ele><time>2026-04-26T09:23:04.934Z</time></trkpt><trkpt lat="45.6281526" lon="10.8744758"><ele>113.0</ele><time>2026-04-26T09:23:11.935Z</time></trkpt><trkpt lat="45.6282163" lon="10.8745876"><ele>113.0</ele><time>2026-04-26T09:23:13.935Z</time></trkpt><trkpt lat="45.6282662" lon="10.8746698"><ele>112.99999999999999</ele><time>2026-04-26T09:23:14.935Z</time></trkpt><trkpt lat="45.6283145" lon="10.8747627"><ele>113.0</ele><time>2026-04-26T09:23:15.935Z</time></trkpt><trkpt lat="45.6283689" lon="10.8748599"><ele>113.0</ele><time>2026-04-26T09:23:16.935Z</time></trkpt><trkpt lat="45.6284229" lon="10.8749675"><ele>113.00000000000001</ele><time>2026-04-26T09:23:17.935Z</time></trkpt><trkpt lat="45.6284742" lon="10.8750805"><ele>113.00000000000001</ele><time>2026-04-26T09:23:18.934Z</time></trkpt><trkpt lat="45.628526" lon="10.8751904"><ele>113.0</ele><time>2026-04-26T09:23:19.934Z</time></trkpt><trkpt lat="45.6285794" lon="10.8752976"><ele>113.0</ele><time>2026-04-26T09:23:20.935Z</time></trkpt><trkpt lat="45.6286344" lon="10.8754045"><ele>112.2</ele><time>2026-04-26T09:23:21.935Z</time></trkpt><trkpt lat="45.6286914" lon="10.8755192"><ele>111.4</ele><time>2026-04-26T09:23:22.935Z</time></trkpt><trkpt lat="45.6287497" lon="10.8756353"><ele>110.60000000000001</ele><time>2026-04-26T09:23:23.935Z</time></trkpt><trkpt lat="45.6288156" lon="10.8757452"><ele>109.80000000000001</ele><time>2026-04-26T09:23:24.935Z</time></trkpt><trkpt lat="45.6288839" lon="10.8758637"><ele>109.0</ele><time>2026-04-26T09:23:25.935Z</time></trkpt><trkpt lat="45.6289549" lon="10.8759978"><ele>111.0</ele><time>2026-04-26T09:23:26.935Z</time></trkpt><trkpt lat="45.6290318" lon="10.8761336"><ele>113.0</ele><time>2026-04-26T09:23:27.935Z</time></trkpt><trkpt lat="45.6291159" lon="10.8762668"><ele>115.0</ele><time>2026-04-26T09:23:28.935Z</time></trkpt><trkpt lat="45.6291985" lon="10.8763953"><ele>117.0</ele><time>2026-04-26T09:23:29.935Z</time></trkpt><trkpt lat="45.6292813" lon="10.8765141"><ele>117.0</ele><time>2026-04-26T09:23:30.935Z</time></trkpt><trkpt lat="45.6293632" lon="10.8766216"><ele>116.99999999999999</ele><time>2026-04-26T09:23:31.935Z</time></trkpt><trkpt lat="45.6294472" lon="10.8767256"><ele>116.99999999999999</ele><time>2026-04-26T09:23:32.934Z</time></trkpt><trkpt lat="45.6295208" lon="10.8768176"><ele>117.0</ele><time>2026-04-26T09:23:33.935Z</time></trkpt><trkpt lat="45.6295934" lon="10.8768997"><ele>117.0</ele><time>2026-04-26T09:23:34.935Z</time></trkpt><trkpt lat="45.6296615" lon="10.8769673"><ele>117.16666666666667</ele><time>2026-04-26T09:23:35.935Z</time></trkpt><trkpt lat="45.6297207" lon="10.877016"><ele>117.33333333333334</ele><time>2026-04-26T09:23:36.935Z</time></trkpt><trkpt lat="45.6298112" lon="10.877084"><ele>117.5</ele><time>2026-04-26T09:23:38.934Z</time></trkpt><trkpt lat="45.6299116" lon="10.8771361"><ele>117.66666666666667</ele><time>2026-04-26T09:23:40.934Z</time></trkpt><trkpt lat="45.6299713" lon="10.877168"><ele>117.83333333333334</ele><time>2026-04-26T09:23:41.935Z</time></trkpt><trkpt lat="45.6300394" lon="10.8772595"><ele>118.0</ele><time>2026-04-26T09:23:43.934Z</time></trkpt><trkpt lat="45.6300456" lon="10.8774009"><ele>118.00000000000001</ele><time>2026-04-26T09:23:45.935Z</time></trkpt><trkpt lat="45.6301348" lon="10.8774934"><ele>118.0</ele><time>2026-04-26T09:23:47.935Z</time></trkpt><trkpt lat="45.630194" lon="10.8775431"><ele>118.0</ele><time>2026-04-26T09:23:48.934Z</time></trkpt><trkpt lat="45.6302563" lon="10.8775887"><ele>118.0</ele><time>2026-04-26T09:23:49.935Z</time></trkpt><trkpt lat="45.630321" lon="10.8776261"><ele>118.00000000000001</ele><time>2026-04-26T09:23:50.935Z</time></trkpt><trkpt lat="45.630391" lon="10.8776657"><ele>118.0</ele><time>2026-04-26T09:23:51.935Z</time></trkpt><trkpt lat="45.6304896" lon="10.8777249"><ele>118.00000000000001</ele><time>2026-04-26T09:23:53.934Z</time></trkpt><trkpt lat="45.6304162" lon="10.8777322"><ele>118.0</ele><time>2026-04-26T09:23:59.935Z</time></trkpt><trkpt lat="45.6303051" lon="10.8776833"><ele>118.0</ele><time>2026-04-26T09:24:01.935Z</time></trkpt><trkpt lat="45.6302481" lon="10.8776446"><ele>118.0</ele><time>2026-04-26T09:24:02.935Z</time></trkpt><trkpt lat="45.630138" lon="10.8775623"><ele>118.00000000000001</ele><time>2026-04-26T09:24:04.934Z</time></trkpt><trkpt lat="45.6300803" lon="10.8775254"><ele>118.0</ele><time>2026-04-26T09:24:05.935Z</time></trkpt><trkpt lat="45.6300143" lon="10.8774797"><ele>118.00000000000001</ele><time>2026-04-26T09:24:06.934Z</time></trkpt><trkpt lat="45.6299458" lon="10.8774344"><ele>118.0</ele><time>2026-04-26T09:24:07.935Z</time></trkpt><trkpt lat="45.6298777" lon="10.8773871"><ele>118.0</ele><time>2026-04-26T09:24:08.935Z</time></trkpt><trkpt lat="45.6298107" lon="10.8773384"><ele>118.0</ele><time>2026-04-26T09:24:09.935Z</time></trkpt><trkpt lat="45.6297445" lon="10.8772894"><ele>118.00000000000001</ele><time>2026-04-26T09:24:10.935Z</time></trkpt><trkpt lat="45.629649" lon="10.8772319"><ele>118.0</ele><time>2026-04-26T09:24:12.935Z</time></trkpt><trkpt lat="45.6295532" lon="10.8771837"><ele>118.0</ele><time>2026-04-26T09:24:14.935Z</time></trkpt><trkpt lat="45.6295044" lon="10.877126"><ele>118.0</ele><time>2026-04-26T09:24:15.934Z</time></trkpt><trkpt lat="45.6294538" lon="10.877055"><ele>118.0</ele><time>2026-04-26T09:24:16.935Z</time></trkpt><trkpt lat="45.6294006" lon="10.8769876"><ele>118.0</ele><time>2026-04-26T09:24:17.934Z</time></trkpt><trkpt lat="45.6293443" lon="10.8769181"><ele>118.0</ele><time>2026-04-26T09:24:18.935Z</time></trkpt><trkpt lat="45.6292891" lon="10.8768446"><ele>118.0</ele><time>2026-04-26T09:24:19.934Z</time></trkpt><trkpt lat="45.6292334" lon="10.8767665"><ele>118.0</ele><time>2026-04-26T09:24:20.934Z</time></trkpt><trkpt lat="45.6291823" lon="10.8766866"><ele>117.83333333333334</ele><time>2026-04-26T09:24:21.934Z</time></trkpt><trkpt lat="45.6291262" lon="10.8766016"><ele>117.66666666666667</ele><time>2026-04-26T09:24:22.935Z</time></trkpt><trkpt lat="45.6290707" lon="10.8765219"><ele>117.5</ele><time>2026-04-26T09:24:23.934Z</time></trkpt><trkpt lat="45.6290143" lon="10.8764401"><ele>117.33333333333334</ele><time>2026-04-26T09:24:24.934Z</time></trkpt><trkpt lat="45.6289621" lon="10.8763522"><ele>117.16666666666667</ele><time>2026-04-26T09:24:25.935Z</time></trkpt><trkpt lat="45.6289061" lon="10.8762662"><ele>117.0</ele><time>2026-04-26T09:24:26.934Z</time></trkpt><trkpt lat="45.6288515" lon="10.8761789"><ele>117.0</ele><time>2026-04-26T09:24:27.935Z</time></trkpt><trkpt lat="45.6287954" lon="10.8760863"><ele>117.0</ele><time>2026-04-26T09:24:28.935Z</time></trkpt><trkpt lat="45.6287416" lon="10.875991"><ele>117.0</ele><time>2026-04-26T09:24:29.935Z</time></trkpt><trkpt lat="45.6286901" lon="10.8758933"><ele>117.0</ele><time>2026-04-26T09:24:30.935Z</time></trkpt><trkpt lat="45.6286385" lon="10.8757942"><ele>117.0</ele><time>2026-04-26T09:24:31.935Z</time></trkpt><trkpt lat="45.6285861" lon="10.8756949"><ele>117.0</ele><time>2026-04-26T09:24:32.934Z</time></trkpt><trkpt lat="45.6285334" lon="10.8755942"><ele>117.66666666666667</ele><time>2026-04-26T09:24:33.934Z</time></trkpt><trkpt lat="45.6284809" lon="10.8754928"><ele>118.33333333333334</ele><time>2026-04-26T09:24:34.935Z</time></trkpt><trkpt lat="45.6284295" lon="10.8753902"><ele>119.0</ele><time>2026-04-26T09:24:35.934Z</time></trkpt><trkpt lat="45.6283809" lon="10.8752884"><ele>119.66666666666667</ele><time>2026-04-26T09:24:36.935Z</time></trkpt><trkpt lat="45.628331" lon="10.8751865"><ele>120.33333333333334</ele><time>2026-04-26T09:24:37.935Z</time></trkpt><trkpt lat="45.6282806" lon="10.8750858"><ele>121.0</ele><time>2026-04-26T09:24:38.934Z</time></trkpt><trkpt lat="45.6282277" lon="10.8749869"><ele>119.66666666666667</ele><time>2026-04-26T09:24:39.935Z</time></trkpt><trkpt lat="45.6281747" lon="10.8748891"><ele>118.33333333333334</ele><time>2026-04-26T09:24:40.934Z</time></trkpt><trkpt lat="45.6281214" lon="10.8747928"><ele>117.0</ele><time>2026-04-26T09:24:41.934Z</time></trkpt><trkpt lat="45.6280651" lon="10.8746988"><ele>115.66666666666666</ele><time>2026-04-26T09:24:42.935Z</time></trkpt><trkpt lat="45.6280095" lon="10.8746041"><ele>114.33333333333333</ele><time>2026-04-26T09:24:43.934Z</time></trkpt><trkpt lat="45.6279536" lon="10.8745113"><ele>113.0</ele><time>2026-04-26T09:24:44.934Z</time></trkpt><trkpt lat="45.6278962" lon="10.8744229"><ele>112.99999999999999</ele><time>2026-04-26T09:24:45.935Z</time></trkpt><trkpt lat="45.6278401" lon="10.8743347"><ele>113.0</ele><time>2026-04-26T09:24:46.935Z</time></trkpt><trkpt lat="45.6277837" lon="10.8742529"><ele>113.0</ele><time>2026-04-26T09:24:47.934Z</time></trkpt><trkpt lat="45.6277281" lon="10.8741666"><ele>113.0</ele><time>2026-04-26T09:24:48.935Z</time></trkpt><trkpt lat="45.6276716" lon="10.8740774"><ele>112.99999999999999</ele><time>2026-04-26T09:24:49.934Z</time></trkpt><trkpt lat="45.627614" lon="10.8739869"><ele>113.0</ele><time>2026-04-26T09:24:50.934Z</time></trkpt><trkpt lat="45.6275514" lon="10.8739003"><ele>113.83333333333333</ele><time>2026-04-26T09:24:51.935Z</time></trkpt><trkpt lat="45.6274822" lon="10.8738224"><ele>114.66666666666666</ele><time>2026-04-26T09:24:52.935Z</time></trkpt><trkpt lat="45.6274101" lon="10.8737485"><ele>115.5</ele><time>2026-04-26T09:24:53.935Z</time></trkpt><trkpt lat="45.6273387" lon="10.8736748"><ele>116.33333333333334</ele><time>2026-04-26T09:24:54.935Z</time></trkpt><trkpt lat="45.6272649" lon="10.8735984"><ele>117.16666666666667</ele><time>2026-04-26T09:24:55.935Z</time></trkpt><trkpt lat="45.6271905" lon="10.873523"><ele>118.0</ele><time>2026-04-26T09:24:56.935Z</time></trkpt><trkpt lat="45.6271162" lon="10.8734446"><ele>118.42857142857142</ele><time>2026-04-26T09:24:57.935Z</time></trkpt><trkpt lat="45.627048" lon="10.8733722"><ele>118.85714285714286</ele><time>2026-04-26T09:24:58.933Z</time></trkpt><trkpt lat="45.6269849" lon="10.8733086"><ele>119.28571428571428</ele><time>2026-04-26T09:24:59.934Z</time></trkpt><trkpt lat="45.6269261" lon="10.8732509"><ele>119.71428571428571</ele><time>2026-04-26T09:25:00.934Z</time></trkpt><trkpt lat="45.6268734" lon="10.8731949"><ele>120.14285714285714</ele><time>2026-04-26T09:25:01.935Z</time></trkpt><trkpt lat="45.6268214" lon="10.8731361"><ele>120.57142857142857</ele><time>2026-04-26T09:25:02.935Z</time></trkpt><trkpt lat="45.6267574" lon="10.8730671"><ele>121.0</ele><time>2026-04-26T09:25:03.935Z</time></trkpt><trkpt lat="45.6266857" lon="10.8729972"><ele>121.0</ele><time>2026-04-26T09:25:04.935Z</time></trkpt><trkpt lat="45.6266107" lon="10.8729239"><ele>121.0</ele><time>2026-04-26T09:25:05.935Z</time></trkpt><trkpt lat="45.6265332" lon="10.8728451"><ele>121.0</ele><time>2026-04-26T09:25:06.934Z</time></trkpt><trkpt lat="45.6264568" lon="10.8727674"><ele>121.0</ele><time>2026-04-26T09:25:07.934Z</time></trkpt><trkpt lat="45.626379" lon="10.8726904"><ele>121.0</ele><time>2026-04-26T09:25:08.934Z</time></trkpt><trkpt lat="45.6263011" lon="10.8726156"><ele>120.4</ele><time>2026-04-26T09:25:09.934Z</time></trkpt><trkpt lat="45.6262193" lon="10.8725399"><ele>119.8</ele><time>2026-04-26T09:25:10.934Z</time></trkpt><trkpt lat="45.6261389" lon="10.872465"><ele>119.20000000000002</ele><time>2026-04-26T09:25:11.934Z</time></trkpt><trkpt lat="45.6260575" lon="10.872386"><ele>118.60000000000001</ele><time>2026-04-26T09:25:12.934Z</time></trkpt><trkpt lat="45.6259733" lon="10.8723093"><ele>118.0</ele><time>2026-04-26T09:25:13.935Z</time></trkpt><trkpt lat="45.625889" lon="10.8722335"><ele>118.0</ele><time>2026-04-26T09:25:14.934Z</time></trkpt><trkpt lat="45.6258063" lon="10.8721556"><ele>118.00000000000001</ele><time>2026-04-26T09:25:15.934Z</time></trkpt><trkpt lat="45.6257256" lon="10.8720783"><ele>118.00000000000001</ele><time>2026-04-26T09:25:16.934Z</time></trkpt><trkpt lat="45.6256441" lon="10.8720031"><ele>118.0</ele><time>2026-04-26T09:25:17.934Z</time></trkpt><trkpt lat="45.6255628" lon="10.871926"><ele>118.0</ele><time>2026-04-26T09:25:18.935Z</time></trkpt><trkpt lat="45.625482" lon="10.8718461"><ele>118.2</ele><time>2026-04-26T09:25:19.933Z</time></trkpt><trkpt lat="45.6254003" lon="10.8717672"><ele>118.4</ele><time>2026-04-26T09:25:20.934Z</time></trkpt><trkpt lat="45.6253189" lon="10.8716917"><ele>118.60000000000001</ele><time>2026-04-26T09:25:21.934Z</time></trkpt><trkpt lat="45.6252377" lon="10.8716138"><ele>118.80000000000001</ele><time>2026-04-26T09:25:22.935Z</time></trkpt><trkpt lat="45.6251572" lon="10.8715377"><ele>119.0</ele><time>2026-04-26T09:25:23.934Z</time></trkpt><trkpt lat="45.6250775" lon="10.8714591"><ele>119.0</ele><time>2026-04-26T09:25:24.935Z</time></trkpt><trkpt lat="45.6249966" lon="10.8713788"><ele>119.0</ele><time>2026-04-26T09:25:25.935Z</time></trkpt><trkpt lat="45.6249112" lon="10.8712954"><ele>119.0</ele><time>2026-04-26T09:25:26.934Z</time></trkpt><trkpt lat="45.6248276" lon="10.871212"><ele>119.0</ele><time>2026-04-26T09:25:27.935Z</time></trkpt><trkpt lat="45.6247442" lon="10.8711309"><ele>119.0</ele><time>2026-04-26T09:25:28.935Z</time></trkpt><trkpt lat="45.6246584" lon="10.8710521"><ele>119.0</ele><time>2026-04-26T09:25:29.935Z</time></trkpt><trkpt lat="45.624571" lon="10.8709745"><ele>119.0</ele><time>2026-04-26T09:25:30.935Z</time></trkpt><trkpt lat="45.6244815" lon="10.8708944"><ele>119.0</ele><time>2026-04-26T09:25:31.934Z</time></trkpt><trkpt lat="45.6243911" lon="10.8708132"><ele>119.0</ele><time>2026-04-26T09:25:32.935Z</time></trkpt><trkpt lat="45.6242994" lon="10.8707308"><ele>119.0</ele><time>2026-04-26T09:25:33.934Z</time></trkpt><trkpt lat="45.6242099" lon="10.8706432"><ele>119.0</ele><time>2026-04-26T09:25:34.935Z</time></trkpt><trkpt lat="45.6241191" lon="10.8705547"><ele>119.0</ele><time>2026-04-26T09:25:35.935Z</time></trkpt><trkpt lat="45.6240307" lon="10.8704701"><ele>119.0</ele><time>2026-04-26T09:25:36.935Z</time></trkpt><trkpt lat="45.6239448" lon="10.8703859"><ele>119.0</ele><time>2026-04-26T09:25:37.934Z</time></trkpt><trkpt lat="45.6238591" lon="10.8703026"><ele>119.0</ele><time>2026-04-26T09:25:38.935Z</time></trkpt><trkpt lat="45.6237745" lon="10.8702232"><ele>119.0</ele><time>2026-04-26T09:25:39.934Z</time></trkpt><trkpt lat="45.6236898" lon="10.8701459"><ele>119.0</ele><time>2026-04-26T09:25:40.935Z</time></trkpt><trkpt lat="45.6236043" lon="10.8700677"><ele>119.0</ele><time>2026-04-26T09:25:41.935Z</time></trkpt><trkpt lat="45.6235168" lon="10.8699912"><ele>119.0</ele><time>2026-04-26T09:25:42.934Z</time></trkpt><trkpt lat="45.6234284" lon="10.8699142"><ele>119.0</ele><time>2026-04-26T09:25:43.935Z</time></trkpt><trkpt lat="45.6233409" lon="10.8698327"><ele>118.66666666666666</ele><time>2026-04-26T09:25:44.935Z</time></trkpt><trkpt lat="45.6232565" lon="10.869749"><ele>118.33333333333333</ele><time>2026-04-26T09:25:45.935Z</time></trkpt><trkpt lat="45.623175" lon="10.8696629"><ele>118.0</ele><time>2026-04-26T09:25:46.936Z</time></trkpt><trkpt lat="45.6231062" lon="10.8695912"><ele>117.66666666666666</ele><time>2026-04-26T09:25:47.935Z</time></trkpt><trkpt lat="45.6230478" lon="10.8695324"><ele>117.33333333333333</ele><time>2026-04-26T09:25:48.935Z</time></trkpt><trkpt lat="45.6229867" lon="10.869469"><ele>117.0</ele><time>2026-04-26T09:25:49.935Z</time></trkpt><trkpt lat="45.6229258" lon="10.8693975"><ele>117.0</ele><time>2026-04-26T09:25:50.935Z</time></trkpt><trkpt lat="45.6228613" lon="10.8693187"><ele>116.99999999999999</ele><time>2026-04-26T09:25:51.935Z</time></trkpt><trkpt lat="45.6227909" lon="10.8692348"><ele>116.99999999999999</ele><time>2026-04-26T09:25:52.934Z</time></trkpt><trkpt lat="45.6227154" lon="10.8691455"><ele>117.0</ele><time>2026-04-26T09:25:53.935Z</time></trkpt><trkpt lat="45.6226368" lon="10.8690554"><ele>117.0</ele><time>2026-04-26T09:25:54.935Z</time></trkpt><trkpt lat="45.6225555" lon="10.8689702"><ele>117.19999999999999</ele><time>2026-04-26T09:25:55.935Z</time></trkpt><trkpt lat="45.6224734" lon="10.868881"><ele>117.39999999999999</ele><time>2026-04-26T09:25:56.934Z</time></trkpt><trkpt lat="45.622386" lon="10.8688005"><ele>117.60000000000001</ele><time>2026-04-26T09:25:57.935Z</time></trkpt><trkpt lat="45.6223059" lon="10.8687194"><ele>117.80000000000001</ele><time>2026-04-26T09:25:58.935Z</time></trkpt><trkpt lat="45.6222423" lon="10.8686519"><ele>118.0</ele><time>2026-04-26T09:25:59.934Z</time></trkpt><trkpt lat="45.6221859" lon="10.8686002"><ele>118.00000000000001</ele><time>2026-04-26T09:26:00.935Z</time></trkpt><trkpt lat="45.6221093" lon="10.8685319"><ele>118.0</ele><time>2026-04-26T09:26:02.935Z</time></trkpt><trkpt lat="45.622053" lon="10.8684809"><ele>118.0</ele><time>2026-04-26T09:26:05.934Z</time></trkpt><trkpt lat="45.6219999" lon="10.8684294"><ele>118.0</ele><time>2026-04-26T09:26:07.935Z</time></trkpt><trkpt lat="45.6218899" lon="10.8683342"><ele>118.00000000000001</ele><time>2026-04-26T09:26:09.934Z</time></trkpt><trkpt lat="45.6218168" lon="10.8682719"><ele>118.0</ele><time>2026-04-26T09:26:10.934Z</time></trkpt><trkpt lat="45.6217408" lon="10.8681992"><ele>117.80000000000001</ele><time>2026-04-26T09:26:11.935Z</time></trkpt><trkpt lat="45.6216583" lon="10.8681199"><ele>117.60000000000001</ele><time>2026-04-26T09:26:12.935Z</time></trkpt><trkpt lat="45.6215727" lon="10.8680346"><ele>117.39999999999999</ele><time>2026-04-26T09:26:13.934Z</time></trkpt><trkpt lat="45.6214834" lon="10.867952"><ele>117.19999999999999</ele><time>2026-04-26T09:26:14.935Z</time></trkpt><trkpt lat="45.6213966" lon="10.8678627"><ele>117.0</ele><time>2026-04-26T09:26:15.935Z</time></trkpt><trkpt lat="45.6213071" lon="10.8677766"><ele>117.0</ele><time>2026-04-26T09:26:16.935Z</time></trkpt><trkpt lat="45.6212172" lon="10.8676895"><ele>116.99999999999999</ele><time>2026-04-26T09:26:17.935Z</time></trkpt><trkpt lat="45.6211338" lon="10.8675956"><ele>116.99999999999999</ele><time>2026-04-26T09:26:18.935Z</time></trkpt><trkpt lat="45.6210461" lon="10.867496"><ele>117.0</ele><time>2026-04-26T09:26:19.935Z</time></trkpt><trkpt lat="45.6209595" lon="10.8673905"><ele>117.0</ele><time>2026-04-26T09:26:20.935Z</time></trkpt><trkpt lat="45.6208705" lon="10.8672873"><ele>117.39999999999999</ele><time>2026-04-26T09:26:21.935Z</time></trkpt><trkpt lat="45.620784" lon="10.867189"><ele>117.79999999999998</ele><time>2026-04-26T09:26:22.934Z</time></trkpt><trkpt lat="45.6206967" lon="10.8670975"><ele>118.2</ele><time>2026-04-26T09:26:23.934Z</time></trkpt><trkpt lat="45.6206114" lon="10.8670076"><ele>118.6</ele><time>2026-04-26T09:26:24.935Z</time></trkpt><trkpt lat="45.6205242" lon="10.8669219"><ele>119.0</ele><time>2026-04-26T09:26:25.934Z</time></trkpt><trkpt lat="45.620438" lon="10.866835"><ele>119.6</ele><time>2026-04-26T09:26:26.934Z</time></trkpt><trkpt lat="45.6203513" lon="10.8667408"><ele>120.2</ele><time>2026-04-26T09:26:27.935Z</time></trkpt><trkpt lat="45.6202724" lon="10.8666411"><ele>120.79999999999998</ele><time>2026-04-26T09:26:28.935Z</time></trkpt><trkpt lat="45.6201946" lon="10.8665377"><ele>121.39999999999999</ele><time>2026-04-26T09:26:29.935Z</time></trkpt><trkpt lat="45.6201179" lon="10.8664285"><ele>122.0</ele><time>2026-04-26T09:26:30.934Z</time></trkpt><trkpt lat="45.6200403" lon="10.8663195"><ele>122.0</ele><time>2026-04-26T09:26:31.934Z</time></trkpt><trkpt lat="45.6199677" lon="10.8662102"><ele>121.99999999999999</ele><time>2026-04-26T09:26:32.935Z</time></trkpt><trkpt lat="45.6199014" lon="10.8660991"><ele>121.99999999999999</ele><time>2026-04-26T09:26:33.934Z</time></trkpt><trkpt lat="45.6198399" lon="10.8659846"><ele>122.0</ele><time>2026-04-26T09:26:34.934Z</time></trkpt><trkpt lat="45.6197782" lon="10.8658743"><ele>122.0</ele><time>2026-04-26T09:26:35.935Z</time></trkpt><trkpt lat="45.6197169" lon="10.8657659"><ele>123.39999999999999</ele><time>2026-04-26T09:26:36.935Z</time></trkpt><trkpt lat="45.6196518" lon="10.8656629"><ele>124.79999999999998</ele><time>2026-04-26T09:26:37.934Z</time></trkpt><trkpt lat="45.6195784" lon="10.8655621"><ele>126.2</ele><time>2026-04-26T09:26:38.934Z</time></trkpt><trkpt lat="45.619505" lon="10.8654612"><ele>127.6</ele><time>2026-04-26T09:26:39.935Z</time></trkpt><trkpt lat="45.6194305" lon="10.8653563"><ele>129.0</ele><time>2026-04-26T09:26:40.935Z</time></trkpt><trkpt lat="45.619359" lon="10.8652525"><ele>129.0</ele><time>2026-04-26T09:26:41.934Z</time></trkpt><trkpt lat="45.619287" lon="10.8651526"><ele>129.0</ele><time>2026-04-26T09:26:42.935Z</time></trkpt><trkpt lat="45.6192175" lon="10.8650534"><ele>129.0</ele><time>2026-04-26T09:26:43.935Z</time></trkpt><trkpt lat="45.6191534" lon="10.8649536"><ele>129.0</ele><time>2026-04-26T09:26:44.934Z</time></trkpt><trkpt lat="45.6190927" lon="10.8648459"><ele>129.0</ele><time>2026-04-26T09:26:45.935Z</time></trkpt><trkpt lat="45.6190303" lon="10.8647352"><ele>127.0</ele><time>2026-04-26T09:26:46.934Z</time></trkpt><trkpt lat="45.6189647" lon="10.8646243"><ele>125.0</ele><time>2026-04-26T09:26:47.935Z</time></trkpt><trkpt lat="45.6189041" lon="10.8645063"><ele>123.0</ele><time>2026-04-26T09:26:48.935Z</time></trkpt><trkpt lat="45.6188452" lon="10.864384"><ele>121.0</ele><time>2026-04-26T09:26:49.935Z</time></trkpt><trkpt lat="45.6187926" lon="10.8642545"><ele>119.0</ele><time>2026-04-26T09:26:50.935Z</time></trkpt><trkpt lat="45.618745" lon="10.8641246"><ele>118.80000000000001</ele><time>2026-04-26T09:26:51.934Z</time></trkpt><trkpt lat="45.6186955" lon="10.8639951"><ele>118.60000000000001</ele><time>2026-04-26T09:26:52.935Z</time></trkpt><trkpt lat="45.6186376" lon="10.8638699"><ele>118.4</ele><time>2026-04-26T09:26:53.935Z</time></trkpt><trkpt lat="45.618571" lon="10.8637507"><ele>118.2</ele><time>2026-04-26T09:26:54.934Z</time></trkpt><trkpt lat="45.6185044" lon="10.8636332"><ele>118.0</ele><time>2026-04-26T09:26:55.935Z</time></trkpt><trkpt lat="45.6184367" lon="10.863521"><ele>116.80000000000001</ele><time>2026-04-26T09:26:56.935Z</time></trkpt><trkpt lat="45.6183676" lon="10.8634149"><ele>115.60000000000001</ele><time>2026-04-26T09:26:57.935Z</time></trkpt><trkpt lat="45.6183005" lon="10.8633095"><ele>114.39999999999999</ele><time>2026-04-26T09:26:58.935Z</time></trkpt><trkpt lat="45.6182397" lon="10.8632101"><ele>113.19999999999999</ele><time>2026-04-26T09:26:59.934Z</time></trkpt><trkpt lat="45.6181774" lon="10.8631071"><ele>112.0</ele><time>2026-04-26T09:27:00.935Z</time></trkpt><trkpt lat="45.6181183" lon="10.8629905"><ele>112.0</ele><time>2026-04-26T09:27:01.935Z</time></trkpt><trkpt lat="45.6180602" lon="10.862861"><ele>111.99999999999999</ele><time>2026-04-26T09:27:02.935Z</time></trkpt><trkpt lat="45.6180047" lon="10.8627215"><ele>111.99999999999999</ele><time>2026-04-26T09:27:03.935Z</time></trkpt><trkpt lat="45.6179519" lon="10.8625787"><ele>112.0</ele><time>2026-04-26T09:27:04.935Z</time></trkpt><trkpt lat="45.6179031" lon="10.8624348"><ele>112.0</ele><time>2026-04-26T09:27:05.935Z</time></trkpt><trkpt lat="45.6178672" lon="10.8623031"><ele>111.6</ele><time>2026-04-26T09:27:06.934Z</time></trkpt><trkpt lat="45.6178359" lon="10.8621782"><ele>111.19999999999999</ele><time>2026-04-26T09:27:07.934Z</time></trkpt><trkpt lat="45.6178056" lon="10.8620484"><ele>110.8</ele><time>2026-04-26T09:27:08.935Z</time></trkpt><trkpt lat="45.6177773" lon="10.861914"><ele>110.4</ele><time>2026-04-26T09:27:09.934Z</time></trkpt><trkpt lat="45.6177569" lon="10.8617752"><ele>110.0</ele><time>2026-04-26T09:27:10.935Z</time></trkpt><trkpt lat="45.6177358" lon="10.8616411"><ele>111.33333333333333</ele><time>2026-04-26T09:27:11.934Z</time></trkpt><trkpt lat="45.6177155" lon="10.8615093"><ele>112.66666666666666</ele><time>2026-04-26T09:27:12.934Z</time></trkpt><trkpt lat="45.6176977" lon="10.8613952"><ele>114.0</ele><time>2026-04-26T09:27:13.935Z</time></trkpt><trkpt lat="45.6176827" lon="10.8612873"><ele>115.33333333333334</ele><time>2026-04-26T09:27:14.935Z</time></trkpt><trkpt lat="45.6176661" lon="10.8611659"><ele>116.66666666666667</ele><time>2026-04-26T09:27:15.934Z</time></trkpt><trkpt lat="45.6176594" lon="10.8610398"><ele>118.0</ele><time>2026-04-26T09:27:16.934Z</time></trkpt><trkpt lat="45.6176557" lon="10.8609124"><ele>118.4</ele><time>2026-04-26T09:27:17.933Z</time></trkpt><trkpt lat="45.6176531" lon="10.8607704"><ele>118.80000000000001</ele><time>2026-04-26T09:27:18.934Z</time></trkpt><trkpt lat="45.6176524" lon="10.8606239"><ele>119.2</ele><time>2026-04-26T09:27:19.934Z</time></trkpt><trkpt lat="45.6176555" lon="10.8604708"><ele>119.6</ele><time>2026-04-26T09:27:20.934Z</time></trkpt><trkpt lat="45.6176672" lon="10.8603132"><ele>120.0</ele><time>2026-04-26T09:27:21.933Z</time></trkpt><trkpt lat="45.6176863" lon="10.8601507"><ele>120.0</ele><time>2026-04-26T09:27:22.934Z</time></trkpt><trkpt lat="45.6177116" lon="10.8599838"><ele>120.0</ele><time>2026-04-26T09:27:23.933Z</time></trkpt><trkpt lat="45.6177421" lon="10.859816"><ele>120.0</ele><time>2026-04-26T09:27:24.934Z</time></trkpt><trkpt lat="45.6177814" lon="10.8596508"><ele>120.0</ele><time>2026-04-26T09:27:25.934Z</time></trkpt><trkpt lat="45.6178319" lon="10.8594927"><ele>118.4</ele><time>2026-04-26T09:27:26.934Z</time></trkpt><trkpt lat="45.6178914" lon="10.8593417"><ele>116.8</ele><time>2026-04-26T09:27:27.934Z</time></trkpt><trkpt lat="45.6179507" lon="10.8592035"><ele>115.19999999999999</ele><time>2026-04-26T09:27:28.934Z</time></trkpt><trkpt lat="45.6180082" lon="10.8590874"><ele>113.6</ele><time>2026-04-26T09:27:29.934Z</time></trkpt><trkpt lat="45.6180556" lon="10.8589869"><ele>112.0</ele><time>2026-04-26T09:27:30.934Z</time></trkpt><trkpt lat="45.6180918" lon="10.8589011"><ele>112.0</ele><time>2026-04-26T09:27:31.934Z</time></trkpt><trkpt lat="45.6181096" lon="10.858775"><ele>111.99999999999999</ele><time>2026-04-26T09:27:33.933Z</time></trkpt><trkpt lat="45.6180311" lon="10.8586603"><ele>111.99999999999999</ele><time>2026-04-26T09:27:35.933Z</time></trkpt><trkpt lat="45.6179607" lon="10.8586026"><ele>112.0</ele><time>2026-04-26T09:27:36.934Z</time></trkpt><trkpt lat="45.6178868" lon="10.8585187"><ele>112.0</ele><time>2026-04-26T09:27:37.934Z</time></trkpt><trkpt lat="45.6178058" lon="10.8584319"><ele>114.0</ele><time>2026-04-26T09:27:38.934Z</time></trkpt><trkpt lat="45.6177133" lon="10.8583392"><ele>116.0</ele><time>2026-04-26T09:27:39.934Z</time></trkpt><trkpt lat="45.6176197" lon="10.8582427"><ele>118.0</ele><time>2026-04-26T09:27:40.933Z</time></trkpt><trkpt lat="45.6175276" lon="10.8581484"><ele>120.0</ele><time>2026-04-26T09:27:41.934Z</time></trkpt><trkpt lat="45.6174348" lon="10.8580488"><ele>120.0</ele><time>2026-04-26T09:27:42.934Z</time></trkpt><trkpt lat="45.6173498" lon="10.8579612"><ele>120.0</ele><time>2026-04-26T09:27:43.934Z</time></trkpt><trkpt lat="45.6172582" lon="10.8578709"><ele>120.0</ele><time>2026-04-26T09:27:44.934Z</time></trkpt><trkpt lat="45.6171621" lon="10.8577766"><ele>120.0</ele><time>2026-04-26T09:27:45.934Z</time></trkpt><trkpt lat="45.6170622" lon="10.85768"><ele>120.0</ele><time>2026-04-26T09:27:46.934Z</time></trkpt><trkpt lat="45.6169588" lon="10.8575786"><ele>120.0</ele><time>2026-04-26T09:27:47.933Z</time></trkpt><trkpt lat="45.6168509" lon="10.8574818"><ele>120.0</ele><time>2026-04-26T09:27:48.933Z</time></trkpt><trkpt lat="45.61674" lon="10.8573751"><ele>120.0</ele><time>2026-04-26T09:27:49.933Z</time></trkpt><trkpt lat="45.6166301" lon="10.8572512"><ele>120.0</ele><time>2026-04-26T09:27:50.934Z</time></trkpt><trkpt lat="45.6165156" lon="10.8571309"><ele>120.0</ele><time>2026-04-26T09:27:51.934Z</time></trkpt><trkpt lat="45.6163983" lon="10.8570143"><ele>120.0</ele><time>2026-04-26T09:27:52.933Z</time></trkpt><trkpt lat="45.6162784" lon="10.856902"><ele>120.0</ele><time>2026-04-26T09:27:53.934Z</time></trkpt><trkpt lat="45.6161596" lon="10.8567893"><ele>119.75</ele><time>2026-04-26T09:27:54.934Z</time></trkpt><trkpt lat="45.6160392" lon="10.856674"><ele>119.5</ele><time>2026-04-26T09:27:55.933Z</time></trkpt><trkpt lat="45.6159175" lon="10.8565607"><ele>119.25</ele><time>2026-04-26T09:27:56.934Z</time></trkpt><trkpt lat="45.6157985" lon="10.8564402"><ele>119.0</ele><time>2026-04-26T09:27:57.934Z</time></trkpt><trkpt lat="45.61568" lon="10.8563187"><ele>119.0</ele><time>2026-04-26T09:27:58.934Z</time></trkpt><trkpt lat="45.6155587" lon="10.8562025"><ele>119.0</ele><time>2026-04-26T09:27:59.934Z</time></trkpt><trkpt lat="45.615447" lon="10.8560926"><ele>119.0</ele><time>2026-04-26T09:28:00.934Z</time></trkpt><trkpt lat="45.6153482" lon="10.8559983"><ele>119.0</ele><time>2026-04-26T09:28:01.933Z</time></trkpt><trkpt lat="45.6152608" lon="10.8559191"><ele>119.16666666666666</ele><time>2026-04-26T09:28:02.933Z</time></trkpt><trkpt lat="45.6151823" lon="10.8558594"><ele>119.33333333333333</ele><time>2026-04-26T09:28:03.934Z</time></trkpt><trkpt lat="45.6151154" lon="10.8558242"><ele>119.5</ele><time>2026-04-26T09:28:04.934Z</time></trkpt><trkpt lat="45.61502" lon="10.8558689"><ele>119.66666666666666</ele><time>2026-04-26T09:28:06.934Z</time></trkpt><trkpt lat="45.614974" lon="10.8558024"><ele>119.83333333333333</ele><time>2026-04-26T09:29:42.934Z</time></trkpt><trkpt lat="45.6150323" lon="10.8556887"><ele>120.0</ele><time>2026-04-26T09:29:44.933Z</time></trkpt><trkpt lat="45.6150717" lon="10.8556066"><ele>120.0</ele><time>2026-04-26T09:29:45.933Z</time></trkpt><trkpt lat="45.6151185" lon="10.8555159"><ele>120.0</ele><time>2026-04-26T09:29:46.933Z</time></trkpt><trkpt lat="45.615169" lon="10.8554166"><ele>120.0</ele><time>2026-04-26T09:29:47.933Z</time></trkpt><trkpt lat="45.6152103" lon="10.8553278"><ele>120.0</ele><time>2026-04-26T09:29:48.934Z</time></trkpt><trkpt lat="45.6152466" lon="10.855248"><ele>120.0</ele><time>2026-04-26T09:29:49.933Z</time></trkpt><trkpt lat="45.6153187" lon="10.8550912"><ele>120.0</ele><time>2026-04-26T09:29:51.934Z</time></trkpt><trkpt lat="45.6153579" lon="10.8549647"><ele>119.4</ele><time>2026-04-26T09:29:52.934Z</time></trkpt><trkpt lat="45.6153977" lon="10.8548344"><ele>118.8</ele><time>2026-04-26T09:29:53.933Z</time></trkpt><trkpt lat="45.615437" lon="10.854719"><ele>118.19999999999999</ele><time>2026-04-26T09:29:54.933Z</time></trkpt><trkpt lat="45.6154798" lon="10.8546288"><ele>117.6</ele><time>2026-04-26T09:29:55.934Z</time></trkpt><trkpt lat="45.6155947" lon="10.8545492"><ele>117.0</ele><time>2026-04-26T09:29:57.933Z</time></trkpt><trkpt lat="45.6156919" lon="10.8545509"><ele>117.0</ele><time>2026-04-26T09:29:58.933Z</time></trkpt><trkpt lat="45.6158238" lon="10.8545706"><ele>117.0</ele><time>2026-04-26T09:29:59.933Z</time></trkpt><trkpt lat="45.6159728" lon="10.8545992"><ele>117.0</ele><time>2026-04-26T09:30:00.934Z</time></trkpt><trkpt lat="45.6161415" lon="10.8546248"><ele>116.33333333333334</ele><time>2026-04-26T09:30:01.934Z</time></trkpt><trkpt lat="45.6163248" lon="10.8546522"><ele>115.66666666666667</ele><time>2026-04-26T09:30:02.934Z</time></trkpt><trkpt lat="45.6165229" lon="10.8546818"><ele>115.0</ele><time>2026-04-26T09:30:03.934Z</time></trkpt><trkpt lat="45.6167065" lon="10.854704"><ele>115.0</ele><time>2026-04-26T09:30:04.933Z</time></trkpt><trkpt lat="45.6168849" lon="10.8547264"><ele>115.0</ele><time>2026-04-26T09:30:05.933Z</time></trkpt><trkpt lat="45.6170616" lon="10.854734"><ele>115.0</ele><time>2026-04-26T09:30:06.934Z</time></trkpt><trkpt lat="45.6172262" lon="10.8547352"><ele>114.25</ele><time>2026-04-26T09:30:07.933Z</time></trkpt><trkpt lat="45.6173816" lon="10.854743"><ele>113.5</ele><time>2026-04-26T09:30:08.934Z</time></trkpt><trkpt lat="45.617523" lon="10.8547506"><ele>112.75</ele><time>2026-04-26T09:30:09.934Z</time></trkpt><trkpt lat="45.6176532" lon="10.8547593"><ele>112.0</ele><time>2026-04-26T09:30:10.934Z</time></trkpt><trkpt lat="45.6177849" lon="10.8547732"><ele>113.0</ele><time>2026-04-26T09:30:11.934Z</time></trkpt><trkpt lat="45.6179323" lon="10.8547823"><ele>114.0</ele><time>2026-04-26T09:30:12.933Z</time></trkpt><trkpt lat="45.6180927" lon="10.8547836"><ele>115.0</ele><time>2026-04-26T09:30:13.934Z</time></trkpt><trkpt lat="45.6182572" lon="10.854792"><ele>115.0</ele><time>2026-04-26T09:30:14.932Z</time></trkpt><trkpt lat="45.6184058" lon="10.8548032"><ele>115.0</ele><time>2026-04-26T09:30:15.933Z</time></trkpt><trkpt lat="45.6185391" lon="10.8548221"><ele>115.0</ele><time>2026-04-26T09:30:16.933Z</time></trkpt><trkpt lat="45.6186589" lon="10.8548434"><ele>115.0</ele><time>2026-04-26T09:30:17.934Z</time></trkpt><trkpt lat="45.6187687" lon="10.8548642"><ele>114.25</ele><time>2026-04-26T09:30:18.934Z</time></trkpt><trkpt lat="45.6188826" lon="10.8548917"><ele>113.5</ele><time>2026-04-26T09:30:19.934Z</time></trkpt><trkpt lat="45.6190004" lon="10.8549357"><ele>112.75</ele><time>2026-04-26T09:30:20.934Z</time></trkpt><trkpt lat="45.6191217" lon="10.8550002"><ele>112.0</ele><time>2026-04-26T09:30:21.934Z</time></trkpt><trkpt lat="45.6192493" lon="10.8550718"><ele>112.0</ele><time>2026-04-26T09:30:22.934Z</time></trkpt><trkpt lat="45.6193859" lon="10.8551458"><ele>112.0</ele><time>2026-04-26T09:30:23.933Z</time></trkpt><trkpt lat="45.6195293" lon="10.8552233"><ele>112.0</ele><time>2026-04-26T09:30:24.934Z</time></trkpt><trkpt lat="45.6196599" lon="10.8552972"><ele>112.0</ele><time>2026-04-26T09:30:25.934Z</time></trkpt><trkpt lat="45.6197622" lon="10.8553641"><ele>112.0</ele><time>2026-04-26T09:30:26.934Z</time></trkpt><trkpt lat="45.6198406" lon="10.8554359"><ele>111.99999999999999</ele><time>2026-04-26T09:30:27.934Z</time></trkpt><trkpt lat="45.6198948" lon="10.855516"><ele>111.99999999999999</ele><time>2026-04-26T09:30:28.934Z</time></trkpt><trkpt lat="45.6199408" lon="10.8556808"><ele>112.0</ele><time>2026-04-26T09:30:30.933Z</time></trkpt><trkpt lat="45.619938" lon="10.8557942"><ele>112.0</ele><time>2026-04-26T09:30:31.933Z</time></trkpt><trkpt lat="45.6199295" lon="10.8559144"><ele>112.0</ele><time>2026-04-26T09:30:32.933Z</time></trkpt><trkpt lat="45.6199387" lon="10.8560461"><ele>111.99999999999999</ele><time>2026-04-26T09:30:34.934Z</time></trkpt><trkpt lat="45.6199841" lon="10.8559653"><ele>111.99999999999999</ele><time>2026-04-26T09:30:37.934Z</time></trkpt><trkpt lat="45.6199985" lon="10.8558626"><ele>112.0</ele><time>2026-04-26T09:30:38.934Z</time></trkpt><trkpt lat="45.6200129" lon="10.8557107"><ele>112.0</ele><time>2026-04-26T09:30:39.934Z</time></trkpt><trkpt lat="45.6200192" lon="10.8555583"><ele>112.00000000000001</ele><time>2026-04-26T09:30:40.934Z</time></trkpt><trkpt lat="45.6200216" lon="10.8554194"><ele>112.0</ele><time>2026-04-26T09:30:41.933Z</time></trkpt><trkpt lat="45.6200123" lon="10.8553104"><ele>112.0</ele><time>2026-04-26T09:30:42.934Z</time></trkpt><trkpt lat="45.6199958" lon="10.855195"><ele>112.0</ele><time>2026-04-26T09:30:44.934Z</time></trkpt><trkpt lat="45.6199394" lon="10.8551526"><ele>112.00000000000001</ele><time>2026-04-26T09:30:47.934Z</time></trkpt><trkpt lat="45.6198772" lon="10.8551364"><ele>112.0</ele><time>2026-04-26T09:30:48.934Z</time></trkpt><trkpt lat="45.6197712" lon="10.8551088"><ele>112.0</ele><time>2026-04-26T09:30:49.934Z</time></trkpt><trkpt lat="45.6196579" lon="10.8550618"><ele>112.0</ele><time>2026-04-26T09:30:50.934Z</time></trkpt><trkpt lat="45.6195266" lon="10.8549769"><ele>112.0</ele><time>2026-04-26T09:30:51.933Z</time></trkpt><trkpt lat="45.6193817" lon="10.8548811"><ele>112.0</ele><time>2026-04-26T09:30:52.933Z</time></trkpt><trkpt lat="45.6192436" lon="10.8547911"><ele>112.0</ele><time>2026-04-26T09:30:53.933Z</time></trkpt><trkpt lat="45.6191119" lon="10.854704"><ele>112.0</ele><time>2026-04-26T09:30:54.934Z</time></trkpt><trkpt lat="45.6189892" lon="10.8546428"><ele>112.0</ele><time>2026-04-26T09:30:55.934Z</time></trkpt><trkpt lat="45.6188489" lon="10.8546012"><ele>112.0</ele><time>2026-04-26T09:30:56.934Z</time></trkpt><trkpt lat="45.6186998" lon="10.8545675"><ele>113.0</ele><time>2026-04-26T09:30:57.934Z</time></trkpt><trkpt lat="45.6185457" lon="10.8545353"><ele>114.0</ele><time>2026-04-26T09:30:58.933Z</time></trkpt><trkpt lat="45.6183953" lon="10.8545133"><ele>115.0</ele><time>2026-04-26T09:30:59.933Z</time></trkpt><trkpt lat="45.6182436" lon="10.8545033"><ele>115.0</ele><time>2026-04-26T09:31:00.933Z</time></trkpt><trkpt lat="45.6180946" lon="10.854505"><ele>115.0</ele><time>2026-04-26T09:31:01.934Z</time></trkpt><trkpt lat="45.6179407" lon="10.8545098"><ele>115.0</ele><time>2026-04-26T09:31:02.933Z</time></trkpt><trkpt lat="45.6177856" lon="10.8545103"><ele>114.0</ele><time>2026-04-26T09:31:03.933Z</time></trkpt><trkpt lat="45.6176273" lon="10.8545039"><ele>113.0</ele><time>2026-04-26T09:31:04.933Z</time></trkpt><trkpt lat="45.6174756" lon="10.8544928"><ele>112.0</ele><time>2026-04-26T09:31:05.934Z</time></trkpt><trkpt lat="45.6173319" lon="10.8544895"><ele>112.0</ele><time>2026-04-26T09:31:06.934Z</time></trkpt><trkpt lat="45.6171884" lon="10.8544797"><ele>112.0</ele><time>2026-04-26T09:31:07.933Z</time></trkpt><trkpt lat="45.6170492" lon="10.8544807"><ele>112.0</ele><time>2026-04-26T09:31:08.933Z</time></trkpt><trkpt lat="45.6169176" lon="10.8544738"><ele>112.0</ele><time>2026-04-26T09:31:09.934Z</time></trkpt><trkpt lat="45.6167887" lon="10.8544581"><ele>112.75</ele><time>2026-04-26T09:31:10.934Z</time></trkpt><trkpt lat="45.6166561" lon="10.8544443"><ele>113.5</ele><time>2026-04-26T09:31:11.934Z</time></trkpt><trkpt lat="45.6165212" lon="10.8544288"><ele>114.25</ele><time>2026-04-26T09:31:12.934Z</time></trkpt><trkpt lat="45.6163906" lon="10.8544042"><ele>115.0</ele><time>2026-04-26T09:31:13.934Z</time></trkpt><trkpt lat="45.6162924" lon="10.8543846"><ele>115.0</ele><time>2026-04-26T09:31:14.934Z</time></trkpt><trkpt lat="45.6162243" lon="10.8543707"><ele>115.0</ele><time>2026-04-26T09:31:15.933Z</time></trkpt><trkpt lat="45.6161426" lon="10.8543392"><ele>115.0</ele><time>2026-04-26T09:31:17.933Z</time></trkpt><trkpt lat="45.6160644" lon="10.8542897"><ele>115.0</ele><time>2026-04-26T09:31:19.933Z</time></trkpt><trkpt lat="45.615939" lon="10.8542576"><ele>115.0</ele><time>2026-04-26T09:31:21.933Z</time></trkpt><trkpt lat="45.6158496" lon="10.8542389"><ele>112.75</ele><time>2026-04-26T09:31:22.933Z</time></trkpt><trkpt lat="45.6157357" lon="10.8542135"><ele>110.5</ele><time>2026-04-26T09:31:23.934Z</time></trkpt><trkpt lat="45.6155982" lon="10.8541986"><ele>108.25</ele><time>2026-04-26T09:31:24.933Z</time></trkpt><trkpt lat="45.6154636" lon="10.8541859"><ele>106.0</ele><time>2026-04-26T09:31:25.934Z</time></trkpt><trkpt lat="45.615326" lon="10.8541759"><ele>106.0</ele><time>2026-04-26T09:31:26.934Z</time></trkpt><trkpt lat="45.6152103" lon="10.8541687"><ele>106.0</ele><time>2026-04-26T09:31:27.934Z</time></trkpt><trkpt lat="45.6151128" lon="10.8541523"><ele>106.0</ele><time>2026-04-26T09:31:28.934Z</time></trkpt><trkpt lat="45.6150198" lon="10.854132"><ele>106.0</ele><time>2026-04-26T09:31:29.933Z</time></trkpt><trkpt lat="45.6149113" lon="10.8541287"><ele>106.0</ele><time>2026-04-26T09:31:30.933Z</time></trkpt><trkpt lat="45.6147923" lon="10.8541322"><ele>106.0</ele><time>2026-04-26T09:31:31.934Z</time></trkpt><trkpt lat="45.6146682" lon="10.8541352"><ele>106.0</ele><time>2026-04-26T09:31:32.933Z</time></trkpt><trkpt lat="45.6145495" lon="10.8541321"><ele>106.0</ele><time>2026-04-26T09:31:33.934Z</time></trkpt><trkpt lat="45.6144394" lon="10.8541265"><ele>106.0</ele><time>2026-04-26T09:31:34.934Z</time></trkpt><trkpt lat="45.6143291" lon="10.8541214"><ele>106.6</ele><time>2026-04-26T09:31:35.934Z</time></trkpt><trkpt lat="45.614229" lon="10.8541157"><ele>107.19999999999999</ele><time>2026-04-26T09:31:36.934Z</time></trkpt><trkpt lat="45.6141288" lon="10.8541219"><ele>107.80000000000001</ele><time>2026-04-26T09:31:37.934Z</time></trkpt><trkpt lat="45.6140315" lon="10.8541297"><ele>108.4</ele><time>2026-04-26T09:31:38.934Z</time></trkpt><trkpt lat="45.6139301" lon="10.8541359"><ele>109.0</ele><time>2026-04-26T09:31:39.932Z</time></trkpt><trkpt lat="45.6137996" lon="10.8541697"><ele>109.0</ele><time>2026-04-26T09:31:40.934Z</time></trkpt><trkpt lat="45.6136612" lon="10.8541656"><ele>109.0</ele><time>2026-04-26T09:31:41.933Z</time></trkpt><trkpt lat="45.6135327" lon="10.8541693"><ele>109.0</ele><time>2026-04-26T09:31:42.933Z</time></trkpt><trkpt lat="45.6134059" lon="10.8541856"><ele>109.0</ele><time>2026-04-26T09:31:43.934Z</time></trkpt><trkpt lat="45.6132695" lon="10.8541978"><ele>108.33333333333334</ele><time>2026-04-26T09:31:44.934Z</time></trkpt><trkpt lat="45.6131211" lon="10.8542157"><ele>107.66666666666666</ele><time>2026-04-26T09:31:45.934Z</time></trkpt><trkpt lat="45.6129601" lon="10.8542481"><ele>107.0</ele><time>2026-04-26T09:31:46.934Z</time></trkpt><trkpt lat="45.6128046" lon="10.8542804"><ele>108.0</ele><time>2026-04-26T09:31:47.934Z</time></trkpt><trkpt lat="45.6126917" lon="10.8543078"><ele>109.0</ele><time>2026-04-26T09:31:48.934Z</time></trkpt><trkpt lat="45.6125583" lon="10.8543594"><ele>110.0</ele><time>2026-04-26T09:31:49.934Z</time></trkpt><trkpt lat="45.6124076" lon="10.8544171"><ele>111.0</ele><time>2026-04-26T09:31:50.934Z</time></trkpt><trkpt lat="45.6122463" lon="10.8544728"><ele>111.0</ele><time>2026-04-26T09:31:51.933Z</time></trkpt><trkpt lat="45.6120759" lon="10.8545338"><ele>111.0</ele><time>2026-04-26T09:31:52.934Z</time></trkpt><trkpt lat="45.6119155" lon="10.8545818"><ele>111.0</ele><time>2026-04-26T09:31:53.933Z</time></trkpt><trkpt lat="45.6117617" lon="10.854636"><ele>110.75</ele><time>2026-04-26T09:31:54.934Z</time></trkpt><trkpt lat="45.611611" lon="10.8546898"><ele>110.5</ele><time>2026-04-26T09:31:55.933Z</time></trkpt><trkpt lat="45.6114781" lon="10.8547449"><ele>110.25</ele><time>2026-04-26T09:31:56.934Z</time></trkpt><trkpt lat="45.6113588" lon="10.8547898"><ele>110.0</ele><time>2026-04-26T09:31:57.934Z</time></trkpt><trkpt lat="45.6112409" lon="10.8548477"><ele>109.4</ele><time>2026-04-26T09:31:58.934Z</time></trkpt><trkpt lat="45.6111208" lon="10.8549139"><ele>108.8</ele><time>2026-04-26T09:31:59.933Z</time></trkpt><trkpt lat="45.611024" lon="10.8549687"><ele>108.19999999999999</ele><time>2026-04-26T09:32:00.934Z</time></trkpt><trkpt lat="45.6109375" lon="10.8550216"><ele>107.6</ele><time>2026-04-26T09:32:01.934Z</time></trkpt><trkpt lat="45.6108509" lon="10.8550831"><ele>107.0</ele><time>2026-04-26T09:32:02.932Z</time></trkpt><trkpt lat="45.6107734" lon="10.8551513"><ele>108.8</ele><time>2026-04-26T09:32:03.934Z</time></trkpt><trkpt lat="45.6107026" lon="10.8552148"><ele>110.6</ele><time>2026-04-26T09:32:04.933Z</time></trkpt><trkpt lat="45.6106344" lon="10.8552821"><ele>112.39999999999999</ele><time>2026-04-26T09:32:05.934Z</time></trkpt><trkpt lat="45.610568" lon="10.855418"><ele>114.19999999999999</ele><time>2026-04-26T09:32:07.934Z</time></trkpt><trkpt lat="45.6105239" lon="10.8555804"><ele>116.0</ele><time>2026-04-26T09:32:09.934Z</time></trkpt><trkpt lat="45.6105087" lon="10.8556855"><ele>116.0</ele><time>2026-04-26T09:32:10.934Z</time></trkpt><trkpt lat="45.6105017" lon="10.8558146"><ele>116.0</ele><time>2026-04-26T09:32:11.934Z</time></trkpt><trkpt lat="45.6104882" lon="10.8559456"><ele>116.0</ele><time>2026-04-26T09:32:12.934Z</time></trkpt><trkpt lat="45.610478" lon="10.8560786"><ele>116.0</ele><time>2026-04-26T09:32:13.933Z</time></trkpt><trkpt lat="45.6104526" lon="10.8562103"><ele>116.0</ele><time>2026-04-26T09:32:14.933Z</time></trkpt><trkpt lat="45.6104324" lon="10.8563561"><ele>115.99999999999999</ele><time>2026-04-26T09:32:15.934Z</time></trkpt><trkpt lat="45.6104159" lon="10.8564707"><ele>116.0</ele><time>2026-04-26T09:32:16.934Z</time></trkpt><trkpt lat="45.6103958" lon="10.8565987"><ele>116.0</ele><time>2026-04-26T09:32:18.933Z</time></trkpt><trkpt lat="45.6103903" lon="10.8567133"><ele>116.0</ele><time>2026-04-26T09:32:22.934Z</time></trkpt><trkpt lat="45.6103332" lon="10.85679"><ele>115.99999999999999</ele><time>2026-04-26T09:32:25.934Z</time></trkpt><trkpt lat="45.6102839" lon="10.8568531"><ele>116.0</ele><time>2026-04-26T09:32:27.934Z</time></trkpt><trkpt lat="45.6102374" lon="10.8569147"><ele>115.99999999999999</ele><time>2026-04-26T09:32:29.934Z</time></trkpt><trkpt lat="45.6101893" lon="10.8570016"><ele>116.0</ele><time>2026-04-26T09:32:32.933Z</time></trkpt><trkpt lat="45.6102262" lon="10.8570952"><ele>116.0</ele><time>2026-04-26T09:32:37.933Z</time></trkpt><trkpt lat="45.6103157" lon="10.8571643"><ele>116.0</ele><time>2026-04-26T09:32:39.933Z</time></trkpt><trkpt lat="45.6103504" lon="10.8572799"><ele>115.99999999999999</ele><time>2026-04-26T09:32:41.932Z</time></trkpt><trkpt lat="45.6103838" lon="10.8573733"><ele>116.0</ele><time>2026-04-26T09:32:43.932Z</time></trkpt><trkpt lat="45.6104434" lon="10.8574503"><ele>116.00000000000001</ele><time>2026-04-26T09:32:45.933Z</time></trkpt><trkpt lat="45.6105086" lon="10.8575302"><ele>116.0</ele><time>2026-04-26T09:32:47.932Z</time></trkpt><trkpt lat="45.6105756" lon="10.8575926"><ele>116.00000000000001</ele><time>2026-04-26T09:32:49.933Z</time></trkpt><trkpt lat="45.6106461" lon="10.8575395"><ele>116.00000000000001</ele><time>2026-04-26T09:32:52.933Z</time></trkpt><trkpt lat="45.6107098" lon="10.8575425"><ele>116.0</ele><time>2026-04-26T09:33:15.932Z</time></trkpt><trkpt lat="45.6107632" lon="10.8575917"><ele>116.00000000000001</ele><time>2026-04-26T09:33:17.933Z</time></trkpt><trkpt lat="45.6107568" lon="10.8576919"><ele>116.00000000000001</ele><time>2026-04-26T09:33:19.932Z</time></trkpt><trkpt lat="45.6107201" lon="10.8577762"><ele>116.0</ele><time>2026-04-26T09:33:22.933Z</time></trkpt><trkpt lat="45.6107679" lon="10.857842"><ele>116.0</ele><time>2026-04-26T09:34:49.932Z</time></trkpt><trkpt lat="45.6108984" lon="10.8575534"><ele>116.0</ele><time>2026-04-26T09:52:42.934Z</time></trkpt><trkpt lat="45.6108489" lon="10.8576767"><ele>116.0</ele><time>2026-04-26T10:13:08.928Z</time></trkpt><trkpt lat="45.6107828" lon="10.8576608"><ele>116.0</ele><time>2026-04-26T10:13:42.238Z</time></trkpt><trkpt lat="45.610764" lon="10.8577561"><ele>116.0</ele><time>2026-04-26T10:18:58.926Z</time></trkpt><trkpt lat="45.6106799" lon="10.8576916"><ele>116.0</ele><time>2026-04-26T10:23:27.926Z</time></trkpt><trkpt lat="45.6106946" lon="10.8575738"><ele>116.0</ele><time>2026-04-26T10:23:28.925Z</time></trkpt><trkpt lat="45.6106107" lon="10.8576138"><ele>116.0</ele><time>2026-04-26T10:23:30.925Z</time></trkpt><trkpt lat="45.6106633" lon="10.8574325"><ele>116.0</ele><time>2026-04-26T10:23:33.926Z</time></trkpt><trkpt lat="45.6106077" lon="10.8575403"><ele>116.0</ele><time>2026-04-26T10:23:54.926Z</time></trkpt><trkpt lat="45.6105479" lon="10.8575809"><ele>116.0</ele><time>2026-04-26T10:23:56.926Z</time></trkpt><trkpt lat="45.6104908" lon="10.8575101"><ele>116.0</ele><time>2026-04-26T10:23:58.925Z</time></trkpt><trkpt lat="45.6104317" lon="10.8573946"><ele>116.0</ele><time>2026-04-26T10:24:00.926Z</time></trkpt><trkpt lat="45.6103167" lon="10.8573233"><ele>115.99999999999999</ele><time>2026-04-26T10:24:02.925Z</time></trkpt><trkpt lat="45.6102584" lon="10.8572862"><ele>116.0</ele><time>2026-04-26T10:24:03.925Z</time></trkpt><trkpt lat="45.6101554" lon="10.8571934"><ele>116.0</ele><time>2026-04-26T10:24:05.925Z</time></trkpt><trkpt lat="45.6101045" lon="10.8571349"><ele>116.0</ele><time>2026-04-26T10:24:06.926Z</time></trkpt><trkpt lat="45.6100457" lon="10.8570835"><ele>115.99999999999999</ele><time>2026-04-26T10:24:07.926Z</time></trkpt><trkpt lat="45.6099689" lon="10.8570553"><ele>116.0</ele><time>2026-04-26T10:24:08.926Z</time></trkpt><trkpt lat="45.6098809" lon="10.8570575"><ele>116.0</ele><time>2026-04-26T10:24:09.925Z</time></trkpt><trkpt lat="45.6097911" lon="10.8570699"><ele>116.0</ele><time>2026-04-26T10:24:10.925Z</time></trkpt><trkpt lat="45.6096914" lon="10.857083"><ele>116.0</ele><time>2026-04-26T10:24:11.925Z</time></trkpt><trkpt lat="45.6095829" lon="10.8570931"><ele>116.0</ele><time>2026-04-26T10:24:12.926Z</time></trkpt><trkpt lat="45.6094734" lon="10.8571009"><ele>116.0</ele><time>2026-04-26T10:24:13.926Z</time></trkpt><trkpt lat="45.6093657" lon="10.8571106"><ele>115.8</ele><time>2026-04-26T10:24:14.925Z</time></trkpt><trkpt lat="45.6092607" lon="10.8571047"><ele>115.6</ele><time>2026-04-26T10:24:15.926Z</time></trkpt><trkpt lat="45.6091574" lon="10.857076"><ele>115.4</ele><time>2026-04-26T10:24:16.925Z</time></trkpt><trkpt lat="45.6090569" lon="10.8570268"><ele>115.2</ele><time>2026-04-26T10:24:17.926Z</time></trkpt><trkpt lat="45.6089559" lon="10.8569748"><ele>115.0</ele><time>2026-04-26T10:24:18.926Z</time></trkpt><trkpt lat="45.6088516" lon="10.8569264"><ele>115.0</ele><time>2026-04-26T10:24:19.925Z</time></trkpt><trkpt lat="45.6087466" lon="10.8568801"><ele>115.0</ele><time>2026-04-26T10:24:20.925Z</time></trkpt><trkpt lat="45.6086373" lon="10.8568351"><ele>115.0</ele><time>2026-04-26T10:24:21.925Z</time></trkpt><trkpt lat="45.6085222" lon="10.8567886"><ele>115.0</ele><time>2026-04-26T10:24:22.926Z</time></trkpt><trkpt lat="45.6084015" lon="10.8567362"><ele>113.0</ele><time>2026-04-26T10:24:23.925Z</time></trkpt><trkpt lat="45.6082793" lon="10.8566749"><ele>111.0</ele><time>2026-04-26T10:24:24.926Z</time></trkpt><trkpt lat="45.6081578" lon="10.8566111"><ele>109.0</ele><time>2026-04-26T10:24:25.926Z</time></trkpt><trkpt lat="45.6080443" lon="10.8565468"><ele>107.0</ele><time>2026-04-26T10:24:26.926Z</time></trkpt><trkpt lat="45.6079427" lon="10.8564855"><ele>106.99999999999999</ele><time>2026-04-26T10:24:27.925Z</time></trkpt><trkpt lat="45.6078534" lon="10.8564281"><ele>107.0</ele><time>2026-04-26T10:24:28.926Z</time></trkpt><trkpt lat="45.6077811" lon="10.8563759"><ele>107.0</ele><time>2026-04-26T10:24:29.926Z</time></trkpt><trkpt lat="45.6077246" lon="10.8563329"><ele>107.0</ele><time>2026-04-26T10:24:30.926Z</time></trkpt><trkpt lat="45.6076503" lon="10.8563324"><ele>106.99999999999999</ele><time>2026-04-26T10:24:32.925Z</time></trkpt><trkpt lat="45.6075916" lon="10.8564584"><ele>107.0</ele><time>2026-04-26T10:24:34.925Z</time></trkpt><trkpt lat="45.6075673" lon="10.856542"><ele>107.39999999999999</ele><time>2026-04-26T10:24:35.926Z</time></trkpt><trkpt lat="45.607505" lon="10.8566822"><ele>107.79999999999998</ele><time>2026-04-26T10:24:37.926Z</time></trkpt><trkpt lat="45.6074195" lon="10.8567303"><ele>108.2</ele><time>2026-04-26T10:24:39.926Z</time></trkpt><trkpt lat="45.6073131" lon="10.8566705"><ele>108.6</ele><time>2026-04-26T10:24:41.925Z</time></trkpt><trkpt lat="45.6072066" lon="10.8566238"><ele>109.0</ele><time>2026-04-26T10:24:43.926Z</time></trkpt><trkpt lat="45.6071449" lon="10.8566023"><ele>109.00000000000001</ele><time>2026-04-26T10:24:44.925Z</time></trkpt><trkpt lat="45.6070806" lon="10.856575"><ele>109.0</ele><time>2026-04-26T10:24:45.926Z</time></trkpt><trkpt lat="45.60701" lon="10.8565392"><ele>109.0</ele><time>2026-04-26T10:24:46.926Z</time></trkpt><trkpt lat="45.6069273" lon="10.8564878"><ele>109.0</ele><time>2026-04-26T10:24:47.926Z</time></trkpt><trkpt lat="45.6068394" lon="10.8564235"><ele>109.00000000000001</ele><time>2026-04-26T10:24:48.925Z</time></trkpt><trkpt lat="45.6067425" lon="10.8563464"><ele>109.0</ele><time>2026-04-26T10:24:49.925Z</time></trkpt><trkpt lat="45.6066369" lon="10.8562634"><ele>109.25</ele><time>2026-04-26T10:24:50.925Z</time></trkpt><trkpt lat="45.6065314" lon="10.8561744"><ele>109.5</ele><time>2026-04-26T10:24:51.925Z</time></trkpt><trkpt lat="45.6064222" lon="10.8560768"><ele>109.75</ele><time>2026-04-26T10:24:52.926Z</time></trkpt><trkpt lat="45.6063087" lon="10.8559675"><ele>110.0</ele><time>2026-04-26T10:24:53.926Z</time></trkpt><trkpt lat="45.6061975" lon="10.8558471"><ele>112.5</ele><time>2026-04-26T10:24:54.926Z</time></trkpt><trkpt lat="45.6060891" lon="10.8557125"><ele>115.0</ele><time>2026-04-26T10:24:55.926Z</time></trkpt><trkpt lat="45.6059852" lon="10.8555626"><ele>117.5</ele><time>2026-04-26T10:24:56.926Z</time></trkpt><trkpt lat="45.6058829" lon="10.8553974"><ele>120.0</ele><time>2026-04-26T10:24:57.926Z</time></trkpt><trkpt lat="45.6057786" lon="10.8552155"><ele>117.66666666666666</ele><time>2026-04-26T10:24:58.925Z</time></trkpt><trkpt lat="45.6056709" lon="10.8550278"><ele>115.33333333333333</ele><time>2026-04-26T10:24:59.926Z</time></trkpt><trkpt lat="45.6055527" lon="10.8548454"><ele>113.0</ele><time>2026-04-26T10:25:00.926Z</time></trkpt><trkpt lat="45.6054237" lon="10.8546789"><ele>113.66666666666666</ele><time>2026-04-26T10:25:01.926Z</time></trkpt><trkpt lat="45.6052905" lon="10.8545225"><ele>114.33333333333334</ele><time>2026-04-26T10:25:02.926Z</time></trkpt><trkpt lat="45.6051559" lon="10.8543715"><ele>115.0</ele><time>2026-04-26T10:25:03.925Z</time></trkpt><trkpt lat="45.6050223" lon="10.8542217"><ele>115.0</ele><time>2026-04-26T10:25:04.925Z</time></trkpt><trkpt lat="45.6048917" lon="10.8540715"><ele>115.0</ele><time>2026-04-26T10:25:05.926Z</time></trkpt><trkpt lat="45.6047602" lon="10.8539259"><ele>115.0</ele><time>2026-04-26T10:25:06.925Z</time></trkpt><trkpt lat="45.6046275" lon="10.8537843"><ele>115.0</ele><time>2026-04-26T10:25:07.925Z</time></trkpt><trkpt lat="45.6044967" lon="10.8536421"><ele>115.0</ele><time>2026-04-26T10:25:08.926Z</time></trkpt><trkpt lat="45.6043668" lon="10.8535046"><ele>115.0</ele><time>2026-04-26T10:25:09.926Z</time></trkpt><trkpt lat="45.6042363" lon="10.8533728"><ele>115.33333333333334</ele><time>2026-04-26T10:25:10.925Z</time></trkpt><trkpt lat="45.6041055" lon="10.853242"><ele>115.66666666666666</ele><time>2026-04-26T10:25:11.926Z</time></trkpt><trkpt lat="45.6039726" lon="10.8531187"><ele>116.0</ele><time>2026-04-26T10:25:12.926Z</time></trkpt><trkpt lat="45.6038374" lon="10.8530069"><ele>116.0</ele><time>2026-04-26T10:25:13.925Z</time></trkpt><trkpt lat="45.603698" lon="10.8529061"><ele>116.0</ele><time>2026-04-26T10:25:14.926Z</time></trkpt><trkpt lat="45.6035564" lon="10.8528171"><ele>116.0</ele><time>2026-04-26T10:25:15.926Z</time></trkpt><trkpt lat="45.6034117" lon="10.8527367"><ele>115.66666666666666</ele><time>2026-04-26T10:25:16.926Z</time></trkpt><trkpt lat="45.6032618" lon="10.8526593"><ele>115.33333333333334</ele><time>2026-04-26T10:25:17.925Z</time></trkpt><trkpt lat="45.6031096" lon="10.8525785"><ele>115.0</ele><time>2026-04-26T10:25:18.925Z</time></trkpt><trkpt lat="45.6029551" lon="10.8524929"><ele>115.0</ele><time>2026-04-26T10:25:19.926Z</time></trkpt><trkpt lat="45.6027981" lon="10.8524084"><ele>115.0</ele><time>2026-04-26T10:25:20.926Z</time></trkpt><trkpt lat="45.602642" lon="10.8523285"><ele>115.0</ele><time>2026-04-26T10:25:21.926Z</time></trkpt><trkpt lat="45.6024852" lon="10.8522507"><ele>115.0</ele><time>2026-04-26T10:25:22.926Z</time></trkpt><trkpt lat="45.6023302" lon="10.8521751"><ele>115.0</ele><time>2026-04-26T10:25:23.925Z</time></trkpt><trkpt lat="45.6021796" lon="10.8520979"><ele>115.0</ele><time>2026-04-26T10:25:24.925Z</time></trkpt><trkpt lat="45.6020405" lon="10.8520218"><ele>115.25</ele><time>2026-04-26T10:25:25.925Z</time></trkpt><trkpt lat="45.6019126" lon="10.8519501"><ele>115.5</ele><time>2026-04-26T10:25:26.926Z</time></trkpt><trkpt lat="45.6017966" lon="10.8518728"><ele>115.75</ele><time>2026-04-26T10:25:27.926Z</time></trkpt><trkpt lat="45.6016874" lon="10.8517915"><ele>116.0</ele><time>2026-04-26T10:25:28.926Z</time></trkpt><trkpt lat="45.6015838" lon="10.8517115"><ele>115.4</ele><time>2026-04-26T10:25:29.925Z</time></trkpt><trkpt lat="45.6014844" lon="10.8516328"><ele>114.8</ele><time>2026-04-26T10:25:30.926Z</time></trkpt><trkpt lat="45.6013927" lon="10.851557"><ele>114.20000000000002</ele><time>2026-04-26T10:25:31.926Z</time></trkpt><trkpt lat="45.6013141" lon="10.8514951"><ele>113.60000000000001</ele><time>2026-04-26T10:25:32.926Z</time></trkpt><trkpt lat="45.6012342" lon="10.8514057"><ele>113.0</ele><time>2026-04-26T10:25:34.926Z</time></trkpt><trkpt lat="45.6013118" lon="10.8513044"><ele>112.99999999999999</ele><time>2026-04-26T10:25:37.925Z</time></trkpt><trkpt lat="45.6014029" lon="10.8512068"><ele>113.0</ele><time>2026-04-26T10:25:39.926Z</time></trkpt><trkpt lat="45.6014603" lon="10.8511621"><ele>113.0</ele><time>2026-04-26T10:25:40.926Z</time></trkpt><trkpt lat="45.6015239" lon="10.8511186"><ele>113.0</ele><time>2026-04-26T10:25:41.926Z</time></trkpt><trkpt lat="45.6015964" lon="10.8510639"><ele>112.99999999999999</ele><time>2026-04-26T10:25:42.926Z</time></trkpt><trkpt lat="45.6016683" lon="10.8509925"><ele>113.0</ele><time>2026-04-26T10:25:43.926Z</time></trkpt><trkpt lat="45.6017415" lon="10.8509008"><ele>112.80000000000001</ele><time>2026-04-26T10:25:44.925Z</time></trkpt><trkpt lat="45.6018037" lon="10.8507931"><ele>112.60000000000001</ele><time>2026-04-26T10:25:45.926Z</time></trkpt><trkpt lat="45.6018525" lon="10.8507145"><ele>112.39999999999999</ele><time>2026-04-26T10:25:46.926Z</time></trkpt><trkpt lat="45.601899" lon="10.8506301"><ele>112.19999999999999</ele><time>2026-04-26T10:25:47.925Z</time></trkpt><trkpt lat="45.6019393" lon="10.8504866"><ele>112.0</ele><time>2026-04-26T10:25:49.925Z</time></trkpt><trkpt lat="45.6018705" lon="10.8503681"><ele>112.0</ele><time>2026-04-26T10:25:51.926Z</time></trkpt><trkpt lat="45.6017982" lon="10.8503226"><ele>111.99999999999999</ele><time>2026-04-26T10:25:52.925Z</time></trkpt><trkpt lat="45.6017121" lon="10.8502745"><ele>111.99999999999999</ele><time>2026-04-26T10:25:53.925Z</time></trkpt><trkpt lat="45.6016099" lon="10.8502281"><ele>112.0</ele><time>2026-04-26T10:25:54.926Z</time></trkpt><trkpt lat="45.6014943" lon="10.8501905"><ele>112.0</ele><time>2026-04-26T10:25:55.926Z</time></trkpt><trkpt lat="45.6013633" lon="10.8501662"><ele>112.0</ele><time>2026-04-26T10:25:56.925Z</time></trkpt><trkpt lat="45.6012241" lon="10.8501526"><ele>112.0</ele><time>2026-04-26T10:25:57.926Z</time></trkpt><trkpt lat="45.6010748" lon="10.850127"><ele>112.0</ele><time>2026-04-26T10:25:58.926Z</time></trkpt><trkpt lat="45.6009198" lon="10.8500859"><ele>112.0</ele><time>2026-04-26T10:25:59.925Z</time></trkpt><trkpt lat="45.6007648" lon="10.8500378"><ele>112.0</ele><time>2026-04-26T10:26:00.926Z</time></trkpt><trkpt lat="45.6006109" lon="10.8499918"><ele>112.0</ele><time>2026-04-26T10:26:01.926Z</time></trkpt><trkpt lat="45.6004606" lon="10.8499445"><ele>112.0</ele><time>2026-04-26T10:26:02.926Z</time></trkpt><trkpt lat="45.6003187" lon="10.8498999"><ele>111.39999999999999</ele><time>2026-04-26T10:26:03.925Z</time></trkpt><trkpt lat="45.600198" lon="10.8498594"><ele>110.79999999999998</ele><time>2026-04-26T10:26:04.926Z</time></trkpt><trkpt lat="45.6001021" lon="10.8498248"><ele>110.2</ele><time>2026-04-26T10:26:05.926Z</time></trkpt><trkpt lat="45.6000259" lon="10.8497993"><ele>109.6</ele><time>2026-04-26T10:26:06.926Z</time></trkpt><trkpt lat="45.5999367" lon="10.8497296"><ele>109.0</ele><time>2026-04-26T10:26:08.925Z</time></trkpt><trkpt lat="45.5999112" lon="10.8496392"><ele>109.0</ele><time>2026-04-26T10:26:10.925Z</time></trkpt><trkpt lat="45.599937" lon="10.8494909"><ele>109.0</ele><time>2026-04-26T10:26:13.925Z</time></trkpt><trkpt lat="45.5999735" lon="10.8493866"><ele>109.0</ele><time>2026-04-26T10:26:14.924Z</time></trkpt><trkpt lat="45.6000072" lon="10.849269"><ele>109.0</ele><time>2026-04-26T10:26:15.924Z</time></trkpt><trkpt lat="45.6000452" lon="10.8491305"><ele>109.0</ele><time>2026-04-26T10:26:16.925Z</time></trkpt><trkpt lat="45.60009" lon="10.8489746"><ele>108.5</ele><time>2026-04-26T10:26:17.925Z</time></trkpt><trkpt lat="45.6001473" lon="10.8488002"><ele>108.0</ele><time>2026-04-26T10:26:18.925Z</time></trkpt><trkpt lat="45.6002012" lon="10.8486376"><ele>107.5</ele><time>2026-04-26T10:26:19.924Z</time></trkpt><trkpt lat="45.6002532" lon="10.8484907"><ele>107.0</ele><time>2026-04-26T10:26:20.925Z</time></trkpt><trkpt lat="45.6003011" lon="10.8483521"><ele>106.83333333333333</ele><time>2026-04-26T10:26:21.924Z</time></trkpt><trkpt lat="45.6003412" lon="10.8482312"><ele>106.66666666666666</ele><time>2026-04-26T10:26:22.924Z</time></trkpt><trkpt lat="45.6003694" lon="10.8481457"><ele>106.5</ele><time>2026-04-26T10:26:23.924Z</time></trkpt><trkpt lat="45.6003938" lon="10.8480516"><ele>106.33333333333334</ele><time>2026-04-26T10:26:25.924Z</time></trkpt><trkpt lat="45.6004279" lon="10.8479364"><ele>106.16666666666667</ele><time>2026-04-26T10:26:33.925Z</time></trkpt><trkpt lat="45.6005018" lon="10.8478731"><ele>106.0</ele><time>2026-04-26T10:26:36.925Z</time></trkpt><trkpt lat="45.6005743" lon="10.8478753"><ele>106.00000000000001</ele><time>2026-04-26T10:26:38.924Z</time></trkpt><trkpt lat="45.6006537" lon="10.8479023"><ele>106.0</ele><time>2026-04-26T10:26:42.925Z</time></trkpt><trkpt lat="45.6006802" lon="10.8478132"><ele>106.0</ele><time>2026-04-26T10:26:45.925Z</time></trkpt><trkpt lat="45.6006549" lon="10.8477218"><ele>106.0</ele><time>2026-04-26T10:26:47.925Z</time></trkpt><trkpt lat="45.6006567" lon="10.8476271"><ele>106.00000000000001</ele><time>2026-04-26T10:26:49.924Z</time></trkpt><trkpt lat="45.6006302" lon="10.8475208"><ele>106.0</ele><time>2026-04-26T10:26:52.925Z</time></trkpt><trkpt lat="45.6005718" lon="10.8473616"><ele>105.75</ele><time>2026-04-26T10:26:54.925Z</time></trkpt><trkpt lat="45.6005261" lon="10.8472483"><ele>105.5</ele><time>2026-04-26T10:26:55.925Z</time></trkpt><trkpt lat="45.6004614" lon="10.8471302"><ele>105.25</ele><time>2026-04-26T10:26:56.925Z</time></trkpt><trkpt lat="45.6003745" lon="10.8470073"><ele>105.0</ele><time>2026-04-26T10:26:57.925Z</time></trkpt><trkpt lat="45.6002682" lon="10.846868"><ele>104.0</ele><time>2026-04-26T10:26:58.925Z</time></trkpt><trkpt lat="45.6001694" lon="10.8467197"><ele>103.0</ele><time>2026-04-26T10:26:59.924Z</time></trkpt><trkpt lat="45.6000735" lon="10.8466028"><ele>102.0</ele><time>2026-04-26T10:27:00.924Z</time></trkpt><trkpt lat="45.599966" lon="10.8465118"><ele>101.0</ele><time>2026-04-26T10:27:01.924Z</time></trkpt><trkpt lat="45.5998537" lon="10.8464442"><ele>101.0</ele><time>2026-04-26T10:27:02.924Z</time></trkpt><trkpt lat="45.5997253" lon="10.8463737"><ele>101.0</ele><time>2026-04-26T10:27:03.924Z</time></trkpt><trkpt lat="45.5996043" lon="10.8462852"><ele>101.0</ele><time>2026-04-26T10:27:04.925Z</time></trkpt><trkpt lat="45.5994973" lon="10.8461876"><ele>101.0</ele><time>2026-04-26T10:27:05.925Z</time></trkpt><trkpt lat="45.5993832" lon="10.8460794"><ele>100.75</ele><time>2026-04-26T10:27:06.925Z</time></trkpt><trkpt lat="45.5992639" lon="10.8459822"><ele>100.5</ele><time>2026-04-26T10:27:07.924Z</time></trkpt><trkpt lat="45.5991303" lon="10.8459034"><ele>100.25</ele><time>2026-04-26T10:27:08.925Z</time></trkpt><trkpt lat="45.5989852" lon="10.8458129"><ele>100.0</ele><time>2026-04-26T10:27:09.925Z</time></trkpt><trkpt lat="45.5988353" lon="10.8457133"><ele>100.0</ele><time>2026-04-26T10:27:10.925Z</time></trkpt><trkpt lat="45.5987031" lon="10.8456366"><ele>100.0</ele><time>2026-04-26T10:27:11.924Z</time></trkpt><trkpt lat="45.5985796" lon="10.8455891"><ele>100.0</ele><time>2026-04-26T10:27:12.924Z</time></trkpt><trkpt lat="45.5984782" lon="10.8455509"><ele>100.0</ele><time>2026-04-26T10:27:13.924Z</time></trkpt><trkpt lat="45.5983856" lon="10.845474"><ele>100.0</ele><time>2026-04-26T10:27:14.924Z</time></trkpt><trkpt lat="45.5982807" lon="10.8453869"><ele>100.0</ele><time>2026-04-26T10:27:15.925Z</time></trkpt><trkpt lat="45.5981599" lon="10.8453035"><ele>100.0</ele><time>2026-04-26T10:27:16.924Z</time></trkpt><trkpt lat="45.5980388" lon="10.8452206"><ele>100.0</ele><time>2026-04-26T10:27:17.924Z</time></trkpt><trkpt lat="45.5979355" lon="10.8451531"><ele>100.00000000000001</ele><time>2026-04-26T10:27:18.925Z</time></trkpt><trkpt lat="45.5978426" lon="10.8450938"><ele>100.0</ele><time>2026-04-26T10:27:19.925Z</time></trkpt><trkpt lat="45.5977583" lon="10.8450448"><ele>100.0</ele><time>2026-04-26T10:27:20.925Z</time></trkpt><trkpt lat="45.5976953" lon="10.8450115"><ele>100.0</ele><time>2026-04-26T10:27:21.924Z</time></trkpt><trkpt lat="45.5976301" lon="10.8450464"><ele>100.00000000000001</ele><time>2026-04-26T10:27:23.924Z</time></trkpt><trkpt lat="45.5976597" lon="10.8451964"><ele>100.0</ele><time>2026-04-26T10:27:25.925Z</time></trkpt><trkpt lat="45.5977353" lon="10.8452381"><ele>100.00000000000001</ele><time>2026-04-26T10:27:26.925Z</time></trkpt><trkpt lat="45.5978304" lon="10.8452919"><ele>100.0</ele><time>2026-04-26T10:27:27.925Z</time></trkpt><trkpt lat="45.5979205" lon="10.8453455"><ele>100.0</ele><time>2026-04-26T10:27:28.925Z</time></trkpt><trkpt lat="45.5979832" lon="10.8454112"><ele>100.0</ele><time>2026-04-26T10:27:30.925Z</time></trkpt><trkpt lat="45.5979316" lon="10.8454633"><ele>100.00000000000001</ele><time>2026-04-26T10:27:33.925Z</time></trkpt><trkpt lat="45.5978665" lon="10.8454237"><ele>100.0</ele><time>2026-04-26T10:27:34.925Z</time></trkpt><trkpt lat="45.597762" lon="10.8453553"><ele>100.25</ele><time>2026-04-26T10:27:35.925Z</time></trkpt><trkpt lat="45.5976318" lon="10.845285"><ele>100.5</ele><time>2026-04-26T10:27:36.923Z</time></trkpt><trkpt lat="45.5974903" lon="10.8452147"><ele>100.75</ele><time>2026-04-26T10:27:37.925Z</time></trkpt><trkpt lat="45.5973555" lon="10.8451561"><ele>101.0</ele><time>2026-04-26T10:27:38.924Z</time></trkpt><trkpt lat="45.5971996" lon="10.8450809"><ele>101.0</ele><time>2026-04-26T10:27:39.925Z</time></trkpt><trkpt lat="45.5970342" lon="10.8449798"><ele>101.0</ele><time>2026-04-26T10:27:40.925Z</time></trkpt><trkpt lat="45.5968624" lon="10.8448739"><ele>101.0</ele><time>2026-04-26T10:27:41.925Z</time></trkpt><trkpt lat="45.5966892" lon="10.8447716"><ele>101.0</ele><time>2026-04-26T10:27:42.925Z</time></trkpt><trkpt lat="45.5965321" lon="10.8446742"><ele>101.0</ele><time>2026-04-26T10:27:43.924Z</time></trkpt><trkpt lat="45.5963678" lon="10.8445791"><ele>101.0</ele><time>2026-04-26T10:27:44.925Z</time></trkpt><trkpt lat="45.5961985" lon="10.8444918"><ele>101.33333333333333</ele><time>2026-04-26T10:27:45.925Z</time></trkpt><trkpt lat="45.5960374" lon="10.8444117"><ele>101.66666666666666</ele><time>2026-04-26T10:27:46.925Z</time></trkpt><trkpt lat="45.5958753" lon="10.8443404"><ele>102.0</ele><time>2026-04-26T10:27:47.924Z</time></trkpt><trkpt lat="45.5957083" lon="10.8442641"><ele>102.0</ele><time>2026-04-26T10:27:48.925Z</time></trkpt><trkpt lat="45.5955634" lon="10.8442045"><ele>102.0</ele><time>2026-04-26T10:27:49.925Z</time></trkpt><trkpt lat="45.5954508" lon="10.8441687"><ele>102.0</ele><time>2026-04-26T10:27:50.924Z</time></trkpt><trkpt lat="45.595358" lon="10.8441447"><ele>102.0</ele><time>2026-04-26T10:27:51.925Z</time></trkpt><trkpt lat="45.5952635" lon="10.8441391"><ele>101.5</ele><time>2026-04-26T10:27:52.925Z</time></trkpt><trkpt lat="45.5951314" lon="10.8441175"><ele>101.0</ele><time>2026-04-26T10:27:53.925Z</time></trkpt><trkpt lat="45.5949858" lon="10.8440786"><ele>100.5</ele><time>2026-04-26T10:27:54.924Z</time></trkpt><trkpt lat="45.5948417" lon="10.8440332"><ele>100.0</ele><time>2026-04-26T10:27:55.924Z</time></trkpt><trkpt lat="45.594724" lon="10.8440043"><ele>100.0</ele><time>2026-04-26T10:27:56.924Z</time></trkpt><trkpt lat="45.5946267" lon="10.8439828"><ele>100.0</ele><time>2026-04-26T10:27:57.925Z</time></trkpt><trkpt lat="45.5945465" lon="10.8439725"><ele>100.0</ele><time>2026-04-26T10:27:58.924Z</time></trkpt><trkpt lat="45.594445" lon="10.8440579"><ele>100.0</ele><time>2026-04-26T10:28:00.924Z</time></trkpt><trkpt lat="45.5944055" lon="10.8441907"><ele>100.0</ele><time>2026-04-26T10:28:01.924Z</time></trkpt><trkpt lat="45.5943714" lon="10.8443861"><ele>101.0</ele><time>2026-04-26T10:28:02.925Z</time></trkpt><trkpt lat="45.5943385" lon="10.8446229"><ele>102.0</ele><time>2026-04-26T10:28:03.925Z</time></trkpt><trkpt lat="45.5942933" lon="10.8448792"><ele>103.0</ele><time>2026-04-26T10:28:04.924Z</time></trkpt><trkpt lat="45.5942494" lon="10.845075"><ele>102.4</ele><time>2026-04-26T10:28:05.925Z</time></trkpt><trkpt lat="45.5942155" lon="10.8452181"><ele>101.80000000000001</ele><time>2026-04-26T10:28:06.924Z</time></trkpt><trkpt lat="45.5941793" lon="10.8453098"><ele>101.2</ele><time>2026-04-26T10:28:07.925Z</time></trkpt><trkpt lat="45.5940911" lon="10.8453479"><ele>100.6</ele><time>2026-04-26T10:28:09.925Z</time></trkpt><trkpt lat="45.5940064" lon="10.8453085"><ele>100.0</ele><time>2026-04-26T10:28:10.925Z</time></trkpt><trkpt lat="45.593883" lon="10.845235"><ele>100.0</ele><time>2026-04-26T10:28:11.925Z</time></trkpt><trkpt lat="45.5937391" lon="10.8451687"><ele>100.0</ele><time>2026-04-26T10:28:12.925Z</time></trkpt><trkpt lat="45.593641" lon="10.845121"><ele>100.0</ele><time>2026-04-26T10:28:13.924Z</time></trkpt><trkpt lat="45.5935662" lon="10.8450673"><ele>100.0</ele><time>2026-04-26T10:28:14.924Z</time></trkpt><trkpt lat="45.593529" lon="10.8449922"><ele>100.0</ele><time>2026-04-26T10:28:15.925Z</time></trkpt><trkpt lat="45.5935139" lon="10.8448556"><ele>100.4</ele><time>2026-04-26T10:28:16.925Z</time></trkpt><trkpt lat="45.5935349" lon="10.8446709"><ele>100.8</ele><time>2026-04-26T10:28:17.925Z</time></trkpt><trkpt lat="45.5935662" lon="10.8445075"><ele>101.19999999999999</ele><time>2026-04-26T10:28:18.925Z</time></trkpt><trkpt lat="45.5935748" lon="10.8444049"><ele>101.6</ele><time>2026-04-26T10:28:19.925Z</time></trkpt><trkpt lat="45.5935195" lon="10.8443068"><ele>102.0</ele><time>2026-04-26T10:28:21.924Z</time></trkpt><trkpt lat="45.5934252" lon="10.8442917"><ele>102.0</ele><time>2026-04-26T10:28:22.925Z</time></trkpt><trkpt lat="45.5932928" lon="10.8442771"><ele>102.0</ele><time>2026-04-26T10:28:23.925Z</time></trkpt><trkpt lat="45.5931581" lon="10.8442664"><ele>102.0</ele><time>2026-04-26T10:28:24.925Z</time></trkpt><trkpt lat="45.5930364" lon="10.8442581"><ele>102.0</ele><time>2026-04-26T10:28:25.924Z</time></trkpt><trkpt lat="45.5929497" lon="10.8442483"><ele>102.0</ele><time>2026-04-26T10:28:26.924Z</time></trkpt><trkpt lat="45.5928712" lon="10.8441358"><ele>102.0</ele><time>2026-04-26T10:28:28.925Z</time></trkpt><trkpt lat="45.5928723" lon="10.8439987"><ele>102.0</ele><time>2026-04-26T10:28:29.925Z</time></trkpt><trkpt lat="45.592876" lon="10.8438857"><ele>102.0</ele><time>2026-04-26T10:28:30.925Z</time></trkpt><trkpt lat="45.5927933" lon="10.8437902"><ele>102.0</ele><time>2026-04-26T10:28:32.925Z</time></trkpt><trkpt lat="45.5926863" lon="10.843799"><ele>101.0</ele><time>2026-04-26T10:28:33.924Z</time></trkpt><trkpt lat="45.5925449" lon="10.84382"><ele>100.0</ele><time>2026-04-26T10:28:34.924Z</time></trkpt><trkpt lat="45.5923791" lon="10.8438472"><ele>99.0</ele><time>2026-04-26T10:28:35.924Z</time></trkpt><trkpt lat="45.5921914" lon="10.8438807"><ele>100.0</ele><time>2026-04-26T10:28:36.925Z</time></trkpt><trkpt lat="45.5919798" lon="10.8439001"><ele>101.0</ele><time>2026-04-26T10:28:37.924Z</time></trkpt><trkpt lat="45.5917604" lon="10.8439202"><ele>102.0</ele><time>2026-04-26T10:28:38.925Z</time></trkpt><trkpt lat="45.5915895" lon="10.8439385"><ele>102.0</ele><time>2026-04-26T10:28:39.925Z</time></trkpt><trkpt lat="45.5914471" lon="10.8439509"><ele>102.0</ele><time>2026-04-26T10:28:40.925Z</time></trkpt><trkpt lat="45.5912894" lon="10.8439464"><ele>102.0</ele><time>2026-04-26T10:28:41.925Z</time></trkpt><trkpt lat="45.5911311" lon="10.8439403"><ele>101.66666666666666</ele><time>2026-04-26T10:28:42.925Z</time></trkpt><trkpt lat="45.590952" lon="10.8439779"><ele>101.33333333333333</ele><time>2026-04-26T10:28:43.925Z</time></trkpt><trkpt lat="45.5907564" lon="10.8440328"><ele>101.0</ele><time>2026-04-26T10:28:44.924Z</time></trkpt><trkpt lat="45.5905492" lon="10.8440839"><ele>101.0</ele><time>2026-04-26T10:28:45.925Z</time></trkpt><trkpt lat="45.5903362" lon="10.8441363"><ele>101.0</ele><time>2026-04-26T10:28:46.924Z</time></trkpt><trkpt lat="45.5901437" lon="10.8441859"><ele>101.0</ele><time>2026-04-26T10:28:47.925Z</time></trkpt><trkpt lat="45.5899489" lon="10.8442304"><ele>101.0</ele><time>2026-04-26T10:28:48.925Z</time></trkpt><trkpt lat="45.589747" lon="10.8442664"><ele>101.0</ele><time>2026-04-26T10:28:49.925Z</time></trkpt><trkpt lat="45.5895455" lon="10.844299"><ele>101.0</ele><time>2026-04-26T10:28:50.924Z</time></trkpt><trkpt lat="45.5893467" lon="10.8443318"><ele>101.0</ele><time>2026-04-26T10:28:51.925Z</time></trkpt><trkpt lat="45.589151" lon="10.8443683"><ele>101.0</ele><time>2026-04-26T10:28:52.925Z</time></trkpt><trkpt lat="45.5889567" lon="10.8444258"><ele>101.0</ele><time>2026-04-26T10:28:53.925Z</time></trkpt><trkpt lat="45.5887535" lon="10.8445042"><ele>100.66666666666666</ele><time>2026-04-26T10:28:54.925Z</time></trkpt><trkpt lat="45.5885486" lon="10.8445765"><ele>100.33333333333334</ele><time>2026-04-26T10:28:55.925Z</time></trkpt><trkpt lat="45.5883473" lon="10.8446448"><ele>100.0</ele><time>2026-04-26T10:28:56.925Z</time></trkpt><trkpt lat="45.5881696" lon="10.844699"><ele>100.0</ele><time>2026-04-26T10:28:57.924Z</time></trkpt><trkpt lat="45.5880095" lon="10.8447543"><ele>100.0</ele><time>2026-04-26T10:28:58.924Z</time></trkpt><trkpt lat="45.5878695" lon="10.8448148"><ele>100.0</ele><time>2026-04-26T10:28:59.924Z</time></trkpt><trkpt lat="45.5877657" lon="10.8448895"><ele>100.0</ele><time>2026-04-26T10:29:00.924Z</time></trkpt><trkpt lat="45.5876932" lon="10.8449841"><ele>99.66666666666667</ele><time>2026-04-26T10:29:01.925Z</time></trkpt><trkpt lat="45.5876422" lon="10.8451071"><ele>99.33333333333334</ele><time>2026-04-26T10:29:02.925Z</time></trkpt><trkpt lat="45.5876102" lon="10.8452604"><ele>99.0</ele><time>2026-04-26T10:29:03.925Z</time></trkpt><trkpt lat="45.5875932" lon="10.8453726"><ele>98.66666666666666</ele><time>2026-04-26T10:29:04.925Z</time></trkpt><trkpt lat="45.5875773" lon="10.8454648"><ele>98.33333333333333</ele><time>2026-04-26T10:29:06.925Z</time></trkpt><trkpt lat="45.5876043" lon="10.8455494"><ele>98.0</ele><time>2026-04-26T10:29:50.924Z</time></trkpt><trkpt lat="45.5876897" lon="10.8455726"><ele>98.80000000000001</ele><time>2026-04-26T10:29:52.925Z</time></trkpt><trkpt lat="45.5877567" lon="10.8455971"><ele>99.6</ele><time>2026-04-26T10:29:53.925Z</time></trkpt><trkpt lat="45.5878353" lon="10.8456279"><ele>100.4</ele><time>2026-04-26T10:29:54.925Z</time></trkpt><trkpt lat="45.5879247" lon="10.8456641"><ele>101.19999999999999</ele><time>2026-04-26T10:29:55.925Z</time></trkpt><trkpt lat="45.5880236" lon="10.8457034"><ele>102.0</ele><time>2026-04-26T10:29:56.924Z</time></trkpt><trkpt lat="45.5881333" lon="10.8457431"><ele>102.0</ele><time>2026-04-26T10:29:57.925Z</time></trkpt><trkpt lat="45.5882482" lon="10.8457779"><ele>102.0</ele><time>2026-04-26T10:29:58.924Z</time></trkpt><trkpt lat="45.5883682" lon="10.8458163"><ele>102.0</ele><time>2026-04-26T10:29:59.925Z</time></trkpt><trkpt lat="45.5884935" lon="10.8458599"><ele>102.0</ele><time>2026-04-26T10:30:00.925Z</time></trkpt><trkpt lat="45.5886181" lon="10.8459071"><ele>102.25</ele><time>2026-04-26T10:30:01.924Z</time></trkpt><trkpt lat="45.588744" lon="10.8459559"><ele>102.5</ele><time>2026-04-26T10:30:02.924Z</time></trkpt><trkpt lat="45.5888696" lon="10.8460056"><ele>102.75</ele><time>2026-04-26T10:30:03.924Z</time></trkpt><trkpt lat="45.5889983" lon="10.8460542"><ele>103.0</ele><time>2026-04-26T10:30:04.925Z</time></trkpt><trkpt lat="45.5891297" lon="10.8460992"><ele>103.25</ele><time>2026-04-26T10:30:05.925Z</time></trkpt><trkpt lat="45.5892619" lon="10.8461432"><ele>103.5</ele><time>2026-04-26T10:30:06.924Z</time></trkpt><trkpt lat="45.5893981" lon="10.8461855"><ele>103.75</ele><time>2026-04-26T10:30:07.925Z</time></trkpt><trkpt lat="45.5895308" lon="10.846229"><ele>104.0</ele><time>2026-04-26T10:30:08.925Z</time></trkpt><trkpt lat="45.5896626" lon="10.8462738"><ele>103.5</ele><time>2026-04-26T10:30:09.925Z</time></trkpt><trkpt lat="45.5897926" lon="10.8463204"><ele>103.0</ele><time>2026-04-26T10:30:10.924Z</time></trkpt><trkpt lat="45.5899216" lon="10.8463681"><ele>102.5</ele><time>2026-04-26T10:30:11.924Z</time></trkpt><trkpt lat="45.5900479" lon="10.8464159"><ele>102.0</ele><time>2026-04-26T10:30:12.924Z</time></trkpt><trkpt lat="45.5901726" lon="10.8464637"><ele>102.0</ele><time>2026-04-26T10:30:13.925Z</time></trkpt><trkpt lat="45.5902955" lon="10.8465085"><ele>102.0</ele><time>2026-04-26T10:30:14.924Z</time></trkpt><trkpt lat="45.5904009" lon="10.8465381"><ele>102.0</ele><time>2026-04-26T10:30:15.925Z</time></trkpt><trkpt lat="45.5904839" lon="10.8465624"><ele>102.0</ele><time>2026-04-26T10:30:16.924Z</time></trkpt><trkpt lat="45.5905789" lon="10.8465912"><ele>102.0</ele><time>2026-04-26T10:30:18.924Z</time></trkpt><trkpt lat="45.59063" lon="10.8466709"><ele>102.19999999999999</ele><time>2026-04-26T10:30:33.925Z</time></trkpt><trkpt lat="45.5906034" lon="10.8467901"><ele>102.4</ele><time>2026-04-26T10:30:35.925Z</time></trkpt><trkpt lat="45.5905906" lon="10.8468876"><ele>102.6</ele><time>2026-04-26T10:30:36.925Z</time></trkpt><trkpt lat="45.5905683" lon="10.8470246"><ele>102.80000000000001</ele><time>2026-04-26T10:30:37.924Z</time></trkpt><trkpt lat="45.5905319" lon="10.8471555"><ele>103.0</ele><time>2026-04-26T10:30:38.925Z</time></trkpt><trkpt lat="45.5904976" lon="10.8472849"><ele>103.0</ele><time>2026-04-26T10:30:39.924Z</time></trkpt><trkpt lat="45.5904573" lon="10.8474134"><ele>103.0</ele><time>2026-04-26T10:30:40.925Z</time></trkpt><trkpt lat="45.5904162" lon="10.8475391"><ele>103.0</ele><time>2026-04-26T10:30:41.924Z</time></trkpt><trkpt lat="45.5903782" lon="10.8476545"><ele>103.0</ele><time>2026-04-26T10:30:42.924Z</time></trkpt><trkpt lat="45.5903385" lon="10.8477718"><ele>103.0</ele><time>2026-04-26T10:30:43.925Z</time></trkpt><trkpt lat="45.5902993" lon="10.84787"><ele>103.0</ele><time>2026-04-26T10:30:44.925Z</time></trkpt><trkpt lat="45.5902108" lon="10.8479169"><ele>103.0</ele><time>2026-04-26T10:30:46.925Z</time></trkpt><trkpt lat="45.590126" lon="10.8478791"><ele>103.0</ele><time>2026-04-26T10:30:47.923Z</time></trkpt><trkpt lat="45.5900296" lon="10.8478058"><ele>103.0</ele><time>2026-04-26T10:30:48.924Z</time></trkpt><trkpt lat="45.5898997" lon="10.8477221"><ele>103.0</ele><time>2026-04-26T10:30:49.925Z</time></trkpt><trkpt lat="45.5897513" lon="10.8476269"><ele>103.0</ele><time>2026-04-26T10:30:50.924Z</time></trkpt><trkpt lat="45.5895821" lon="10.8475365"><ele>103.0</ele><time>2026-04-26T10:30:51.923Z</time></trkpt><trkpt lat="45.5894072" lon="10.8474549"><ele>103.0</ele><time>2026-04-26T10:30:52.923Z</time></trkpt><trkpt lat="45.5892468" lon="10.8473759"><ele>104.4</ele><time>2026-04-26T10:30:53.924Z</time></trkpt><trkpt lat="45.5891003" lon="10.8472975"><ele>105.80000000000001</ele><time>2026-04-26T10:30:54.924Z</time></trkpt><trkpt lat="45.588985" lon="10.8472257"><ele>107.2</ele><time>2026-04-26T10:30:55.923Z</time></trkpt><trkpt lat="45.5888938" lon="10.8471646"><ele>108.6</ele><time>2026-04-26T10:30:56.923Z</time></trkpt><trkpt lat="45.5888339" lon="10.8471322"><ele>110.0</ele><time>2026-04-26T10:30:57.924Z</time></trkpt><trkpt lat="45.588744" lon="10.8471067"><ele>109.99999999999999</ele><time>2026-04-26T10:30:59.923Z</time></trkpt><trkpt lat="45.5886436" lon="10.847108"><ele>110.0</ele><time>2026-04-26T10:31:01.924Z</time></trkpt><trkpt lat="45.5887239" lon="10.8471816"><ele>110.0</ele><time>2026-04-26T10:31:06.924Z</time></trkpt><trkpt lat="45.5887894" lon="10.8472689"><ele>110.0</ele><time>2026-04-26T10:31:08.924Z</time></trkpt><trkpt lat="45.5888417" lon="10.8473273"><ele>109.99999999999999</ele><time>2026-04-26T10:31:09.924Z</time></trkpt><trkpt lat="45.5889162" lon="10.847371"><ele>110.0</ele><time>2026-04-26T10:31:10.924Z</time></trkpt><trkpt lat="45.5890193" lon="10.8474186"><ele>110.0</ele><time>2026-04-26T10:31:11.924Z</time></trkpt><trkpt lat="45.5891365" lon="10.8474766"><ele>110.0</ele><time>2026-04-26T10:31:12.923Z</time></trkpt><trkpt lat="45.5892361" lon="10.8475224"><ele>110.0</ele><time>2026-04-26T10:31:13.923Z</time></trkpt><trkpt lat="45.5893199" lon="10.8475615"><ele>110.0</ele><time>2026-04-26T10:31:14.924Z</time></trkpt><trkpt lat="45.5893949" lon="10.8476012"><ele>110.0</ele><time>2026-04-26T10:31:15.924Z</time></trkpt><trkpt lat="45.5894636" lon="10.8476626"><ele>110.2</ele><time>2026-04-26T10:31:16.924Z</time></trkpt><trkpt lat="45.5895464" lon="10.8477233"><ele>110.4</ele><time>2026-04-26T10:31:17.923Z</time></trkpt><trkpt lat="45.5896476" lon="10.8477805"><ele>110.6</ele><time>2026-04-26T10:31:18.924Z</time></trkpt><trkpt lat="45.5897514" lon="10.8478435"><ele>110.8</ele><time>2026-04-26T10:31:19.923Z</time></trkpt><trkpt lat="45.5898604" lon="10.847912"><ele>111.0</ele><time>2026-04-26T10:31:20.924Z</time></trkpt><trkpt lat="45.5899677" lon="10.8479799"><ele>111.0</ele><time>2026-04-26T10:31:21.924Z</time></trkpt><trkpt lat="45.59007" lon="10.8480583"><ele>111.0</ele><time>2026-04-26T10:31:22.924Z</time></trkpt><trkpt lat="45.5901622" lon="10.8481395"><ele>111.0</ele><time>2026-04-26T10:31:23.924Z</time></trkpt><trkpt lat="45.5902432" lon="10.8482241"><ele>111.0</ele><time>2026-04-26T10:31:24.923Z</time></trkpt><trkpt lat="45.5903034" lon="10.8482954"><ele>111.0</ele><time>2026-04-26T10:31:25.923Z</time></trkpt><trkpt lat="45.5903764" lon="10.8484"><ele>111.0</ele><time>2026-04-26T10:31:27.923Z</time></trkpt><trkpt lat="45.5903509" lon="10.8484845"><ele>111.0</ele><time>2026-04-26T10:31:30.924Z</time></trkpt><trkpt lat="45.5902947" lon="10.8484249"><ele>111.0</ele><time>2026-04-26T10:31:36.923Z</time></trkpt><trkpt lat="45.5901848" lon="10.8482925"><ele>111.0</ele><time>2026-04-26T10:31:38.924Z</time></trkpt><trkpt lat="45.5901096" lon="10.8482112"><ele>111.0</ele><time>2026-04-26T10:31:39.923Z</time></trkpt><trkpt lat="45.5900237" lon="10.8481244"><ele>111.0</ele><time>2026-04-26T10:31:40.924Z</time></trkpt><trkpt lat="45.5899284" lon="10.8480559"><ele>111.0</ele><time>2026-04-26T10:31:41.924Z</time></trkpt><trkpt lat="45.5898133" lon="10.8479892"><ele>111.0</ele><time>2026-04-26T10:31:42.924Z</time></trkpt><trkpt lat="45.5896929" lon="10.8479174"><ele>111.0</ele><time>2026-04-26T10:31:43.924Z</time></trkpt><trkpt lat="45.589564" lon="10.847838"><ele>110.66666666666666</ele><time>2026-04-26T10:31:44.923Z</time></trkpt><trkpt lat="45.5894262" lon="10.8477537"><ele>110.33333333333333</ele><time>2026-04-26T10:31:45.923Z</time></trkpt><trkpt lat="45.5892823" lon="10.8476735"><ele>110.0</ele><time>2026-04-26T10:31:46.924Z</time></trkpt><trkpt lat="45.5891353" lon="10.8475998"><ele>110.0</ele><time>2026-04-26T10:31:47.924Z</time></trkpt><trkpt lat="45.5889858" lon="10.8475346"><ele>110.0</ele><time>2026-04-26T10:31:48.923Z</time></trkpt><trkpt lat="45.5888353" lon="10.8474746"><ele>110.0</ele><time>2026-04-26T10:31:49.923Z</time></trkpt><trkpt lat="45.5886842" lon="10.8474176"><ele>112.66666666666666</ele><time>2026-04-26T10:31:50.924Z</time></trkpt><trkpt lat="45.5885347" lon="10.8473559"><ele>115.33333333333334</ele><time>2026-04-26T10:31:51.924Z</time></trkpt><trkpt lat="45.5883864" lon="10.8472842"><ele>118.0</ele><time>2026-04-26T10:31:52.924Z</time></trkpt><trkpt lat="45.5882413" lon="10.8471999"><ele>118.0</ele><time>2026-04-26T10:31:53.924Z</time></trkpt><trkpt lat="45.5881004" lon="10.8471028"><ele>118.0</ele><time>2026-04-26T10:31:54.924Z</time></trkpt><trkpt lat="45.5879635" lon="10.8469956"><ele>118.0</ele><time>2026-04-26T10:31:55.924Z</time></trkpt><trkpt lat="45.5878259" lon="10.8468899"><ele>116.33333333333334</ele><time>2026-04-26T10:31:56.924Z</time></trkpt><trkpt lat="45.5876885" lon="10.8467858"><ele>114.66666666666666</ele><time>2026-04-26T10:31:57.924Z</time></trkpt><trkpt lat="45.5875518" lon="10.84668"><ele>113.0</ele><time>2026-04-26T10:31:58.924Z</time></trkpt><trkpt lat="45.5874157" lon="10.8465725"><ele>113.0</ele><time>2026-04-26T10:31:59.924Z</time></trkpt><trkpt lat="45.5872802" lon="10.8464603"><ele>113.0</ele><time>2026-04-26T10:32:00.924Z</time></trkpt><trkpt lat="45.5871462" lon="10.8463422"><ele>113.0</ele><time>2026-04-26T10:32:01.923Z</time></trkpt><trkpt lat="45.5870127" lon="10.8462232"><ele>112.0</ele><time>2026-04-26T10:32:02.924Z</time></trkpt><trkpt lat="45.5868811" lon="10.8461033"><ele>111.0</ele><time>2026-04-26T10:32:03.924Z</time></trkpt><trkpt lat="45.5867467" lon="10.8459821"><ele>110.0</ele><time>2026-04-26T10:32:04.924Z</time></trkpt><trkpt lat="45.5866131" lon="10.8458593"><ele>110.0</ele><time>2026-04-26T10:32:05.924Z</time></trkpt><trkpt lat="45.5864842" lon="10.8457317"><ele>110.0</ele><time>2026-04-26T10:32:06.923Z</time></trkpt><trkpt lat="45.5863554" lon="10.845602"><ele>110.0</ele><time>2026-04-26T10:32:07.924Z</time></trkpt><trkpt lat="45.5862238" lon="10.8454749"><ele>110.33333333333333</ele><time>2026-04-26T10:32:08.923Z</time></trkpt><trkpt lat="45.5860897" lon="10.8453516"><ele>110.66666666666666</ele><time>2026-04-26T10:32:09.924Z</time></trkpt><trkpt lat="45.5859526" lon="10.8452313"><ele>111.0</ele><time>2026-04-26T10:32:10.923Z</time></trkpt><trkpt lat="45.5858158" lon="10.8451038"><ele>111.0</ele><time>2026-04-26T10:32:11.924Z</time></trkpt><trkpt lat="45.5856801" lon="10.8449747"><ele>111.0</ele><time>2026-04-26T10:32:12.923Z</time></trkpt><trkpt lat="45.5855475" lon="10.8448417"><ele>111.0</ele><time>2026-04-26T10:32:13.923Z</time></trkpt><trkpt lat="45.5854131" lon="10.8447046"><ele>111.33333333333334</ele><time>2026-04-26T10:32:14.924Z</time></trkpt><trkpt lat="45.58528" lon="10.8445658"><ele>111.66666666666667</ele><time>2026-04-26T10:32:15.924Z</time></trkpt><trkpt lat="45.5851446" lon="10.8444252"><ele>112.0</ele><time>2026-04-26T10:32:16.924Z</time></trkpt><trkpt lat="45.5850099" lon="10.8442842"><ele>112.0</ele><time>2026-04-26T10:32:17.924Z</time></trkpt><trkpt lat="45.5848772" lon="10.8441459"><ele>112.0</ele><time>2026-04-26T10:32:18.923Z</time></trkpt><trkpt lat="45.5847457" lon="10.844008"><ele>112.0</ele><time>2026-04-26T10:32:19.923Z</time></trkpt><trkpt lat="45.5846137" lon="10.8438729"><ele>114.66666666666667</ele><time>2026-04-26T10:32:20.924Z</time></trkpt><trkpt lat="45.5844861" lon="10.8437323"><ele>117.33333333333334</ele><time>2026-04-26T10:32:21.924Z</time></trkpt><trkpt lat="45.5843648" lon="10.8435789"><ele>120.0</ele><time>2026-04-26T10:32:22.924Z</time></trkpt><trkpt lat="45.5842496" lon="10.8434144"><ele>120.0</ele><time>2026-04-26T10:32:23.923Z</time></trkpt><trkpt lat="45.5841382" lon="10.843246"><ele>120.0</ele><time>2026-04-26T10:32:24.924Z</time></trkpt><trkpt lat="45.5840333" lon="10.8430695"><ele>120.0</ele><time>2026-04-26T10:32:25.923Z</time></trkpt><trkpt lat="45.5839294" lon="10.8428919"><ele>120.0</ele><time>2026-04-26T10:32:26.924Z</time></trkpt><trkpt lat="45.5838235" lon="10.8427161"><ele>120.0</ele><time>2026-04-26T10:32:27.923Z</time></trkpt><trkpt lat="45.5837188" lon="10.8425376"><ele>120.0</ele><time>2026-04-26T10:32:28.924Z</time></trkpt><trkpt lat="45.583612" lon="10.8423588"><ele>123.0</ele><time>2026-04-26T10:32:29.924Z</time></trkpt><trkpt lat="45.5835046" lon="10.8421802"><ele>126.0</ele><time>2026-04-26T10:32:30.924Z</time></trkpt><trkpt lat="45.5833997" lon="10.8419999"><ele>129.0</ele><time>2026-04-26T10:32:31.923Z</time></trkpt><trkpt lat="45.5832964" lon="10.8418212"><ele>122.66666666666666</ele><time>2026-04-26T10:32:32.923Z</time></trkpt><trkpt lat="45.5831956" lon="10.8416444"><ele>116.33333333333333</ele><time>2026-04-26T10:32:33.924Z</time></trkpt><trkpt lat="45.5830972" lon="10.8414638"><ele>110.0</ele><time>2026-04-26T10:32:34.923Z</time></trkpt><trkpt lat="45.5830039" lon="10.841278"><ele>110.0</ele><time>2026-04-26T10:32:35.924Z</time></trkpt><trkpt lat="45.5829128" lon="10.8410874"><ele>110.0</ele><time>2026-04-26T10:32:36.924Z</time></trkpt><trkpt lat="45.5828231" lon="10.8408994"><ele>110.0</ele><time>2026-04-26T10:32:37.924Z</time></trkpt><trkpt lat="45.5827347" lon="10.8407096"><ele>110.66666666666666</ele><time>2026-04-26T10:32:38.923Z</time></trkpt><trkpt lat="45.5826474" lon="10.8405215"><ele>111.33333333333334</ele><time>2026-04-26T10:32:39.924Z</time></trkpt><trkpt lat="45.5825667" lon="10.8403265"><ele>112.0</ele><time>2026-04-26T10:32:40.924Z</time></trkpt><trkpt lat="45.5824922" lon="10.8401262"><ele>112.0</ele><time>2026-04-26T10:32:41.923Z</time></trkpt><trkpt lat="45.5824244" lon="10.8399243"><ele>112.0</ele><time>2026-04-26T10:32:42.924Z</time></trkpt><trkpt lat="45.5823588" lon="10.8397164"><ele>112.0</ele><time>2026-04-26T10:32:43.924Z</time></trkpt><trkpt lat="45.5822893" lon="10.8395088"><ele>110.0</ele><time>2026-04-26T10:32:44.923Z</time></trkpt><trkpt lat="45.582219" lon="10.8392968"><ele>108.0</ele><time>2026-04-26T10:32:45.924Z</time></trkpt><trkpt lat="45.5821488" lon="10.8390865"><ele>106.0</ele><time>2026-04-26T10:32:46.923Z</time></trkpt><trkpt lat="45.5820798" lon="10.8388749"><ele>109.66666666666667</ele><time>2026-04-26T10:32:47.924Z</time></trkpt><trkpt lat="45.582011" lon="10.8386634"><ele>113.33333333333334</ele><time>2026-04-26T10:32:48.923Z</time></trkpt><trkpt lat="45.5819422" lon="10.8384508"><ele>117.0</ele><time>2026-04-26T10:32:49.924Z</time></trkpt><trkpt lat="45.5818745" lon="10.8382388"><ele>117.0</ele><time>2026-04-26T10:32:50.924Z</time></trkpt><trkpt lat="45.5818043" lon="10.8380315"><ele>117.0</ele><time>2026-04-26T10:32:51.924Z</time></trkpt><trkpt lat="45.5817355" lon="10.8378241"><ele>117.0</ele><time>2026-04-26T10:32:52.923Z</time></trkpt><trkpt lat="45.5816672" lon="10.8376205"><ele>113.66666666666666</ele><time>2026-04-26T10:32:53.923Z</time></trkpt><trkpt lat="45.5816013" lon="10.8374171"><ele>110.33333333333333</ele><time>2026-04-26T10:32:54.924Z</time></trkpt><trkpt lat="45.5815329" lon="10.8372144"><ele>107.0</ele><time>2026-04-26T10:32:55.924Z</time></trkpt><trkpt lat="45.5814652" lon="10.83701"><ele>107.0</ele><time>2026-04-26T10:32:56.924Z</time></trkpt><trkpt lat="45.5813993" lon="10.8368087"><ele>107.0</ele><time>2026-04-26T10:32:57.923Z</time></trkpt><trkpt lat="45.5813364" lon="10.8366072"><ele>107.0</ele><time>2026-04-26T10:32:58.923Z</time></trkpt><trkpt lat="45.5812705" lon="10.8364085"><ele>106.0</ele><time>2026-04-26T10:32:59.924Z</time></trkpt><trkpt lat="45.5812021" lon="10.8362094"><ele>105.0</ele><time>2026-04-26T10:33:00.924Z</time></trkpt><trkpt lat="45.5811334" lon="10.8360077"><ele>104.0</ele><time>2026-04-26T10:33:01.924Z</time></trkpt><trkpt lat="45.5810641" lon="10.8358107"><ele>104.0</ele><time>2026-04-26T10:33:02.923Z</time></trkpt><trkpt lat="45.5809981" lon="10.8356163"><ele>104.0</ele><time>2026-04-26T10:33:03.923Z</time></trkpt><trkpt lat="45.5809274" lon="10.835425"><ele>104.0</ele><time>2026-04-26T10:33:04.923Z</time></trkpt><trkpt lat="45.5808536" lon="10.835227"><ele>103.66666666666666</ele><time>2026-04-26T10:33:05.923Z</time></trkpt><trkpt lat="45.5807736" lon="10.8350356"><ele>103.33333333333334</ele><time>2026-04-26T10:33:06.924Z</time></trkpt><trkpt lat="45.5806872" lon="10.834847"><ele>103.0</ele><time>2026-04-26T10:33:07.924Z</time></trkpt><trkpt lat="45.5806063" lon="10.8346788"><ele>103.0</ele><time>2026-04-26T10:33:08.924Z</time></trkpt><trkpt lat="45.5805283" lon="10.8345302"><ele>103.0</ele><time>2026-04-26T10:33:09.923Z</time></trkpt><trkpt lat="45.5804534" lon="10.8343989"><ele>103.0</ele><time>2026-04-26T10:33:10.923Z</time></trkpt><trkpt lat="45.5803865" lon="10.8342818"><ele>103.0</ele><time>2026-04-26T10:33:11.923Z</time></trkpt><trkpt lat="45.5803205" lon="10.8341764"><ele>102.83333333333334</ele><time>2026-04-26T10:33:12.923Z</time></trkpt><trkpt lat="45.5802598" lon="10.8340842"><ele>102.66666666666667</ele><time>2026-04-26T10:33:13.924Z</time></trkpt><trkpt lat="45.5802023" lon="10.8340009"><ele>102.5</ele><time>2026-04-26T10:33:14.923Z</time></trkpt><trkpt lat="45.5801492" lon="10.8339328"><ele>102.33333333333334</ele><time>2026-04-26T10:33:15.924Z</time></trkpt><trkpt lat="45.5800813" lon="10.8338381"><ele>102.16666666666667</ele><time>2026-04-26T10:33:17.924Z</time></trkpt><trkpt lat="45.5801312" lon="10.8339637"><ele>102.0</ele><time>2026-04-26T10:33:24.923Z</time></trkpt><trkpt lat="45.5801968" lon="10.8340438"><ele>102.0</ele><time>2026-04-26T10:33:25.924Z</time></trkpt><trkpt lat="45.5802671" lon="10.8341555"><ele>102.0</ele><time>2026-04-26T10:33:26.923Z</time></trkpt><trkpt lat="45.5803408" lon="10.8342846"><ele>102.0</ele><time>2026-04-26T10:33:27.923Z</time></trkpt><trkpt lat="45.5804256" lon="10.8344262"><ele>102.0</ele><time>2026-04-26T10:33:28.924Z</time></trkpt><trkpt lat="45.5805162" lon="10.8345745"><ele>102.25</ele><time>2026-04-26T10:33:29.924Z</time></trkpt><trkpt lat="45.5806066" lon="10.8347358"><ele>102.5</ele><time>2026-04-26T10:33:30.923Z</time></trkpt><trkpt lat="45.580687" lon="10.8348978"><ele>102.75</ele><time>2026-04-26T10:33:31.924Z</time></trkpt><trkpt lat="45.5807548" lon="10.8350592"><ele>103.0</ele><time>2026-04-26T10:33:32.923Z</time></trkpt><trkpt lat="45.5808227" lon="10.8352245"><ele>103.16666666666667</ele><time>2026-04-26T10:33:33.924Z</time></trkpt><trkpt lat="45.5808837" lon="10.8353759"><ele>103.33333333333334</ele><time>2026-04-26T10:33:34.924Z</time></trkpt><trkpt lat="45.580931" lon="10.8355073"><ele>103.5</ele><time>2026-04-26T10:33:35.923Z</time></trkpt><trkpt lat="45.5809649" lon="10.8355913"><ele>103.66666666666666</ele><time>2026-04-26T10:33:36.924Z</time></trkpt><trkpt lat="45.581044" lon="10.8355785"><ele>103.83333333333333</ele><time>2026-04-26T10:33:42.923Z</time></trkpt><trkpt lat="45.5810998" lon="10.8355041"><ele>104.0</ele><time>2026-04-26T10:33:44.923Z</time></trkpt><trkpt lat="45.5811673" lon="10.8354432"><ele>103.83333333333333</ele><time>2026-04-26T10:33:45.924Z</time></trkpt><trkpt lat="45.5812038" lon="10.8353374"><ele>103.66666666666666</ele><time>2026-04-26T10:33:47.924Z</time></trkpt><trkpt lat="45.5811888" lon="10.8352491"><ele>103.5</ele><time>2026-04-26T10:33:48.924Z</time></trkpt><trkpt lat="45.5811667" lon="10.8351367"><ele>103.33333333333334</ele><time>2026-04-26T10:33:49.924Z</time></trkpt><trkpt lat="45.5811411" lon="10.835"><ele>103.16666666666667</ele><time>2026-04-26T10:33:50.923Z</time></trkpt><trkpt lat="45.5811133" lon="10.8348633"><ele>103.0</ele><time>2026-04-26T10:33:51.923Z</time></trkpt><trkpt lat="45.5810933" lon="10.8347078"><ele>103.0</ele><time>2026-04-26T10:33:52.924Z</time></trkpt><trkpt lat="45.5810778" lon="10.8345375"><ele>103.0</ele><time>2026-04-26T10:33:53.923Z</time></trkpt><trkpt lat="45.5810676" lon="10.8343637"><ele>103.0</ele><time>2026-04-26T10:33:54.924Z</time></trkpt><trkpt lat="45.5810596" lon="10.8341809"><ele>103.0</ele><time>2026-04-26T10:33:55.924Z</time></trkpt><trkpt lat="45.5810493" lon="10.8339928"><ele>102.75</ele><time>2026-04-26T10:33:56.924Z</time></trkpt><trkpt lat="45.5810372" lon="10.8338024"><ele>102.5</ele><time>2026-04-26T10:33:57.924Z</time></trkpt><trkpt lat="45.5810269" lon="10.8336074"><ele>102.25</ele><time>2026-04-26T10:33:58.923Z</time></trkpt><trkpt lat="45.5810171" lon="10.8334076"><ele>102.0</ele><time>2026-04-26T10:33:59.923Z</time></trkpt><trkpt lat="45.5810064" lon="10.8332031"><ele>101.25</ele><time>2026-04-26T10:34:00.924Z</time></trkpt><trkpt lat="45.5809954" lon="10.8329962"><ele>100.5</ele><time>2026-04-26T10:34:01.924Z</time></trkpt><trkpt lat="45.5809843" lon="10.8327874"><ele>99.75</ele><time>2026-04-26T10:34:02.923Z</time></trkpt><trkpt lat="45.5809756" lon="10.8325768"><ele>99.0</ele><time>2026-04-26T10:34:03.924Z</time></trkpt><trkpt lat="45.580972" lon="10.8323656"><ele>98.75</ele><time>2026-04-26T10:34:04.923Z</time></trkpt><trkpt lat="45.5809779" lon="10.8321573"><ele>98.5</ele><time>2026-04-26T10:34:05.924Z</time></trkpt><trkpt lat="45.5809883" lon="10.8319511"><ele>98.25</ele><time>2026-04-26T10:34:06.924Z</time></trkpt><trkpt lat="45.581002" lon="10.8317454"><ele>98.0</ele><time>2026-04-26T10:34:07.924Z</time></trkpt><trkpt lat="45.5810154" lon="10.8315379"><ele>98.0</ele><time>2026-04-26T10:34:08.924Z</time></trkpt><trkpt lat="45.5810295" lon="10.8313277"><ele>98.0</ele><time>2026-04-26T10:34:09.924Z</time></trkpt><trkpt lat="45.5810457" lon="10.8311168"><ele>98.0</ele><time>2026-04-26T10:34:10.924Z</time></trkpt><trkpt lat="45.581065" lon="10.8309046"><ele>98.0</ele><time>2026-04-26T10:34:11.924Z</time></trkpt><trkpt lat="45.5810821" lon="10.8306946"><ele>98.0</ele><time>2026-04-26T10:34:12.923Z</time></trkpt><trkpt lat="45.5810995" lon="10.8304955"><ele>98.0</ele><time>2026-04-26T10:34:13.924Z</time></trkpt><trkpt lat="45.5811139" lon="10.8303035"><ele>98.0</ele><time>2026-04-26T10:34:14.924Z</time></trkpt><trkpt lat="45.5811146" lon="10.8301204"><ele>98.0</ele><time>2026-04-26T10:34:15.923Z</time></trkpt><trkpt lat="45.5810877" lon="10.8299556"><ele>98.25</ele><time>2026-04-26T10:34:16.923Z</time></trkpt><trkpt lat="45.5810307" lon="10.8297919"><ele>98.5</ele><time>2026-04-26T10:34:17.924Z</time></trkpt><trkpt lat="45.5809555" lon="10.8296302"><ele>98.75</ele><time>2026-04-26T10:34:18.924Z</time></trkpt><trkpt lat="45.5808752" lon="10.8294626"><ele>99.0</ele><time>2026-04-26T10:34:19.923Z</time></trkpt><trkpt lat="45.5807955" lon="10.8292893"><ele>99.5</ele><time>2026-04-26T10:34:20.924Z</time></trkpt><trkpt lat="45.5807151" lon="10.8291175"><ele>100.0</ele><time>2026-04-26T10:34:21.924Z</time></trkpt><trkpt lat="45.580637" lon="10.8289552"><ele>100.5</ele><time>2026-04-26T10:34:22.924Z</time></trkpt><trkpt lat="45.5805607" lon="10.8287967"><ele>101.0</ele><time>2026-04-26T10:34:23.924Z</time></trkpt><trkpt lat="45.5804774" lon="10.8286622"><ele>101.0</ele><time>2026-04-26T10:34:24.923Z</time></trkpt><trkpt lat="45.5803792" lon="10.8285824"><ele>101.0</ele><time>2026-04-26T10:34:25.924Z</time></trkpt><trkpt lat="45.5802828" lon="10.8285131"><ele>101.0</ele><time>2026-04-26T10:34:26.924Z</time></trkpt><trkpt lat="45.5801974" lon="10.828387"><ele>101.0</ele><time>2026-04-26T10:34:27.923Z</time></trkpt><trkpt lat="45.5801106" lon="10.8282466"><ele>100.75</ele><time>2026-04-26T10:34:28.923Z</time></trkpt><trkpt lat="45.5800149" lon="10.8281059"><ele>100.5</ele><time>2026-04-26T10:34:29.924Z</time></trkpt><trkpt lat="45.5799175" lon="10.8279621"><ele>100.25</ele><time>2026-04-26T10:34:30.923Z</time></trkpt><trkpt lat="45.5798263" lon="10.8278205"><ele>100.0</ele><time>2026-04-26T10:34:31.924Z</time></trkpt><trkpt lat="45.5797539" lon="10.8277017"><ele>100.00000000000001</ele><time>2026-04-26T10:34:32.923Z</time></trkpt><trkpt lat="45.5797065" lon="10.8276199"><ele>100.0</ele><time>2026-04-26T10:34:33.924Z</time></trkpt><trkpt lat="45.5796441" lon="10.8275073"><ele>100.0</ele><time>2026-04-26T10:34:35.924Z</time></trkpt><trkpt lat="45.5797089" lon="10.8276058"><ele>100.0</ele><time>2026-04-26T10:34:41.924Z</time></trkpt><trkpt lat="45.5797869" lon="10.8275943"><ele>100.00000000000001</ele><time>2026-04-26T10:34:43.924Z</time></trkpt><trkpt lat="45.5798475" lon="10.8275205"><ele>100.0</ele><time>2026-04-26T10:34:44.924Z</time></trkpt><trkpt lat="45.5799341" lon="10.827389"><ele>100.0</ele><time>2026-04-26T10:34:45.923Z</time></trkpt><trkpt lat="45.5800237" lon="10.8272419"><ele>100.0</ele><time>2026-04-26T10:34:46.923Z</time></trkpt><trkpt lat="45.5801155" lon="10.8270741"><ele>100.0</ele><time>2026-04-26T10:34:47.924Z</time></trkpt><trkpt lat="45.5802191" lon="10.8268882"><ele>100.0</ele><time>2026-04-26T10:34:48.924Z</time></trkpt><trkpt lat="45.5803342" lon="10.8267013"><ele>100.0</ele><time>2026-04-26T10:34:49.923Z</time></trkpt><trkpt lat="45.5804439" lon="10.8265205"><ele>100.0</ele><time>2026-04-26T10:34:50.924Z</time></trkpt><trkpt lat="45.5805423" lon="10.8263564"><ele>100.0</ele><time>2026-04-26T10:34:51.924Z</time></trkpt><trkpt lat="45.5806476" lon="10.8261829"><ele>100.0</ele><time>2026-04-26T10:34:52.924Z</time></trkpt><trkpt lat="45.5807438" lon="10.8260224"><ele>100.0</ele><time>2026-04-26T10:34:53.924Z</time></trkpt><trkpt lat="45.5808182" lon="10.8258657"><ele>100.0</ele><time>2026-04-26T10:34:54.924Z</time></trkpt><trkpt lat="45.5808919" lon="10.8257169"><ele>99.8</ele><time>2026-04-26T10:34:55.924Z</time></trkpt><trkpt lat="45.5809658" lon="10.825622"><ele>99.6</ele><time>2026-04-26T10:34:56.924Z</time></trkpt><trkpt lat="45.581042" lon="10.8255187"><ele>99.4</ele><time>2026-04-26T10:34:57.924Z</time></trkpt><trkpt lat="45.5811223" lon="10.8253891"><ele>99.2</ele><time>2026-04-26T10:34:58.924Z</time></trkpt><trkpt lat="45.5811943" lon="10.8252514"><ele>99.0</ele><time>2026-04-26T10:34:59.924Z</time></trkpt><trkpt lat="45.5812447" lon="10.8251571"><ele>99.0</ele><time>2026-04-26T10:35:00.923Z</time></trkpt><trkpt lat="45.5812921" lon="10.8250795"><ele>99.0</ele><time>2026-04-26T10:35:01.923Z</time></trkpt><trkpt lat="45.5813153" lon="10.824927"><ele>99.0</ele><time>2026-04-26T10:35:03.924Z</time></trkpt><trkpt lat="45.5812924" lon="10.8248314"><ele>99.0</ele><time>2026-04-26T10:35:04.923Z</time></trkpt><trkpt lat="45.5812303" lon="10.8246937"><ele>99.0</ele><time>2026-04-26T10:35:05.924Z</time></trkpt><trkpt lat="45.5811579" lon="10.8245301"><ele>99.0</ele><time>2026-04-26T10:35:06.923Z</time></trkpt><trkpt lat="45.5810889" lon="10.8243643"><ele>99.0</ele><time>2026-04-26T10:35:07.923Z</time></trkpt><trkpt lat="45.5810098" lon="10.8242168"><ele>99.0</ele><time>2026-04-26T10:35:08.924Z</time></trkpt><trkpt lat="45.5808967" lon="10.8240531"><ele>99.0</ele><time>2026-04-26T10:35:09.924Z</time></trkpt><trkpt lat="45.580798" lon="10.8239186"><ele>99.0</ele><time>2026-04-26T10:35:10.924Z</time></trkpt><trkpt lat="45.5806958" lon="10.8237999"><ele>99.0</ele><time>2026-04-26T10:35:11.924Z</time></trkpt><trkpt lat="45.5805771" lon="10.8237019"><ele>99.0</ele><time>2026-04-26T10:35:12.924Z</time></trkpt><trkpt lat="45.5804347" lon="10.8236207"><ele>99.0</ele><time>2026-04-26T10:35:13.924Z</time></trkpt><trkpt lat="45.5802708" lon="10.8235498"><ele>99.0</ele><time>2026-04-26T10:35:14.924Z</time></trkpt><trkpt lat="45.5800843" lon="10.8234884"><ele>99.0</ele><time>2026-04-26T10:35:15.924Z</time></trkpt><trkpt lat="45.5799218" lon="10.8234269"><ele>99.0</ele><time>2026-04-26T10:35:16.924Z</time></trkpt><trkpt lat="45.5797431" lon="10.8233785"><ele>99.0</ele><time>2026-04-26T10:35:17.923Z</time></trkpt><trkpt lat="45.579549" lon="10.8233323"><ele>99.0</ele><time>2026-04-26T10:35:18.924Z</time></trkpt><trkpt lat="45.5793571" lon="10.8232887"><ele>99.0</ele><time>2026-04-26T10:35:19.924Z</time></trkpt><trkpt lat="45.5792013" lon="10.8232492"><ele>98.25</ele><time>2026-04-26T10:35:20.924Z</time></trkpt><trkpt lat="45.5790644" lon="10.823212"><ele>97.5</ele><time>2026-04-26T10:35:21.925Z</time></trkpt><trkpt lat="45.5789295" lon="10.8231599"><ele>96.75</ele><time>2026-04-26T10:35:22.923Z</time></trkpt><trkpt lat="45.5787942" lon="10.823093"><ele>96.0</ele><time>2026-04-26T10:35:23.923Z</time></trkpt><trkpt lat="45.5786563" lon="10.8230239"><ele>96.0</ele><time>2026-04-26T10:35:24.923Z</time></trkpt><trkpt lat="45.5785075" lon="10.8229296"><ele>96.0</ele><time>2026-04-26T10:35:25.923Z</time></trkpt><trkpt lat="45.5783714" lon="10.8228491"><ele>96.0</ele><time>2026-04-26T10:35:26.924Z</time></trkpt><trkpt lat="45.578252" lon="10.8227823"><ele>96.0</ele><time>2026-04-26T10:35:27.924Z</time></trkpt><trkpt lat="45.5781343" lon="10.8226826"><ele>96.0</ele><time>2026-04-26T10:35:28.924Z</time></trkpt><trkpt lat="45.5779961" lon="10.8225728"><ele>96.0</ele><time>2026-04-26T10:35:29.924Z</time></trkpt><trkpt lat="45.5778409" lon="10.8224672"><ele>96.0</ele><time>2026-04-26T10:35:30.924Z</time></trkpt><trkpt lat="45.5776729" lon="10.8223583"><ele>96.0</ele><time>2026-04-26T10:35:31.924Z</time></trkpt><trkpt lat="45.5775255" lon="10.8222599"><ele>96.0</ele><time>2026-04-26T10:35:32.924Z</time></trkpt><trkpt lat="45.5773872" lon="10.8221905"><ele>96.0</ele><time>2026-04-26T10:35:33.924Z</time></trkpt><trkpt lat="45.5772485" lon="10.8221605"><ele>96.0</ele><time>2026-04-26T10:35:34.923Z</time></trkpt><trkpt lat="45.5770928" lon="10.8221494"><ele>96.0</ele><time>2026-04-26T10:35:35.924Z</time></trkpt><trkpt lat="45.5769449" lon="10.8221113"><ele>96.0</ele><time>2026-04-26T10:35:36.924Z</time></trkpt><trkpt lat="45.5767823" lon="10.8220579"><ele>96.66666666666666</ele><time>2026-04-26T10:35:37.923Z</time></trkpt><trkpt lat="45.5766081" lon="10.8220125"><ele>97.33333333333333</ele><time>2026-04-26T10:35:38.924Z</time></trkpt><trkpt lat="45.5764331" lon="10.8219641"><ele>98.0</ele><time>2026-04-26T10:35:39.924Z</time></trkpt><trkpt lat="45.5762649" lon="10.8219185"><ele>97.66666666666666</ele><time>2026-04-26T10:35:40.924Z</time></trkpt><trkpt lat="45.5761037" lon="10.8218827"><ele>97.33333333333334</ele><time>2026-04-26T10:35:41.924Z</time></trkpt><trkpt lat="45.5759528" lon="10.8218558"><ele>97.0</ele><time>2026-04-26T10:35:42.923Z</time></trkpt><trkpt lat="45.575809" lon="10.821808"><ele>96.33333333333334</ele><time>2026-04-26T10:35:43.923Z</time></trkpt><trkpt lat="45.5756578" lon="10.8217454"><ele>95.66666666666667</ele><time>2026-04-26T10:35:44.924Z</time></trkpt><trkpt lat="45.5754842" lon="10.8216775"><ele>95.0</ele><time>2026-04-26T10:35:45.924Z</time></trkpt><trkpt lat="45.575305" lon="10.8215904"><ele>95.0</ele><time>2026-04-26T10:35:46.924Z</time></trkpt><trkpt lat="45.5751323" lon="10.8215062"><ele>95.0</ele><time>2026-04-26T10:35:47.924Z</time></trkpt><trkpt lat="45.5749854" lon="10.8214378"><ele>95.0</ele><time>2026-04-26T10:35:48.924Z</time></trkpt><trkpt lat="45.5748433" lon="10.8213764"><ele>95.0</ele><time>2026-04-26T10:35:49.924Z</time></trkpt><trkpt lat="45.5746888" lon="10.8213118"><ele>95.0</ele><time>2026-04-26T10:35:50.922Z</time></trkpt><trkpt lat="45.5745285" lon="10.8212739"><ele>95.0</ele><time>2026-04-26T10:35:51.922Z</time></trkpt><trkpt lat="45.5743723" lon="10.821236"><ele>95.66666666666667</ele><time>2026-04-26T10:35:52.923Z</time></trkpt><trkpt lat="45.5742263" lon="10.8211653"><ele>96.33333333333334</ele><time>2026-04-26T10:35:53.923Z</time></trkpt><trkpt lat="45.5740655" lon="10.8210886"><ele>97.0</ele><time>2026-04-26T10:35:54.922Z</time></trkpt><trkpt lat="45.5738984" lon="10.8210201"><ele>97.33333333333334</ele><time>2026-04-26T10:35:55.922Z</time></trkpt><trkpt lat="45.5737329" lon="10.8209383"><ele>97.66666666666666</ele><time>2026-04-26T10:35:56.923Z</time></trkpt><trkpt lat="45.57357" lon="10.8208439"><ele>98.0</ele><time>2026-04-26T10:35:57.923Z</time></trkpt><trkpt lat="45.5734083" lon="10.8207608"><ele>98.0</ele><time>2026-04-26T10:35:58.923Z</time></trkpt><trkpt lat="45.573246" lon="10.820677"><ele>98.0</ele><time>2026-04-26T10:35:59.922Z</time></trkpt><trkpt lat="45.5730872" lon="10.8205813"><ele>98.0</ele><time>2026-04-26T10:36:00.923Z</time></trkpt><trkpt lat="45.5729268" lon="10.8204943"><ele>98.33333333333333</ele><time>2026-04-26T10:36:01.922Z</time></trkpt><trkpt lat="45.5727692" lon="10.8203975"><ele>98.66666666666666</ele><time>2026-04-26T10:36:02.922Z</time></trkpt><trkpt lat="45.5726147" lon="10.8203086"><ele>99.0</ele><time>2026-04-26T10:36:03.923Z</time></trkpt><trkpt lat="45.5724612" lon="10.8202239"><ele>99.0</ele><time>2026-04-26T10:36:04.923Z</time></trkpt><trkpt lat="45.5723231" lon="10.8201518"><ele>99.0</ele><time>2026-04-26T10:36:05.923Z</time></trkpt><trkpt lat="45.5722331" lon="10.8201132"><ele>99.0</ele><time>2026-04-26T10:36:06.922Z</time></trkpt><trkpt lat="45.572161" lon="10.8201053"><ele>99.0</ele><time>2026-04-26T10:36:08.923Z</time></trkpt><trkpt lat="45.572109" lon="10.8202571"><ele>99.0</ele><time>2026-04-26T10:36:10.923Z</time></trkpt><trkpt lat="45.5720794" lon="10.8204185"><ele>99.0</ele><time>2026-04-26T10:36:11.922Z</time></trkpt><trkpt lat="45.5720402" lon="10.820628"><ele>99.0</ele><time>2026-04-26T10:36:12.923Z</time></trkpt><trkpt lat="45.5720014" lon="10.820823"><ele>99.0</ele><time>2026-04-26T10:36:13.922Z</time></trkpt><trkpt lat="45.5719739" lon="10.8209272"><ele>99.0</ele><time>2026-04-26T10:36:14.921Z</time></trkpt><trkpt lat="45.5718794" lon="10.8209877"><ele>98.25</ele><time>2026-04-26T10:36:16.922Z</time></trkpt><trkpt lat="45.5717844" lon="10.8209475"><ele>97.5</ele><time>2026-04-26T10:36:17.922Z</time></trkpt><trkpt lat="45.571663" lon="10.8208799"><ele>96.75</ele><time>2026-04-26T10:36:18.922Z</time></trkpt><trkpt lat="45.571506" lon="10.8208104"><ele>96.0</ele><time>2026-04-26T10:36:19.922Z</time></trkpt><trkpt lat="45.5713293" lon="10.8207397"><ele>95.33333333333333</ele><time>2026-04-26T10:36:20.922Z</time></trkpt><trkpt lat="45.5711333" lon="10.8206573"><ele>94.66666666666666</ele><time>2026-04-26T10:36:21.923Z</time></trkpt><trkpt lat="45.5709421" lon="10.8205839"><ele>94.0</ele><time>2026-04-26T10:36:22.923Z</time></trkpt><trkpt lat="45.5707663" lon="10.8205132"><ele>94.0</ele><time>2026-04-26T10:36:23.923Z</time></trkpt><trkpt lat="45.5705784" lon="10.8204212"><ele>94.0</ele><time>2026-04-26T10:36:24.923Z</time></trkpt><trkpt lat="45.5703749" lon="10.8203308"><ele>94.0</ele><time>2026-04-26T10:36:25.922Z</time></trkpt><trkpt lat="45.5701762" lon="10.8202542"><ele>94.33333333333333</ele><time>2026-04-26T10:36:26.923Z</time></trkpt><trkpt lat="45.5699889" lon="10.8201758"><ele>94.66666666666667</ele><time>2026-04-26T10:36:27.922Z</time></trkpt><trkpt lat="45.5698167" lon="10.8201064"><ele>95.0</ele><time>2026-04-26T10:36:28.923Z</time></trkpt><trkpt lat="45.5696573" lon="10.8200404"><ele>95.0</ele><time>2026-04-26T10:36:29.923Z</time></trkpt><trkpt lat="45.5695271" lon="10.8199853"><ele>95.0</ele><time>2026-04-26T10:36:30.923Z</time></trkpt><trkpt lat="45.569423" lon="10.8199489"><ele>95.0</ele><time>2026-04-26T10:36:31.922Z</time></trkpt><trkpt lat="45.5693483" lon="10.8199425"><ele>95.0</ele><time>2026-04-26T10:36:32.922Z</time></trkpt><trkpt lat="45.5692524" lon="10.8200886"><ele>95.0</ele><time>2026-04-26T10:36:34.923Z</time></trkpt><trkpt lat="45.5692521" lon="10.8202064"><ele>95.0</ele><time>2026-04-26T10:36:35.922Z</time></trkpt><trkpt lat="45.5692969" lon="10.8203276"><ele>95.0</ele><time>2026-04-26T10:36:36.922Z</time></trkpt><trkpt lat="45.5693817" lon="10.8204827"><ele>95.0</ele><time>2026-04-26T10:36:37.922Z</time></trkpt><trkpt lat="45.5694933" lon="10.8206525"><ele>95.0</ele><time>2026-04-26T10:36:38.922Z</time></trkpt><trkpt lat="45.5696106" lon="10.8208595"><ele>95.0</ele><time>2026-04-26T10:36:39.922Z</time></trkpt><trkpt lat="45.5697073" lon="10.8210589"><ele>95.0</ele><time>2026-04-26T10:36:40.923Z</time></trkpt><trkpt lat="45.569782" lon="10.8212399"><ele>95.5</ele><time>2026-04-26T10:36:41.922Z</time></trkpt><trkpt lat="45.5698382" lon="10.8214173"><ele>96.0</ele><time>2026-04-26T10:36:42.923Z</time></trkpt><trkpt lat="45.5698946" lon="10.8216226"><ele>96.5</ele><time>2026-04-26T10:36:43.922Z</time></trkpt><trkpt lat="45.5699314" lon="10.821813"><ele>97.0</ele><time>2026-04-26T10:36:44.923Z</time></trkpt><trkpt lat="45.5699523" lon="10.8219644"><ele>97.19999999999999</ele><time>2026-04-26T10:36:45.923Z</time></trkpt><trkpt lat="45.569973" lon="10.8220866"><ele>97.4</ele><time>2026-04-26T10:36:46.923Z</time></trkpt><trkpt lat="45.5700068" lon="10.8221953"><ele>97.6</ele><time>2026-04-26T10:36:48.923Z</time></trkpt><trkpt lat="45.5701241" lon="10.8222671"><ele>97.80000000000001</ele><time>2026-04-26T10:37:14.921Z</time></trkpt><trkpt lat="45.5702294" lon="10.822321"><ele>98.0</ele><time>2026-04-26T10:37:15.922Z</time></trkpt><trkpt lat="45.5703668" lon="10.8223959"><ele>98.0</ele><time>2026-04-26T10:37:16.923Z</time></trkpt><trkpt lat="45.5705267" lon="10.8224859"><ele>98.0</ele><time>2026-04-26T10:37:17.923Z</time></trkpt><trkpt lat="45.5707112" lon="10.8225862"><ele>98.0</ele><time>2026-04-26T10:37:18.923Z</time></trkpt><trkpt lat="45.5708922" lon="10.8226835"><ele>100.0</ele><time>2026-04-26T10:37:19.923Z</time></trkpt><trkpt lat="45.5710652" lon="10.8227809"><ele>102.0</ele><time>2026-04-26T10:37:20.922Z</time></trkpt><trkpt lat="45.5712436" lon="10.8228797"><ele>104.0</ele><time>2026-04-26T10:37:21.922Z</time></trkpt><trkpt lat="45.5714066" lon="10.8229724"><ele>104.0</ele><time>2026-04-26T10:37:22.922Z</time></trkpt><trkpt lat="45.5715468" lon="10.8230456"><ele>104.0</ele><time>2026-04-26T10:37:23.922Z</time></trkpt><trkpt lat="45.5716798" lon="10.8231045"><ele>104.0</ele><time>2026-04-26T10:37:24.923Z</time></trkpt><trkpt lat="45.5718257" lon="10.823161"><ele>104.0</ele><time>2026-04-26T10:37:25.921Z</time></trkpt><trkpt lat="45.5719564" lon="10.8232069"><ele>103.2</ele><time>2026-04-26T10:37:26.923Z</time></trkpt><trkpt lat="45.5720469" lon="10.823237"><ele>102.4</ele><time>2026-04-26T10:37:27.922Z</time></trkpt><trkpt lat="45.5721375" lon="10.8233008"><ele>101.6</ele><time>2026-04-26T10:37:29.923Z</time></trkpt><trkpt lat="45.5722052" lon="10.82345"><ele>100.8</ele><time>2026-04-26T10:37:31.923Z</time></trkpt><trkpt lat="45.5722208" lon="10.8235589"><ele>100.0</ele><time>2026-04-26T10:37:32.923Z</time></trkpt><trkpt lat="45.5722038" lon="10.8236523"><ele>100.0</ele><time>2026-04-26T10:37:33.923Z</time></trkpt><trkpt lat="45.5721586" lon="10.8237544"><ele>100.0</ele><time>2026-04-26T10:37:34.923Z</time></trkpt><trkpt lat="45.5720981" lon="10.8238781"><ele>100.0</ele><time>2026-04-26T10:37:35.922Z</time></trkpt><trkpt lat="45.57205" lon="10.8240162"><ele>100.0</ele><time>2026-04-26T10:37:36.923Z</time></trkpt><trkpt lat="45.5720122" lon="10.8241456"><ele>100.0</ele><time>2026-04-26T10:37:37.922Z</time></trkpt><trkpt lat="45.5719981" lon="10.8242515"><ele>101.83333333333334</ele><time>2026-04-26T10:37:38.922Z</time></trkpt><trkpt lat="45.5720036" lon="10.8243547"><ele>103.66666666666667</ele><time>2026-04-26T10:37:39.923Z</time></trkpt><trkpt lat="45.5719706" lon="10.8244653"><ele>105.5</ele><time>2026-04-26T10:37:42.923Z</time></trkpt><trkpt lat="45.5718958" lon="10.8244281"><ele>107.33333333333334</ele><time>2026-04-26T10:37:46.922Z</time></trkpt><trkpt lat="45.5718725" lon="10.8243376"><ele>109.16666666666667</ele><time>2026-04-26T10:37:49.923Z</time></trkpt><trkpt lat="45.5718948" lon="10.8242165"><ele>111.0</ele><time>2026-04-26T10:37:51.923Z</time></trkpt><trkpt lat="45.5719311" lon="10.824099"><ele>111.0</ele><time>2026-04-26T10:37:53.922Z</time></trkpt><trkpt lat="45.5719408" lon="10.8239599"><ele>111.0</ele><time>2026-04-26T10:37:55.922Z</time></trkpt><trkpt lat="45.5719048" lon="10.8238643"><ele>111.0</ele><time>2026-04-26T10:37:57.923Z</time></trkpt><trkpt lat="45.5718194" lon="10.8238384"><ele>111.0</ele><time>2026-04-26T10:37:59.923Z</time></trkpt><trkpt lat="45.5717461" lon="10.8239021"><ele>111.0</ele><time>2026-04-26T10:38:01.922Z</time></trkpt><trkpt lat="45.5717234" lon="10.8240321"><ele>111.0</ele><time>2026-04-26T10:38:03.922Z</time></trkpt><trkpt lat="45.5717166" lon="10.8242086"><ele>111.0</ele><time>2026-04-26T10:38:05.923Z</time></trkpt><trkpt lat="45.5717186" lon="10.8242993"><ele>111.0</ele><time>2026-04-26T10:38:06.922Z</time></trkpt><trkpt lat="45.5717327" lon="10.8244002"><ele>111.0</ele><time>2026-04-26T10:38:07.923Z</time></trkpt><trkpt lat="45.5717545" lon="10.8245136"><ele>111.0</ele><time>2026-04-26T10:38:08.923Z</time></trkpt><trkpt lat="45.5717755" lon="10.8246294"><ele>111.0</ele><time>2026-04-26T10:38:09.922Z</time></trkpt><trkpt lat="45.571794" lon="10.8247473"><ele>111.0</ele><time>2026-04-26T10:38:10.923Z</time></trkpt><trkpt lat="45.5718112" lon="10.8248612"><ele>111.66666666666667</ele><time>2026-04-26T10:38:11.923Z</time></trkpt><trkpt lat="45.571828" lon="10.8249696"><ele>112.33333333333334</ele><time>2026-04-26T10:38:12.922Z</time></trkpt><trkpt lat="45.5718423" lon="10.8250749"><ele>113.0</ele><time>2026-04-26T10:38:13.922Z</time></trkpt><trkpt lat="45.5718575" lon="10.8251721"><ele>113.66666666666667</ele><time>2026-04-26T10:38:14.922Z</time></trkpt><trkpt lat="45.5718707" lon="10.8252841"><ele>114.33333333333334</ele><time>2026-04-26T10:38:16.923Z</time></trkpt><trkpt lat="45.5717933" lon="10.8253662"><ele>115.0</ele><time>2026-04-26T10:38:19.923Z</time></trkpt><trkpt lat="45.5717304" lon="10.8253763"><ele>115.6</ele><time>2026-04-26T10:38:20.923Z</time></trkpt><trkpt lat="45.5716426" lon="10.8253975"><ele>116.2</ele><time>2026-04-26T10:38:21.922Z</time></trkpt><trkpt lat="45.5715416" lon="10.8254301"><ele>116.80000000000001</ele><time>2026-04-26T10:38:22.922Z</time></trkpt><trkpt lat="45.57143" lon="10.8254623"><ele>117.4</ele><time>2026-04-26T10:38:23.923Z</time></trkpt><trkpt lat="45.5713088" lon="10.8254943"><ele>118.0</ele><time>2026-04-26T10:38:24.922Z</time></trkpt><trkpt lat="45.5711841" lon="10.8255357"><ele>118.0</ele><time>2026-04-26T10:38:25.923Z</time></trkpt><trkpt lat="45.5710581" lon="10.8255756"><ele>118.0</ele><time>2026-04-26T10:38:26.923Z</time></trkpt><trkpt lat="45.5709247" lon="10.8256177"><ele>118.0</ele><time>2026-04-26T10:38:27.923Z</time></trkpt><trkpt lat="45.5707892" lon="10.8256517"><ele>118.0</ele><time>2026-04-26T10:38:28.923Z</time></trkpt><trkpt lat="45.5706643" lon="10.8256968"><ele>118.0</ele><time>2026-04-26T10:38:29.923Z</time></trkpt><trkpt lat="45.5705566" lon="10.8257583"><ele>118.0</ele><time>2026-04-26T10:38:30.922Z</time></trkpt><trkpt lat="45.5704505" lon="10.8258176"><ele>118.0</ele><time>2026-04-26T10:38:31.923Z</time></trkpt><trkpt lat="45.5703375" lon="10.8258685"><ele>118.0</ele><time>2026-04-26T10:38:32.923Z</time></trkpt><trkpt lat="45.5702262" lon="10.8259216"><ele>119.75</ele><time>2026-04-26T10:38:33.922Z</time></trkpt><trkpt lat="45.5701134" lon="10.8259801"><ele>121.5</ele><time>2026-04-26T10:38:34.922Z</time></trkpt><trkpt lat="45.5700045" lon="10.8260529"><ele>123.25</ele><time>2026-04-26T10:38:35.923Z</time></trkpt><trkpt lat="45.5698986" lon="10.8261422"><ele>125.0</ele><time>2026-04-26T10:38:36.923Z</time></trkpt><trkpt lat="45.5697987" lon="10.826247"><ele>125.0</ele><time>2026-04-26T10:38:37.923Z</time></trkpt><trkpt lat="45.5697039" lon="10.8263561"><ele>125.0</ele><time>2026-04-26T10:38:38.923Z</time></trkpt><trkpt lat="45.569621" lon="10.826454"><ele>125.0</ele><time>2026-04-26T10:38:39.923Z</time></trkpt><trkpt lat="45.5695466" lon="10.826524"><ele>125.0</ele><time>2026-04-26T10:38:40.922Z</time></trkpt><trkpt lat="45.5694632" lon="10.8265734"><ele>125.0</ele><time>2026-04-26T10:38:41.923Z</time></trkpt><trkpt lat="45.5693606" lon="10.8266174"><ele>124.5</ele><time>2026-04-26T10:38:42.923Z</time></trkpt><trkpt lat="45.569248" lon="10.8266628"><ele>124.0</ele><time>2026-04-26T10:38:43.923Z</time></trkpt><trkpt lat="45.569125" lon="10.8267119"><ele>123.5</ele><time>2026-04-26T10:38:44.923Z</time></trkpt><trkpt lat="45.5689945" lon="10.8267608"><ele>123.0</ele><time>2026-04-26T10:38:45.923Z</time></trkpt><trkpt lat="45.568858" lon="10.8268035"><ele>132.5</ele><time>2026-04-26T10:38:46.923Z</time></trkpt><trkpt lat="45.5687167" lon="10.8268393"><ele>142.0</ele><time>2026-04-26T10:38:47.922Z</time></trkpt><trkpt lat="45.5685726" lon="10.8268633"><ele>151.5</ele><time>2026-04-26T10:38:48.923Z</time></trkpt><trkpt lat="45.56843" lon="10.826878"><ele>161.0</ele><time>2026-04-26T10:38:49.922Z</time></trkpt><trkpt lat="45.5682828" lon="10.8268813"><ele>162.25</ele><time>2026-04-26T10:38:50.923Z</time></trkpt><trkpt lat="45.5681352" lon="10.826854"><ele>163.5</ele><time>2026-04-26T10:38:51.923Z</time></trkpt><trkpt lat="45.5679959" lon="10.8267905"><ele>164.75</ele><time>2026-04-26T10:38:52.923Z</time></trkpt><trkpt lat="45.5678638" lon="10.8266938"><ele>166.0</ele><time>2026-04-26T10:38:53.922Z</time></trkpt><trkpt lat="45.567728" lon="10.8266001"><ele>166.0</ele><time>2026-04-26T10:38:54.923Z</time></trkpt><trkpt lat="45.5675818" lon="10.8265313"><ele>166.0</ele><time>2026-04-26T10:38:55.922Z</time></trkpt><trkpt lat="45.5674306" lon="10.826475"><ele>166.0</ele><time>2026-04-26T10:38:56.923Z</time></trkpt><trkpt lat="45.5672781" lon="10.8264304"><ele>166.0</ele><time>2026-04-26T10:38:57.923Z</time></trkpt><trkpt lat="45.5671239" lon="10.8263932"><ele>166.0</ele><time>2026-04-26T10:38:58.922Z</time></trkpt><trkpt lat="45.566968" lon="10.8263572"><ele>166.0</ele><time>2026-04-26T10:38:59.922Z</time></trkpt><trkpt lat="45.5668119" lon="10.8263241"><ele>191.0</ele><time>2026-04-26T10:39:00.923Z</time></trkpt><trkpt lat="45.5666535" lon="10.8262917"><ele>216.0</ele><time>2026-04-26T10:39:01.923Z</time></trkpt><trkpt lat="45.5664944" lon="10.8262584"><ele>241.0</ele><time>2026-04-26T10:39:02.921Z</time></trkpt><trkpt lat="45.5663356" lon="10.8262292"><ele>234.0</ele><time>2026-04-26T10:39:03.922Z</time></trkpt><trkpt lat="45.566175" lon="10.8261996"><ele>227.0</ele><time>2026-04-26T10:39:04.923Z</time></trkpt><trkpt lat="45.5660117" lon="10.8261706"><ele>220.0</ele><time>2026-04-26T10:39:05.922Z</time></trkpt><trkpt lat="45.5658507" lon="10.8261361"><ele>220.0</ele><time>2026-04-26T10:39:06.923Z</time></trkpt><trkpt lat="45.5656887" lon="10.826102"><ele>220.0</ele><time>2026-04-26T10:39:07.922Z</time></trkpt><trkpt lat="45.5655264" lon="10.8260657"><ele>220.0</ele><time>2026-04-26T10:39:08.922Z</time></trkpt><trkpt lat="45.565368" lon="10.8260332"><ele>216.33333333333331</ele><time>2026-04-26T10:39:09.922Z</time></trkpt><trkpt lat="45.5652129" lon="10.8259995"><ele>212.66666666666669</ele><time>2026-04-26T10:39:10.922Z</time></trkpt><trkpt lat="45.565062" lon="10.8259697"><ele>209.0</ele><time>2026-04-26T10:39:11.923Z</time></trkpt><trkpt lat="45.5649084" lon="10.82594"><ele>191.0</ele><time>2026-04-26T10:39:12.922Z</time></trkpt><trkpt lat="45.5647627" lon="10.8259156"><ele>173.0</ele><time>2026-04-26T10:39:13.922Z</time></trkpt><trkpt lat="45.564617" lon="10.8258933"><ele>155.0</ele><time>2026-04-26T10:39:14.923Z</time></trkpt><trkpt lat="45.5644734" lon="10.8258751"><ele>137.0</ele><time>2026-04-26T10:39:15.923Z</time></trkpt><trkpt lat="45.5643347" lon="10.8258679"><ele>130.75</ele><time>2026-04-26T10:39:16.923Z</time></trkpt><trkpt lat="45.5641967" lon="10.8258722"><ele>124.5</ele><time>2026-04-26T10:39:17.923Z</time></trkpt><trkpt lat="45.564061" lon="10.8258809"><ele>118.25</ele><time>2026-04-26T10:39:18.923Z</time></trkpt><trkpt lat="45.5639265" lon="10.8258937"><ele>112.0</ele><time>2026-04-26T10:39:19.923Z</time></trkpt><trkpt lat="45.5637941" lon="10.825918"><ele>110.75</ele><time>2026-04-26T10:39:20.923Z</time></trkpt><trkpt lat="45.5636574" lon="10.8259579"><ele>109.5</ele><time>2026-04-26T10:39:21.922Z</time></trkpt><trkpt lat="45.5635222" lon="10.8260103"><ele>108.25</ele><time>2026-04-26T10:39:22.923Z</time></trkpt><trkpt lat="45.5633919" lon="10.8260764"><ele>107.0</ele><time>2026-04-26T10:39:23.923Z</time></trkpt><trkpt lat="45.563265" lon="10.8261569"><ele>105.0</ele><time>2026-04-26T10:39:24.923Z</time></trkpt><trkpt lat="45.5631404" lon="10.8262472"><ele>103.0</ele><time>2026-04-26T10:39:25.923Z</time></trkpt><trkpt lat="45.563021" lon="10.8263475"><ele>101.0</ele><time>2026-04-26T10:39:26.923Z</time></trkpt><trkpt lat="45.5629077" lon="10.8264565"><ele>99.0</ele><time>2026-04-26T10:39:27.923Z</time></trkpt><trkpt lat="45.562802" lon="10.8265769"><ele>99.0</ele><time>2026-04-26T10:39:28.922Z</time></trkpt><trkpt lat="45.5627053" lon="10.8267087"><ele>99.0</ele><time>2026-04-26T10:39:29.923Z</time></trkpt><trkpt lat="45.5626113" lon="10.8268595"><ele>99.0</ele><time>2026-04-26T10:39:30.923Z</time></trkpt><trkpt lat="45.5625222" lon="10.8270102"><ele>99.0</ele><time>2026-04-26T10:39:31.923Z</time></trkpt><trkpt lat="45.5624319" lon="10.8271591"><ele>98.5</ele><time>2026-04-26T10:39:32.923Z</time></trkpt><trkpt lat="45.5623389" lon="10.8273047"><ele>98.0</ele><time>2026-04-26T10:39:33.923Z</time></trkpt><trkpt lat="45.5622441" lon="10.8274475"><ele>97.5</ele><time>2026-04-26T10:39:34.923Z</time></trkpt><trkpt lat="45.5621396" lon="10.8275802"><ele>97.0</ele><time>2026-04-26T10:39:35.922Z</time></trkpt><trkpt lat="45.5620287" lon="10.8277027"><ele>102.25</ele><time>2026-04-26T10:39:36.923Z</time></trkpt><trkpt lat="45.5619126" lon="10.8278113"><ele>107.5</ele><time>2026-04-26T10:39:37.923Z</time></trkpt><trkpt lat="45.5617974" lon="10.8279211"><ele>112.75</ele><time>2026-04-26T10:39:38.923Z</time></trkpt><trkpt lat="45.5616873" lon="10.8280414"><ele>118.0</ele><time>2026-04-26T10:39:39.922Z</time></trkpt><trkpt lat="45.5615797" lon="10.8281638"><ele>118.0</ele><time>2026-04-26T10:39:40.923Z</time></trkpt><trkpt lat="45.5614751" lon="10.8282888"><ele>118.0</ele><time>2026-04-26T10:39:41.923Z</time></trkpt><trkpt lat="45.561373" lon="10.8284133"><ele>118.0</ele><time>2026-04-26T10:39:42.923Z</time></trkpt><trkpt lat="45.5612678" lon="10.8285393"><ele>118.0</ele><time>2026-04-26T10:39:43.923Z</time></trkpt><trkpt lat="45.561164" lon="10.8286675"><ele>118.0</ele><time>2026-04-26T10:39:44.922Z</time></trkpt><trkpt lat="45.561062" lon="10.8288018"><ele>118.0</ele><time>2026-04-26T10:39:45.923Z</time></trkpt><trkpt lat="45.5609642" lon="10.8289476"><ele>118.0</ele><time>2026-04-26T10:39:46.923Z</time></trkpt><trkpt lat="45.56087" lon="10.8291007"><ele>118.0</ele><time>2026-04-26T10:39:47.923Z</time></trkpt><trkpt lat="45.5607831" lon="10.8292589"><ele>118.0</ele><time>2026-04-26T10:39:48.923Z</time></trkpt><trkpt lat="45.5606989" lon="10.8294165"><ele>118.0</ele><time>2026-04-26T10:39:49.922Z</time></trkpt><trkpt lat="45.5606178" lon="10.8295748"><ele>118.0</ele><time>2026-04-26T10:39:50.922Z</time></trkpt><trkpt lat="45.5605403" lon="10.8297339"><ele>118.0</ele><time>2026-04-26T10:39:51.923Z</time></trkpt><trkpt lat="45.5604632" lon="10.8298953"><ele>118.0</ele><time>2026-04-26T10:39:52.923Z</time></trkpt><trkpt lat="45.560385" lon="10.8300523"><ele>118.0</ele><time>2026-04-26T10:39:53.923Z</time></trkpt><trkpt lat="45.5602981" lon="10.8301989"><ele>118.0</ele><time>2026-04-26T10:39:54.923Z</time></trkpt><trkpt lat="45.560195" lon="10.8303229"><ele>118.0</ele><time>2026-04-26T10:39:55.923Z</time></trkpt><trkpt lat="45.5600805" lon="10.8304263"><ele>118.0</ele><time>2026-04-26T10:39:56.922Z</time></trkpt><trkpt lat="45.5599602" lon="10.8305211"><ele>118.0</ele><time>2026-04-26T10:39:57.922Z</time></trkpt><trkpt lat="45.5598442" lon="10.8306247"><ele>118.0</ele><time>2026-04-26T10:39:58.922Z</time></trkpt><trkpt lat="45.5597188" lon="10.8307155"><ele>118.0</ele><time>2026-04-26T10:39:59.922Z</time></trkpt><trkpt lat="45.5595927" lon="10.8308096"><ele>138.25</ele><time>2026-04-26T10:40:00.923Z</time></trkpt><trkpt lat="45.5594668" lon="10.8309033"><ele>158.5</ele><time>2026-04-26T10:40:01.922Z</time></trkpt><trkpt lat="45.5593377" lon="10.8309938"><ele>178.75</ele><time>2026-04-26T10:40:02.923Z</time></trkpt><trkpt lat="45.5592097" lon="10.8310803"><ele>199.0</ele><time>2026-04-26T10:40:03.923Z</time></trkpt><trkpt lat="45.5590779" lon="10.831161"><ele>199.0</ele><time>2026-04-26T10:40:04.923Z</time></trkpt><trkpt lat="45.5589464" lon="10.8312369"><ele>199.0</ele><time>2026-04-26T10:40:05.922Z</time></trkpt><trkpt lat="45.5588124" lon="10.8313106"><ele>199.0</ele><time>2026-04-26T10:40:06.922Z</time></trkpt><trkpt lat="45.5586818" lon="10.8313828"><ele>199.0</ele><time>2026-04-26T10:40:07.922Z</time></trkpt><trkpt lat="45.5585506" lon="10.8314556"><ele>204.0</ele><time>2026-04-26T10:40:08.923Z</time></trkpt><trkpt lat="45.5584217" lon="10.8315249"><ele>209.0</ele><time>2026-04-26T10:40:09.923Z</time></trkpt><trkpt lat="45.5582905" lon="10.8315841"><ele>214.0</ele><time>2026-04-26T10:40:10.922Z</time></trkpt><trkpt lat="45.5581565" lon="10.8316355"><ele>219.0</ele><time>2026-04-26T10:40:11.923Z</time></trkpt><trkpt lat="45.5580213" lon="10.8316786"><ele>219.0</ele><time>2026-04-26T10:40:12.923Z</time></trkpt><trkpt lat="45.5578861" lon="10.8317119"><ele>219.0</ele><time>2026-04-26T10:40:13.922Z</time></trkpt><trkpt lat="45.5577457" lon="10.8317319"><ele>219.0</ele><time>2026-04-26T10:40:14.923Z</time></trkpt><trkpt lat="45.5576041" lon="10.8317352"><ele>219.0</ele><time>2026-04-26T10:40:15.923Z</time></trkpt><trkpt lat="45.557463" lon="10.8317163"><ele>210.25</ele><time>2026-04-26T10:40:16.922Z</time></trkpt><trkpt lat="45.5573267" lon="10.8316839"><ele>201.5</ele><time>2026-04-26T10:40:17.922Z</time></trkpt><trkpt lat="45.557191" lon="10.8316468"><ele>192.75</ele><time>2026-04-26T10:40:18.923Z</time></trkpt><trkpt lat="45.5570556" lon="10.8316105"><ele>184.0</ele><time>2026-04-26T10:40:19.922Z</time></trkpt><trkpt lat="45.5569172" lon="10.8315781"><ele>184.0</ele><time>2026-04-26T10:40:20.922Z</time></trkpt><trkpt lat="45.5567771" lon="10.83155"><ele>184.0</ele><time>2026-04-26T10:40:21.922Z</time></trkpt><trkpt lat="45.5566363" lon="10.8315228"><ele>184.0</ele><time>2026-04-26T10:40:22.924Z</time></trkpt><trkpt lat="45.5564949" lon="10.831498"><ele>184.0</ele><time>2026-04-26T10:40:23.922Z</time></trkpt><trkpt lat="45.5563522" lon="10.831467"><ele>184.0</ele><time>2026-04-26T10:40:24.923Z</time></trkpt><trkpt lat="45.5562112" lon="10.8314279"><ele>184.0</ele><time>2026-04-26T10:40:25.923Z</time></trkpt><trkpt lat="45.5560743" lon="10.8313781"><ele>184.0</ele><time>2026-04-26T10:40:26.922Z</time></trkpt><trkpt lat="45.5559373" lon="10.8313133"><ele>184.0</ele><time>2026-04-26T10:40:27.922Z</time></trkpt><trkpt lat="45.5558029" lon="10.8312348"><ele>197.0</ele><time>2026-04-26T10:40:28.922Z</time></trkpt><trkpt lat="45.5556726" lon="10.8311437"><ele>210.0</ele><time>2026-04-26T10:40:29.922Z</time></trkpt><trkpt lat="45.5555501" lon="10.8310379"><ele>223.0</ele><time>2026-04-26T10:40:30.923Z</time></trkpt><trkpt lat="45.5554312" lon="10.8309196"><ele>236.0</ele><time>2026-04-26T10:40:31.923Z</time></trkpt><trkpt lat="45.5553168" lon="10.8307996"><ele>200.25</ele><time>2026-04-26T10:40:32.922Z</time></trkpt><trkpt lat="45.5551999" lon="10.8306783"><ele>164.5</ele><time>2026-04-26T10:40:33.922Z</time></trkpt><trkpt lat="45.5550794" lon="10.8305636"><ele>128.75</ele><time>2026-04-26T10:40:34.923Z</time></trkpt><trkpt lat="45.5549543" lon="10.8304546"><ele>93.0</ele><time>2026-04-26T10:40:35.922Z</time></trkpt><trkpt lat="45.5548276" lon="10.8303483"><ele>93.0</ele><time>2026-04-26T10:40:36.921Z</time></trkpt><trkpt lat="45.5546973" lon="10.8302449"><ele>93.0</ele><time>2026-04-26T10:40:37.922Z</time></trkpt><trkpt lat="45.5545629" lon="10.830148"><ele>93.0</ele><time>2026-04-26T10:40:38.922Z</time></trkpt><trkpt lat="45.554425" lon="10.8300615"><ele>95.66666666666666</ele><time>2026-04-26T10:40:39.921Z</time></trkpt><trkpt lat="45.5542832" lon="10.829984"><ele>98.33333333333333</ele><time>2026-04-26T10:40:40.922Z</time></trkpt><trkpt lat="45.5541402" lon="10.8299097"><ele>101.0</ele><time>2026-04-26T10:40:41.921Z</time></trkpt><trkpt lat="45.5539955" lon="10.82984"><ele>101.0</ele><time>2026-04-26T10:40:42.921Z</time></trkpt><trkpt lat="45.5538504" lon="10.8297774"><ele>101.0</ele><time>2026-04-26T10:40:43.922Z</time></trkpt><trkpt lat="45.5537031" lon="10.8297225"><ele>101.0</ele><time>2026-04-26T10:40:44.922Z</time></trkpt><trkpt lat="45.553555" lon="10.8296723"><ele>104.25</ele><time>2026-04-26T10:40:45.921Z</time></trkpt><trkpt lat="45.5534081" lon="10.8296179"><ele>107.5</ele><time>2026-04-26T10:40:46.921Z</time></trkpt><trkpt lat="45.5532673" lon="10.829551"><ele>110.75</ele><time>2026-04-26T10:40:47.922Z</time></trkpt><trkpt lat="45.5531305" lon="10.8294702"><ele>114.0</ele><time>2026-04-26T10:40:48.921Z</time></trkpt><trkpt lat="45.5529998" lon="10.8293751"><ele>111.5</ele><time>2026-04-26T10:40:49.921Z</time></trkpt><trkpt lat="45.5528741" lon="10.8292721"><ele>109.0</ele><time>2026-04-26T10:40:50.922Z</time></trkpt><trkpt lat="45.5527507" lon="10.8291654"><ele>106.5</ele><time>2026-04-26T10:40:51.922Z</time></trkpt><trkpt lat="45.5526251" lon="10.8290537"><ele>104.0</ele><time>2026-04-26T10:40:52.921Z</time></trkpt><trkpt lat="45.5525019" lon="10.8289353"><ele>104.0</ele><time>2026-04-26T10:40:53.922Z</time></trkpt><trkpt lat="45.5523837" lon="10.8288084"><ele>104.0</ele><time>2026-04-26T10:40:54.921Z</time></trkpt><trkpt lat="45.5522723" lon="10.8286795"><ele>104.0</ele><time>2026-04-26T10:40:55.921Z</time></trkpt><trkpt lat="45.5521625" lon="10.8285509"><ele>104.0</ele><time>2026-04-26T10:40:56.922Z</time></trkpt><trkpt lat="45.5520541" lon="10.8284232"><ele>108.5</ele><time>2026-04-26T10:40:57.921Z</time></trkpt><trkpt lat="45.5519452" lon="10.8282998"><ele>113.0</ele><time>2026-04-26T10:40:58.922Z</time></trkpt><trkpt lat="45.5518351" lon="10.8281793"><ele>117.5</ele><time>2026-04-26T10:40:59.922Z</time></trkpt><trkpt lat="45.5517255" lon="10.8280622"><ele>122.0</ele><time>2026-04-26T10:41:00.922Z</time></trkpt><trkpt lat="45.5516195" lon="10.8279396"><ele>122.0</ele><time>2026-04-26T10:41:01.922Z</time></trkpt><trkpt lat="45.5515222" lon="10.8278039"><ele>122.0</ele><time>2026-04-26T10:41:02.921Z</time></trkpt><trkpt lat="45.5514329" lon="10.8276577"><ele>122.0</ele><time>2026-04-26T10:41:03.921Z</time></trkpt><trkpt lat="45.5513472" lon="10.8275089"><ele>122.0</ele><time>2026-04-26T10:41:04.921Z</time></trkpt><trkpt lat="45.5512613" lon="10.8273603"><ele>117.25</ele><time>2026-04-26T10:41:05.922Z</time></trkpt><trkpt lat="45.5511729" lon="10.8272144"><ele>112.5</ele><time>2026-04-26T10:41:06.922Z</time></trkpt><trkpt lat="45.551083" lon="10.8270709"><ele>107.75</ele><time>2026-04-26T10:41:07.921Z</time></trkpt><trkpt lat="45.5509932" lon="10.8269261"><ele>103.0</ele><time>2026-04-26T10:41:08.922Z</time></trkpt><trkpt lat="45.5509056" lon="10.8267751"><ele>100.25</ele><time>2026-04-26T10:41:09.922Z</time></trkpt><trkpt lat="45.550818" lon="10.8266235"><ele>97.5</ele><time>2026-04-26T10:41:10.922Z</time></trkpt><trkpt lat="45.5507307" lon="10.8264726"><ele>94.75</ele><time>2026-04-26T10:41:11.922Z</time></trkpt><trkpt lat="45.5506439" lon="10.8263212"><ele>92.0</ele><time>2026-04-26T10:41:12.922Z</time></trkpt><trkpt lat="45.5505571" lon="10.8261748"><ele>92.0</ele><time>2026-04-26T10:41:13.922Z</time></trkpt><trkpt lat="45.5504708" lon="10.8260324"><ele>92.0</ele><time>2026-04-26T10:41:14.921Z</time></trkpt><trkpt lat="45.5503835" lon="10.8258847"><ele>92.0</ele><time>2026-04-26T10:41:15.922Z</time></trkpt><trkpt lat="45.5502929" lon="10.8257358"><ele>92.0</ele><time>2026-04-26T10:41:16.921Z</time></trkpt><trkpt lat="45.550199" lon="10.8255856"><ele>92.25</ele><time>2026-04-26T10:41:17.922Z</time></trkpt><trkpt lat="45.5501016" lon="10.8254363"><ele>92.5</ele><time>2026-04-26T10:41:18.922Z</time></trkpt><trkpt lat="45.549999" lon="10.8252924"><ele>92.75</ele><time>2026-04-26T10:41:19.922Z</time></trkpt><trkpt lat="45.5498903" lon="10.8251561"><ele>93.0</ele><time>2026-04-26T10:41:20.921Z</time></trkpt><trkpt lat="45.5497793" lon="10.8250236"><ele>93.0</ele><time>2026-04-26T10:41:21.922Z</time></trkpt><trkpt lat="45.5496665" lon="10.824893"><ele>93.0</ele><time>2026-04-26T10:41:22.922Z</time></trkpt><trkpt lat="45.5495526" lon="10.8247657"><ele>93.0</ele><time>2026-04-26T10:41:23.921Z</time></trkpt><trkpt lat="45.5494387" lon="10.8246427"><ele>93.0</ele><time>2026-04-26T10:41:24.922Z</time></trkpt><trkpt lat="45.5493262" lon="10.8245246"><ele>93.75</ele><time>2026-04-26T10:41:25.921Z</time></trkpt><trkpt lat="45.5492127" lon="10.8244068"><ele>94.5</ele><time>2026-04-26T10:41:26.922Z</time></trkpt><trkpt lat="45.5491041" lon="10.8242905"><ele>95.25</ele><time>2026-04-26T10:41:27.921Z</time></trkpt><trkpt lat="45.5489979" lon="10.8241729"><ele>96.0</ele><time>2026-04-26T10:41:28.922Z</time></trkpt><trkpt lat="45.5488909" lon="10.8240599"><ele>96.0</ele><time>2026-04-26T10:41:29.92Z</time></trkpt><trkpt lat="45.5487795" lon="10.8239496"><ele>96.0</ele><time>2026-04-26T10:41:30.922Z</time></trkpt><trkpt lat="45.5486627" lon="10.8238431"><ele>96.0</ele><time>2026-04-26T10:41:31.921Z</time></trkpt><trkpt lat="45.5485414" lon="10.8237445"><ele>96.0</ele><time>2026-04-26T10:41:32.922Z</time></trkpt><trkpt lat="45.5484174" lon="10.8236534"><ele>96.0</ele><time>2026-04-26T10:41:33.921Z</time></trkpt><trkpt lat="45.5482926" lon="10.8235672"><ele>96.0</ele><time>2026-04-26T10:41:34.921Z</time></trkpt><trkpt lat="45.5481686" lon="10.8234902"><ele>96.0</ele><time>2026-04-26T10:41:35.922Z</time></trkpt><trkpt lat="45.5480427" lon="10.8234205"><ele>96.0</ele><time>2026-04-26T10:41:36.922Z</time></trkpt><trkpt lat="45.5479137" lon="10.8233592"><ele>96.75</ele><time>2026-04-26T10:41:37.922Z</time></trkpt><trkpt lat="45.5477807" lon="10.823304"><ele>97.5</ele><time>2026-04-26T10:41:38.922Z</time></trkpt><trkpt lat="45.5476448" lon="10.8232521"><ele>98.25</ele><time>2026-04-26T10:41:39.921Z</time></trkpt><trkpt lat="45.5475056" lon="10.8232029"><ele>99.0</ele><time>2026-04-26T10:41:40.922Z</time></trkpt><trkpt lat="45.5473637" lon="10.8231608"><ele>99.0</ele><time>2026-04-26T10:41:41.922Z</time></trkpt><trkpt lat="45.5472203" lon="10.823125"><ele>99.0</ele><time>2026-04-26T10:41:42.921Z</time></trkpt><trkpt lat="45.5470771" lon="10.8230973"><ele>99.0</ele><time>2026-04-26T10:41:43.922Z</time></trkpt><trkpt lat="45.5469335" lon="10.8230794"><ele>99.0</ele><time>2026-04-26T10:41:44.922Z</time></trkpt><trkpt lat="45.5467888" lon="10.8230651"><ele>100.25</ele><time>2026-04-26T10:41:45.921Z</time></trkpt><trkpt lat="45.5466445" lon="10.8230521"><ele>101.5</ele><time>2026-04-26T10:41:46.921Z</time></trkpt><trkpt lat="45.5465031" lon="10.8230386"><ele>102.75</ele><time>2026-04-26T10:41:47.921Z</time></trkpt><trkpt lat="45.5463624" lon="10.8230251"><ele>104.0</ele><time>2026-04-26T10:41:48.922Z</time></trkpt><trkpt lat="45.5462228" lon="10.8230121"><ele>104.0</ele><time>2026-04-26T10:41:49.921Z</time></trkpt><trkpt lat="45.5460836" lon="10.823"><ele>104.0</ele><time>2026-04-26T10:41:50.921Z</time></trkpt><trkpt lat="45.5459442" lon="10.822989"><ele>104.0</ele><time>2026-04-26T10:41:51.922Z</time></trkpt><trkpt lat="45.5458062" lon="10.8229767"><ele>104.0</ele><time>2026-04-26T10:41:52.922Z</time></trkpt><trkpt lat="45.5456672" lon="10.8229682"><ele>104.0</ele><time>2026-04-26T10:41:53.922Z</time></trkpt><trkpt lat="45.5455283" lon="10.8229588"><ele>104.0</ele><time>2026-04-26T10:41:54.922Z</time></trkpt><trkpt lat="45.5453889" lon="10.8229477"><ele>104.0</ele><time>2026-04-26T10:41:55.922Z</time></trkpt><trkpt lat="45.5452502" lon="10.8229353"><ele>104.0</ele><time>2026-04-26T10:41:56.922Z</time></trkpt><trkpt lat="45.5451108" lon="10.8229244"><ele>104.5</ele><time>2026-04-26T10:41:57.921Z</time></trkpt><trkpt lat="45.5449714" lon="10.8229137"><ele>105.0</ele><time>2026-04-26T10:41:58.921Z</time></trkpt><trkpt lat="45.5448308" lon="10.8229042"><ele>105.5</ele><time>2026-04-26T10:41:59.922Z</time></trkpt><trkpt lat="45.5446904" lon="10.822895"><ele>106.0</ele><time>2026-04-26T10:42:00.922Z</time></trkpt><trkpt lat="45.5445507" lon="10.8228846"><ele>106.75</ele><time>2026-04-26T10:42:01.922Z</time></trkpt><trkpt lat="45.5444109" lon="10.8228724"><ele>107.5</ele><time>2026-04-26T10:42:02.922Z</time></trkpt><trkpt lat="45.5442701" lon="10.8228611"><ele>108.25</ele><time>2026-04-26T10:42:03.921Z</time></trkpt><trkpt lat="45.5441281" lon="10.8228507"><ele>109.0</ele><time>2026-04-26T10:42:04.922Z</time></trkpt><trkpt lat="45.543986" lon="10.8228397"><ele>109.0</ele><time>2026-04-26T10:42:05.922Z</time></trkpt><trkpt lat="45.5438449" lon="10.8228268"><ele>109.0</ele><time>2026-04-26T10:42:06.922Z</time></trkpt><trkpt lat="45.5437036" lon="10.8228132"><ele>109.0</ele><time>2026-04-26T10:42:07.922Z</time></trkpt><trkpt lat="45.5435624" lon="10.8228005"><ele>109.0</ele><time>2026-04-26T10:42:08.922Z</time></trkpt><trkpt lat="45.5434221" lon="10.8227868"><ele>109.25</ele><time>2026-04-26T10:42:09.922Z</time></trkpt><trkpt lat="45.5432826" lon="10.8227727"><ele>109.5</ele><time>2026-04-26T10:42:10.922Z</time></trkpt><trkpt lat="45.543146" lon="10.8227603"><ele>109.75</ele><time>2026-04-26T10:42:11.922Z</time></trkpt><trkpt lat="45.5430108" lon="10.8227475"><ele>110.0</ele><time>2026-04-26T10:42:12.922Z</time></trkpt><trkpt lat="45.5428734" lon="10.8227318"><ele>110.25</ele><time>2026-04-26T10:42:13.921Z</time></trkpt><trkpt lat="45.5427325" lon="10.8227112"><ele>110.5</ele><time>2026-04-26T10:42:14.922Z</time></trkpt><trkpt lat="45.5425906" lon="10.8226824"><ele>110.75</ele><time>2026-04-26T10:42:15.922Z</time></trkpt><trkpt lat="45.5424492" lon="10.8226461"><ele>111.0</ele><time>2026-04-26T10:42:16.922Z</time></trkpt><trkpt lat="45.5423077" lon="10.8226008"><ele>111.25</ele><time>2026-04-26T10:42:17.922Z</time></trkpt><trkpt lat="45.5421704" lon="10.8225502"><ele>111.5</ele><time>2026-04-26T10:42:18.921Z</time></trkpt><trkpt lat="45.5420333" lon="10.8224911"><ele>111.75</ele><time>2026-04-26T10:42:19.92Z</time></trkpt><trkpt lat="45.5419006" lon="10.8224258"><ele>112.0</ele><time>2026-04-26T10:42:20.921Z</time></trkpt><trkpt lat="45.5417675" lon="10.8223563"><ele>112.25</ele><time>2026-04-26T10:42:21.922Z</time></trkpt><trkpt lat="45.541634" lon="10.8222867"><ele>112.5</ele><time>2026-04-26T10:42:22.922Z</time></trkpt><trkpt lat="45.5414985" lon="10.8222134"><ele>112.75</ele><time>2026-04-26T10:42:23.922Z</time></trkpt><trkpt lat="45.5413661" lon="10.8221403"><ele>113.0</ele><time>2026-04-26T10:42:24.922Z</time></trkpt><trkpt lat="45.5412349" lon="10.8220697"><ele>113.25</ele><time>2026-04-26T10:42:25.922Z</time></trkpt><trkpt lat="45.5411043" lon="10.8219998"><ele>113.5</ele><time>2026-04-26T10:42:26.921Z</time></trkpt><trkpt lat="45.5409739" lon="10.8219306"><ele>113.75</ele><time>2026-04-26T10:42:27.922Z</time></trkpt><trkpt lat="45.5408437" lon="10.8218635"><ele>114.0</ele><time>2026-04-26T10:42:28.922Z</time></trkpt><trkpt lat="45.5407161" lon="10.8217995"><ele>114.25</ele><time>2026-04-26T10:42:29.922Z</time></trkpt><trkpt lat="45.5405898" lon="10.8217365"><ele>114.5</ele><time>2026-04-26T10:42:30.922Z</time></trkpt><trkpt lat="45.5404648" lon="10.8216731"><ele>114.75</ele><time>2026-04-26T10:42:31.921Z</time></trkpt><trkpt lat="45.5403403" lon="10.8216091"><ele>115.0</ele><time>2026-04-26T10:42:32.922Z</time></trkpt><trkpt lat="45.5402147" lon="10.8215439"><ele>114.25</ele><time>2026-04-26T10:42:33.922Z</time></trkpt><trkpt lat="45.540089" lon="10.8214766"><ele>113.5</ele><time>2026-04-26T10:42:34.921Z</time></trkpt><trkpt lat="45.5399637" lon="10.8214075"><ele>112.75</ele><time>2026-04-26T10:42:35.922Z</time></trkpt><trkpt lat="45.5398365" lon="10.8213384"><ele>112.0</ele><time>2026-04-26T10:42:36.921Z</time></trkpt><trkpt lat="45.5397061" lon="10.8212715"><ele>112.0</ele><time>2026-04-26T10:42:37.921Z</time></trkpt><trkpt lat="45.5395739" lon="10.8212043"><ele>112.0</ele><time>2026-04-26T10:42:38.922Z</time></trkpt><trkpt lat="45.5394398" lon="10.8211342"><ele>112.0</ele><time>2026-04-26T10:42:39.92Z</time></trkpt><trkpt lat="45.5393025" lon="10.8210653"><ele>112.0</ele><time>2026-04-26T10:42:40.921Z</time></trkpt><trkpt lat="45.5391639" lon="10.8209934"><ele>111.66666666666667</ele><time>2026-04-26T10:42:41.922Z</time></trkpt><trkpt lat="45.5390241" lon="10.820918"><ele>111.33333333333334</ele><time>2026-04-26T10:42:42.922Z</time></trkpt><trkpt lat="45.538884" lon="10.8208393"><ele>111.0</ele><time>2026-04-26T10:42:43.921Z</time></trkpt><trkpt lat="45.5387454" lon="10.8207557"><ele>111.0</ele><time>2026-04-26T10:42:44.922Z</time></trkpt><trkpt lat="45.5386077" lon="10.820665"><ele>111.0</ele><time>2026-04-26T10:42:45.92Z</time></trkpt><trkpt lat="45.5384721" lon="10.8205713"><ele>111.0</ele><time>2026-04-26T10:42:46.921Z</time></trkpt><trkpt lat="45.5383405" lon="10.8204745"><ele>111.0</ele><time>2026-04-26T10:42:47.922Z</time></trkpt><trkpt lat="45.5382091" lon="10.8203767"><ele>111.0</ele><time>2026-04-26T10:42:48.922Z</time></trkpt><trkpt lat="45.5380763" lon="10.8202754"><ele>111.0</ele><time>2026-04-26T10:42:49.921Z</time></trkpt><trkpt lat="45.5379423" lon="10.8201733"><ele>111.66666666666666</ele><time>2026-04-26T10:42:50.922Z</time></trkpt><trkpt lat="45.5378072" lon="10.8200725"><ele>112.33333333333333</ele><time>2026-04-26T10:42:51.921Z</time></trkpt><trkpt lat="45.5376712" lon="10.8199726"><ele>113.0</ele><time>2026-04-26T10:42:52.922Z</time></trkpt><trkpt lat="45.5375336" lon="10.8198705"><ele>113.0</ele><time>2026-04-26T10:42:53.922Z</time></trkpt><trkpt lat="45.5373947" lon="10.8197723"><ele>113.0</ele><time>2026-04-26T10:42:54.921Z</time></trkpt><trkpt lat="45.5372559" lon="10.8196737"><ele>113.0</ele><time>2026-04-26T10:42:55.921Z</time></trkpt><trkpt lat="45.537117" lon="10.8195753"><ele>112.33333333333333</ele><time>2026-04-26T10:42:56.922Z</time></trkpt><trkpt lat="45.5369783" lon="10.8194803"><ele>111.66666666666666</ele><time>2026-04-26T10:42:57.922Z</time></trkpt><trkpt lat="45.5368399" lon="10.8193868"><ele>111.0</ele><time>2026-04-26T10:42:58.922Z</time></trkpt><trkpt lat="45.536702" lon="10.819295"><ele>111.0</ele><time>2026-04-26T10:42:59.922Z</time></trkpt><trkpt lat="45.5365632" lon="10.8192057"><ele>111.0</ele><time>2026-04-26T10:43:00.922Z</time></trkpt><trkpt lat="45.5364237" lon="10.8191176"><ele>111.0</ele><time>2026-04-26T10:43:01.922Z</time></trkpt><trkpt lat="45.5362851" lon="10.8190293"><ele>110.66666666666666</ele><time>2026-04-26T10:43:02.922Z</time></trkpt><trkpt lat="45.5361484" lon="10.8189387"><ele>110.33333333333333</ele><time>2026-04-26T10:43:03.921Z</time></trkpt><trkpt lat="45.5360118" lon="10.8188478"><ele>110.0</ele><time>2026-04-26T10:43:04.922Z</time></trkpt><trkpt lat="45.5358755" lon="10.8187618"><ele>110.0</ele><time>2026-04-26T10:43:05.922Z</time></trkpt><trkpt lat="45.5357376" lon="10.8186847"><ele>110.0</ele><time>2026-04-26T10:43:06.922Z</time></trkpt><trkpt lat="45.5355965" lon="10.8186176"><ele>110.0</ele><time>2026-04-26T10:43:07.922Z</time></trkpt><trkpt lat="45.5354525" lon="10.8185589"><ele>110.0</ele><time>2026-04-26T10:43:08.922Z</time></trkpt><trkpt lat="45.5353052" lon="10.8185104"><ele>110.0</ele><time>2026-04-26T10:43:09.922Z</time></trkpt><trkpt lat="45.5351558" lon="10.8184691"><ele>110.0</ele><time>2026-04-26T10:43:10.922Z</time></trkpt><trkpt lat="45.5350056" lon="10.8184318"><ele>110.0</ele><time>2026-04-26T10:43:11.921Z</time></trkpt><trkpt lat="45.5348539" lon="10.818401"><ele>110.0</ele><time>2026-04-26T10:43:12.921Z</time></trkpt><trkpt lat="45.5347013" lon="10.8183763"><ele>110.0</ele><time>2026-04-26T10:43:13.921Z</time></trkpt><trkpt lat="45.5345483" lon="10.8183549"><ele>110.0</ele><time>2026-04-26T10:43:14.922Z</time></trkpt><trkpt lat="45.5343946" lon="10.8183335"><ele>110.33333333333333</ele><time>2026-04-26T10:43:15.922Z</time></trkpt><trkpt lat="45.5342407" lon="10.8183128"><ele>110.66666666666666</ele><time>2026-04-26T10:43:16.921Z</time></trkpt><trkpt lat="45.534086" lon="10.8182931"><ele>111.0</ele><time>2026-04-26T10:43:17.921Z</time></trkpt><trkpt lat="45.5339323" lon="10.8182736"><ele>111.0</ele><time>2026-04-26T10:43:18.922Z</time></trkpt><trkpt lat="45.5337786" lon="10.8182552"><ele>111.0</ele><time>2026-04-26T10:43:19.922Z</time></trkpt><trkpt lat="45.5336251" lon="10.8182373"><ele>111.0</ele><time>2026-04-26T10:43:20.922Z</time></trkpt><trkpt lat="45.5334704" lon="10.8182232"><ele>111.66666666666666</ele><time>2026-04-26T10:43:21.922Z</time></trkpt><trkpt lat="45.5333165" lon="10.8182125"><ele>112.33333333333333</ele><time>2026-04-26T10:43:22.921Z</time></trkpt><trkpt lat="45.5331616" lon="10.818203"><ele>113.0</ele><time>2026-04-26T10:43:23.921Z</time></trkpt><trkpt lat="45.5330083" lon="10.8181959"><ele>112.66666666666666</ele><time>2026-04-26T10:43:24.922Z</time></trkpt><trkpt lat="45.5328538" lon="10.8181874"><ele>112.33333333333334</ele><time>2026-04-26T10:43:25.922Z</time></trkpt><trkpt lat="45.5327003" lon="10.8181842"><ele>112.0</ele><time>2026-04-26T10:43:26.922Z</time></trkpt><trkpt lat="45.5325469" lon="10.8181881"><ele>112.0</ele><time>2026-04-26T10:43:27.921Z</time></trkpt><trkpt lat="45.5323954" lon="10.8182002"><ele>112.0</ele><time>2026-04-26T10:43:28.921Z</time></trkpt><trkpt lat="45.5322439" lon="10.8182146"><ele>112.0</ele><time>2026-04-26T10:43:29.922Z</time></trkpt><trkpt lat="45.5320933" lon="10.8182276"><ele>112.25</ele><time>2026-04-26T10:43:30.921Z</time></trkpt><trkpt lat="45.5319475" lon="10.8182374"><ele>112.5</ele><time>2026-04-26T10:43:31.922Z</time></trkpt><trkpt lat="45.5318002" lon="10.818243"><ele>112.75</ele><time>2026-04-26T10:43:32.922Z</time></trkpt><trkpt lat="45.5316516" lon="10.8182453"><ele>113.0</ele><time>2026-04-26T10:43:33.922Z</time></trkpt><trkpt lat="45.5315042" lon="10.8182449"><ele>113.0</ele><time>2026-04-26T10:43:34.92Z</time></trkpt><trkpt lat="45.531356" lon="10.8182392"><ele>113.0</ele><time>2026-04-26T10:43:35.922Z</time></trkpt><trkpt lat="45.5312118" lon="10.8182327"><ele>113.0</ele><time>2026-04-26T10:43:36.922Z</time></trkpt><trkpt lat="45.5310643" lon="10.818223"><ele>113.0</ele><time>2026-04-26T10:43:37.922Z</time></trkpt><trkpt lat="45.5309207" lon="10.8182177"><ele>112.5</ele><time>2026-04-26T10:43:38.922Z</time></trkpt><trkpt lat="45.5307778" lon="10.8182169"><ele>112.0</ele><time>2026-04-26T10:43:39.921Z</time></trkpt><trkpt lat="45.5306321" lon="10.8182223"><ele>111.5</ele><time>2026-04-26T10:43:40.922Z</time></trkpt><trkpt lat="45.5304882" lon="10.8182307"><ele>111.0</ele><time>2026-04-26T10:43:41.921Z</time></trkpt><trkpt lat="45.5303437" lon="10.8182437"><ele>111.0</ele><time>2026-04-26T10:43:42.922Z</time></trkpt><trkpt lat="45.5301987" lon="10.818256"><ele>111.0</ele><time>2026-04-26T10:43:43.921Z</time></trkpt><trkpt lat="45.5300564" lon="10.8182686"><ele>111.0</ele><time>2026-04-26T10:43:44.922Z</time></trkpt><trkpt lat="45.5299122" lon="10.8182833"><ele>111.0</ele><time>2026-04-26T10:43:45.921Z</time></trkpt><trkpt lat="45.529768" lon="10.8183009"><ele>111.0</ele><time>2026-04-26T10:43:46.921Z</time></trkpt><trkpt lat="45.5296233" lon="10.8183275"><ele>111.0</ele><time>2026-04-26T10:43:47.922Z</time></trkpt><trkpt lat="45.5294782" lon="10.8183531"><ele>111.0</ele><time>2026-04-26T10:43:48.922Z</time></trkpt><trkpt lat="45.5293292" lon="10.8183726"><ele>111.0</ele><time>2026-04-26T10:43:49.922Z</time></trkpt><trkpt lat="45.5291827" lon="10.8183806"><ele>111.0</ele><time>2026-04-26T10:43:50.921Z</time></trkpt><trkpt lat="45.5290418" lon="10.8183777"><ele>111.0</ele><time>2026-04-26T10:43:51.922Z</time></trkpt><trkpt lat="45.5289058" lon="10.8183728"><ele>111.0</ele><time>2026-04-26T10:43:52.921Z</time></trkpt><trkpt lat="45.5287755" lon="10.8183635"><ele>111.0</ele><time>2026-04-26T10:43:53.922Z</time></trkpt><trkpt lat="45.5286514" lon="10.8183508"><ele>111.0</ele><time>2026-04-26T10:43:54.921Z</time></trkpt><trkpt lat="45.5285285" lon="10.8183343"><ele>111.0</ele><time>2026-04-26T10:43:55.922Z</time></trkpt><trkpt lat="45.5284031" lon="10.818317"><ele>111.0</ele><time>2026-04-26T10:43:56.922Z</time></trkpt><trkpt lat="45.5282758" lon="10.8183017"><ele>111.0</ele><time>2026-04-26T10:43:57.922Z</time></trkpt><trkpt lat="45.528147" lon="10.8182953"><ele>111.0</ele><time>2026-04-26T10:43:58.921Z</time></trkpt><trkpt lat="45.5280153" lon="10.8182941"><ele>111.0</ele><time>2026-04-26T10:43:59.922Z</time></trkpt><trkpt lat="45.5278834" lon="10.8182927"><ele>111.0</ele><time>2026-04-26T10:44:00.921Z</time></trkpt><trkpt lat="45.527752" lon="10.8182903"><ele>111.0</ele><time>2026-04-26T10:44:01.922Z</time></trkpt><trkpt lat="45.5276262" lon="10.8182861"><ele>112.0</ele><time>2026-04-26T10:44:02.922Z</time></trkpt><trkpt lat="45.5275002" lon="10.8182812"><ele>113.0</ele><time>2026-04-26T10:44:03.921Z</time></trkpt><trkpt lat="45.5273826" lon="10.8182725"><ele>114.0</ele><time>2026-04-26T10:44:04.922Z</time></trkpt><trkpt lat="45.5272722" lon="10.8182711"><ele>115.0</ele><time>2026-04-26T10:44:05.921Z</time></trkpt><trkpt lat="45.5271727" lon="10.8182731"><ele>115.0</ele><time>2026-04-26T10:44:06.921Z</time></trkpt><trkpt lat="45.5270925" lon="10.8182698"><ele>115.0</ele><time>2026-04-26T10:44:07.921Z</time></trkpt><trkpt lat="45.5269774" lon="10.8182519"><ele>115.0</ele><time>2026-04-26T10:44:09.922Z</time></trkpt><trkpt lat="45.5268588" lon="10.8182314"><ele>115.0</ele><time>2026-04-26T10:44:11.922Z</time></trkpt><trkpt lat="45.5267914" lon="10.8182543"><ele>115.0</ele><time>2026-04-26T10:44:12.921Z</time></trkpt><trkpt lat="45.5267401" lon="10.8183188"><ele>115.00000000000001</ele><time>2026-04-26T10:44:13.922Z</time></trkpt><trkpt lat="45.5267354" lon="10.8184116"><ele>115.0</ele><time>2026-04-26T10:44:14.922Z</time></trkpt><trkpt lat="45.5267458" lon="10.818526"><ele>115.0</ele><time>2026-04-26T10:44:15.922Z</time></trkpt><trkpt lat="45.5267554" lon="10.8186642"><ele>115.0</ele><time>2026-04-26T10:44:16.922Z</time></trkpt><trkpt lat="45.5267499" lon="10.8188156"><ele>115.00000000000001</ele><time>2026-04-26T10:44:17.922Z</time></trkpt><trkpt lat="45.5267322" lon="10.8189394"><ele>115.0</ele><time>2026-04-26T10:44:18.922Z</time></trkpt><trkpt lat="45.5267116" lon="10.8190469"><ele>115.0</ele><time>2026-04-26T10:44:19.922Z</time></trkpt><trkpt lat="45.5266827" lon="10.8191429"><ele>115.0</ele><time>2026-04-26T10:44:20.921Z</time></trkpt><trkpt lat="45.5266295" lon="10.8192393"><ele>115.0</ele><time>2026-04-26T10:44:21.921Z</time></trkpt><trkpt lat="45.5265498" lon="10.8193235"><ele>115.0</ele><time>2026-04-26T10:44:22.922Z</time></trkpt><trkpt lat="45.5264453" lon="10.8193784"><ele>115.0</ele><time>2026-04-26T10:44:23.921Z</time></trkpt><trkpt lat="45.5263228" lon="10.8194019"><ele>115.25</ele><time>2026-04-26T10:44:24.921Z</time></trkpt><trkpt lat="45.5261999" lon="10.8194015"><ele>115.5</ele><time>2026-04-26T10:44:25.922Z</time></trkpt><trkpt lat="45.5260742" lon="10.8193978"><ele>115.75</ele><time>2026-04-26T10:44:26.922Z</time></trkpt><trkpt lat="45.5259473" lon="10.8193891"><ele>116.0</ele><time>2026-04-26T10:44:27.922Z</time></trkpt><trkpt lat="45.5258216" lon="10.8193802"><ele>116.0</ele><time>2026-04-26T10:44:28.921Z</time></trkpt><trkpt lat="45.5256952" lon="10.819379"><ele>116.0</ele><time>2026-04-26T10:44:29.922Z</time></trkpt><trkpt lat="45.5255693" lon="10.8193831"><ele>116.0</ele><time>2026-04-26T10:44:30.922Z</time></trkpt><trkpt lat="45.5254427" lon="10.8193885"><ele>116.0</ele><time>2026-04-26T10:44:31.921Z</time></trkpt><trkpt lat="45.5253149" lon="10.8193952"><ele>115.8</ele><time>2026-04-26T10:44:32.921Z</time></trkpt><trkpt lat="45.5251933" lon="10.8194057"><ele>115.6</ele><time>2026-04-26T10:44:33.922Z</time></trkpt><trkpt lat="45.5250904" lon="10.819416"><ele>115.4</ele><time>2026-04-26T10:44:34.922Z</time></trkpt><trkpt lat="45.5250114" lon="10.8194316"><ele>115.2</ele><time>2026-04-26T10:44:35.921Z</time></trkpt><trkpt lat="45.5249494" lon="10.8194778"><ele>115.0</ele><time>2026-04-26T10:44:36.921Z</time></trkpt><trkpt lat="45.5248997" lon="10.8195685"><ele>115.0</ele><time>2026-04-26T10:44:37.922Z</time></trkpt><trkpt lat="45.5248618" lon="10.8197061"><ele>115.0</ele><time>2026-04-26T10:44:38.922Z</time></trkpt><trkpt lat="45.5248333" lon="10.8198631"><ele>115.0</ele><time>2026-04-26T10:44:39.922Z</time></trkpt><trkpt lat="45.5248027" lon="10.8200396"><ele>115.0</ele><time>2026-04-26T10:44:40.922Z</time></trkpt><trkpt lat="45.5247716" lon="10.8202266"><ele>115.25</ele><time>2026-04-26T10:44:41.922Z</time></trkpt><trkpt lat="45.5247458" lon="10.8204266"><ele>115.5</ele><time>2026-04-26T10:44:42.922Z</time></trkpt><trkpt lat="45.524719" lon="10.8206318"><ele>115.75</ele><time>2026-04-26T10:44:43.922Z</time></trkpt><trkpt lat="45.5246878" lon="10.820851"><ele>116.0</ele><time>2026-04-26T10:44:44.922Z</time></trkpt><trkpt lat="45.5246553" lon="10.8210531"><ele>116.33333333333333</ele><time>2026-04-26T10:44:45.921Z</time></trkpt><trkpt lat="45.5245803" lon="10.8212528"><ele>116.66666666666666</ele><time>2026-04-26T10:44:46.922Z</time></trkpt><trkpt lat="45.5245122" lon="10.8214493"><ele>117.0</ele><time>2026-04-26T10:44:47.922Z</time></trkpt><trkpt lat="45.5244183" lon="10.8216204"><ele>117.0</ele><time>2026-04-26T10:44:48.922Z</time></trkpt><trkpt lat="45.5243034" lon="10.8217667"><ele>117.0</ele><time>2026-04-26T10:44:49.921Z</time></trkpt><trkpt lat="45.5241767" lon="10.8219016"><ele>117.0</ele><time>2026-04-26T10:44:50.921Z</time></trkpt><trkpt lat="45.5240246" lon="10.8219884"><ele>117.0</ele><time>2026-04-26T10:44:51.922Z</time></trkpt><trkpt lat="45.5238723" lon="10.8220684"><ele>117.0</ele><time>2026-04-26T10:44:52.922Z</time></trkpt><trkpt lat="45.5237172" lon="10.8221353"><ele>117.0</ele><time>2026-04-26T10:44:53.922Z</time></trkpt><trkpt lat="45.5235582" lon="10.822184"><ele>117.33333333333334</ele><time>2026-04-26T10:44:54.922Z</time></trkpt><trkpt lat="45.5234026" lon="10.8222163"><ele>117.66666666666667</ele><time>2026-04-26T10:44:55.921Z</time></trkpt><trkpt lat="45.5232453" lon="10.8222326"><ele>118.0</ele><time>2026-04-26T10:44:56.922Z</time></trkpt><trkpt lat="45.5230894" lon="10.8222513"><ele>118.0</ele><time>2026-04-26T10:44:57.922Z</time></trkpt><trkpt lat="45.522934" lon="10.8222718"><ele>118.0</ele><time>2026-04-26T10:44:58.922Z</time></trkpt><trkpt lat="45.5227804" lon="10.8222915"><ele>118.0</ele><time>2026-04-26T10:44:59.921Z</time></trkpt><trkpt lat="45.5226329" lon="10.8223062"><ele>118.0</ele><time>2026-04-26T10:45:00.922Z</time></trkpt><trkpt lat="45.5225009" lon="10.8223191"><ele>118.0</ele><time>2026-04-26T10:45:01.922Z</time></trkpt><trkpt lat="45.522386" lon="10.8223221"><ele>118.0</ele><time>2026-04-26T10:45:02.921Z</time></trkpt><trkpt lat="45.5222764" lon="10.8223133"><ele>118.0</ele><time>2026-04-26T10:45:03.921Z</time></trkpt><trkpt lat="45.5221581" lon="10.8223118"><ele>117.5</ele><time>2026-04-26T10:45:04.921Z</time></trkpt><trkpt lat="45.5220303" lon="10.8223357"><ele>117.0</ele><time>2026-04-26T10:45:05.921Z</time></trkpt><trkpt lat="45.5218952" lon="10.8223724"><ele>116.5</ele><time>2026-04-26T10:45:06.922Z</time></trkpt><trkpt lat="45.5217536" lon="10.8224"><ele>116.0</ele><time>2026-04-26T10:45:07.921Z</time></trkpt><trkpt lat="45.5216059" lon="10.8224226"><ele>116.0</ele><time>2026-04-26T10:45:08.922Z</time></trkpt><trkpt lat="45.5214542" lon="10.8224387"><ele>116.0</ele><time>2026-04-26T10:45:09.922Z</time></trkpt><trkpt lat="45.5212967" lon="10.8224511"><ele>116.0</ele><time>2026-04-26T10:45:10.922Z</time></trkpt><trkpt lat="45.5211405" lon="10.8224587"><ele>115.66666666666666</ele><time>2026-04-26T10:45:11.921Z</time></trkpt><trkpt lat="45.5209859" lon="10.8224604"><ele>115.33333333333334</ele><time>2026-04-26T10:45:12.922Z</time></trkpt><trkpt lat="45.520832" lon="10.8224552"><ele>115.0</ele><time>2026-04-26T10:45:13.922Z</time></trkpt><trkpt lat="45.5206791" lon="10.8224515"><ele>115.0</ele><time>2026-04-26T10:45:14.921Z</time></trkpt><trkpt lat="45.5205285" lon="10.822449"><ele>115.0</ele><time>2026-04-26T10:45:15.921Z</time></trkpt><trkpt lat="45.5203789" lon="10.8224482"><ele>115.0</ele><time>2026-04-26T10:45:16.921Z</time></trkpt><trkpt lat="45.5202311" lon="10.8224499"><ele>115.0</ele><time>2026-04-26T10:45:17.921Z</time></trkpt><trkpt lat="45.5200861" lon="10.8224565"><ele>115.25</ele><time>2026-04-26T10:45:18.922Z</time></trkpt><trkpt lat="45.5199411" lon="10.822463"><ele>115.5</ele><time>2026-04-26T10:45:19.921Z</time></trkpt><trkpt lat="45.5198022" lon="10.8224735"><ele>115.75</ele><time>2026-04-26T10:45:20.922Z</time></trkpt><trkpt lat="45.5196674" lon="10.8224896"><ele>116.0</ele><time>2026-04-26T10:45:21.922Z</time></trkpt><trkpt lat="45.5195385" lon="10.822524"><ele>116.75</ele><time>2026-04-26T10:45:22.922Z</time></trkpt><trkpt lat="45.5194114" lon="10.8225845"><ele>117.5</ele><time>2026-04-26T10:45:23.922Z</time></trkpt><trkpt lat="45.5192879" lon="10.8226617"><ele>118.25</ele><time>2026-04-26T10:45:24.922Z</time></trkpt><trkpt lat="45.5191819" lon="10.8227424"><ele>119.0</ele><time>2026-04-26T10:45:25.922Z</time></trkpt><trkpt lat="45.5190859" lon="10.8228189"><ele>119.49999999999999</ele><time>2026-04-26T10:45:26.922Z</time></trkpt><trkpt lat="45.5189985" lon="10.8228893"><ele>120.0</ele><time>2026-04-26T10:45:27.922Z</time></trkpt><trkpt lat="45.5189189" lon="10.8229553"><ele>120.5</ele><time>2026-04-26T10:45:28.922Z</time></trkpt><trkpt lat="45.5188449" lon="10.8230105"><ele>121.0</ele><time>2026-04-26T10:45:29.922Z</time></trkpt><trkpt lat="45.5187781" lon="10.8230513"><ele>121.49999999999999</ele><time>2026-04-26T10:45:30.921Z</time></trkpt><trkpt lat="45.518699" lon="10.8231065"><ele>122.0</ele><time>2026-04-26T10:45:32.922Z</time></trkpt><trkpt lat="45.5186418" lon="10.8231861"><ele>122.0</ele><time>2026-04-26T10:45:34.922Z</time></trkpt><trkpt lat="45.5185727" lon="10.8233662"><ele>122.0</ele><time>2026-04-26T10:45:36.922Z</time></trkpt><trkpt lat="45.5185349" lon="10.8234996"><ele>122.0</ele><time>2026-04-26T10:45:37.921Z</time></trkpt><trkpt lat="45.5184993" lon="10.8236601"><ele>122.0</ele><time>2026-04-26T10:45:38.922Z</time></trkpt><trkpt lat="45.5184697" lon="10.8238272"><ele>122.75</ele><time>2026-04-26T10:45:39.922Z</time></trkpt><trkpt lat="45.5184471" lon="10.82401"><ele>123.5</ele><time>2026-04-26T10:45:40.922Z</time></trkpt><trkpt lat="45.5184283" lon="10.8242034"><ele>124.25</ele><time>2026-04-26T10:45:41.921Z</time></trkpt><trkpt lat="45.5184105" lon="10.8244061"><ele>125.0</ele><time>2026-04-26T10:45:42.922Z</time></trkpt><trkpt lat="45.5183933" lon="10.8246077"><ele>127.0</ele><time>2026-04-26T10:45:43.922Z</time></trkpt><trkpt lat="45.5183796" lon="10.8248207"><ele>129.0</ele><time>2026-04-26T10:45:44.922Z</time></trkpt><trkpt lat="45.5183752" lon="10.8250386"><ele>131.0</ele><time>2026-04-26T10:45:45.922Z</time></trkpt><trkpt lat="45.518379" lon="10.8252617"><ele>131.66666666666666</ele><time>2026-04-26T10:45:46.922Z</time></trkpt><trkpt lat="45.5183902" lon="10.8254909"><ele>132.33333333333334</ele><time>2026-04-26T10:45:47.922Z</time></trkpt><trkpt lat="45.5184006" lon="10.8257254"><ele>133.0</ele><time>2026-04-26T10:45:48.921Z</time></trkpt><trkpt lat="45.5184115" lon="10.8259627"><ele>134.0</ele><time>2026-04-26T10:45:49.922Z</time></trkpt><trkpt lat="45.5184225" lon="10.8262028"><ele>135.0</ele><time>2026-04-26T10:45:50.922Z</time></trkpt><trkpt lat="45.5184341" lon="10.8264437"><ele>136.0</ele><time>2026-04-26T10:45:51.92Z</time></trkpt><trkpt lat="45.5184457" lon="10.8266819"><ele>136.66666666666669</ele><time>2026-04-26T10:45:52.92Z</time></trkpt><trkpt lat="45.5184614" lon="10.8269187"><ele>137.33333333333334</ele><time>2026-04-26T10:45:53.92Z</time></trkpt><trkpt lat="45.5184762" lon="10.8271519"><ele>138.0</ele><time>2026-04-26T10:45:54.921Z</time></trkpt><trkpt lat="45.5184867" lon="10.8273806"><ele>138.0</ele><time>2026-04-26T10:45:55.921Z</time></trkpt><trkpt lat="45.518491" lon="10.8276066"><ele>138.0</ele><time>2026-04-26T10:45:56.92Z</time></trkpt><trkpt lat="45.5184938" lon="10.8278314"><ele>138.0</ele><time>2026-04-26T10:45:57.921Z</time></trkpt><trkpt lat="45.518499" lon="10.8280558"><ele>139.0</ele><time>2026-04-26T10:45:58.921Z</time></trkpt><trkpt lat="45.5185051" lon="10.8282797"><ele>140.0</ele><time>2026-04-26T10:45:59.921Z</time></trkpt><trkpt lat="45.5185127" lon="10.8285015"><ele>141.0</ele><time>2026-04-26T10:46:00.921Z</time></trkpt><trkpt lat="45.5185216" lon="10.8287226"><ele>141.0</ele><time>2026-04-26T10:46:01.921Z</time></trkpt><trkpt lat="45.5185323" lon="10.8289423"><ele>141.0</ele><time>2026-04-26T10:46:02.92Z</time></trkpt><trkpt lat="45.5185448" lon="10.829161"><ele>141.0</ele><time>2026-04-26T10:46:03.92Z</time></trkpt><trkpt lat="45.5185605" lon="10.8293796"><ele>141.25</ele><time>2026-04-26T10:46:04.921Z</time></trkpt><trkpt lat="45.5185864" lon="10.8295948"><ele>141.5</ele><time>2026-04-26T10:46:05.921Z</time></trkpt><trkpt lat="45.5186263" lon="10.8297999"><ele>141.75</ele><time>2026-04-26T10:46:06.921Z</time></trkpt><trkpt lat="45.5186786" lon="10.8299964"><ele>142.0</ele><time>2026-04-26T10:46:07.921Z</time></trkpt><trkpt lat="45.5187327" lon="10.8301794"><ele>145.75</ele><time>2026-04-26T10:46:08.92Z</time></trkpt><trkpt lat="45.5187797" lon="10.8303452"><ele>149.5</ele><time>2026-04-26T10:46:09.921Z</time></trkpt><trkpt lat="45.518809" lon="10.8305066"><ele>153.25</ele><time>2026-04-26T10:46:10.921Z</time></trkpt><trkpt lat="45.5188143" lon="10.8306709"><ele>157.0</ele><time>2026-04-26T10:46:11.921Z</time></trkpt><trkpt lat="45.5188008" lon="10.8308193"><ele>157.0</ele><time>2026-04-26T10:46:12.921Z</time></trkpt><trkpt lat="45.5187986" lon="10.8309461"><ele>157.0</ele><time>2026-04-26T10:46:13.92Z</time></trkpt><trkpt lat="45.5188289" lon="10.8310541"><ele>157.0</ele><time>2026-04-26T10:46:14.921Z</time></trkpt><trkpt lat="45.51889" lon="10.8311315"><ele>157.0</ele><time>2026-04-26T10:46:15.92Z</time></trkpt><trkpt lat="45.518961" lon="10.8311581"><ele>157.0</ele><time>2026-04-26T10:46:16.921Z</time></trkpt><trkpt lat="45.5190357" lon="10.8311326"><ele>157.0</ele><time>2026-04-26T10:46:17.92Z</time></trkpt><trkpt lat="45.5191008" lon="10.8310754"><ele>157.0</ele><time>2026-04-26T10:46:18.92Z</time></trkpt><trkpt lat="45.5191371" lon="10.8309715"><ele>157.0</ele><time>2026-04-26T10:46:19.921Z</time></trkpt><trkpt lat="45.5191492" lon="10.8308464"><ele>157.0</ele><time>2026-04-26T10:46:20.92Z</time></trkpt><trkpt lat="45.5191612" lon="10.8306999"><ele>157.0</ele><time>2026-04-26T10:46:21.921Z</time></trkpt><trkpt lat="45.5192118" lon="10.8305402"><ele>157.0</ele><time>2026-04-26T10:46:22.92Z</time></trkpt><trkpt lat="45.5192758" lon="10.8303623"><ele>157.0</ele><time>2026-04-26T10:46:23.92Z</time></trkpt><trkpt lat="45.5193418" lon="10.8301712"><ele>157.0</ele><time>2026-04-26T10:46:24.92Z</time></trkpt><trkpt lat="45.5194094" lon="10.8299715"><ele>157.0</ele><time>2026-04-26T10:46:25.92Z</time></trkpt><trkpt lat="45.519477" lon="10.8297724"><ele>157.0</ele><time>2026-04-26T10:46:26.921Z</time></trkpt><trkpt lat="45.5195488" lon="10.8295785"><ele>157.0</ele><time>2026-04-26T10:46:27.921Z</time></trkpt><trkpt lat="45.5196299" lon="10.8293965"><ele>157.0</ele><time>2026-04-26T10:46:28.921Z</time></trkpt><trkpt lat="45.5197223" lon="10.829224"><ele>158.0</ele><time>2026-04-26T10:46:29.921Z</time></trkpt><trkpt lat="45.5198207" lon="10.8290585"><ele>159.0</ele><time>2026-04-26T10:46:30.921Z</time></trkpt><trkpt lat="45.519916" lon="10.8288953"><ele>160.0</ele><time>2026-04-26T10:46:31.921Z</time></trkpt><trkpt lat="45.5200029" lon="10.8287258"><ele>161.0</ele><time>2026-04-26T10:46:32.921Z</time></trkpt><trkpt lat="45.5200756" lon="10.8285398"><ele>161.66666666666666</ele><time>2026-04-26T10:46:33.921Z</time></trkpt><trkpt lat="45.5201308" lon="10.8283383"><ele>162.33333333333334</ele><time>2026-04-26T10:46:34.92Z</time></trkpt><trkpt lat="45.5201705" lon="10.8281251"><ele>163.0</ele><time>2026-04-26T10:46:35.921Z</time></trkpt><trkpt lat="45.5201989" lon="10.8279052"><ele>163.0</ele><time>2026-04-26T10:46:36.921Z</time></trkpt><trkpt lat="45.5202277" lon="10.827682"><ele>163.0</ele><time>2026-04-26T10:46:37.92Z</time></trkpt><trkpt lat="45.5202594" lon="10.8274571"><ele>163.0</ele><time>2026-04-26T10:46:38.921Z</time></trkpt><trkpt lat="45.5202908" lon="10.8272329"><ele>163.33333333333334</ele><time>2026-04-26T10:46:39.921Z</time></trkpt><trkpt lat="45.5203196" lon="10.8270069"><ele>163.66666666666666</ele><time>2026-04-26T10:46:40.92Z</time></trkpt><trkpt lat="45.5203465" lon="10.826785"><ele>164.0</ele><time>2026-04-26T10:46:41.921Z</time></trkpt><trkpt lat="45.5203717" lon="10.8265648"><ele>165.33333333333331</ele><time>2026-04-26T10:46:42.92Z</time></trkpt><trkpt lat="45.5203974" lon="10.8263451"><ele>166.66666666666666</ele><time>2026-04-26T10:46:43.921Z</time></trkpt><trkpt lat="45.5204252" lon="10.826128"><ele>168.0</ele><time>2026-04-26T10:46:44.921Z</time></trkpt><trkpt lat="45.5204634" lon="10.8259189"><ele>171.25</ele><time>2026-04-26T10:46:45.92Z</time></trkpt><trkpt lat="45.5205268" lon="10.8257225"><ele>174.5</ele><time>2026-04-26T10:46:46.92Z</time></trkpt><trkpt lat="45.5206116" lon="10.8255492"><ele>177.75</ele><time>2026-04-26T10:46:47.921Z</time></trkpt><trkpt lat="45.5207177" lon="10.8254021"><ele>181.0</ele><time>2026-04-26T10:46:48.921Z</time></trkpt><trkpt lat="45.5208396" lon="10.8252848"><ele>181.0</ele><time>2026-04-26T10:46:49.92Z</time></trkpt><trkpt lat="45.5209757" lon="10.8252044"><ele>181.0</ele><time>2026-04-26T10:46:50.921Z</time></trkpt><trkpt lat="45.5211205" lon="10.825153"><ele>181.0</ele><time>2026-04-26T10:46:51.921Z</time></trkpt><trkpt lat="45.5212697" lon="10.8251344"><ele>181.0</ele><time>2026-04-26T10:46:52.921Z</time></trkpt><trkpt lat="45.5214185" lon="10.825144"><ele>184.0</ele><time>2026-04-26T10:46:53.921Z</time></trkpt><trkpt lat="45.5215586" lon="10.8252088"><ele>187.0</ele><time>2026-04-26T10:46:54.92Z</time></trkpt><trkpt lat="45.5216918" lon="10.8253082"><ele>190.0</ele><time>2026-04-26T10:46:55.921Z</time></trkpt><trkpt lat="45.5218194" lon="10.8254364"><ele>190.0</ele><time>2026-04-26T10:46:56.921Z</time></trkpt><trkpt lat="45.521942" lon="10.8255807"><ele>190.0</ele><time>2026-04-26T10:46:57.921Z</time></trkpt><trkpt lat="45.5220643" lon="10.825735"><ele>190.0</ele><time>2026-04-26T10:46:58.92Z</time></trkpt><trkpt lat="45.5221874" lon="10.8258906"><ele>193.0</ele><time>2026-04-26T10:46:59.921Z</time></trkpt><trkpt lat="45.5223121" lon="10.8260467"><ele>196.0</ele><time>2026-04-26T10:47:00.921Z</time></trkpt><trkpt lat="45.5224359" lon="10.8262017"><ele>199.0</ele><time>2026-04-26T10:47:01.921Z</time></trkpt><trkpt lat="45.5225579" lon="10.8263532"><ele>199.0</ele><time>2026-04-26T10:47:02.92Z</time></trkpt><trkpt lat="45.5226757" lon="10.8265055"><ele>199.0</ele><time>2026-04-26T10:47:03.921Z</time></trkpt><trkpt lat="45.5227921" lon="10.826655"><ele>199.0</ele><time>2026-04-26T10:47:04.921Z</time></trkpt><trkpt lat="45.5229042" lon="10.8267999"><ele>200.75</ele><time>2026-04-26T10:47:05.921Z</time></trkpt><trkpt lat="45.5230131" lon="10.8269256"><ele>202.5</ele><time>2026-04-26T10:47:06.921Z</time></trkpt><trkpt lat="45.5231321" lon="10.8270167"><ele>204.25</ele><time>2026-04-26T10:47:07.921Z</time></trkpt><trkpt lat="45.5232579" lon="10.8270681"><ele>206.0</ele><time>2026-04-26T10:47:08.92Z</time></trkpt><trkpt lat="45.5233964" lon="10.8270499"><ele>206.0</ele><time>2026-04-26T10:47:09.921Z</time></trkpt><trkpt lat="45.5235328" lon="10.8269845"><ele>206.0</ele><time>2026-04-26T10:47:10.921Z</time></trkpt><trkpt lat="45.5236647" lon="10.8268796"><ele>206.0</ele><time>2026-04-26T10:47:11.921Z</time></trkpt><trkpt lat="45.5237983" lon="10.8267595"><ele>208.0</ele><time>2026-04-26T10:47:12.921Z</time></trkpt><trkpt lat="45.523935" lon="10.8266411"><ele>210.0</ele><time>2026-04-26T10:47:13.921Z</time></trkpt><trkpt lat="45.5240786" lon="10.8265254"><ele>212.0</ele><time>2026-04-26T10:47:14.921Z</time></trkpt><trkpt lat="45.5242189" lon="10.8264088"><ele>212.0</ele><time>2026-04-26T10:47:15.921Z</time></trkpt><trkpt lat="45.5243595" lon="10.8262984"><ele>212.0</ele><time>2026-04-26T10:47:16.92Z</time></trkpt><trkpt lat="45.5245028" lon="10.8261985"><ele>212.0</ele><time>2026-04-26T10:47:17.921Z</time></trkpt><trkpt lat="45.5246519" lon="10.8261238"><ele>215.33333333333334</ele><time>2026-04-26T10:47:18.92Z</time></trkpt><trkpt lat="45.5248089" lon="10.826092"><ele>218.66666666666669</ele><time>2026-04-26T10:47:19.921Z</time></trkpt><trkpt lat="45.5249662" lon="10.8260806"><ele>222.0</ele><time>2026-04-26T10:47:20.921Z</time></trkpt><trkpt lat="45.5251246" lon="10.8260881"><ele>222.0</ele><time>2026-04-26T10:47:21.921Z</time></trkpt><trkpt lat="45.5252826" lon="10.8261069"><ele>222.0</ele><time>2026-04-26T10:47:22.921Z</time></trkpt><trkpt lat="45.5254402" lon="10.8261277"><ele>222.0</ele><time>2026-04-26T10:47:23.919Z</time></trkpt><trkpt lat="45.5255978" lon="10.826148"><ele>222.33333333333331</ele><time>2026-04-26T10:47:24.921Z</time></trkpt><trkpt lat="45.5257541" lon="10.8261694"><ele>222.66666666666666</ele><time>2026-04-26T10:47:25.92Z</time></trkpt><trkpt lat="45.5259102" lon="10.8261893"><ele>223.0</ele><time>2026-04-26T10:47:26.921Z</time></trkpt><trkpt lat="45.5260662" lon="10.8262111"><ele>223.0</ele><time>2026-04-26T10:47:27.921Z</time></trkpt><trkpt lat="45.5262212" lon="10.8262337"><ele>223.0</ele><time>2026-04-26T10:47:28.921Z</time></trkpt><trkpt lat="45.526375" lon="10.8262579"><ele>223.0</ele><time>2026-04-26T10:47:29.92Z</time></trkpt><trkpt lat="45.5265282" lon="10.8262818"><ele>225.33333333333331</ele><time>2026-04-26T10:47:30.919Z</time></trkpt><trkpt lat="45.526681" lon="10.8263023"><ele>227.66666666666669</ele><time>2026-04-26T10:47:31.921Z</time></trkpt><trkpt lat="45.5268336" lon="10.8263102"><ele>230.0</ele><time>2026-04-26T10:47:32.92Z</time></trkpt><trkpt lat="45.5269859" lon="10.8262976"><ele>231.66666666666669</ele><time>2026-04-26T10:47:33.921Z</time></trkpt><trkpt lat="45.527136" lon="10.8262611"><ele>233.33333333333331</ele><time>2026-04-26T10:47:34.921Z</time></trkpt><trkpt lat="45.5272835" lon="10.8262038"><ele>235.0</ele><time>2026-04-26T10:47:35.92Z</time></trkpt><trkpt lat="45.5274267" lon="10.8261221"><ele>235.0</ele><time>2026-04-26T10:47:36.921Z</time></trkpt><trkpt lat="45.5275636" lon="10.8260232"><ele>235.0</ele><time>2026-04-26T10:47:37.92Z</time></trkpt><trkpt lat="45.5276915" lon="10.8259089"><ele>235.0</ele><time>2026-04-26T10:47:38.921Z</time></trkpt><trkpt lat="45.5278194" lon="10.8257957"><ele>234.5</ele><time>2026-04-26T10:47:39.921Z</time></trkpt><trkpt lat="45.5279449" lon="10.8256869"><ele>234.0</ele><time>2026-04-26T10:47:40.921Z</time></trkpt><trkpt lat="45.528073" lon="10.8255924"><ele>233.5</ele><time>2026-04-26T10:47:41.92Z</time></trkpt><trkpt lat="45.5282042" lon="10.8255099"><ele>233.0</ele><time>2026-04-26T10:47:42.92Z</time></trkpt><trkpt lat="45.52834" lon="10.8254397"><ele>233.0</ele><time>2026-04-26T10:47:43.921Z</time></trkpt><trkpt lat="45.5284812" lon="10.8253819"><ele>233.0</ele><time>2026-04-26T10:47:44.921Z</time></trkpt><trkpt lat="45.5286271" lon="10.825339"><ele>233.0</ele><time>2026-04-26T10:47:45.92Z</time></trkpt><trkpt lat="45.528775" lon="10.8253036"><ele>233.0</ele><time>2026-04-26T10:47:46.919Z</time></trkpt><trkpt lat="45.5289242" lon="10.8252696"><ele>236.66666666666669</ele><time>2026-04-26T10:47:47.92Z</time></trkpt><trkpt lat="45.5290743" lon="10.8252352"><ele>240.33333333333331</ele><time>2026-04-26T10:47:48.921Z</time></trkpt><trkpt lat="45.5292226" lon="10.8252021"><ele>244.0</ele><time>2026-04-26T10:47:49.92Z</time></trkpt><trkpt lat="45.52937" lon="10.8251839"><ele>244.0</ele><time>2026-04-26T10:47:50.921Z</time></trkpt><trkpt lat="45.5295169" lon="10.825197"><ele>244.0</ele><time>2026-04-26T10:47:51.921Z</time></trkpt><trkpt lat="45.529658" lon="10.8252416"><ele>244.0</ele><time>2026-04-26T10:47:52.921Z</time></trkpt><trkpt lat="45.5297851" lon="10.8253139"><ele>244.0</ele><time>2026-04-26T10:47:53.921Z</time></trkpt><trkpt lat="45.5299074" lon="10.8254055"><ele>244.33333333333331</ele><time>2026-04-26T10:47:54.921Z</time></trkpt><trkpt lat="45.5300351" lon="10.8255115"><ele>244.66666666666669</ele><time>2026-04-26T10:47:55.921Z</time></trkpt><trkpt lat="45.5301734" lon="10.82561"><ele>245.0</ele><time>2026-04-26T10:47:56.921Z</time></trkpt><trkpt lat="45.5303223" lon="10.8256903"><ele>244.66666666666669</ele><time>2026-04-26T10:47:57.921Z</time></trkpt><trkpt lat="45.5304798" lon="10.8257546"><ele>244.33333333333331</ele><time>2026-04-26T10:47:58.92Z</time></trkpt><trkpt lat="45.5306417" lon="10.8258109"><ele>244.0</ele><time>2026-04-26T10:47:59.921Z</time></trkpt><trkpt lat="45.5308055" lon="10.8258606"><ele>244.0</ele><time>2026-04-26T10:48:00.921Z</time></trkpt><trkpt lat="45.5309636" lon="10.8259059"><ele>244.0</ele><time>2026-04-26T10:48:01.92Z</time></trkpt><trkpt lat="45.5311149" lon="10.8259537"><ele>244.0</ele><time>2026-04-26T10:48:02.92Z</time></trkpt><trkpt lat="45.5312611" lon="10.8259998"><ele>247.2</ele><time>2026-04-26T10:48:03.92Z</time></trkpt><trkpt lat="45.5313924" lon="10.8260406"><ele>250.39999999999998</ele><time>2026-04-26T10:48:04.921Z</time></trkpt><trkpt lat="45.5314957" lon="10.8260727"><ele>253.6</ele><time>2026-04-26T10:48:05.921Z</time></trkpt><trkpt lat="45.5315869" lon="10.8261068"><ele>256.8</ele><time>2026-04-26T10:48:06.921Z</time></trkpt><trkpt lat="45.5316676" lon="10.8261486"><ele>260.0</ele><time>2026-04-26T10:48:07.92Z</time></trkpt><trkpt lat="45.5317431" lon="10.8262017"><ele>260.0</ele><time>2026-04-26T10:48:08.92Z</time></trkpt><trkpt lat="45.5318231" lon="10.8262638"><ele>260.0</ele><time>2026-04-26T10:48:09.921Z</time></trkpt><trkpt lat="45.5319149" lon="10.8263325"><ele>260.0</ele><time>2026-04-26T10:48:10.92Z</time></trkpt><trkpt lat="45.5320184" lon="10.8264092"><ele>260.0</ele><time>2026-04-26T10:48:11.921Z</time></trkpt><trkpt lat="45.532114" lon="10.8264802"><ele>260.0</ele><time>2026-04-26T10:48:12.92Z</time></trkpt><trkpt lat="45.5321929" lon="10.8265578"><ele>260.6</ele><time>2026-04-26T10:48:13.921Z</time></trkpt><trkpt lat="45.5322676" lon="10.8266599"><ele>261.2</ele><time>2026-04-26T10:48:14.92Z</time></trkpt><trkpt lat="45.5323358" lon="10.826769"><ele>261.8</ele><time>2026-04-26T10:48:15.921Z</time></trkpt><trkpt lat="45.5323876" lon="10.8268847"><ele>262.4</ele><time>2026-04-26T10:48:16.921Z</time></trkpt><trkpt lat="45.5324263" lon="10.8270114"><ele>263.0</ele><time>2026-04-26T10:48:17.921Z</time></trkpt><trkpt lat="45.5324603" lon="10.8271586"><ele>263.0</ele><time>2026-04-26T10:48:18.92Z</time></trkpt><trkpt lat="45.5324936" lon="10.8273142"><ele>263.0</ele><time>2026-04-26T10:48:19.92Z</time></trkpt><trkpt lat="45.5325409" lon="10.827454"><ele>263.0</ele><time>2026-04-26T10:48:20.92Z</time></trkpt><trkpt lat="45.532598" lon="10.8275573"><ele>263.0</ele><time>2026-04-26T10:48:21.921Z</time></trkpt><trkpt lat="45.5326815" lon="10.827643"><ele>263.0</ele><time>2026-04-26T10:48:22.92Z</time></trkpt><trkpt lat="45.532784" lon="10.8276909"><ele>263.0</ele><time>2026-04-26T10:48:23.92Z</time></trkpt><trkpt lat="45.5328999" lon="10.8277145"><ele>263.0</ele><time>2026-04-26T10:48:24.921Z</time></trkpt><trkpt lat="45.5330329" lon="10.8277154"><ele>263.0</ele><time>2026-04-26T10:48:25.921Z</time></trkpt><trkpt lat="45.533177" lon="10.8277051"><ele>263.0</ele><time>2026-04-26T10:48:26.92Z</time></trkpt><trkpt lat="45.5333196" lon="10.8277163"><ele>263.0</ele><time>2026-04-26T10:48:27.92Z</time></trkpt><trkpt lat="45.5334567" lon="10.8277431"><ele>263.0</ele><time>2026-04-26T10:48:28.92Z</time></trkpt><trkpt lat="45.5335605" lon="10.8277662"><ele>263.0</ele><time>2026-04-26T10:48:29.921Z</time></trkpt><trkpt lat="45.5336456" lon="10.8277984"><ele>263.0</ele><time>2026-04-26T10:48:30.921Z</time></trkpt><trkpt lat="45.5337167" lon="10.8278535"><ele>263.0</ele><time>2026-04-26T10:48:31.921Z</time></trkpt><trkpt lat="45.5338018" lon="10.8279398"><ele>262.0</ele><time>2026-04-26T10:48:32.921Z</time></trkpt><trkpt lat="45.5338992" lon="10.8280506"><ele>261.0</ele><time>2026-04-26T10:48:33.921Z</time></trkpt><trkpt lat="45.5339761" lon="10.8281414"><ele>260.0</ele><time>2026-04-26T10:48:34.921Z</time></trkpt><trkpt lat="45.5340351" lon="10.828234"><ele>259.0</ele><time>2026-04-26T10:48:35.92Z</time></trkpt><trkpt lat="45.5340735" lon="10.8283421"><ele>258.0</ele><time>2026-04-26T10:48:36.92Z</time></trkpt><trkpt lat="45.5340919" lon="10.8284448"><ele>258.0</ele><time>2026-04-26T10:48:37.921Z</time></trkpt><trkpt lat="45.5341109" lon="10.8285857"><ele>258.0</ele><time>2026-04-26T10:48:39.92Z</time></trkpt><trkpt lat="45.5341663" lon="10.8286291"><ele>258.0</ele><time>2026-04-26T10:48:42.92Z</time></trkpt><trkpt lat="45.5342692" lon="10.8285323"><ele>258.0</ele><time>2026-04-26T10:48:44.921Z</time></trkpt><trkpt lat="45.5343397" lon="10.8284627"><ele>258.0</ele><time>2026-04-26T10:48:45.92Z</time></trkpt><trkpt lat="45.5344153" lon="10.8284152"><ele>258.0</ele><time>2026-04-26T10:48:46.92Z</time></trkpt><trkpt lat="45.5344957" lon="10.8284026"><ele>258.0</ele><time>2026-04-26T10:48:47.921Z</time></trkpt><trkpt lat="45.5345917" lon="10.8284187"><ele>258.0</ele><time>2026-04-26T10:48:48.921Z</time></trkpt><trkpt lat="45.5346932" lon="10.8284556"><ele>258.0</ele><time>2026-04-26T10:48:49.921Z</time></trkpt><trkpt lat="45.5348112" lon="10.8285216"><ele>258.0</ele><time>2026-04-26T10:48:50.92Z</time></trkpt><trkpt lat="45.5349315" lon="10.8285817"><ele>253.0</ele><time>2026-04-26T10:48:51.921Z</time></trkpt><trkpt lat="45.5350489" lon="10.8286511"><ele>248.0</ele><time>2026-04-26T10:48:52.92Z</time></trkpt><trkpt lat="45.5351604" lon="10.8287325"><ele>243.0</ele><time>2026-04-26T10:48:53.921Z</time></trkpt><trkpt lat="45.5352444" lon="10.8288709"><ele>238.0</ele><time>2026-04-26T10:48:54.92Z</time></trkpt><trkpt lat="45.5353426" lon="10.8289946"><ele>237.60000000000002</ele><time>2026-04-26T10:48:55.921Z</time></trkpt><trkpt lat="45.5354349" lon="10.8291048"><ele>237.20000000000002</ele><time>2026-04-26T10:48:56.921Z</time></trkpt><trkpt lat="45.5355245" lon="10.8291883"><ele>236.8</ele><time>2026-04-26T10:48:57.921Z</time></trkpt><trkpt lat="45.5355973" lon="10.8292563"><ele>236.4</ele><time>2026-04-26T10:48:58.92Z</time></trkpt><trkpt lat="45.5356513" lon="10.8293084"><ele>236.0</ele><time>2026-04-26T10:48:59.92Z</time></trkpt><trkpt lat="45.5357164" lon="10.8293653"><ele>235.8</ele><time>2026-04-26T10:49:01.921Z</time></trkpt><trkpt lat="45.535648" lon="10.8292659"><ele>235.60000000000002</ele><time>2026-04-26T10:49:06.921Z</time></trkpt><trkpt lat="45.5355246" lon="10.8291804"><ele>235.4</ele><time>2026-04-26T10:49:08.92Z</time></trkpt><trkpt lat="45.5354502" lon="10.8291039"><ele>235.2</ele><time>2026-04-26T10:49:09.921Z</time></trkpt><trkpt lat="45.5353701" lon="10.8290058"><ele>235.0</ele><time>2026-04-26T10:49:10.921Z</time></trkpt><trkpt lat="45.5352833" lon="10.8288936"><ele>235.75</ele><time>2026-04-26T10:49:11.921Z</time></trkpt><trkpt lat="45.5351891" lon="10.8287795"><ele>236.5</ele><time>2026-04-26T10:49:12.92Z</time></trkpt><trkpt lat="45.5350913" lon="10.8286789"><ele>237.25</ele><time>2026-04-26T10:49:13.922Z</time></trkpt><trkpt lat="45.5349791" lon="10.8286061"><ele>238.0</ele><time>2026-04-26T10:49:14.921Z</time></trkpt><trkpt lat="45.5348512" lon="10.8285497"><ele>237.99999999999997</ele><time>2026-04-26T10:49:15.921Z</time></trkpt><trkpt lat="45.5347531" lon="10.8284972"><ele>238.0</ele><time>2026-04-26T10:49:16.921Z</time></trkpt><trkpt lat="45.5346679" lon="10.8284488"><ele>238.0</ele><time>2026-04-26T10:49:17.92Z</time></trkpt><trkpt lat="45.5345817" lon="10.8284131"><ele>238.0</ele><time>2026-04-26T10:49:18.921Z</time></trkpt><trkpt lat="45.5345175" lon="10.8283916"><ele>237.99999999999997</ele><time>2026-04-26T10:49:19.921Z</time></trkpt><trkpt lat="45.5344388" lon="10.8283915"><ele>238.0</ele><time>2026-04-26T10:49:20.921Z</time></trkpt><trkpt lat="45.5343727" lon="10.8284193"><ele>240.2</ele><time>2026-04-26T10:49:21.92Z</time></trkpt><trkpt lat="45.5342704" lon="10.8285292"><ele>242.4</ele><time>2026-04-26T10:49:23.921Z</time></trkpt><trkpt lat="45.5341666" lon="10.8286242"><ele>244.59999999999997</ele><time>2026-04-26T10:49:25.921Z</time></trkpt><trkpt lat="45.534096" lon="10.828693"><ele>246.79999999999998</ele><time>2026-04-26T10:49:27.921Z</time></trkpt><trkpt lat="45.5340425" lon="10.8287424"><ele>249.0</ele><time>2026-04-26T10:49:32.92Z</time></trkpt><trkpt lat="45.5338955" lon="10.8288377"><ele>249.0</ele><time>2026-04-26T10:49:34.921Z</time></trkpt><trkpt lat="45.5337952" lon="10.8289133"><ele>249.0</ele><time>2026-04-26T10:49:35.921Z</time></trkpt><trkpt lat="45.5336765" lon="10.8290038"><ele>249.0</ele><time>2026-04-26T10:49:36.921Z</time></trkpt><trkpt lat="45.5335557" lon="10.8290874"><ele>249.0</ele><time>2026-04-26T10:49:37.921Z</time></trkpt><trkpt lat="45.5334379" lon="10.8291749"><ele>249.66666666666669</ele><time>2026-04-26T10:49:38.921Z</time></trkpt><trkpt lat="45.5333451" lon="10.8293274"><ele>250.33333333333334</ele><time>2026-04-26T10:49:39.92Z</time></trkpt><trkpt lat="45.5332305" lon="10.8294889"><ele>251.0</ele><time>2026-04-26T10:49:40.921Z</time></trkpt><trkpt lat="45.5331186" lon="10.8296409"><ele>251.0</ele><time>2026-04-26T10:49:41.92Z</time></trkpt><trkpt lat="45.5330214" lon="10.8298452"><ele>251.0</ele><time>2026-04-26T10:49:42.921Z</time></trkpt><trkpt lat="45.5329234" lon="10.8300358"><ele>251.0</ele><time>2026-04-26T10:49:43.921Z</time></trkpt><trkpt lat="45.5328394" lon="10.8302191"><ele>254.0</ele><time>2026-04-26T10:49:44.92Z</time></trkpt><trkpt lat="45.5327711" lon="10.830374"><ele>257.0</ele><time>2026-04-26T10:49:45.92Z</time></trkpt><trkpt lat="45.5327101" lon="10.8305461"><ele>260.0</ele><time>2026-04-26T10:49:46.921Z</time></trkpt><trkpt lat="45.5326712" lon="10.830737"><ele>263.0</ele><time>2026-04-26T10:49:47.92Z</time></trkpt><trkpt lat="45.5326466" lon="10.8309152"><ele>260.5</ele><time>2026-04-26T10:49:48.92Z</time></trkpt><trkpt lat="45.5326218" lon="10.8310816"><ele>258.0</ele><time>2026-04-26T10:49:49.92Z</time></trkpt><trkpt lat="45.5325708" lon="10.8312199"><ele>255.5</ele><time>2026-04-26T10:49:50.921Z</time></trkpt><trkpt lat="45.5325077" lon="10.8313762"><ele>253.0</ele><time>2026-04-26T10:49:51.921Z</time></trkpt><trkpt lat="45.5324225" lon="10.83154"><ele>253.0</ele><time>2026-04-26T10:49:52.92Z</time></trkpt><trkpt lat="45.5323367" lon="10.8317099"><ele>253.0</ele><time>2026-04-26T10:49:53.921Z</time></trkpt><trkpt lat="45.5322522" lon="10.8318741"><ele>253.0</ele><time>2026-04-26T10:49:54.921Z</time></trkpt><trkpt lat="45.5321754" lon="10.832048"><ele>253.0</ele><time>2026-04-26T10:49:55.92Z</time></trkpt><trkpt lat="45.5320847" lon="10.83223"><ele>252.25</ele><time>2026-04-26T10:49:56.921Z</time></trkpt><trkpt lat="45.5319977" lon="10.8324101"><ele>251.5</ele><time>2026-04-26T10:49:57.92Z</time></trkpt><trkpt lat="45.5319202" lon="10.832575"><ele>250.75</ele><time>2026-04-26T10:49:58.921Z</time></trkpt><trkpt lat="45.5318529" lon="10.832717"><ele>250.0</ele><time>2026-04-26T10:49:59.921Z</time></trkpt><trkpt lat="45.5317783" lon="10.83286"><ele>250.0</ele><time>2026-04-26T10:50:00.921Z</time></trkpt><trkpt lat="45.5317082" lon="10.8330065"><ele>250.0</ele><time>2026-04-26T10:50:01.921Z</time></trkpt><trkpt lat="45.5316528" lon="10.8331749"><ele>250.0</ele><time>2026-04-26T10:50:02.921Z</time></trkpt><trkpt lat="45.5316199" lon="10.8333396"><ele>250.0</ele><time>2026-04-26T10:50:03.921Z</time></trkpt><trkpt lat="45.5316134" lon="10.8334494"><ele>250.0</ele><time>2026-04-26T10:50:04.921Z</time></trkpt><trkpt lat="45.5315686" lon="10.8335353"><ele>250.0</ele><time>2026-04-26T10:50:05.921Z</time></trkpt><trkpt lat="45.5314988" lon="10.8336483"><ele>250.0</ele><time>2026-04-26T10:50:06.92Z</time></trkpt><trkpt lat="45.5314094" lon="10.8337798"><ele>250.0</ele><time>2026-04-26T10:50:07.921Z</time></trkpt><trkpt lat="45.5313219" lon="10.8339158"><ele>250.0</ele><time>2026-04-26T10:50:08.92Z</time></trkpt><trkpt lat="45.5312647" lon="10.8340146"><ele>250.4</ele><time>2026-04-26T10:50:09.921Z</time></trkpt><trkpt lat="45.5312013" lon="10.8341323"><ele>250.8</ele><time>2026-04-26T10:50:11.92Z</time></trkpt><trkpt lat="45.5311985" lon="10.8342426"><ele>251.2</ele><time>2026-04-26T10:50:14.921Z</time></trkpt><trkpt lat="45.5312384" lon="10.8343641"><ele>251.6</ele><time>2026-04-26T10:50:16.92Z</time></trkpt><trkpt lat="45.531285" lon="10.8344911"><ele>252.0</ele><time>2026-04-26T10:50:18.921Z</time></trkpt><trkpt lat="45.5313074" lon="10.8346177"><ele>252.16666666666666</ele><time>2026-04-26T10:50:20.921Z</time></trkpt><trkpt lat="45.531286" lon="10.8347285"><ele>252.33333333333331</ele><time>2026-04-26T10:50:22.921Z</time></trkpt><trkpt lat="45.531261" lon="10.8348269"><ele>252.5</ele><time>2026-04-26T10:50:31.92Z</time></trkpt><trkpt lat="45.5312404" lon="10.8349736"><ele>252.66666666666666</ele><time>2026-04-26T10:50:33.92Z</time></trkpt><trkpt lat="45.5312091" lon="10.835071"><ele>252.83333333333331</ele><time>2026-04-26T10:50:34.921Z</time></trkpt><trkpt lat="45.5311816" lon="10.835178"><ele>253.0</ele><time>2026-04-26T10:50:35.921Z</time></trkpt><trkpt lat="45.53116" lon="10.8352693"><ele>253.0</ele><time>2026-04-26T10:50:36.921Z</time></trkpt><trkpt lat="45.5311409" lon="10.8353749"><ele>253.0</ele><time>2026-04-26T10:50:38.92Z</time></trkpt><trkpt lat="45.5312295" lon="10.8352825"><ele>253.0</ele><time>2026-04-26T10:50:42.92Z</time></trkpt><trkpt lat="45.5312684" lon="10.835179"><ele>253.0</ele><time>2026-04-26T10:50:43.921Z</time></trkpt><trkpt lat="45.5313139" lon="10.835062"><ele>253.0</ele><time>2026-04-26T10:50:44.921Z</time></trkpt><trkpt lat="45.5313634" lon="10.8349289"><ele>253.0</ele><time>2026-04-26T10:50:45.921Z</time></trkpt><trkpt lat="45.5314202" lon="10.8347873"><ele>253.0</ele><time>2026-04-26T10:50:46.921Z</time></trkpt><trkpt lat="45.5315011" lon="10.8346579"><ele>253.0</ele><time>2026-04-26T10:50:47.921Z</time></trkpt><trkpt lat="45.53161" lon="10.8345571"><ele>253.0</ele><time>2026-04-26T10:50:48.921Z</time></trkpt><trkpt lat="45.5317493" lon="10.8344778"><ele>253.0</ele><time>2026-04-26T10:50:49.92Z</time></trkpt><trkpt lat="45.5319006" lon="10.8344238"><ele>253.0</ele><time>2026-04-26T10:50:50.92Z</time></trkpt><trkpt lat="45.5320688" lon="10.8343754"><ele>253.0</ele><time>2026-04-26T10:50:51.92Z</time></trkpt><trkpt lat="45.5322506" lon="10.834302"><ele>255.66666666666666</ele><time>2026-04-26T10:50:52.92Z</time></trkpt><trkpt lat="45.5324244" lon="10.8342137"><ele>258.3333333333333</ele><time>2026-04-26T10:50:53.92Z</time></trkpt><trkpt lat="45.5325971" lon="10.8341141"><ele>261.0</ele><time>2026-04-26T10:50:54.92Z</time></trkpt><trkpt lat="45.532767" lon="10.8340179"><ele>265.6666666666667</ele><time>2026-04-26T10:50:55.92Z</time></trkpt><trkpt lat="45.5329354" lon="10.8339256"><ele>270.33333333333337</ele><time>2026-04-26T10:50:56.92Z</time></trkpt><trkpt lat="45.5330981" lon="10.8338365"><ele>275.0</ele><time>2026-04-26T10:50:57.92Z</time></trkpt><trkpt lat="45.5332566" lon="10.8337504"><ele>275.0</ele><time>2026-04-26T10:50:58.92Z</time></trkpt><trkpt lat="45.5334136" lon="10.8336708"><ele>275.0</ele><time>2026-04-26T10:50:59.92Z</time></trkpt><trkpt lat="45.5335684" lon="10.8335931"><ele>275.0</ele><time>2026-04-26T10:51:00.919Z</time></trkpt><trkpt lat="45.5337185" lon="10.8335195"><ele>273.0</ele><time>2026-04-26T10:51:01.92Z</time></trkpt><trkpt lat="45.5338629" lon="10.8334527"><ele>271.0</ele><time>2026-04-26T10:51:02.92Z</time></trkpt><trkpt lat="45.5340104" lon="10.8334128"><ele>269.0</ele><time>2026-04-26T10:51:03.919Z</time></trkpt><trkpt lat="45.5341534" lon="10.8334253"><ele>267.0</ele><time>2026-04-26T10:51:04.92Z</time></trkpt><trkpt lat="45.5342864" lon="10.8334574"><ele>267.0</ele><time>2026-04-26T10:51:05.919Z</time></trkpt><trkpt lat="45.5344285" lon="10.833471"><ele>267.0</ele><time>2026-04-26T10:51:06.92Z</time></trkpt><trkpt lat="45.5345777" lon="10.8334425"><ele>267.0</ele><time>2026-04-26T10:51:07.919Z</time></trkpt><trkpt lat="45.5347282" lon="10.8333854"><ele>267.0</ele><time>2026-04-26T10:51:08.92Z</time></trkpt><trkpt lat="45.5348776" lon="10.8333112"><ele>269.6666666666667</ele><time>2026-04-26T10:51:09.919Z</time></trkpt><trkpt lat="45.535028" lon="10.8332489"><ele>272.33333333333337</ele><time>2026-04-26T10:51:10.92Z</time></trkpt><trkpt lat="45.5351821" lon="10.8332057"><ele>275.0</ele><time>2026-04-26T10:51:11.92Z</time></trkpt><trkpt lat="45.535335" lon="10.8331633"><ele>279.33333333333337</ele><time>2026-04-26T10:51:12.92Z</time></trkpt><trkpt lat="45.5354797" lon="10.8330815"><ele>283.6666666666667</ele><time>2026-04-26T10:51:13.919Z</time></trkpt><trkpt lat="45.5356104" lon="10.8329625"><ele>288.0</ele><time>2026-04-26T10:51:14.919Z</time></trkpt><trkpt lat="45.5357254" lon="10.8328112"><ele>288.0</ele><time>2026-04-26T10:51:15.92Z</time></trkpt><trkpt lat="45.5358339" lon="10.8326495"><ele>288.0</ele><time>2026-04-26T10:51:16.92Z</time></trkpt><trkpt lat="45.5359503" lon="10.8325002"><ele>288.0</ele><time>2026-04-26T10:51:17.92Z</time></trkpt><trkpt lat="45.536079" lon="10.8323929"><ele>287.0</ele><time>2026-04-26T10:51:18.92Z</time></trkpt><trkpt lat="45.5362127" lon="10.8323476"><ele>286.0</ele><time>2026-04-26T10:51:19.919Z</time></trkpt><trkpt lat="45.5363453" lon="10.8323574"><ele>285.0</ele><time>2026-04-26T10:51:20.919Z</time></trkpt><trkpt lat="45.5364774" lon="10.8324295"><ele>284.0</ele><time>2026-04-26T10:51:21.92Z</time></trkpt><trkpt lat="45.5366088" lon="10.832534"><ele>289.0</ele><time>2026-04-26T10:51:22.919Z</time></trkpt><trkpt lat="45.5367481" lon="10.8326417"><ele>294.0</ele><time>2026-04-26T10:51:23.92Z</time></trkpt><trkpt lat="45.5368922" lon="10.8327352"><ele>299.0</ele><time>2026-04-26T10:51:24.92Z</time></trkpt><trkpt lat="45.5370396" lon="10.8328204"><ele>299.6666666666667</ele><time>2026-04-26T10:51:25.92Z</time></trkpt><trkpt lat="45.5371875" lon="10.8328917"><ele>300.3333333333333</ele><time>2026-04-26T10:51:26.92Z</time></trkpt><trkpt lat="45.5373428" lon="10.8329132"><ele>301.0</ele><time>2026-04-26T10:51:27.919Z</time></trkpt><trkpt lat="45.537498" lon="10.8328906"><ele>301.0</ele><time>2026-04-26T10:51:28.919Z</time></trkpt><trkpt lat="45.5376501" lon="10.832838"><ele>301.0</ele><time>2026-04-26T10:51:29.919Z</time></trkpt><trkpt lat="45.5377993" lon="10.8327622"><ele>301.0</ele><time>2026-04-26T10:51:30.92Z</time></trkpt><trkpt lat="45.5379446" lon="10.8326641"><ele>299.0</ele><time>2026-04-26T10:51:31.92Z</time></trkpt><trkpt lat="45.5380863" lon="10.8325521"><ele>297.0</ele><time>2026-04-26T10:51:32.92Z</time></trkpt><trkpt lat="45.5382308" lon="10.8324447"><ele>295.0</ele><time>2026-04-26T10:51:33.92Z</time></trkpt><trkpt lat="45.538386" lon="10.8323765"><ele>295.0</ele><time>2026-04-26T10:51:34.92Z</time></trkpt><trkpt lat="45.5385457" lon="10.8323489"><ele>295.0</ele><time>2026-04-26T10:51:35.919Z</time></trkpt><trkpt lat="45.5387016" lon="10.8323687"><ele>295.0</ele><time>2026-04-26T10:51:36.92Z</time></trkpt><trkpt lat="45.5388547" lon="10.8324426"><ele>295.3333333333333</ele><time>2026-04-26T10:51:37.919Z</time></trkpt><trkpt lat="45.5389976" lon="10.8325434"><ele>295.6666666666667</ele><time>2026-04-26T10:51:38.92Z</time></trkpt><trkpt lat="45.5391327" lon="10.8326614"><ele>296.0</ele><time>2026-04-26T10:51:39.919Z</time></trkpt><trkpt lat="45.5392634" lon="10.8327823"><ele>298.5</ele><time>2026-04-26T10:51:40.92Z</time></trkpt><trkpt lat="45.5393731" lon="10.8329275"><ele>301.0</ele><time>2026-04-26T10:51:41.92Z</time></trkpt><trkpt lat="45.5394507" lon="10.8331071"><ele>303.5</ele><time>2026-04-26T10:51:42.919Z</time></trkpt><trkpt lat="45.5395" lon="10.833294"><ele>306.0</ele><time>2026-04-26T10:51:43.92Z</time></trkpt><trkpt lat="45.5395627" lon="10.8334654"><ele>308.75</ele><time>2026-04-26T10:51:44.919Z</time></trkpt><trkpt lat="45.5396591" lon="10.8336123"><ele>311.5</ele><time>2026-04-26T10:51:45.92Z</time></trkpt><trkpt lat="45.5397814" lon="10.8337184"><ele>314.25</ele><time>2026-04-26T10:51:46.919Z</time></trkpt><trkpt lat="45.5399202" lon="10.8337904"><ele>317.0</ele><time>2026-04-26T10:51:47.919Z</time></trkpt><trkpt lat="45.5400693" lon="10.8338353"><ele>317.0</ele><time>2026-04-26T10:51:48.92Z</time></trkpt><trkpt lat="45.5402282" lon="10.8338605"><ele>317.0</ele><time>2026-04-26T10:51:49.919Z</time></trkpt><trkpt lat="45.5403896" lon="10.8338788"><ele>317.0</ele><time>2026-04-26T10:51:50.92Z</time></trkpt><trkpt lat="45.5405514" lon="10.8338979"><ele>318.6666666666667</ele><time>2026-04-26T10:51:51.92Z</time></trkpt><trkpt lat="45.5407155" lon="10.8339172"><ele>320.3333333333333</ele><time>2026-04-26T10:51:52.919Z</time></trkpt><trkpt lat="45.5408788" lon="10.8339385"><ele>322.0</ele><time>2026-04-26T10:51:53.919Z</time></trkpt><trkpt lat="45.5410431" lon="10.8339581"><ele>322.0</ele><time>2026-04-26T10:51:54.919Z</time></trkpt><trkpt lat="45.5412068" lon="10.8339726"><ele>322.0</ele><time>2026-04-26T10:51:55.92Z</time></trkpt><trkpt lat="45.5413671" lon="10.8339779"><ele>322.0</ele><time>2026-04-26T10:51:56.919Z</time></trkpt><trkpt lat="45.5415218" lon="10.8339757"><ele>322.66666666666663</ele><time>2026-04-26T10:51:57.92Z</time></trkpt><trkpt lat="45.5416808" lon="10.8339901"><ele>323.3333333333333</ele><time>2026-04-26T10:51:58.919Z</time></trkpt><trkpt lat="45.5418343" lon="10.8340515"><ele>324.0</ele><time>2026-04-26T10:51:59.92Z</time></trkpt><trkpt lat="45.5419727" lon="10.834159"><ele>321.6666666666667</ele><time>2026-04-26T10:52:00.919Z</time></trkpt><trkpt lat="45.5421018" lon="10.8342851"><ele>319.33333333333337</ele><time>2026-04-26T10:52:01.92Z</time></trkpt><trkpt lat="45.5422357" lon="10.834402"><ele>317.0</ele><time>2026-04-26T10:52:02.919Z</time></trkpt><trkpt lat="45.5423802" lon="10.8344921"><ele>322.33333333333337</ele><time>2026-04-26T10:52:03.919Z</time></trkpt><trkpt lat="45.5425297" lon="10.8345621"><ele>327.6666666666667</ele><time>2026-04-26T10:52:04.919Z</time></trkpt><trkpt lat="45.5426813" lon="10.8346221"><ele>333.0</ele><time>2026-04-26T10:52:05.919Z</time></trkpt><trkpt lat="45.5428349" lon="10.8346729"><ele>332.6666666666667</ele><time>2026-04-26T10:52:06.92Z</time></trkpt><trkpt lat="45.5429893" lon="10.834714"><ele>332.33333333333337</ele><time>2026-04-26T10:52:07.92Z</time></trkpt><trkpt lat="45.5431439" lon="10.8347434"><ele>332.0</ele><time>2026-04-26T10:52:08.92Z</time></trkpt><trkpt lat="45.5433003" lon="10.8347632"><ele>332.0</ele><time>2026-04-26T10:52:09.919Z</time></trkpt><trkpt lat="45.5434574" lon="10.8347796"><ele>332.0</ele><time>2026-04-26T10:52:10.92Z</time></trkpt><trkpt lat="45.5436142" lon="10.8347927"><ele>332.0</ele><time>2026-04-26T10:52:11.92Z</time></trkpt><trkpt lat="45.5437706" lon="10.8348022"><ele>333.33333333333337</ele><time>2026-04-26T10:52:12.92Z</time></trkpt><trkpt lat="45.5439275" lon="10.8348036"><ele>334.6666666666667</ele><time>2026-04-26T10:52:13.92Z</time></trkpt><trkpt lat="45.5440834" lon="10.8347991"><ele>336.0</ele><time>2026-04-26T10:52:14.92Z</time></trkpt><trkpt lat="45.54424" lon="10.8347934"><ele>336.0</ele><time>2026-04-26T10:52:15.92Z</time></trkpt><trkpt lat="45.5443967" lon="10.8348037"><ele>336.0</ele><time>2026-04-26T10:52:16.919Z</time></trkpt><trkpt lat="45.5445502" lon="10.8348358"><ele>336.0</ele><time>2026-04-26T10:52:17.92Z</time></trkpt><trkpt lat="45.5446994" lon="10.8348858"><ele>335.6666666666667</ele><time>2026-04-26T10:52:18.919Z</time></trkpt><trkpt lat="45.5448455" lon="10.8349519"><ele>335.33333333333337</ele><time>2026-04-26T10:52:19.919Z</time></trkpt><trkpt lat="45.5449795" lon="10.8350501"><ele>335.0</ele><time>2026-04-26T10:52:20.92Z</time></trkpt><trkpt lat="45.5451013" lon="10.8351753"><ele>336.25</ele><time>2026-04-26T10:52:21.92Z</time></trkpt><trkpt lat="45.5452097" lon="10.8353195"><ele>337.5</ele><time>2026-04-26T10:52:22.919Z</time></trkpt><trkpt lat="45.5453083" lon="10.8354765"><ele>338.75</ele><time>2026-04-26T10:52:23.92Z</time></trkpt><trkpt lat="45.5453938" lon="10.8356421"><ele>340.0</ele><time>2026-04-26T10:52:24.919Z</time></trkpt><trkpt lat="45.5454598" lon="10.8358161"><ele>341.0</ele><time>2026-04-26T10:52:25.92Z</time></trkpt><trkpt lat="45.5454901" lon="10.835998"><ele>342.0</ele><time>2026-04-26T10:52:26.919Z</time></trkpt><trkpt lat="45.5454769" lon="10.8361749"><ele>343.0</ele><time>2026-04-26T10:52:27.92Z</time></trkpt><trkpt lat="45.5454199" lon="10.8363476"><ele>344.0</ele><time>2026-04-26T10:52:28.92Z</time></trkpt><trkpt lat="45.5453207" lon="10.8364941"><ele>346.6666666666667</ele><time>2026-04-26T10:52:29.92Z</time></trkpt><trkpt lat="45.5451937" lon="10.8366001"><ele>349.3333333333333</ele><time>2026-04-26T10:52:30.92Z</time></trkpt><trkpt lat="45.5450473" lon="10.8366763"><ele>352.0</ele><time>2026-04-26T10:52:31.92Z</time></trkpt><trkpt lat="45.5448927" lon="10.8367404"><ele>351.66666666666663</ele><time>2026-04-26T10:52:32.92Z</time></trkpt><trkpt lat="45.5447359" lon="10.8368072"><ele>351.3333333333333</ele><time>2026-04-26T10:52:33.92Z</time></trkpt><trkpt lat="45.5445721" lon="10.8368774"><ele>351.0</ele><time>2026-04-26T10:52:34.919Z</time></trkpt><trkpt lat="45.544407" lon="10.8369431"><ele>352.6666666666667</ele><time>2026-04-26T10:52:35.919Z</time></trkpt><trkpt lat="45.5442412" lon="10.8370088"><ele>354.33333333333337</ele><time>2026-04-26T10:52:36.919Z</time></trkpt><trkpt lat="45.5440755" lon="10.8370785"><ele>356.0</ele><time>2026-04-26T10:52:37.92Z</time></trkpt><trkpt lat="45.5439137" lon="10.8371511"><ele>356.0</ele><time>2026-04-26T10:52:38.92Z</time></trkpt><trkpt lat="45.5437591" lon="10.8372345"><ele>356.0</ele><time>2026-04-26T10:52:39.92Z</time></trkpt><trkpt lat="45.5436135" lon="10.8373385"><ele>356.0</ele><time>2026-04-26T10:52:40.919Z</time></trkpt><trkpt lat="45.5434867" lon="10.8374716"><ele>358.5</ele><time>2026-04-26T10:52:41.92Z</time></trkpt><trkpt lat="45.5433708" lon="10.8376315"><ele>361.0</ele><time>2026-04-26T10:52:42.92Z</time></trkpt><trkpt lat="45.5433096" lon="10.8378237"><ele>363.5</ele><time>2026-04-26T10:52:43.92Z</time></trkpt><trkpt lat="45.5432416" lon="10.8379845"><ele>366.0</ele><time>2026-04-26T10:52:44.919Z</time></trkpt><trkpt lat="45.543163" lon="10.8381134"><ele>366.4</ele><time>2026-04-26T10:52:45.919Z</time></trkpt><trkpt lat="45.5430758" lon="10.8382113"><ele>366.8</ele><time>2026-04-26T10:52:46.92Z</time></trkpt><trkpt lat="45.5429867" lon="10.8382948"><ele>367.2</ele><time>2026-04-26T10:52:47.92Z</time></trkpt><trkpt lat="45.5429052" lon="10.8383543"><ele>367.59999999999997</ele><time>2026-04-26T10:52:48.92Z</time></trkpt><trkpt lat="45.5428513" lon="10.8384008"><ele>368.0</ele><time>2026-04-26T10:52:49.919Z</time></trkpt><trkpt lat="45.5427863" lon="10.8384881"><ele>368.0</ele><time>2026-04-26T10:52:51.92Z</time></trkpt><trkpt lat="45.5428806" lon="10.8384697"><ele>368.0</ele><time>2026-04-26T10:52:56.919Z</time></trkpt><trkpt lat="45.5429417" lon="10.8384026"><ele>368.0</ele><time>2026-04-26T10:52:57.919Z</time></trkpt><trkpt lat="45.5430282" lon="10.8383376"><ele>368.0</ele><time>2026-04-26T10:52:58.92Z</time></trkpt><trkpt lat="45.5431251" lon="10.8382481"><ele>368.0</ele><time>2026-04-26T10:52:59.92Z</time></trkpt><trkpt lat="45.5432115" lon="10.8381208"><ele>368.0</ele><time>2026-04-26T10:53:00.92Z</time></trkpt><trkpt lat="45.5432778" lon="10.8379721"><ele>368.0</ele><time>2026-04-26T10:53:01.919Z</time></trkpt><trkpt lat="45.5433394" lon="10.8378181"><ele>368.0</ele><time>2026-04-26T10:53:02.92Z</time></trkpt><trkpt lat="45.5434046" lon="10.8376622"><ele>368.0</ele><time>2026-04-26T10:53:03.92Z</time></trkpt><trkpt lat="45.5434983" lon="10.8375168"><ele>367.5</ele><time>2026-04-26T10:53:04.92Z</time></trkpt><trkpt lat="45.5436079" lon="10.8373988"><ele>367.0</ele><time>2026-04-26T10:53:05.919Z</time></trkpt><trkpt lat="45.5437269" lon="10.8373108"><ele>366.5</ele><time>2026-04-26T10:53:06.92Z</time></trkpt><trkpt lat="45.5438625" lon="10.8372413"><ele>366.0</ele><time>2026-04-26T10:53:07.92Z</time></trkpt><trkpt lat="45.5440088" lon="10.8371736"><ele>362.6666666666667</ele><time>2026-04-26T10:53:08.92Z</time></trkpt><trkpt lat="45.544159" lon="10.8371013"><ele>359.33333333333337</ele><time>2026-04-26T10:53:09.92Z</time></trkpt><trkpt lat="45.5443169" lon="10.8370317"><ele>356.0</ele><time>2026-04-26T10:53:10.92Z</time></trkpt><trkpt lat="45.5444742" lon="10.8369699"><ele>354.6666666666667</ele><time>2026-04-26T10:53:11.92Z</time></trkpt><trkpt lat="45.5446346" lon="10.8369112"><ele>353.3333333333333</ele><time>2026-04-26T10:53:12.92Z</time></trkpt><trkpt lat="45.544792" lon="10.8368507"><ele>352.0</ele><time>2026-04-26T10:53:13.92Z</time></trkpt><trkpt lat="45.5449485" lon="10.8367898"><ele>352.0</ele><time>2026-04-26T10:53:14.92Z</time></trkpt><trkpt lat="45.5451008" lon="10.8367196"><ele>352.0</ele><time>2026-04-26T10:53:15.92Z</time></trkpt><trkpt lat="45.5452439" lon="10.8366235"><ele>352.0</ele><time>2026-04-26T10:53:16.919Z</time></trkpt><trkpt lat="45.5453696" lon="10.8364945"><ele>350.0</ele><time>2026-04-26T10:53:17.92Z</time></trkpt><trkpt lat="45.5454606" lon="10.8363355"><ele>348.0</ele><time>2026-04-26T10:53:18.919Z</time></trkpt><trkpt lat="45.5455101" lon="10.8361477"><ele>346.0</ele><time>2026-04-26T10:53:19.919Z</time></trkpt><trkpt lat="45.5455153" lon="10.8359439"><ele>344.0</ele><time>2026-04-26T10:53:20.92Z</time></trkpt><trkpt lat="45.5454809" lon="10.8357491"><ele>344.6666666666667</ele><time>2026-04-26T10:53:21.92Z</time></trkpt><trkpt lat="45.5454164" lon="10.8355685"><ele>345.3333333333333</ele><time>2026-04-26T10:53:22.919Z</time></trkpt><trkpt lat="45.5453239" lon="10.8353926"><ele>346.0</ele><time>2026-04-26T10:53:23.92Z</time></trkpt><trkpt lat="45.5452141" lon="10.8352302"><ele>342.3333333333333</ele><time>2026-04-26T10:53:24.92Z</time></trkpt><trkpt lat="45.5450944" lon="10.8350792"><ele>338.6666666666667</ele><time>2026-04-26T10:53:25.92Z</time></trkpt><trkpt lat="45.5449602" lon="10.8349516"><ele>335.0</ele><time>2026-04-26T10:53:26.919Z</time></trkpt><trkpt lat="45.5448263" lon="10.8348718"><ele>335.0</ele><time>2026-04-26T10:53:27.92Z</time></trkpt><trkpt lat="45.5447058" lon="10.834823"><ele>335.0</ele><time>2026-04-26T10:53:28.92Z</time></trkpt><trkpt lat="45.5446007" lon="10.8347895"><ele>335.0</ele><time>2026-04-26T10:53:29.919Z</time></trkpt><trkpt lat="45.5445121" lon="10.8347663"><ele>335.0</ele><time>2026-04-26T10:53:30.92Z</time></trkpt><trkpt lat="45.5444457" lon="10.8347492"><ele>335.0</ele><time>2026-04-26T10:53:31.92Z</time></trkpt><trkpt lat="45.5443684" lon="10.8347195"><ele>335.0</ele><time>2026-04-26T10:53:33.92Z</time></trkpt><trkpt lat="45.5444595" lon="10.8346601"><ele>335.0</ele><time>2026-04-26T10:53:38.919Z</time></trkpt><trkpt lat="45.5445653" lon="10.8346749"><ele>335.0</ele><time>2026-04-26T10:53:40.92Z</time></trkpt><trkpt lat="45.5446859" lon="10.8346949"><ele>335.0</ele><time>2026-04-26T10:53:42.919Z</time></trkpt><trkpt lat="45.5447565" lon="10.8347144"><ele>335.0</ele><time>2026-04-26T10:53:43.919Z</time></trkpt><trkpt lat="45.5448302" lon="10.8347421"><ele>335.0</ele><time>2026-04-26T10:53:44.919Z</time></trkpt><trkpt lat="45.5449029" lon="10.8347788"><ele>335.0</ele><time>2026-04-26T10:53:45.92Z</time></trkpt><trkpt lat="45.5449763" lon="10.8348142"><ele>335.0</ele><time>2026-04-26T10:53:46.92Z</time></trkpt><trkpt lat="45.545052" lon="10.8348456"><ele>335.0</ele><time>2026-04-26T10:53:47.92Z</time></trkpt><trkpt lat="45.5451258" lon="10.8348804"><ele>335.0</ele><time>2026-04-26T10:53:48.92Z</time></trkpt><trkpt lat="45.5452037" lon="10.8349264"><ele>335.0</ele><time>2026-04-26T10:53:49.92Z</time></trkpt><trkpt lat="45.545297" lon="10.8349845"><ele>336.25</ele><time>2026-04-26T10:53:50.919Z</time></trkpt><trkpt lat="45.5454059" lon="10.8350632"><ele>337.5</ele><time>2026-04-26T10:53:51.919Z</time></trkpt><trkpt lat="45.545526" lon="10.8351697"><ele>338.75</ele><time>2026-04-26T10:53:52.919Z</time></trkpt><trkpt lat="45.5456521" lon="10.8352919"><ele>340.0</ele><time>2026-04-26T10:53:53.92Z</time></trkpt><trkpt lat="45.5457845" lon="10.8354178"><ele>340.0</ele><time>2026-04-26T10:53:54.919Z</time></trkpt><trkpt lat="45.5459185" lon="10.8355192"><ele>340.0</ele><time>2026-04-26T10:53:55.919Z</time></trkpt><trkpt lat="45.5460595" lon="10.8355987"><ele>340.0</ele><time>2026-04-26T10:53:56.919Z</time></trkpt><trkpt lat="45.5462134" lon="10.8356535"><ele>337.3333333333333</ele><time>2026-04-26T10:53:57.92Z</time></trkpt><trkpt lat="45.5463735" lon="10.8356962"><ele>334.6666666666667</ele><time>2026-04-26T10:53:58.919Z</time></trkpt><trkpt lat="45.5465351" lon="10.8357432"><ele>332.0</ele><time>2026-04-26T10:53:59.919Z</time></trkpt><trkpt lat="45.5466938" lon="10.8357974"><ele>332.0</ele><time>2026-04-26T10:54:00.92Z</time></trkpt><trkpt lat="45.5468511" lon="10.8358578"><ele>332.0</ele><time>2026-04-26T10:54:01.92Z</time></trkpt><trkpt lat="45.547006" lon="10.8359209"><ele>332.0</ele><time>2026-04-26T10:54:02.919Z</time></trkpt><trkpt lat="45.5471598" lon="10.8359776"><ele>332.5</ele><time>2026-04-26T10:54:03.92Z</time></trkpt><trkpt lat="45.5473146" lon="10.8360256"><ele>333.0</ele><time>2026-04-26T10:54:04.92Z</time></trkpt><trkpt lat="45.5474644" lon="10.8360632"><ele>333.5</ele><time>2026-04-26T10:54:05.92Z</time></trkpt><trkpt lat="45.5475993" lon="10.8360874"><ele>334.0</ele><time>2026-04-26T10:54:06.92Z</time></trkpt><trkpt lat="45.547717" lon="10.836107"><ele>334.0</ele><time>2026-04-26T10:54:07.919Z</time></trkpt><trkpt lat="45.5478206" lon="10.8361193"><ele>334.0</ele><time>2026-04-26T10:54:08.919Z</time></trkpt><trkpt lat="45.5479147" lon="10.8361435"><ele>334.0</ele><time>2026-04-26T10:54:09.919Z</time></trkpt><trkpt lat="45.5479945" lon="10.8361857"><ele>334.0</ele><time>2026-04-26T10:54:10.919Z</time></trkpt><trkpt lat="45.5480733" lon="10.8362385"><ele>334.0</ele><time>2026-04-26T10:54:11.92Z</time></trkpt><trkpt lat="45.5481618" lon="10.836317"><ele>333.4</ele><time>2026-04-26T10:54:12.919Z</time></trkpt><trkpt lat="45.5482431" lon="10.836405"><ele>332.79999999999995</ele><time>2026-04-26T10:54:13.92Z</time></trkpt><trkpt lat="45.5483072" lon="10.8365021"><ele>332.20000000000005</ele><time>2026-04-26T10:54:14.92Z</time></trkpt><trkpt lat="45.5483538" lon="10.8366165"><ele>331.6</ele><time>2026-04-26T10:54:15.919Z</time></trkpt><trkpt lat="45.548396" lon="10.8367439"><ele>331.0</ele><time>2026-04-26T10:54:16.92Z</time></trkpt><trkpt lat="45.5484519" lon="10.8368424"><ele>331.8</ele><time>2026-04-26T10:54:17.92Z</time></trkpt><trkpt lat="45.548509" lon="10.8369084"><ele>332.6</ele><time>2026-04-26T10:54:18.92Z</time></trkpt><trkpt lat="45.548588" lon="10.8369593"><ele>333.4</ele><time>2026-04-26T10:54:20.92Z</time></trkpt><trkpt lat="45.5486774" lon="10.8369166"><ele>334.2</ele><time>2026-04-26T10:54:23.919Z</time></trkpt><trkpt lat="45.5487666" lon="10.8367713"><ele>335.0</ele><time>2026-04-26T10:54:25.919Z</time></trkpt><trkpt lat="45.5488319" lon="10.8366279"><ele>335.0</ele><time>2026-04-26T10:54:26.92Z</time></trkpt><trkpt lat="45.5489157" lon="10.8364571"><ele>335.0</ele><time>2026-04-26T10:54:27.92Z</time></trkpt><trkpt lat="45.5490009" lon="10.8362866"><ele>335.0</ele><time>2026-04-26T10:54:28.92Z</time></trkpt><trkpt lat="45.5490861" lon="10.8361182"><ele>335.0</ele><time>2026-04-26T10:54:29.92Z</time></trkpt><trkpt lat="45.5491622" lon="10.8359695"><ele>334.25</ele><time>2026-04-26T10:54:30.92Z</time></trkpt><trkpt lat="45.5492509" lon="10.8358271"><ele>333.5</ele><time>2026-04-26T10:54:31.919Z</time></trkpt><trkpt lat="45.5493529" lon="10.835677"><ele>332.75</ele><time>2026-04-26T10:54:32.919Z</time></trkpt><trkpt lat="45.5494572" lon="10.8355336"><ele>332.0</ele><time>2026-04-26T10:54:33.92Z</time></trkpt><trkpt lat="45.5495428" lon="10.8354173"><ele>332.0</ele><time>2026-04-26T10:54:34.919Z</time></trkpt><trkpt lat="45.549634" lon="10.8353156"><ele>332.0</ele><time>2026-04-26T10:54:35.92Z</time></trkpt><trkpt lat="45.5497402" lon="10.8352057"><ele>332.0</ele><time>2026-04-26T10:54:36.919Z</time></trkpt><trkpt lat="45.5498453" lon="10.8351103"><ele>332.0</ele><time>2026-04-26T10:54:37.919Z</time></trkpt><trkpt lat="45.5499339" lon="10.8350307"><ele>332.0</ele><time>2026-04-26T10:54:38.92Z</time></trkpt><trkpt lat="45.5500178" lon="10.8349864"><ele>332.0</ele><time>2026-04-26T10:54:39.92Z</time></trkpt><trkpt lat="45.5501009" lon="10.8349803"><ele>332.0</ele><time>2026-04-26T10:54:40.919Z</time></trkpt><trkpt lat="45.550199" lon="10.8350009"><ele>332.0</ele><time>2026-04-26T10:54:41.92Z</time></trkpt><trkpt lat="45.5503085" lon="10.8350543"><ele>332.0</ele><time>2026-04-26T10:54:42.92Z</time></trkpt><trkpt lat="45.5504369" lon="10.8351466"><ele>332.0</ele><time>2026-04-26T10:54:43.919Z</time></trkpt><trkpt lat="45.5505803" lon="10.8352569"><ele>332.0</ele><time>2026-04-26T10:54:44.92Z</time></trkpt><trkpt lat="45.5507396" lon="10.8353576"><ele>332.0</ele><time>2026-04-26T10:54:45.919Z</time></trkpt><trkpt lat="45.5509037" lon="10.8354521"><ele>332.0</ele><time>2026-04-26T10:54:46.92Z</time></trkpt><trkpt lat="45.5510548" lon="10.8355416"><ele>332.0</ele><time>2026-04-26T10:54:47.919Z</time></trkpt><trkpt lat="45.5511932" lon="10.8356179"><ele>332.0</ele><time>2026-04-26T10:54:48.92Z</time></trkpt><trkpt lat="45.5513159" lon="10.8356812"><ele>332.0</ele><time>2026-04-26T10:54:49.92Z</time></trkpt><trkpt lat="45.5514262" lon="10.8357483"><ele>331.0</ele><time>2026-04-26T10:54:50.919Z</time></trkpt><trkpt lat="45.5515278" lon="10.8358062"><ele>330.0</ele><time>2026-04-26T10:54:51.92Z</time></trkpt><trkpt lat="45.5516425" lon="10.8358361"><ele>329.0</ele><time>2026-04-26T10:54:52.92Z</time></trkpt><trkpt lat="45.5517882" lon="10.8358422"><ele>328.0</ele><time>2026-04-26T10:54:53.919Z</time></trkpt><trkpt lat="45.5519498" lon="10.8358388"><ele>327.0</ele><time>2026-04-26T10:54:54.92Z</time></trkpt><trkpt lat="45.5521174" lon="10.8358295"><ele>326.0</ele><time>2026-04-26T10:54:55.919Z</time></trkpt><trkpt lat="45.5522868" lon="10.8358267"><ele>325.0</ele><time>2026-04-26T10:54:56.92Z</time></trkpt><trkpt lat="45.5524531" lon="10.8358352"><ele>325.0</ele><time>2026-04-26T10:54:57.92Z</time></trkpt><trkpt lat="45.5526135" lon="10.8358538"><ele>325.0</ele><time>2026-04-26T10:54:58.92Z</time></trkpt><trkpt lat="45.5527562" lon="10.8358782"><ele>325.0</ele><time>2026-04-26T10:54:59.92Z</time></trkpt><trkpt lat="45.5528813" lon="10.8359064"><ele>325.0</ele><time>2026-04-26T10:55:00.92Z</time></trkpt><trkpt lat="45.5530043" lon="10.8359458"><ele>328.66666666666663</ele><time>2026-04-26T10:55:01.92Z</time></trkpt><trkpt lat="45.5531386" lon="10.8360085"><ele>332.3333333333333</ele><time>2026-04-26T10:55:02.92Z</time></trkpt><trkpt lat="45.5532861" lon="10.836093"><ele>336.0</ele><time>2026-04-26T10:55:03.92Z</time></trkpt><trkpt lat="45.5534373" lon="10.8361908"><ele>336.0</ele><time>2026-04-26T10:55:04.919Z</time></trkpt><trkpt lat="45.553583" lon="10.8362892"><ele>336.0</ele><time>2026-04-26T10:55:05.92Z</time></trkpt><trkpt lat="45.5537153" lon="10.8363669"><ele>336.0</ele><time>2026-04-26T10:55:06.92Z</time></trkpt><trkpt lat="45.5538419" lon="10.8364161"><ele>336.0</ele><time>2026-04-26T10:55:07.92Z</time></trkpt><trkpt lat="45.5539726" lon="10.8364407"><ele>334.25</ele><time>2026-04-26T10:55:08.92Z</time></trkpt><trkpt lat="45.554106" lon="10.8364427"><ele>332.5</ele><time>2026-04-26T10:55:09.92Z</time></trkpt><trkpt lat="45.5542327" lon="10.8364369"><ele>330.75</ele><time>2026-04-26T10:55:10.92Z</time></trkpt><trkpt lat="45.554348" lon="10.8364392"><ele>329.0</ele><time>2026-04-26T10:55:11.92Z</time></trkpt><trkpt lat="45.5544555" lon="10.8364637"><ele>327.25</ele><time>2026-04-26T10:55:12.92Z</time></trkpt><trkpt lat="45.554567" lon="10.8365068"><ele>325.5</ele><time>2026-04-26T10:55:13.92Z</time></trkpt><trkpt lat="45.554681" lon="10.8365755"><ele>323.75</ele><time>2026-04-26T10:55:14.92Z</time></trkpt><trkpt lat="45.5548002" lon="10.8366667"><ele>322.0</ele><time>2026-04-26T10:55:15.92Z</time></trkpt><trkpt lat="45.5549199" lon="10.8367746"><ele>323.5</ele><time>2026-04-26T10:55:16.919Z</time></trkpt><trkpt lat="45.5550371" lon="10.8368922"><ele>325.0</ele><time>2026-04-26T10:55:17.919Z</time></trkpt><trkpt lat="45.5551446" lon="10.8370036"><ele>326.5</ele><time>2026-04-26T10:55:18.919Z</time></trkpt><trkpt lat="45.5552324" lon="10.8371056"><ele>328.0</ele><time>2026-04-26T10:55:19.919Z</time></trkpt><trkpt lat="45.5553054" lon="10.8372059"><ele>328.0</ele><time>2026-04-26T10:55:20.92Z</time></trkpt><trkpt lat="45.5553667" lon="10.8373102"><ele>328.0</ele><time>2026-04-26T10:55:21.92Z</time></trkpt><trkpt lat="45.5554188" lon="10.837436"><ele>328.0</ele><time>2026-04-26T10:55:22.92Z</time></trkpt><trkpt lat="45.5554598" lon="10.8375845"><ele>328.0</ele><time>2026-04-26T10:55:23.92Z</time></trkpt><trkpt lat="45.5554814" lon="10.8377314"><ele>328.0</ele><time>2026-04-26T10:55:24.92Z</time></trkpt><trkpt lat="45.5554838" lon="10.8378682"><ele>330.0</ele><time>2026-04-26T10:55:25.92Z</time></trkpt><trkpt lat="45.5554731" lon="10.8380144"><ele>332.0</ele><time>2026-04-26T10:55:26.92Z</time></trkpt><trkpt lat="45.5554446" lon="10.8381794"><ele>334.0</ele><time>2026-04-26T10:55:27.92Z</time></trkpt><trkpt lat="45.5553995" lon="10.838347"><ele>336.0</ele><time>2026-04-26T10:55:28.919Z</time></trkpt><trkpt lat="45.5553395" lon="10.8385004"><ele>336.0</ele><time>2026-04-26T10:55:29.92Z</time></trkpt><trkpt lat="45.5552839" lon="10.838629"><ele>336.0</ele><time>2026-04-26T10:55:30.919Z</time></trkpt><trkpt lat="45.5552522" lon="10.8387336"><ele>336.0</ele><time>2026-04-26T10:55:31.92Z</time></trkpt><trkpt lat="45.5552867" lon="10.8388823"><ele>336.0</ele><time>2026-04-26T10:55:33.919Z</time></trkpt><trkpt lat="45.5553469" lon="10.8389156"><ele>336.0</ele><time>2026-04-26T10:55:34.92Z</time></trkpt><trkpt lat="45.5554255" lon="10.8388986"><ele>336.0</ele><time>2026-04-26T10:55:35.919Z</time></trkpt><trkpt lat="45.5555226" lon="10.8388289"><ele>335.0</ele><time>2026-04-26T10:55:36.919Z</time></trkpt><trkpt lat="45.5556321" lon="10.8387409"><ele>334.0</ele><time>2026-04-26T10:55:37.919Z</time></trkpt><trkpt lat="45.5557373" lon="10.8386763"><ele>333.0</ele><time>2026-04-26T10:55:38.92Z</time></trkpt><trkpt lat="45.5558383" lon="10.838649"><ele>332.0</ele><time>2026-04-26T10:55:39.92Z</time></trkpt><trkpt lat="45.5559379" lon="10.8386612"><ele>331.0</ele><time>2026-04-26T10:55:40.919Z</time></trkpt><trkpt lat="45.5560217" lon="10.8387009"><ele>331.0</ele><time>2026-04-26T10:55:41.919Z</time></trkpt><trkpt lat="45.5560941" lon="10.8387699"><ele>331.0</ele><time>2026-04-26T10:55:42.92Z</time></trkpt><trkpt lat="45.5561685" lon="10.8388901"><ele>331.0</ele><time>2026-04-26T10:55:43.92Z</time></trkpt><trkpt lat="45.5562432" lon="10.8390442"><ele>331.0</ele><time>2026-04-26T10:55:44.92Z</time></trkpt><trkpt lat="45.5562977" lon="10.8391873"><ele>331.0</ele><time>2026-04-26T10:55:45.919Z</time></trkpt><trkpt lat="45.5563242" lon="10.8393122"><ele>331.0</ele><time>2026-04-26T10:55:46.918Z</time></trkpt><trkpt lat="45.5563348" lon="10.8394486"><ele>331.0</ele><time>2026-04-26T10:55:47.919Z</time></trkpt><trkpt lat="45.5563414" lon="10.8395784"><ele>331.0</ele><time>2026-04-26T10:55:48.918Z</time></trkpt><trkpt lat="45.5563634" lon="10.8396633"><ele>331.0</ele><time>2026-04-26T10:55:49.918Z</time></trkpt><trkpt lat="45.5564705" lon="10.8396998"><ele>331.0</ele><time>2026-04-26T10:55:51.919Z</time></trkpt><trkpt lat="45.5565406" lon="10.8396461"><ele>331.0</ele><time>2026-04-26T10:55:52.919Z</time></trkpt><trkpt lat="45.5566263" lon="10.8395954"><ele>331.0</ele><time>2026-04-26T10:55:53.919Z</time></trkpt><trkpt lat="45.5567041" lon="10.8395979"><ele>331.0</ele><time>2026-04-26T10:55:54.919Z</time></trkpt><trkpt lat="45.5567668" lon="10.8396449"><ele>331.0</ele><time>2026-04-26T10:55:55.919Z</time></trkpt><trkpt lat="45.556835" lon="10.8397194"><ele>331.0</ele><time>2026-04-26T10:55:56.919Z</time></trkpt><trkpt lat="45.5569028" lon="10.8398325"><ele>331.0</ele><time>2026-04-26T10:55:57.918Z</time></trkpt><trkpt lat="45.5569713" lon="10.8399969"><ele>333.0</ele><time>2026-04-26T10:55:58.918Z</time></trkpt><trkpt lat="45.5570553" lon="10.8401864"><ele>335.0</ele><time>2026-04-26T10:55:59.918Z</time></trkpt><trkpt lat="45.5571452" lon="10.8403428"><ele>337.0</ele><time>2026-04-26T10:56:00.919Z</time></trkpt><trkpt lat="45.557245" lon="10.840466"><ele>339.0</ele><time>2026-04-26T10:56:01.919Z</time></trkpt><trkpt lat="45.5573721" lon="10.8405877"><ele>339.0</ele><time>2026-04-26T10:56:02.918Z</time></trkpt><trkpt lat="45.5574879" lon="10.8406954"><ele>339.0</ele><time>2026-04-26T10:56:03.918Z</time></trkpt><trkpt lat="45.5575691" lon="10.8407786"><ele>339.0</ele><time>2026-04-26T10:56:04.919Z</time></trkpt><trkpt lat="45.5576279" lon="10.8408214"><ele>339.0</ele><time>2026-04-26T10:56:05.919Z</time></trkpt><trkpt lat="45.5577035" lon="10.8407577"><ele>339.0</ele><time>2026-04-26T10:56:07.918Z</time></trkpt><trkpt lat="45.5576887" lon="10.8405673"><ele>339.0</ele><time>2026-04-26T10:56:09.919Z</time></trkpt><trkpt lat="45.557624" lon="10.8404443"><ele>339.0</ele><time>2026-04-26T10:56:10.919Z</time></trkpt><trkpt lat="45.5575625" lon="10.8402973"><ele>339.0</ele><time>2026-04-26T10:56:11.919Z</time></trkpt><trkpt lat="45.5575256" lon="10.840141"><ele>339.0</ele><time>2026-04-26T10:56:12.918Z</time></trkpt><trkpt lat="45.5575021" lon="10.839984"><ele>335.0</ele><time>2026-04-26T10:56:13.919Z</time></trkpt><trkpt lat="45.5574832" lon="10.8397932"><ele>331.0</ele><time>2026-04-26T10:56:14.918Z</time></trkpt><trkpt lat="45.5574688" lon="10.839558"><ele>327.0</ele><time>2026-04-26T10:56:15.918Z</time></trkpt><trkpt lat="45.5574455" lon="10.8393008"><ele>326.0</ele><time>2026-04-26T10:56:16.918Z</time></trkpt><trkpt lat="45.5574075" lon="10.8390518"><ele>325.0</ele><time>2026-04-26T10:56:17.919Z</time></trkpt><trkpt lat="45.5573555" lon="10.8388373"><ele>324.0</ele><time>2026-04-26T10:56:18.919Z</time></trkpt><trkpt lat="45.5573025" lon="10.8386607"><ele>324.0</ele><time>2026-04-26T10:56:19.918Z</time></trkpt><trkpt lat="45.5572691" lon="10.8385121"><ele>324.0</ele><time>2026-04-26T10:56:20.918Z</time></trkpt><trkpt lat="45.5572614" lon="10.8383838"><ele>324.0</ele><time>2026-04-26T10:56:21.919Z</time></trkpt><trkpt lat="45.557273" lon="10.8382637"><ele>324.0</ele><time>2026-04-26T10:56:22.918Z</time></trkpt><trkpt lat="45.5573161" lon="10.8381174"><ele>324.0</ele><time>2026-04-26T10:56:23.919Z</time></trkpt><trkpt lat="45.5573849" lon="10.8379365"><ele>324.0</ele><time>2026-04-26T10:56:24.919Z</time></trkpt><trkpt lat="45.5574729" lon="10.8377279"><ele>324.0</ele><time>2026-04-26T10:56:25.919Z</time></trkpt><trkpt lat="45.5575785" lon="10.8375205"><ele>324.0</ele><time>2026-04-26T10:56:26.918Z</time></trkpt><trkpt lat="45.5576948" lon="10.8373174"><ele>323.0</ele><time>2026-04-26T10:56:27.919Z</time></trkpt><trkpt lat="45.5577968" lon="10.8371233"><ele>322.0</ele><time>2026-04-26T10:56:28.918Z</time></trkpt><trkpt lat="45.5578724" lon="10.8369412"><ele>321.0</ele><time>2026-04-26T10:56:29.919Z</time></trkpt><trkpt lat="45.5579308" lon="10.8367201"><ele>321.0</ele><time>2026-04-26T10:56:30.919Z</time></trkpt><trkpt lat="45.5579871" lon="10.836472"><ele>321.0</ele><time>2026-04-26T10:56:31.919Z</time></trkpt><trkpt lat="45.5580426" lon="10.8362765"><ele>321.0</ele><time>2026-04-26T10:56:32.919Z</time></trkpt><trkpt lat="45.5581149" lon="10.8360777"><ele>319.75</ele><time>2026-04-26T10:56:33.918Z</time></trkpt><trkpt lat="45.5581946" lon="10.8358992"><ele>318.5</ele><time>2026-04-26T10:56:34.919Z</time></trkpt><trkpt lat="45.5582659" lon="10.8357495"><ele>317.25</ele><time>2026-04-26T10:56:35.919Z</time></trkpt><trkpt lat="45.5583363" lon="10.8356436"><ele>316.0</ele><time>2026-04-26T10:56:36.919Z</time></trkpt><trkpt lat="45.5584159" lon="10.8355671"><ele>316.0</ele><time>2026-04-26T10:56:37.919Z</time></trkpt><trkpt lat="45.5585052" lon="10.8355133"><ele>316.0</ele><time>2026-04-26T10:56:38.918Z</time></trkpt><trkpt lat="45.558594" lon="10.8354981"><ele>316.0</ele><time>2026-04-26T10:56:39.918Z</time></trkpt><trkpt lat="45.5586843" lon="10.8355127"><ele>316.0</ele><time>2026-04-26T10:56:40.919Z</time></trkpt><trkpt lat="45.5587663" lon="10.8355512"><ele>316.0</ele><time>2026-04-26T10:56:41.918Z</time></trkpt><trkpt lat="45.5588327" lon="10.8356132"><ele>316.0</ele><time>2026-04-26T10:56:42.919Z</time></trkpt><trkpt lat="45.558882" lon="10.8356829"><ele>314.8</ele><time>2026-04-26T10:56:43.919Z</time></trkpt><trkpt lat="45.5589191" lon="10.8357911"><ele>313.6</ele><time>2026-04-26T10:56:44.919Z</time></trkpt><trkpt lat="45.5589467" lon="10.8359428"><ele>312.4</ele><time>2026-04-26T10:56:45.918Z</time></trkpt><trkpt lat="45.5589817" lon="10.8360923"><ele>311.2</ele><time>2026-04-26T10:56:46.919Z</time></trkpt><trkpt lat="45.5590259" lon="10.8362019"><ele>310.0</ele><time>2026-04-26T10:56:47.919Z</time></trkpt><trkpt lat="45.5590843" lon="10.8362971"><ele>312.6</ele><time>2026-04-26T10:56:48.919Z</time></trkpt><trkpt lat="45.559161" lon="10.8363823"><ele>315.2</ele><time>2026-04-26T10:56:49.919Z</time></trkpt><trkpt lat="45.5592582" lon="10.8364535"><ele>317.79999999999995</ele><time>2026-04-26T10:56:50.918Z</time></trkpt><trkpt lat="45.5593561" lon="10.8365127"><ele>320.4</ele><time>2026-04-26T10:56:51.919Z</time></trkpt><trkpt lat="45.5594347" lon="10.8365954"><ele>323.0</ele><time>2026-04-26T10:56:52.918Z</time></trkpt><trkpt lat="45.559531" lon="10.8367138"><ele>324.0</ele><time>2026-04-26T10:56:53.919Z</time></trkpt><trkpt lat="45.5596455" lon="10.8368602"><ele>325.0</ele><time>2026-04-26T10:56:54.919Z</time></trkpt><trkpt lat="45.5597687" lon="10.8370079"><ele>326.0</ele><time>2026-04-26T10:56:55.918Z</time></trkpt><trkpt lat="45.5598854" lon="10.8371271"><ele>326.0</ele><time>2026-04-26T10:56:56.919Z</time></trkpt><trkpt lat="45.5600142" lon="10.8372294"><ele>326.0</ele><time>2026-04-26T10:56:57.919Z</time></trkpt><trkpt lat="45.5601493" lon="10.8373204"><ele>326.0</ele><time>2026-04-26T10:56:58.918Z</time></trkpt><trkpt lat="45.560274" lon="10.8374016"><ele>326.0</ele><time>2026-04-26T10:56:59.919Z</time></trkpt><trkpt lat="45.5603763" lon="10.8374694"><ele>325.6</ele><time>2026-04-26T10:57:00.918Z</time></trkpt><trkpt lat="45.5604673" lon="10.83754"><ele>325.20000000000005</ele><time>2026-04-26T10:57:01.919Z</time></trkpt><trkpt lat="45.5605508" lon="10.8375782"><ele>324.79999999999995</ele><time>2026-04-26T10:57:02.918Z</time></trkpt><trkpt lat="45.5606503" lon="10.8375832"><ele>324.4</ele><time>2026-04-26T10:57:03.918Z</time></trkpt><trkpt lat="45.5607709" lon="10.8375644"><ele>324.0</ele><time>2026-04-26T10:57:04.918Z</time></trkpt><trkpt lat="45.5608702" lon="10.8375276"><ele>324.0</ele><time>2026-04-26T10:57:05.919Z</time></trkpt><trkpt lat="45.5609537" lon="10.8374674"><ele>324.0</ele><time>2026-04-26T10:57:06.919Z</time></trkpt><trkpt lat="45.5610071" lon="10.8373999"><ele>324.0</ele><time>2026-04-26T10:57:07.919Z</time></trkpt><trkpt lat="45.5610306" lon="10.8373144"><ele>324.0</ele><time>2026-04-26T10:57:08.919Z</time></trkpt><trkpt lat="45.5610298" lon="10.8371989"><ele>324.0</ele><time>2026-04-26T10:57:09.919Z</time></trkpt><trkpt lat="45.5610108" lon="10.8370699"><ele>324.0</ele><time>2026-04-26T10:57:10.918Z</time></trkpt><trkpt lat="45.5609726" lon="10.8368993"><ele>323.4</ele><time>2026-04-26T10:57:11.919Z</time></trkpt><trkpt lat="45.5609545" lon="10.8367357"><ele>322.79999999999995</ele><time>2026-04-26T10:57:12.919Z</time></trkpt><trkpt lat="45.5609478" lon="10.8365751"><ele>322.20000000000005</ele><time>2026-04-26T10:57:13.919Z</time></trkpt><trkpt lat="45.560964" lon="10.8364276"><ele>321.6</ele><time>2026-04-26T10:57:14.919Z</time></trkpt><trkpt lat="45.5609957" lon="10.8362869"><ele>321.0</ele><time>2026-04-26T10:57:15.918Z</time></trkpt><trkpt lat="45.5610429" lon="10.8361867"><ele>321.0</ele><time>2026-04-26T10:57:16.918Z</time></trkpt><trkpt lat="45.5611096" lon="10.8360937"><ele>321.0</ele><time>2026-04-26T10:57:17.919Z</time></trkpt><trkpt lat="45.5611903" lon="10.8360291"><ele>321.0</ele><time>2026-04-26T10:57:18.918Z</time></trkpt><trkpt lat="45.5612614" lon="10.8360032"><ele>321.0</ele><time>2026-04-26T10:57:19.918Z</time></trkpt><trkpt lat="45.5613329" lon="10.8360073"><ele>321.0</ele><time>2026-04-26T10:57:20.919Z</time></trkpt><trkpt lat="45.5613954" lon="10.8360453"><ele>321.0</ele><time>2026-04-26T10:57:21.918Z</time></trkpt><trkpt lat="45.5614902" lon="10.8360943"><ele>321.5</ele><time>2026-04-26T10:57:24.919Z</time></trkpt><trkpt lat="45.561571" lon="10.836116"><ele>322.0</ele><time>2026-04-26T10:57:26.919Z</time></trkpt><trkpt lat="45.5616477" lon="10.8361055"><ele>322.5</ele><time>2026-04-26T10:57:28.918Z</time></trkpt><trkpt lat="45.561732" lon="10.8360084"><ele>323.0</ele><time>2026-04-26T10:57:30.918Z</time></trkpt><trkpt lat="45.561767" lon="10.8359128"><ele>323.5</ele><time>2026-04-26T10:57:31.919Z</time></trkpt><trkpt lat="45.5617972" lon="10.8357877"><ele>324.0</ele><time>2026-04-26T10:57:32.919Z</time></trkpt><trkpt lat="45.5618329" lon="10.8356334"><ele>324.0</ele><time>2026-04-26T10:57:33.919Z</time></trkpt><trkpt lat="45.5618732" lon="10.8355067"><ele>324.0</ele><time>2026-04-26T10:57:34.918Z</time></trkpt><trkpt lat="45.561917" lon="10.8353956"><ele>324.0</ele><time>2026-04-26T10:57:35.919Z</time></trkpt><trkpt lat="45.561962" lon="10.8352999"><ele>324.0</ele><time>2026-04-26T10:57:36.919Z</time></trkpt><trkpt lat="45.5620055" lon="10.8352217"><ele>324.0</ele><time>2026-04-26T10:57:37.918Z</time></trkpt><trkpt lat="45.5620896" lon="10.8351065"><ele>324.0</ele><time>2026-04-26T10:57:39.917Z</time></trkpt><trkpt lat="45.5620184" lon="10.8351991"><ele>324.0</ele><time>2026-04-26T10:57:46.919Z</time></trkpt><trkpt lat="45.5619509" lon="10.8353071"><ele>324.0</ele><time>2026-04-26T10:57:47.919Z</time></trkpt><trkpt lat="45.5618874" lon="10.8354489"><ele>324.0</ele><time>2026-04-26T10:57:48.918Z</time></trkpt><trkpt lat="45.5618278" lon="10.8356227"><ele>324.0</ele><time>2026-04-26T10:57:49.919Z</time></trkpt><trkpt lat="45.5617917" lon="10.8357687"><ele>324.0</ele><time>2026-04-26T10:57:50.919Z</time></trkpt><trkpt lat="45.5617623" lon="10.8358784"><ele>324.0</ele><time>2026-04-26T10:57:51.918Z</time></trkpt><trkpt lat="45.5617312" lon="10.8359695"><ele>324.0</ele><time>2026-04-26T10:57:52.919Z</time></trkpt><trkpt lat="45.5616848" lon="10.8360589"><ele>324.0</ele><time>2026-04-26T10:57:54.919Z</time></trkpt><trkpt lat="45.5616513" lon="10.8359819"><ele>324.0</ele><time>2026-04-26T10:57:58.919Z</time></trkpt><trkpt lat="45.5616716" lon="10.835877"><ele>324.0</ele><time>2026-04-26T10:58:00.918Z</time></trkpt><trkpt lat="45.561688" lon="10.8357168"><ele>324.0</ele><time>2026-04-26T10:58:02.919Z</time></trkpt><trkpt lat="45.5616914" lon="10.8355613"><ele>324.0</ele><time>2026-04-26T10:58:04.919Z</time></trkpt><trkpt lat="45.5616969" lon="10.8354337"><ele>324.0</ele><time>2026-04-26T10:58:06.919Z</time></trkpt><trkpt lat="45.5616974" lon="10.8355458"><ele>324.0</ele><time>2026-04-26T10:58:18.918Z</time></trkpt><trkpt lat="45.5616806" lon="10.8356619"><ele>324.0</ele><time>2026-04-26T10:58:20.919Z</time></trkpt><trkpt lat="45.5616738" lon="10.8358134"><ele>324.0</ele><time>2026-04-26T10:58:22.919Z</time></trkpt><trkpt lat="45.5616675" lon="10.8359207"><ele>324.0</ele><time>2026-04-26T10:58:23.919Z</time></trkpt><trkpt lat="45.5616439" lon="10.8360349"><ele>324.0</ele><time>2026-04-26T10:58:25.919Z</time></trkpt><trkpt lat="45.5616178" lon="10.8361299"><ele>324.0</ele><time>2026-04-26T10:58:27.919Z</time></trkpt><trkpt lat="45.5615705" lon="10.8362418"><ele>324.0</ele><time>2026-04-26T10:58:30.919Z</time></trkpt><trkpt lat="45.5615591" lon="10.8363347"><ele>325.6</ele><time>2026-04-26T10:58:47.918Z</time></trkpt><trkpt lat="45.561555" lon="10.8365215"><ele>327.2</ele><time>2026-04-26T10:58:49.918Z</time></trkpt><trkpt lat="45.5615507" lon="10.8366574"><ele>328.8</ele><time>2026-04-26T10:58:50.919Z</time></trkpt><trkpt lat="45.5615437" lon="10.83678"><ele>330.40000000000003</ele><time>2026-04-26T10:58:51.919Z</time></trkpt><trkpt lat="45.561556" lon="10.8368924"><ele>332.0</ele><time>2026-04-26T10:58:52.918Z</time></trkpt><trkpt lat="45.5615949" lon="10.837025"><ele>333.0</ele><time>2026-04-26T10:58:53.918Z</time></trkpt><trkpt lat="45.5616451" lon="10.8371828"><ele>334.0</ele><time>2026-04-26T10:58:54.919Z</time></trkpt><trkpt lat="45.5617053" lon="10.8373335"><ele>335.0</ele><time>2026-04-26T10:58:55.919Z</time></trkpt><trkpt lat="45.5617791" lon="10.8374592"><ele>336.0</ele><time>2026-04-26T10:58:56.919Z</time></trkpt><trkpt lat="45.5618631" lon="10.8375505"><ele>336.0</ele><time>2026-04-26T10:58:57.918Z</time></trkpt><trkpt lat="45.5619639" lon="10.8376183"><ele>336.0</ele><time>2026-04-26T10:58:58.919Z</time></trkpt><trkpt lat="45.5620717" lon="10.8376708"><ele>336.0</ele><time>2026-04-26T10:58:59.918Z</time></trkpt><trkpt lat="45.5621596" lon="10.8377305"><ele>336.0</ele><time>2026-04-26T10:59:00.918Z</time></trkpt><trkpt lat="45.5622477" lon="10.8378301"><ele>336.0</ele><time>2026-04-26T10:59:01.918Z</time></trkpt><trkpt lat="45.5623456" lon="10.8379351"><ele>340.0</ele><time>2026-04-26T10:59:02.918Z</time></trkpt><trkpt lat="45.5624306" lon="10.8380407"><ele>344.0</ele><time>2026-04-26T10:59:03.919Z</time></trkpt><trkpt lat="45.5625179" lon="10.8381353"><ele>348.0</ele><time>2026-04-26T10:59:04.918Z</time></trkpt><trkpt lat="45.5626303" lon="10.8382356"><ele>352.0</ele><time>2026-04-26T10:59:05.919Z</time></trkpt><trkpt lat="45.5627397" lon="10.8383381"><ele>352.0</ele><time>2026-04-26T10:59:06.919Z</time></trkpt><trkpt lat="45.5628471" lon="10.8384341"><ele>352.0</ele><time>2026-04-26T10:59:07.919Z</time></trkpt><trkpt lat="45.5629614" lon="10.8385212"><ele>352.0</ele><time>2026-04-26T10:59:08.918Z</time></trkpt><trkpt lat="45.5630841" lon="10.8385977"><ele>352.0</ele><time>2026-04-26T10:59:09.918Z</time></trkpt><trkpt lat="45.5632012" lon="10.8386724"><ele>356.75</ele><time>2026-04-26T10:59:10.919Z</time></trkpt><trkpt lat="45.5633212" lon="10.8387375"><ele>361.5</ele><time>2026-04-26T10:59:11.919Z</time></trkpt><trkpt lat="45.5634406" lon="10.8388046"><ele>366.25</ele><time>2026-04-26T10:59:12.919Z</time></trkpt><trkpt lat="45.5635498" lon="10.8388648"><ele>371.0</ele><time>2026-04-26T10:59:13.918Z</time></trkpt><trkpt lat="45.5636348" lon="10.8389274"><ele>373.5</ele><time>2026-04-26T10:59:14.919Z</time></trkpt><trkpt lat="45.5637177" lon="10.8390115"><ele>376.0</ele><time>2026-04-26T10:59:15.919Z</time></trkpt><trkpt lat="45.5638057" lon="10.839118"><ele>378.5</ele><time>2026-04-26T10:59:16.919Z</time></trkpt><trkpt lat="45.563889" lon="10.8392326"><ele>381.0</ele><time>2026-04-26T10:59:17.919Z</time></trkpt><trkpt lat="45.5639738" lon="10.8393577"><ele>382.0</ele><time>2026-04-26T10:59:18.918Z</time></trkpt><trkpt lat="45.5640527" lon="10.8394763"><ele>383.0</ele><time>2026-04-26T10:59:19.919Z</time></trkpt><trkpt lat="45.5641328" lon="10.8396007"><ele>384.0</ele><time>2026-04-26T10:59:20.919Z</time></trkpt><trkpt lat="45.564211" lon="10.839721"><ele>385.0</ele><time>2026-04-26T10:59:21.918Z</time></trkpt><trkpt lat="45.5642711" lon="10.8398157"><ele>386.0</ele><time>2026-04-26T10:59:22.919Z</time></trkpt><trkpt lat="45.5643346" lon="10.8398941"><ele>385.99999999999994</ele><time>2026-04-26T10:59:23.92Z</time></trkpt><trkpt lat="45.5643968" lon="10.8399459"><ele>386.0</ele><time>2026-04-26T10:59:24.918Z</time></trkpt><trkpt lat="45.564474" lon="10.8399725"><ele>386.0</ele><time>2026-04-26T10:59:25.919Z</time></trkpt><trkpt lat="45.5645628" lon="10.8399871"><ele>386.0</ele><time>2026-04-26T10:59:26.919Z</time></trkpt><trkpt lat="45.5646513" lon="10.8399907"><ele>385.99999999999994</ele><time>2026-04-26T10:59:27.919Z</time></trkpt><trkpt lat="45.5647473" lon="10.8399427"><ele>386.0</ele><time>2026-04-26T10:59:28.919Z</time></trkpt><trkpt lat="45.5648476" lon="10.8398968"><ele>388.66666666666663</ele><time>2026-04-26T10:59:29.918Z</time></trkpt><trkpt lat="45.564925" lon="10.8398672"><ele>391.3333333333333</ele><time>2026-04-26T10:59:30.919Z</time></trkpt><trkpt lat="45.5650017" lon="10.8398537"><ele>394.0</ele><time>2026-04-26T10:59:31.919Z</time></trkpt><trkpt lat="45.5650794" lon="10.839868"><ele>396.66666666666663</ele><time>2026-04-26T10:59:32.918Z</time></trkpt><trkpt lat="45.565158" lon="10.839904"><ele>399.3333333333333</ele><time>2026-04-26T10:59:33.919Z</time></trkpt><trkpt lat="45.5652377" lon="10.8399597"><ele>402.0</ele><time>2026-04-26T10:59:34.919Z</time></trkpt><trkpt lat="45.5653051" lon="10.840026"><ele>405.1666666666667</ele><time>2026-04-26T10:59:35.918Z</time></trkpt><trkpt lat="45.5653738" lon="10.8400811"><ele>408.33333333333337</ele><time>2026-04-26T10:59:36.919Z</time></trkpt><trkpt lat="45.5654588" lon="10.8401027"><ele>411.5</ele><time>2026-04-26T10:59:37.919Z</time></trkpt><trkpt lat="45.5655521" lon="10.8401063"><ele>414.6666666666667</ele><time>2026-04-26T10:59:38.919Z</time></trkpt><trkpt lat="45.5656367" lon="10.8400671"><ele>417.83333333333337</ele><time>2026-04-26T10:59:39.918Z</time></trkpt><trkpt lat="45.5657134" lon="10.8400303"><ele>421.0</ele><time>2026-04-26T10:59:40.919Z</time></trkpt><trkpt lat="45.5657836" lon="10.8400179"><ele>421.00000000000006</ele><time>2026-04-26T10:59:41.919Z</time></trkpt><trkpt lat="45.5658608" lon="10.8400248"><ele>421.0</ele><time>2026-04-26T10:59:42.919Z</time></trkpt><trkpt lat="45.5659398" lon="10.8400391"><ele>421.0</ele><time>2026-04-26T10:59:43.919Z</time></trkpt><trkpt lat="45.5660373" lon="10.8400555"><ele>421.0</ele><time>2026-04-26T10:59:44.918Z</time></trkpt><trkpt lat="45.566136" lon="10.840071"><ele>421.00000000000006</ele><time>2026-04-26T10:59:45.919Z</time></trkpt><trkpt lat="45.5662118" lon="10.8400988"><ele>421.0</ele><time>2026-04-26T10:59:46.919Z</time></trkpt><trkpt lat="45.5662767" lon="10.8401373"><ele>425.00000000000006</ele><time>2026-04-26T10:59:47.919Z</time></trkpt><trkpt lat="45.5663259" lon="10.8402052"><ele>429.0</ele><time>2026-04-26T10:59:48.919Z</time></trkpt><trkpt lat="45.5663666" lon="10.8402862"><ele>433.0</ele><time>2026-04-26T10:59:49.919Z</time></trkpt><trkpt lat="45.5664122" lon="10.8403626"><ele>437.0</ele><time>2026-04-26T10:59:50.918Z</time></trkpt><trkpt lat="45.5664738" lon="10.8404101"><ele>441.00000000000006</ele><time>2026-04-26T10:59:51.917Z</time></trkpt><trkpt lat="45.566547" lon="10.8404649"><ele>445.0</ele><time>2026-04-26T10:59:52.919Z</time></trkpt><trkpt lat="45.5666079" lon="10.8406373"><ele>445.00000000000006</ele><time>2026-04-26T10:59:54.919Z</time></trkpt><trkpt lat="45.5666393" lon="10.8407403"><ele>445.0</ele><time>2026-04-26T10:59:55.919Z</time></trkpt><trkpt lat="45.566676" lon="10.8408265"><ele>445.0</ele><time>2026-04-26T10:59:56.918Z</time></trkpt><trkpt lat="45.5667258" lon="10.840908"><ele>445.0</ele><time>2026-04-26T10:59:57.918Z</time></trkpt><trkpt lat="45.5667795" lon="10.8409725"><ele>445.00000000000006</ele><time>2026-04-26T10:59:58.918Z</time></trkpt><trkpt lat="45.5668322" lon="10.8410381"><ele>445.0</ele><time>2026-04-26T10:59:59.919Z</time></trkpt><trkpt lat="45.5669187" lon="10.8411442"><ele>444.83333333333337</ele><time>2026-04-26T11:00:01.919Z</time></trkpt><trkpt lat="45.5669741" lon="10.8412213"><ele>444.6666666666667</ele><time>2026-04-26T11:00:04.919Z</time></trkpt><trkpt lat="45.5669731" lon="10.8413174"><ele>444.5</ele><time>2026-04-26T11:00:08.918Z</time></trkpt><trkpt lat="45.5669387" lon="10.8414017"><ele>444.33333333333337</ele><time>2026-04-26T11:00:19.92Z</time></trkpt><trkpt lat="45.5669055" lon="10.8415766"><ele>444.1666666666667</ele><time>2026-04-26T11:00:21.919Z</time></trkpt><trkpt lat="45.566906" lon="10.841704"><ele>444.0</ele><time>2026-04-26T11:00:22.919Z</time></trkpt><trkpt lat="45.5669065" lon="10.841831"><ele>443.2</ele><time>2026-04-26T11:00:23.918Z</time></trkpt><trkpt lat="45.56691" lon="10.8419682"><ele>442.4</ele><time>2026-04-26T11:00:24.919Z</time></trkpt><trkpt lat="45.5669186" lon="10.8421135"><ele>441.6</ele><time>2026-04-26T11:00:25.918Z</time></trkpt><trkpt lat="45.5669456" lon="10.8422605"><ele>440.8</ele><time>2026-04-26T11:00:26.919Z</time></trkpt><trkpt lat="45.5669754" lon="10.8424125"><ele>440.0</ele><time>2026-04-26T11:00:27.918Z</time></trkpt><trkpt lat="45.5670051" lon="10.8425632"><ele>439.99999999999994</ele><time>2026-04-26T11:00:28.919Z</time></trkpt><trkpt lat="45.5670261" lon="10.8426975"><ele>440.0</ele><time>2026-04-26T11:00:29.916Z</time></trkpt><trkpt lat="45.5670319" lon="10.8428224"><ele>440.0</ele><time>2026-04-26T11:00:30.918Z</time></trkpt><trkpt lat="45.5670195" lon="10.8429321"><ele>440.0</ele><time>2026-04-26T11:00:31.918Z</time></trkpt><trkpt lat="45.5669831" lon="10.8430255"><ele>439.99999999999994</ele><time>2026-04-26T11:00:32.918Z</time></trkpt><trkpt lat="45.5669312" lon="10.8431033"><ele>440.0</ele><time>2026-04-26T11:00:33.918Z</time></trkpt><trkpt lat="45.5668669" lon="10.8431539"><ele>440.0</ele><time>2026-04-26T11:00:34.917Z</time></trkpt><trkpt lat="45.566798" lon="10.8432256"><ele>440.0</ele><time>2026-04-26T11:00:35.918Z</time></trkpt><trkpt lat="45.566734" lon="10.8433234"><ele>440.0</ele><time>2026-04-26T11:00:36.918Z</time></trkpt><trkpt lat="45.5666818" lon="10.8434525"><ele>440.0</ele><time>2026-04-26T11:00:37.917Z</time></trkpt><trkpt lat="45.5666433" lon="10.843601"><ele>440.0</ele><time>2026-04-26T11:00:38.918Z</time></trkpt><trkpt lat="45.5666158" lon="10.8437634"><ele>440.5</ele><time>2026-04-26T11:00:39.918Z</time></trkpt><trkpt lat="45.5665905" lon="10.8439277"><ele>441.0</ele><time>2026-04-26T11:00:40.917Z</time></trkpt><trkpt lat="45.5665623" lon="10.8440909"><ele>441.5</ele><time>2026-04-26T11:00:41.917Z</time></trkpt><trkpt lat="45.5665338" lon="10.8442528"><ele>442.0</ele><time>2026-04-26T11:00:42.918Z</time></trkpt><trkpt lat="45.5665055" lon="10.8444103"><ele>442.40000000000003</ele><time>2026-04-26T11:00:43.917Z</time></trkpt><trkpt lat="45.5664754" lon="10.8445627"><ele>442.80000000000007</ele><time>2026-04-26T11:00:44.918Z</time></trkpt><trkpt lat="45.5664425" lon="10.8447085"><ele>443.2</ele><time>2026-04-26T11:00:45.918Z</time></trkpt><trkpt lat="45.5664143" lon="10.8448481"><ele>443.6</ele><time>2026-04-26T11:00:46.918Z</time></trkpt><trkpt lat="45.5664015" lon="10.8449865"><ele>444.0</ele><time>2026-04-26T11:00:47.918Z</time></trkpt><trkpt lat="45.5664173" lon="10.845123"><ele>444.4</ele><time>2026-04-26T11:00:48.918Z</time></trkpt><trkpt lat="45.5664651" lon="10.8452537"><ele>444.79999999999995</ele><time>2026-04-26T11:00:49.918Z</time></trkpt><trkpt lat="45.5665408" lon="10.8453606"><ele>445.20000000000005</ele><time>2026-04-26T11:00:50.917Z</time></trkpt><trkpt lat="45.5666194" lon="10.8454567"><ele>445.6</ele><time>2026-04-26T11:00:51.917Z</time></trkpt><trkpt lat="45.5666651" lon="10.8455614"><ele>446.0</ele><time>2026-04-26T11:00:52.918Z</time></trkpt><trkpt lat="45.5666754" lon="10.84566"><ele>446.0</ele><time>2026-04-26T11:00:53.917Z</time></trkpt><trkpt lat="45.566647" lon="10.8457601"><ele>446.0</ele><time>2026-04-26T11:00:54.918Z</time></trkpt><trkpt lat="45.5665871" lon="10.8458355"><ele>446.0</ele><time>2026-04-26T11:00:55.917Z</time></trkpt><trkpt lat="45.566492" lon="10.8458532"><ele>446.0</ele><time>2026-04-26T11:00:56.918Z</time></trkpt><trkpt lat="45.5663899" lon="10.8458469"><ele>446.0</ele><time>2026-04-26T11:00:57.917Z</time></trkpt><trkpt lat="45.566282" lon="10.8458424"><ele>445.16666666666663</ele><time>2026-04-26T11:00:58.918Z</time></trkpt><trkpt lat="45.5661825" lon="10.8458363"><ele>444.3333333333333</ele><time>2026-04-26T11:00:59.918Z</time></trkpt><trkpt lat="45.5661024" lon="10.8458277"><ele>443.5</ele><time>2026-04-26T11:01:00.917Z</time></trkpt><trkpt lat="45.5660345" lon="10.845814"><ele>442.66666666666663</ele><time>2026-04-26T11:01:01.918Z</time></trkpt><trkpt lat="45.5659641" lon="10.8458159"><ele>441.8333333333333</ele><time>2026-04-26T11:01:03.918Z</time></trkpt><trkpt lat="45.5660466" lon="10.8458538"><ele>441.0</ele><time>2026-04-26T11:01:06.918Z</time></trkpt><trkpt lat="45.5661138" lon="10.8458569"><ele>442.0</ele><time>2026-04-26T11:01:07.918Z</time></trkpt><trkpt lat="45.5661994" lon="10.8458663"><ele>443.0</ele><time>2026-04-26T11:01:08.918Z</time></trkpt><trkpt lat="45.5662963" lon="10.8458708"><ele>444.0</ele><time>2026-04-26T11:01:09.918Z</time></trkpt><trkpt lat="45.5663997" lon="10.8458825"><ele>445.0</ele><time>2026-04-26T11:01:10.918Z</time></trkpt><trkpt lat="45.5665016" lon="10.8458945"><ele>446.0</ele><time>2026-04-26T11:01:11.918Z</time></trkpt><trkpt lat="45.5665802" lon="10.8458575"><ele>445.99999999999994</ele><time>2026-04-26T11:01:12.917Z</time></trkpt><trkpt lat="45.5666418" lon="10.8457803"><ele>446.0</ele><time>2026-04-26T11:01:13.918Z</time></trkpt><trkpt lat="45.5666788" lon="10.84569"><ele>446.0</ele><time>2026-04-26T11:01:14.917Z</time></trkpt><trkpt lat="45.5666885" lon="10.8455968"><ele>446.0</ele><time>2026-04-26T11:01:15.917Z</time></trkpt><trkpt lat="45.5666492" lon="10.8455044"><ele>445.99999999999994</ele><time>2026-04-26T11:01:16.918Z</time></trkpt><trkpt lat="45.5665743" lon="10.845425"><ele>446.0</ele><time>2026-04-26T11:01:17.918Z</time></trkpt><trkpt lat="45.5665083" lon="10.8453234"><ele>445.99999999999994</ele><time>2026-04-26T11:01:18.917Z</time></trkpt><trkpt lat="45.5664631" lon="10.8452171"><ele>446.0</ele><time>2026-04-26T11:01:19.918Z</time></trkpt><trkpt lat="45.5664377" lon="10.845114"><ele>446.0</ele><time>2026-04-26T11:01:20.917Z</time></trkpt><trkpt lat="45.5664304" lon="10.8449998"><ele>446.0</ele><time>2026-04-26T11:01:21.918Z</time></trkpt><trkpt lat="45.5664353" lon="10.8448875"><ele>445.99999999999994</ele><time>2026-04-26T11:01:22.918Z</time></trkpt><trkpt lat="45.5664491" lon="10.8447862"><ele>446.0</ele><time>2026-04-26T11:01:23.918Z</time></trkpt><trkpt lat="45.5664645" lon="10.8446975"><ele>445.6</ele><time>2026-04-26T11:01:24.917Z</time></trkpt><trkpt lat="45.5664982" lon="10.8445817"><ele>445.20000000000005</ele><time>2026-04-26T11:01:26.918Z</time></trkpt><trkpt lat="45.5665654" lon="10.8445282"><ele>444.79999999999995</ele><time>2026-04-26T11:01:28.918Z</time></trkpt><trkpt lat="45.5666448" lon="10.8445606"><ele>444.4</ele><time>2026-04-26T11:01:30.917Z</time></trkpt><trkpt lat="45.566698" lon="10.8446745"><ele>444.0</ele><time>2026-04-26T11:01:32.918Z</time></trkpt><trkpt lat="45.566743" lon="10.8448369"><ele>444.0</ele><time>2026-04-26T11:01:34.918Z</time></trkpt><trkpt lat="45.5667684" lon="10.8449226"><ele>444.0</ele><time>2026-04-26T11:01:35.917Z</time></trkpt><trkpt lat="45.5667882" lon="10.8450134"><ele>444.0</ele><time>2026-04-26T11:01:36.918Z</time></trkpt><trkpt lat="45.5667925" lon="10.8451144"><ele>444.0</ele><time>2026-04-26T11:01:37.918Z</time></trkpt><trkpt lat="45.5667919" lon="10.8452178"><ele>444.0</ele><time>2026-04-26T11:01:38.918Z</time></trkpt><trkpt lat="45.5668027" lon="10.8453271"><ele>444.0</ele><time>2026-04-26T11:01:39.918Z</time></trkpt><trkpt lat="45.566842" lon="10.8454414"><ele>444.0</ele><time>2026-04-26T11:01:40.917Z</time></trkpt><trkpt lat="45.5669061" lon="10.8455555"><ele>444.5</ele><time>2026-04-26T11:01:41.918Z</time></trkpt><trkpt lat="45.5669886" lon="10.8456612"><ele>445.0</ele><time>2026-04-26T11:01:42.918Z</time></trkpt><trkpt lat="45.5670707" lon="10.8457531"><ele>445.5</ele><time>2026-04-26T11:01:43.918Z</time></trkpt><trkpt lat="45.5671626" lon="10.8458526"><ele>446.0</ele><time>2026-04-26T11:01:44.918Z</time></trkpt><trkpt lat="45.5672511" lon="10.8459708"><ele>450.0</ele><time>2026-04-26T11:01:45.918Z</time></trkpt><trkpt lat="45.5673162" lon="10.8461152"><ele>454.0</ele><time>2026-04-26T11:01:46.917Z</time></trkpt><trkpt lat="45.5673664" lon="10.8462894"><ele>458.0</ele><time>2026-04-26T11:01:47.918Z</time></trkpt><trkpt lat="45.5674171" lon="10.8464699"><ele>462.0</ele><time>2026-04-26T11:01:48.918Z</time></trkpt><trkpt lat="45.567475" lon="10.8466552"><ele>463.25</ele><time>2026-04-26T11:01:49.917Z</time></trkpt><trkpt lat="45.567529" lon="10.8468388"><ele>464.5</ele><time>2026-04-26T11:01:50.917Z</time></trkpt><trkpt lat="45.5675693" lon="10.847008"><ele>465.75</ele><time>2026-04-26T11:01:51.918Z</time></trkpt><trkpt lat="45.5676081" lon="10.8471721"><ele>467.0</ele><time>2026-04-26T11:01:52.918Z</time></trkpt><trkpt lat="45.5676664" lon="10.8473111"><ele>467.0</ele><time>2026-04-26T11:01:53.918Z</time></trkpt><trkpt lat="45.5677445" lon="10.847401"><ele>467.0</ele><time>2026-04-26T11:01:54.917Z</time></trkpt><trkpt lat="45.5678415" lon="10.8474924"><ele>467.0</ele><time>2026-04-26T11:01:55.918Z</time></trkpt><trkpt lat="45.5679089" lon="10.8476332"><ele>467.0</ele><time>2026-04-26T11:01:56.917Z</time></trkpt><trkpt lat="45.5679709" lon="10.8477815"><ele>471.75</ele><time>2026-04-26T11:01:57.918Z</time></trkpt><trkpt lat="45.5679913" lon="10.8479547"><ele>476.5</ele><time>2026-04-26T11:01:58.918Z</time></trkpt><trkpt lat="45.5680362" lon="10.8481143"><ele>481.25</ele><time>2026-04-26T11:01:59.918Z</time></trkpt><trkpt lat="45.5680729" lon="10.8482838"><ele>486.0</ele><time>2026-04-26T11:02:00.917Z</time></trkpt><trkpt lat="45.5681213" lon="10.8484481"><ele>486.5</ele><time>2026-04-26T11:02:01.918Z</time></trkpt><trkpt lat="45.5681677" lon="10.8485862"><ele>487.0</ele><time>2026-04-26T11:02:02.918Z</time></trkpt><trkpt lat="45.5682114" lon="10.8487064"><ele>487.5</ele><time>2026-04-26T11:02:03.917Z</time></trkpt><trkpt lat="45.5682414" lon="10.8487968"><ele>488.0</ele><time>2026-04-26T11:02:04.918Z</time></trkpt><trkpt lat="45.5682611" lon="10.8488829"><ele>488.5</ele><time>2026-04-26T11:02:05.918Z</time></trkpt><trkpt lat="45.5681981" lon="10.8489785"><ele>489.0</ele><time>2026-04-26T11:02:07.918Z</time></trkpt><trkpt lat="45.5681007" lon="10.8489108"><ele>489.0</ele><time>2026-04-26T11:02:09.917Z</time></trkpt><trkpt lat="45.5680455" lon="10.8488469"><ele>489.0</ele><time>2026-04-26T11:02:10.917Z</time></trkpt><trkpt lat="45.5679799" lon="10.848708"><ele>489.0</ele><time>2026-04-26T11:02:11.917Z</time></trkpt><trkpt lat="45.5678984" lon="10.8485926"><ele>489.0</ele><time>2026-04-26T11:02:12.917Z</time></trkpt><trkpt lat="45.5678266" lon="10.8484733"><ele>489.0</ele><time>2026-04-26T11:02:13.917Z</time></trkpt><trkpt lat="45.5677474" lon="10.8483919"><ele>487.25</ele><time>2026-04-26T11:02:14.918Z</time></trkpt><trkpt lat="45.5676472" lon="10.8483578"><ele>485.5</ele><time>2026-04-26T11:02:15.918Z</time></trkpt><trkpt lat="45.5675264" lon="10.8483653"><ele>483.75</ele><time>2026-04-26T11:02:16.918Z</time></trkpt><trkpt lat="45.5673986" lon="10.8483747"><ele>482.0</ele><time>2026-04-26T11:02:17.917Z</time></trkpt><trkpt lat="45.5672641" lon="10.848387"><ele>482.0</ele><time>2026-04-26T11:02:18.918Z</time></trkpt><trkpt lat="45.5671245" lon="10.848415"><ele>482.0</ele><time>2026-04-26T11:02:19.917Z</time></trkpt><trkpt lat="45.5669813" lon="10.8484556"><ele>482.0</ele><time>2026-04-26T11:02:20.918Z</time></trkpt><trkpt lat="45.5668392" lon="10.8485044"><ele>482.0</ele><time>2026-04-26T11:02:21.918Z</time></trkpt><trkpt lat="45.566701" lon="10.8485551"><ele>486.5</ele><time>2026-04-26T11:02:22.918Z</time></trkpt><trkpt lat="45.566564" lon="10.848609"><ele>491.0</ele><time>2026-04-26T11:02:23.917Z</time></trkpt><trkpt lat="45.5664284" lon="10.848654"><ele>495.5</ele><time>2026-04-26T11:02:24.918Z</time></trkpt><trkpt lat="45.5662969" lon="10.8486781"><ele>500.0</ele><time>2026-04-26T11:02:25.918Z</time></trkpt><trkpt lat="45.566167" lon="10.8486799"><ele>500.75</ele><time>2026-04-26T11:02:26.917Z</time></trkpt><trkpt lat="45.5660385" lon="10.8486729"><ele>501.5</ele><time>2026-04-26T11:02:27.918Z</time></trkpt><trkpt lat="45.5659118" lon="10.8486526"><ele>502.25</ele><time>2026-04-26T11:02:28.917Z</time></trkpt><trkpt lat="45.565783" lon="10.8486294"><ele>503.0</ele><time>2026-04-26T11:02:29.917Z</time></trkpt><trkpt lat="45.5656591" lon="10.848615"><ele>503.0</ele><time>2026-04-26T11:02:30.918Z</time></trkpt><trkpt lat="45.5655426" lon="10.8486379"><ele>502.99999999999994</ele><time>2026-04-26T11:02:31.917Z</time></trkpt><trkpt lat="45.5654441" lon="10.8487007"><ele>502.99999999999994</ele><time>2026-04-26T11:02:32.917Z</time></trkpt><trkpt lat="45.5653647" lon="10.8487934"><ele>503.0</ele><time>2026-04-26T11:02:33.918Z</time></trkpt><trkpt lat="45.5653141" lon="10.8489149"><ele>503.0</ele><time>2026-04-26T11:02:34.917Z</time></trkpt><trkpt lat="45.565255" lon="10.8490188"><ele>503.0</ele><time>2026-04-26T11:02:35.918Z</time></trkpt><trkpt lat="45.5651904" lon="10.8490897"><ele>502.99999999999994</ele><time>2026-04-26T11:02:36.918Z</time></trkpt><trkpt lat="45.565101" lon="10.8491461"><ele>502.99999999999994</ele><time>2026-04-26T11:02:37.917Z</time></trkpt><trkpt lat="45.5649963" lon="10.8491908"><ele>503.0</ele><time>2026-04-26T11:02:38.918Z</time></trkpt><trkpt lat="45.5648793" lon="10.8492285"><ele>503.0</ele><time>2026-04-26T11:02:39.917Z</time></trkpt><trkpt lat="45.5647549" lon="10.8492597"><ele>503.0</ele><time>2026-04-26T11:02:40.918Z</time></trkpt><trkpt lat="45.564628" lon="10.8492823"><ele>503.0</ele><time>2026-04-26T11:02:41.918Z</time></trkpt><trkpt lat="45.5644926" lon="10.8492895"><ele>503.0</ele><time>2026-04-26T11:02:42.917Z</time></trkpt><trkpt lat="45.5643492" lon="10.8492887"><ele>503.0</ele><time>2026-04-26T11:02:43.917Z</time></trkpt><trkpt lat="45.5642073" lon="10.8492743"><ele>504.5</ele><time>2026-04-26T11:02:44.918Z</time></trkpt><trkpt lat="45.5640665" lon="10.8492599"><ele>506.0</ele><time>2026-04-26T11:02:45.918Z</time></trkpt><trkpt lat="45.5639313" lon="10.8492486"><ele>507.5</ele><time>2026-04-26T11:02:46.918Z</time></trkpt><trkpt lat="45.5638089" lon="10.8492541"><ele>509.0</ele><time>2026-04-26T11:02:47.918Z</time></trkpt><trkpt lat="45.5637083" lon="10.8492551"><ele>508.8333333333333</ele><time>2026-04-26T11:02:48.917Z</time></trkpt><trkpt lat="45.5636359" lon="10.8492203"><ele>508.66666666666663</ele><time>2026-04-26T11:02:49.918Z</time></trkpt><trkpt lat="45.5635806" lon="10.8491534"><ele>508.5</ele><time>2026-04-26T11:02:50.918Z</time></trkpt><trkpt lat="45.5635248" lon="10.8490568"><ele>508.33333333333337</ele><time>2026-04-26T11:02:51.918Z</time></trkpt><trkpt lat="45.5634347" lon="10.8490073"><ele>508.1666666666667</ele><time>2026-04-26T11:02:52.917Z</time></trkpt><trkpt lat="45.5633241" lon="10.8489989"><ele>508.0</ele><time>2026-04-26T11:02:53.918Z</time></trkpt><trkpt lat="45.5632005" lon="10.849049"><ele>508.0</ele><time>2026-04-26T11:02:54.918Z</time></trkpt><trkpt lat="45.5630691" lon="10.849104"><ele>508.0</ele><time>2026-04-26T11:02:55.918Z</time></trkpt><trkpt lat="45.5629339" lon="10.8491529"><ele>508.0</ele><time>2026-04-26T11:02:56.918Z</time></trkpt><trkpt lat="45.5627958" lon="10.8492069"><ele>508.0</ele><time>2026-04-26T11:02:57.918Z</time></trkpt><trkpt lat="45.5626568" lon="10.8492575"><ele>508.5</ele><time>2026-04-26T11:02:58.917Z</time></trkpt><trkpt lat="45.5625201" lon="10.8492878"><ele>509.0</ele><time>2026-04-26T11:02:59.918Z</time></trkpt><trkpt lat="45.5623806" lon="10.8492811"><ele>509.5</ele><time>2026-04-26T11:03:00.918Z</time></trkpt><trkpt lat="45.562256" lon="10.8492671"><ele>510.0</ele><time>2026-04-26T11:03:01.918Z</time></trkpt><trkpt lat="45.562123" lon="10.849305"><ele>506.0</ele><time>2026-04-26T11:03:02.918Z</time></trkpt><trkpt lat="45.5619963" lon="10.8494053"><ele>502.0</ele><time>2026-04-26T11:03:03.918Z</time></trkpt><trkpt lat="45.5618968" lon="10.849545"><ele>498.0</ele><time>2026-04-26T11:03:04.917Z</time></trkpt><trkpt lat="45.5618205" lon="10.8497312"><ele>494.0</ele><time>2026-04-26T11:03:05.918Z</time></trkpt><trkpt lat="45.5617679" lon="10.8499419"><ele>494.66666666666663</ele><time>2026-04-26T11:03:06.918Z</time></trkpt><trkpt lat="45.5617169" lon="10.850159"><ele>495.33333333333337</ele><time>2026-04-26T11:03:07.918Z</time></trkpt><trkpt lat="45.5616594" lon="10.8503706"><ele>496.0</ele><time>2026-04-26T11:03:08.917Z</time></trkpt><trkpt lat="45.5616019" lon="10.8505787"><ele>496.0</ele><time>2026-04-26T11:03:09.918Z</time></trkpt><trkpt lat="45.5615512" lon="10.8507861"><ele>496.0</ele><time>2026-04-26T11:03:10.918Z</time></trkpt><trkpt lat="45.5615105" lon="10.8509813"><ele>496.0</ele><time>2026-04-26T11:03:11.918Z</time></trkpt><trkpt lat="45.5614555" lon="10.8511533"><ele>496.0</ele><time>2026-04-26T11:03:12.917Z</time></trkpt><trkpt lat="45.5613759" lon="10.851281"><ele>497.0</ele><time>2026-04-26T11:03:13.917Z</time></trkpt><trkpt lat="45.5612646" lon="10.8513683"><ele>498.0</ele><time>2026-04-26T11:03:14.918Z</time></trkpt><trkpt lat="45.5611315" lon="10.8514102"><ele>499.0</ele><time>2026-04-26T11:03:15.917Z</time></trkpt><trkpt lat="45.5610071" lon="10.851416"><ele>500.0</ele><time>2026-04-26T11:03:16.918Z</time></trkpt><trkpt lat="45.5608954" lon="10.8513856"><ele>497.4</ele><time>2026-04-26T11:03:17.918Z</time></trkpt><trkpt lat="45.5608088" lon="10.8513305"><ele>494.8</ele><time>2026-04-26T11:03:18.918Z</time></trkpt><trkpt lat="45.5607396" lon="10.8512444"><ele>492.20000000000005</ele><time>2026-04-26T11:03:19.917Z</time></trkpt><trkpt lat="45.5606919" lon="10.8511131"><ele>489.6</ele><time>2026-04-26T11:03:20.917Z</time></trkpt><trkpt lat="45.5606622" lon="10.8509728"><ele>487.0</ele><time>2026-04-26T11:03:21.917Z</time></trkpt><trkpt lat="45.5606408" lon="10.8508194"><ele>485.6</ele><time>2026-04-26T11:03:22.917Z</time></trkpt><trkpt lat="45.5606229" lon="10.8506629"><ele>484.20000000000005</ele><time>2026-04-26T11:03:23.917Z</time></trkpt><trkpt lat="45.5606109" lon="10.8505282"><ele>482.8</ele><time>2026-04-26T11:03:24.918Z</time></trkpt><trkpt lat="45.5606063" lon="10.8503969"><ele>481.4</ele><time>2026-04-26T11:03:25.918Z</time></trkpt><trkpt lat="45.560606" lon="10.8502761"><ele>480.0</ele><time>2026-04-26T11:03:26.918Z</time></trkpt><trkpt lat="45.5605972" lon="10.8501439"><ele>480.0</ele><time>2026-04-26T11:03:28.917Z</time></trkpt><trkpt lat="45.560576" lon="10.8502828"><ele>480.0</ele><time>2026-04-26T11:03:32.917Z</time></trkpt><trkpt lat="45.5605793" lon="10.8503759"><ele>480.0</ele><time>2026-04-26T11:03:33.917Z</time></trkpt><trkpt lat="45.5605854" lon="10.8504668"><ele>480.0</ele><time>2026-04-26T11:03:34.918Z</time></trkpt><trkpt lat="45.5605891" lon="10.8505861"><ele>480.0</ele><time>2026-04-26T11:03:35.917Z</time></trkpt><trkpt lat="45.5605961" lon="10.8507117"><ele>480.0</ele><time>2026-04-26T11:03:36.917Z</time></trkpt><trkpt lat="45.5606155" lon="10.8508439"><ele>481.1666666666667</ele><time>2026-04-26T11:03:37.918Z</time></trkpt><trkpt lat="45.5606393" lon="10.8509759"><ele>482.33333333333337</ele><time>2026-04-26T11:03:38.918Z</time></trkpt><trkpt lat="45.5606693" lon="10.8511016"><ele>483.5</ele><time>2026-04-26T11:03:39.918Z</time></trkpt><trkpt lat="45.5607068" lon="10.8512094"><ele>484.6666666666667</ele><time>2026-04-26T11:03:40.918Z</time></trkpt><trkpt lat="45.5607454" lon="10.8512933"><ele>485.83333333333337</ele><time>2026-04-26T11:03:41.917Z</time></trkpt><trkpt lat="45.5607922" lon="10.8514085"><ele>487.0</ele><time>2026-04-26T11:03:43.917Z</time></trkpt><trkpt lat="45.5607313" lon="10.851498"><ele>487.00000000000006</ele><time>2026-04-26T11:03:46.918Z</time></trkpt><trkpt lat="45.5606063" lon="10.8515828"><ele>487.0</ele><time>2026-04-26T11:03:48.917Z</time></trkpt><trkpt lat="45.560541" lon="10.8515898"><ele>487.0</ele><time>2026-04-26T11:03:49.918Z</time></trkpt><trkpt lat="45.5604635" lon="10.8515862"><ele>487.0</ele><time>2026-04-26T11:03:50.918Z</time></trkpt><trkpt lat="45.5603831" lon="10.8515635"><ele>487.00000000000006</ele><time>2026-04-26T11:03:51.917Z</time></trkpt><trkpt lat="45.560319" lon="10.8515492"><ele>487.0</ele><time>2026-04-26T11:03:52.916Z</time></trkpt><trkpt lat="45.560187" lon="10.8515108"><ele>486.8</ele><time>2026-04-26T11:03:54.917Z</time></trkpt><trkpt lat="45.5600961" lon="10.8514866"><ele>486.6</ele><time>2026-04-26T11:03:55.918Z</time></trkpt><trkpt lat="45.5599951" lon="10.8514703"><ele>486.40000000000003</ele><time>2026-04-26T11:03:56.918Z</time></trkpt><trkpt lat="45.5599166" lon="10.8514692"><ele>486.20000000000005</ele><time>2026-04-26T11:03:57.918Z</time></trkpt><trkpt lat="45.5598245" lon="10.85149"><ele>486.0</ele><time>2026-04-26T11:03:58.917Z</time></trkpt><trkpt lat="45.5597161" lon="10.8515322"><ele>486.0</ele><time>2026-04-26T11:03:59.918Z</time></trkpt><trkpt lat="45.5595973" lon="10.8515647"><ele>486.0</ele><time>2026-04-26T11:04:00.918Z</time></trkpt><trkpt lat="45.559476" lon="10.8515808"><ele>486.0</ele><time>2026-04-26T11:04:01.918Z</time></trkpt><trkpt lat="45.5593559" lon="10.8515805"><ele>486.0</ele><time>2026-04-26T11:04:02.918Z</time></trkpt><trkpt lat="45.559227" lon="10.8515878"><ele>485.75</ele><time>2026-04-26T11:04:03.918Z</time></trkpt><trkpt lat="45.5591116" lon="10.8516003"><ele>485.5</ele><time>2026-04-26T11:04:04.917Z</time></trkpt><trkpt lat="45.5589875" lon="10.8516269"><ele>485.25</ele><time>2026-04-26T11:04:05.917Z</time></trkpt><trkpt lat="45.5588706" lon="10.8516608"><ele>485.0</ele><time>2026-04-26T11:04:06.917Z</time></trkpt><trkpt lat="45.5587648" lon="10.8516641"><ele>485.49999999999994</ele><time>2026-04-26T11:04:07.918Z</time></trkpt><trkpt lat="45.5586952" lon="10.8516537"><ele>486.0</ele><time>2026-04-26T11:04:08.918Z</time></trkpt><trkpt lat="45.5586364" lon="10.8516192"><ele>486.5</ele><time>2026-04-26T11:04:09.918Z</time></trkpt><trkpt lat="45.5585967" lon="10.8515344"><ele>487.0</ele><time>2026-04-26T11:04:10.918Z</time></trkpt><trkpt lat="45.5585503" lon="10.8514638"><ele>487.49999999999994</ele><time>2026-04-26T11:04:11.918Z</time></trkpt><trkpt lat="45.5584844" lon="10.8513943"><ele>488.0</ele><time>2026-04-26T11:04:12.917Z</time></trkpt><trkpt lat="45.5583941" lon="10.8513433"><ele>488.0</ele><time>2026-04-26T11:04:13.918Z</time></trkpt><trkpt lat="45.5582901" lon="10.8512706"><ele>488.0</ele><time>2026-04-26T11:04:14.918Z</time></trkpt><trkpt lat="45.5581649" lon="10.8511648"><ele>488.0</ele><time>2026-04-26T11:04:15.917Z</time></trkpt><trkpt lat="45.5580248" lon="10.8510582"><ele>488.0</ele><time>2026-04-26T11:04:16.918Z</time></trkpt><trkpt lat="45.5578948" lon="10.8509409"><ele>489.5</ele><time>2026-04-26T11:04:17.918Z</time></trkpt><trkpt lat="45.5577909" lon="10.850841"><ele>491.0</ele><time>2026-04-26T11:04:18.918Z</time></trkpt><trkpt lat="45.5577017" lon="10.8507741"><ele>492.5</ele><time>2026-04-26T11:04:19.918Z</time></trkpt><trkpt lat="45.5576022" lon="10.8507111"><ele>494.0</ele><time>2026-04-26T11:04:20.918Z</time></trkpt><trkpt lat="45.557487" lon="10.8506447"><ele>494.0</ele><time>2026-04-26T11:04:21.918Z</time></trkpt><trkpt lat="45.55739" lon="10.8505744"><ele>494.0</ele><time>2026-04-26T11:04:22.917Z</time></trkpt><trkpt lat="45.5572892" lon="10.850502"><ele>494.0</ele><time>2026-04-26T11:04:23.918Z</time></trkpt><trkpt lat="45.5572147" lon="10.8504188"><ele>494.0</ele><time>2026-04-26T11:04:24.918Z</time></trkpt><trkpt lat="45.5571486" lon="10.8503515"><ele>494.0</ele><time>2026-04-26T11:04:25.918Z</time></trkpt><trkpt lat="45.5570589" lon="10.8502678"><ele>493.6</ele><time>2026-04-26T11:04:26.918Z</time></trkpt><trkpt lat="45.5569559" lon="10.8501817"><ele>493.2</ele><time>2026-04-26T11:04:27.918Z</time></trkpt><trkpt lat="45.556855" lon="10.8501192"><ele>492.80000000000007</ele><time>2026-04-26T11:04:28.918Z</time></trkpt><trkpt lat="45.5567555" lon="10.8500707"><ele>492.40000000000003</ele><time>2026-04-26T11:04:29.918Z</time></trkpt><trkpt lat="45.556669" lon="10.8500191"><ele>492.0</ele><time>2026-04-26T11:04:30.917Z</time></trkpt><trkpt lat="45.5565787" lon="10.8499742"><ele>492.0</ele><time>2026-04-26T11:04:31.918Z</time></trkpt><trkpt lat="45.5564899" lon="10.8499415"><ele>492.0</ele><time>2026-04-26T11:04:32.917Z</time></trkpt><trkpt lat="45.5564017" lon="10.8499189"><ele>492.0</ele><time>2026-04-26T11:04:33.918Z</time></trkpt><trkpt lat="45.5563152" lon="10.8499056"><ele>492.0</ele><time>2026-04-26T11:04:34.918Z</time></trkpt><trkpt lat="45.5562381" lon="10.849899"><ele>492.0</ele><time>2026-04-26T11:04:35.918Z</time></trkpt><trkpt lat="45.5561678" lon="10.8499132"><ele>492.0</ele><time>2026-04-26T11:04:36.918Z</time></trkpt><trkpt lat="45.556099" lon="10.8499347"><ele>492.0</ele><time>2026-04-26T11:04:37.918Z</time></trkpt><trkpt lat="45.5560238" lon="10.8499559"><ele>492.0</ele><time>2026-04-26T11:04:38.918Z</time></trkpt><trkpt lat="45.5559502" lon="10.8499892"><ele>492.0</ele><time>2026-04-26T11:04:39.918Z</time></trkpt><trkpt lat="45.5558779" lon="10.8500192"><ele>492.0</ele><time>2026-04-26T11:04:40.918Z</time></trkpt><trkpt lat="45.5558163" lon="10.8500658"><ele>492.0</ele><time>2026-04-26T11:04:41.918Z</time></trkpt><trkpt lat="45.5557491" lon="10.8501325"><ele>492.0</ele><time>2026-04-26T11:04:42.918Z</time></trkpt><trkpt lat="45.555694" lon="10.8502122"><ele>494.0</ele><time>2026-04-26T11:04:43.917Z</time></trkpt><trkpt lat="45.5556339" lon="10.8503113"><ele>496.0</ele><time>2026-04-26T11:04:44.918Z</time></trkpt><trkpt lat="45.5555742" lon="10.8504107"><ele>498.0</ele><time>2026-04-26T11:04:45.918Z</time></trkpt><trkpt lat="45.5555328" lon="10.8504998"><ele>500.0</ele><time>2026-04-26T11:04:46.917Z</time></trkpt><trkpt lat="45.5554862" lon="10.8506023"><ele>502.0</ele><time>2026-04-26T11:04:47.918Z</time></trkpt><trkpt lat="45.5554378" lon="10.8506823"><ele>504.0</ele><time>2026-04-26T11:04:48.917Z</time></trkpt><trkpt lat="45.5553713" lon="10.850757"><ele>503.6</ele><time>2026-04-26T11:04:49.918Z</time></trkpt><trkpt lat="45.5552999" lon="10.8508504"><ele>503.2</ele><time>2026-04-26T11:04:50.917Z</time></trkpt><trkpt lat="45.5552071" lon="10.8509391"><ele>502.80000000000007</ele><time>2026-04-26T11:04:51.917Z</time></trkpt><trkpt lat="45.5551234" lon="10.8509562"><ele>502.40000000000003</ele><time>2026-04-26T11:04:53.917Z</time></trkpt><trkpt lat="45.5550726" lon="10.8508571"><ele>502.0</ele><time>2026-04-26T11:04:55.917Z</time></trkpt><trkpt lat="45.5550416" lon="10.850701"><ele>502.0</ele><time>2026-04-26T11:04:57.917Z</time></trkpt><trkpt lat="45.5550117" lon="10.8505638"><ele>502.00000000000006</ele><time>2026-04-26T11:04:59.917Z</time></trkpt><trkpt lat="45.5549823" lon="10.8504672"><ele>502.00000000000006</ele><time>2026-04-26T11:05:01.916Z</time></trkpt><trkpt lat="45.554953" lon="10.8503715"><ele>502.0</ele><time>2026-04-26T11:05:06.917Z</time></trkpt><trkpt lat="45.5548784" lon="10.8502188"><ele>502.0</ele><time>2026-04-26T11:05:08.917Z</time></trkpt><trkpt lat="45.554821" lon="10.8501318"><ele>500.40000000000003</ele><time>2026-04-26T11:05:09.917Z</time></trkpt><trkpt lat="45.5547521" lon="10.8500437"><ele>498.80000000000007</ele><time>2026-04-26T11:05:10.917Z</time></trkpt><trkpt lat="45.5546761" lon="10.8499441"><ele>497.2</ele><time>2026-04-26T11:05:11.916Z</time></trkpt><trkpt lat="45.5546084" lon="10.8498286"><ele>495.6</ele><time>2026-04-26T11:05:12.917Z</time></trkpt><trkpt lat="45.5545644" lon="10.8497119"><ele>494.0</ele><time>2026-04-26T11:05:13.916Z</time></trkpt><trkpt lat="45.5545414" lon="10.8495975"><ele>495.8333333333333</ele><time>2026-04-26T11:05:14.917Z</time></trkpt><trkpt lat="45.5545211" lon="10.8494717"><ele>497.66666666666663</ele><time>2026-04-26T11:05:15.917Z</time></trkpt><trkpt lat="45.5544936" lon="10.8493667"><ele>499.5</ele><time>2026-04-26T11:05:16.916Z</time></trkpt><trkpt lat="45.5544541" lon="10.8492821"><ele>501.33333333333337</ele><time>2026-04-26T11:05:17.917Z</time></trkpt><trkpt lat="45.5543835" lon="10.8492037"><ele>503.1666666666667</ele><time>2026-04-26T11:05:18.917Z</time></trkpt><trkpt lat="45.5542886" lon="10.8491091"><ele>505.0</ele><time>2026-04-26T11:05:19.916Z</time></trkpt><trkpt lat="45.5541704" lon="10.8490169"><ele>505.0</ele><time>2026-04-26T11:05:20.916Z</time></trkpt><trkpt lat="45.5540523" lon="10.8489196"><ele>505.0</ele><time>2026-04-26T11:05:21.916Z</time></trkpt><trkpt lat="45.5539708" lon="10.8488472"><ele>505.0</ele><time>2026-04-26T11:05:22.916Z</time></trkpt><trkpt lat="45.5539134" lon="10.8487919"><ele>505.0</ele><time>2026-04-26T11:05:23.916Z</time></trkpt><trkpt lat="45.5538426" lon="10.8487154"><ele>505.0</ele><time>2026-04-26T11:05:25.916Z</time></trkpt><trkpt lat="45.5537752" lon="10.8487242"><ele>506.1666666666667</ele><time>2026-04-26T11:05:27.917Z</time></trkpt><trkpt lat="45.5536884" lon="10.8486745"><ele>507.33333333333337</ele><time>2026-04-26T11:05:29.916Z</time></trkpt><trkpt lat="45.5536057" lon="10.848641"><ele>508.5</ele><time>2026-04-26T11:05:31.916Z</time></trkpt><trkpt lat="45.5535423" lon="10.848636"><ele>509.66666666666663</ele><time>2026-04-26T11:05:33.917Z</time></trkpt><trkpt lat="45.5534585" lon="10.8486267"><ele>510.8333333333333</ele><time>2026-04-26T11:05:36.917Z</time></trkpt><trkpt lat="45.5535414" lon="10.848647"><ele>512.0</ele><time>2026-04-26T11:05:44.917Z</time></trkpt><trkpt lat="45.5536299" lon="10.8486692"><ele>511.99999999999994</ele><time>2026-04-26T11:05:46.917Z</time></trkpt><trkpt lat="45.5537016" lon="10.8486896"><ele>512.0</ele><time>2026-04-26T11:05:48.917Z</time></trkpt><trkpt lat="45.5537888" lon="10.848728"><ele>512.0</ele><time>2026-04-26T11:05:50.916Z</time></trkpt><trkpt lat="45.5538768" lon="10.8487997"><ele>512.0</ele><time>2026-04-26T11:05:52.917Z</time></trkpt><trkpt lat="45.5539195" lon="10.8488674"><ele>511.99999999999994</ele><time>2026-04-26T11:05:53.917Z</time></trkpt><trkpt lat="45.553965" lon="10.8489341"><ele>512.0</ele><time>2026-04-26T11:05:54.916Z</time></trkpt><trkpt lat="45.5540098" lon="10.8489975"><ele>511.99999999999994</ele><time>2026-04-26T11:05:55.916Z</time></trkpt><trkpt lat="45.5540888" lon="10.8491377"><ele>512.0</ele><time>2026-04-26T11:05:57.917Z</time></trkpt><trkpt lat="45.5541292" lon="10.8492206"><ele>512.0</ele><time>2026-04-26T11:05:58.917Z</time></trkpt><trkpt lat="45.5541634" lon="10.849312"><ele>512.0</ele><time>2026-04-26T11:05:59.916Z</time></trkpt><trkpt lat="45.5541839" lon="10.8494063"><ele>511.99999999999994</ele><time>2026-04-26T11:06:00.917Z</time></trkpt><trkpt lat="45.5541455" lon="10.8495469"><ele>512.0</ele><time>2026-04-26T11:06:02.917Z</time></trkpt><trkpt lat="45.5540372" lon="10.8495851"><ele>512.0</ele><time>2026-04-26T11:06:04.917Z</time></trkpt><trkpt lat="45.5539115" lon="10.8495311"><ele>512.0</ele><time>2026-04-26T11:06:06.916Z</time></trkpt><trkpt lat="45.5538345" lon="10.8494868"><ele>512.0</ele><time>2026-04-26T11:06:07.917Z</time></trkpt><trkpt lat="45.5537438" lon="10.8494453"><ele>512.0</ele><time>2026-04-26T11:06:08.916Z</time></trkpt><trkpt lat="45.5536476" lon="10.8494068"><ele>512.0</ele><time>2026-04-26T11:06:09.917Z</time></trkpt><trkpt lat="45.5535404" lon="10.8493869"><ele>515.25</ele><time>2026-04-26T11:06:10.917Z</time></trkpt><trkpt lat="45.5534222" lon="10.8493931"><ele>518.5</ele><time>2026-04-26T11:06:11.916Z</time></trkpt><trkpt lat="45.5533004" lon="10.8493969"><ele>521.75</ele><time>2026-04-26T11:06:12.917Z</time></trkpt><trkpt lat="45.5531785" lon="10.8494045"><ele>525.0</ele><time>2026-04-26T11:06:13.917Z</time></trkpt><trkpt lat="45.5530574" lon="10.8494067"><ele>525.0</ele><time>2026-04-26T11:06:14.916Z</time></trkpt><trkpt lat="45.5529368" lon="10.849398"><ele>525.0</ele><time>2026-04-26T11:06:15.916Z</time></trkpt><trkpt lat="45.5528159" lon="10.8493882"><ele>525.0</ele><time>2026-04-26T11:06:16.917Z</time></trkpt><trkpt lat="45.5526968" lon="10.8493832"><ele>525.0</ele><time>2026-04-26T11:06:17.917Z</time></trkpt><trkpt lat="45.5525752" lon="10.8494013"><ele>526.0</ele><time>2026-04-26T11:06:18.917Z</time></trkpt><trkpt lat="45.5524552" lon="10.8494465"><ele>527.0</ele><time>2026-04-26T11:06:19.917Z</time></trkpt><trkpt lat="45.5523324" lon="10.8494941"><ele>528.0</ele><time>2026-04-26T11:06:20.915Z</time></trkpt><trkpt lat="45.5522094" lon="10.8495394"><ele>529.0</ele><time>2026-04-26T11:06:21.917Z</time></trkpt><trkpt lat="45.5520836" lon="10.8495764"><ele>530.5</ele><time>2026-04-26T11:06:22.917Z</time></trkpt><trkpt lat="45.5519541" lon="10.8496017"><ele>532.0</ele><time>2026-04-26T11:06:23.917Z</time></trkpt><trkpt lat="45.5518216" lon="10.8496201"><ele>533.5</ele><time>2026-04-26T11:06:24.917Z</time></trkpt><trkpt lat="45.5516887" lon="10.8496313"><ele>535.0</ele><time>2026-04-26T11:06:25.917Z</time></trkpt><trkpt lat="45.5515593" lon="10.849642"><ele>535.0</ele><time>2026-04-26T11:06:26.917Z</time></trkpt><trkpt lat="45.5514342" lon="10.8496557"><ele>535.0</ele><time>2026-04-26T11:06:27.917Z</time></trkpt><trkpt lat="45.5513086" lon="10.849668"><ele>535.0</ele><time>2026-04-26T11:06:28.917Z</time></trkpt><trkpt lat="45.5511846" lon="10.8496762"><ele>535.0</ele><time>2026-04-26T11:06:29.917Z</time></trkpt><trkpt lat="45.5510562" lon="10.8496903"><ele>536.5</ele><time>2026-04-26T11:06:30.917Z</time></trkpt><trkpt lat="45.5509245" lon="10.8497065"><ele>538.0</ele><time>2026-04-26T11:06:31.917Z</time></trkpt><trkpt lat="45.5507925" lon="10.8497198"><ele>539.5</ele><time>2026-04-26T11:06:32.917Z</time></trkpt><trkpt lat="45.5506614" lon="10.8497406"><ele>541.0</ele><time>2026-04-26T11:06:33.917Z</time></trkpt><trkpt lat="45.550532" lon="10.84976"><ele>541.0</ele><time>2026-04-26T11:06:34.917Z</time></trkpt><trkpt lat="45.5504224" lon="10.8497792"><ele>541.0</ele><time>2026-04-26T11:06:35.917Z</time></trkpt><trkpt lat="45.5503416" lon="10.8498082"><ele>541.0</ele><time>2026-04-26T11:06:36.917Z</time></trkpt><trkpt lat="45.5503008" lon="10.849918"><ele>541.0</ele><time>2026-04-26T11:06:38.917Z</time></trkpt><trkpt lat="45.5504091" lon="10.8499659"><ele>541.0</ele><time>2026-04-26T11:06:40.917Z</time></trkpt><trkpt lat="45.5505182" lon="10.8499558"><ele>541.0</ele><time>2026-04-26T11:06:41.917Z</time></trkpt><trkpt lat="45.5506354" lon="10.8499923"><ele>541.0</ele><time>2026-04-26T11:06:42.917Z</time></trkpt><trkpt lat="45.5507771" lon="10.8500613"><ele>541.0</ele><time>2026-04-26T11:06:43.917Z</time></trkpt><trkpt lat="45.5509022" lon="10.8501179"><ele>541.0</ele><time>2026-04-26T11:06:44.917Z</time></trkpt><trkpt lat="45.5509861" lon="10.8501629"><ele>543.3333333333334</ele><time>2026-04-26T11:06:45.916Z</time></trkpt><trkpt lat="45.5510503" lon="10.8502478"><ele>545.6666666666667</ele><time>2026-04-26T11:06:47.916Z</time></trkpt><trkpt lat="45.5510223" lon="10.8503519"><ele>548.0</ele><time>2026-04-26T11:06:49.916Z</time></trkpt><trkpt lat="45.5509692" lon="10.8504084"><ele>550.3333333333334</ele><time>2026-04-26T11:06:50.917Z</time></trkpt><trkpt lat="45.5509255" lon="10.850498"><ele>552.6666666666666</ele><time>2026-04-26T11:06:51.917Z</time></trkpt><trkpt lat="45.5508822" lon="10.8506128"><ele>555.0</ele><time>2026-04-26T11:06:52.917Z</time></trkpt><trkpt lat="45.5508341" lon="10.8507369"><ele>555.0</ele><time>2026-04-26T11:06:53.916Z</time></trkpt><trkpt lat="45.5507798" lon="10.8508679"><ele>555.0</ele><time>2026-04-26T11:06:54.917Z</time></trkpt><trkpt lat="45.5507239" lon="10.8510009"><ele>555.0</ele><time>2026-04-26T11:06:55.916Z</time></trkpt><trkpt lat="45.5506705" lon="10.8511488"><ele>555.0</ele><time>2026-04-26T11:06:56.917Z</time></trkpt><trkpt lat="45.5506193" lon="10.8512952"><ele>555.0</ele><time>2026-04-26T11:06:57.917Z</time></trkpt><trkpt lat="45.5505624" lon="10.8514664"><ele>558.2</ele><time>2026-04-26T11:06:58.916Z</time></trkpt><trkpt lat="45.5505071" lon="10.851628"><ele>561.4</ele><time>2026-04-26T11:06:59.917Z</time></trkpt><trkpt lat="45.5504578" lon="10.8517679"><ele>564.6</ele><time>2026-04-26T11:07:00.916Z</time></trkpt><trkpt lat="45.5504228" lon="10.8518644"><ele>567.8</ele><time>2026-04-26T11:07:01.916Z</time></trkpt><trkpt lat="45.5503857" lon="10.8519651"><ele>571.0</ele><time>2026-04-26T11:07:03.915Z</time></trkpt><trkpt lat="45.5502904" lon="10.8520553"><ele>571.6666666666667</ele><time>2026-04-26T11:07:08.917Z</time></trkpt><trkpt lat="45.5502318" lon="10.8520946"><ele>572.3333333333334</ele><time>2026-04-26T11:07:09.917Z</time></trkpt><trkpt lat="45.5501753" lon="10.8521369"><ele>573.0</ele><time>2026-04-26T11:07:10.917Z</time></trkpt><trkpt lat="45.5501064" lon="10.8521873"><ele>573.6666666666666</ele><time>2026-04-26T11:07:11.917Z</time></trkpt><trkpt lat="45.5500327" lon="10.8522389"><ele>574.3333333333333</ele><time>2026-04-26T11:07:12.916Z</time></trkpt><trkpt lat="45.5499504" lon="10.8522914"><ele>575.0</ele><time>2026-04-26T11:07:13.916Z</time></trkpt><trkpt lat="45.5498627" lon="10.8523484"><ele>575.0</ele><time>2026-04-26T11:07:14.917Z</time></trkpt><trkpt lat="45.54977" lon="10.8524084"><ele>575.0</ele><time>2026-04-26T11:07:15.917Z</time></trkpt><trkpt lat="45.5496744" lon="10.8524732"><ele>575.0</ele><time>2026-04-26T11:07:16.917Z</time></trkpt><trkpt lat="45.5495779" lon="10.852538"><ele>575.0</ele><time>2026-04-26T11:07:17.917Z</time></trkpt><trkpt lat="45.5494803" lon="10.8526034"><ele>575.0</ele><time>2026-04-26T11:07:18.917Z</time></trkpt><trkpt lat="45.5493758" lon="10.8526697"><ele>576.6</ele><time>2026-04-26T11:07:19.916Z</time></trkpt><trkpt lat="45.5492768" lon="10.8527369"><ele>578.2</ele><time>2026-04-26T11:07:20.917Z</time></trkpt><trkpt lat="45.5491751" lon="10.852807"><ele>579.8</ele><time>2026-04-26T11:07:21.917Z</time></trkpt><trkpt lat="45.5490718" lon="10.8528774"><ele>581.4</ele><time>2026-04-26T11:07:22.916Z</time></trkpt><trkpt lat="45.5489679" lon="10.8529373"><ele>583.0</ele><time>2026-04-26T11:07:23.917Z</time></trkpt><trkpt lat="45.5488647" lon="10.8529847"><ele>583.0</ele><time>2026-04-26T11:07:24.917Z</time></trkpt><trkpt lat="45.5487653" lon="10.8530299"><ele>583.0</ele><time>2026-04-26T11:07:25.917Z</time></trkpt><trkpt lat="45.5486687" lon="10.8530845"><ele>583.0</ele><time>2026-04-26T11:07:26.916Z</time></trkpt><trkpt lat="45.5485768" lon="10.8531464"><ele>583.0</ele><time>2026-04-26T11:07:27.917Z</time></trkpt><trkpt lat="45.5484906" lon="10.8532276"><ele>583.0</ele><time>2026-04-26T11:07:28.916Z</time></trkpt><trkpt lat="45.5484056" lon="10.853319"><ele>583.4</ele><time>2026-04-26T11:07:29.917Z</time></trkpt><trkpt lat="45.5483213" lon="10.8534191"><ele>583.8</ele><time>2026-04-26T11:07:30.916Z</time></trkpt><trkpt lat="45.5482495" lon="10.853523"><ele>584.2</ele><time>2026-04-26T11:07:31.917Z</time></trkpt><trkpt lat="45.5481936" lon="10.8536343"><ele>584.6</ele><time>2026-04-26T11:07:32.916Z</time></trkpt><trkpt lat="45.5481491" lon="10.8537546"><ele>585.0</ele><time>2026-04-26T11:07:33.916Z</time></trkpt><trkpt lat="45.5481109" lon="10.8538879"><ele>586.0</ele><time>2026-04-26T11:07:34.917Z</time></trkpt><trkpt lat="45.5480722" lon="10.8540304"><ele>587.0</ele><time>2026-04-26T11:07:35.916Z</time></trkpt><trkpt lat="45.5480301" lon="10.8541787"><ele>588.0</ele><time>2026-04-26T11:07:36.917Z</time></trkpt><trkpt lat="45.547994" lon="10.8543389"><ele>589.0</ele><time>2026-04-26T11:07:37.916Z</time></trkpt><trkpt lat="45.5479666" lon="10.8545086"><ele>590.0</ele><time>2026-04-26T11:07:38.917Z</time></trkpt><trkpt lat="45.5479458" lon="10.8546823"><ele>591.0</ele><time>2026-04-26T11:07:39.917Z</time></trkpt><trkpt lat="45.5479293" lon="10.8548618"><ele>592.0</ele><time>2026-04-26T11:07:40.916Z</time></trkpt><trkpt lat="45.5479144" lon="10.855042"><ele>593.0</ele><time>2026-04-26T11:07:41.917Z</time></trkpt><trkpt lat="45.547903" lon="10.8552231"><ele>592.6</ele><time>2026-04-26T11:07:42.916Z</time></trkpt><trkpt lat="45.5478932" lon="10.8554011"><ele>592.1999999999999</ele><time>2026-04-26T11:07:43.917Z</time></trkpt><trkpt lat="45.5478835" lon="10.8555699"><ele>591.8</ele><time>2026-04-26T11:07:44.917Z</time></trkpt><trkpt lat="45.5478709" lon="10.8557279"><ele>591.4</ele><time>2026-04-26T11:07:45.917Z</time></trkpt><trkpt lat="45.5478568" lon="10.855859"><ele>591.0</ele><time>2026-04-26T11:07:46.916Z</time></trkpt><trkpt lat="45.5478282" lon="10.8559557"><ele>591.0</ele><time>2026-04-26T11:07:47.917Z</time></trkpt><trkpt lat="45.5477716" lon="10.8560214"><ele>591.0</ele><time>2026-04-26T11:07:48.917Z</time></trkpt><trkpt lat="45.5476901" lon="10.8560626"><ele>591.0</ele><time>2026-04-26T11:07:49.916Z</time></trkpt><trkpt lat="45.5475715" lon="10.8560744"><ele>591.0</ele><time>2026-04-26T11:07:50.916Z</time></trkpt><trkpt lat="45.5474517" lon="10.856093"><ele>591.0</ele><time>2026-04-26T11:07:51.916Z</time></trkpt><trkpt lat="45.5473216" lon="10.8561265"><ele>591.0</ele><time>2026-04-26T11:07:52.916Z</time></trkpt><trkpt lat="45.5471893" lon="10.8561709"><ele>591.0</ele><time>2026-04-26T11:07:53.917Z</time></trkpt><trkpt lat="45.5470542" lon="10.8562226"><ele>591.0</ele><time>2026-04-26T11:07:54.917Z</time></trkpt><trkpt lat="45.5469245" lon="10.8562849"><ele>591.0</ele><time>2026-04-26T11:07:55.916Z</time></trkpt><trkpt lat="45.5468068" lon="10.8563578"><ele>587.25</ele><time>2026-04-26T11:07:56.916Z</time></trkpt><trkpt lat="45.5466967" lon="10.8564373"><ele>583.5</ele><time>2026-04-26T11:07:57.916Z</time></trkpt><trkpt lat="45.5465896" lon="10.8565125"><ele>579.75</ele><time>2026-04-26T11:07:58.917Z</time></trkpt><trkpt lat="45.5464924" lon="10.8565903"><ele>576.0</ele><time>2026-04-26T11:07:59.917Z</time></trkpt><trkpt lat="45.5464072" lon="10.856685"><ele>574.6</ele><time>2026-04-26T11:08:00.916Z</time></trkpt><trkpt lat="45.546329" lon="10.8567925"><ele>573.2</ele><time>2026-04-26T11:08:01.917Z</time></trkpt><trkpt lat="45.5462509" lon="10.8568981"><ele>571.8</ele><time>2026-04-26T11:08:02.917Z</time></trkpt><trkpt lat="45.5461823" lon="10.8569785"><ele>570.4</ele><time>2026-04-26T11:08:03.917Z</time></trkpt><trkpt lat="45.5461327" lon="10.8570511"><ele>569.0</ele><time>2026-04-26T11:08:04.917Z</time></trkpt><trkpt lat="45.5461302" lon="10.8572418"><ele>569.0</ele><time>2026-04-26T11:08:06.917Z</time></trkpt><trkpt lat="45.546183" lon="10.8573606"><ele>569.0</ele><time>2026-04-26T11:08:07.915Z</time></trkpt><trkpt lat="45.5462569" lon="10.8574757"><ele>569.0</ele><time>2026-04-26T11:08:08.917Z</time></trkpt><trkpt lat="45.5463445" lon="10.8576043"><ele>569.0</ele><time>2026-04-26T11:08:09.917Z</time></trkpt><trkpt lat="45.546439" lon="10.8577477"><ele>563.0</ele><time>2026-04-26T11:08:10.917Z</time></trkpt><trkpt lat="45.5465414" lon="10.85791"><ele>557.0</ele><time>2026-04-26T11:08:11.917Z</time></trkpt><trkpt lat="45.5466478" lon="10.8580826"><ele>551.0</ele><time>2026-04-26T11:08:12.916Z</time></trkpt><trkpt lat="45.5467549" lon="10.8582573"><ele>551.0</ele><time>2026-04-26T11:08:13.916Z</time></trkpt><trkpt lat="45.5468618" lon="10.858434"><ele>551.0</ele><time>2026-04-26T11:08:14.916Z</time></trkpt><trkpt lat="45.5469689" lon="10.8586082"><ele>551.0</ele><time>2026-04-26T11:08:15.917Z</time></trkpt><trkpt lat="45.5470736" lon="10.8587787"><ele>548.75</ele><time>2026-04-26T11:08:16.917Z</time></trkpt><trkpt lat="45.5471701" lon="10.8589397"><ele>546.5</ele><time>2026-04-26T11:08:17.916Z</time></trkpt><trkpt lat="45.5472614" lon="10.8590983"><ele>544.25</ele><time>2026-04-26T11:08:18.916Z</time></trkpt><trkpt lat="45.5473465" lon="10.8592458"><ele>542.0</ele><time>2026-04-26T11:08:19.917Z</time></trkpt><trkpt lat="45.5474186" lon="10.8593907"><ele>542.0</ele><time>2026-04-26T11:08:20.917Z</time></trkpt><trkpt lat="45.5474692" lon="10.8595386"><ele>542.0</ele><time>2026-04-26T11:08:21.917Z</time></trkpt><trkpt lat="45.5475038" lon="10.8596932"><ele>542.0</ele><time>2026-04-26T11:08:22.917Z</time></trkpt><trkpt lat="45.5475361" lon="10.8598513"><ele>542.0</ele><time>2026-04-26T11:08:23.917Z</time></trkpt><trkpt lat="45.5475761" lon="10.8600121"><ele>538.0</ele><time>2026-04-26T11:08:24.917Z</time></trkpt><trkpt lat="45.5476222" lon="10.860177"><ele>534.0</ele><time>2026-04-26T11:08:25.917Z</time></trkpt><trkpt lat="45.547678" lon="10.8603477"><ele>530.0</ele><time>2026-04-26T11:08:26.917Z</time></trkpt><trkpt lat="45.5477393" lon="10.8605203"><ele>526.0</ele><time>2026-04-26T11:08:27.916Z</time></trkpt><trkpt lat="45.5478055" lon="10.8606943"><ele>526.0</ele><time>2026-04-26T11:08:28.917Z</time></trkpt><trkpt lat="45.5478634" lon="10.8608577"><ele>526.0</ele><time>2026-04-26T11:08:29.917Z</time></trkpt><trkpt lat="45.5479074" lon="10.8610248"><ele>526.0</ele><time>2026-04-26T11:08:30.917Z</time></trkpt><trkpt lat="45.5479276" lon="10.8611954"><ele>526.0</ele><time>2026-04-26T11:08:31.917Z</time></trkpt><trkpt lat="45.5479262" lon="10.8613556"><ele>526.2</ele><time>2026-04-26T11:08:32.917Z</time></trkpt><trkpt lat="45.5478976" lon="10.8614999"><ele>526.4000000000001</ele><time>2026-04-26T11:08:33.917Z</time></trkpt><trkpt lat="45.5478451" lon="10.8616252"><ele>526.6</ele><time>2026-04-26T11:08:34.917Z</time></trkpt><trkpt lat="45.5477736" lon="10.8617299"><ele>526.8000000000001</ele><time>2026-04-26T11:08:35.917Z</time></trkpt><trkpt lat="45.5476933" lon="10.8618261"><ele>527.0</ele><time>2026-04-26T11:08:36.917Z</time></trkpt><trkpt lat="45.5476056" lon="10.8619239"><ele>521.0</ele><time>2026-04-26T11:08:37.916Z</time></trkpt><trkpt lat="45.5475177" lon="10.8620241"><ele>515.0</ele><time>2026-04-26T11:08:38.916Z</time></trkpt><trkpt lat="45.5474267" lon="10.8621248"><ele>509.0</ele><time>2026-04-26T11:08:39.917Z</time></trkpt><trkpt lat="45.5473292" lon="10.8622185"><ele>503.0</ele><time>2026-04-26T11:08:40.917Z</time></trkpt><trkpt lat="45.5472284" lon="10.8623008"><ele>503.0</ele><time>2026-04-26T11:08:41.917Z</time></trkpt><trkpt lat="45.5471243" lon="10.8623707"><ele>502.99999999999994</ele><time>2026-04-26T11:08:42.917Z</time></trkpt><trkpt lat="45.5470192" lon="10.8624333"><ele>502.99999999999994</ele><time>2026-04-26T11:08:43.916Z</time></trkpt><trkpt lat="45.5469169" lon="10.8624833"><ele>503.0</ele><time>2026-04-26T11:08:44.916Z</time></trkpt><trkpt lat="45.5468215" lon="10.8625275"><ele>503.0</ele><time>2026-04-26T11:08:45.917Z</time></trkpt><trkpt lat="45.5467463" lon="10.8625556"><ele>501.66666666666663</ele><time>2026-04-26T11:08:46.917Z</time></trkpt><trkpt lat="45.5466402" lon="10.8625691"><ele>500.3333333333333</ele><time>2026-04-26T11:08:48.917Z</time></trkpt><trkpt lat="45.5465831" lon="10.8624792"><ele>499.0</ele><time>2026-04-26T11:08:51.917Z</time></trkpt><trkpt lat="45.5465546" lon="10.8623952"><ele>497.66666666666663</ele><time>2026-04-26T11:08:53.917Z</time></trkpt><trkpt lat="45.5465111" lon="10.8623229"><ele>496.3333333333333</ele><time>2026-04-26T11:09:18.917Z</time></trkpt><trkpt lat="45.5465567" lon="10.8624784"><ele>495.0</ele><time>2026-04-26T11:09:21.917Z</time></trkpt><trkpt lat="45.5466077" lon="10.8625708"><ele>487.5</ele><time>2026-04-26T11:09:23.916Z</time></trkpt><trkpt lat="45.5466451" lon="10.8626507"><ele>480.0</ele><time>2026-04-26T11:09:55.917Z</time></trkpt><trkpt lat="45.5467398" lon="10.8648508"><ele>506.0</ele><time>2026-04-26T11:15:14.56Z</time></trkpt><trkpt lat="45.5465926" lon="10.8612344"><ele>480.0</ele><time>2026-04-26T11:15:37.318Z</time></trkpt><trkpt lat="45.5466374" lon="10.8626219"><ele>483.0</ele><time>2026-04-26T11:15:57.915Z</time></trkpt><trkpt lat="45.546598" lon="10.8625024"><ele>486.0</ele><time>2026-04-26T11:16:12.915Z</time></trkpt><trkpt lat="45.5465701" lon="10.8623782"><ele>489.0</ele><time>2026-04-26T11:16:14.914Z</time></trkpt><trkpt lat="45.546564" lon="10.8622173"><ele>492.0</ele><time>2026-04-26T11:16:16.914Z</time></trkpt><trkpt lat="45.5465649" lon="10.8620557"><ele>495.0</ele><time>2026-04-26T11:16:18.914Z</time></trkpt><trkpt lat="45.5465395" lon="10.8618756"><ele>497.2</ele><time>2026-04-26T11:16:20.914Z</time></trkpt><trkpt lat="45.5465238" lon="10.8617783"><ele>499.4</ele><time>2026-04-26T11:16:21.915Z</time></trkpt><trkpt lat="45.5464891" lon="10.861608"><ele>501.6</ele><time>2026-04-26T11:16:23.914Z</time></trkpt><trkpt lat="45.5464706" lon="10.8615183"><ele>503.8</ele><time>2026-04-26T11:16:24.915Z</time></trkpt><trkpt lat="45.5464363" lon="10.8613735"><ele>506.0</ele><time>2026-04-26T11:16:26.914Z</time></trkpt><trkpt lat="45.5463966" lon="10.8612134"><ele>506.0</ele><time>2026-04-26T11:16:28.914Z</time></trkpt><trkpt lat="45.5463439" lon="10.8610848"><ele>506.0</ele><time>2026-04-26T11:16:30.914Z</time></trkpt><trkpt lat="45.5462726" lon="10.8609956"><ele>506.0</ele><time>2026-04-26T11:16:32.915Z</time></trkpt><trkpt lat="45.5461831" lon="10.8608737"><ele>506.0</ele><time>2026-04-26T11:16:34.914Z</time></trkpt><trkpt lat="45.5461456" lon="10.8608001"><ele>506.0</ele><time>2026-04-26T11:16:35.915Z</time></trkpt><trkpt lat="45.5461103" lon="10.8607123"><ele>505.99999999999994</ele><time>2026-04-26T11:16:36.915Z</time></trkpt><trkpt lat="45.5460771" lon="10.8606186"><ele>506.0</ele><time>2026-04-26T11:16:37.915Z</time></trkpt><trkpt lat="45.546045" lon="10.8605162"><ele>506.0</ele><time>2026-04-26T11:16:38.915Z</time></trkpt><trkpt lat="45.5460165" lon="10.8604117"><ele>506.0</ele><time>2026-04-26T11:16:39.914Z</time></trkpt><trkpt lat="45.545992" lon="10.8603001"><ele>505.99999999999994</ele><time>2026-04-26T11:16:40.914Z</time></trkpt><trkpt lat="45.5459601" lon="10.8601836"><ele>506.0</ele><time>2026-04-26T11:16:41.915Z</time></trkpt><trkpt lat="45.5459176" lon="10.8600798"><ele>506.0</ele><time>2026-04-26T11:16:42.915Z</time></trkpt><trkpt lat="45.5458626" lon="10.8599914"><ele>506.0</ele><time>2026-04-26T11:16:43.915Z</time></trkpt><trkpt lat="45.5457878" lon="10.8599216"><ele>506.0</ele><time>2026-04-26T11:16:44.915Z</time></trkpt><trkpt lat="45.5456984" lon="10.859866"><ele>506.0</ele><time>2026-04-26T11:16:45.915Z</time></trkpt><trkpt lat="45.5456038" lon="10.8598226"><ele>506.0</ele><time>2026-04-26T11:16:46.915Z</time></trkpt><trkpt lat="45.5455199" lon="10.8597768"><ele>505.99999999999994</ele><time>2026-04-26T11:16:47.915Z</time></trkpt><trkpt lat="45.5454534" lon="10.8597141"><ele>506.0</ele><time>2026-04-26T11:16:48.915Z</time></trkpt><trkpt lat="45.5453961" lon="10.8596306"><ele>506.0</ele><time>2026-04-26T11:16:49.915Z</time></trkpt><trkpt lat="45.5453439" lon="10.85954"><ele>506.0</ele><time>2026-04-26T11:16:50.915Z</time></trkpt><trkpt lat="45.5452967" lon="10.8594592"><ele>505.99999999999994</ele><time>2026-04-26T11:16:51.915Z</time></trkpt><trkpt lat="45.5452292" lon="10.8593371"><ele>506.0</ele><time>2026-04-26T11:16:53.915Z</time></trkpt><trkpt lat="45.5451922" lon="10.8592618"><ele>504.49999999999994</ele><time>2026-04-26T11:16:55.915Z</time></trkpt><trkpt lat="45.5450997" lon="10.8591717"><ele>503.0</ele><time>2026-04-26T11:17:04.915Z</time></trkpt><trkpt lat="45.5450443" lon="10.8591023"><ele>501.5</ele><time>2026-04-26T11:17:05.915Z</time></trkpt><trkpt lat="45.5449838" lon="10.8590251"><ele>500.0</ele><time>2026-04-26T11:17:06.915Z</time></trkpt><trkpt lat="45.5449154" lon="10.858942"><ele>498.49999999999994</ele><time>2026-04-26T11:17:07.914Z</time></trkpt><trkpt lat="45.5448407" lon="10.8588676"><ele>497.0</ele><time>2026-04-26T11:17:08.915Z</time></trkpt><trkpt lat="45.5447612" lon="10.8587956"><ele>497.0</ele><time>2026-04-26T11:17:09.915Z</time></trkpt><trkpt lat="45.5446814" lon="10.8587113"><ele>497.00000000000006</ele><time>2026-04-26T11:17:10.915Z</time></trkpt><trkpt lat="45.5446022" lon="10.858628"><ele>497.00000000000006</ele><time>2026-04-26T11:17:11.915Z</time></trkpt><trkpt lat="45.5445258" lon="10.8585407"><ele>497.0</ele><time>2026-04-26T11:17:12.915Z</time></trkpt><trkpt lat="45.544448" lon="10.8584522"><ele>497.0</ele><time>2026-04-26T11:17:13.915Z</time></trkpt><trkpt lat="45.5443681" lon="10.8583725"><ele>497.8333333333333</ele><time>2026-04-26T11:17:14.914Z</time></trkpt><trkpt lat="45.5442826" lon="10.8583129"><ele>498.66666666666663</ele><time>2026-04-26T11:17:15.915Z</time></trkpt><trkpt lat="45.544199" lon="10.8582767"><ele>499.5</ele><time>2026-04-26T11:17:16.915Z</time></trkpt><trkpt lat="45.5441144" lon="10.8582625"><ele>500.33333333333337</ele><time>2026-04-26T11:17:17.914Z</time></trkpt><trkpt lat="45.5440298" lon="10.8582646"><ele>501.1666666666667</ele><time>2026-04-26T11:17:18.915Z</time></trkpt><trkpt lat="45.5439569" lon="10.8582761"><ele>502.0</ele><time>2026-04-26T11:17:19.915Z</time></trkpt><trkpt lat="45.5438607" lon="10.8583351"><ele>502.00000000000006</ele><time>2026-04-26T11:17:21.914Z</time></trkpt><trkpt lat="45.5438801" lon="10.8584442"><ele>502.0</ele><time>2026-04-26T11:17:24.915Z</time></trkpt><trkpt lat="45.5439646" lon="10.8584867"><ele>502.0</ele><time>2026-04-26T11:17:26.915Z</time></trkpt><trkpt lat="45.5440257" lon="10.8585231"><ele>502.0</ele><time>2026-04-26T11:17:27.914Z</time></trkpt><trkpt lat="45.5440946" lon="10.8585642"><ele>502.00000000000006</ele><time>2026-04-26T11:17:28.914Z</time></trkpt><trkpt lat="45.5441717" lon="10.8586105"><ele>502.0</ele><time>2026-04-26T11:17:29.915Z</time></trkpt><trkpt lat="45.5442506" lon="10.8586593"><ele>501.1666666666667</ele><time>2026-04-26T11:17:30.915Z</time></trkpt><trkpt lat="45.5443252" lon="10.8587156"><ele>500.33333333333337</ele><time>2026-04-26T11:17:31.915Z</time></trkpt><trkpt lat="45.544393" lon="10.8587785"><ele>499.5</ele><time>2026-04-26T11:17:32.914Z</time></trkpt><trkpt lat="45.5444513" lon="10.8588509"><ele>498.66666666666663</ele><time>2026-04-26T11:17:33.915Z</time></trkpt><trkpt lat="45.5445001" lon="10.8589368"><ele>497.8333333333333</ele><time>2026-04-26T11:17:34.915Z</time></trkpt><trkpt lat="45.5445423" lon="10.8590232"><ele>497.0</ele><time>2026-04-26T11:17:35.915Z</time></trkpt><trkpt lat="45.5445866" lon="10.8591125"><ele>496.99999999999994</ele><time>2026-04-26T11:17:36.915Z</time></trkpt><trkpt lat="45.5446336" lon="10.8592035"><ele>497.0</ele><time>2026-04-26T11:17:37.915Z</time></trkpt><trkpt lat="45.544683" lon="10.8592963"><ele>497.0</ele><time>2026-04-26T11:17:38.914Z</time></trkpt><trkpt lat="45.5447332" lon="10.8593916"><ele>497.0</ele><time>2026-04-26T11:17:39.914Z</time></trkpt><trkpt lat="45.5447819" lon="10.8594932"><ele>496.99999999999994</ele><time>2026-04-26T11:17:40.915Z</time></trkpt><trkpt lat="45.5448265" lon="10.8595983"><ele>497.0</ele><time>2026-04-26T11:17:41.915Z</time></trkpt><trkpt lat="45.5448643" lon="10.859711"><ele>494.66666666666663</ele><time>2026-04-26T11:17:42.914Z</time></trkpt><trkpt lat="45.5448966" lon="10.8598277"><ele>492.3333333333333</ele><time>2026-04-26T11:17:43.915Z</time></trkpt><trkpt lat="45.5449273" lon="10.8599478"><ele>490.0</ele><time>2026-04-26T11:17:44.915Z</time></trkpt><trkpt lat="45.5449587" lon="10.8600696"><ele>487.66666666666663</ele><time>2026-04-26T11:17:45.915Z</time></trkpt><trkpt lat="45.5449891" lon="10.8601871"><ele>485.3333333333333</ele><time>2026-04-26T11:17:46.915Z</time></trkpt><trkpt lat="45.545012" lon="10.8603069"><ele>483.0</ele><time>2026-04-26T11:17:47.915Z</time></trkpt><trkpt lat="45.545026" lon="10.8604358"><ele>481.4</ele><time>2026-04-26T11:17:48.915Z</time></trkpt><trkpt lat="45.5450389" lon="10.8605677"><ele>479.79999999999995</ele><time>2026-04-26T11:17:49.915Z</time></trkpt><trkpt lat="45.5450465" lon="10.8607073"><ele>478.2</ele><time>2026-04-26T11:17:50.915Z</time></trkpt><trkpt lat="45.5450516" lon="10.8608491"><ele>476.6</ele><time>2026-04-26T11:17:51.915Z</time></trkpt><trkpt lat="45.5450515" lon="10.8609935"><ele>475.0</ele><time>2026-04-26T11:17:52.915Z</time></trkpt><trkpt lat="45.5450469" lon="10.8611387"><ele>473.8</ele><time>2026-04-26T11:17:53.915Z</time></trkpt><trkpt lat="45.5450416" lon="10.8612808"><ele>472.6</ele><time>2026-04-26T11:17:54.915Z</time></trkpt><trkpt lat="45.5450367" lon="10.8614208"><ele>471.4</ele><time>2026-04-26T11:17:55.915Z</time></trkpt><trkpt lat="45.5450334" lon="10.8615596"><ele>470.2</ele><time>2026-04-26T11:17:56.915Z</time></trkpt><trkpt lat="45.5450366" lon="10.8616991"><ele>469.0</ele><time>2026-04-26T11:17:57.915Z</time></trkpt><trkpt lat="45.5450551" lon="10.8618371"><ele>470.6</ele><time>2026-04-26T11:17:58.915Z</time></trkpt><trkpt lat="45.5450887" lon="10.8619682"><ele>472.2</ele><time>2026-04-26T11:17:59.914Z</time></trkpt><trkpt lat="45.5451388" lon="10.8620892"><ele>473.80000000000007</ele><time>2026-04-26T11:18:00.915Z</time></trkpt><trkpt lat="45.5452049" lon="10.8622002"><ele>475.40000000000003</ele><time>2026-04-26T11:18:01.914Z</time></trkpt><trkpt lat="45.5452905" lon="10.8622836"><ele>477.0</ele><time>2026-04-26T11:18:02.915Z</time></trkpt><trkpt lat="45.5453815" lon="10.8623429"><ele>477.0</ele><time>2026-04-26T11:18:03.914Z</time></trkpt><trkpt lat="45.545474" lon="10.8623813"><ele>477.0</ele><time>2026-04-26T11:18:04.915Z</time></trkpt><trkpt lat="45.545553" lon="10.8624144"><ele>477.0</ele><time>2026-04-26T11:18:05.915Z</time></trkpt><trkpt lat="45.5456169" lon="10.8624533"><ele>477.0</ele><time>2026-04-26T11:18:06.915Z</time></trkpt><trkpt lat="45.5456875" lon="10.8625965"><ele>477.0</ele><time>2026-04-26T11:18:08.915Z</time></trkpt><trkpt lat="45.5457073" lon="10.8626851"><ele>477.0</ele><time>2026-04-26T11:18:09.914Z</time></trkpt><trkpt lat="45.5457367" lon="10.8627949"><ele>473.0</ele><time>2026-04-26T11:18:10.915Z</time></trkpt><trkpt lat="45.5457816" lon="10.8629063"><ele>469.00000000000006</ele><time>2026-04-26T11:18:11.915Z</time></trkpt><trkpt lat="45.5458323" lon="10.8630185"><ele>465.00000000000006</ele><time>2026-04-26T11:18:12.915Z</time></trkpt><trkpt lat="45.545897" lon="10.8631274"><ele>461.0</ele><time>2026-04-26T11:18:13.914Z</time></trkpt><trkpt lat="45.5459813" lon="10.8632304"><ele>457.0</ele><time>2026-04-26T11:18:14.915Z</time></trkpt><trkpt lat="45.5460811" lon="10.8633253"><ele>457.0</ele><time>2026-04-26T11:18:15.915Z</time></trkpt><trkpt lat="45.5461869" lon="10.8634175"><ele>457.0</ele><time>2026-04-26T11:18:16.915Z</time></trkpt><trkpt lat="45.5462947" lon="10.8635096"><ele>457.0</ele><time>2026-04-26T11:18:17.914Z</time></trkpt><trkpt lat="45.5464014" lon="10.8636039"><ele>457.0</ele><time>2026-04-26T11:18:18.915Z</time></trkpt><trkpt lat="45.5465072" lon="10.8637019"><ele>459.0</ele><time>2026-04-26T11:18:19.915Z</time></trkpt><trkpt lat="45.5466132" lon="10.8638072"><ele>461.0</ele><time>2026-04-26T11:18:20.915Z</time></trkpt><trkpt lat="45.5467169" lon="10.8639142"><ele>463.0</ele><time>2026-04-26T11:18:21.915Z</time></trkpt><trkpt lat="45.5468241" lon="10.8640155"><ele>465.0</ele><time>2026-04-26T11:18:22.914Z</time></trkpt><trkpt lat="45.5469309" lon="10.8641079"><ele>465.0</ele><time>2026-04-26T11:18:23.914Z</time></trkpt><trkpt lat="45.5470397" lon="10.8641912"><ele>465.0</ele><time>2026-04-26T11:18:24.914Z</time></trkpt><trkpt lat="45.5471488" lon="10.864268"><ele>465.0</ele><time>2026-04-26T11:18:25.915Z</time></trkpt><trkpt lat="45.5472578" lon="10.8643394"><ele>465.0</ele><time>2026-04-26T11:18:26.915Z</time></trkpt><trkpt lat="45.5473632" lon="10.864408"><ele>465.6666666666667</ele><time>2026-04-26T11:18:27.914Z</time></trkpt><trkpt lat="45.5474563" lon="10.8644692"><ele>466.33333333333337</ele><time>2026-04-26T11:18:28.915Z</time></trkpt><trkpt lat="45.5475355" lon="10.8645214"><ele>467.0</ele><time>2026-04-26T11:18:29.915Z</time></trkpt><trkpt lat="45.5476125" lon="10.8645659"><ele>467.6666666666667</ele><time>2026-04-26T11:18:30.915Z</time></trkpt><trkpt lat="45.5477062" lon="10.8646261"><ele>468.33333333333337</ele><time>2026-04-26T11:18:32.914Z</time></trkpt><trkpt lat="45.5477757" lon="10.8646473"><ele>469.0</ele><time>2026-04-26T11:18:34.915Z</time></trkpt><trkpt lat="45.5477743" lon="10.8645476"><ele>469.00000000000006</ele><time>2026-04-26T11:18:37.914Z</time></trkpt><trkpt lat="45.5476674" lon="10.8645396"><ele>469.0</ele><time>2026-04-26T11:18:39.914Z</time></trkpt><trkpt lat="45.5475749" lon="10.8646241"><ele>469.0</ele><time>2026-04-26T11:18:41.915Z</time></trkpt><trkpt lat="45.5475485" lon="10.8647164"><ele>469.0</ele><time>2026-04-26T11:18:42.915Z</time></trkpt><trkpt lat="45.5475313" lon="10.8648146"><ele>469.00000000000006</ele><time>2026-04-26T11:18:43.914Z</time></trkpt><trkpt lat="45.5475128" lon="10.8649159"><ele>469.0</ele><time>2026-04-26T11:18:44.915Z</time></trkpt><trkpt lat="45.5474942" lon="10.8650205"><ele>467.2</ele><time>2026-04-26T11:18:45.915Z</time></trkpt><trkpt lat="45.5474791" lon="10.8651197"><ele>465.4</ele><time>2026-04-26T11:18:46.915Z</time></trkpt><trkpt lat="45.5474708" lon="10.8652154"><ele>463.6</ele><time>2026-04-26T11:18:47.914Z</time></trkpt><trkpt lat="45.5474593" lon="10.8653895"><ele>461.8</ele><time>2026-04-26T11:18:49.914Z</time></trkpt><trkpt lat="45.5474523" lon="10.8655667"><ele>460.0</ele><time>2026-04-26T11:18:51.914Z</time></trkpt><trkpt lat="45.5474637" lon="10.8657429"><ele>460.0</ele><time>2026-04-26T11:18:53.915Z</time></trkpt><trkpt lat="45.5474909" lon="10.8659139"><ele>460.0</ele><time>2026-04-26T11:18:55.914Z</time></trkpt><trkpt lat="45.5475299" lon="10.8660573"><ele>460.0</ele><time>2026-04-26T11:18:57.915Z</time></trkpt><trkpt lat="45.5475345" lon="10.8661959"><ele>460.0</ele><time>2026-04-26T11:18:59.915Z</time></trkpt><trkpt lat="45.547494" lon="10.8663163"><ele>460.0</ele><time>2026-04-26T11:19:01.914Z</time></trkpt><trkpt lat="45.5473996" lon="10.8664115"><ele>458.5714285714285</ele><time>2026-04-26T11:19:03.915Z</time></trkpt><trkpt lat="45.5473543" lon="10.8664803"><ele>457.1428571428571</ele><time>2026-04-26T11:19:04.915Z</time></trkpt><trkpt lat="45.5473219" lon="10.8665613"><ele>455.7142857142857</ele><time>2026-04-26T11:19:05.915Z</time></trkpt><trkpt lat="45.5473037" lon="10.8666553"><ele>454.2857142857143</ele><time>2026-04-26T11:19:06.914Z</time></trkpt><trkpt lat="45.5473137" lon="10.8667541"><ele>452.8571428571429</ele><time>2026-04-26T11:19:07.915Z</time></trkpt><trkpt lat="45.5473399" lon="10.8668428"><ele>451.4285714285715</ele><time>2026-04-26T11:19:08.915Z</time></trkpt><trkpt lat="45.5473849" lon="10.8669144"><ele>450.00000000000006</ele><time>2026-04-26T11:19:09.914Z</time></trkpt><trkpt lat="45.5474328" lon="10.8670476"><ele>448.1666666666667</ele><time>2026-04-26T11:19:11.914Z</time></trkpt><trkpt lat="45.5474358" lon="10.8671418"><ele>446.33333333333337</ele><time>2026-04-26T11:19:13.915Z</time></trkpt><trkpt lat="45.5473446" lon="10.8672003"><ele>444.5</ele><time>2026-04-26T11:19:17.914Z</time></trkpt><trkpt lat="45.5472749" lon="10.8671834"><ele>442.6666666666667</ele><time>2026-04-26T11:19:18.914Z</time></trkpt><trkpt lat="45.5471899" lon="10.8671534"><ele>440.83333333333337</ele><time>2026-04-26T11:19:19.914Z</time></trkpt><trkpt lat="45.54709" lon="10.8671101"><ele>439.0</ele><time>2026-04-26T11:19:20.915Z</time></trkpt><trkpt lat="45.5469806" lon="10.8670605"><ele>435.75</ele><time>2026-04-26T11:19:21.914Z</time></trkpt><trkpt lat="45.5468595" lon="10.8670085"><ele>432.5</ele><time>2026-04-26T11:19:22.914Z</time></trkpt><trkpt lat="45.5467388" lon="10.8669532"><ele>429.25</ele><time>2026-04-26T11:19:23.915Z</time></trkpt><trkpt lat="45.5466145" lon="10.8668935"><ele>426.0</ele><time>2026-04-26T11:19:24.915Z</time></trkpt><trkpt lat="45.5464889" lon="10.8668252"><ele>426.75</ele><time>2026-04-26T11:19:25.915Z</time></trkpt><trkpt lat="45.5463647" lon="10.8667465"><ele>427.5</ele><time>2026-04-26T11:19:26.915Z</time></trkpt><trkpt lat="45.5462397" lon="10.8666604"><ele>428.25</ele><time>2026-04-26T11:19:27.914Z</time></trkpt><trkpt lat="45.5461155" lon="10.866567"><ele>429.0</ele><time>2026-04-26T11:19:28.914Z</time></trkpt><trkpt lat="45.5459878" lon="10.8664737"><ele>429.0</ele><time>2026-04-26T11:19:29.914Z</time></trkpt><trkpt lat="45.5458583" lon="10.8663825"><ele>429.0</ele><time>2026-04-26T11:19:30.914Z</time></trkpt><trkpt lat="45.5457268" lon="10.8662936"><ele>429.0</ele><time>2026-04-26T11:19:31.915Z</time></trkpt><trkpt lat="45.5456023" lon="10.8662086"><ele>429.0</ele><time>2026-04-26T11:19:32.915Z</time></trkpt><trkpt lat="45.5454909" lon="10.8661249"><ele>429.0</ele><time>2026-04-26T11:19:33.915Z</time></trkpt><trkpt lat="45.5453819" lon="10.8660274"><ele>429.0</ele><time>2026-04-26T11:19:34.915Z</time></trkpt><trkpt lat="45.5452778" lon="10.8659099"><ele>429.0</ele><time>2026-04-26T11:19:35.914Z</time></trkpt><trkpt lat="45.5451836" lon="10.8657733"><ele>429.0</ele><time>2026-04-26T11:19:36.914Z</time></trkpt><trkpt lat="45.5450953" lon="10.8656257"><ele>427.25</ele><time>2026-04-26T11:19:37.915Z</time></trkpt><trkpt lat="45.5450085" lon="10.8654724"><ele>425.5</ele><time>2026-04-26T11:19:38.915Z</time></trkpt><trkpt lat="45.5449208" lon="10.8653212"><ele>423.75</ele><time>2026-04-26T11:19:39.915Z</time></trkpt><trkpt lat="45.5448312" lon="10.8651744"><ele>422.0</ele><time>2026-04-26T11:19:40.914Z</time></trkpt><trkpt lat="45.5447379" lon="10.865032"><ele>421.5</ele><time>2026-04-26T11:19:41.914Z</time></trkpt><trkpt lat="45.5446339" lon="10.8649076"><ele>421.0</ele><time>2026-04-26T11:19:42.914Z</time></trkpt><trkpt lat="45.5445172" lon="10.8648039"><ele>420.5</ele><time>2026-04-26T11:19:43.914Z</time></trkpt><trkpt lat="45.5443885" lon="10.8647238"><ele>420.0</ele><time>2026-04-26T11:19:44.915Z</time></trkpt><trkpt lat="45.5442502" lon="10.8646709"><ele>417.75</ele><time>2026-04-26T11:19:45.914Z</time></trkpt><trkpt lat="45.5441117" lon="10.8646565"><ele>415.5</ele><time>2026-04-26T11:19:46.914Z</time></trkpt><trkpt lat="45.5439799" lon="10.8646844"><ele>413.25</ele><time>2026-04-26T11:19:47.915Z</time></trkpt><trkpt lat="45.5438626" lon="10.864754"><ele>411.0</ele><time>2026-04-26T11:19:48.915Z</time></trkpt><trkpt lat="45.5437627" lon="10.8648689"><ele>408.75</ele><time>2026-04-26T11:19:49.915Z</time></trkpt><trkpt lat="45.5436706" lon="10.8650181"><ele>406.5</ele><time>2026-04-26T11:19:50.914Z</time></trkpt><trkpt lat="45.543581" lon="10.8651869"><ele>404.25</ele><time>2026-04-26T11:19:51.915Z</time></trkpt><trkpt lat="45.5434876" lon="10.8653468"><ele>402.0</ele><time>2026-04-26T11:19:52.914Z</time></trkpt><trkpt lat="45.5434018" lon="10.8654942"><ele>402.0</ele><time>2026-04-26T11:19:53.914Z</time></trkpt><trkpt lat="45.543327" lon="10.8656357"><ele>402.0</ele><time>2026-04-26T11:19:54.914Z</time></trkpt><trkpt lat="45.5432756" lon="10.8657938"><ele>402.0</ele><time>2026-04-26T11:19:55.915Z</time></trkpt><trkpt lat="45.5432546" lon="10.8659815"><ele>402.0</ele><time>2026-04-26T11:19:56.914Z</time></trkpt><trkpt lat="45.5432579" lon="10.8661777"><ele>402.0</ele><time>2026-04-26T11:19:57.915Z</time></trkpt><trkpt lat="45.5432801" lon="10.8663839"><ele>402.0</ele><time>2026-04-26T11:19:58.915Z</time></trkpt><trkpt lat="45.5432974" lon="10.8665589"><ele>402.0</ele><time>2026-04-26T11:19:59.915Z</time></trkpt><trkpt lat="45.5433088" lon="10.8667222"><ele>402.0</ele><time>2026-04-26T11:20:00.914Z</time></trkpt><trkpt lat="45.5433148" lon="10.8668584"><ele>401.0</ele><time>2026-04-26T11:20:01.915Z</time></trkpt><trkpt lat="45.5433209" lon="10.8669762"><ele>400.0</ele><time>2026-04-26T11:20:02.915Z</time></trkpt><trkpt lat="45.5433303" lon="10.8670743"><ele>399.0</ele><time>2026-04-26T11:20:03.915Z</time></trkpt><trkpt lat="45.5433611" lon="10.867216"><ele>398.0</ele><time>2026-04-26T11:20:05.915Z</time></trkpt><trkpt lat="45.5434097" lon="10.8672819"><ele>397.0</ele><time>2026-04-26T11:20:08.915Z</time></trkpt><trkpt lat="45.5433933" lon="10.8671889"><ele>396.0</ele><time>2026-04-26T11:20:11.915Z</time></trkpt><trkpt lat="45.5433658" lon="10.8670446"><ele>396.0</ele><time>2026-04-26T11:20:13.915Z</time></trkpt><trkpt lat="45.5433515" lon="10.8668743"><ele>396.0</ele><time>2026-04-26T11:20:15.914Z</time></trkpt><trkpt lat="45.5433361" lon="10.8667757"><ele>396.0</ele><time>2026-04-26T11:20:16.914Z</time></trkpt><trkpt lat="45.5433198" lon="10.8666682"><ele>396.0</ele><time>2026-04-26T11:20:17.915Z</time></trkpt><trkpt lat="45.5433068" lon="10.8665332"><ele>396.0</ele><time>2026-04-26T11:20:18.915Z</time></trkpt><trkpt lat="45.5433007" lon="10.8663912"><ele>397.20000000000005</ele><time>2026-04-26T11:20:19.914Z</time></trkpt><trkpt lat="45.5432933" lon="10.8662422"><ele>398.40000000000003</ele><time>2026-04-26T11:20:20.915Z</time></trkpt><trkpt lat="45.543282" lon="10.8660901"><ele>399.6</ele><time>2026-04-26T11:20:21.915Z</time></trkpt><trkpt lat="45.5432779" lon="10.8659418"><ele>400.8</ele><time>2026-04-26T11:20:22.915Z</time></trkpt><trkpt lat="45.543304" lon="10.8658009"><ele>402.0</ele><time>2026-04-26T11:20:23.915Z</time></trkpt><trkpt lat="45.5433602" lon="10.8656606"><ele>402.0</ele><time>2026-04-26T11:20:24.915Z</time></trkpt><trkpt lat="45.543429" lon="10.8655192"><ele>402.0</ele><time>2026-04-26T11:20:25.915Z</time></trkpt><trkpt lat="45.543499" lon="10.8653779"><ele>402.0</ele><time>2026-04-26T11:20:26.915Z</time></trkpt><trkpt lat="45.5435683" lon="10.8652418"><ele>402.0</ele><time>2026-04-26T11:20:27.915Z</time></trkpt><trkpt lat="45.543631" lon="10.8651236"><ele>401.5</ele><time>2026-04-26T11:20:28.915Z</time></trkpt><trkpt lat="45.5436811" lon="10.8650355"><ele>401.0</ele><time>2026-04-26T11:20:29.914Z</time></trkpt><trkpt lat="45.5437206" lon="10.864958"><ele>400.5</ele><time>2026-04-26T11:20:30.915Z</time></trkpt><trkpt lat="45.5437576" lon="10.8648025"><ele>400.0</ele><time>2026-04-26T11:20:32.915Z</time></trkpt><trkpt lat="45.5438148" lon="10.8646709"><ele>399.5</ele><time>2026-04-26T11:20:34.915Z</time></trkpt><trkpt lat="45.5438484" lon="10.864583"><ele>399.0</ele><time>2026-04-26T11:20:37.915Z</time></trkpt><trkpt lat="45.5437558" lon="10.8645622"><ele>399.0</ele><time>2026-04-26T11:20:42.915Z</time></trkpt><trkpt lat="45.5436702" lon="10.8646193"><ele>399.0</ele><time>2026-04-26T11:20:44.914Z</time></trkpt><trkpt lat="45.5435572" lon="10.8646764"><ele>399.0</ele><time>2026-04-26T11:20:46.914Z</time></trkpt><trkpt lat="45.5434366" lon="10.8647265"><ele>399.0</ele><time>2026-04-26T11:20:48.914Z</time></trkpt><trkpt lat="45.5433652" lon="10.8647411"><ele>399.0</ele><time>2026-04-26T11:20:49.914Z</time></trkpt><trkpt lat="45.5432759" lon="10.8647621"><ele>399.0</ele><time>2026-04-26T11:20:50.914Z</time></trkpt><trkpt lat="45.5431992" lon="10.8647641"><ele>399.0</ele><time>2026-04-26T11:20:51.914Z</time></trkpt><trkpt lat="45.5431266" lon="10.8647929"><ele>399.0</ele><time>2026-04-26T11:20:52.914Z</time></trkpt><trkpt lat="45.5430624" lon="10.8648295"><ele>399.0</ele><time>2026-04-26T11:20:53.913Z</time></trkpt><trkpt lat="45.5429678" lon="10.8649217"><ele>399.0</ele><time>2026-04-26T11:20:55.914Z</time></trkpt><trkpt lat="45.542876" lon="10.8650042"><ele>399.0</ele><time>2026-04-26T11:20:57.914Z</time></trkpt><trkpt lat="45.5428115" lon="10.8650427"><ele>396.3333333333333</ele><time>2026-04-26T11:20:58.914Z</time></trkpt><trkpt lat="45.5427463" lon="10.865072"><ele>393.6666666666667</ele><time>2026-04-26T11:20:59.914Z</time></trkpt><trkpt lat="45.5426793" lon="10.865093"><ele>391.0</ele><time>2026-04-26T11:21:00.914Z</time></trkpt><trkpt lat="45.5426042" lon="10.8651174"><ele>388.33333333333337</ele><time>2026-04-26T11:21:01.913Z</time></trkpt><trkpt lat="45.5425278" lon="10.8651427"><ele>385.6666666666667</ele><time>2026-04-26T11:21:02.913Z</time></trkpt><trkpt lat="45.542446" lon="10.8651754"><ele>383.0</ele><time>2026-04-26T11:21:03.914Z</time></trkpt><trkpt lat="45.5423505" lon="10.8652125"><ele>383.0</ele><time>2026-04-26T11:21:04.913Z</time></trkpt><trkpt lat="45.5422565" lon="10.865244"><ele>383.0</ele><time>2026-04-26T11:21:05.914Z</time></trkpt><trkpt lat="45.5421716" lon="10.8652795"><ele>383.0</ele><time>2026-04-26T11:21:06.914Z</time></trkpt><trkpt lat="45.5420908" lon="10.8653155"><ele>383.0</ele><time>2026-04-26T11:21:07.914Z</time></trkpt><trkpt lat="45.5420185" lon="10.8653568"><ele>383.0</ele><time>2026-04-26T11:21:08.914Z</time></trkpt><trkpt lat="45.5419549" lon="10.8654148"><ele>383.0</ele><time>2026-04-26T11:21:09.914Z</time></trkpt><trkpt lat="45.5418791" lon="10.8654639"><ele>380.83333333333337</ele><time>2026-04-26T11:21:10.914Z</time></trkpt><trkpt lat="45.5417985" lon="10.8655114"><ele>378.6666666666667</ele><time>2026-04-26T11:21:11.914Z</time></trkpt><trkpt lat="45.5417153" lon="10.865549"><ele>376.5</ele><time>2026-04-26T11:21:12.913Z</time></trkpt><trkpt lat="45.5416386" lon="10.8655809"><ele>374.3333333333333</ele><time>2026-04-26T11:21:13.914Z</time></trkpt><trkpt lat="45.5415627" lon="10.8656104"><ele>372.16666666666663</ele><time>2026-04-26T11:21:14.914Z</time></trkpt><trkpt lat="45.5414907" lon="10.8656387"><ele>370.0</ele><time>2026-04-26T11:21:15.914Z</time></trkpt><trkpt lat="45.5414254" lon="10.8656624"><ele>370.0</ele><time>2026-04-26T11:21:16.913Z</time></trkpt><trkpt lat="45.5413415" lon="10.865678"><ele>370.0</ele><time>2026-04-26T11:21:18.912Z</time></trkpt><trkpt lat="45.541273" lon="10.8657253"><ele>370.0</ele><time>2026-04-26T11:21:30.914Z</time></trkpt><trkpt lat="45.5411964" lon="10.8658207"><ele>370.0</ele><time>2026-04-26T11:21:32.913Z</time></trkpt><trkpt lat="45.5411457" lon="10.8658892"><ele>370.0</ele><time>2026-04-26T11:21:33.914Z</time></trkpt><trkpt lat="45.541084" lon="10.8659715"><ele>370.0</ele><time>2026-04-26T11:21:34.914Z</time></trkpt><trkpt lat="45.5410377" lon="10.8660583"><ele>366.66666666666663</ele><time>2026-04-26T11:21:35.913Z</time></trkpt><trkpt lat="45.5409882" lon="10.8661482"><ele>363.3333333333333</ele><time>2026-04-26T11:21:36.914Z</time></trkpt><trkpt lat="45.5409373" lon="10.8662258"><ele>360.0</ele><time>2026-04-26T11:21:37.914Z</time></trkpt><trkpt lat="45.5408884" lon="10.8663022"><ele>356.6666666666667</ele><time>2026-04-26T11:21:38.913Z</time></trkpt><trkpt lat="45.5408384" lon="10.866393"><ele>353.33333333333337</ele><time>2026-04-26T11:21:39.914Z</time></trkpt><trkpt lat="45.5407893" lon="10.8664773"><ele>350.0</ele><time>2026-04-26T11:21:40.914Z</time></trkpt><trkpt lat="45.5407448" lon="10.8665543"><ele>350.0</ele><time>2026-04-26T11:21:41.914Z</time></trkpt><trkpt lat="45.5406465" lon="10.866676"><ele>350.0</ele><time>2026-04-26T11:21:43.913Z</time></trkpt><trkpt lat="45.5405606" lon="10.866724"><ele>350.0</ele><time>2026-04-26T11:21:44.914Z</time></trkpt><trkpt lat="45.5404585" lon="10.8667756"><ele>350.0</ele><time>2026-04-26T11:21:45.913Z</time></trkpt><trkpt lat="45.5403544" lon="10.8668353"><ele>350.0</ele><time>2026-04-26T11:21:46.914Z</time></trkpt><trkpt lat="45.5402455" lon="10.8668974"><ele>344.4</ele><time>2026-04-26T11:21:47.914Z</time></trkpt><trkpt lat="45.5401398" lon="10.8669543"><ele>338.8</ele><time>2026-04-26T11:21:48.914Z</time></trkpt><trkpt lat="45.540046" lon="10.8670058"><ele>333.20000000000005</ele><time>2026-04-26T11:21:49.914Z</time></trkpt><trkpt lat="45.539952" lon="10.8670469"><ele>327.6</ele><time>2026-04-26T11:21:50.913Z</time></trkpt><trkpt lat="45.5398555" lon="10.867074"><ele>322.0</ele><time>2026-04-26T11:21:51.913Z</time></trkpt><trkpt lat="45.5397653" lon="10.8670836"><ele>322.0</ele><time>2026-04-26T11:21:52.914Z</time></trkpt><trkpt lat="45.5396637" lon="10.8670942"><ele>322.0</ele><time>2026-04-26T11:21:53.913Z</time></trkpt><trkpt lat="45.539556" lon="10.8671049"><ele>322.0</ele><time>2026-04-26T11:21:54.914Z</time></trkpt><trkpt lat="45.5394399" lon="10.8671225"><ele>322.0</ele><time>2026-04-26T11:21:55.913Z</time></trkpt><trkpt lat="45.539318" lon="10.8671495"><ele>319.5</ele><time>2026-04-26T11:21:56.913Z</time></trkpt><trkpt lat="45.5391907" lon="10.8671724"><ele>317.0</ele><time>2026-04-26T11:21:57.914Z</time></trkpt><trkpt lat="45.5390599" lon="10.8671992"><ele>314.5</ele><time>2026-04-26T11:21:58.914Z</time></trkpt><trkpt lat="45.5389272" lon="10.8672261"><ele>312.0</ele><time>2026-04-26T11:21:59.913Z</time></trkpt><trkpt lat="45.538794" lon="10.8672559"><ele>309.75</ele><time>2026-04-26T11:22:00.913Z</time></trkpt><trkpt lat="45.5386596" lon="10.8672817"><ele>307.5</ele><time>2026-04-26T11:22:01.914Z</time></trkpt><trkpt lat="45.5385255" lon="10.8673025"><ele>305.25</ele><time>2026-04-26T11:22:02.913Z</time></trkpt><trkpt lat="45.5383907" lon="10.8673223"><ele>303.0</ele><time>2026-04-26T11:22:03.913Z</time></trkpt><trkpt lat="45.5382554" lon="10.8673459"><ele>303.0</ele><time>2026-04-26T11:22:04.914Z</time></trkpt><trkpt lat="45.538121" lon="10.8673725"><ele>303.0</ele><time>2026-04-26T11:22:05.914Z</time></trkpt><trkpt lat="45.5379902" lon="10.8673968"><ele>303.0</ele><time>2026-04-26T11:22:06.914Z</time></trkpt><trkpt lat="45.5378569" lon="10.8674202"><ele>303.0</ele><time>2026-04-26T11:22:07.913Z</time></trkpt><trkpt lat="45.5377219" lon="10.8674434"><ele>300.5</ele><time>2026-04-26T11:22:08.913Z</time></trkpt><trkpt lat="45.5375874" lon="10.8674629"><ele>298.0</ele><time>2026-04-26T11:22:09.914Z</time></trkpt><trkpt lat="45.5374529" lon="10.8674823"><ele>295.5</ele><time>2026-04-26T11:22:10.914Z</time></trkpt><trkpt lat="45.5373233" lon="10.8675039"><ele>293.0</ele><time>2026-04-26T11:22:11.914Z</time></trkpt><trkpt lat="45.5371967" lon="10.8675236"><ele>293.0</ele><time>2026-04-26T11:22:12.914Z</time></trkpt><trkpt lat="45.5370723" lon="10.8675476"><ele>293.0</ele><time>2026-04-26T11:22:13.914Z</time></trkpt><trkpt lat="45.5369441" lon="10.8675691"><ele>293.0</ele><time>2026-04-26T11:22:14.914Z</time></trkpt><trkpt lat="45.536813" lon="10.8675972"><ele>293.0</ele><time>2026-04-26T11:22:15.914Z</time></trkpt><trkpt lat="45.5366869" lon="10.8676253"><ele>288.25</ele><time>2026-04-26T11:22:16.914Z</time></trkpt><trkpt lat="45.5365558" lon="10.8676588"><ele>283.5</ele><time>2026-04-26T11:22:17.914Z</time></trkpt><trkpt lat="45.5364379" lon="10.867707"><ele>278.75</ele><time>2026-04-26T11:22:18.913Z</time></trkpt><trkpt lat="45.5363261" lon="10.8677593"><ele>274.0</ele><time>2026-04-26T11:22:19.914Z</time></trkpt><trkpt lat="45.5362087" lon="10.8678019"><ele>273.25</ele><time>2026-04-26T11:22:20.914Z</time></trkpt><trkpt lat="45.5360916" lon="10.8678339"><ele>272.5</ele><time>2026-04-26T11:22:21.913Z</time></trkpt><trkpt lat="45.535983" lon="10.8678922"><ele>271.75</ele><time>2026-04-26T11:22:22.914Z</time></trkpt><trkpt lat="45.5358766" lon="10.8679568"><ele>271.0</ele><time>2026-04-26T11:22:23.914Z</time></trkpt><trkpt lat="45.535769" lon="10.8680106"><ele>271.0</ele><time>2026-04-26T11:22:24.914Z</time></trkpt><trkpt lat="45.5356542" lon="10.8680633"><ele>271.0</ele><time>2026-04-26T11:22:25.913Z</time></trkpt><trkpt lat="45.5355507" lon="10.8681106"><ele>271.0</ele><time>2026-04-26T11:22:26.913Z</time></trkpt><trkpt lat="45.5354566" lon="10.8681551"><ele>271.0</ele><time>2026-04-26T11:22:27.914Z</time></trkpt><trkpt lat="45.5353703" lon="10.8682033"><ele>271.0</ele><time>2026-04-26T11:22:28.913Z</time></trkpt><trkpt lat="45.5352903" lon="10.8682574"><ele>269.2</ele><time>2026-04-26T11:22:29.914Z</time></trkpt><trkpt lat="45.5352073" lon="10.8683092"><ele>267.40000000000003</ele><time>2026-04-26T11:22:30.914Z</time></trkpt><trkpt lat="45.5351251" lon="10.8683525"><ele>265.6</ele><time>2026-04-26T11:22:31.914Z</time></trkpt><trkpt lat="45.5350453" lon="10.8683823"><ele>263.8</ele><time>2026-04-26T11:22:32.914Z</time></trkpt><trkpt lat="45.5349561" lon="10.8684217"><ele>262.0</ele><time>2026-04-26T11:22:33.913Z</time></trkpt><trkpt lat="45.5348647" lon="10.868465"><ele>259.8</ele><time>2026-04-26T11:22:34.913Z</time></trkpt><trkpt lat="45.5347711" lon="10.8685085"><ele>257.6</ele><time>2026-04-26T11:22:35.914Z</time></trkpt><trkpt lat="45.5346764" lon="10.8685499"><ele>255.40000000000003</ele><time>2026-04-26T11:22:36.914Z</time></trkpt><trkpt lat="45.5345803" lon="10.8685914"><ele>253.20000000000002</ele><time>2026-04-26T11:22:37.914Z</time></trkpt><trkpt lat="45.5344836" lon="10.868638"><ele>251.0</ele><time>2026-04-26T11:22:38.913Z</time></trkpt><trkpt lat="45.5343815" lon="10.8686847"><ele>249.8</ele><time>2026-04-26T11:22:39.914Z</time></trkpt><trkpt lat="45.5342794" lon="10.8687331"><ele>248.60000000000002</ele><time>2026-04-26T11:22:40.913Z</time></trkpt><trkpt lat="45.5341763" lon="10.8687781"><ele>247.4</ele><time>2026-04-26T11:22:41.913Z</time></trkpt><trkpt lat="45.5340703" lon="10.8688045"><ele>246.2</ele><time>2026-04-26T11:22:42.914Z</time></trkpt><trkpt lat="45.5339635" lon="10.8688082"><ele>245.0</ele><time>2026-04-26T11:22:43.914Z</time></trkpt><trkpt lat="45.5338837" lon="10.8688011"><ele>245.0</ele><time>2026-04-26T11:22:44.914Z</time></trkpt><trkpt lat="45.5337785" lon="10.8687134"><ele>245.0</ele><time>2026-04-26T11:22:46.914Z</time></trkpt><trkpt lat="45.5337383" lon="10.8686315"><ele>245.0</ele><time>2026-04-26T11:22:47.914Z</time></trkpt><trkpt lat="45.5337114" lon="10.8685233"><ele>245.0</ele><time>2026-04-26T11:22:48.913Z</time></trkpt><trkpt lat="45.5336904" lon="10.8683986"><ele>245.0</ele><time>2026-04-26T11:22:49.914Z</time></trkpt><trkpt lat="45.5336741" lon="10.8682612"><ele>244.8</ele><time>2026-04-26T11:22:50.914Z</time></trkpt><trkpt lat="45.5336622" lon="10.868113"><ele>244.6</ele><time>2026-04-26T11:22:51.914Z</time></trkpt><trkpt lat="45.5336559" lon="10.867952"><ele>244.39999999999998</ele><time>2026-04-26T11:22:52.914Z</time></trkpt><trkpt lat="45.5336554" lon="10.8678049"><ele>244.2</ele><time>2026-04-26T11:22:53.913Z</time></trkpt><trkpt lat="45.5336628" lon="10.867667"><ele>244.0</ele><time>2026-04-26T11:22:54.914Z</time></trkpt><trkpt lat="45.533674" lon="10.8675338"><ele>243.25</ele><time>2026-04-26T11:22:55.914Z</time></trkpt><trkpt lat="45.5337046" lon="10.8673912"><ele>242.5</ele><time>2026-04-26T11:22:56.913Z</time></trkpt><trkpt lat="45.5337542" lon="10.8672399"><ele>241.75</ele><time>2026-04-26T11:22:57.914Z</time></trkpt><trkpt lat="45.5338171" lon="10.8671046"><ele>241.0</ele><time>2026-04-26T11:22:58.913Z</time></trkpt><trkpt lat="45.5339012" lon="10.8669883"><ele>241.8</ele><time>2026-04-26T11:22:59.914Z</time></trkpt><trkpt lat="45.5340032" lon="10.8669017"><ele>242.60000000000002</ele><time>2026-04-26T11:23:00.913Z</time></trkpt><trkpt lat="45.5341085" lon="10.8668339"><ele>243.4</ele><time>2026-04-26T11:23:01.913Z</time></trkpt><trkpt lat="45.5341918" lon="10.8667522"><ele>244.2</ele><time>2026-04-26T11:23:02.914Z</time></trkpt><trkpt lat="45.5342456" lon="10.8666585"><ele>245.0</ele><time>2026-04-26T11:23:03.913Z</time></trkpt><trkpt lat="45.5342603" lon="10.8665617"><ele>245.0</ele><time>2026-04-26T11:23:04.913Z</time></trkpt><trkpt lat="45.5342373" lon="10.8664617"><ele>245.0</ele><time>2026-04-26T11:23:05.914Z</time></trkpt><trkpt lat="45.5341756" lon="10.8663673"><ele>245.0</ele><time>2026-04-26T11:23:06.914Z</time></trkpt><trkpt lat="45.5340952" lon="10.8662657"><ele>245.0</ele><time>2026-04-26T11:23:07.914Z</time></trkpt><trkpt lat="45.5340103" lon="10.8661522"><ele>245.0</ele><time>2026-04-26T11:23:08.914Z</time></trkpt><trkpt lat="45.5339223" lon="10.8660302"><ele>244.5</ele><time>2026-04-26T11:23:09.914Z</time></trkpt><trkpt lat="45.5338262" lon="10.8659149"><ele>244.0</ele><time>2026-04-26T11:23:10.914Z</time></trkpt><trkpt lat="45.5337264" lon="10.8658026"><ele>243.5</ele><time>2026-04-26T11:23:11.914Z</time></trkpt><trkpt lat="45.5336203" lon="10.8657022"><ele>243.0</ele><time>2026-04-26T11:23:12.914Z</time></trkpt><trkpt lat="45.5335127" lon="10.8656053"><ele>239.25</ele><time>2026-04-26T11:23:13.914Z</time></trkpt><trkpt lat="45.533407" lon="10.8655111"><ele>235.5</ele><time>2026-04-26T11:23:14.914Z</time></trkpt><trkpt lat="45.533312" lon="10.8654157"><ele>231.75</ele><time>2026-04-26T11:23:15.914Z</time></trkpt><trkpt lat="45.5332191" lon="10.8653229"><ele>228.0</ele><time>2026-04-26T11:23:16.914Z</time></trkpt><trkpt lat="45.5331276" lon="10.8652346"><ele>228.0</ele><time>2026-04-26T11:23:17.913Z</time></trkpt><trkpt lat="45.5330294" lon="10.8651588"><ele>228.0</ele><time>2026-04-26T11:23:18.914Z</time></trkpt><trkpt lat="45.5329171" lon="10.8651022"><ele>228.0</ele><time>2026-04-26T11:23:19.914Z</time></trkpt><trkpt lat="45.5327978" lon="10.8650624"><ele>228.0</ele><time>2026-04-26T11:23:20.913Z</time></trkpt><trkpt lat="45.5326754" lon="10.8650264"><ele>226.25</ele><time>2026-04-26T11:23:21.913Z</time></trkpt><trkpt lat="45.5325549" lon="10.8649864"><ele>224.5</ele><time>2026-04-26T11:23:22.914Z</time></trkpt><trkpt lat="45.5324355" lon="10.8649447"><ele>222.75</ele><time>2026-04-26T11:23:23.914Z</time></trkpt><trkpt lat="45.532316" lon="10.864905"><ele>221.0</ele><time>2026-04-26T11:23:24.914Z</time></trkpt><trkpt lat="45.5321994" lon="10.8648678"><ele>221.0</ele><time>2026-04-26T11:23:25.913Z</time></trkpt><trkpt lat="45.5320986" lon="10.8648281"><ele>221.00000000000003</ele><time>2026-04-26T11:23:26.913Z</time></trkpt><trkpt lat="45.5320021" lon="10.8647726"><ele>221.00000000000003</ele><time>2026-04-26T11:23:27.913Z</time></trkpt><trkpt lat="45.5319014" lon="10.864698"><ele>221.0</ele><time>2026-04-26T11:23:28.913Z</time></trkpt><trkpt lat="45.5317939" lon="10.8646181"><ele>221.0</ele><time>2026-04-26T11:23:29.914Z</time></trkpt><trkpt lat="45.5316808" lon="10.8645388"><ele>220.0</ele><time>2026-04-26T11:23:30.914Z</time></trkpt><trkpt lat="45.5315634" lon="10.8644601"><ele>219.0</ele><time>2026-04-26T11:23:31.914Z</time></trkpt><trkpt lat="45.5314455" lon="10.8643781"><ele>218.0</ele><time>2026-04-26T11:23:32.914Z</time></trkpt><trkpt lat="45.5313262" lon="10.8642892"><ele>217.0</ele><time>2026-04-26T11:23:33.913Z</time></trkpt><trkpt lat="45.5312083" lon="10.8641913"><ele>214.75</ele><time>2026-04-26T11:23:34.914Z</time></trkpt><trkpt lat="45.5310947" lon="10.8640789"><ele>212.5</ele><time>2026-04-26T11:23:35.915Z</time></trkpt><trkpt lat="45.5309881" lon="10.8639545"><ele>210.25</ele><time>2026-04-26T11:23:36.914Z</time></trkpt><trkpt lat="45.530885" lon="10.8638242"><ele>208.0</ele><time>2026-04-26T11:23:37.914Z</time></trkpt><trkpt lat="45.5307854" lon="10.8636931"><ele>208.0</ele><time>2026-04-26T11:23:38.914Z</time></trkpt><trkpt lat="45.5306992" lon="10.8635683"><ele>208.0</ele><time>2026-04-26T11:23:39.913Z</time></trkpt><trkpt lat="45.5306296" lon="10.8634463"><ele>208.0</ele><time>2026-04-26T11:23:40.914Z</time></trkpt><trkpt lat="45.5305851" lon="10.8633266"><ele>208.0</ele><time>2026-04-26T11:23:41.913Z</time></trkpt><trkpt lat="45.5305708" lon="10.8632099"><ele>208.0</ele><time>2026-04-26T11:23:42.913Z</time></trkpt><trkpt lat="45.5305907" lon="10.863091"><ele>206.33333333333331</ele><time>2026-04-26T11:23:43.913Z</time></trkpt><trkpt lat="45.530631" lon="10.8629872"><ele>204.66666666666666</ele><time>2026-04-26T11:23:44.914Z</time></trkpt><trkpt lat="45.5306576" lon="10.8628868"><ele>203.0</ele><time>2026-04-26T11:23:45.914Z</time></trkpt><trkpt lat="45.5306601" lon="10.8627849"><ele>201.33333333333331</ele><time>2026-04-26T11:23:46.914Z</time></trkpt><trkpt lat="45.5306363" lon="10.8626935"><ele>199.66666666666666</ele><time>2026-04-26T11:23:47.913Z</time></trkpt><trkpt lat="45.5305908" lon="10.8626184"><ele>198.0</ele><time>2026-04-26T11:23:48.914Z</time></trkpt><trkpt lat="45.5305113" lon="10.8625636"><ele>197.8</ele><time>2026-04-26T11:23:49.913Z</time></trkpt><trkpt lat="45.5304242" lon="10.8625172"><ele>197.60000000000002</ele><time>2026-04-26T11:23:50.914Z</time></trkpt><trkpt lat="45.5303312" lon="10.8624701"><ele>197.39999999999998</ele><time>2026-04-26T11:23:51.914Z</time></trkpt><trkpt lat="45.5302401" lon="10.8624204"><ele>197.2</ele><time>2026-04-26T11:23:52.913Z</time></trkpt><trkpt lat="45.5301529" lon="10.8623734"><ele>197.0</ele><time>2026-04-26T11:23:53.914Z</time></trkpt><trkpt lat="45.5300786" lon="10.8623205"><ele>196.16666666666669</ele><time>2026-04-26T11:23:54.914Z</time></trkpt><trkpt lat="45.5300228" lon="10.8622488"><ele>195.33333333333334</ele><time>2026-04-26T11:23:55.913Z</time></trkpt><trkpt lat="45.5299781" lon="10.8621596"><ele>194.5</ele><time>2026-04-26T11:23:56.914Z</time></trkpt><trkpt lat="45.5299447" lon="10.8620622"><ele>193.66666666666669</ele><time>2026-04-26T11:23:57.913Z</time></trkpt><trkpt lat="45.5299099" lon="10.8619648"><ele>192.83333333333334</ele><time>2026-04-26T11:23:58.914Z</time></trkpt><trkpt lat="45.5298733" lon="10.8618612"><ele>192.0</ele><time>2026-04-26T11:23:59.914Z</time></trkpt><trkpt lat="45.5298304" lon="10.8617568"><ele>192.0</ele><time>2026-04-26T11:24:00.914Z</time></trkpt><trkpt lat="45.5297801" lon="10.8616486"><ele>192.0</ele><time>2026-04-26T11:24:01.914Z</time></trkpt><trkpt lat="45.5297241" lon="10.8615371"><ele>192.0</ele><time>2026-04-26T11:24:02.914Z</time></trkpt><trkpt lat="45.5296746" lon="10.8614289"><ele>192.0</ele><time>2026-04-26T11:24:03.914Z</time></trkpt><trkpt lat="45.5296295" lon="10.8613252"><ele>192.0</ele><time>2026-04-26T11:24:04.913Z</time></trkpt><trkpt lat="45.5295989" lon="10.8612325"><ele>192.0</ele><time>2026-04-26T11:24:05.913Z</time></trkpt><trkpt lat="45.5295712" lon="10.8610998"><ele>190.66666666666666</ele><time>2026-04-26T11:24:07.913Z</time></trkpt><trkpt lat="45.5294997" lon="10.8610318"><ele>189.33333333333334</ele><time>2026-04-26T11:24:10.914Z</time></trkpt><trkpt lat="45.5294414" lon="10.8610945"><ele>188.0</ele><time>2026-04-26T11:32:31.911Z</time></trkpt><trkpt lat="45.5294155" lon="10.8611898"><ele>186.66666666666669</ele><time>2026-04-26T11:32:33.91Z</time></trkpt><trkpt lat="45.5293585" lon="10.8612711"><ele>185.33333333333334</ele><time>2026-04-26T11:32:35.911Z</time></trkpt><trkpt lat="45.5292815" lon="10.8613727"><ele>184.0</ele><time>2026-04-26T11:32:37.91Z</time></trkpt><trkpt lat="45.5291956" lon="10.8614753"><ele>184.0</ele><time>2026-04-26T11:32:39.911Z</time></trkpt><trkpt lat="45.5291063" lon="10.861611"><ele>184.0</ele><time>2026-04-26T11:32:41.911Z</time></trkpt><trkpt lat="45.5290569" lon="10.8616885"><ele>184.0</ele><time>2026-04-26T11:32:42.91Z</time></trkpt><trkpt lat="45.5290058" lon="10.86177"><ele>184.0</ele><time>2026-04-26T11:32:43.91Z</time></trkpt><trkpt lat="45.5289515" lon="10.8618555"><ele>184.0</ele><time>2026-04-26T11:32:44.911Z</time></trkpt><trkpt lat="45.5288965" lon="10.8619497"><ele>184.0</ele><time>2026-04-26T11:32:45.91Z</time></trkpt><trkpt lat="45.5288359" lon="10.8620556"><ele>183.79999999999998</ele><time>2026-04-26T11:32:46.911Z</time></trkpt><trkpt lat="45.5287731" lon="10.8621662"><ele>183.6</ele><time>2026-04-26T11:32:47.911Z</time></trkpt><trkpt lat="45.5287101" lon="10.8622794"><ele>183.4</ele><time>2026-04-26T11:32:48.911Z</time></trkpt><trkpt lat="45.5286489" lon="10.8623909"><ele>183.2</ele><time>2026-04-26T11:32:49.911Z</time></trkpt><trkpt lat="45.5285821" lon="10.862501"><ele>183.0</ele><time>2026-04-26T11:32:50.911Z</time></trkpt><trkpt lat="45.528508" lon="10.8626062"><ele>182.0</ele><time>2026-04-26T11:32:51.911Z</time></trkpt><trkpt lat="45.5284258" lon="10.8627022"><ele>181.0</ele><time>2026-04-26T11:32:52.91Z</time></trkpt><trkpt lat="45.5283363" lon="10.862789"><ele>180.0</ele><time>2026-04-26T11:32:53.911Z</time></trkpt><trkpt lat="45.528243" lon="10.8628707"><ele>179.0</ele><time>2026-04-26T11:32:54.91Z</time></trkpt><trkpt lat="45.5281467" lon="10.8629462"><ele>178.0</ele><time>2026-04-26T11:32:55.911Z</time></trkpt><trkpt lat="45.5280471" lon="10.863018"><ele>178.0</ele><time>2026-04-26T11:32:56.91Z</time></trkpt><trkpt lat="45.5279442" lon="10.8630923"><ele>178.0</ele><time>2026-04-26T11:32:57.91Z</time></trkpt><trkpt lat="45.5278361" lon="10.8631707"><ele>178.0</ele><time>2026-04-26T11:32:58.911Z</time></trkpt><trkpt lat="45.5277292" lon="10.8632419"><ele>178.0</ele><time>2026-04-26T11:32:59.911Z</time></trkpt><trkpt lat="45.5276239" lon="10.8633016"><ele>178.0</ele><time>2026-04-26T11:33:00.911Z</time></trkpt><trkpt lat="45.5275099" lon="10.8633512"><ele>178.0</ele><time>2026-04-26T11:33:01.911Z</time></trkpt><trkpt lat="45.5273885" lon="10.8633892"><ele>178.0</ele><time>2026-04-26T11:33:02.91Z</time></trkpt><trkpt lat="45.5272676" lon="10.8634217"><ele>178.0</ele><time>2026-04-26T11:33:03.91Z</time></trkpt><trkpt lat="45.5271409" lon="10.8634538"><ele>175.25</ele><time>2026-04-26T11:33:04.911Z</time></trkpt><trkpt lat="45.5270139" lon="10.8634828"><ele>172.5</ele><time>2026-04-26T11:33:05.911Z</time></trkpt><trkpt lat="45.5268873" lon="10.8635133"><ele>169.75</ele><time>2026-04-26T11:33:06.91Z</time></trkpt><trkpt lat="45.5267606" lon="10.8635523"><ele>167.0</ele><time>2026-04-26T11:33:07.91Z</time></trkpt><trkpt lat="45.5266343" lon="10.8636029"><ele>167.0</ele><time>2026-04-26T11:33:08.911Z</time></trkpt><trkpt lat="45.5265103" lon="10.8636713"><ele>167.0</ele><time>2026-04-26T11:33:09.91Z</time></trkpt><trkpt lat="45.5263905" lon="10.8637529"><ele>167.0</ele><time>2026-04-26T11:33:10.911Z</time></trkpt><trkpt lat="45.5262723" lon="10.8638418"><ele>167.0</ele><time>2026-04-26T11:33:11.91Z</time></trkpt><trkpt lat="45.5261553" lon="10.8639282"><ele>165.75</ele><time>2026-04-26T11:33:12.911Z</time></trkpt><trkpt lat="45.5260375" lon="10.8640176"><ele>164.5</ele><time>2026-04-26T11:33:13.911Z</time></trkpt><trkpt lat="45.5259215" lon="10.8641083"><ele>163.25</ele><time>2026-04-26T11:33:14.911Z</time></trkpt><trkpt lat="45.5258053" lon="10.8641946"><ele>162.0</ele><time>2026-04-26T11:33:15.91Z</time></trkpt><trkpt lat="45.5256877" lon="10.8642849"><ele>161.25</ele><time>2026-04-26T11:33:16.911Z</time></trkpt><trkpt lat="45.5255699" lon="10.8643721"><ele>160.5</ele><time>2026-04-26T11:33:17.911Z</time></trkpt><trkpt lat="45.5254527" lon="10.8644561"><ele>159.75</ele><time>2026-04-26T11:33:18.911Z</time></trkpt><trkpt lat="45.5253369" lon="10.8645426"><ele>159.0</ele><time>2026-04-26T11:33:19.911Z</time></trkpt><trkpt lat="45.5252201" lon="10.86463"><ele>159.0</ele><time>2026-04-26T11:33:20.911Z</time></trkpt><trkpt lat="45.5250998" lon="10.864718"><ele>159.0</ele><time>2026-04-26T11:33:21.91Z</time></trkpt><trkpt lat="45.524983" lon="10.8648116"><ele>159.0</ele><time>2026-04-26T11:33:22.91Z</time></trkpt><trkpt lat="45.5248688" lon="10.8649074"><ele>159.0</ele><time>2026-04-26T11:33:23.911Z</time></trkpt><trkpt lat="45.5247525" lon="10.8650087"><ele>159.0</ele><time>2026-04-26T11:33:24.911Z</time></trkpt><trkpt lat="45.5246346" lon="10.8651066"><ele>159.0</ele><time>2026-04-26T11:33:25.91Z</time></trkpt><trkpt lat="45.5245146" lon="10.865202"><ele>159.0</ele><time>2026-04-26T11:33:26.91Z</time></trkpt><trkpt lat="45.5243913" lon="10.8652955"><ele>159.0</ele><time>2026-04-26T11:33:27.909Z</time></trkpt><trkpt lat="45.5242665" lon="10.8653873"><ele>157.75</ele><time>2026-04-26T11:33:28.91Z</time></trkpt><trkpt lat="45.5241435" lon="10.8654789"><ele>156.5</ele><time>2026-04-26T11:33:29.911Z</time></trkpt><trkpt lat="45.5240169" lon="10.8655645"><ele>155.25</ele><time>2026-04-26T11:33:30.911Z</time></trkpt><trkpt lat="45.5238917" lon="10.8656516"><ele>154.0</ele><time>2026-04-26T11:33:31.911Z</time></trkpt><trkpt lat="45.523767" lon="10.8657374"><ele>153.25</ele><time>2026-04-26T11:33:32.91Z</time></trkpt><trkpt lat="45.5236455" lon="10.8658259"><ele>152.5</ele><time>2026-04-26T11:33:33.91Z</time></trkpt><trkpt lat="45.5235271" lon="10.8659126"><ele>151.75</ele><time>2026-04-26T11:33:34.911Z</time></trkpt><trkpt lat="45.5234188" lon="10.865993"><ele>151.0</ele><time>2026-04-26T11:33:35.91Z</time></trkpt><trkpt lat="45.523324" lon="10.8660672"><ele>151.0</ele><time>2026-04-26T11:33:36.91Z</time></trkpt><trkpt lat="45.5232436" lon="10.8661278"><ele>151.0</ele><time>2026-04-26T11:33:37.911Z</time></trkpt><trkpt lat="45.5231756" lon="10.8661689"><ele>151.0</ele><time>2026-04-26T11:33:38.91Z</time></trkpt><trkpt lat="45.5230734" lon="10.8661803"><ele>151.0</ele><time>2026-04-26T11:33:40.91Z</time></trkpt><trkpt lat="45.5229868" lon="10.8660657"><ele>151.0</ele><time>2026-04-26T11:33:42.911Z</time></trkpt><trkpt lat="45.5229515" lon="10.8659642"><ele>151.0</ele><time>2026-04-26T11:33:43.911Z</time></trkpt><trkpt lat="45.5229162" lon="10.8658363"><ele>151.0</ele><time>2026-04-26T11:33:44.911Z</time></trkpt><trkpt lat="45.5228792" lon="10.8656982"><ele>151.0</ele><time>2026-04-26T11:33:45.91Z</time></trkpt><trkpt lat="45.5228348" lon="10.8655436"><ele>151.0</ele><time>2026-04-26T11:33:46.911Z</time></trkpt><trkpt lat="45.5227868" lon="10.8653812"><ele>151.0</ele><time>2026-04-26T11:33:47.911Z</time></trkpt><trkpt lat="45.5227317" lon="10.8652082"><ele>150.0</ele><time>2026-04-26T11:33:48.911Z</time></trkpt><trkpt lat="45.5226705" lon="10.8650263"><ele>149.0</ele><time>2026-04-26T11:33:49.911Z</time></trkpt><trkpt lat="45.5226134" lon="10.8648376"><ele>148.0</ele><time>2026-04-26T11:33:50.911Z</time></trkpt><trkpt lat="45.5225556" lon="10.8646483"><ele>147.0</ele><time>2026-04-26T11:33:51.91Z</time></trkpt><trkpt lat="45.5224998" lon="10.8644547"><ele>146.5</ele><time>2026-04-26T11:33:52.911Z</time></trkpt><trkpt lat="45.5224432" lon="10.8642705"><ele>146.0</ele><time>2026-04-26T11:33:53.911Z</time></trkpt><trkpt lat="45.522389" lon="10.864093"><ele>145.5</ele><time>2026-04-26T11:33:54.911Z</time></trkpt><trkpt lat="45.5223343" lon="10.8639084"><ele>145.0</ele><time>2026-04-26T11:33:55.911Z</time></trkpt><trkpt lat="45.5222819" lon="10.8637175"><ele>145.0</ele><time>2026-04-26T11:33:56.91Z</time></trkpt><trkpt lat="45.5222304" lon="10.8635361"><ele>145.0</ele><time>2026-04-26T11:33:57.911Z</time></trkpt><trkpt lat="45.5221801" lon="10.8633515"><ele>145.0</ele><time>2026-04-26T11:33:58.911Z</time></trkpt><trkpt lat="45.5221307" lon="10.8631657"><ele>145.0</ele><time>2026-04-26T11:33:59.911Z</time></trkpt><trkpt lat="45.5220841" lon="10.8629776"><ele>144.0</ele><time>2026-04-26T11:34:00.91Z</time></trkpt><trkpt lat="45.5220447" lon="10.8627892"><ele>143.0</ele><time>2026-04-26T11:34:01.91Z</time></trkpt><trkpt lat="45.5220121" lon="10.8626019"><ele>142.0</ele><time>2026-04-26T11:34:02.911Z</time></trkpt><trkpt lat="45.5219814" lon="10.8624213"><ele>141.0</ele><time>2026-04-26T11:34:03.911Z</time></trkpt><trkpt lat="45.5219527" lon="10.8622498"><ele>141.0</ele><time>2026-04-26T11:34:04.911Z</time></trkpt><trkpt lat="45.5219316" lon="10.8620893"><ele>141.0</ele><time>2026-04-26T11:34:05.91Z</time></trkpt><trkpt lat="45.5219118" lon="10.8619478"><ele>141.0</ele><time>2026-04-26T11:34:06.911Z</time></trkpt><trkpt lat="45.5218942" lon="10.8618288"><ele>141.0</ele><time>2026-04-26T11:34:07.91Z</time></trkpt><trkpt lat="45.5218749" lon="10.8617386"><ele>141.0</ele><time>2026-04-26T11:34:08.91Z</time></trkpt><trkpt lat="45.5217926" lon="10.8616453"><ele>141.2</ele><time>2026-04-26T11:34:10.911Z</time></trkpt><trkpt lat="45.5217153" lon="10.8616169"><ele>141.39999999999998</ele><time>2026-04-26T11:34:11.911Z</time></trkpt><trkpt lat="45.5216195" lon="10.8615857"><ele>141.6</ele><time>2026-04-26T11:34:12.911Z</time></trkpt><trkpt lat="45.5215041" lon="10.8615468"><ele>141.79999999999998</ele><time>2026-04-26T11:34:13.911Z</time></trkpt><trkpt lat="45.5213827" lon="10.8615128"><ele>142.0</ele><time>2026-04-26T11:34:14.911Z</time></trkpt><trkpt lat="45.5212527" lon="10.8614858"><ele>141.0</ele><time>2026-04-26T11:34:15.91Z</time></trkpt><trkpt lat="45.5211157" lon="10.8614705"><ele>140.0</ele><time>2026-04-26T11:34:16.91Z</time></trkpt><trkpt lat="45.5209774" lon="10.8614584"><ele>139.0</ele><time>2026-04-26T11:34:17.91Z</time></trkpt><trkpt lat="45.5208371" lon="10.8614405"><ele>138.0</ele><time>2026-04-26T11:34:18.911Z</time></trkpt><trkpt lat="45.5206884" lon="10.8614127"><ele>138.0</ele><time>2026-04-26T11:34:19.91Z</time></trkpt><trkpt lat="45.5205333" lon="10.8613802"><ele>138.0</ele><time>2026-04-26T11:34:20.911Z</time></trkpt><trkpt lat="45.5203778" lon="10.8613428"><ele>138.0</ele><time>2026-04-26T11:34:21.91Z</time></trkpt><trkpt lat="45.520221" lon="10.8613048"><ele>138.0</ele><time>2026-04-26T11:34:22.91Z</time></trkpt><trkpt lat="45.5200665" lon="10.8612626"><ele>138.0</ele><time>2026-04-26T11:34:23.91Z</time></trkpt><trkpt lat="45.5199134" lon="10.8612211"><ele>138.0</ele><time>2026-04-26T11:34:24.91Z</time></trkpt><trkpt lat="45.5197597" lon="10.8611761"><ele>138.0</ele><time>2026-04-26T11:34:25.911Z</time></trkpt><trkpt lat="45.5196094" lon="10.8611243"><ele>138.0</ele><time>2026-04-26T11:34:26.911Z</time></trkpt><trkpt lat="45.5194615" lon="10.8610613"><ele>138.0</ele><time>2026-04-26T11:34:27.911Z</time></trkpt><trkpt lat="45.5193144" lon="10.8609857"><ele>138.33333333333334</ele><time>2026-04-26T11:34:28.91Z</time></trkpt><trkpt lat="45.5191712" lon="10.8609025"><ele>138.66666666666669</ele><time>2026-04-26T11:34:29.911Z</time></trkpt><trkpt lat="45.5190298" lon="10.8608141"><ele>139.0</ele><time>2026-04-26T11:34:30.911Z</time></trkpt><trkpt lat="45.5188887" lon="10.8607217"><ele>139.0</ele><time>2026-04-26T11:34:31.911Z</time></trkpt><trkpt lat="45.5187495" lon="10.8606236"><ele>139.0</ele><time>2026-04-26T11:34:32.91Z</time></trkpt><trkpt lat="45.5186125" lon="10.860519"><ele>139.0</ele><time>2026-04-26T11:34:33.91Z</time></trkpt><trkpt lat="45.5184784" lon="10.860414"><ele>138.33333333333334</ele><time>2026-04-26T11:34:34.911Z</time></trkpt><trkpt lat="45.5183433" lon="10.8603067"><ele>137.66666666666666</ele><time>2026-04-26T11:34:35.911Z</time></trkpt><trkpt lat="45.5182121" lon="10.8601923"><ele>137.0</ele><time>2026-04-26T11:34:36.911Z</time></trkpt><trkpt lat="45.518081" lon="10.8600812"><ele>136.66666666666666</ele><time>2026-04-26T11:34:37.911Z</time></trkpt><trkpt lat="45.5179483" lon="10.8599761"><ele>136.33333333333334</ele><time>2026-04-26T11:34:38.91Z</time></trkpt><trkpt lat="45.5178142" lon="10.859873"><ele>136.0</ele><time>2026-04-26T11:34:39.911Z</time></trkpt><trkpt lat="45.5176817" lon="10.8597712"><ele>135.66666666666669</ele><time>2026-04-26T11:34:40.911Z</time></trkpt><trkpt lat="45.51755" lon="10.8596706"><ele>135.33333333333334</ele><time>2026-04-26T11:34:41.91Z</time></trkpt><trkpt lat="45.5174169" lon="10.8595694"><ele>135.0</ele><time>2026-04-26T11:34:42.911Z</time></trkpt><trkpt lat="45.5172856" lon="10.8594676"><ele>135.0</ele><time>2026-04-26T11:34:43.911Z</time></trkpt><trkpt lat="45.5171725" lon="10.8593758"><ele>135.0</ele><time>2026-04-26T11:34:44.911Z</time></trkpt><trkpt lat="45.5170651" lon="10.8592808"><ele>135.0</ele><time>2026-04-26T11:34:45.911Z</time></trkpt><trkpt lat="45.5169566" lon="10.8591753"><ele>135.0</ele><time>2026-04-26T11:34:46.911Z</time></trkpt><trkpt lat="45.5168425" lon="10.8590624"><ele>134.75</ele><time>2026-04-26T11:34:47.91Z</time></trkpt><trkpt lat="45.5167197" lon="10.8589573"><ele>134.5</ele><time>2026-04-26T11:34:48.911Z</time></trkpt><trkpt lat="45.5165903" lon="10.8588618"><ele>134.25</ele><time>2026-04-26T11:34:49.91Z</time></trkpt><trkpt lat="45.5164541" lon="10.8587695"><ele>134.0</ele><time>2026-04-26T11:34:50.911Z</time></trkpt><trkpt lat="45.516314" lon="10.8586767"><ele>134.33333333333331</ele><time>2026-04-26T11:34:51.911Z</time></trkpt><trkpt lat="45.5161727" lon="10.8585882"><ele>134.66666666666666</ele><time>2026-04-26T11:34:52.91Z</time></trkpt><trkpt lat="45.5160268" lon="10.8585018"><ele>135.0</ele><time>2026-04-26T11:34:53.911Z</time></trkpt><trkpt lat="45.5158815" lon="10.85842"><ele>135.0</ele><time>2026-04-26T11:34:54.911Z</time></trkpt><trkpt lat="45.515736" lon="10.8583427"><ele>135.0</ele><time>2026-04-26T11:34:55.911Z</time></trkpt><trkpt lat="45.5155948" lon="10.8582682"><ele>135.0</ele><time>2026-04-26T11:34:56.911Z</time></trkpt><trkpt lat="45.5154696" lon="10.8581938"><ele>135.0</ele><time>2026-04-26T11:34:57.911Z</time></trkpt><trkpt lat="45.5153585" lon="10.8581113"><ele>135.0</ele><time>2026-04-26T11:34:58.91Z</time></trkpt><trkpt lat="45.5152605" lon="10.8580199"><ele>135.0</ele><time>2026-04-26T11:34:59.911Z</time></trkpt><trkpt lat="45.5151714" lon="10.8579363"><ele>135.0</ele><time>2026-04-26T11:35:00.91Z</time></trkpt><trkpt lat="45.5150883" lon="10.8578593"><ele>135.0</ele><time>2026-04-26T11:35:01.911Z</time></trkpt><trkpt lat="45.5150146" lon="10.8577736"><ele>135.0</ele><time>2026-04-26T11:35:02.91Z</time></trkpt><trkpt lat="45.5149472" lon="10.8576691"><ele>134.75</ele><time>2026-04-26T11:35:03.91Z</time></trkpt><trkpt lat="45.5148682" lon="10.857545"><ele>134.5</ele><time>2026-04-26T11:35:04.911Z</time></trkpt><trkpt lat="45.5147858" lon="10.8574175"><ele>134.25</ele><time>2026-04-26T11:35:05.911Z</time></trkpt><trkpt lat="45.5146949" lon="10.8572935"><ele>134.0</ele><time>2026-04-26T11:35:06.911Z</time></trkpt><trkpt lat="45.5145983" lon="10.8571756"><ele>134.0</ele><time>2026-04-26T11:35:07.911Z</time></trkpt><trkpt lat="45.5144936" lon="10.8570665"><ele>134.0</ele><time>2026-04-26T11:35:08.911Z</time></trkpt><trkpt lat="45.5143868" lon="10.8569578"><ele>134.0</ele><time>2026-04-26T11:35:09.911Z</time></trkpt><trkpt lat="45.5142751" lon="10.856843"><ele>134.0</ele><time>2026-04-26T11:35:10.911Z</time></trkpt><trkpt lat="45.5141605" lon="10.8567264"><ele>134.0</ele><time>2026-04-26T11:35:11.91Z</time></trkpt><trkpt lat="45.5140473" lon="10.8565997"><ele>134.0</ele><time>2026-04-26T11:35:12.91Z</time></trkpt><trkpt lat="45.5139354" lon="10.8564636"><ele>134.0</ele><time>2026-04-26T11:35:13.911Z</time></trkpt><trkpt lat="45.5138225" lon="10.8563308"><ele>134.0</ele><time>2026-04-26T11:35:14.911Z</time></trkpt><trkpt lat="45.5137085" lon="10.8561965"><ele>134.0</ele><time>2026-04-26T11:35:15.91Z</time></trkpt><trkpt lat="45.5135921" lon="10.8560593"><ele>134.0</ele><time>2026-04-26T11:35:16.911Z</time></trkpt><trkpt lat="45.5134785" lon="10.8559197"><ele>134.0</ele><time>2026-04-26T11:35:17.91Z</time></trkpt><trkpt lat="45.5133683" lon="10.8557764"><ele>134.0</ele><time>2026-04-26T11:35:18.911Z</time></trkpt><trkpt lat="45.5132565" lon="10.8556334"><ele>134.0</ele><time>2026-04-26T11:35:19.911Z</time></trkpt><trkpt lat="45.5131438" lon="10.8554885"><ele>134.0</ele><time>2026-04-26T11:35:20.91Z</time></trkpt><trkpt lat="45.5130359" lon="10.855343"><ele>134.0</ele><time>2026-04-26T11:35:21.91Z</time></trkpt><trkpt lat="45.5129286" lon="10.8551947"><ele>134.0</ele><time>2026-04-26T11:35:22.91Z</time></trkpt><trkpt lat="45.5128344" lon="10.8550568"><ele>134.0</ele><time>2026-04-26T11:35:23.91Z</time></trkpt><trkpt lat="45.5127487" lon="10.854932"><ele>134.0</ele><time>2026-04-26T11:35:24.91Z</time></trkpt><trkpt lat="45.5126661" lon="10.8548244"><ele>134.0</ele><time>2026-04-26T11:35:25.911Z</time></trkpt><trkpt lat="45.5125877" lon="10.8547295"><ele>134.0</ele><time>2026-04-26T11:35:26.911Z</time></trkpt><trkpt lat="45.5125196" lon="10.8546372"><ele>134.0</ele><time>2026-04-26T11:35:27.911Z</time></trkpt><trkpt lat="45.5124687" lon="10.8545538"><ele>134.0</ele><time>2026-04-26T11:35:28.911Z</time></trkpt><trkpt lat="45.512428" lon="10.8544722"><ele>134.0</ele><time>2026-04-26T11:35:29.911Z</time></trkpt><trkpt lat="45.5123955" lon="10.8543827"><ele>134.0</ele><time>2026-04-26T11:35:30.911Z</time></trkpt><trkpt lat="45.5123647" lon="10.854268"><ele>134.0</ele><time>2026-04-26T11:35:31.911Z</time></trkpt><trkpt lat="45.5123343" lon="10.8541388"><ele>134.0</ele><time>2026-04-26T11:35:32.91Z</time></trkpt><trkpt lat="45.5123052" lon="10.8539852"><ele>134.0</ele><time>2026-04-26T11:35:33.911Z</time></trkpt><trkpt lat="45.5122766" lon="10.8538255"><ele>134.0</ele><time>2026-04-26T11:35:34.911Z</time></trkpt><trkpt lat="45.512247" lon="10.853657"><ele>134.0</ele><time>2026-04-26T11:35:35.91Z</time></trkpt><trkpt lat="45.5122143" lon="10.8534768"><ele>133.75</ele><time>2026-04-26T11:35:36.911Z</time></trkpt><trkpt lat="45.5121759" lon="10.8533019"><ele>133.5</ele><time>2026-04-26T11:35:37.91Z</time></trkpt><trkpt lat="45.5121315" lon="10.853127"><ele>133.25</ele><time>2026-04-26T11:35:38.911Z</time></trkpt><trkpt lat="45.5120834" lon="10.852957"><ele>133.0</ele><time>2026-04-26T11:35:39.91Z</time></trkpt><trkpt lat="45.5120232" lon="10.8528162"><ele>129.75</ele><time>2026-04-26T11:35:40.911Z</time></trkpt><trkpt lat="45.5119282" lon="10.8527143"><ele>126.5</ele><time>2026-04-26T11:35:41.911Z</time></trkpt><trkpt lat="45.5118085" lon="10.8526282"><ele>123.25</ele><time>2026-04-26T11:35:42.91Z</time></trkpt><trkpt lat="45.5116724" lon="10.8525604"><ele>120.0</ele><time>2026-04-26T11:35:43.911Z</time></trkpt><trkpt lat="45.5115251" lon="10.8524988"><ele>120.0</ele><time>2026-04-26T11:35:44.911Z</time></trkpt><trkpt lat="45.511373" lon="10.8524343"><ele>120.0</ele><time>2026-04-26T11:35:45.911Z</time></trkpt><trkpt lat="45.5112233" lon="10.8523696"><ele>120.0</ele><time>2026-04-26T11:35:46.911Z</time></trkpt><trkpt lat="45.511066" lon="10.8523098"><ele>119.0</ele><time>2026-04-26T11:35:47.91Z</time></trkpt><trkpt lat="45.5109078" lon="10.852249"><ele>118.0</ele><time>2026-04-26T11:35:48.91Z</time></trkpt><trkpt lat="45.5107501" lon="10.8521858"><ele>117.0</ele><time>2026-04-26T11:35:49.91Z</time></trkpt><trkpt lat="45.5105956" lon="10.8521293"><ele>117.0</ele><time>2026-04-26T11:35:50.91Z</time></trkpt><trkpt lat="45.5104441" lon="10.8520745"><ele>117.0</ele><time>2026-04-26T11:35:51.909Z</time></trkpt><trkpt lat="45.5102922" lon="10.8520236"><ele>117.0</ele><time>2026-04-26T11:35:52.911Z</time></trkpt><trkpt lat="45.5101365" lon="10.8519678"><ele>116.66666666666666</ele><time>2026-04-26T11:35:53.91Z</time></trkpt><trkpt lat="45.509982" lon="10.8519039"><ele>116.33333333333333</ele><time>2026-04-26T11:35:54.91Z</time></trkpt><trkpt lat="45.509833" lon="10.8518429"><ele>116.0</ele><time>2026-04-26T11:35:55.911Z</time></trkpt><trkpt lat="45.5096813" lon="10.8517818"><ele>115.75</ele><time>2026-04-26T11:35:56.911Z</time></trkpt><trkpt lat="45.5095326" lon="10.851718"><ele>115.5</ele><time>2026-04-26T11:35:57.911Z</time></trkpt><trkpt lat="45.5093933" lon="10.8516606"><ele>115.25</ele><time>2026-04-26T11:35:58.911Z</time></trkpt><trkpt lat="45.5092675" lon="10.8516103"><ele>115.0</ele><time>2026-04-26T11:35:59.91Z</time></trkpt><trkpt lat="45.5091472" lon="10.8515613"><ele>115.0</ele><time>2026-04-26T11:36:00.91Z</time></trkpt><trkpt lat="45.5090385" lon="10.8515169"><ele>115.0</ele><time>2026-04-26T11:36:01.911Z</time></trkpt><trkpt lat="45.5089182" lon="10.8514705"><ele>115.0</ele><time>2026-04-26T11:36:02.911Z</time></trkpt><trkpt lat="45.5087968" lon="10.8514246"><ele>115.0</ele><time>2026-04-26T11:36:03.91Z</time></trkpt><trkpt lat="45.5086722" lon="10.8513809"><ele>115.75</ele><time>2026-04-26T11:36:04.911Z</time></trkpt><trkpt lat="45.5085462" lon="10.8513382"><ele>116.5</ele><time>2026-04-26T11:36:05.911Z</time></trkpt><trkpt lat="45.5084244" lon="10.8512972"><ele>117.25</ele><time>2026-04-26T11:36:06.91Z</time></trkpt><trkpt lat="45.5083017" lon="10.8512557"><ele>118.0</ele><time>2026-04-26T11:36:07.909Z</time></trkpt><trkpt lat="45.5081802" lon="10.8512136"><ele>118.0</ele><time>2026-04-26T11:36:08.91Z</time></trkpt><trkpt lat="45.5080597" lon="10.8511666"><ele>118.0</ele><time>2026-04-26T11:36:09.909Z</time></trkpt><trkpt lat="45.5079376" lon="10.8511134"><ele>118.0</ele><time>2026-04-26T11:36:10.909Z</time></trkpt><trkpt lat="45.5078182" lon="10.8510617"><ele>118.0</ele><time>2026-04-26T11:36:11.909Z</time></trkpt><trkpt lat="45.5076994" lon="10.8510144"><ele>118.0</ele><time>2026-04-26T11:36:12.91Z</time></trkpt><trkpt lat="45.5075775" lon="10.8509711"><ele>118.0</ele><time>2026-04-26T11:36:13.91Z</time></trkpt><trkpt lat="45.5074548" lon="10.8509304"><ele>118.0</ele><time>2026-04-26T11:36:14.91Z</time></trkpt><trkpt lat="45.5073403" lon="10.8508907"><ele>118.0</ele><time>2026-04-26T11:36:15.909Z</time></trkpt><trkpt lat="45.5072321" lon="10.8508499"><ele>118.0</ele><time>2026-04-26T11:36:16.91Z</time></trkpt><trkpt lat="45.5071256" lon="10.8508068"><ele>118.00000000000001</ele><time>2026-04-26T11:36:17.91Z</time></trkpt><trkpt lat="45.5070286" lon="10.8507706"><ele>118.00000000000001</ele><time>2026-04-26T11:36:18.909Z</time></trkpt><trkpt lat="45.5069325" lon="10.8507386"><ele>118.0</ele><time>2026-04-26T11:36:19.91Z</time></trkpt><trkpt lat="45.5068454" lon="10.8507029"><ele>118.0</ele><time>2026-04-26T11:36:20.909Z</time></trkpt><trkpt lat="45.5067581" lon="10.8506663"><ele>117.50000000000001</ele><time>2026-04-26T11:36:21.909Z</time></trkpt><trkpt lat="45.5066676" lon="10.8506295"><ele>117.0</ele><time>2026-04-26T11:36:22.91Z</time></trkpt><trkpt lat="45.5065844" lon="10.8505948"><ele>116.5</ele><time>2026-04-26T11:36:23.909Z</time></trkpt><trkpt lat="45.506503" lon="10.8505614"><ele>116.0</ele><time>2026-04-26T11:36:24.91Z</time></trkpt><trkpt lat="45.5064189" lon="10.8505296"><ele>115.50000000000001</ele><time>2026-04-26T11:36:25.909Z</time></trkpt><trkpt lat="45.506332" lon="10.8504962"><ele>115.0</ele><time>2026-04-26T11:36:26.909Z</time></trkpt><trkpt lat="45.5062425" lon="10.8504626"><ele>114.6</ele><time>2026-04-26T11:36:27.91Z</time></trkpt><trkpt lat="45.5061486" lon="10.8504268"><ele>114.2</ele><time>2026-04-26T11:36:28.91Z</time></trkpt><trkpt lat="45.5060491" lon="10.8503888"><ele>113.80000000000001</ele><time>2026-04-26T11:36:29.91Z</time></trkpt><trkpt lat="45.5059416" lon="10.8503497"><ele>113.4</ele><time>2026-04-26T11:36:30.91Z</time></trkpt><trkpt lat="45.5058366" lon="10.8503098"><ele>113.0</ele><time>2026-04-26T11:36:31.91Z</time></trkpt><trkpt lat="45.5057117" lon="10.8502545"><ele>113.0</ele><time>2026-04-26T11:36:32.91Z</time></trkpt><trkpt lat="45.5055809" lon="10.8502071"><ele>113.0</ele><time>2026-04-26T11:36:33.91Z</time></trkpt><trkpt lat="45.5054529" lon="10.8501627"><ele>113.0</ele><time>2026-04-26T11:36:34.91Z</time></trkpt><trkpt lat="45.5053228" lon="10.850112"><ele>113.0</ele><time>2026-04-26T11:36:35.91Z</time></trkpt><trkpt lat="45.5051961" lon="10.8500615"><ele>114.0</ele><time>2026-04-26T11:36:36.91Z</time></trkpt><trkpt lat="45.5050748" lon="10.8500136"><ele>115.0</ele><time>2026-04-26T11:36:37.909Z</time></trkpt><trkpt lat="45.5049491" lon="10.8499633"><ele>116.0</ele><time>2026-04-26T11:36:38.91Z</time></trkpt><trkpt lat="45.5048218" lon="10.8499104"><ele>117.0</ele><time>2026-04-26T11:36:39.909Z</time></trkpt><trkpt lat="45.5046892" lon="10.8498574"><ele>117.0</ele><time>2026-04-26T11:36:40.91Z</time></trkpt><trkpt lat="45.5045577" lon="10.8498081"><ele>117.0</ele><time>2026-04-26T11:36:41.909Z</time></trkpt><trkpt lat="45.50443" lon="10.8497629"><ele>117.0</ele><time>2026-04-26T11:36:42.91Z</time></trkpt><trkpt lat="45.5043085" lon="10.8497179"><ele>117.0</ele><time>2026-04-26T11:36:43.909Z</time></trkpt><trkpt lat="45.5041998" lon="10.8496766"><ele>117.0</ele><time>2026-04-26T11:36:44.91Z</time></trkpt><trkpt lat="45.5041158" lon="10.8496415"><ele>117.0</ele><time>2026-04-26T11:36:45.909Z</time></trkpt><trkpt lat="45.5040545" lon="10.8496149"><ele>117.0</ele><time>2026-04-26T11:36:46.909Z</time></trkpt><trkpt lat="45.5040002" lon="10.8495618"><ele>117.0</ele><time>2026-04-26T11:36:49.91Z</time></trkpt><trkpt lat="45.5039226" lon="10.8496362"><ele>117.0</ele><time>2026-04-26T11:36:55.91Z</time></trkpt><trkpt lat="45.5038954" lon="10.8497232"><ele>117.0</ele><time>2026-04-26T11:36:56.91Z</time></trkpt><trkpt lat="45.503868" lon="10.8498405"><ele>117.0</ele><time>2026-04-26T11:36:57.91Z</time></trkpt><trkpt lat="45.5038371" lon="10.849978"><ele>117.0</ele><time>2026-04-26T11:36:58.909Z</time></trkpt><trkpt lat="45.5037979" lon="10.850136"><ele>117.0</ele><time>2026-04-26T11:36:59.91Z</time></trkpt><trkpt lat="45.5037493" lon="10.850309"><ele>117.0</ele><time>2026-04-26T11:37:00.91Z</time></trkpt><trkpt lat="45.5037016" lon="10.8504903"><ele>117.0</ele><time>2026-04-26T11:37:01.91Z</time></trkpt><trkpt lat="45.5036478" lon="10.8506872"><ele>117.0</ele><time>2026-04-26T11:37:02.91Z</time></trkpt><trkpt lat="45.5035893" lon="10.8508872"><ele>117.0</ele><time>2026-04-26T11:37:03.909Z</time></trkpt><trkpt lat="45.5035301" lon="10.8510726"><ele>117.0</ele><time>2026-04-26T11:37:04.91Z</time></trkpt><trkpt lat="45.5034734" lon="10.8512421"><ele>116.8</ele><time>2026-04-26T11:37:05.909Z</time></trkpt><trkpt lat="45.503422" lon="10.8513909"><ele>116.6</ele><time>2026-04-26T11:37:06.91Z</time></trkpt><trkpt lat="45.5033715" lon="10.8515259"><ele>116.39999999999999</ele><time>2026-04-26T11:37:07.909Z</time></trkpt><trkpt lat="45.5033224" lon="10.8516174"><ele>116.19999999999999</ele><time>2026-04-26T11:37:08.91Z</time></trkpt><trkpt lat="45.503227" lon="10.8517109"><ele>116.0</ele><time>2026-04-26T11:37:10.91Z</time></trkpt><trkpt lat="45.5031477" lon="10.8517364"><ele>115.5</ele><time>2026-04-26T11:37:12.91Z</time></trkpt><trkpt lat="45.5031031" lon="10.8518047"><ele>115.0</ele><time>2026-04-26T11:37:15.91Z</time></trkpt><trkpt lat="45.5046729" lon="10.8505061"><ele>114.0</ele><time>2026-04-26T11:41:21.091Z</time></trkpt><trkpt lat="45.5022859" lon="10.8523556"><ele>114.0</ele><time>2026-04-26T11:44:00.296Z</time></trkpt><trkpt lat="45.5028283" lon="10.8523353"><ele>117.0</ele><time>2026-04-26T11:44:15.264Z</time></trkpt><trkpt lat="45.504674" lon="10.8505114"><ele>114.0</ele><time>2026-04-26T11:44:23.257Z</time></trkpt><trkpt lat="45.5024305" lon="10.8525435"><ele>115.0</ele><time>2026-04-26T11:44:29.821Z</time></trkpt><trkpt lat="45.502527" lon="10.8528959"><ele>116.0</ele><time>2026-04-26T11:44:36.48Z</time></trkpt><trkpt lat="45.504673" lon="10.8505046"><ele>115.0</ele><time>2026-04-26T11:44:57.26Z</time></trkpt><trkpt lat="45.5030264" lon="10.8519481"><ele>116.0</ele><time>2026-04-26T11:45:20.515Z</time></trkpt><trkpt lat="45.5025296" lon="10.8528069"><ele>117.0</ele><time>2026-04-26T11:45:41.906Z</time></trkpt><trkpt lat="45.5046736" lon="10.8505104"><ele>114.0</ele><time>2026-04-26T11:46:01.062Z</time></trkpt><trkpt lat="45.5023649" lon="10.8525375"><ele>115.0</ele><time>2026-04-26T11:46:38.727Z</time></trkpt><trkpt lat="45.5031618" lon="10.8519234"><ele>117.0</ele><time>2026-04-26T11:46:57.919Z</time></trkpt><trkpt lat="45.5046736" lon="10.8505104"><ele>114.0</ele><time>2026-04-26T11:47:11.247Z</time></trkpt><trkpt lat="45.5028502" lon="10.8523584"><ele>117.0</ele><time>2026-04-26T11:48:49.584Z</time></trkpt><trkpt lat="45.504674" lon="10.8505114"><ele>115.0</ele><time>2026-04-26T11:50:43.154Z</time></trkpt><trkpt lat="45.5030316" lon="10.8519545"><ele>114.99999999999999</ele><time>2026-04-26T11:51:02.908Z</time></trkpt><trkpt lat="45.5030267" lon="10.8518464"><ele>115.0</ele><time>2026-04-26T11:51:18.908Z</time></trkpt><trkpt lat="45.503081" lon="10.8517918"><ele>114.99999999999999</ele><time>2026-04-26T11:51:20.908Z</time></trkpt><trkpt lat="45.5031453" lon="10.8518122"><ele>114.99999999999999</ele><time>2026-04-26T11:51:23.908Z</time></trkpt><trkpt lat="45.5031287" lon="10.8519157"><ele>115.0</ele><time>2026-04-26T11:51:25.907Z</time></trkpt><trkpt lat="45.503113" lon="10.8520294"><ele>114.99999999999999</ele><time>2026-04-26T11:51:27.908Z</time></trkpt><trkpt lat="45.5031708" lon="10.8520653"><ele>114.99999999999999</ele><time>2026-04-26T11:53:17.908Z</time></trkpt><trkpt lat="45.5032366" lon="10.8520184"><ele>115.0</ele><time>2026-04-26T11:53:19.907Z</time></trkpt><trkpt lat="45.503289" lon="10.8518879"><ele>115.0</ele><time>2026-04-26T11:53:21.908Z</time></trkpt><trkpt lat="45.5033252" lon="10.851785"><ele>115.0</ele><time>2026-04-26T11:53:22.908Z</time></trkpt><trkpt lat="45.5033739" lon="10.8516718"><ele>115.0</ele><time>2026-04-26T11:53:23.908Z</time></trkpt><trkpt lat="45.5034274" lon="10.8515403"><ele>115.0</ele><time>2026-04-26T11:53:24.908Z</time></trkpt><trkpt lat="45.503483" lon="10.8513864"><ele>115.25</ele><time>2026-04-26T11:53:25.908Z</time></trkpt><trkpt lat="45.5035425" lon="10.8512144"><ele>115.5</ele><time>2026-04-26T11:53:26.908Z</time></trkpt><trkpt lat="45.5036007" lon="10.8510287"><ele>115.75</ele><time>2026-04-26T11:53:27.908Z</time></trkpt><trkpt lat="45.5036584" lon="10.8508291"><ele>116.0</ele><time>2026-04-26T11:53:28.907Z</time></trkpt><trkpt lat="45.5037135" lon="10.8506103"><ele>116.0</ele><time>2026-04-26T11:53:29.907Z</time></trkpt><trkpt lat="45.5037706" lon="10.8503811"><ele>116.0</ele><time>2026-04-26T11:53:30.908Z</time></trkpt><trkpt lat="45.5038303" lon="10.8501406"><ele>116.0</ele><time>2026-04-26T11:53:31.908Z</time></trkpt><trkpt lat="45.5038872" lon="10.8499082"><ele>116.33333333333333</ele><time>2026-04-26T11:53:32.907Z</time></trkpt><trkpt lat="45.5039452" lon="10.8496825"><ele>116.66666666666666</ele><time>2026-04-26T11:53:33.908Z</time></trkpt><trkpt lat="45.504002" lon="10.8494539"><ele>117.0</ele><time>2026-04-26T11:53:34.908Z</time></trkpt><trkpt lat="45.5040629" lon="10.8492221"><ele>117.33333333333334</ele><time>2026-04-26T11:53:35.908Z</time></trkpt><trkpt lat="45.5041255" lon="10.8489893"><ele>117.66666666666667</ele><time>2026-04-26T11:53:36.907Z</time></trkpt><trkpt lat="45.5041885" lon="10.8487565"><ele>118.0</ele><time>2026-04-26T11:53:37.908Z</time></trkpt><trkpt lat="45.5042592" lon="10.8485276"><ele>118.0</ele><time>2026-04-26T11:53:38.908Z</time></trkpt><trkpt lat="45.5043341" lon="10.8483017"><ele>118.0</ele><time>2026-04-26T11:53:39.908Z</time></trkpt><trkpt lat="45.5044116" lon="10.848083"><ele>118.0</ele><time>2026-04-26T11:53:40.908Z</time></trkpt><trkpt lat="45.5044865" lon="10.8478686"><ele>118.0</ele><time>2026-04-26T11:53:41.908Z</time></trkpt><trkpt lat="45.5045604" lon="10.8476547"><ele>118.0</ele><time>2026-04-26T11:53:42.908Z</time></trkpt><trkpt lat="45.5046343" lon="10.8474426"><ele>118.0</ele><time>2026-04-26T11:53:43.908Z</time></trkpt><trkpt lat="45.5047121" lon="10.8472376"><ele>118.33333333333334</ele><time>2026-04-26T11:53:44.908Z</time></trkpt><trkpt lat="45.504793" lon="10.8470358"><ele>118.66666666666666</ele><time>2026-04-26T11:53:45.908Z</time></trkpt><trkpt lat="45.5048797" lon="10.8468464"><ele>119.0</ele><time>2026-04-26T11:53:46.908Z</time></trkpt><trkpt lat="45.5049732" lon="10.8466599"><ele>119.0</ele><time>2026-04-26T11:53:47.907Z</time></trkpt><trkpt lat="45.5050721" lon="10.8464796"><ele>119.0</ele><time>2026-04-26T11:53:48.907Z</time></trkpt><trkpt lat="45.5051767" lon="10.8463047"><ele>119.0</ele><time>2026-04-26T11:53:49.908Z</time></trkpt><trkpt lat="45.5052795" lon="10.84613"><ele>119.0</ele><time>2026-04-26T11:53:50.907Z</time></trkpt><trkpt lat="45.5053805" lon="10.8459543"><ele>119.0</ele><time>2026-04-26T11:53:51.907Z</time></trkpt><trkpt lat="45.5054801" lon="10.8457754"><ele>119.0</ele><time>2026-04-26T11:53:52.908Z</time></trkpt><trkpt lat="45.5055708" lon="10.8455918"><ele>119.0</ele><time>2026-04-26T11:53:53.908Z</time></trkpt><trkpt lat="45.505651" lon="10.8453962"><ele>119.0</ele><time>2026-04-26T11:53:54.908Z</time></trkpt><trkpt lat="45.5057243" lon="10.8451969"><ele>119.0</ele><time>2026-04-26T11:53:55.907Z</time></trkpt><trkpt lat="45.5057941" lon="10.8449947"><ele>119.66666666666666</ele><time>2026-04-26T11:53:56.908Z</time></trkpt><trkpt lat="45.5058574" lon="10.8447922"><ele>120.33333333333334</ele><time>2026-04-26T11:53:57.908Z</time></trkpt><trkpt lat="45.5059087" lon="10.8445861"><ele>121.0</ele><time>2026-04-26T11:53:58.908Z</time></trkpt><trkpt lat="45.505947" lon="10.8443856"><ele>121.0</ele><time>2026-04-26T11:53:59.908Z</time></trkpt><trkpt lat="45.5059805" lon="10.8441991"><ele>121.0</ele><time>2026-04-26T11:54:00.907Z</time></trkpt><trkpt lat="45.5060097" lon="10.8440119"><ele>121.0</ele><time>2026-04-26T11:54:01.907Z</time></trkpt><trkpt lat="45.5060409" lon="10.8438386"><ele>121.0</ele><time>2026-04-26T11:54:02.907Z</time></trkpt><trkpt lat="45.5060761" lon="10.8436819"><ele>121.0</ele><time>2026-04-26T11:54:03.908Z</time></trkpt><trkpt lat="45.5061098" lon="10.843539"><ele>121.0</ele><time>2026-04-26T11:54:04.908Z</time></trkpt><trkpt lat="45.5061567" lon="10.8434202"><ele>121.0</ele><time>2026-04-26T11:54:05.908Z</time></trkpt><trkpt lat="45.5062198" lon="10.8433345"><ele>121.0</ele><time>2026-04-26T11:54:06.907Z</time></trkpt><trkpt lat="45.5062959" lon="10.8432742"><ele>121.0</ele><time>2026-04-26T11:54:07.908Z</time></trkpt><trkpt lat="45.5063772" lon="10.8431964"><ele>120.4</ele><time>2026-04-26T11:54:08.908Z</time></trkpt><trkpt lat="45.506436" lon="10.8430838"><ele>119.8</ele><time>2026-04-26T11:54:09.908Z</time></trkpt><trkpt lat="45.5064578" lon="10.8429594"><ele>119.20000000000002</ele><time>2026-04-26T11:54:10.908Z</time></trkpt><trkpt lat="45.5064448" lon="10.8428343"><ele>118.60000000000001</ele><time>2026-04-26T11:54:11.908Z</time></trkpt><trkpt lat="45.5064106" lon="10.8426924"><ele>118.0</ele><time>2026-04-26T11:54:12.907Z</time></trkpt><trkpt lat="45.5063902" lon="10.8425191"><ele>118.0</ele><time>2026-04-26T11:54:13.908Z</time></trkpt><trkpt lat="45.5063962" lon="10.8423185"><ele>118.0</ele><time>2026-04-26T11:54:14.908Z</time></trkpt><trkpt lat="45.5064225" lon="10.8421222"><ele>118.0</ele><time>2026-04-26T11:54:15.908Z</time></trkpt><trkpt lat="45.506463" lon="10.8419085"><ele>118.0</ele><time>2026-04-26T11:54:16.907Z</time></trkpt><trkpt lat="45.5065053" lon="10.8416893"><ele>118.66666666666667</ele><time>2026-04-26T11:54:17.908Z</time></trkpt><trkpt lat="45.5065499" lon="10.8414641"><ele>119.33333333333334</ele><time>2026-04-26T11:54:18.908Z</time></trkpt><trkpt lat="45.506597" lon="10.8412314"><ele>120.0</ele><time>2026-04-26T11:54:19.908Z</time></trkpt><trkpt lat="45.5066457" lon="10.8409953"><ele>120.0</ele><time>2026-04-26T11:54:20.908Z</time></trkpt><trkpt lat="45.5066924" lon="10.8407601"><ele>120.0</ele><time>2026-04-26T11:54:21.907Z</time></trkpt><trkpt lat="45.5067347" lon="10.8405308"><ele>120.0</ele><time>2026-04-26T11:54:22.908Z</time></trkpt><trkpt lat="45.5067762" lon="10.8402963"><ele>119.66666666666666</ele><time>2026-04-26T11:54:23.907Z</time></trkpt><trkpt lat="45.5068157" lon="10.8400621"><ele>119.33333333333333</ele><time>2026-04-26T11:54:24.908Z</time></trkpt><trkpt lat="45.5068549" lon="10.8398275"><ele>119.0</ele><time>2026-04-26T11:54:25.906Z</time></trkpt><trkpt lat="45.5068924" lon="10.8395932"><ele>119.0</ele><time>2026-04-26T11:54:26.907Z</time></trkpt><trkpt lat="45.5069282" lon="10.8393589"><ele>119.0</ele><time>2026-04-26T11:54:27.906Z</time></trkpt><trkpt lat="45.5069635" lon="10.8391271"><ele>119.0</ele><time>2026-04-26T11:54:28.906Z</time></trkpt><trkpt lat="45.5069965" lon="10.838897"><ele>119.33333333333333</ele><time>2026-04-26T11:54:29.907Z</time></trkpt><trkpt lat="45.5070282" lon="10.8386674"><ele>119.66666666666666</ele><time>2026-04-26T11:54:30.906Z</time></trkpt><trkpt lat="45.5070622" lon="10.8384382"><ele>120.0</ele><time>2026-04-26T11:54:31.907Z</time></trkpt><trkpt lat="45.507097" lon="10.838209"><ele>120.66666666666666</ele><time>2026-04-26T11:54:32.907Z</time></trkpt><trkpt lat="45.5071314" lon="10.8379805"><ele>121.33333333333333</ele><time>2026-04-26T11:54:33.907Z</time></trkpt><trkpt lat="45.5071656" lon="10.8377511"><ele>122.0</ele><time>2026-04-26T11:54:34.906Z</time></trkpt><trkpt lat="45.5071978" lon="10.8375215"><ele>122.33333333333333</ele><time>2026-04-26T11:54:35.906Z</time></trkpt><trkpt lat="45.5072282" lon="10.837294"><ele>122.66666666666666</ele><time>2026-04-26T11:54:36.907Z</time></trkpt><trkpt lat="45.5072581" lon="10.8370673"><ele>123.0</ele><time>2026-04-26T11:54:37.907Z</time></trkpt><trkpt lat="45.5072896" lon="10.8368426"><ele>123.0</ele><time>2026-04-26T11:54:38.907Z</time></trkpt><trkpt lat="45.5073221" lon="10.8366195"><ele>123.0</ele><time>2026-04-26T11:54:39.907Z</time></trkpt><trkpt lat="45.5073559" lon="10.8363971"><ele>123.0</ele><time>2026-04-26T11:54:40.907Z</time></trkpt><trkpt lat="45.5073886" lon="10.8361748"><ele>122.33333333333334</ele><time>2026-04-26T11:54:41.905Z</time></trkpt><trkpt lat="45.5074236" lon="10.8359529"><ele>121.66666666666667</ele><time>2026-04-26T11:54:42.906Z</time></trkpt><trkpt lat="45.50746" lon="10.83573"><ele>121.0</ele><time>2026-04-26T11:54:43.907Z</time></trkpt><trkpt lat="45.5074983" lon="10.8355077"><ele>121.0</ele><time>2026-04-26T11:54:44.906Z</time></trkpt><trkpt lat="45.5075379" lon="10.8352862"><ele>121.0</ele><time>2026-04-26T11:54:45.906Z</time></trkpt><trkpt lat="45.5075801" lon="10.8350664"><ele>121.0</ele><time>2026-04-26T11:54:46.906Z</time></trkpt><trkpt lat="45.5076263" lon="10.8348474"><ele>121.0</ele><time>2026-04-26T11:54:47.907Z</time></trkpt><trkpt lat="45.5076738" lon="10.8346282"><ele>121.0</ele><time>2026-04-26T11:54:48.906Z</time></trkpt><trkpt lat="45.507721" lon="10.8344091"><ele>121.0</ele><time>2026-04-26T11:54:49.907Z</time></trkpt><trkpt lat="45.5077698" lon="10.8341901"><ele>121.0</ele><time>2026-04-26T11:54:50.906Z</time></trkpt><trkpt lat="45.5078173" lon="10.8339726"><ele>121.0</ele><time>2026-04-26T11:54:51.907Z</time></trkpt><trkpt lat="45.5078643" lon="10.8337549"><ele>121.0</ele><time>2026-04-26T11:54:52.907Z</time></trkpt><trkpt lat="45.5079115" lon="10.8335373"><ele>120.0</ele><time>2026-04-26T11:54:53.907Z</time></trkpt><trkpt lat="45.5079601" lon="10.8333202"><ele>119.0</ele><time>2026-04-26T11:54:54.907Z</time></trkpt><trkpt lat="45.5080094" lon="10.8331043"><ele>118.0</ele><time>2026-04-26T11:54:55.907Z</time></trkpt><trkpt lat="45.5080559" lon="10.832892"><ele>118.0</ele><time>2026-04-26T11:54:56.906Z</time></trkpt><trkpt lat="45.508102" lon="10.832677"><ele>118.0</ele><time>2026-04-26T11:54:57.906Z</time></trkpt><trkpt lat="45.5081486" lon="10.8324665"><ele>118.0</ele><time>2026-04-26T11:54:58.906Z</time></trkpt><trkpt lat="45.5081946" lon="10.8322615"><ele>118.5</ele><time>2026-04-26T11:54:59.907Z</time></trkpt><trkpt lat="45.5082401" lon="10.8320555"><ele>119.0</ele><time>2026-04-26T11:55:00.907Z</time></trkpt><trkpt lat="45.5082906" lon="10.8318541"><ele>119.5</ele><time>2026-04-26T11:55:01.907Z</time></trkpt><trkpt lat="45.5083471" lon="10.8316601"><ele>120.0</ele><time>2026-04-26T11:55:02.906Z</time></trkpt><trkpt lat="45.5084058" lon="10.8314754"><ele>119.5</ele><time>2026-04-26T11:55:03.906Z</time></trkpt><trkpt lat="45.5084626" lon="10.8313015"><ele>119.0</ele><time>2026-04-26T11:55:04.907Z</time></trkpt><trkpt lat="45.5085127" lon="10.831146"><ele>118.5</ele><time>2026-04-26T11:55:05.907Z</time></trkpt><trkpt lat="45.5085532" lon="10.8309948"><ele>118.0</ele><time>2026-04-26T11:55:06.907Z</time></trkpt><trkpt lat="45.5085666" lon="10.8308491"><ele>118.0</ele><time>2026-04-26T11:55:07.907Z</time></trkpt><trkpt lat="45.5085395" lon="10.8307126"><ele>118.00000000000001</ele><time>2026-04-26T11:55:08.907Z</time></trkpt><trkpt lat="45.508507" lon="10.8305635"><ele>118.00000000000001</ele><time>2026-04-26T11:55:09.907Z</time></trkpt><trkpt lat="45.5084986" lon="10.8304256"><ele>118.0</ele><time>2026-04-26T11:55:10.907Z</time></trkpt><trkpt lat="45.5085139" lon="10.8302522"><ele>118.0</ele><time>2026-04-26T11:55:11.906Z</time></trkpt><trkpt lat="45.5085436" lon="10.8300678"><ele>118.0</ele><time>2026-04-26T11:55:12.907Z</time></trkpt><trkpt lat="45.5085739" lon="10.8298629"><ele>118.0</ele><time>2026-04-26T11:55:13.907Z</time></trkpt><trkpt lat="45.5086051" lon="10.8296423"><ele>118.0</ele><time>2026-04-26T11:55:14.906Z</time></trkpt><trkpt lat="45.5086395" lon="10.8294318"><ele>118.0</ele><time>2026-04-26T11:55:15.906Z</time></trkpt><trkpt lat="45.5086731" lon="10.8292228"><ele>118.0</ele><time>2026-04-26T11:55:16.907Z</time></trkpt><trkpt lat="45.5087031" lon="10.8290126"><ele>118.0</ele><time>2026-04-26T11:55:17.907Z</time></trkpt><trkpt lat="45.5087286" lon="10.8288078"><ele>118.0</ele><time>2026-04-26T11:55:18.906Z</time></trkpt><trkpt lat="45.5087579" lon="10.8286154"><ele>117.80000000000001</ele><time>2026-04-26T11:55:19.907Z</time></trkpt><trkpt lat="45.5087868" lon="10.8284505"><ele>117.60000000000001</ele><time>2026-04-26T11:55:20.906Z</time></trkpt><trkpt lat="45.5088129" lon="10.8282945"><ele>117.39999999999999</ele><time>2026-04-26T11:55:21.907Z</time></trkpt><trkpt lat="45.5088391" lon="10.8281544"><ele>117.19999999999999</ele><time>2026-04-26T11:55:22.907Z</time></trkpt><trkpt lat="45.5088574" lon="10.8280203"><ele>117.0</ele><time>2026-04-26T11:55:23.907Z</time></trkpt><trkpt lat="45.5088723" lon="10.8278962"><ele>117.0</ele><time>2026-04-26T11:55:24.907Z</time></trkpt><trkpt lat="45.5088826" lon="10.8277785"><ele>117.0</ele><time>2026-04-26T11:55:25.906Z</time></trkpt><trkpt lat="45.5088963" lon="10.8276534"><ele>117.0</ele><time>2026-04-26T11:55:26.906Z</time></trkpt><trkpt lat="45.508915" lon="10.8275298"><ele>117.0</ele><time>2026-04-26T11:55:27.907Z</time></trkpt><trkpt lat="45.5089381" lon="10.8274081"><ele>117.0</ele><time>2026-04-26T11:55:28.907Z</time></trkpt><trkpt lat="45.5089571" lon="10.827311"><ele>117.0</ele><time>2026-04-26T11:55:29.907Z</time></trkpt><trkpt lat="45.5089899" lon="10.8271543"><ele>117.0</ele><time>2026-04-26T11:55:31.907Z</time></trkpt><trkpt lat="45.5090217" lon="10.8270195"><ele>117.0</ele><time>2026-04-26T11:55:33.907Z</time></trkpt><trkpt lat="45.5090457" lon="10.8269089"><ele>117.0</ele><time>2026-04-26T11:55:35.907Z</time></trkpt><trkpt lat="45.5090671" lon="10.8268147"><ele>117.0</ele><time>2026-04-26T11:55:37.906Z</time></trkpt><trkpt lat="45.5090876" lon="10.8267289"><ele>117.0</ele><time>2026-04-26T11:55:39.906Z</time></trkpt><trkpt lat="45.509125" lon="10.8265907"><ele>117.0</ele><time>2026-04-26T11:55:42.907Z</time></trkpt><trkpt lat="45.5091575" lon="10.8264359"><ele>117.0</ele><time>2026-04-26T11:55:44.906Z</time></trkpt><trkpt lat="45.5091851" lon="10.826337"><ele>117.0</ele><time>2026-04-26T11:55:45.907Z</time></trkpt><trkpt lat="45.509216" lon="10.8262312"><ele>117.0</ele><time>2026-04-26T11:55:46.907Z</time></trkpt><trkpt lat="45.5092508" lon="10.8261179"><ele>117.0</ele><time>2026-04-26T11:55:47.906Z</time></trkpt><trkpt lat="45.5092858" lon="10.8259913"><ele>117.0</ele><time>2026-04-26T11:55:48.907Z</time></trkpt><trkpt lat="45.509316" lon="10.8258564"><ele>117.0</ele><time>2026-04-26T11:55:49.907Z</time></trkpt><trkpt lat="45.5093504" lon="10.8257217"><ele>116.39999999999999</ele><time>2026-04-26T11:55:50.906Z</time></trkpt><trkpt lat="45.5093851" lon="10.8255767"><ele>115.79999999999998</ele><time>2026-04-26T11:55:51.907Z</time></trkpt><trkpt lat="45.5094232" lon="10.825427"><ele>115.2</ele><time>2026-04-26T11:55:52.907Z</time></trkpt><trkpt lat="45.5094622" lon="10.8252744"><ele>114.6</ele><time>2026-04-26T11:55:53.907Z</time></trkpt><trkpt lat="45.5094891" lon="10.8251673"><ele>114.0</ele><time>2026-04-26T11:55:54.907Z</time></trkpt><trkpt lat="45.5095209" lon="10.8250485"><ele>114.0</ele><time>2026-04-26T11:55:56.907Z</time></trkpt><trkpt lat="45.5095353" lon="10.8249515"><ele>113.99999999999999</ele><time>2026-04-26T11:56:06.907Z</time></trkpt><trkpt lat="45.5095202" lon="10.8250579"><ele>114.0</ele><time>2026-04-26T11:56:31.906Z</time></trkpt><trkpt lat="45.5094863" lon="10.8251903"><ele>114.0</ele><time>2026-04-26T11:56:33.907Z</time></trkpt><trkpt lat="45.5094637" lon="10.8252779"><ele>113.99999999999999</ele><time>2026-04-26T11:56:34.906Z</time></trkpt><trkpt lat="45.5094365" lon="10.8253637"><ele>114.0</ele><time>2026-04-26T11:56:35.906Z</time></trkpt><trkpt lat="45.5094096" lon="10.825455"><ele>114.0</ele><time>2026-04-26T11:56:36.906Z</time></trkpt><trkpt lat="45.5093846" lon="10.8255596"><ele>114.0</ele><time>2026-04-26T11:56:37.906Z</time></trkpt><trkpt lat="45.5093584" lon="10.8256636"><ele>114.0</ele><time>2026-04-26T11:56:38.905Z</time></trkpt><trkpt lat="45.5093314" lon="10.8257717"><ele>114.0</ele><time>2026-04-26T11:56:39.906Z</time></trkpt><trkpt lat="45.5093025" lon="10.8258842"><ele>114.0</ele><time>2026-04-26T11:56:40.907Z</time></trkpt><trkpt lat="45.5092699" lon="10.8260096"><ele>114.0</ele><time>2026-04-26T11:56:41.907Z</time></trkpt><trkpt lat="45.5092285" lon="10.8261672"><ele>114.4</ele><time>2026-04-26T11:56:42.906Z</time></trkpt><trkpt lat="45.5091818" lon="10.8263356"><ele>114.80000000000001</ele><time>2026-04-26T11:56:43.907Z</time></trkpt><trkpt lat="45.509141" lon="10.8264973"><ele>115.19999999999999</ele><time>2026-04-26T11:56:44.907Z</time></trkpt><trkpt lat="45.5091046" lon="10.8266404"><ele>115.6</ele><time>2026-04-26T11:56:45.907Z</time></trkpt><trkpt lat="45.5090742" lon="10.8267651"><ele>116.0</ele><time>2026-04-26T11:56:46.907Z</time></trkpt><trkpt lat="45.5090493" lon="10.8268819"><ele>115.99999999999999</ele><time>2026-04-26T11:56:47.906Z</time></trkpt><trkpt lat="45.5090226" lon="10.8270102"><ele>116.0</ele><time>2026-04-26T11:56:48.907Z</time></trkpt><trkpt lat="45.508996" lon="10.8271355"><ele>116.0</ele><time>2026-04-26T11:56:49.906Z</time></trkpt><trkpt lat="45.50897" lon="10.8272421"><ele>116.0</ele><time>2026-04-26T11:56:50.907Z</time></trkpt><trkpt lat="45.5089488" lon="10.8273524"><ele>115.99999999999999</ele><time>2026-04-26T11:56:51.907Z</time></trkpt><trkpt lat="45.5089253" lon="10.8274669"><ele>116.0</ele><time>2026-04-26T11:56:52.907Z</time></trkpt><trkpt lat="45.5089045" lon="10.8275792"><ele>116.16666666666666</ele><time>2026-04-26T11:56:53.907Z</time></trkpt><trkpt lat="45.5088895" lon="10.8276781"><ele>116.33333333333333</ele><time>2026-04-26T11:56:54.907Z</time></trkpt><trkpt lat="45.5088757" lon="10.8278413"><ele>116.5</ele><time>2026-04-26T11:56:56.906Z</time></trkpt><trkpt lat="45.5088679" lon="10.8279499"><ele>116.66666666666666</ele><time>2026-04-26T11:56:57.907Z</time></trkpt><trkpt lat="45.5088514" lon="10.8280684"><ele>116.83333333333333</ele><time>2026-04-26T11:56:58.907Z</time></trkpt><trkpt lat="45.5088266" lon="10.8282043"><ele>117.0</ele><time>2026-04-26T11:56:59.907Z</time></trkpt><trkpt lat="45.5088002" lon="10.8283557"><ele>117.0</ele><time>2026-04-26T11:57:00.907Z</time></trkpt><trkpt lat="45.5087695" lon="10.8285172"><ele>117.0</ele><time>2026-04-26T11:57:01.907Z</time></trkpt><trkpt lat="45.5087374" lon="10.8286897"><ele>117.0</ele><time>2026-04-26T11:57:02.907Z</time></trkpt><trkpt lat="45.5087096" lon="10.8288687"><ele>117.0</ele><time>2026-04-26T11:57:03.907Z</time></trkpt><trkpt lat="45.5086863" lon="10.8290447"><ele>117.0</ele><time>2026-04-26T11:57:04.906Z</time></trkpt><trkpt lat="45.5086635" lon="10.8292187"><ele>117.0</ele><time>2026-04-26T11:57:05.907Z</time></trkpt><trkpt lat="45.5086342" lon="10.8293939"><ele>117.0</ele><time>2026-04-26T11:57:06.907Z</time></trkpt><trkpt lat="45.5086022" lon="10.8295661"><ele>117.0</ele><time>2026-04-26T11:57:07.907Z</time></trkpt><trkpt lat="45.5085734" lon="10.8297503"><ele>117.19999999999999</ele><time>2026-04-26T11:57:08.907Z</time></trkpt><trkpt lat="45.508547" lon="10.8299293"><ele>117.39999999999999</ele><time>2026-04-26T11:57:09.907Z</time></trkpt><trkpt lat="45.508524" lon="10.8300813"><ele>117.60000000000001</ele><time>2026-04-26T11:57:10.906Z</time></trkpt><trkpt lat="45.508504" lon="10.8302222"><ele>117.80000000000001</ele><time>2026-04-26T11:57:11.906Z</time></trkpt><trkpt lat="45.508483" lon="10.8303567"><ele>118.0</ele><time>2026-04-26T11:57:12.907Z</time></trkpt><trkpt lat="45.5084664" lon="10.8304801"><ele>118.00000000000001</ele><time>2026-04-26T11:57:13.907Z</time></trkpt><trkpt lat="45.5084534" lon="10.8305892"><ele>118.0</ele><time>2026-04-26T11:57:14.907Z</time></trkpt><trkpt lat="45.5084463" lon="10.8306879"><ele>118.0</ele><time>2026-04-26T11:57:15.906Z</time></trkpt><trkpt lat="45.508469" lon="10.8308426"><ele>118.0</ele><time>2026-04-26T11:57:17.907Z</time></trkpt><trkpt lat="45.508524" lon="10.8309069"><ele>118.00000000000001</ele><time>2026-04-26T11:57:19.907Z</time></trkpt><trkpt lat="45.5086093" lon="10.8308915"><ele>118.0</ele><time>2026-04-26T11:57:26.907Z</time></trkpt><trkpt lat="45.5086987" lon="10.8307621"><ele>118.25</ele><time>2026-04-26T11:57:28.907Z</time></trkpt><trkpt lat="45.5087562" lon="10.8306456"><ele>118.5</ele><time>2026-04-26T11:57:29.906Z</time></trkpt><trkpt lat="45.5088214" lon="10.8305114"><ele>118.75</ele><time>2026-04-26T11:57:30.907Z</time></trkpt><trkpt lat="45.5088982" lon="10.8303588"><ele>119.0</ele><time>2026-04-26T11:57:31.907Z</time></trkpt><trkpt lat="45.508981" lon="10.8302014"><ele>118.66666666666666</ele><time>2026-04-26T11:57:32.907Z</time></trkpt><trkpt lat="45.509076" lon="10.8300327"><ele>118.33333333333334</ele><time>2026-04-26T11:57:33.906Z</time></trkpt><trkpt lat="45.5091806" lon="10.829859"><ele>118.0</ele><time>2026-04-26T11:57:34.907Z</time></trkpt><trkpt lat="45.5092943" lon="10.8296835"><ele>118.0</ele><time>2026-04-26T11:57:35.907Z</time></trkpt><trkpt lat="45.5094174" lon="10.8295123"><ele>118.0</ele><time>2026-04-26T11:57:36.907Z</time></trkpt><trkpt lat="45.5095513" lon="10.8293479"><ele>118.0</ele><time>2026-04-26T11:57:37.906Z</time></trkpt><trkpt lat="45.5096933" lon="10.8291896"><ele>117.66666666666667</ele><time>2026-04-26T11:57:38.907Z</time></trkpt><trkpt lat="45.5098381" lon="10.8290388"><ele>117.33333333333334</ele><time>2026-04-26T11:57:39.907Z</time></trkpt><trkpt lat="45.5099814" lon="10.8288875"><ele>117.0</ele><time>2026-04-26T11:57:40.906Z</time></trkpt><trkpt lat="45.5101232" lon="10.8287342"><ele>117.0</ele><time>2026-04-26T11:57:41.906Z</time></trkpt><trkpt lat="45.5102615" lon="10.8285861"><ele>117.0</ele><time>2026-04-26T11:57:42.907Z</time></trkpt><trkpt lat="45.5103971" lon="10.8284388"><ele>117.0</ele><time>2026-04-26T11:57:43.906Z</time></trkpt><trkpt lat="45.5105308" lon="10.8282939"><ele>116.66666666666666</ele><time>2026-04-26T11:57:44.906Z</time></trkpt><trkpt lat="45.5106634" lon="10.8281492"><ele>116.33333333333333</ele><time>2026-04-26T11:57:45.907Z</time></trkpt><trkpt lat="45.5107943" lon="10.8280086"><ele>116.0</ele><time>2026-04-26T11:57:46.906Z</time></trkpt><trkpt lat="45.5109232" lon="10.8278676"><ele>116.0</ele><time>2026-04-26T11:57:47.906Z</time></trkpt><trkpt lat="45.5110518" lon="10.8277289"><ele>116.0</ele><time>2026-04-26T11:57:48.907Z</time></trkpt><trkpt lat="45.5111805" lon="10.8275923"><ele>116.0</ele><time>2026-04-26T11:57:49.907Z</time></trkpt><trkpt lat="45.5113093" lon="10.8274525"><ele>117.0</ele><time>2026-04-26T11:57:50.907Z</time></trkpt><trkpt lat="45.5114378" lon="10.8273128"><ele>118.0</ele><time>2026-04-26T11:57:51.906Z</time></trkpt><trkpt lat="45.511565" lon="10.8271747"><ele>119.0</ele><time>2026-04-26T11:57:52.906Z</time></trkpt><trkpt lat="45.5116939" lon="10.8270381"><ele>119.0</ele><time>2026-04-26T11:57:53.907Z</time></trkpt><trkpt lat="45.5118223" lon="10.8269039"><ele>119.0</ele><time>2026-04-26T11:57:54.907Z</time></trkpt><trkpt lat="45.5119478" lon="10.8267723"><ele>119.0</ele><time>2026-04-26T11:57:55.907Z</time></trkpt><trkpt lat="45.5120713" lon="10.8266429"><ele>118.0</ele><time>2026-04-26T11:57:56.907Z</time></trkpt><trkpt lat="45.5121927" lon="10.8265175"><ele>117.0</ele><time>2026-04-26T11:57:57.906Z</time></trkpt><trkpt lat="45.5123101" lon="10.8263962"><ele>116.0</ele><time>2026-04-26T11:57:58.907Z</time></trkpt><trkpt lat="45.5124246" lon="10.8262741"><ele>115.0</ele><time>2026-04-26T11:57:59.906Z</time></trkpt><trkpt lat="45.5125363" lon="10.826156"><ele>115.0</ele><time>2026-04-26T11:58:00.906Z</time></trkpt><trkpt lat="45.512642" lon="10.8260421"><ele>115.0</ele><time>2026-04-26T11:58:01.906Z</time></trkpt><trkpt lat="45.5127405" lon="10.8259387"><ele>115.0</ele><time>2026-04-26T11:58:02.906Z</time></trkpt><trkpt lat="45.5128326" lon="10.8258431"><ele>115.0</ele><time>2026-04-26T11:58:03.907Z</time></trkpt><trkpt lat="45.5129177" lon="10.8257528"><ele>114.83333333333334</ele><time>2026-04-26T11:58:04.907Z</time></trkpt><trkpt lat="45.5129768" lon="10.8256616"><ele>114.66666666666667</ele><time>2026-04-26T11:58:05.907Z</time></trkpt><trkpt lat="45.5129673" lon="10.8255012"><ele>114.5</ele><time>2026-04-26T11:58:07.906Z</time></trkpt><trkpt lat="45.512931" lon="10.8254277"><ele>114.33333333333334</ele><time>2026-04-26T11:58:08.906Z</time></trkpt><trkpt lat="45.5128596" lon="10.8253733"><ele>114.16666666666667</ele><time>2026-04-26T11:58:09.907Z</time></trkpt><trkpt lat="45.5127834" lon="10.8253317"><ele>114.0</ele><time>2026-04-26T11:58:10.907Z</time></trkpt><trkpt lat="45.5127006" lon="10.8253053"><ele>114.0</ele><time>2026-04-26T11:58:11.907Z</time></trkpt><trkpt lat="45.5126089" lon="10.8252975"><ele>114.0</ele><time>2026-04-26T11:58:12.906Z</time></trkpt><trkpt lat="45.5124856" lon="10.8253023"><ele>114.0</ele><time>2026-04-26T11:58:13.907Z</time></trkpt><trkpt lat="45.512354" lon="10.825305"><ele>114.0</ele><time>2026-04-26T11:58:14.907Z</time></trkpt><trkpt lat="45.5122402" lon="10.825281"><ele>114.0</ele><time>2026-04-26T11:58:15.907Z</time></trkpt><trkpt lat="45.5121282" lon="10.8252385"><ele>114.0</ele><time>2026-04-26T11:58:16.906Z</time></trkpt><trkpt lat="45.5120257" lon="10.8251988"><ele>114.0</ele><time>2026-04-26T11:58:17.906Z</time></trkpt><trkpt lat="45.5119309" lon="10.8251805"><ele>114.0</ele><time>2026-04-26T11:58:18.906Z</time></trkpt><trkpt lat="45.5118445" lon="10.8251521"><ele>114.0</ele><time>2026-04-26T11:58:19.907Z</time></trkpt><trkpt lat="45.5117703" lon="10.8250983"><ele>114.16666666666667</ele><time>2026-04-26T11:58:20.907Z</time></trkpt><trkpt lat="45.5117036" lon="10.8250267"><ele>114.33333333333334</ele><time>2026-04-26T11:58:21.907Z</time></trkpt><trkpt lat="45.5116451" lon="10.8249573"><ele>114.5</ele><time>2026-04-26T11:58:22.907Z</time></trkpt><trkpt lat="45.511579" lon="10.82489"><ele>114.66666666666667</ele><time>2026-04-26T11:58:23.906Z</time></trkpt><trkpt lat="45.5115057" lon="10.8248275"><ele>114.83333333333334</ele><time>2026-04-26T11:58:24.906Z</time></trkpt><trkpt lat="45.5114238" lon="10.8247635"><ele>115.0</ele><time>2026-04-26T11:58:25.906Z</time></trkpt><trkpt lat="45.5113362" lon="10.8246971"><ele>115.0</ele><time>2026-04-26T11:58:26.906Z</time></trkpt><trkpt lat="45.5112606" lon="10.8246261"><ele>115.0</ele><time>2026-04-26T11:58:27.906Z</time></trkpt><trkpt lat="45.5112077" lon="10.8245537"><ele>115.0</ele><time>2026-04-26T11:58:28.906Z</time></trkpt><trkpt lat="45.5111667" lon="10.8244426"><ele>115.0</ele><time>2026-04-26T11:58:29.905Z</time></trkpt><trkpt lat="45.5111226" lon="10.8242969"><ele>115.0</ele><time>2026-04-26T11:58:30.906Z</time></trkpt><trkpt lat="45.5110676" lon="10.8241779"><ele>114.25</ele><time>2026-04-26T11:58:31.905Z</time></trkpt><trkpt lat="45.5109793" lon="10.8240509"><ele>113.5</ele><time>2026-04-26T11:58:32.905Z</time></trkpt><trkpt lat="45.5108707" lon="10.8239513"><ele>112.75</ele><time>2026-04-26T11:58:33.906Z</time></trkpt><trkpt lat="45.510737" lon="10.8238647"><ele>112.0</ele><time>2026-04-26T11:58:34.905Z</time></trkpt><trkpt lat="45.5106013" lon="10.8238033"><ele>112.0</ele><time>2026-04-26T11:58:35.906Z</time></trkpt><trkpt lat="45.5104581" lon="10.8237351"><ele>112.0</ele><time>2026-04-26T11:58:36.906Z</time></trkpt><trkpt lat="45.5103158" lon="10.8236643"><ele>112.0</ele><time>2026-04-26T11:58:37.906Z</time></trkpt><trkpt lat="45.5101812" lon="10.823603"><ele>112.0</ele><time>2026-04-26T11:58:38.906Z</time></trkpt><trkpt lat="45.510069" lon="10.8235544"><ele>112.0</ele><time>2026-04-26T11:58:39.906Z</time></trkpt><trkpt lat="45.5099735" lon="10.8235125"><ele>111.99999999999999</ele><time>2026-04-26T11:58:40.906Z</time></trkpt><trkpt lat="45.5098991" lon="10.8234808"><ele>111.99999999999999</ele><time>2026-04-26T11:58:41.906Z</time></trkpt><trkpt lat="45.5098149" lon="10.8233899"><ele>112.0</ele><time>2026-04-26T11:58:43.906Z</time></trkpt><trkpt lat="45.5098023" lon="10.823215"><ele>112.0</ele><time>2026-04-26T11:58:45.906Z</time></trkpt><trkpt lat="45.5098249" lon="10.8230715"><ele>111.5</ele><time>2026-04-26T11:58:46.906Z</time></trkpt><trkpt lat="45.509867" lon="10.822905"><ele>111.0</ele><time>2026-04-26T11:58:47.906Z</time></trkpt><trkpt lat="45.5099209" lon="10.8227025"><ele>110.5</ele><time>2026-04-26T11:58:48.905Z</time></trkpt><trkpt lat="45.5099757" lon="10.8224767"><ele>110.0</ele><time>2026-04-26T11:58:49.905Z</time></trkpt><trkpt lat="45.5100374" lon="10.8222189"><ele>110.0</ele><time>2026-04-26T11:58:50.906Z</time></trkpt><trkpt lat="45.5101083" lon="10.821948"><ele>110.0</ele><time>2026-04-26T11:58:51.906Z</time></trkpt><trkpt lat="45.5101898" lon="10.8216757"><ele>110.0</ele><time>2026-04-26T11:58:52.906Z</time></trkpt><trkpt lat="45.5102733" lon="10.8213948"><ele>110.0</ele><time>2026-04-26T11:58:53.906Z</time></trkpt><trkpt lat="45.5103483" lon="10.8211158"><ele>110.0</ele><time>2026-04-26T11:58:54.906Z</time></trkpt><trkpt lat="45.5104131" lon="10.8208484"><ele>110.0</ele><time>2026-04-26T11:58:55.905Z</time></trkpt><trkpt lat="45.5104714" lon="10.8205937"><ele>110.0</ele><time>2026-04-26T11:58:56.906Z</time></trkpt><trkpt lat="45.5105255" lon="10.8203364"><ele>110.0</ele><time>2026-04-26T11:58:57.906Z</time></trkpt><trkpt lat="45.5105724" lon="10.8201106"><ele>110.0</ele><time>2026-04-26T11:58:58.905Z</time></trkpt><trkpt lat="45.5106138" lon="10.8199139"><ele>110.0</ele><time>2026-04-26T11:58:59.906Z</time></trkpt><trkpt lat="45.5106447" lon="10.8197536"><ele>110.0</ele><time>2026-04-26T11:59:00.906Z</time></trkpt><trkpt lat="45.5106626" lon="10.8196232"><ele>110.0</ele><time>2026-04-26T11:59:01.906Z</time></trkpt><trkpt lat="45.5106704" lon="10.8195069"><ele>110.0</ele><time>2026-04-26T11:59:02.906Z</time></trkpt><trkpt lat="45.5106743" lon="10.8193871"><ele>110.0</ele><time>2026-04-26T11:59:03.906Z</time></trkpt><trkpt lat="45.5106955" lon="10.8192479"><ele>110.75</ele><time>2026-04-26T11:59:04.906Z</time></trkpt><trkpt lat="45.5107368" lon="10.8190788"><ele>111.5</ele><time>2026-04-26T11:59:05.906Z</time></trkpt><trkpt lat="45.5107917" lon="10.8188871"><ele>112.25</ele><time>2026-04-26T11:59:06.906Z</time></trkpt><trkpt lat="45.5108486" lon="10.8186748"><ele>113.0</ele><time>2026-04-26T11:59:07.906Z</time></trkpt><trkpt lat="45.5109124" lon="10.8184532"><ele>113.0</ele><time>2026-04-26T11:59:08.905Z</time></trkpt><trkpt lat="45.5109833" lon="10.8182397"><ele>113.0</ele><time>2026-04-26T11:59:09.906Z</time></trkpt><trkpt lat="45.51106" lon="10.818041"><ele>113.0</ele><time>2026-04-26T11:59:10.906Z</time></trkpt><trkpt lat="45.5111322" lon="10.8178841"><ele>113.0</ele><time>2026-04-26T11:59:11.905Z</time></trkpt><trkpt lat="45.5111932" lon="10.8177222"><ele>113.0</ele><time>2026-04-26T11:59:12.905Z</time></trkpt><trkpt lat="45.5112568" lon="10.8175259"><ele>113.0</ele><time>2026-04-26T11:59:13.906Z</time></trkpt><trkpt lat="45.51132" lon="10.8173318"><ele>113.0</ele><time>2026-04-26T11:59:14.906Z</time></trkpt><trkpt lat="45.5113716" lon="10.8171382"><ele>113.0</ele><time>2026-04-26T11:59:15.906Z</time></trkpt><trkpt lat="45.5114145" lon="10.8169532"><ele>113.0</ele><time>2026-04-26T11:59:16.905Z</time></trkpt><trkpt lat="45.5114632" lon="10.8167571"><ele>113.0</ele><time>2026-04-26T11:59:17.905Z</time></trkpt><trkpt lat="45.5115179" lon="10.816561"><ele>113.0</ele><time>2026-04-26T11:59:18.906Z</time></trkpt><trkpt lat="45.5115733" lon="10.8163727"><ele>113.0</ele><time>2026-04-26T11:59:19.905Z</time></trkpt><trkpt lat="45.511631" lon="10.8161999"><ele>113.0</ele><time>2026-04-26T11:59:20.905Z</time></trkpt><trkpt lat="45.5116862" lon="10.8160281"><ele>113.0</ele><time>2026-04-26T11:59:21.906Z</time></trkpt><trkpt lat="45.5117367" lon="10.8158517"><ele>113.0</ele><time>2026-04-26T11:59:22.906Z</time></trkpt><trkpt lat="45.5117832" lon="10.8156688"><ele>113.25</ele><time>2026-04-26T11:59:23.905Z</time></trkpt><trkpt lat="45.5118232" lon="10.8154816"><ele>113.5</ele><time>2026-04-26T11:59:24.905Z</time></trkpt><trkpt lat="45.5118677" lon="10.8152916"><ele>113.75</ele><time>2026-04-26T11:59:25.906Z</time></trkpt><trkpt lat="45.511911" lon="10.815113"><ele>114.0</ele><time>2026-04-26T11:59:26.906Z</time></trkpt><trkpt lat="45.5119448" lon="10.8149764"><ele>114.0</ele><time>2026-04-26T11:59:27.906Z</time></trkpt><trkpt lat="45.511982" lon="10.8148624"><ele>114.0</ele><time>2026-04-26T11:59:28.906Z</time></trkpt><trkpt lat="45.512019" lon="10.814763"><ele>114.0</ele><time>2026-04-26T11:59:29.905Z</time></trkpt><trkpt lat="45.5120563" lon="10.8146667"><ele>114.0</ele><time>2026-04-26T11:59:30.905Z</time></trkpt><trkpt lat="45.5121135" lon="10.8145648"><ele>114.0</ele><time>2026-04-26T11:59:31.906Z</time></trkpt><trkpt lat="45.5121789" lon="10.8144716"><ele>114.0</ele><time>2026-04-26T11:59:32.906Z</time></trkpt><trkpt lat="45.5122419" lon="10.8143937"><ele>114.0</ele><time>2026-04-26T11:59:33.906Z</time></trkpt><trkpt lat="45.5123033" lon="10.8142672"><ele>114.0</ele><time>2026-04-26T11:59:35.906Z</time></trkpt><trkpt lat="45.5123164" lon="10.8141691"><ele>114.0</ele><time>2026-04-26T11:59:36.905Z</time></trkpt><trkpt lat="45.5123204" lon="10.8140571"><ele>114.0</ele><time>2026-04-26T11:59:37.905Z</time></trkpt><trkpt lat="45.5123012" lon="10.8139258"><ele>114.0</ele><time>2026-04-26T11:59:38.906Z</time></trkpt><trkpt lat="45.5122679" lon="10.8137856"><ele>114.0</ele><time>2026-04-26T11:59:39.905Z</time></trkpt><trkpt lat="45.5122314" lon="10.8136361"><ele>114.0</ele><time>2026-04-26T11:59:40.905Z</time></trkpt><trkpt lat="45.5121945" lon="10.813476"><ele>114.0</ele><time>2026-04-26T11:59:41.905Z</time></trkpt><trkpt lat="45.5121631" lon="10.8133081"><ele>114.0</ele><time>2026-04-26T11:59:42.906Z</time></trkpt><trkpt lat="45.5121368" lon="10.813142"><ele>114.25</ele><time>2026-04-26T11:59:43.906Z</time></trkpt><trkpt lat="45.512115" lon="10.8129772"><ele>114.5</ele><time>2026-04-26T11:59:44.905Z</time></trkpt><trkpt lat="45.512102" lon="10.8128087"><ele>114.75</ele><time>2026-04-26T11:59:45.906Z</time></trkpt><trkpt lat="45.5121039" lon="10.812629"><ele>115.0</ele><time>2026-04-26T11:59:46.906Z</time></trkpt><trkpt lat="45.5121163" lon="10.8124485"><ele>115.0</ele><time>2026-04-26T11:59:47.906Z</time></trkpt><trkpt lat="45.512141" lon="10.8122687"><ele>115.0</ele><time>2026-04-26T11:59:48.906Z</time></trkpt><trkpt lat="45.5121756" lon="10.8120909"><ele>115.0</ele><time>2026-04-26T11:59:49.906Z</time></trkpt><trkpt lat="45.5122157" lon="10.8119136"><ele>115.0</ele><time>2026-04-26T11:59:50.906Z</time></trkpt><trkpt lat="45.5122595" lon="10.8117351"><ele>115.0</ele><time>2026-04-26T11:59:51.905Z</time></trkpt><trkpt lat="45.5123051" lon="10.8115544"><ele>115.0</ele><time>2026-04-26T11:59:52.906Z</time></trkpt><trkpt lat="45.5123524" lon="10.8113752"><ele>115.0</ele><time>2026-04-26T11:59:53.906Z</time></trkpt><trkpt lat="45.5123995" lon="10.8111992"><ele>115.0</ele><time>2026-04-26T11:59:54.905Z</time></trkpt><trkpt lat="45.5124467" lon="10.8110241"><ele>114.75</ele><time>2026-04-26T11:59:55.906Z</time></trkpt><trkpt lat="45.5124961" lon="10.810849"><ele>114.5</ele><time>2026-04-26T11:59:56.906Z</time></trkpt><trkpt lat="45.5125463" lon="10.8106768"><ele>114.25</ele><time>2026-04-26T11:59:57.906Z</time></trkpt><trkpt lat="45.5126" lon="10.8105097"><ele>114.0</ele><time>2026-04-26T11:59:58.906Z</time></trkpt><trkpt lat="45.5126487" lon="10.810352"><ele>114.0</ele><time>2026-04-26T11:59:59.905Z</time></trkpt><trkpt lat="45.5126868" lon="10.8102282"><ele>114.0</ele><time>2026-04-26T12:00:00.906Z</time></trkpt><trkpt lat="45.5127197" lon="10.8101346"><ele>114.0</ele><time>2026-04-26T12:00:01.905Z</time></trkpt><trkpt lat="45.5127701" lon="10.8100304"><ele>114.0</ele><time>2026-04-26T12:00:03.906Z</time></trkpt><trkpt lat="45.5128605" lon="10.8100219"><ele>114.0</ele><time>2026-04-26T12:00:06.906Z</time></trkpt><trkpt lat="45.5129858" lon="10.8101076"><ele>113.75</ele><time>2026-04-26T12:00:08.906Z</time></trkpt><trkpt lat="45.5130768" lon="10.8101661"><ele>113.5</ele><time>2026-04-26T12:00:09.906Z</time></trkpt><trkpt lat="45.51318" lon="10.8102294"><ele>113.25</ele><time>2026-04-26T12:00:10.906Z</time></trkpt><trkpt lat="45.5132929" lon="10.8102988"><ele>113.0</ele><time>2026-04-26T12:00:11.905Z</time></trkpt><trkpt lat="45.5134185" lon="10.810376"><ele>113.0</ele><time>2026-04-26T12:00:12.906Z</time></trkpt><trkpt lat="45.5135486" lon="10.8104594"><ele>113.0</ele><time>2026-04-26T12:00:13.905Z</time></trkpt><trkpt lat="45.5136886" lon="10.8105477"><ele>113.0</ele><time>2026-04-26T12:00:14.906Z</time></trkpt><trkpt lat="45.5138358" lon="10.8106409"><ele>113.0</ele><time>2026-04-26T12:00:15.906Z</time></trkpt><trkpt lat="45.5139852" lon="10.8107342"><ele>113.0</ele><time>2026-04-26T12:00:16.906Z</time></trkpt><trkpt lat="45.5141363" lon="10.8108264"><ele>113.0</ele><time>2026-04-26T12:00:17.906Z</time></trkpt><trkpt lat="45.5142836" lon="10.8109157"><ele>113.66666666666666</ele><time>2026-04-26T12:00:18.906Z</time></trkpt><trkpt lat="45.5144282" lon="10.8110035"><ele>114.33333333333334</ele><time>2026-04-26T12:00:19.906Z</time></trkpt><trkpt lat="45.514575" lon="10.8110895"><ele>115.0</ele><time>2026-04-26T12:00:20.905Z</time></trkpt><trkpt lat="45.5147226" lon="10.8111703"><ele>115.33333333333334</ele><time>2026-04-26T12:00:21.905Z</time></trkpt><trkpt lat="45.5148701" lon="10.8112546"><ele>115.66666666666666</ele><time>2026-04-26T12:00:22.906Z</time></trkpt><trkpt lat="45.5150167" lon="10.8113466"><ele>116.0</ele><time>2026-04-26T12:00:23.905Z</time></trkpt><trkpt lat="45.515164" lon="10.8114376"><ele>116.0</ele><time>2026-04-26T12:00:24.906Z</time></trkpt><trkpt lat="45.5153124" lon="10.8115244"><ele>116.0</ele><time>2026-04-26T12:00:25.906Z</time></trkpt><trkpt lat="45.5154644" lon="10.8116"><ele>116.0</ele><time>2026-04-26T12:00:26.906Z</time></trkpt><trkpt lat="45.5156207" lon="10.811661"><ele>115.66666666666666</ele><time>2026-04-26T12:00:27.906Z</time></trkpt><trkpt lat="45.5157816" lon="10.8117102"><ele>115.33333333333334</ele><time>2026-04-26T12:00:28.906Z</time></trkpt><trkpt lat="45.5159443" lon="10.811751"><ele>115.0</ele><time>2026-04-26T12:00:29.905Z</time></trkpt><trkpt lat="45.516108" lon="10.8117892"><ele>115.33333333333334</ele><time>2026-04-26T12:00:30.906Z</time></trkpt><trkpt lat="45.5162722" lon="10.8118274"><ele>115.66666666666666</ele><time>2026-04-26T12:00:31.905Z</time></trkpt><trkpt lat="45.5164375" lon="10.811865"><ele>116.0</ele><time>2026-04-26T12:00:32.906Z</time></trkpt><trkpt lat="45.5166016" lon="10.8119067"><ele>116.0</ele><time>2026-04-26T12:00:33.905Z</time></trkpt><trkpt lat="45.5167651" lon="10.8119458"><ele>116.0</ele><time>2026-04-26T12:00:34.906Z</time></trkpt><trkpt lat="45.5169298" lon="10.8119839"><ele>116.0</ele><time>2026-04-26T12:00:35.905Z</time></trkpt><trkpt lat="45.5170939" lon="10.8120242"><ele>117.0</ele><time>2026-04-26T12:00:36.905Z</time></trkpt><trkpt lat="45.5172569" lon="10.8120626"><ele>118.0</ele><time>2026-04-26T12:00:37.906Z</time></trkpt><trkpt lat="45.51742" lon="10.8120975"><ele>119.0</ele><time>2026-04-26T12:00:38.906Z</time></trkpt><trkpt lat="45.5175799" lon="10.8121326"><ele>119.0</ele><time>2026-04-26T12:00:39.906Z</time></trkpt><trkpt lat="45.5177345" lon="10.8121686"><ele>119.0</ele><time>2026-04-26T12:00:40.906Z</time></trkpt><trkpt lat="45.5178738" lon="10.8122024"><ele>119.0</ele><time>2026-04-26T12:00:41.906Z</time></trkpt><trkpt lat="45.5179903" lon="10.8122312"><ele>119.0</ele><time>2026-04-26T12:00:42.905Z</time></trkpt><trkpt lat="45.5180795" lon="10.8122598"><ele>118.4</ele><time>2026-04-26T12:00:43.905Z</time></trkpt><trkpt lat="45.5181636" lon="10.8123019"><ele>117.80000000000001</ele><time>2026-04-26T12:00:45.905Z</time></trkpt><trkpt lat="45.518245" lon="10.8123439"><ele>117.19999999999999</ele><time>2026-04-26T12:00:47.906Z</time></trkpt><trkpt lat="45.5183816" lon="10.8123129"><ele>116.6</ele><time>2026-04-26T12:00:49.906Z</time></trkpt><trkpt lat="45.5184681" lon="10.8122322"><ele>116.0</ele><time>2026-04-26T12:00:50.905Z</time></trkpt><trkpt lat="45.5185601" lon="10.8121345"><ele>116.0</ele><time>2026-04-26T12:00:51.906Z</time></trkpt><trkpt lat="45.5186894" lon="10.812055"><ele>116.0</ele><time>2026-04-26T12:00:52.906Z</time></trkpt><trkpt lat="45.5188348" lon="10.8120081"><ele>116.0</ele><time>2026-04-26T12:00:53.906Z</time></trkpt><trkpt lat="45.519" lon="10.8119823"><ele>115.33333333333333</ele><time>2026-04-26T12:00:54.906Z</time></trkpt><trkpt lat="45.5191809" lon="10.8119679"><ele>114.66666666666666</ele><time>2026-04-26T12:00:55.906Z</time></trkpt><trkpt lat="45.5193704" lon="10.8119571"><ele>114.0</ele><time>2026-04-26T12:00:56.906Z</time></trkpt><trkpt lat="45.5195544" lon="10.811944"><ele>114.0</ele><time>2026-04-26T12:00:57.906Z</time></trkpt><trkpt lat="45.5197375" lon="10.8119341"><ele>114.0</ele><time>2026-04-26T12:00:58.905Z</time></trkpt><trkpt lat="45.5199033" lon="10.8119356"><ele>114.0</ele><time>2026-04-26T12:00:59.906Z</time></trkpt><trkpt lat="45.5200528" lon="10.8119429"><ele>114.0</ele><time>2026-04-26T12:01:00.905Z</time></trkpt><trkpt lat="45.5201886" lon="10.8119564"><ele>114.0</ele><time>2026-04-26T12:01:01.906Z</time></trkpt><trkpt lat="45.5203134" lon="10.8119746"><ele>114.0</ele><time>2026-04-26T12:01:02.906Z</time></trkpt><trkpt lat="45.5204293" lon="10.8119826"><ele>114.0</ele><time>2026-04-26T12:01:03.906Z</time></trkpt><trkpt lat="45.5205442" lon="10.8119556"><ele>113.5</ele><time>2026-04-26T12:01:04.906Z</time></trkpt><trkpt lat="45.5206582" lon="10.8118896"><ele>113.0</ele><time>2026-04-26T12:01:05.905Z</time></trkpt><trkpt lat="45.520775" lon="10.811847"><ele>112.5</ele><time>2026-04-26T12:01:06.906Z</time></trkpt><trkpt lat="45.5209056" lon="10.8118331"><ele>112.0</ele><time>2026-04-26T12:01:07.906Z</time></trkpt><trkpt lat="45.5210512" lon="10.8118407"><ele>112.0</ele><time>2026-04-26T12:01:08.906Z</time></trkpt><trkpt lat="45.5212021" lon="10.8118608"><ele>112.0</ele><time>2026-04-26T12:01:09.905Z</time></trkpt><trkpt lat="45.5213654" lon="10.8118778"><ele>112.0</ele><time>2026-04-26T12:01:10.905Z</time></trkpt><trkpt lat="45.5215295" lon="10.8119007"><ele>112.66666666666667</ele><time>2026-04-26T12:01:11.906Z</time></trkpt><trkpt lat="45.5216927" lon="10.8119354"><ele>113.33333333333334</ele><time>2026-04-26T12:01:12.905Z</time></trkpt><trkpt lat="45.521851" lon="10.8119695"><ele>114.0</ele><time>2026-04-26T12:01:13.905Z</time></trkpt><trkpt lat="45.5219989" lon="10.8119958"><ele>113.66666666666666</ele><time>2026-04-26T12:01:14.905Z</time></trkpt><trkpt lat="45.5221481" lon="10.8119999"><ele>113.33333333333333</ele><time>2026-04-26T12:01:15.906Z</time></trkpt><trkpt lat="45.5223044" lon="10.8119795"><ele>113.0</ele><time>2026-04-26T12:01:16.905Z</time></trkpt><trkpt lat="45.5224652" lon="10.8119493"><ele>113.0</ele><time>2026-04-26T12:01:17.906Z</time></trkpt><trkpt lat="45.5226268" lon="10.81191"><ele>113.0</ele><time>2026-04-26T12:01:18.905Z</time></trkpt><trkpt lat="45.5227899" lon="10.811865"><ele>113.0</ele><time>2026-04-26T12:01:19.905Z</time></trkpt><trkpt lat="45.52295" lon="10.8118207"><ele>112.5</ele><time>2026-04-26T12:01:20.906Z</time></trkpt><trkpt lat="45.5231036" lon="10.8117791"><ele>112.0</ele><time>2026-04-26T12:01:21.906Z</time></trkpt><trkpt lat="45.5232451" lon="10.8117414"><ele>111.5</ele><time>2026-04-26T12:01:22.906Z</time></trkpt><trkpt lat="45.5233739" lon="10.8117095"><ele>111.0</ele><time>2026-04-26T12:01:23.906Z</time></trkpt><trkpt lat="45.5234902" lon="10.8116805"><ele>111.0</ele><time>2026-04-26T12:01:24.905Z</time></trkpt><trkpt lat="45.5235884" lon="10.8116516"><ele>111.0</ele><time>2026-04-26T12:01:25.906Z</time></trkpt><trkpt lat="45.523659" lon="10.8116146"><ele>111.0</ele><time>2026-04-26T12:01:26.906Z</time></trkpt><trkpt lat="45.5237128" lon="10.8115508"><ele>111.0</ele><time>2026-04-26T12:01:28.906Z</time></trkpt><trkpt lat="45.5237314" lon="10.8114516"><ele>111.0</ele><time>2026-04-26T12:01:30.906Z</time></trkpt><trkpt lat="45.5237274" lon="10.8113538"><ele>111.0</ele><time>2026-04-26T12:01:31.906Z</time></trkpt><trkpt lat="45.5236969" lon="10.8112305"><ele>111.0</ele><time>2026-04-26T12:01:32.906Z</time></trkpt><trkpt lat="45.5236381" lon="10.8110971"><ele>111.0</ele><time>2026-04-26T12:01:33.906Z</time></trkpt><trkpt lat="45.5235731" lon="10.8109386"><ele>111.0</ele><time>2026-04-26T12:01:34.906Z</time></trkpt><trkpt lat="45.5235099" lon="10.810762"><ele>111.0</ele><time>2026-04-26T12:01:35.906Z</time></trkpt><trkpt lat="45.5234416" lon="10.8105721"><ele>111.0</ele><time>2026-04-26T12:01:36.906Z</time></trkpt><trkpt lat="45.5233748" lon="10.8103687"><ele>111.0</ele><time>2026-04-26T12:01:37.905Z</time></trkpt><trkpt lat="45.5233048" lon="10.8101461"><ele>111.0</ele><time>2026-04-26T12:01:38.906Z</time></trkpt><trkpt lat="45.523233" lon="10.8099182"><ele>111.0</ele><time>2026-04-26T12:01:39.906Z</time></trkpt><trkpt lat="45.5231577" lon="10.8096868"><ele>111.0</ele><time>2026-04-26T12:01:40.906Z</time></trkpt><trkpt lat="45.5230817" lon="10.8094507"><ele>111.0</ele><time>2026-04-26T12:01:41.906Z</time></trkpt><trkpt lat="45.5230092" lon="10.8092167"><ele>111.66666666666666</ele><time>2026-04-26T12:01:42.905Z</time></trkpt><trkpt lat="45.5229377" lon="10.8089778"><ele>112.33333333333333</ele><time>2026-04-26T12:01:43.906Z</time></trkpt><trkpt lat="45.522868" lon="10.8087368"><ele>113.0</ele><time>2026-04-26T12:01:44.906Z</time></trkpt><trkpt lat="45.522798" lon="10.8084984"><ele>112.0</ele><time>2026-04-26T12:01:45.906Z</time></trkpt><trkpt lat="45.5227206" lon="10.8082614"><ele>111.0</ele><time>2026-04-26T12:01:46.905Z</time></trkpt><trkpt lat="45.522637" lon="10.8080308"><ele>110.0</ele><time>2026-04-26T12:01:47.905Z</time></trkpt><trkpt lat="45.522548" lon="10.8078041"><ele>109.66666666666666</ele><time>2026-04-26T12:01:48.906Z</time></trkpt><trkpt lat="45.5224598" lon="10.8075804"><ele>109.33333333333334</ele><time>2026-04-26T12:01:49.906Z</time></trkpt><trkpt lat="45.5223755" lon="10.8073584"><ele>109.0</ele><time>2026-04-26T12:01:50.906Z</time></trkpt><trkpt lat="45.5222939" lon="10.8071366"><ele>109.0</ele><time>2026-04-26T12:01:51.905Z</time></trkpt><trkpt lat="45.5222212" lon="10.8069147"><ele>109.0</ele><time>2026-04-26T12:01:52.906Z</time></trkpt><trkpt lat="45.5221596" lon="10.806696"><ele>109.0</ele><time>2026-04-26T12:01:53.906Z</time></trkpt><trkpt lat="45.5221224" lon="10.8064737"><ele>107.0</ele><time>2026-04-26T12:01:54.906Z</time></trkpt><trkpt lat="45.5221116" lon="10.8062378"><ele>105.0</ele><time>2026-04-26T12:01:55.906Z</time></trkpt><trkpt lat="45.5221288" lon="10.8059956"><ele>103.0</ele><time>2026-04-26T12:01:56.905Z</time></trkpt><trkpt lat="45.5221709" lon="10.8057513"><ele>100.33333333333334</ele><time>2026-04-26T12:01:57.906Z</time></trkpt><trkpt lat="45.5222255" lon="10.8055087"><ele>97.66666666666667</ele><time>2026-04-26T12:01:58.906Z</time></trkpt><trkpt lat="45.522281" lon="10.8052674"><ele>95.0</ele><time>2026-04-26T12:01:59.906Z</time></trkpt><trkpt lat="45.5223331" lon="10.8050333"><ele>94.0</ele><time>2026-04-26T12:02:00.906Z</time></trkpt><trkpt lat="45.5223836" lon="10.8048046"><ele>93.0</ele><time>2026-04-26T12:02:01.905Z</time></trkpt><trkpt lat="45.5224364" lon="10.804582"><ele>92.0</ele><time>2026-04-26T12:02:02.906Z</time></trkpt><trkpt lat="45.5224931" lon="10.8043644"><ele>93.0</ele><time>2026-04-26T12:02:03.904Z</time></trkpt><trkpt lat="45.5225517" lon="10.8041498"><ele>94.0</ele><time>2026-04-26T12:02:04.906Z</time></trkpt><trkpt lat="45.5226119" lon="10.803937"><ele>95.0</ele><time>2026-04-26T12:02:05.906Z</time></trkpt><trkpt lat="45.5226702" lon="10.8037335"><ele>95.0</ele><time>2026-04-26T12:02:06.906Z</time></trkpt><trkpt lat="45.5227241" lon="10.8035432"><ele>95.0</ele><time>2026-04-26T12:02:07.905Z</time></trkpt><trkpt lat="45.5227831" lon="10.8033728"><ele>95.0</ele><time>2026-04-26T12:02:08.906Z</time></trkpt><trkpt lat="45.5228532" lon="10.8032261"><ele>95.0</ele><time>2026-04-26T12:02:09.906Z</time></trkpt><trkpt lat="45.5229247" lon="10.8030995"><ele>95.6</ele><time>2026-04-26T12:02:10.906Z</time></trkpt><trkpt lat="45.5229943" lon="10.8029837"><ele>96.2</ele><time>2026-04-26T12:02:11.906Z</time></trkpt><trkpt lat="45.5230727" lon="10.8028899"><ele>96.80000000000001</ele><time>2026-04-26T12:02:12.906Z</time></trkpt><trkpt lat="45.5231746" lon="10.8028244"><ele>97.4</ele><time>2026-04-26T12:02:13.906Z</time></trkpt><trkpt lat="45.5232874" lon="10.8027899"><ele>98.0</ele><time>2026-04-26T12:02:14.906Z</time></trkpt><trkpt lat="45.5234046" lon="10.8027734"><ele>98.0</ele><time>2026-04-26T12:02:15.906Z</time></trkpt><trkpt lat="45.5235256" lon="10.8027617"><ele>98.0</ele><time>2026-04-26T12:02:16.906Z</time></trkpt><trkpt lat="45.5236503" lon="10.8027285"><ele>98.0</ele><time>2026-04-26T12:02:17.906Z</time></trkpt><trkpt lat="45.523772" lon="10.8026558"><ele>98.0</ele><time>2026-04-26T12:02:18.905Z</time></trkpt><trkpt lat="45.523887" lon="10.8025492"><ele>98.0</ele><time>2026-04-26T12:02:19.905Z</time></trkpt><trkpt lat="45.5239926" lon="10.8024169"><ele>98.0</ele><time>2026-04-26T12:02:20.906Z</time></trkpt><trkpt lat="45.5240933" lon="10.8022704"><ele>98.0</ele><time>2026-04-26T12:02:21.906Z</time></trkpt><trkpt lat="45.5241979" lon="10.8021241"><ele>98.0</ele><time>2026-04-26T12:02:22.906Z</time></trkpt><trkpt lat="45.5243169" lon="10.8019984"><ele>98.0</ele><time>2026-04-26T12:02:23.905Z</time></trkpt><trkpt lat="45.5244476" lon="10.8018946"><ele>98.0</ele><time>2026-04-26T12:02:24.906Z</time></trkpt><trkpt lat="45.524585" lon="10.8018118"><ele>98.0</ele><time>2026-04-26T12:02:25.906Z</time></trkpt><trkpt lat="45.5247228" lon="10.8017387"><ele>98.0</ele><time>2026-04-26T12:02:26.906Z</time></trkpt><trkpt lat="45.5248563" lon="10.8016708"><ele>98.25</ele><time>2026-04-26T12:02:27.906Z</time></trkpt><trkpt lat="45.5249862" lon="10.8015966"><ele>98.5</ele><time>2026-04-26T12:02:28.905Z</time></trkpt><trkpt lat="45.525116" lon="10.8015127"><ele>98.75</ele><time>2026-04-26T12:02:29.906Z</time></trkpt><trkpt lat="45.5252464" lon="10.8014197"><ele>99.0</ele><time>2026-04-26T12:02:30.906Z</time></trkpt><trkpt lat="45.5253774" lon="10.8013178"><ele>99.25</ele><time>2026-04-26T12:02:31.905Z</time></trkpt><trkpt lat="45.5255051" lon="10.8012129"><ele>99.5</ele><time>2026-04-26T12:02:32.905Z</time></trkpt><trkpt lat="45.5256263" lon="10.8010961"><ele>99.75</ele><time>2026-04-26T12:02:33.904Z</time></trkpt><trkpt lat="45.5257422" lon="10.8009604"><ele>100.0</ele><time>2026-04-26T12:02:34.905Z</time></trkpt><trkpt lat="45.5258501" lon="10.8008121"><ele>100.0</ele><time>2026-04-26T12:02:35.905Z</time></trkpt><trkpt lat="45.5259469" lon="10.8006655"><ele>100.0</ele><time>2026-04-26T12:02:36.904Z</time></trkpt><trkpt lat="45.526033" lon="10.8005229"><ele>100.0</ele><time>2026-04-26T12:02:37.904Z</time></trkpt><trkpt lat="45.5261153" lon="10.8003988"><ele>100.0</ele><time>2026-04-26T12:02:38.905Z</time></trkpt><trkpt lat="45.5262013" lon="10.8003057"><ele>100.4</ele><time>2026-04-26T12:02:39.905Z</time></trkpt><trkpt lat="45.5262948" lon="10.8002355"><ele>100.8</ele><time>2026-04-26T12:02:40.905Z</time></trkpt><trkpt lat="45.5263978" lon="10.8001983"><ele>101.19999999999999</ele><time>2026-04-26T12:02:41.905Z</time></trkpt><trkpt lat="45.5265091" lon="10.8001882"><ele>101.6</ele><time>2026-04-26T12:02:42.905Z</time></trkpt><trkpt lat="45.5266259" lon="10.8001915"><ele>102.0</ele><time>2026-04-26T12:02:43.905Z</time></trkpt><trkpt lat="45.5267474" lon="10.8001949"><ele>102.0</ele><time>2026-04-26T12:02:44.905Z</time></trkpt><trkpt lat="45.5268738" lon="10.8001984"><ele>102.0</ele><time>2026-04-26T12:02:45.905Z</time></trkpt><trkpt lat="45.5269997" lon="10.8002204"><ele>102.0</ele><time>2026-04-26T12:02:46.905Z</time></trkpt><trkpt lat="45.5271256" lon="10.800282"><ele>102.0</ele><time>2026-04-26T12:02:47.904Z</time></trkpt><trkpt lat="45.5272514" lon="10.8003586"><ele>103.25</ele><time>2026-04-26T12:02:48.905Z</time></trkpt><trkpt lat="45.5273837" lon="10.8004343"><ele>104.5</ele><time>2026-04-26T12:02:49.904Z</time></trkpt><trkpt lat="45.5275227" lon="10.8005006"><ele>105.75</ele><time>2026-04-26T12:02:50.905Z</time></trkpt><trkpt lat="45.527669" lon="10.8005639"><ele>107.0</ele><time>2026-04-26T12:02:51.905Z</time></trkpt><trkpt lat="45.5278196" lon="10.8006293"><ele>109.66666666666666</ele><time>2026-04-26T12:02:52.904Z</time></trkpt><trkpt lat="45.5279744" lon="10.8006985"><ele>112.33333333333334</ele><time>2026-04-26T12:02:53.904Z</time></trkpt><trkpt lat="45.5281329" lon="10.8007657"><ele>115.0</ele><time>2026-04-26T12:02:54.904Z</time></trkpt><trkpt lat="45.528292" lon="10.8008296"><ele>115.0</ele><time>2026-04-26T12:02:55.905Z</time></trkpt><trkpt lat="45.5284511" lon="10.8008913"><ele>115.0</ele><time>2026-04-26T12:02:56.905Z</time></trkpt><trkpt lat="45.5286072" lon="10.8009535"><ele>115.0</ele><time>2026-04-26T12:02:57.904Z</time></trkpt><trkpt lat="45.5287617" lon="10.8010216"><ele>114.0</ele><time>2026-04-26T12:02:58.904Z</time></trkpt><trkpt lat="45.5289159" lon="10.8010918"><ele>113.0</ele><time>2026-04-26T12:02:59.905Z</time></trkpt><trkpt lat="45.52907" lon="10.8011663"><ele>112.0</ele><time>2026-04-26T12:03:00.904Z</time></trkpt><trkpt lat="45.5292241" lon="10.8012429"><ele>112.0</ele><time>2026-04-26T12:03:01.905Z</time></trkpt><trkpt lat="45.5293765" lon="10.8013218"><ele>112.0</ele><time>2026-04-26T12:03:02.905Z</time></trkpt><trkpt lat="45.529529" lon="10.8014005"><ele>112.0</ele><time>2026-04-26T12:03:03.905Z</time></trkpt><trkpt lat="45.5296788" lon="10.8014782"><ele>115.0</ele><time>2026-04-26T12:03:04.905Z</time></trkpt><trkpt lat="45.5298264" lon="10.8015533"><ele>118.0</ele><time>2026-04-26T12:03:05.905Z</time></trkpt><trkpt lat="45.5299735" lon="10.8016269"><ele>121.0</ele><time>2026-04-26T12:03:06.905Z</time></trkpt><trkpt lat="45.5301188" lon="10.8016998"><ele>121.0</ele><time>2026-04-26T12:03:07.904Z</time></trkpt><trkpt lat="45.5302641" lon="10.8017716"><ele>121.0</ele><time>2026-04-26T12:03:08.903Z</time></trkpt><trkpt lat="45.5304079" lon="10.801845"><ele>121.0</ele><time>2026-04-26T12:03:09.905Z</time></trkpt><trkpt lat="45.5305497" lon="10.8019201"><ele>119.75</ele><time>2026-04-26T12:03:10.904Z</time></trkpt><trkpt lat="45.5306896" lon="10.8019971"><ele>118.5</ele><time>2026-04-26T12:03:11.905Z</time></trkpt><trkpt lat="45.5308263" lon="10.8020724"><ele>117.25</ele><time>2026-04-26T12:03:12.905Z</time></trkpt><trkpt lat="45.5309568" lon="10.8021452"><ele>116.0</ele><time>2026-04-26T12:03:13.905Z</time></trkpt><trkpt lat="45.5310857" lon="10.8022159"><ele>116.0</ele><time>2026-04-26T12:03:14.905Z</time></trkpt><trkpt lat="45.5312181" lon="10.8022698"><ele>116.0</ele><time>2026-04-26T12:03:15.905Z</time></trkpt><trkpt lat="45.5313576" lon="10.8022897"><ele>116.0</ele><time>2026-04-26T12:03:16.905Z</time></trkpt><trkpt lat="45.531499" lon="10.8022585"><ele>116.0</ele><time>2026-04-26T12:03:17.905Z</time></trkpt><trkpt lat="45.5316358" lon="10.8021961"><ele>119.66666666666666</ele><time>2026-04-26T12:03:18.904Z</time></trkpt><trkpt lat="45.5317752" lon="10.8021237"><ele>123.33333333333334</ele><time>2026-04-26T12:03:19.905Z</time></trkpt><trkpt lat="45.531919" lon="10.8020528"><ele>127.0</ele><time>2026-04-26T12:03:20.905Z</time></trkpt><trkpt lat="45.5320694" lon="10.8019902"><ele>129.33333333333334</ele><time>2026-04-26T12:03:21.904Z</time></trkpt><trkpt lat="45.532224" lon="10.8019454"><ele>131.66666666666666</ele><time>2026-04-26T12:03:22.904Z</time></trkpt><trkpt lat="45.5323837" lon="10.8019124"><ele>134.0</ele><time>2026-04-26T12:03:23.904Z</time></trkpt><trkpt lat="45.5325422" lon="10.8018837"><ele>134.0</ele><time>2026-04-26T12:03:24.905Z</time></trkpt><trkpt lat="45.5326992" lon="10.8018594"><ele>134.0</ele><time>2026-04-26T12:03:25.905Z</time></trkpt><trkpt lat="45.5328551" lon="10.801837"><ele>134.0</ele><time>2026-04-26T12:03:26.904Z</time></trkpt><trkpt lat="45.5330109" lon="10.8018176"><ele>136.66666666666666</ele><time>2026-04-26T12:03:27.904Z</time></trkpt><trkpt lat="45.5331661" lon="10.8018011"><ele>139.33333333333334</ele><time>2026-04-26T12:03:28.904Z</time></trkpt><trkpt lat="45.533321" lon="10.8017941"><ele>142.0</ele><time>2026-04-26T12:03:29.905Z</time></trkpt><trkpt lat="45.5334751" lon="10.8017944"><ele>142.0</ele><time>2026-04-26T12:03:30.905Z</time></trkpt><trkpt lat="45.5336288" lon="10.8018078"><ele>142.0</ele><time>2026-04-26T12:03:31.905Z</time></trkpt><trkpt lat="45.5337846" lon="10.8018219"><ele>142.0</ele><time>2026-04-26T12:03:32.904Z</time></trkpt><trkpt lat="45.5339441" lon="10.8018389"><ele>141.0</ele><time>2026-04-26T12:03:33.905Z</time></trkpt><trkpt lat="45.534105" lon="10.8018566"><ele>140.0</ele><time>2026-04-26T12:03:34.904Z</time></trkpt><trkpt lat="45.5342669" lon="10.8018756"><ele>139.0</ele><time>2026-04-26T12:03:35.904Z</time></trkpt><trkpt lat="45.5344293" lon="10.8019007"><ele>140.0</ele><time>2026-04-26T12:03:36.904Z</time></trkpt><trkpt lat="45.5345928" lon="10.801931"><ele>141.0</ele><time>2026-04-26T12:03:37.904Z</time></trkpt><trkpt lat="45.5347579" lon="10.8019639"><ele>142.0</ele><time>2026-04-26T12:03:38.905Z</time></trkpt><trkpt lat="45.5349241" lon="10.8019904"><ele>142.0</ele><time>2026-04-26T12:03:39.905Z</time></trkpt><trkpt lat="45.5350933" lon="10.8020122"><ele>142.0</ele><time>2026-04-26T12:03:40.904Z</time></trkpt><trkpt lat="45.5352631" lon="10.8020359"><ele>142.0</ele><time>2026-04-26T12:03:41.905Z</time></trkpt><trkpt lat="45.5354365" lon="10.8020591"><ele>143.33333333333334</ele><time>2026-04-26T12:03:42.904Z</time></trkpt><trkpt lat="45.5356118" lon="10.8020825"><ele>144.66666666666666</ele><time>2026-04-26T12:03:43.904Z</time></trkpt><trkpt lat="45.535788" lon="10.8021025"><ele>146.0</ele><time>2026-04-26T12:03:44.905Z</time></trkpt><trkpt lat="45.5359649" lon="10.8021217"><ele>146.0</ele><time>2026-04-26T12:03:45.905Z</time></trkpt><trkpt lat="45.5361385" lon="10.8021381"><ele>146.0</ele><time>2026-04-26T12:03:46.905Z</time></trkpt><trkpt lat="45.5363103" lon="10.8021381"><ele>146.0</ele><time>2026-04-26T12:03:47.904Z</time></trkpt><trkpt lat="45.5364782" lon="10.8021299"><ele>146.33333333333331</ele><time>2026-04-26T12:03:48.904Z</time></trkpt><trkpt lat="45.5366474" lon="10.8021096"><ele>146.66666666666666</ele><time>2026-04-26T12:03:49.904Z</time></trkpt><trkpt lat="45.5368142" lon="10.8020816"><ele>147.0</ele><time>2026-04-26T12:03:50.905Z</time></trkpt><trkpt lat="45.5369796" lon="10.8020561"><ele>147.66666666666666</ele><time>2026-04-26T12:03:51.904Z</time></trkpt><trkpt lat="45.5371426" lon="10.8020303"><ele>148.33333333333331</ele><time>2026-04-26T12:03:52.905Z</time></trkpt><trkpt lat="45.5373092" lon="10.8020027"><ele>149.0</ele><time>2026-04-26T12:03:53.905Z</time></trkpt><trkpt lat="45.5374746" lon="10.8019784"><ele>149.0</ele><time>2026-04-26T12:03:54.905Z</time></trkpt><trkpt lat="45.5376356" lon="10.8019481"><ele>149.0</ele><time>2026-04-26T12:03:55.905Z</time></trkpt><trkpt lat="45.5378035" lon="10.8019201"><ele>149.0</ele><time>2026-04-26T12:03:56.905Z</time></trkpt><trkpt lat="45.5379823" lon="10.8018905"><ele>148.66666666666666</ele><time>2026-04-26T12:03:57.905Z</time></trkpt><trkpt lat="45.5381519" lon="10.8018654"><ele>148.33333333333334</ele><time>2026-04-26T12:03:58.905Z</time></trkpt><trkpt lat="45.5383174" lon="10.8018388"><ele>148.0</ele><time>2026-04-26T12:03:59.905Z</time></trkpt><trkpt lat="45.5384799" lon="10.8018134"><ele>149.33333333333334</ele><time>2026-04-26T12:04:00.904Z</time></trkpt><trkpt lat="45.5386439" lon="10.8017934"><ele>150.66666666666666</ele><time>2026-04-26T12:04:01.905Z</time></trkpt><trkpt lat="45.5388026" lon="10.8017829"><ele>152.0</ele><time>2026-04-26T12:04:02.905Z</time></trkpt><trkpt lat="45.5389629" lon="10.8017803"><ele>152.66666666666666</ele><time>2026-04-26T12:04:03.904Z</time></trkpt><trkpt lat="45.539128" lon="10.8017822"><ele>153.33333333333334</ele><time>2026-04-26T12:04:04.904Z</time></trkpt><trkpt lat="45.5392909" lon="10.8017898"><ele>154.0</ele><time>2026-04-26T12:04:05.904Z</time></trkpt><trkpt lat="45.5394582" lon="10.8018039"><ele>154.66666666666669</ele><time>2026-04-26T12:04:06.905Z</time></trkpt><trkpt lat="45.5396249" lon="10.801823"><ele>155.33333333333334</ele><time>2026-04-26T12:04:07.904Z</time></trkpt><trkpt lat="45.5397939" lon="10.8018452"><ele>156.0</ele><time>2026-04-26T12:04:08.905Z</time></trkpt><trkpt lat="45.539964" lon="10.8018706"><ele>155.33333333333334</ele><time>2026-04-26T12:04:09.904Z</time></trkpt><trkpt lat="45.5401314" lon="10.8018976"><ele>154.66666666666669</ele><time>2026-04-26T12:04:10.905Z</time></trkpt><trkpt lat="45.5402969" lon="10.8019267"><ele>154.0</ele><time>2026-04-26T12:04:11.905Z</time></trkpt><trkpt lat="45.5404614" lon="10.801953"><ele>154.0</ele><time>2026-04-26T12:04:12.904Z</time></trkpt><trkpt lat="45.540626" lon="10.8019825"><ele>154.0</ele><time>2026-04-26T12:04:13.905Z</time></trkpt><trkpt lat="45.5407791" lon="10.8020132"><ele>154.0</ele><time>2026-04-26T12:04:14.905Z</time></trkpt><trkpt lat="45.5409278" lon="10.802041"><ele>154.0</ele><time>2026-04-26T12:04:15.905Z</time></trkpt><trkpt lat="45.5410766" lon="10.8020681"><ele>154.0</ele><time>2026-04-26T12:04:16.905Z</time></trkpt><trkpt lat="45.5412252" lon="10.8020896"><ele>154.0</ele><time>2026-04-26T12:04:17.904Z</time></trkpt><trkpt lat="45.541367" lon="10.8021032"><ele>154.0</ele><time>2026-04-26T12:04:18.905Z</time></trkpt><trkpt lat="45.5414974" lon="10.8021166"><ele>154.2</ele><time>2026-04-26T12:04:19.905Z</time></trkpt><trkpt lat="45.5416096" lon="10.802113"><ele>154.4</ele><time>2026-04-26T12:04:20.904Z</time></trkpt><trkpt lat="45.541698" lon="10.8020765"><ele>154.6</ele><time>2026-04-26T12:04:21.905Z</time></trkpt><trkpt lat="45.541761" lon="10.8019936"><ele>154.8</ele><time>2026-04-26T12:04:22.905Z</time></trkpt><trkpt lat="45.5417996" lon="10.801868"><ele>155.0</ele><time>2026-04-26T12:04:23.905Z</time></trkpt><trkpt lat="45.5418223" lon="10.8017132"><ele>155.75</ele><time>2026-04-26T12:04:24.904Z</time></trkpt><trkpt lat="45.5418279" lon="10.8015524"><ele>156.5</ele><time>2026-04-26T12:04:25.904Z</time></trkpt><trkpt lat="45.5418378" lon="10.8013854"><ele>157.25</ele><time>2026-04-26T12:04:26.905Z</time></trkpt><trkpt lat="45.5418509" lon="10.8012102"><ele>158.0</ele><time>2026-04-26T12:04:27.905Z</time></trkpt><trkpt lat="45.541868" lon="10.8010053"><ele>160.0</ele><time>2026-04-26T12:04:28.904Z</time></trkpt><trkpt lat="45.5418928" lon="10.8007535"><ele>162.0</ele><time>2026-04-26T12:04:29.905Z</time></trkpt><trkpt lat="45.5419168" lon="10.8004803"><ele>164.0</ele><time>2026-04-26T12:04:30.905Z</time></trkpt><trkpt lat="45.5419362" lon="10.8002291"><ele>164.33333333333331</ele><time>2026-04-26T12:04:31.905Z</time></trkpt><trkpt lat="45.5419539" lon="10.7999913"><ele>164.66666666666666</ele><time>2026-04-26T12:04:32.905Z</time></trkpt><trkpt lat="45.5419707" lon="10.7997763"><ele>165.0</ele><time>2026-04-26T12:04:33.905Z</time></trkpt><trkpt lat="45.541989" lon="10.7995592"><ele>165.0</ele><time>2026-04-26T12:04:34.905Z</time></trkpt><trkpt lat="45.5420085" lon="10.7993446"><ele>165.0</ele><time>2026-04-26T12:04:35.905Z</time></trkpt><trkpt lat="45.5420285" lon="10.7991257"><ele>165.0</ele><time>2026-04-26T12:04:36.905Z</time></trkpt><trkpt lat="45.5420463" lon="10.7989025"><ele>165.66666666666666</ele><time>2026-04-26T12:04:37.903Z</time></trkpt><trkpt lat="45.542061" lon="10.7986731"><ele>166.33333333333331</ele><time>2026-04-26T12:04:38.905Z</time></trkpt><trkpt lat="45.5420773" lon="10.7984393"><ele>167.0</ele><time>2026-04-26T12:04:39.905Z</time></trkpt><trkpt lat="45.5420971" lon="10.7982014"><ele>167.33333333333331</ele><time>2026-04-26T12:04:40.905Z</time></trkpt><trkpt lat="45.5421149" lon="10.7979618"><ele>167.66666666666666</ele><time>2026-04-26T12:04:41.904Z</time></trkpt><trkpt lat="45.5421333" lon="10.7977229"><ele>168.0</ele><time>2026-04-26T12:04:42.905Z</time></trkpt><trkpt lat="45.5421508" lon="10.7974882"><ele>168.5</ele><time>2026-04-26T12:04:43.905Z</time></trkpt><trkpt lat="45.5421672" lon="10.7972736"><ele>169.0</ele><time>2026-04-26T12:04:44.905Z</time></trkpt><trkpt lat="45.542184" lon="10.7970818"><ele>169.5</ele><time>2026-04-26T12:04:45.905Z</time></trkpt><trkpt lat="45.5421988" lon="10.7969074"><ele>170.0</ele><time>2026-04-26T12:04:46.904Z</time></trkpt><trkpt lat="45.5422125" lon="10.7967471"><ele>170.0</ele><time>2026-04-26T12:04:47.904Z</time></trkpt><trkpt lat="45.5422237" lon="10.7966045"><ele>170.0</ele><time>2026-04-26T12:04:48.905Z</time></trkpt><trkpt lat="45.5422303" lon="10.7964762"><ele>170.0</ele><time>2026-04-26T12:04:49.905Z</time></trkpt><trkpt lat="45.5422516" lon="10.7963734"><ele>170.0</ele><time>2026-04-26T12:04:50.905Z</time></trkpt><trkpt lat="45.5423742" lon="10.7962809"><ele>170.0</ele><time>2026-04-26T12:04:52.905Z</time></trkpt><trkpt lat="45.5424818" lon="10.796289"><ele>170.0</ele><time>2026-04-26T12:04:53.904Z</time></trkpt><trkpt lat="45.5426033" lon="10.7963279"><ele>170.0</ele><time>2026-04-26T12:04:54.905Z</time></trkpt><trkpt lat="45.5427496" lon="10.7963702"><ele>170.0</ele><time>2026-04-26T12:04:55.905Z</time></trkpt><trkpt lat="45.5429034" lon="10.7963946"><ele>170.0</ele><time>2026-04-26T12:04:56.905Z</time></trkpt><trkpt lat="45.5430746" lon="10.7964157"><ele>171.0</ele><time>2026-04-26T12:04:57.904Z</time></trkpt><trkpt lat="45.543249" lon="10.7964379"><ele>172.0</ele><time>2026-04-26T12:04:58.905Z</time></trkpt><trkpt lat="45.5434252" lon="10.7964661"><ele>173.0</ele><time>2026-04-26T12:04:59.905Z</time></trkpt><trkpt lat="45.5436006" lon="10.7964957"><ele>173.66666666666666</ele><time>2026-04-26T12:05:00.905Z</time></trkpt><trkpt lat="45.5437755" lon="10.796527"><ele>174.33333333333334</ele><time>2026-04-26T12:05:01.905Z</time></trkpt><trkpt lat="45.5439483" lon="10.7965583"><ele>175.0</ele><time>2026-04-26T12:05:02.904Z</time></trkpt><trkpt lat="45.5441192" lon="10.7965852"><ele>175.0</ele><time>2026-04-26T12:05:03.904Z</time></trkpt><trkpt lat="45.5442865" lon="10.7966135"><ele>175.0</ele><time>2026-04-26T12:05:04.905Z</time></trkpt><trkpt lat="45.5444466" lon="10.796641"><ele>175.0</ele><time>2026-04-26T12:05:05.905Z</time></trkpt><trkpt lat="45.5445995" lon="10.7966677"><ele>175.0</ele><time>2026-04-26T12:05:06.905Z</time></trkpt><trkpt lat="45.544754" lon="10.7966946"><ele>175.0</ele><time>2026-04-26T12:05:07.905Z</time></trkpt><trkpt lat="45.5449067" lon="10.7967211"><ele>175.0</ele><time>2026-04-26T12:05:08.905Z</time></trkpt><trkpt lat="45.5450461" lon="10.7967466"><ele>175.0</ele><time>2026-04-26T12:05:09.904Z</time></trkpt><trkpt lat="45.5451742" lon="10.7967686"><ele>175.0</ele><time>2026-04-26T12:05:10.905Z</time></trkpt><trkpt lat="45.545293" lon="10.7967907"><ele>175.0</ele><time>2026-04-26T12:05:11.905Z</time></trkpt><trkpt lat="45.5453997" lon="10.7968088"><ele>175.0</ele><time>2026-04-26T12:05:12.905Z</time></trkpt><trkpt lat="45.5454873" lon="10.796827"><ele>175.0</ele><time>2026-04-26T12:05:13.905Z</time></trkpt><trkpt lat="45.5455572" lon="10.7968424"><ele>174.83333333333334</ele><time>2026-04-26T12:05:14.904Z</time></trkpt><trkpt lat="45.5456446" lon="10.7968426"><ele>174.66666666666669</ele><time>2026-04-26T12:05:16.905Z</time></trkpt><trkpt lat="45.5457046" lon="10.7967734"><ele>174.5</ele><time>2026-04-26T12:05:18.905Z</time></trkpt><trkpt lat="45.5457333" lon="10.7966876"><ele>174.33333333333334</ele><time>2026-04-26T12:05:19.905Z</time></trkpt><trkpt lat="45.5457566" lon="10.7965605"><ele>174.16666666666666</ele><time>2026-04-26T12:05:20.905Z</time></trkpt><trkpt lat="45.5457841" lon="10.7964115"><ele>174.0</ele><time>2026-04-26T12:05:21.905Z</time></trkpt><trkpt lat="45.5458149" lon="10.7962427"><ele>174.75</ele><time>2026-04-26T12:05:22.904Z</time></trkpt><trkpt lat="45.5458477" lon="10.796045"><ele>175.5</ele><time>2026-04-26T12:05:23.905Z</time></trkpt><trkpt lat="45.5458748" lon="10.7958409"><ele>176.25</ele><time>2026-04-26T12:05:24.905Z</time></trkpt><trkpt lat="45.5459034" lon="10.7956214"><ele>177.0</ele><time>2026-04-26T12:05:25.905Z</time></trkpt><trkpt lat="45.5459375" lon="10.795416"><ele>177.33333333333334</ele><time>2026-04-26T12:05:26.905Z</time></trkpt><trkpt lat="45.5459735" lon="10.7952125"><ele>177.66666666666669</ele><time>2026-04-26T12:05:27.905Z</time></trkpt><trkpt lat="45.5460095" lon="10.7950032"><ele>178.0</ele><time>2026-04-26T12:05:28.904Z</time></trkpt><trkpt lat="45.5460431" lon="10.7947715"><ele>178.66666666666669</ele><time>2026-04-26T12:05:29.904Z</time></trkpt><trkpt lat="45.5460776" lon="10.7945344"><ele>179.33333333333334</ele><time>2026-04-26T12:05:30.905Z</time></trkpt><trkpt lat="45.5461096" lon="10.7943084"><ele>180.0</ele><time>2026-04-26T12:05:31.905Z</time></trkpt><trkpt lat="45.5461421" lon="10.7940871"><ele>180.5</ele><time>2026-04-26T12:05:32.905Z</time></trkpt><trkpt lat="45.5461743" lon="10.7938904"><ele>181.0</ele><time>2026-04-26T12:05:33.904Z</time></trkpt><trkpt lat="45.5462044" lon="10.7937097"><ele>181.5</ele><time>2026-04-26T12:05:34.904Z</time></trkpt><trkpt lat="45.546231" lon="10.7935481"><ele>182.0</ele><time>2026-04-26T12:05:35.905Z</time></trkpt><trkpt lat="45.5462521" lon="10.7934078"><ele>182.0</ele><time>2026-04-26T12:05:36.905Z</time></trkpt><trkpt lat="45.5462707" lon="10.7932877"><ele>182.0</ele><time>2026-04-26T12:05:37.904Z</time></trkpt><trkpt lat="45.5462896" lon="10.7931902"><ele>182.0</ele><time>2026-04-26T12:05:38.905Z</time></trkpt><trkpt lat="45.5463697" lon="10.7930906"><ele>182.0</ele><time>2026-04-26T12:05:40.905Z</time></trkpt><trkpt lat="45.5465126" lon="10.7930941"><ele>182.0</ele><time>2026-04-26T12:05:42.905Z</time></trkpt><trkpt lat="45.5466154" lon="10.7931366"><ele>182.0</ele><time>2026-04-26T12:05:43.905Z</time></trkpt><trkpt lat="45.546728" lon="10.7932001"><ele>182.0</ele><time>2026-04-26T12:05:44.904Z</time></trkpt><trkpt lat="45.5468644" lon="10.7932694"><ele>182.0</ele><time>2026-04-26T12:05:45.905Z</time></trkpt><trkpt lat="45.5470105" lon="10.793336"><ele>182.0</ele><time>2026-04-26T12:05:46.904Z</time></trkpt><trkpt lat="45.5471447" lon="10.7934061"><ele>182.0</ele><time>2026-04-26T12:05:47.904Z</time></trkpt><trkpt lat="45.5472534" lon="10.7934594"><ele>182.0</ele><time>2026-04-26T12:05:48.905Z</time></trkpt><trkpt lat="45.5473388" lon="10.7934892"><ele>182.0</ele><time>2026-04-26T12:05:49.905Z</time></trkpt><trkpt lat="45.5474018" lon="10.7934852"><ele>182.0</ele><time>2026-04-26T12:05:50.905Z</time></trkpt><trkpt lat="45.5474925" lon="10.7933483"><ele>182.0</ele><time>2026-04-26T12:05:52.905Z</time></trkpt><trkpt lat="45.547519" lon="10.7931888"><ele>182.0</ele><time>2026-04-26T12:05:53.905Z</time></trkpt><trkpt lat="45.5475457" lon="10.7929927"><ele>182.0</ele><time>2026-04-26T12:05:54.905Z</time></trkpt><trkpt lat="45.5475825" lon="10.7927637"><ele>182.0</ele><time>2026-04-26T12:05:55.905Z</time></trkpt><trkpt lat="45.5476149" lon="10.7925997"><ele>182.0</ele><time>2026-04-26T12:05:56.904Z</time></trkpt><trkpt lat="45.5476468" lon="10.7924797"><ele>181.8</ele><time>2026-04-26T12:05:57.904Z</time></trkpt><trkpt lat="45.5476887" lon="10.7924064"><ele>181.6</ele><time>2026-04-26T12:05:58.905Z</time></trkpt><trkpt lat="45.5478255" lon="10.7923816"><ele>181.4</ele><time>2026-04-26T12:06:00.905Z</time></trkpt><trkpt lat="45.5478943" lon="10.7924217"><ele>181.20000000000002</ele><time>2026-04-26T12:06:01.905Z</time></trkpt><trkpt lat="45.5479667" lon="10.7925076"><ele>181.0</ele><time>2026-04-26T12:06:02.904Z</time></trkpt><trkpt lat="45.5480676" lon="10.7926239"><ele>181.5</ele><time>2026-04-26T12:06:03.905Z</time></trkpt><trkpt lat="45.5481993" lon="10.7927213"><ele>182.0</ele><time>2026-04-26T12:06:04.904Z</time></trkpt><trkpt lat="45.5483321" lon="10.7927897"><ele>182.5</ele><time>2026-04-26T12:06:05.905Z</time></trkpt><trkpt lat="45.5484778" lon="10.7928331"><ele>183.0</ele><time>2026-04-26T12:06:06.905Z</time></trkpt><trkpt lat="45.5486472" lon="10.7928451"><ele>184.33333333333334</ele><time>2026-04-26T12:06:07.905Z</time></trkpt><trkpt lat="45.5488316" lon="10.7928244"><ele>185.66666666666669</ele><time>2026-04-26T12:06:08.905Z</time></trkpt><trkpt lat="45.5489858" lon="10.7928081"><ele>187.0</ele><time>2026-04-26T12:06:09.904Z</time></trkpt><trkpt lat="45.5491062" lon="10.7927718"><ele>187.0</ele><time>2026-04-26T12:06:10.905Z</time></trkpt><trkpt lat="45.5492318" lon="10.7927193"><ele>187.0</ele><time>2026-04-26T12:06:11.904Z</time></trkpt><trkpt lat="45.549355" lon="10.7927001"><ele>187.0</ele><time>2026-04-26T12:06:12.905Z</time></trkpt><trkpt lat="45.5494673" lon="10.792706"><ele>187.0</ele><time>2026-04-26T12:06:13.904Z</time></trkpt><trkpt lat="45.5495756" lon="10.7927393"><ele>186.8</ele><time>2026-04-26T12:06:14.904Z</time></trkpt><trkpt lat="45.5496518" lon="10.792786"><ele>186.6</ele><time>2026-04-26T12:06:15.904Z</time></trkpt><trkpt lat="45.5497235" lon="10.7928271"><ele>186.4</ele><time>2026-04-26T12:06:16.905Z</time></trkpt><trkpt lat="45.5498115" lon="10.7928809"><ele>186.20000000000002</ele><time>2026-04-26T12:06:17.905Z</time></trkpt><trkpt lat="45.5499051" lon="10.7929735"><ele>186.0</ele><time>2026-04-26T12:06:18.905Z</time></trkpt><trkpt lat="45.5500163" lon="10.7930807"><ele>186.0</ele><time>2026-04-26T12:06:19.904Z</time></trkpt><trkpt lat="45.5501161" lon="10.7931971"><ele>186.0</ele><time>2026-04-26T12:06:20.905Z</time></trkpt><trkpt lat="45.5502161" lon="10.7933449"><ele>186.0</ele><time>2026-04-26T12:06:21.905Z</time></trkpt><trkpt lat="45.5503199" lon="10.7935119"><ele>186.0</ele><time>2026-04-26T12:06:22.905Z</time></trkpt><trkpt lat="45.5504297" lon="10.7937107"><ele>186.0</ele><time>2026-04-26T12:06:23.905Z</time></trkpt><trkpt lat="45.5505331" lon="10.7938935"><ele>186.0</ele><time>2026-04-26T12:06:24.904Z</time></trkpt><trkpt lat="45.5506318" lon="10.7940651"><ele>186.0</ele><time>2026-04-26T12:06:25.905Z</time></trkpt><trkpt lat="45.5507106" lon="10.7942115"><ele>186.0</ele><time>2026-04-26T12:06:26.905Z</time></trkpt><trkpt lat="45.5507684" lon="10.7943431"><ele>186.0</ele><time>2026-04-26T12:06:27.905Z</time></trkpt><trkpt lat="45.5508043" lon="10.7944625"><ele>186.0</ele><time>2026-04-26T12:06:28.905Z</time></trkpt><trkpt lat="45.550814" lon="10.7945734"><ele>186.0</ele><time>2026-04-26T12:06:29.904Z</time></trkpt><trkpt lat="45.5507952" lon="10.7947185"><ele>186.0</ele><time>2026-04-26T12:06:30.905Z</time></trkpt><trkpt lat="45.5507892" lon="10.7949074"><ele>186.0</ele><time>2026-04-26T12:06:31.904Z</time></trkpt><trkpt lat="45.5507902" lon="10.7951204"><ele>186.0</ele><time>2026-04-26T12:06:32.905Z</time></trkpt><trkpt lat="45.550788" lon="10.7953379"><ele>186.0</ele><time>2026-04-26T12:06:33.905Z</time></trkpt><trkpt lat="45.5507832" lon="10.7955595"><ele>186.0</ele><time>2026-04-26T12:06:34.905Z</time></trkpt><trkpt lat="45.5507838" lon="10.7957853"><ele>186.0</ele><time>2026-04-26T12:06:35.905Z</time></trkpt><trkpt lat="45.5507929" lon="10.7960097"><ele>186.0</ele><time>2026-04-26T12:06:36.904Z</time></trkpt><trkpt lat="45.5508026" lon="10.7962207"><ele>186.0</ele><time>2026-04-26T12:06:37.904Z</time></trkpt><trkpt lat="45.5508091" lon="10.7964114"><ele>186.0</ele><time>2026-04-26T12:06:38.904Z</time></trkpt><trkpt lat="45.5508208" lon="10.79658"><ele>186.0</ele><time>2026-04-26T12:06:39.904Z</time></trkpt><trkpt lat="45.5508336" lon="10.7967164"><ele>186.0</ele><time>2026-04-26T12:06:40.904Z</time></trkpt><trkpt lat="45.5508446" lon="10.7968264"><ele>186.0</ele><time>2026-04-26T12:06:41.904Z</time></trkpt><trkpt lat="45.5508506" lon="10.7969772"><ele>186.0</ele><time>2026-04-26T12:06:43.904Z</time></trkpt><trkpt lat="45.5508446" lon="10.7971137"><ele>186.0</ele><time>2026-04-26T12:06:45.904Z</time></trkpt><trkpt lat="45.5508413" lon="10.7972457"><ele>186.0</ele><time>2026-04-26T12:06:47.904Z</time></trkpt><trkpt lat="45.5508347" lon="10.7973893"><ele>186.0</ele><time>2026-04-26T12:06:49.903Z</time></trkpt><trkpt lat="45.5508332" lon="10.7975278"><ele>186.0</ele><time>2026-04-26T12:06:51.905Z</time></trkpt><trkpt lat="45.5508225" lon="10.7976562"><ele>186.0</ele><time>2026-04-26T12:06:53.904Z</time></trkpt><trkpt lat="45.5508252" lon="10.7977974"><ele>186.0</ele><time>2026-04-26T12:06:55.904Z</time></trkpt><trkpt lat="45.5508276" lon="10.7979055"><ele>186.0</ele><time>2026-04-26T12:06:56.904Z</time></trkpt><trkpt lat="45.5508168" lon="10.798053"><ele>186.0</ele><time>2026-04-26T12:06:57.904Z</time></trkpt><trkpt lat="45.5508004" lon="10.7982241"><ele>186.0</ele><time>2026-04-26T12:06:58.904Z</time></trkpt><trkpt lat="45.5507836" lon="10.798421"><ele>186.0</ele><time>2026-04-26T12:06:59.904Z</time></trkpt><trkpt lat="45.5507779" lon="10.7986325"><ele>185.66666666666666</ele><time>2026-04-26T12:07:00.903Z</time></trkpt><trkpt lat="45.550776" lon="10.7988518"><ele>185.33333333333331</ele><time>2026-04-26T12:07:01.904Z</time></trkpt><trkpt lat="45.5507715" lon="10.7990773"><ele>185.0</ele><time>2026-04-26T12:07:02.903Z</time></trkpt><trkpt lat="45.5507725" lon="10.7993075"><ele>184.66666666666666</ele><time>2026-04-26T12:07:03.904Z</time></trkpt><trkpt lat="45.5507803" lon="10.7995371"><ele>184.33333333333334</ele><time>2026-04-26T12:07:04.903Z</time></trkpt><trkpt lat="45.5507894" lon="10.7997712"><ele>184.0</ele><time>2026-04-26T12:07:05.903Z</time></trkpt><trkpt lat="45.5507986" lon="10.8000032"><ele>182.66666666666669</ele><time>2026-04-26T12:07:06.904Z</time></trkpt><trkpt lat="45.550808" lon="10.8002325"><ele>181.33333333333334</ele><time>2026-04-26T12:07:07.904Z</time></trkpt><trkpt lat="45.550821" lon="10.8004595"><ele>180.0</ele><time>2026-04-26T12:07:08.903Z</time></trkpt><trkpt lat="45.5508407" lon="10.8006724"><ele>180.0</ele><time>2026-04-26T12:07:09.903Z</time></trkpt><trkpt lat="45.5508582" lon="10.800864"><ele>180.0</ele><time>2026-04-26T12:07:10.904Z</time></trkpt><trkpt lat="45.5508754" lon="10.8010404"><ele>180.0</ele><time>2026-04-26T12:07:11.904Z</time></trkpt><trkpt lat="45.5508883" lon="10.8012046"><ele>180.0</ele><time>2026-04-26T12:07:12.904Z</time></trkpt><trkpt lat="45.5508932" lon="10.8013604"><ele>179.5</ele><time>2026-04-26T12:07:13.904Z</time></trkpt><trkpt lat="45.5508886" lon="10.8015101"><ele>179.0</ele><time>2026-04-26T12:07:14.903Z</time></trkpt><trkpt lat="45.5508761" lon="10.801647"><ele>178.5</ele><time>2026-04-26T12:07:15.904Z</time></trkpt><trkpt lat="45.5508643" lon="10.801764"><ele>178.0</ele><time>2026-04-26T12:07:16.904Z</time></trkpt><trkpt lat="45.5508578" lon="10.8018555"><ele>177.5</ele><time>2026-04-26T12:07:17.903Z</time></trkpt><trkpt lat="45.5508508" lon="10.8019734"><ele>177.0</ele><time>2026-04-26T12:07:19.904Z</time></trkpt><trkpt lat="45.5508402" lon="10.8020942"><ele>177.0</ele><time>2026-04-26T12:07:26.904Z</time></trkpt><trkpt lat="45.5508203" lon="10.8022805"><ele>177.0</ele><time>2026-04-26T12:07:28.903Z</time></trkpt><trkpt lat="45.5508058" lon="10.8024188"><ele>177.0</ele><time>2026-04-26T12:07:29.903Z</time></trkpt><trkpt lat="45.550787" lon="10.8025881"><ele>177.0</ele><time>2026-04-26T12:07:30.904Z</time></trkpt><trkpt lat="45.5507515" lon="10.8027681"><ele>176.0</ele><time>2026-04-26T12:07:31.903Z</time></trkpt><trkpt lat="45.5507035" lon="10.8029448"><ele>175.0</ele><time>2026-04-26T12:07:32.904Z</time></trkpt><trkpt lat="45.5506392" lon="10.80311"><ele>174.0</ele><time>2026-04-26T12:07:33.903Z</time></trkpt><trkpt lat="45.550567" lon="10.8032613"><ele>173.0</ele><time>2026-04-26T12:07:34.904Z</time></trkpt><trkpt lat="45.5504936" lon="10.8033916"><ele>172.66666666666666</ele><time>2026-04-26T12:07:35.904Z</time></trkpt><trkpt lat="45.5504318" lon="10.8035044"><ele>172.33333333333331</ele><time>2026-04-26T12:07:36.904Z</time></trkpt><trkpt lat="45.55039" lon="10.8036075"><ele>172.0</ele><time>2026-04-26T12:07:37.903Z</time></trkpt><trkpt lat="45.5503761" lon="10.8037005"><ele>171.66666666666666</ele><time>2026-04-26T12:07:38.903Z</time></trkpt><trkpt lat="45.550436" lon="10.8038462"><ele>171.33333333333334</ele><time>2026-04-26T12:07:40.904Z</time></trkpt><trkpt lat="45.5504932" lon="10.8039029"><ele>171.0</ele><time>2026-04-26T12:07:41.903Z</time></trkpt><trkpt lat="45.5505657" lon="10.8039435"><ele>171.0</ele><time>2026-04-26T12:07:42.904Z</time></trkpt><trkpt lat="45.5506479" lon="10.8039758"><ele>171.0</ele><time>2026-04-26T12:07:43.904Z</time></trkpt><trkpt lat="45.5507421" lon="10.8039894"><ele>171.0</ele><time>2026-04-26T12:07:44.904Z</time></trkpt><trkpt lat="45.5508425" lon="10.8039901"><ele>171.0</ele><time>2026-04-26T12:07:45.904Z</time></trkpt><trkpt lat="45.5509515" lon="10.8039832"><ele>171.0</ele><time>2026-04-26T12:07:46.904Z</time></trkpt><trkpt lat="45.5510739" lon="10.803973"><ele>171.0</ele><time>2026-04-26T12:07:47.904Z</time></trkpt><trkpt lat="45.5512067" lon="10.8039641"><ele>171.0</ele><time>2026-04-26T12:07:48.904Z</time></trkpt><trkpt lat="45.5513527" lon="10.8039593"><ele>171.0</ele><time>2026-04-26T12:07:49.904Z</time></trkpt><trkpt lat="45.5515254" lon="10.8039388"><ele>171.33333333333334</ele><time>2026-04-26T12:07:50.904Z</time></trkpt><trkpt lat="45.5517198" lon="10.8039153"><ele>171.66666666666669</ele><time>2026-04-26T12:07:51.903Z</time></trkpt><trkpt lat="45.5519215" lon="10.8039092"><ele>172.0</ele><time>2026-04-26T12:07:52.903Z</time></trkpt><trkpt lat="45.5521192" lon="10.8039088"><ele>172.0</ele><time>2026-04-26T12:07:53.904Z</time></trkpt><trkpt lat="45.5523164" lon="10.8038918"><ele>172.0</ele><time>2026-04-26T12:07:54.904Z</time></trkpt><trkpt lat="45.5525106" lon="10.8038656"><ele>172.0</ele><time>2026-04-26T12:07:55.904Z</time></trkpt><trkpt lat="45.5527017" lon="10.8038301"><ele>173.0</ele><time>2026-04-26T12:07:56.903Z</time></trkpt><trkpt lat="45.5528893" lon="10.8037943"><ele>174.0</ele><time>2026-04-26T12:07:57.904Z</time></trkpt><trkpt lat="45.5530704" lon="10.8037592"><ele>175.0</ele><time>2026-04-26T12:07:58.903Z</time></trkpt><trkpt lat="45.5532479" lon="10.803724"><ele>175.0</ele><time>2026-04-26T12:07:59.904Z</time></trkpt><trkpt lat="45.5534222" lon="10.8036893"><ele>175.0</ele><time>2026-04-26T12:08:00.903Z</time></trkpt><trkpt lat="45.5535917" lon="10.8036575"><ele>175.0</ele><time>2026-04-26T12:08:01.904Z</time></trkpt><trkpt lat="45.5537596" lon="10.8036289"><ele>175.0</ele><time>2026-04-26T12:08:02.903Z</time></trkpt><trkpt lat="45.5539234" lon="10.8036071"><ele>175.0</ele><time>2026-04-26T12:08:03.904Z</time></trkpt><trkpt lat="45.5540853" lon="10.8036012"><ele>175.0</ele><time>2026-04-26T12:08:04.903Z</time></trkpt><trkpt lat="45.5542475" lon="10.8036055"><ele>175.0</ele><time>2026-04-26T12:08:05.904Z</time></trkpt><trkpt lat="45.5544066" lon="10.8036191"><ele>175.0</ele><time>2026-04-26T12:08:06.904Z</time></trkpt><trkpt lat="45.5545668" lon="10.803637"><ele>175.0</ele><time>2026-04-26T12:08:07.904Z</time></trkpt><trkpt lat="45.5547276" lon="10.8036454"><ele>176.0</ele><time>2026-04-26T12:08:08.904Z</time></trkpt><trkpt lat="45.5548912" lon="10.8036411"><ele>177.0</ele><time>2026-04-26T12:08:09.904Z</time></trkpt><trkpt lat="45.5550537" lon="10.8036125"><ele>178.0</ele><time>2026-04-26T12:08:10.904Z</time></trkpt><trkpt lat="45.5552129" lon="10.8035595"><ele>178.0</ele><time>2026-04-26T12:08:11.903Z</time></trkpt><trkpt lat="45.5553672" lon="10.8034805"><ele>178.0</ele><time>2026-04-26T12:08:12.903Z</time></trkpt><trkpt lat="45.5555139" lon="10.8033864"><ele>178.0</ele><time>2026-04-26T12:08:13.904Z</time></trkpt><trkpt lat="45.5556534" lon="10.8032798"><ele>178.0</ele><time>2026-04-26T12:08:14.904Z</time></trkpt><trkpt lat="45.5557902" lon="10.8031637"><ele>178.0</ele><time>2026-04-26T12:08:15.904Z</time></trkpt><trkpt lat="45.5559264" lon="10.8030425"><ele>178.0</ele><time>2026-04-26T12:08:16.904Z</time></trkpt><trkpt lat="45.5560619" lon="10.8029223"><ele>178.0</ele><time>2026-04-26T12:08:17.904Z</time></trkpt><trkpt lat="45.5561961" lon="10.8028"><ele>178.0</ele><time>2026-04-26T12:08:18.904Z</time></trkpt><trkpt lat="45.5563287" lon="10.8026745"><ele>178.0</ele><time>2026-04-26T12:08:19.904Z</time></trkpt><trkpt lat="45.5564603" lon="10.8025524"><ele>178.66666666666669</ele><time>2026-04-26T12:08:20.904Z</time></trkpt><trkpt lat="45.5565918" lon="10.8024295"><ele>179.33333333333334</ele><time>2026-04-26T12:08:21.904Z</time></trkpt><trkpt lat="45.5567238" lon="10.8023091"><ele>180.0</ele><time>2026-04-26T12:08:22.904Z</time></trkpt><trkpt lat="45.5568588" lon="10.8021853"><ele>180.0</ele><time>2026-04-26T12:08:23.904Z</time></trkpt><trkpt lat="45.5569919" lon="10.8020657"><ele>180.0</ele><time>2026-04-26T12:08:24.904Z</time></trkpt><trkpt lat="45.5571259" lon="10.8019455"><ele>180.0</ele><time>2026-04-26T12:08:25.904Z</time></trkpt><trkpt lat="45.5572596" lon="10.8018198"><ele>181.0</ele><time>2026-04-26T12:08:26.903Z</time></trkpt><trkpt lat="45.5573912" lon="10.8016931"><ele>182.0</ele><time>2026-04-26T12:08:27.904Z</time></trkpt><trkpt lat="45.5575255" lon="10.8015691"><ele>183.0</ele><time>2026-04-26T12:08:28.904Z</time></trkpt><trkpt lat="45.5576647" lon="10.8014572"><ele>183.0</ele><time>2026-04-26T12:08:29.904Z</time></trkpt><trkpt lat="45.557806" lon="10.8013516"><ele>183.0</ele><time>2026-04-26T12:08:30.904Z</time></trkpt><trkpt lat="45.557949" lon="10.8012466"><ele>183.0</ele><time>2026-04-26T12:08:31.904Z</time></trkpt><trkpt lat="45.5580943" lon="10.8011417"><ele>183.66666666666666</ele><time>2026-04-26T12:08:32.904Z</time></trkpt><trkpt lat="45.5582339" lon="10.801033"><ele>184.33333333333331</ele><time>2026-04-26T12:08:33.904Z</time></trkpt><trkpt lat="45.5583707" lon="10.8009151"><ele>185.0</ele><time>2026-04-26T12:08:34.904Z</time></trkpt><trkpt lat="45.5585011" lon="10.8007851"><ele>185.0</ele><time>2026-04-26T12:08:35.904Z</time></trkpt><trkpt lat="45.558625" lon="10.8006434"><ele>185.0</ele><time>2026-04-26T12:08:36.903Z</time></trkpt><trkpt lat="45.558747" lon="10.8004976"><ele>185.0</ele><time>2026-04-26T12:08:37.903Z</time></trkpt><trkpt lat="45.5588802" lon="10.8003477"><ele>185.0</ele><time>2026-04-26T12:08:38.904Z</time></trkpt><trkpt lat="45.559011" lon="10.8002063"><ele>185.0</ele><time>2026-04-26T12:08:39.904Z</time></trkpt><trkpt lat="45.5591432" lon="10.8000891"><ele>185.0</ele><time>2026-04-26T12:08:40.904Z</time></trkpt><trkpt lat="45.5592902" lon="10.7999947"><ele>185.0</ele><time>2026-04-26T12:08:41.904Z</time></trkpt><trkpt lat="45.5594472" lon="10.7999279"><ele>185.0</ele><time>2026-04-26T12:08:42.904Z</time></trkpt><trkpt lat="45.5596088" lon="10.7998956"><ele>185.0</ele><time>2026-04-26T12:08:43.903Z</time></trkpt><trkpt lat="45.5597709" lon="10.7998979"><ele>185.33333333333331</ele><time>2026-04-26T12:08:44.903Z</time></trkpt><trkpt lat="45.5599347" lon="10.7999206"><ele>185.66666666666666</ele><time>2026-04-26T12:08:45.904Z</time></trkpt><trkpt lat="45.5600982" lon="10.7999414"><ele>186.0</ele><time>2026-04-26T12:08:46.904Z</time></trkpt><trkpt lat="45.5602588" lon="10.7999622"><ele>185.66666666666666</ele><time>2026-04-26T12:08:47.904Z</time></trkpt><trkpt lat="45.5604191" lon="10.7999799"><ele>185.33333333333331</ele><time>2026-04-26T12:08:48.904Z</time></trkpt><trkpt lat="45.5605817" lon="10.7999939"><ele>185.0</ele><time>2026-04-26T12:08:49.904Z</time></trkpt><trkpt lat="45.5607414" lon="10.8000114"><ele>185.0</ele><time>2026-04-26T12:08:50.904Z</time></trkpt><trkpt lat="45.5609017" lon="10.8000268"><ele>185.0</ele><time>2026-04-26T12:08:51.904Z</time></trkpt><trkpt lat="45.5610617" lon="10.8000425"><ele>185.0</ele><time>2026-04-26T12:08:52.903Z</time></trkpt><trkpt lat="45.5612232" lon="10.8000619"><ele>185.33333333333331</ele><time>2026-04-26T12:08:53.904Z</time></trkpt><trkpt lat="45.5613856" lon="10.8000784"><ele>185.66666666666666</ele><time>2026-04-26T12:08:54.903Z</time></trkpt><trkpt lat="45.5615492" lon="10.8000983"><ele>186.0</ele><time>2026-04-26T12:08:55.904Z</time></trkpt><trkpt lat="45.561712" lon="10.8001203"><ele>186.0</ele><time>2026-04-26T12:08:56.904Z</time></trkpt><trkpt lat="45.5618766" lon="10.8001417"><ele>186.0</ele><time>2026-04-26T12:08:57.904Z</time></trkpt><trkpt lat="45.5620403" lon="10.8001664"><ele>186.0</ele><time>2026-04-26T12:08:58.903Z</time></trkpt><trkpt lat="45.5622037" lon="10.8001932"><ele>186.66666666666666</ele><time>2026-04-26T12:08:59.904Z</time></trkpt><trkpt lat="45.5623656" lon="10.8002269"><ele>187.33333333333331</ele><time>2026-04-26T12:09:00.904Z</time></trkpt><trkpt lat="45.5625264" lon="10.8002676"><ele>188.0</ele><time>2026-04-26T12:09:01.904Z</time></trkpt><trkpt lat="45.5626868" lon="10.8003131"><ele>188.0</ele><time>2026-04-26T12:09:02.903Z</time></trkpt><trkpt lat="45.562844" lon="10.8003639"><ele>188.0</ele><time>2026-04-26T12:09:03.904Z</time></trkpt><trkpt lat="45.5630036" lon="10.8004191"><ele>188.0</ele><time>2026-04-26T12:09:04.904Z</time></trkpt><trkpt lat="45.5631592" lon="10.8004855"><ele>189.0</ele><time>2026-04-26T12:09:05.903Z</time></trkpt><trkpt lat="45.5633121" lon="10.8005652"><ele>190.0</ele><time>2026-04-26T12:09:06.904Z</time></trkpt><trkpt lat="45.5634612" lon="10.8006561"><ele>191.0</ele><time>2026-04-26T12:09:07.903Z</time></trkpt><trkpt lat="45.5636054" lon="10.8007627"><ele>191.0</ele><time>2026-04-26T12:09:08.904Z</time></trkpt><trkpt lat="45.5637432" lon="10.8008799"><ele>191.0</ele><time>2026-04-26T12:09:09.903Z</time></trkpt><trkpt lat="45.5638805" lon="10.8010021"><ele>191.0</ele><time>2026-04-26T12:09:10.904Z</time></trkpt><trkpt lat="45.564021" lon="10.8011206"><ele>190.33333333333331</ele><time>2026-04-26T12:09:11.904Z</time></trkpt><trkpt lat="45.5641605" lon="10.8012411"><ele>189.66666666666666</ele><time>2026-04-26T12:09:12.903Z</time></trkpt><trkpt lat="45.5643037" lon="10.8013587"><ele>189.0</ele><time>2026-04-26T12:09:13.903Z</time></trkpt><trkpt lat="45.5644474" lon="10.8014725"><ele>189.66666666666666</ele><time>2026-04-26T12:09:14.904Z</time></trkpt><trkpt lat="45.5645943" lon="10.8015824"><ele>190.33333333333331</ele><time>2026-04-26T12:09:15.904Z</time></trkpt><trkpt lat="45.5647477" lon="10.8016774"><ele>191.0</ele><time>2026-04-26T12:09:16.903Z</time></trkpt><trkpt lat="45.5649058" lon="10.8017551"><ele>191.0</ele><time>2026-04-26T12:09:17.904Z</time></trkpt><trkpt lat="45.565067" lon="10.8018146"><ele>191.0</ele><time>2026-04-26T12:09:18.904Z</time></trkpt><trkpt lat="45.5652286" lon="10.8018625"><ele>191.0</ele><time>2026-04-26T12:09:19.904Z</time></trkpt><trkpt lat="45.5653903" lon="10.8018997"><ele>191.0</ele><time>2026-04-26T12:09:20.904Z</time></trkpt><trkpt lat="45.565555" lon="10.8019313"><ele>191.0</ele><time>2026-04-26T12:09:21.904Z</time></trkpt><trkpt lat="45.5657199" lon="10.8019658"><ele>191.0</ele><time>2026-04-26T12:09:22.904Z</time></trkpt><trkpt lat="45.5658822" lon="10.8020101"><ele>191.0</ele><time>2026-04-26T12:09:23.903Z</time></trkpt><trkpt lat="45.5660432" lon="10.8020549"><ele>191.0</ele><time>2026-04-26T12:09:24.904Z</time></trkpt><trkpt lat="45.5662066" lon="10.8020926"><ele>191.0</ele><time>2026-04-26T12:09:25.903Z</time></trkpt><trkpt lat="45.566367" lon="10.8021334"><ele>190.66666666666666</ele><time>2026-04-26T12:09:26.904Z</time></trkpt><trkpt lat="45.5665274" lon="10.8021752"><ele>190.33333333333334</ele><time>2026-04-26T12:09:27.904Z</time></trkpt><trkpt lat="45.5666849" lon="10.8022126"><ele>190.0</ele><time>2026-04-26T12:09:28.904Z</time></trkpt><trkpt lat="45.5668436" lon="10.8022388"><ele>190.0</ele><time>2026-04-26T12:09:29.904Z</time></trkpt><trkpt lat="45.5670049" lon="10.8022519"><ele>190.0</ele><time>2026-04-26T12:09:30.903Z</time></trkpt><trkpt lat="45.5671659" lon="10.8022604"><ele>190.0</ele><time>2026-04-26T12:09:31.903Z</time></trkpt><trkpt lat="45.5673279" lon="10.8022609"><ele>190.66666666666669</ele><time>2026-04-26T12:09:32.904Z</time></trkpt><trkpt lat="45.5674878" lon="10.8022577"><ele>191.33333333333334</ele><time>2026-04-26T12:09:33.904Z</time></trkpt><trkpt lat="45.5676468" lon="10.8022474"><ele>192.0</ele><time>2026-04-26T12:09:34.904Z</time></trkpt><trkpt lat="45.5678034" lon="10.8022279"><ele>191.66666666666666</ele><time>2026-04-26T12:09:35.904Z</time></trkpt><trkpt lat="45.5679588" lon="10.8022046"><ele>191.33333333333331</ele><time>2026-04-26T12:09:36.904Z</time></trkpt><trkpt lat="45.5681121" lon="10.8021787"><ele>191.0</ele><time>2026-04-26T12:09:37.904Z</time></trkpt><trkpt lat="45.5682655" lon="10.8021536"><ele>191.0</ele><time>2026-04-26T12:09:38.904Z</time></trkpt><trkpt lat="45.56841" lon="10.8021376"><ele>191.0</ele><time>2026-04-26T12:09:39.904Z</time></trkpt><trkpt lat="45.5685456" lon="10.8021275"><ele>191.0</ele><time>2026-04-26T12:09:40.904Z</time></trkpt><trkpt lat="45.5686767" lon="10.802122"><ele>191.0</ele><time>2026-04-26T12:09:41.904Z</time></trkpt><trkpt lat="45.5688048" lon="10.8021207"><ele>191.60000000000002</ele><time>2026-04-26T12:09:42.903Z</time></trkpt><trkpt lat="45.5689271" lon="10.8021276"><ele>192.2</ele><time>2026-04-26T12:09:43.904Z</time></trkpt><trkpt lat="45.5690439" lon="10.8021403"><ele>192.8</ele><time>2026-04-26T12:09:44.904Z</time></trkpt><trkpt lat="45.5691498" lon="10.8021497"><ele>193.39999999999998</ele><time>2026-04-26T12:09:45.904Z</time></trkpt><trkpt lat="45.5692442" lon="10.8021392"><ele>194.0</ele><time>2026-04-26T12:09:46.904Z</time></trkpt><trkpt lat="45.5693193" lon="10.8020887"><ele>194.0</ele><time>2026-04-26T12:09:47.902Z</time></trkpt><trkpt lat="45.5693876" lon="10.8019676"><ele>194.0</ele><time>2026-04-26T12:09:48.904Z</time></trkpt><trkpt lat="45.5694375" lon="10.8018207"><ele>194.0</ele><time>2026-04-26T12:09:49.903Z</time></trkpt><trkpt lat="45.5694772" lon="10.80165"><ele>194.0</ele><time>2026-04-26T12:09:50.904Z</time></trkpt><trkpt lat="45.5695179" lon="10.8014727"><ele>193.33333333333334</ele><time>2026-04-26T12:09:51.904Z</time></trkpt><trkpt lat="45.569567" lon="10.8012765"><ele>192.66666666666669</ele><time>2026-04-26T12:09:52.904Z</time></trkpt><trkpt lat="45.5696272" lon="10.8010644"><ele>192.0</ele><time>2026-04-26T12:09:53.904Z</time></trkpt><trkpt lat="45.5696886" lon="10.800833"><ele>192.0</ele><time>2026-04-26T12:09:54.904Z</time></trkpt><trkpt lat="45.569739" lon="10.8006262"><ele>192.0</ele><time>2026-04-26T12:09:55.903Z</time></trkpt><trkpt lat="45.5697901" lon="10.8004302"><ele>192.0</ele><time>2026-04-26T12:09:56.904Z</time></trkpt><trkpt lat="45.5698417" lon="10.8002733"><ele>192.0</ele><time>2026-04-26T12:09:57.903Z</time></trkpt><trkpt lat="45.5698954" lon="10.8001613"><ele>192.39999999999998</ele><time>2026-04-26T12:09:58.903Z</time></trkpt><trkpt lat="45.5699512" lon="10.8000931"><ele>192.79999999999998</ele><time>2026-04-26T12:09:59.904Z</time></trkpt><trkpt lat="45.570023" lon="10.8000478"><ele>193.2</ele><time>2026-04-26T12:10:00.903Z</time></trkpt><trkpt lat="45.5701143" lon="10.8000204"><ele>193.6</ele><time>2026-04-26T12:10:01.903Z</time></trkpt><trkpt lat="45.5702124" lon="10.7999955"><ele>194.0</ele><time>2026-04-26T12:10:02.903Z</time></trkpt><trkpt lat="45.5703219" lon="10.7999653"><ele>194.75</ele><time>2026-04-26T12:10:03.903Z</time></trkpt><trkpt lat="45.5704437" lon="10.7999328"><ele>195.5</ele><time>2026-04-26T12:10:04.904Z</time></trkpt><trkpt lat="45.5705667" lon="10.7998874"><ele>196.25</ele><time>2026-04-26T12:10:05.904Z</time></trkpt><trkpt lat="45.5706785" lon="10.7998072"><ele>197.0</ele><time>2026-04-26T12:10:06.903Z</time></trkpt><trkpt lat="45.5707927" lon="10.7997013"><ele>197.0</ele><time>2026-04-26T12:10:07.904Z</time></trkpt><trkpt lat="45.5709167" lon="10.7996107"><ele>197.0</ele><time>2026-04-26T12:10:08.904Z</time></trkpt><trkpt lat="45.5710425" lon="10.799541"><ele>197.0</ele><time>2026-04-26T12:10:09.904Z</time></trkpt><trkpt lat="45.5711658" lon="10.7994631"><ele>197.0</ele><time>2026-04-26T12:10:10.904Z</time></trkpt><trkpt lat="45.5712924" lon="10.7993718"><ele>198.0</ele><time>2026-04-26T12:10:11.904Z</time></trkpt><trkpt lat="45.5714225" lon="10.7992748"><ele>199.0</ele><time>2026-04-26T12:10:12.903Z</time></trkpt><trkpt lat="45.571555" lon="10.7991736"><ele>200.0</ele><time>2026-04-26T12:10:13.904Z</time></trkpt><trkpt lat="45.5716903" lon="10.7990747"><ele>201.0</ele><time>2026-04-26T12:10:14.904Z</time></trkpt><trkpt lat="45.5718218" lon="10.7989746"><ele>201.0</ele><time>2026-04-26T12:10:15.903Z</time></trkpt><trkpt lat="45.5719433" lon="10.7988879"><ele>201.0</ele><time>2026-04-26T12:10:16.903Z</time></trkpt><trkpt lat="45.5720525" lon="10.7988094"><ele>201.0</ele><time>2026-04-26T12:10:17.903Z</time></trkpt><trkpt lat="45.5721501" lon="10.7987154"><ele>201.0</ele><time>2026-04-26T12:10:18.904Z</time></trkpt><trkpt lat="45.5722466" lon="10.798617"><ele>201.0</ele><time>2026-04-26T12:10:19.904Z</time></trkpt><trkpt lat="45.5723599" lon="10.7985383"><ele>201.0</ele><time>2026-04-26T12:10:20.902Z</time></trkpt><trkpt lat="45.5724883" lon="10.7984649"><ele>201.0</ele><time>2026-04-26T12:10:21.904Z</time></trkpt><trkpt lat="45.572617" lon="10.7983782"><ele>201.0</ele><time>2026-04-26T12:10:22.904Z</time></trkpt><trkpt lat="45.5727432" lon="10.7982861"><ele>201.5</ele><time>2026-04-26T12:10:23.904Z</time></trkpt><trkpt lat="45.5728769" lon="10.7982058"><ele>202.0</ele><time>2026-04-26T12:10:24.904Z</time></trkpt><trkpt lat="45.5730157" lon="10.7981403"><ele>202.5</ele><time>2026-04-26T12:10:25.904Z</time></trkpt><trkpt lat="45.5731563" lon="10.7980865"><ele>203.0</ele><time>2026-04-26T12:10:26.904Z</time></trkpt><trkpt lat="45.5732943" lon="10.7980246"><ele>203.0</ele><time>2026-04-26T12:10:27.902Z</time></trkpt><trkpt lat="45.5734315" lon="10.7979641"><ele>203.0</ele><time>2026-04-26T12:10:28.903Z</time></trkpt><trkpt lat="45.5735713" lon="10.7979097"><ele>203.0</ele><time>2026-04-26T12:10:29.904Z</time></trkpt><trkpt lat="45.5737109" lon="10.7978496"><ele>203.0</ele><time>2026-04-26T12:10:30.904Z</time></trkpt><trkpt lat="45.5738484" lon="10.7977862"><ele>201.75</ele><time>2026-04-26T12:10:31.904Z</time></trkpt><trkpt lat="45.5739846" lon="10.7977177"><ele>200.5</ele><time>2026-04-26T12:10:32.903Z</time></trkpt><trkpt lat="45.5741127" lon="10.7976414"><ele>199.25</ele><time>2026-04-26T12:10:33.904Z</time></trkpt><trkpt lat="45.574234" lon="10.7975584"><ele>198.0</ele><time>2026-04-26T12:10:34.903Z</time></trkpt><trkpt lat="45.5743369" lon="10.7974791"><ele>198.5</ele><time>2026-04-26T12:10:35.902Z</time></trkpt><trkpt lat="45.574419" lon="10.7973922"><ele>199.0</ele><time>2026-04-26T12:10:36.904Z</time></trkpt><trkpt lat="45.5744997" lon="10.797275"><ele>199.5</ele><time>2026-04-26T12:10:37.904Z</time></trkpt><trkpt lat="45.5745845" lon="10.7971335"><ele>200.0</ele><time>2026-04-26T12:10:38.903Z</time></trkpt><trkpt lat="45.5746704" lon="10.7970156"><ele>200.0</ele><time>2026-04-26T12:10:39.904Z</time></trkpt><trkpt lat="45.5747678" lon="10.7969215"><ele>200.0</ele><time>2026-04-26T12:10:40.903Z</time></trkpt><trkpt lat="45.5748939" lon="10.7968282"><ele>200.0</ele><time>2026-04-26T12:10:41.903Z</time></trkpt><trkpt lat="45.5750266" lon="10.7967315"><ele>200.0</ele><time>2026-04-26T12:10:42.902Z</time></trkpt><trkpt lat="45.575146" lon="10.7966326"><ele>199.75</ele><time>2026-04-26T12:10:43.903Z</time></trkpt><trkpt lat="45.5752566" lon="10.7965299"><ele>199.5</ele><time>2026-04-26T12:10:44.903Z</time></trkpt><trkpt lat="45.5753627" lon="10.7964165"><ele>199.25</ele><time>2026-04-26T12:10:45.903Z</time></trkpt><trkpt lat="45.5754672" lon="10.7962838"><ele>199.0</ele><time>2026-04-26T12:10:46.903Z</time></trkpt><trkpt lat="45.5755694" lon="10.7961331"><ele>200.25</ele><time>2026-04-26T12:10:47.903Z</time></trkpt><trkpt lat="45.5756682" lon="10.7959837"><ele>201.5</ele><time>2026-04-26T12:10:48.902Z</time></trkpt><trkpt lat="45.5757578" lon="10.7958333"><ele>202.75</ele><time>2026-04-26T12:10:49.902Z</time></trkpt><trkpt lat="45.5758399" lon="10.7956818"><ele>204.0</ele><time>2026-04-26T12:10:50.903Z</time></trkpt><trkpt lat="45.5759174" lon="10.7955444"><ele>204.0</ele><time>2026-04-26T12:10:51.903Z</time></trkpt><trkpt lat="45.5760039" lon="10.7954227"><ele>204.0</ele><time>2026-04-26T12:10:52.903Z</time></trkpt><trkpt lat="45.5761056" lon="10.7953161"><ele>204.0</ele><time>2026-04-26T12:10:53.903Z</time></trkpt><trkpt lat="45.5762047" lon="10.7952307"><ele>204.0</ele><time>2026-04-26T12:10:54.903Z</time></trkpt><trkpt lat="45.5762845" lon="10.7951743"><ele>203.66666666666666</ele><time>2026-04-26T12:10:55.903Z</time></trkpt><trkpt lat="45.576348" lon="10.7951439"><ele>203.33333333333331</ele><time>2026-04-26T12:10:56.903Z</time></trkpt><trkpt lat="45.5764498" lon="10.7951277"><ele>203.0</ele><time>2026-04-26T12:10:58.903Z</time></trkpt><trkpt lat="45.5765016" lon="10.7950668"><ele>202.66666666666666</ele><time>2026-04-26T12:11:07.903Z</time></trkpt><trkpt lat="45.5765353" lon="10.7949388"><ele>202.33333333333331</ele><time>2026-04-26T12:11:09.903Z</time></trkpt><trkpt lat="45.5765323" lon="10.7948284"><ele>202.0</ele><time>2026-04-26T12:11:10.902Z</time></trkpt><trkpt lat="45.5765309" lon="10.7946752"><ele>202.0</ele><time>2026-04-26T12:11:11.903Z</time></trkpt><trkpt lat="45.5765331" lon="10.7945041"><ele>202.0</ele><time>2026-04-26T12:11:12.902Z</time></trkpt><trkpt lat="45.5765363" lon="10.7943131"><ele>202.0</ele><time>2026-04-26T12:11:13.903Z</time></trkpt><trkpt lat="45.5765403" lon="10.7941032"><ele>202.0</ele><time>2026-04-26T12:11:14.903Z</time></trkpt><trkpt lat="45.5765443" lon="10.7938794"><ele>202.0</ele><time>2026-04-26T12:11:15.902Z</time></trkpt><trkpt lat="45.5765522" lon="10.793645"><ele>202.0</ele><time>2026-04-26T12:11:16.903Z</time></trkpt><trkpt lat="45.5765608" lon="10.7934022"><ele>202.0</ele><time>2026-04-26T12:11:17.903Z</time></trkpt><trkpt lat="45.5765708" lon="10.7931509"><ele>202.0</ele><time>2026-04-26T12:11:18.902Z</time></trkpt><trkpt lat="45.5765865" lon="10.7928886"><ele>202.0</ele><time>2026-04-26T12:11:19.902Z</time></trkpt><trkpt lat="45.5766012" lon="10.7926228"><ele>202.0</ele><time>2026-04-26T12:11:20.902Z</time></trkpt><trkpt lat="45.5766099" lon="10.7923567"><ele>202.0</ele><time>2026-04-26T12:11:21.903Z</time></trkpt><trkpt lat="45.5766162" lon="10.7921091"><ele>202.0</ele><time>2026-04-26T12:11:22.903Z</time></trkpt><trkpt lat="45.5766152" lon="10.7918667"><ele>202.0</ele><time>2026-04-26T12:11:23.903Z</time></trkpt><trkpt lat="45.5765823" lon="10.7916325"><ele>202.0</ele><time>2026-04-26T12:11:24.903Z</time></trkpt><trkpt lat="45.576519" lon="10.7914148"><ele>202.0</ele><time>2026-04-26T12:11:25.903Z</time></trkpt><trkpt lat="45.5764301" lon="10.7912193"><ele>202.0</ele><time>2026-04-26T12:11:26.902Z</time></trkpt><trkpt lat="45.5763241" lon="10.7910452"><ele>203.0</ele><time>2026-04-26T12:11:27.903Z</time></trkpt><trkpt lat="45.576214" lon="10.790869"><ele>204.0</ele><time>2026-04-26T12:11:28.902Z</time></trkpt><trkpt lat="45.5761111" lon="10.7906776"><ele>205.0</ele><time>2026-04-26T12:11:29.903Z</time></trkpt><trkpt lat="45.5760179" lon="10.7904802"><ele>205.0</ele><time>2026-04-26T12:11:30.902Z</time></trkpt><trkpt lat="45.5759274" lon="10.7902786"><ele>205.0</ele><time>2026-04-26T12:11:31.903Z</time></trkpt><trkpt lat="45.5758408" lon="10.7900762"><ele>205.0</ele><time>2026-04-26T12:11:32.903Z</time></trkpt><trkpt lat="45.5757563" lon="10.7898708"><ele>206.33333333333331</ele><time>2026-04-26T12:11:33.903Z</time></trkpt><trkpt lat="45.5756711" lon="10.7896693"><ele>207.66666666666669</ele><time>2026-04-26T12:11:34.902Z</time></trkpt><trkpt lat="45.5755907" lon="10.7894676"><ele>209.0</ele><time>2026-04-26T12:11:35.903Z</time></trkpt><trkpt lat="45.5755294" lon="10.7892583"><ele>212.66666666666669</ele><time>2026-04-26T12:11:36.903Z</time></trkpt><trkpt lat="45.5754905" lon="10.7890436"><ele>216.33333333333331</ele><time>2026-04-26T12:11:37.902Z</time></trkpt><trkpt lat="45.575472" lon="10.7888279"><ele>220.0</ele><time>2026-04-26T12:11:38.903Z</time></trkpt><trkpt lat="45.5754678" lon="10.7886088"><ele>219.66666666666666</ele><time>2026-04-26T12:11:39.903Z</time></trkpt><trkpt lat="45.5754719" lon="10.7883899"><ele>219.33333333333331</ele><time>2026-04-26T12:11:40.902Z</time></trkpt><trkpt lat="45.5754788" lon="10.7881668"><ele>219.0</ele><time>2026-04-26T12:11:41.902Z</time></trkpt><trkpt lat="45.5754881" lon="10.7879451"><ele>219.0</ele><time>2026-04-26T12:11:42.902Z</time></trkpt><trkpt lat="45.5755018" lon="10.787722"><ele>219.0</ele><time>2026-04-26T12:11:43.903Z</time></trkpt><trkpt lat="45.5755206" lon="10.787503"><ele>219.0</ele><time>2026-04-26T12:11:44.902Z</time></trkpt><trkpt lat="45.575544" lon="10.7873083"><ele>219.0</ele><time>2026-04-26T12:11:45.902Z</time></trkpt><trkpt lat="45.575567" lon="10.7871356"><ele>219.0</ele><time>2026-04-26T12:11:46.903Z</time></trkpt><trkpt lat="45.5755855" lon="10.7869925"><ele>219.0</ele><time>2026-04-26T12:11:47.902Z</time></trkpt><trkpt lat="45.5755994" lon="10.7868706"><ele>219.0</ele><time>2026-04-26T12:11:48.903Z</time></trkpt><trkpt lat="45.5756091" lon="10.7867695"><ele>219.0</ele><time>2026-04-26T12:11:49.902Z</time></trkpt><trkpt lat="45.5756203" lon="10.7866768"><ele>219.0</ele><time>2026-04-26T12:11:50.903Z</time></trkpt><trkpt lat="45.5756359" lon="10.7865851"><ele>219.0</ele><time>2026-04-26T12:11:51.903Z</time></trkpt><trkpt lat="45.5756509" lon="10.7864743"><ele>219.0</ele><time>2026-04-26T12:11:52.902Z</time></trkpt><trkpt lat="45.5756631" lon="10.7863384"><ele>219.0</ele><time>2026-04-26T12:11:53.903Z</time></trkpt><trkpt lat="45.5756664" lon="10.7861842"><ele>219.0</ele><time>2026-04-26T12:11:54.903Z</time></trkpt><trkpt lat="45.5756652" lon="10.7860139"><ele>219.0</ele><time>2026-04-26T12:11:55.903Z</time></trkpt><trkpt lat="45.5756569" lon="10.78581"><ele>220.66666666666669</ele><time>2026-04-26T12:11:56.902Z</time></trkpt><trkpt lat="45.5756409" lon="10.7855987"><ele>222.33333333333334</ele><time>2026-04-26T12:11:57.903Z</time></trkpt><trkpt lat="45.5756166" lon="10.7853642"><ele>224.0</ele><time>2026-04-26T12:11:58.903Z</time></trkpt><trkpt lat="45.5755851" lon="10.785126"><ele>226.33333333333334</ele><time>2026-04-26T12:11:59.903Z</time></trkpt><trkpt lat="45.5755514" lon="10.7848887"><ele>228.66666666666669</ele><time>2026-04-26T12:12:00.903Z</time></trkpt><trkpt lat="45.575518" lon="10.7846506"><ele>231.0</ele><time>2026-04-26T12:12:01.903Z</time></trkpt><trkpt lat="45.5754856" lon="10.7844157"><ele>233.33333333333331</ele><time>2026-04-26T12:12:02.903Z</time></trkpt><trkpt lat="45.5754538" lon="10.784184"><ele>235.66666666666666</ele><time>2026-04-26T12:12:03.902Z</time></trkpt><trkpt lat="45.5754212" lon="10.7839566"><ele>238.0</ele><time>2026-04-26T12:12:04.903Z</time></trkpt><trkpt lat="45.5753884" lon="10.783733"><ele>240.66666666666666</ele><time>2026-04-26T12:12:05.903Z</time></trkpt><trkpt lat="45.5753586" lon="10.7835103"><ele>243.33333333333331</ele><time>2026-04-26T12:12:06.902Z</time></trkpt><trkpt lat="45.5753387" lon="10.7832856"><ele>246.0</ele><time>2026-04-26T12:12:07.902Z</time></trkpt><trkpt lat="45.5753279" lon="10.7830591"><ele>239.66666666666669</ele><time>2026-04-26T12:12:08.902Z</time></trkpt><trkpt lat="45.5753214" lon="10.7828301"><ele>233.33333333333334</ele><time>2026-04-26T12:12:09.902Z</time></trkpt><trkpt lat="45.5753143" lon="10.7826038"><ele>227.0</ele><time>2026-04-26T12:12:10.903Z</time></trkpt><trkpt lat="45.5753063" lon="10.7823812"><ele>227.0</ele><time>2026-04-26T12:12:11.902Z</time></trkpt><trkpt lat="45.5753021" lon="10.7821623"><ele>227.0</ele><time>2026-04-26T12:12:12.903Z</time></trkpt><trkpt lat="45.5753154" lon="10.7819469"><ele>227.0</ele><time>2026-04-26T12:12:13.903Z</time></trkpt><trkpt lat="45.5753568" lon="10.7817429"><ele>232.66666666666669</ele><time>2026-04-26T12:12:14.903Z</time></trkpt><trkpt lat="45.5754233" lon="10.7815509"><ele>238.33333333333331</ele><time>2026-04-26T12:12:15.902Z</time></trkpt><trkpt lat="45.5755017" lon="10.781367"><ele>244.0</ele><time>2026-04-26T12:12:16.903Z</time></trkpt><trkpt lat="45.5755809" lon="10.7811821"><ele>243.0</ele><time>2026-04-26T12:12:17.903Z</time></trkpt><trkpt lat="45.5756457" lon="10.7809786"><ele>242.0</ele><time>2026-04-26T12:12:18.903Z</time></trkpt><trkpt lat="45.5756912" lon="10.780758"><ele>241.0</ele><time>2026-04-26T12:12:19.902Z</time></trkpt><trkpt lat="45.5757151" lon="10.7805276"><ele>241.0</ele><time>2026-04-26T12:12:20.903Z</time></trkpt><trkpt lat="45.5757165" lon="10.78029"><ele>241.0</ele><time>2026-04-26T12:12:21.902Z</time></trkpt><trkpt lat="45.5756889" lon="10.7800516"><ele>241.0</ele><time>2026-04-26T12:12:22.903Z</time></trkpt><trkpt lat="45.5756338" lon="10.7798203"><ele>238.33333333333331</ele><time>2026-04-26T12:12:23.903Z</time></trkpt><trkpt lat="45.5755517" lon="10.7795976"><ele>235.66666666666669</ele><time>2026-04-26T12:12:24.902Z</time></trkpt><trkpt lat="45.5754431" lon="10.7793913"><ele>233.0</ele><time>2026-04-26T12:12:25.903Z</time></trkpt><trkpt lat="45.5753212" lon="10.779195"><ele>233.0</ele><time>2026-04-26T12:12:26.903Z</time></trkpt><trkpt lat="45.5751998" lon="10.7790013"><ele>233.0</ele><time>2026-04-26T12:12:27.903Z</time></trkpt><trkpt lat="45.5750812" lon="10.7788057"><ele>233.0</ele><time>2026-04-26T12:12:28.903Z</time></trkpt><trkpt lat="45.5749675" lon="10.7786088"><ele>229.33333333333334</ele><time>2026-04-26T12:12:29.902Z</time></trkpt><trkpt lat="45.5748604" lon="10.7784048"><ele>225.66666666666669</ele><time>2026-04-26T12:12:30.902Z</time></trkpt><trkpt lat="45.57476" lon="10.7781937"><ele>222.0</ele><time>2026-04-26T12:12:31.903Z</time></trkpt><trkpt lat="45.5746641" lon="10.7779805"><ele>222.0</ele><time>2026-04-26T12:12:32.901Z</time></trkpt><trkpt lat="45.5745725" lon="10.7777655"><ele>222.0</ele><time>2026-04-26T12:12:33.902Z</time></trkpt><trkpt lat="45.5744824" lon="10.7775492"><ele>222.0</ele><time>2026-04-26T12:12:34.903Z</time></trkpt><trkpt lat="45.5743923" lon="10.7773334"><ele>221.33333333333331</ele><time>2026-04-26T12:12:35.903Z</time></trkpt><trkpt lat="45.5743058" lon="10.7771172"><ele>220.66666666666666</ele><time>2026-04-26T12:12:36.902Z</time></trkpt><trkpt lat="45.5742209" lon="10.7769016"><ele>220.0</ele><time>2026-04-26T12:12:37.903Z</time></trkpt><trkpt lat="45.5741357" lon="10.7766893"><ele>220.0</ele><time>2026-04-26T12:12:38.902Z</time></trkpt><trkpt lat="45.5740548" lon="10.776483"><ele>220.0</ele><time>2026-04-26T12:12:39.903Z</time></trkpt><trkpt lat="45.5739785" lon="10.7762762"><ele>220.0</ele><time>2026-04-26T12:12:40.902Z</time></trkpt><trkpt lat="45.5739053" lon="10.7760696"><ele>221.0</ele><time>2026-04-26T12:12:41.902Z</time></trkpt><trkpt lat="45.5738366" lon="10.7758614"><ele>222.0</ele><time>2026-04-26T12:12:42.903Z</time></trkpt><trkpt lat="45.5737698" lon="10.7756525"><ele>223.0</ele><time>2026-04-26T12:12:43.903Z</time></trkpt><trkpt lat="45.5737044" lon="10.7754428"><ele>221.66666666666666</ele><time>2026-04-26T12:12:44.903Z</time></trkpt><trkpt lat="45.5736423" lon="10.7752331"><ele>220.33333333333331</ele><time>2026-04-26T12:12:45.903Z</time></trkpt><trkpt lat="45.5735852" lon="10.775021"><ele>219.0</ele><time>2026-04-26T12:12:46.903Z</time></trkpt><trkpt lat="45.5735397" lon="10.7748139"><ele>218.39999999999998</ele><time>2026-04-26T12:12:47.903Z</time></trkpt><trkpt lat="45.573507" lon="10.7746235"><ele>217.79999999999998</ele><time>2026-04-26T12:12:48.902Z</time></trkpt><trkpt lat="45.5734823" lon="10.7744561"><ele>217.20000000000002</ele><time>2026-04-26T12:12:49.903Z</time></trkpt><trkpt lat="45.573467" lon="10.7743097"><ele>216.60000000000002</ele><time>2026-04-26T12:12:50.902Z</time></trkpt><trkpt lat="45.5734584" lon="10.774191"><ele>216.0</ele><time>2026-04-26T12:12:51.903Z</time></trkpt><trkpt lat="45.5734594" lon="10.7740993"><ele>215.5</ele><time>2026-04-26T12:12:52.903Z</time></trkpt><trkpt lat="45.573459" lon="10.7739982"><ele>215.0</ele><time>2026-04-26T12:12:54.903Z</time></trkpt><trkpt lat="45.5734761" lon="10.7738679"><ele>214.5</ele><time>2026-04-26T12:13:15.902Z</time></trkpt><trkpt lat="45.5735282" lon="10.773817"><ele>214.0</ele><time>2026-04-26T12:13:16.902Z</time></trkpt><trkpt lat="45.5736052" lon="10.7737895"><ele>213.5</ele><time>2026-04-26T12:13:17.902Z</time></trkpt><trkpt lat="45.5737079" lon="10.7737851"><ele>213.0</ele><time>2026-04-26T12:13:18.903Z</time></trkpt><trkpt lat="45.5738259" lon="10.7737918"><ele>215.0</ele><time>2026-04-26T12:13:19.902Z</time></trkpt><trkpt lat="45.5739609" lon="10.7737816"><ele>217.0</ele><time>2026-04-26T12:13:20.902Z</time></trkpt><trkpt lat="45.5740994" lon="10.7737724"><ele>219.0</ele><time>2026-04-26T12:13:21.903Z</time></trkpt><trkpt lat="45.5742474" lon="10.7737732"><ele>221.0</ele><time>2026-04-26T12:13:22.902Z</time></trkpt><trkpt lat="45.5744025" lon="10.773777"><ele>219.0</ele><time>2026-04-26T12:13:23.903Z</time></trkpt><trkpt lat="45.5745612" lon="10.7737787"><ele>217.0</ele><time>2026-04-26T12:13:24.903Z</time></trkpt><trkpt lat="45.5747235" lon="10.7737856"><ele>215.0</ele><time>2026-04-26T12:13:25.903Z</time></trkpt><trkpt lat="45.5748864" lon="10.7738026"><ele>215.0</ele><time>2026-04-26T12:13:26.903Z</time></trkpt><trkpt lat="45.5750518" lon="10.7738325"><ele>215.0</ele><time>2026-04-26T12:13:27.903Z</time></trkpt><trkpt lat="45.5752173" lon="10.7738703"><ele>215.0</ele><time>2026-04-26T12:13:28.902Z</time></trkpt><trkpt lat="45.5753816" lon="10.7739155"><ele>214.66666666666669</ele><time>2026-04-26T12:13:29.903Z</time></trkpt><trkpt lat="45.5755456" lon="10.7739617"><ele>214.33333333333331</ele><time>2026-04-26T12:13:30.903Z</time></trkpt><trkpt lat="45.575712" lon="10.7740003"><ele>214.0</ele><time>2026-04-26T12:13:31.903Z</time></trkpt><trkpt lat="45.5758772" lon="10.7740394"><ele>214.0</ele><time>2026-04-26T12:13:32.903Z</time></trkpt><trkpt lat="45.5760417" lon="10.7740782"><ele>214.0</ele><time>2026-04-26T12:13:33.903Z</time></trkpt><trkpt lat="45.576205" lon="10.7741176"><ele>214.0</ele><time>2026-04-26T12:13:34.903Z</time></trkpt><trkpt lat="45.5763661" lon="10.7741597"><ele>215.33333333333331</ele><time>2026-04-26T12:13:35.902Z</time></trkpt><trkpt lat="45.576525" lon="10.7741991"><ele>216.66666666666669</ele><time>2026-04-26T12:13:36.903Z</time></trkpt><trkpt lat="45.576686" lon="10.7742373"><ele>218.0</ele><time>2026-04-26T12:13:37.902Z</time></trkpt><trkpt lat="45.5768469" lon="10.774278"><ele>218.0</ele><time>2026-04-26T12:13:38.903Z</time></trkpt><trkpt lat="45.5770059" lon="10.7743232"><ele>218.0</ele><time>2026-04-26T12:13:39.902Z</time></trkpt><trkpt lat="45.5771654" lon="10.774368"><ele>218.0</ele><time>2026-04-26T12:13:40.903Z</time></trkpt><trkpt lat="45.5773242" lon="10.7744143"><ele>219.66666666666669</ele><time>2026-04-26T12:13:41.903Z</time></trkpt><trkpt lat="45.5774824" lon="10.7744598"><ele>221.33333333333331</ele><time>2026-04-26T12:13:42.902Z</time></trkpt><trkpt lat="45.5776417" lon="10.7745069"><ele>223.0</ele><time>2026-04-26T12:13:43.902Z</time></trkpt><trkpt lat="45.5778012" lon="10.7745544"><ele>223.0</ele><time>2026-04-26T12:13:44.902Z</time></trkpt><trkpt lat="45.5779622" lon="10.7745976"><ele>223.0</ele><time>2026-04-26T12:13:45.902Z</time></trkpt><trkpt lat="45.5781217" lon="10.7746384"><ele>223.0</ele><time>2026-04-26T12:13:46.902Z</time></trkpt><trkpt lat="45.5782816" lon="10.7746789"><ele>223.0</ele><time>2026-04-26T12:13:47.903Z</time></trkpt><trkpt lat="45.5784421" lon="10.7747193"><ele>223.0</ele><time>2026-04-26T12:13:48.903Z</time></trkpt><trkpt lat="45.5786012" lon="10.7747613"><ele>223.0</ele><time>2026-04-26T12:13:49.903Z</time></trkpt><trkpt lat="45.5787578" lon="10.7748069"><ele>223.33333333333331</ele><time>2026-04-26T12:13:50.903Z</time></trkpt><trkpt lat="45.5789142" lon="10.7748513"><ele>223.66666666666669</ele><time>2026-04-26T12:13:51.902Z</time></trkpt><trkpt lat="45.5790695" lon="10.7748968"><ele>224.0</ele><time>2026-04-26T12:13:52.903Z</time></trkpt><trkpt lat="45.5792212" lon="10.7749441"><ele>224.0</ele><time>2026-04-26T12:13:53.902Z</time></trkpt><trkpt lat="45.5793745" lon="10.7749888"><ele>224.0</ele><time>2026-04-26T12:13:54.902Z</time></trkpt><trkpt lat="45.5795273" lon="10.7750331"><ele>224.0</ele><time>2026-04-26T12:13:55.902Z</time></trkpt><trkpt lat="45.5796807" lon="10.7750747"><ele>224.33333333333334</ele><time>2026-04-26T12:13:56.902Z</time></trkpt><trkpt lat="45.5798347" lon="10.7751161"><ele>224.66666666666669</ele><time>2026-04-26T12:13:57.902Z</time></trkpt><trkpt lat="45.5799892" lon="10.7751574"><ele>225.0</ele><time>2026-04-26T12:13:58.902Z</time></trkpt><trkpt lat="45.5801434" lon="10.7751997"><ele>226.0</ele><time>2026-04-26T12:13:59.903Z</time></trkpt><trkpt lat="45.5802972" lon="10.7752418"><ele>227.0</ele><time>2026-04-26T12:14:00.903Z</time></trkpt><trkpt lat="45.5804484" lon="10.7752834"><ele>228.0</ele><time>2026-04-26T12:14:01.903Z</time></trkpt><trkpt lat="45.5806002" lon="10.7753273"><ele>228.33333333333331</ele><time>2026-04-26T12:14:02.903Z</time></trkpt><trkpt lat="45.5807507" lon="10.7753693"><ele>228.66666666666666</ele><time>2026-04-26T12:14:03.903Z</time></trkpt><trkpt lat="45.5808992" lon="10.7754127"><ele>229.0</ele><time>2026-04-26T12:14:04.902Z</time></trkpt><trkpt lat="45.5810473" lon="10.7754512"><ele>229.5</ele><time>2026-04-26T12:14:05.903Z</time></trkpt><trkpt lat="45.581192" lon="10.7754902"><ele>230.0</ele><time>2026-04-26T12:14:06.903Z</time></trkpt><trkpt lat="45.5813333" lon="10.7755261"><ele>230.5</ele><time>2026-04-26T12:14:07.903Z</time></trkpt><trkpt lat="45.5814718" lon="10.7755649"><ele>231.0</ele><time>2026-04-26T12:14:08.902Z</time></trkpt><trkpt lat="45.5816081" lon="10.7756013"><ele>231.0</ele><time>2026-04-26T12:14:09.903Z</time></trkpt><trkpt lat="45.5817383" lon="10.7756389"><ele>231.0</ele><time>2026-04-26T12:14:10.903Z</time></trkpt><trkpt lat="45.5818643" lon="10.7756774"><ele>231.0</ele><time>2026-04-26T12:14:11.903Z</time></trkpt><trkpt lat="45.581984" lon="10.7757175"><ele>231.0</ele><time>2026-04-26T12:14:12.903Z</time></trkpt><trkpt lat="45.5820912" lon="10.7757663"><ele>230.83333333333334</ele><time>2026-04-26T12:14:13.902Z</time></trkpt><trkpt lat="45.5821866" lon="10.7758149"><ele>230.66666666666669</ele><time>2026-04-26T12:14:14.903Z</time></trkpt><trkpt lat="45.5822767" lon="10.7758395"><ele>230.5</ele><time>2026-04-26T12:14:15.903Z</time></trkpt><trkpt lat="45.5823494" lon="10.7758291"><ele>230.33333333333334</ele><time>2026-04-26T12:14:16.903Z</time></trkpt><trkpt lat="45.5823998" lon="10.7757721"><ele>230.16666666666669</ele><time>2026-04-26T12:14:17.903Z</time></trkpt><trkpt lat="45.5824311" lon="10.7756684"><ele>230.0</ele><time>2026-04-26T12:14:18.903Z</time></trkpt><trkpt lat="45.5824377" lon="10.7755229"><ele>230.0</ele><time>2026-04-26T12:14:19.902Z</time></trkpt><trkpt lat="45.5824317" lon="10.7753459"><ele>230.0</ele><time>2026-04-26T12:14:20.903Z</time></trkpt><trkpt lat="45.5824492" lon="10.775152"><ele>230.0</ele><time>2026-04-26T12:14:21.902Z</time></trkpt><trkpt lat="45.5824719" lon="10.7749506"><ele>230.0</ele><time>2026-04-26T12:14:22.903Z</time></trkpt><trkpt lat="45.5824934" lon="10.7747365"><ele>229.33333333333334</ele><time>2026-04-26T12:14:23.903Z</time></trkpt><trkpt lat="45.5825194" lon="10.7745189"><ele>228.66666666666669</ele><time>2026-04-26T12:14:24.902Z</time></trkpt><trkpt lat="45.5825569" lon="10.7743003"><ele>228.0</ele><time>2026-04-26T12:14:25.903Z</time></trkpt><trkpt lat="45.5826091" lon="10.7740851"><ele>227.66666666666669</ele><time>2026-04-26T12:14:26.903Z</time></trkpt><trkpt lat="45.5826777" lon="10.7738773"><ele>227.33333333333334</ele><time>2026-04-26T12:14:27.903Z</time></trkpt><trkpt lat="45.5827639" lon="10.7736837"><ele>227.0</ele><time>2026-04-26T12:14:28.903Z</time></trkpt><trkpt lat="45.5828784" lon="10.7735105"><ele>226.33333333333334</ele><time>2026-04-26T12:14:29.902Z</time></trkpt><trkpt lat="45.5830053" lon="10.7733472"><ele>225.66666666666669</ele><time>2026-04-26T12:14:30.903Z</time></trkpt><trkpt lat="45.5831339" lon="10.7731817"><ele>225.0</ele><time>2026-04-26T12:14:31.903Z</time></trkpt><trkpt lat="45.5832553" lon="10.7730039"><ele>225.0</ele><time>2026-04-26T12:14:32.903Z</time></trkpt><trkpt lat="45.5833653" lon="10.7728124"><ele>225.0</ele><time>2026-04-26T12:14:33.903Z</time></trkpt><trkpt lat="45.5834602" lon="10.7726028"><ele>225.0</ele><time>2026-04-26T12:14:34.903Z</time></trkpt><trkpt lat="45.5835344" lon="10.7723774"><ele>224.33333333333331</ele><time>2026-04-26T12:14:35.903Z</time></trkpt><trkpt lat="45.5835866" lon="10.7721396"><ele>223.66666666666666</ele><time>2026-04-26T12:14:36.903Z</time></trkpt><trkpt lat="45.5836167" lon="10.7718955"><ele>223.0</ele><time>2026-04-26T12:14:37.902Z</time></trkpt><trkpt lat="45.5836324" lon="10.7716475"><ele>222.0</ele><time>2026-04-26T12:14:38.903Z</time></trkpt><trkpt lat="45.5836448" lon="10.771398"><ele>221.0</ele><time>2026-04-26T12:14:39.903Z</time></trkpt><trkpt lat="45.5836619" lon="10.7711496"><ele>220.0</ele><time>2026-04-26T12:14:40.902Z</time></trkpt><trkpt lat="45.5836811" lon="10.7709021"><ele>219.66666666666666</ele><time>2026-04-26T12:14:41.903Z</time></trkpt><trkpt lat="45.5837006" lon="10.7706556"><ele>219.33333333333331</ele><time>2026-04-26T12:14:42.903Z</time></trkpt><trkpt lat="45.5837227" lon="10.7704133"><ele>219.0</ele><time>2026-04-26T12:14:43.903Z</time></trkpt><trkpt lat="45.5837505" lon="10.7701731"><ele>219.0</ele><time>2026-04-26T12:14:44.903Z</time></trkpt><trkpt lat="45.5837824" lon="10.7699371"><ele>219.0</ele><time>2026-04-26T12:14:45.903Z</time></trkpt><trkpt lat="45.5838157" lon="10.7697027"><ele>219.0</ele><time>2026-04-26T12:14:46.903Z</time></trkpt><trkpt lat="45.5838422" lon="10.7694684"><ele>218.0</ele><time>2026-04-26T12:14:47.902Z</time></trkpt><trkpt lat="45.5838655" lon="10.7692389"><ele>217.0</ele><time>2026-04-26T12:14:48.903Z</time></trkpt><trkpt lat="45.583885" lon="10.769013"><ele>216.0</ele><time>2026-04-26T12:14:49.903Z</time></trkpt><trkpt lat="45.5839011" lon="10.7687863"><ele>216.0</ele><time>2026-04-26T12:14:50.903Z</time></trkpt><trkpt lat="45.5839173" lon="10.7685598"><ele>216.0</ele><time>2026-04-26T12:14:51.902Z</time></trkpt><trkpt lat="45.5839354" lon="10.768334"><ele>216.0</ele><time>2026-04-26T12:14:52.902Z</time></trkpt><trkpt lat="45.5839621" lon="10.7681088"><ele>215.5</ele><time>2026-04-26T12:14:53.903Z</time></trkpt><trkpt lat="45.5839971" lon="10.7678992"><ele>215.0</ele><time>2026-04-26T12:14:54.901Z</time></trkpt><trkpt lat="45.5840409" lon="10.7676907"><ele>214.5</ele><time>2026-04-26T12:14:55.903Z</time></trkpt><trkpt lat="45.5840896" lon="10.7675007"><ele>214.0</ele><time>2026-04-26T12:14:56.903Z</time></trkpt><trkpt lat="45.5841517" lon="10.7673458"><ele>214.0</ele><time>2026-04-26T12:14:57.903Z</time></trkpt><trkpt lat="45.5842406" lon="10.767207"><ele>214.0</ele><time>2026-04-26T12:14:58.903Z</time></trkpt><trkpt lat="45.5843482" lon="10.7670775"><ele>214.0</ele><time>2026-04-26T12:14:59.903Z</time></trkpt><trkpt lat="45.5844606" lon="10.7669426"><ele>214.0</ele><time>2026-04-26T12:15:00.903Z</time></trkpt><trkpt lat="45.5845749" lon="10.766791"><ele>214.0</ele><time>2026-04-26T12:15:01.903Z</time></trkpt><trkpt lat="45.5846806" lon="10.7666261"><ele>214.0</ele><time>2026-04-26T12:15:02.902Z</time></trkpt><trkpt lat="45.5847815" lon="10.7664484"><ele>214.0</ele><time>2026-04-26T12:15:03.902Z</time></trkpt><trkpt lat="45.5848801" lon="10.7662678"><ele>214.0</ele><time>2026-04-26T12:15:04.902Z</time></trkpt><trkpt lat="45.584978" lon="10.7660876"><ele>214.0</ele><time>2026-04-26T12:15:05.902Z</time></trkpt><trkpt lat="45.5850764" lon="10.7659082"><ele>214.0</ele><time>2026-04-26T12:15:06.902Z</time></trkpt><trkpt lat="45.5851778" lon="10.765729"><ele>213.66666666666666</ele><time>2026-04-26T12:15:07.903Z</time></trkpt><trkpt lat="45.5852765" lon="10.7655507"><ele>213.33333333333331</ele><time>2026-04-26T12:15:08.903Z</time></trkpt><trkpt lat="45.5853731" lon="10.7653713"><ele>213.0</ele><time>2026-04-26T12:15:09.902Z</time></trkpt><trkpt lat="45.5854648" lon="10.7651894"><ele>213.0</ele><time>2026-04-26T12:15:10.903Z</time></trkpt><trkpt lat="45.585554" lon="10.7650056"><ele>213.0</ele><time>2026-04-26T12:15:11.903Z</time></trkpt><trkpt lat="45.5856422" lon="10.7648197"><ele>213.0</ele><time>2026-04-26T12:15:12.903Z</time></trkpt><trkpt lat="45.58573" lon="10.764641"><ele>213.0</ele><time>2026-04-26T12:15:13.902Z</time></trkpt><trkpt lat="45.585813" lon="10.764485"><ele>213.0</ele><time>2026-04-26T12:15:14.903Z</time></trkpt><trkpt lat="45.5858892" lon="10.7643492"><ele>213.0</ele><time>2026-04-26T12:15:15.903Z</time></trkpt><trkpt lat="45.5859637" lon="10.7642303"><ele>213.0</ele><time>2026-04-26T12:15:16.903Z</time></trkpt><trkpt lat="45.5860319" lon="10.7641269"><ele>212.83333333333334</ele><time>2026-04-26T12:15:17.902Z</time></trkpt><trkpt lat="45.5860986" lon="10.764026"><ele>212.66666666666669</ele><time>2026-04-26T12:15:18.903Z</time></trkpt><trkpt lat="45.5861605" lon="10.7639312"><ele>212.5</ele><time>2026-04-26T12:15:19.903Z</time></trkpt><trkpt lat="45.5862183" lon="10.7638472"><ele>212.33333333333334</ele><time>2026-04-26T12:15:20.903Z</time></trkpt><trkpt lat="45.586274" lon="10.7637679"><ele>212.16666666666669</ele><time>2026-04-26T12:15:21.903Z</time></trkpt><trkpt lat="45.5863297" lon="10.7636915"><ele>212.0</ele><time>2026-04-26T12:15:22.903Z</time></trkpt><trkpt lat="45.5863862" lon="10.7636183"><ele>212.00000000000003</ele><time>2026-04-26T12:15:23.903Z</time></trkpt><trkpt lat="45.5864473" lon="10.7635504"><ele>212.0</ele><time>2026-04-26T12:15:24.902Z</time></trkpt><trkpt lat="45.5865116" lon="10.7634819"><ele>212.0</ele><time>2026-04-26T12:15:25.903Z</time></trkpt><trkpt lat="45.5865842" lon="10.7634122"><ele>212.0</ele><time>2026-04-26T12:15:26.902Z</time></trkpt><trkpt lat="45.5866614" lon="10.7633425"><ele>212.00000000000003</ele><time>2026-04-26T12:15:27.902Z</time></trkpt><trkpt lat="45.5867383" lon="10.7632687"><ele>212.0</ele><time>2026-04-26T12:15:28.902Z</time></trkpt><trkpt lat="45.5868042" lon="10.763204"><ele>212.00000000000003</ele><time>2026-04-26T12:15:29.901Z</time></trkpt><trkpt lat="45.5868885" lon="10.7631182"><ele>212.0</ele><time>2026-04-26T12:15:31.902Z</time></trkpt><trkpt lat="45.5869384" lon="10.7630497"><ele>212.0</ele><time>2026-04-26T12:15:33.901Z</time></trkpt><trkpt lat="45.5869888" lon="10.7629706"><ele>212.0</ele><time>2026-04-26T12:15:35.902Z</time></trkpt><trkpt lat="45.5870647" lon="10.7628551"><ele>212.00000000000003</ele><time>2026-04-26T12:15:37.902Z</time></trkpt><trkpt lat="45.5871101" lon="10.7627686"><ele>212.0</ele><time>2026-04-26T12:15:38.902Z</time></trkpt><trkpt lat="45.5871724" lon="10.7626373"><ele>212.0</ele><time>2026-04-26T12:15:39.902Z</time></trkpt><trkpt lat="45.5872661" lon="10.7624705"><ele>212.0</ele><time>2026-04-26T12:15:40.901Z</time></trkpt><trkpt lat="45.58736" lon="10.7622803"><ele>212.0</ele><time>2026-04-26T12:15:41.901Z</time></trkpt><trkpt lat="45.5874382" lon="10.7620438"><ele>211.66666666666669</ele><time>2026-04-26T12:15:42.902Z</time></trkpt><trkpt lat="45.5874996" lon="10.7617727"><ele>211.33333333333331</ele><time>2026-04-26T12:15:43.902Z</time></trkpt><trkpt lat="45.587536" lon="10.7614731"><ele>211.0</ele><time>2026-04-26T12:15:44.902Z</time></trkpt><trkpt lat="45.5875504" lon="10.7611555"><ele>210.66666666666666</ele><time>2026-04-26T12:15:45.902Z</time></trkpt><trkpt lat="45.5875548" lon="10.760842"><ele>210.33333333333331</ele><time>2026-04-26T12:15:46.901Z</time></trkpt><trkpt lat="45.5875606" lon="10.7605373"><ele>210.0</ele><time>2026-04-26T12:15:47.902Z</time></trkpt><trkpt lat="45.5875689" lon="10.760251"><ele>209.66666666666669</ele><time>2026-04-26T12:15:48.901Z</time></trkpt><trkpt lat="45.5875761" lon="10.7599873"><ele>209.33333333333334</ele><time>2026-04-26T12:15:49.901Z</time></trkpt><trkpt lat="45.5875786" lon="10.7597393"><ele>209.0</ele><time>2026-04-26T12:15:50.902Z</time></trkpt><trkpt lat="45.5875816" lon="10.7595075"><ele>209.25</ele><time>2026-04-26T12:15:51.902Z</time></trkpt><trkpt lat="45.5875848" lon="10.7592954"><ele>209.5</ele><time>2026-04-26T12:15:52.901Z</time></trkpt><trkpt lat="45.5875905" lon="10.7591143"><ele>209.75</ele><time>2026-04-26T12:15:53.902Z</time></trkpt><trkpt lat="45.5876019" lon="10.7589582"><ele>210.0</ele><time>2026-04-26T12:15:54.901Z</time></trkpt><trkpt lat="45.5876177" lon="10.7588287"><ele>210.0</ele><time>2026-04-26T12:15:55.902Z</time></trkpt><trkpt lat="45.5876251" lon="10.7587253"><ele>210.0</ele><time>2026-04-26T12:15:56.901Z</time></trkpt><trkpt lat="45.5875597" lon="10.7585502"><ele>210.0</ele><time>2026-04-26T12:15:58.902Z</time></trkpt><trkpt lat="45.5874791" lon="10.7584316"><ele>210.0</ele><time>2026-04-26T12:15:59.901Z</time></trkpt><trkpt lat="45.5873885" lon="10.7583487"><ele>210.0</ele><time>2026-04-26T12:16:00.902Z</time></trkpt><trkpt lat="45.5872745" lon="10.7582883"><ele>210.0</ele><time>2026-04-26T12:16:01.902Z</time></trkpt><trkpt lat="45.5871401" lon="10.7582497"><ele>210.0</ele><time>2026-04-26T12:16:02.901Z</time></trkpt><trkpt lat="45.5869794" lon="10.7582107"><ele>210.0</ele><time>2026-04-26T12:16:03.902Z</time></trkpt><trkpt lat="45.5868031" lon="10.7581647"><ele>210.0</ele><time>2026-04-26T12:16:04.902Z</time></trkpt><trkpt lat="45.5866081" lon="10.7581183"><ele>210.0</ele><time>2026-04-26T12:16:05.902Z</time></trkpt><trkpt lat="45.5864065" lon="10.7580653"><ele>210.0</ele><time>2026-04-26T12:16:06.901Z</time></trkpt><trkpt lat="45.5862238" lon="10.7580174"><ele>210.0</ele><time>2026-04-26T12:16:07.902Z</time></trkpt><trkpt lat="45.5860581" lon="10.7579728"><ele>210.0</ele><time>2026-04-26T12:16:08.901Z</time></trkpt><trkpt lat="45.5859121" lon="10.7579186"><ele>210.0</ele><time>2026-04-26T12:16:09.902Z</time></trkpt><trkpt lat="45.5857854" lon="10.7578515"><ele>210.0</ele><time>2026-04-26T12:16:10.902Z</time></trkpt><trkpt lat="45.5856564" lon="10.7577506"><ele>210.0</ele><time>2026-04-26T12:16:11.9Z</time></trkpt><trkpt lat="45.5855263" lon="10.7576377"><ele>210.0</ele><time>2026-04-26T12:16:12.901Z</time></trkpt><trkpt lat="45.5854054" lon="10.7575483"><ele>210.0</ele><time>2026-04-26T12:16:13.902Z</time></trkpt><trkpt lat="45.5852835" lon="10.7574815"><ele>209.75</ele><time>2026-04-26T12:16:14.901Z</time></trkpt><trkpt lat="45.5851707" lon="10.7574344"><ele>209.5</ele><time>2026-04-26T12:16:15.901Z</time></trkpt><trkpt lat="45.5850668" lon="10.7573718"><ele>209.25</ele><time>2026-04-26T12:16:16.902Z</time></trkpt><trkpt lat="45.5849601" lon="10.7572767"><ele>209.0</ele><time>2026-04-26T12:16:17.902Z</time></trkpt><trkpt lat="45.5848418" lon="10.7571516"><ele>209.0</ele><time>2026-04-26T12:16:18.902Z</time></trkpt><trkpt lat="45.5847273" lon="10.7570082"><ele>209.0</ele><time>2026-04-26T12:16:19.902Z</time></trkpt><trkpt lat="45.5846173" lon="10.7568497"><ele>209.0</ele><time>2026-04-26T12:16:20.902Z</time></trkpt><trkpt lat="45.5845059" lon="10.7566761"><ele>209.33333333333334</ele><time>2026-04-26T12:16:21.901Z</time></trkpt><trkpt lat="45.5843916" lon="10.7564859"><ele>209.66666666666669</ele><time>2026-04-26T12:16:22.902Z</time></trkpt><trkpt lat="45.5842761" lon="10.7562982"><ele>210.0</ele><time>2026-04-26T12:16:23.902Z</time></trkpt><trkpt lat="45.5841566" lon="10.7560934"><ele>210.33333333333331</ele><time>2026-04-26T12:16:24.901Z</time></trkpt><trkpt lat="45.5840343" lon="10.7558833"><ele>210.66666666666666</ele><time>2026-04-26T12:16:25.902Z</time></trkpt><trkpt lat="45.583928" lon="10.7556892"><ele>211.0</ele><time>2026-04-26T12:16:26.901Z</time></trkpt><trkpt lat="45.5838414" lon="10.7555031"><ele>211.0</ele><time>2026-04-26T12:16:27.902Z</time></trkpt><trkpt lat="45.5837702" lon="10.755335"><ele>211.0</ele><time>2026-04-26T12:16:28.902Z</time></trkpt><trkpt lat="45.5837048" lon="10.7551815"><ele>211.0</ele><time>2026-04-26T12:16:29.902Z</time></trkpt><trkpt lat="45.5836391" lon="10.7550221"><ele>211.0</ele><time>2026-04-26T12:16:30.902Z</time></trkpt><trkpt lat="45.5835681" lon="10.754856"><ele>210.75</ele><time>2026-04-26T12:16:31.901Z</time></trkpt><trkpt lat="45.5834982" lon="10.7546989"><ele>210.5</ele><time>2026-04-26T12:16:32.901Z</time></trkpt><trkpt lat="45.5834285" lon="10.7545662"><ele>210.25</ele><time>2026-04-26T12:16:33.901Z</time></trkpt><trkpt lat="45.5833562" lon="10.7544286"><ele>210.0</ele><time>2026-04-26T12:16:34.902Z</time></trkpt><trkpt lat="45.5832791" lon="10.7542839"><ele>209.5</ele><time>2026-04-26T12:16:35.902Z</time></trkpt><trkpt lat="45.5832001" lon="10.7541396"><ele>209.0</ele><time>2026-04-26T12:16:36.901Z</time></trkpt><trkpt lat="45.5831171" lon="10.753997"><ele>208.5</ele><time>2026-04-26T12:16:37.901Z</time></trkpt><trkpt lat="45.583034" lon="10.7538549"><ele>208.0</ele><time>2026-04-26T12:16:38.902Z</time></trkpt><trkpt lat="45.5829532" lon="10.7537114"><ele>208.0</ele><time>2026-04-26T12:16:39.902Z</time></trkpt><trkpt lat="45.582877" lon="10.7535648"><ele>208.0</ele><time>2026-04-26T12:16:40.902Z</time></trkpt><trkpt lat="45.5828054" lon="10.7534271"><ele>208.0</ele><time>2026-04-26T12:16:41.902Z</time></trkpt><trkpt lat="45.5827399" lon="10.7532969"><ele>208.0</ele><time>2026-04-26T12:16:42.902Z</time></trkpt><trkpt lat="45.5826817" lon="10.7531869"><ele>208.33333333333331</ele><time>2026-04-26T12:16:43.902Z</time></trkpt><trkpt lat="45.5826365" lon="10.7530969"><ele>208.66666666666666</ele><time>2026-04-26T12:16:44.901Z</time></trkpt><trkpt lat="45.5825944" lon="10.7529977"><ele>209.0</ele><time>2026-04-26T12:16:46.902Z</time></trkpt><trkpt lat="45.5825928" lon="10.7528999"><ele>209.33333333333331</ele><time>2026-04-26T12:16:51.901Z</time></trkpt><trkpt lat="45.5826158" lon="10.7528015"><ele>209.66666666666666</ele><time>2026-04-26T12:16:54.901Z</time></trkpt><trkpt lat="45.5826773" lon="10.7527431"><ele>210.0</ele><time>2026-04-26T12:16:56.901Z</time></trkpt><trkpt lat="45.5827678" lon="10.7526597"><ele>210.0</ele><time>2026-04-26T12:16:58.902Z</time></trkpt><trkpt lat="45.5828319" lon="10.7525929"><ele>210.0</ele><time>2026-04-26T12:16:59.902Z</time></trkpt><trkpt lat="45.5828966" lon="10.7525311"><ele>210.0</ele><time>2026-04-26T12:17:00.902Z</time></trkpt><trkpt lat="45.5829794" lon="10.7524548"><ele>210.0</ele><time>2026-04-26T12:17:01.901Z</time></trkpt><trkpt lat="45.5830615" lon="10.7523704"><ele>210.0</ele><time>2026-04-26T12:17:02.901Z</time></trkpt><trkpt lat="45.5831481" lon="10.7522825"><ele>211.0</ele><time>2026-04-26T12:17:03.902Z</time></trkpt><trkpt lat="45.5832357" lon="10.7521886"><ele>212.0</ele><time>2026-04-26T12:17:04.902Z</time></trkpt><trkpt lat="45.5833321" lon="10.7520902"><ele>213.0</ele><time>2026-04-26T12:17:05.902Z</time></trkpt><trkpt lat="45.5834361" lon="10.7519803"><ele>214.0</ele><time>2026-04-26T12:17:06.902Z</time></trkpt><trkpt lat="45.5835483" lon="10.7518642"><ele>214.25</ele><time>2026-04-26T12:17:07.902Z</time></trkpt><trkpt lat="45.5836695" lon="10.7517492"><ele>214.5</ele><time>2026-04-26T12:17:08.901Z</time></trkpt><trkpt lat="45.5837897" lon="10.7516372"><ele>214.75</ele><time>2026-04-26T12:17:09.901Z</time></trkpt><trkpt lat="45.5839068" lon="10.7515233"><ele>215.0</ele><time>2026-04-26T12:17:10.901Z</time></trkpt><trkpt lat="45.5840264" lon="10.7513984"><ele>216.33333333333334</ele><time>2026-04-26T12:17:11.902Z</time></trkpt><trkpt lat="45.5841454" lon="10.7512655"><ele>217.66666666666669</ele><time>2026-04-26T12:17:12.902Z</time></trkpt><trkpt lat="45.5842627" lon="10.7511226"><ele>219.0</ele><time>2026-04-26T12:17:13.901Z</time></trkpt><trkpt lat="45.5843765" lon="10.750976"><ele>219.25</ele><time>2026-04-26T12:17:14.902Z</time></trkpt><trkpt lat="45.5844827" lon="10.7508312"><ele>219.5</ele><time>2026-04-26T12:17:15.902Z</time></trkpt><trkpt lat="45.584585" lon="10.7506873"><ele>219.75</ele><time>2026-04-26T12:17:16.902Z</time></trkpt><trkpt lat="45.5846817" lon="10.7505473"><ele>220.0</ele><time>2026-04-26T12:17:17.901Z</time></trkpt><trkpt lat="45.5847758" lon="10.7504158"><ele>220.0</ele><time>2026-04-26T12:17:18.902Z</time></trkpt><trkpt lat="45.5848692" lon="10.750288"><ele>220.0</ele><time>2026-04-26T12:17:19.901Z</time></trkpt><trkpt lat="45.5849593" lon="10.7501641"><ele>220.0</ele><time>2026-04-26T12:17:20.902Z</time></trkpt><trkpt lat="45.5850418" lon="10.7500388"><ele>220.0</ele><time>2026-04-26T12:17:21.901Z</time></trkpt><trkpt lat="45.5851256" lon="10.7499147"><ele>220.0</ele><time>2026-04-26T12:17:22.902Z</time></trkpt><trkpt lat="45.5852101" lon="10.7497958"><ele>220.0</ele><time>2026-04-26T12:17:23.902Z</time></trkpt><trkpt lat="45.5852937" lon="10.7496842"><ele>220.0</ele><time>2026-04-26T12:17:24.902Z</time></trkpt><trkpt lat="45.5853708" lon="10.7495781"><ele>220.0</ele><time>2026-04-26T12:17:25.901Z</time></trkpt><trkpt lat="45.5854442" lon="10.7494837"><ele>220.0</ele><time>2026-04-26T12:17:26.902Z</time></trkpt><trkpt lat="45.5855083" lon="10.7493994"><ele>220.16666666666666</ele><time>2026-04-26T12:17:27.901Z</time></trkpt><trkpt lat="45.5855649" lon="10.7493278"><ele>220.33333333333331</ele><time>2026-04-26T12:17:28.902Z</time></trkpt><trkpt lat="45.585613" lon="10.7492688"><ele>220.5</ele><time>2026-04-26T12:17:29.902Z</time></trkpt><trkpt lat="45.5856664" lon="10.7492053"><ele>220.66666666666669</ele><time>2026-04-26T12:17:31.902Z</time></trkpt><trkpt lat="45.5856341" lon="10.7490834"><ele>220.83333333333334</ele><time>2026-04-26T12:17:35.902Z</time></trkpt><trkpt lat="45.5855695" lon="10.7490233"><ele>221.0</ele><time>2026-04-26T12:17:36.902Z</time></trkpt><trkpt lat="45.5854982" lon="10.7489709"><ele>221.0</ele><time>2026-04-26T12:17:37.902Z</time></trkpt><trkpt lat="45.5854193" lon="10.7489256"><ele>221.00000000000003</ele><time>2026-04-26T12:17:38.902Z</time></trkpt><trkpt lat="45.5853315" lon="10.7489064"><ele>221.00000000000003</ele><time>2026-04-26T12:17:39.902Z</time></trkpt><trkpt lat="45.5852336" lon="10.7489222"><ele>221.0</ele><time>2026-04-26T12:17:40.901Z</time></trkpt><trkpt lat="45.5851161" lon="10.7489732"><ele>221.0</ele><time>2026-04-26T12:17:41.902Z</time></trkpt><trkpt lat="45.5850016" lon="10.7490626"><ele>220.75</ele><time>2026-04-26T12:17:42.902Z</time></trkpt><trkpt lat="45.5848856" lon="10.7491848"><ele>220.5</ele><time>2026-04-26T12:17:43.902Z</time></trkpt><trkpt lat="45.584778" lon="10.7493261"><ele>220.25</ele><time>2026-04-26T12:17:44.902Z</time></trkpt><trkpt lat="45.5846861" lon="10.7494486"><ele>220.0</ele><time>2026-04-26T12:17:45.902Z</time></trkpt><trkpt lat="45.5846064" lon="10.7495277"><ele>220.0</ele><time>2026-04-26T12:17:46.902Z</time></trkpt><trkpt lat="45.5845225" lon="10.7495722"><ele>220.0</ele><time>2026-04-26T12:17:47.902Z</time></trkpt><trkpt lat="45.5844229" lon="10.7495909"><ele>220.0</ele><time>2026-04-26T12:17:48.902Z</time></trkpt><trkpt lat="45.5842966" lon="10.7495945"><ele>220.0</ele><time>2026-04-26T12:17:49.901Z</time></trkpt><trkpt lat="45.5841524" lon="10.7495873"><ele>221.33333333333331</ele><time>2026-04-26T12:17:50.902Z</time></trkpt><trkpt lat="45.5839943" lon="10.7495939"><ele>222.66666666666669</ele><time>2026-04-26T12:17:51.901Z</time></trkpt><trkpt lat="45.5838286" lon="10.7496056"><ele>224.0</ele><time>2026-04-26T12:17:52.901Z</time></trkpt><trkpt lat="45.5836854" lon="10.749623"><ele>224.75</ele><time>2026-04-26T12:17:53.901Z</time></trkpt><trkpt lat="45.5835536" lon="10.7496498"><ele>225.5</ele><time>2026-04-26T12:17:54.902Z</time></trkpt><trkpt lat="45.5834235" lon="10.7496847"><ele>226.25</ele><time>2026-04-26T12:17:55.902Z</time></trkpt><trkpt lat="45.5832898" lon="10.749723"><ele>227.0</ele><time>2026-04-26T12:17:56.902Z</time></trkpt><trkpt lat="45.5831534" lon="10.7497431"><ele>227.0</ele><time>2026-04-26T12:17:57.902Z</time></trkpt><trkpt lat="45.5830185" lon="10.7497399"><ele>227.0</ele><time>2026-04-26T12:17:58.902Z</time></trkpt><trkpt lat="45.5828843" lon="10.7497235"><ele>227.0</ele><time>2026-04-26T12:17:59.901Z</time></trkpt><trkpt lat="45.5827342" lon="10.7496969"><ele>227.0</ele><time>2026-04-26T12:18:00.902Z</time></trkpt><trkpt lat="45.5825783" lon="10.749655"><ele>226.33333333333334</ele><time>2026-04-26T12:18:01.901Z</time></trkpt><trkpt lat="45.582421" lon="10.7496123"><ele>225.66666666666669</ele><time>2026-04-26T12:18:02.902Z</time></trkpt><trkpt lat="45.5822725" lon="10.7495766"><ele>225.0</ele><time>2026-04-26T12:18:03.902Z</time></trkpt><trkpt lat="45.5821124" lon="10.7495353"><ele>224.0</ele><time>2026-04-26T12:18:04.902Z</time></trkpt><trkpt lat="45.5819409" lon="10.7494933"><ele>223.0</ele><time>2026-04-26T12:18:05.902Z</time></trkpt><trkpt lat="45.5817743" lon="10.7494604"><ele>222.0</ele><time>2026-04-26T12:18:06.901Z</time></trkpt><trkpt lat="45.5816101" lon="10.7494396"><ele>222.0</ele><time>2026-04-26T12:18:07.902Z</time></trkpt><trkpt lat="45.581443" lon="10.7494196"><ele>222.0</ele><time>2026-04-26T12:18:08.901Z</time></trkpt><trkpt lat="45.5812812" lon="10.7493943"><ele>222.0</ele><time>2026-04-26T12:18:09.902Z</time></trkpt><trkpt lat="45.581128" lon="10.749369"><ele>222.25</ele><time>2026-04-26T12:18:10.901Z</time></trkpt><trkpt lat="45.5809864" lon="10.7493759"><ele>222.5</ele><time>2026-04-26T12:18:11.902Z</time></trkpt><trkpt lat="45.5808463" lon="10.7494193"><ele>222.75</ele><time>2026-04-26T12:18:12.902Z</time></trkpt><trkpt lat="45.580695" lon="10.7494989"><ele>223.0</ele><time>2026-04-26T12:18:13.901Z</time></trkpt><trkpt lat="45.5805549" lon="10.7495885"><ele>222.99999999999997</ele><time>2026-04-26T12:18:14.901Z</time></trkpt><trkpt lat="45.5804519" lon="10.7496523"><ele>223.0</ele><time>2026-04-26T12:18:15.902Z</time></trkpt><trkpt lat="45.580377" lon="10.7496915"><ele>223.0</ele><time>2026-04-26T12:18:16.902Z</time></trkpt><trkpt lat="45.5803143" lon="10.7497247"><ele>223.0</ele><time>2026-04-26T12:18:17.902Z</time></trkpt><trkpt lat="45.5802415" lon="10.7498151"><ele>222.99999999999997</ele><time>2026-04-26T12:18:19.902Z</time></trkpt><trkpt lat="45.5801813" lon="10.7499146"><ele>223.0</ele><time>2026-04-26T12:18:22.902Z</time></trkpt><trkpt lat="45.5800499" lon="10.7499856"><ele>223.75</ele><time>2026-04-26T12:18:24.902Z</time></trkpt><trkpt lat="45.5799487" lon="10.7500381"><ele>224.5</ele><time>2026-04-26T12:18:25.901Z</time></trkpt><trkpt lat="45.5798286" lon="10.7501094"><ele>225.25</ele><time>2026-04-26T12:18:26.902Z</time></trkpt><trkpt lat="45.5796922" lon="10.7501943"><ele>226.0</ele><time>2026-04-26T12:18:27.902Z</time></trkpt><trkpt lat="45.5795397" lon="10.7502924"><ele>227.0</ele><time>2026-04-26T12:18:28.902Z</time></trkpt><trkpt lat="45.5793891" lon="10.7503935"><ele>228.0</ele><time>2026-04-26T12:18:29.901Z</time></trkpt><trkpt lat="45.5792601" lon="10.7504844"><ele>229.0</ele><time>2026-04-26T12:18:30.902Z</time></trkpt><trkpt lat="45.5791284" lon="10.7505769"><ele>229.0</ele><time>2026-04-26T12:18:31.902Z</time></trkpt><trkpt lat="45.5789862" lon="10.7506787"><ele>229.0</ele><time>2026-04-26T12:18:32.902Z</time></trkpt><trkpt lat="45.5788586" lon="10.7507721"><ele>229.0</ele><time>2026-04-26T12:18:33.901Z</time></trkpt><trkpt lat="45.5787539" lon="10.7508508"><ele>229.0</ele><time>2026-04-26T12:18:34.902Z</time></trkpt><trkpt lat="45.5786723" lon="10.7509132"><ele>229.6</ele><time>2026-04-26T12:18:35.903Z</time></trkpt><trkpt lat="45.5786163" lon="10.750966"><ele>230.2</ele><time>2026-04-26T12:18:36.902Z</time></trkpt><trkpt lat="45.5786039" lon="10.7510906"><ele>230.79999999999998</ele><time>2026-04-26T12:18:39.902Z</time></trkpt><trkpt lat="45.5786584" lon="10.7512529"><ele>231.39999999999998</ele><time>2026-04-26T12:18:41.902Z</time></trkpt><trkpt lat="45.578695" lon="10.7513705"><ele>232.0</ele><time>2026-04-26T12:18:42.901Z</time></trkpt><trkpt lat="45.578729" lon="10.7515157"><ele>230.2</ele><time>2026-04-26T12:18:43.901Z</time></trkpt><trkpt lat="45.5787536" lon="10.7516348"><ele>228.39999999999998</ele><time>2026-04-26T12:18:44.902Z</time></trkpt><trkpt lat="45.5787622" lon="10.7517655"><ele>226.60000000000002</ele><time>2026-04-26T12:18:45.902Z</time></trkpt><trkpt lat="45.5787502" lon="10.7518913"><ele>224.8</ele><time>2026-04-26T12:18:46.902Z</time></trkpt><trkpt lat="45.5787308" lon="10.7520442"><ele>223.0</ele><time>2026-04-26T12:18:47.902Z</time></trkpt><trkpt lat="45.5787024" lon="10.7522156"><ele>222.0</ele><time>2026-04-26T12:18:48.902Z</time></trkpt><trkpt lat="45.5786797" lon="10.7523773"><ele>221.0</ele><time>2026-04-26T12:18:49.902Z</time></trkpt><trkpt lat="45.5786586" lon="10.7524998"><ele>220.0</ele><time>2026-04-26T12:18:50.902Z</time></trkpt><trkpt lat="45.5786247" lon="10.7525788"><ele>219.0</ele><time>2026-04-26T12:18:51.902Z</time></trkpt><trkpt lat="45.5785556" lon="10.7526458"><ele>218.0</ele><time>2026-04-26T12:18:53.901Z</time></trkpt><trkpt lat="45.5784917" lon="10.7527926"><ele>217.0</ele><time>2026-04-26T12:18:56.902Z</time></trkpt><trkpt lat="45.5784841" lon="10.7529141"><ele>216.0</ele><time>2026-04-26T12:18:57.902Z</time></trkpt><trkpt lat="45.5784736" lon="10.7530611"><ele>215.0</ele><time>2026-04-26T12:18:58.901Z</time></trkpt><trkpt lat="45.5784628" lon="10.7532279"><ele>214.0</ele><time>2026-04-26T12:18:59.902Z</time></trkpt><trkpt lat="45.5784612" lon="10.7533874"><ele>213.0</ele><time>2026-04-26T12:19:00.902Z</time></trkpt><trkpt lat="45.5784767" lon="10.7535419"><ele>212.2</ele><time>2026-04-26T12:19:01.902Z</time></trkpt><trkpt lat="45.57851" lon="10.7536834"><ele>211.4</ele><time>2026-04-26T12:19:02.901Z</time></trkpt><trkpt lat="45.5785455" lon="10.7538165"><ele>210.6</ele><time>2026-04-26T12:19:03.902Z</time></trkpt><trkpt lat="45.578577" lon="10.7539426"><ele>209.79999999999998</ele><time>2026-04-26T12:19:04.901Z</time></trkpt><trkpt lat="45.5785993" lon="10.7540408"><ele>209.0</ele><time>2026-04-26T12:19:05.901Z</time></trkpt><trkpt lat="45.5786181" lon="10.7541538"><ele>209.0</ele><time>2026-04-26T12:19:08.901Z</time></trkpt><trkpt lat="45.5785281" lon="10.7541441"><ele>209.0</ele><time>2026-04-26T12:19:12.902Z</time></trkpt><trkpt lat="45.5783951" lon="10.7540398"><ele>209.0</ele><time>2026-04-26T12:19:14.901Z</time></trkpt><trkpt lat="45.5782986" lon="10.7539714"><ele>209.0</ele><time>2026-04-26T12:19:15.902Z</time></trkpt><trkpt lat="45.5781856" lon="10.7538891"><ele>209.0</ele><time>2026-04-26T12:19:16.902Z</time></trkpt><trkpt lat="45.5780856" lon="10.7538134"><ele>209.0</ele><time>2026-04-26T12:19:17.902Z</time></trkpt><trkpt lat="45.5780008" lon="10.7537454"><ele>209.0</ele><time>2026-04-26T12:19:18.901Z</time></trkpt><trkpt lat="45.5779382" lon="10.7536957"><ele>209.0</ele><time>2026-04-26T12:19:19.902Z</time></trkpt><trkpt lat="45.5778611" lon="10.7536498"><ele>209.0</ele><time>2026-04-26T12:19:21.902Z</time></trkpt><trkpt lat="45.5778038" lon="10.753752"><ele>208.66666666666669</ele><time>2026-04-26T12:19:25.901Z</time></trkpt><trkpt lat="45.5777467" lon="10.7537908"><ele>208.33333333333334</ele><time>2026-04-26T12:19:26.902Z</time></trkpt><trkpt lat="45.5776624" lon="10.7538347"><ele>208.0</ele><time>2026-04-26T12:19:27.902Z</time></trkpt><trkpt lat="45.5775831" lon="10.753887"><ele>207.66666666666669</ele><time>2026-04-26T12:19:28.902Z</time></trkpt><trkpt lat="45.5774972" lon="10.7539388"><ele>207.33333333333334</ele><time>2026-04-26T12:19:29.902Z</time></trkpt><trkpt lat="45.5774093" lon="10.7539913"><ele>207.0</ele><time>2026-04-26T12:19:30.901Z</time></trkpt><trkpt lat="45.5773226" lon="10.7540457"><ele>207.0</ele><time>2026-04-26T12:19:31.901Z</time></trkpt><trkpt lat="45.5772389" lon="10.7540976"><ele>207.0</ele><time>2026-04-26T12:19:32.902Z</time></trkpt><trkpt lat="45.5771649" lon="10.7541477"><ele>207.0</ele><time>2026-04-26T12:19:33.902Z</time></trkpt><trkpt lat="45.5771064" lon="10.7541876"><ele>207.0</ele><time>2026-04-26T12:19:34.901Z</time></trkpt><trkpt lat="45.5770357" lon="10.7542128"><ele>207.0</ele><time>2026-04-26T12:19:36.902Z</time></trkpt><trkpt lat="45.5769421" lon="10.7541781"><ele>207.0</ele><time>2026-04-26T12:19:39.902Z</time></trkpt><trkpt lat="45.57686" lon="10.7542034"><ele>207.5</ele><time>2026-04-26T12:19:41.902Z</time></trkpt><trkpt lat="45.5767971" lon="10.754181"><ele>208.0</ele><time>2026-04-26T12:23:22.901Z</time></trkpt><trkpt lat="45.576755" lon="10.7541093"><ele>208.5</ele><time>2026-04-26T12:23:32.9Z</time></trkpt><trkpt lat="45.5767137" lon="10.7540348"><ele>209.0</ele><time>2026-04-26T12:23:40.851Z</time></trkpt><trkpt lat="45.5767025" lon="10.7539458"><ele>209.5</ele><time>2026-04-26T12:26:02.9Z</time></trkpt><trkpt lat="45.5765571" lon="10.7538912"><ele>210.0</ele><time>2026-04-26T12:45:36.082Z</time></trkpt><trkpt lat="45.5763959" lon="10.7541149"><ele>210.0</ele><time>2026-04-26T12:49:21.824Z</time></trkpt><trkpt lat="45.5765521" lon="10.75394"><ele>210.0</ele><time>2026-04-26T13:12:24.25Z</time></trkpt><trkpt lat="45.5765428" lon="10.7537266"><ele>210.0</ele><time>2026-04-26T13:12:29.935Z</time></trkpt><trkpt lat="45.5765821" lon="10.7539737"><ele>206.0</ele><time>2026-04-26T13:13:06.158Z</time></trkpt><trkpt lat="45.5755276" lon="10.7563553"><ele>210.0</ele><time>2026-04-26T13:13:15.548Z</time></trkpt><trkpt lat="45.5768084" lon="10.7539656"><ele>206.0</ele><time>2026-04-26T13:13:21.188Z</time></trkpt><trkpt lat="45.5755276" lon="10.7563553"><ele>210.0</ele><time>2026-04-26T13:13:58.984Z</time></trkpt><trkpt lat="45.5768068" lon="10.7539571"><ele>208.0</ele><time>2026-04-26T13:15:43.184Z</time></trkpt><trkpt lat="45.5749401" lon="10.7554728"><ele>206.0</ele><time>2026-04-26T13:23:32.501Z</time></trkpt><trkpt lat="45.5771649" lon="10.7555681"><ele>206.00000000000003</ele><time>2026-04-26T13:29:29.615Z</time></trkpt><trkpt lat="45.5771917" lon="10.7554841"><ele>206.0</ele><time>2026-04-26T13:30:08.886Z</time></trkpt><trkpt lat="45.5772022" lon="10.7553354"><ele>206.0</ele><time>2026-04-26T13:30:17.365Z</time></trkpt><trkpt lat="45.5771451" lon="10.7552704"><ele>206.0</ele><time>2026-04-26T13:30:21.882Z</time></trkpt><trkpt lat="45.5771005" lon="10.7553412"><ele>206.00000000000003</ele><time>2026-04-26T13:30:25.883Z</time></trkpt><trkpt lat="45.5771299" lon="10.7554247"><ele>206.0</ele><time>2026-04-26T13:30:28.883Z</time></trkpt><trkpt lat="45.5771745" lon="10.7555206"><ele>206.00000000000003</ele><time>2026-04-26T13:30:31.883Z</time></trkpt><trkpt lat="45.5772167" lon="10.7556237"><ele>206.0</ele><time>2026-04-26T13:30:34.883Z</time></trkpt><trkpt lat="45.5772448" lon="10.7557391"><ele>206.0</ele><time>2026-04-26T13:30:37.883Z</time></trkpt><trkpt lat="45.5772487" lon="10.755837"><ele>206.0</ele><time>2026-04-26T13:30:39.883Z</time></trkpt><trkpt lat="45.5772334" lon="10.7559446"><ele>206.00000000000003</ele><time>2026-04-26T13:30:41.883Z</time></trkpt><trkpt lat="45.5772126" lon="10.7560585"><ele>206.0</ele><time>2026-04-26T13:30:43.883Z</time></trkpt><trkpt lat="45.5771839" lon="10.7561729"><ele>206.0</ele><time>2026-04-26T13:30:45.882Z</time></trkpt><trkpt lat="45.5771467" lon="10.7562951"><ele>206.0</ele><time>2026-04-26T13:30:47.883Z</time></trkpt><trkpt lat="45.5770932" lon="10.7564263"><ele>206.0</ele><time>2026-04-26T13:30:49.882Z</time></trkpt><trkpt lat="45.5770274" lon="10.7565493"><ele>206.0</ele><time>2026-04-26T13:30:51.883Z</time></trkpt><trkpt lat="45.5769653" lon="10.7566541"><ele>206.0</ele><time>2026-04-26T13:30:53.883Z</time></trkpt><trkpt lat="45.5769122" lon="10.756722"><ele>206.00000000000003</ele><time>2026-04-26T13:30:55.882Z</time></trkpt><trkpt lat="45.5768591" lon="10.7567721"><ele>206.0</ele><time>2026-04-26T13:31:15.883Z</time></trkpt><trkpt lat="45.5767911" lon="10.7568146"><ele>206.0</ele><time>2026-04-26T13:31:17.882Z</time></trkpt><trkpt lat="45.5766975" lon="10.7568389"><ele>206.0</ele><time>2026-04-26T13:31:19.883Z</time></trkpt><trkpt lat="45.5765815" lon="10.7568744"><ele>206.00000000000003</ele><time>2026-04-26T13:31:21.883Z</time></trkpt><trkpt lat="45.5765081" lon="10.7568995"><ele>206.0</ele><time>2026-04-26T13:31:22.883Z</time></trkpt><trkpt lat="45.5764328" lon="10.7569261"><ele>206.00000000000003</ele><time>2026-04-26T13:31:23.883Z</time></trkpt><trkpt lat="45.576352" lon="10.7569469"><ele>206.0</ele><time>2026-04-26T13:31:24.883Z</time></trkpt><trkpt lat="45.5762686" lon="10.7569703"><ele>206.0</ele><time>2026-04-26T13:31:25.883Z</time></trkpt><trkpt lat="45.5761834" lon="10.7569926"><ele>206.0</ele><time>2026-04-26T13:31:26.882Z</time></trkpt><trkpt lat="45.5760968" lon="10.7570281"><ele>206.00000000000003</ele><time>2026-04-26T13:31:27.878Z</time></trkpt><trkpt lat="45.5760152" lon="10.7570558"><ele>206.0</ele><time>2026-04-26T13:31:28.884Z</time></trkpt><trkpt lat="45.5759371" lon="10.7570817"><ele>206.33333333333334</ele><time>2026-04-26T13:31:29.892Z</time></trkpt><trkpt lat="45.5758626" lon="10.7571078"><ele>206.66666666666669</ele><time>2026-04-26T13:31:30.886Z</time></trkpt><trkpt lat="45.5757974" lon="10.7571295"><ele>207.0</ele><time>2026-04-26T13:31:31.871Z</time></trkpt><trkpt lat="45.5756958" lon="10.7571639"><ele>207.33333333333331</ele><time>2026-04-26T13:31:33.871Z</time></trkpt><trkpt lat="45.5756232" lon="10.7571873"><ele>207.66666666666666</ele><time>2026-04-26T13:31:35.871Z</time></trkpt><trkpt lat="45.5755603" lon="10.7572106"><ele>208.0</ele><time>2026-04-26T13:31:37.871Z</time></trkpt><trkpt lat="45.5754912" lon="10.7572341"><ele>207.99999999999997</ele><time>2026-04-26T13:31:39.871Z</time></trkpt><trkpt lat="45.5753949" lon="10.7572676"><ele>208.0</ele><time>2026-04-26T13:31:41.872Z</time></trkpt><trkpt lat="45.5752767" lon="10.7573031"><ele>208.0</ele><time>2026-04-26T13:31:43.871Z</time></trkpt><trkpt lat="45.5752143" lon="10.7573212"><ele>208.0</ele><time>2026-04-26T13:31:44.872Z</time></trkpt><trkpt lat="45.5751523" lon="10.7573389"><ele>207.99999999999997</ele><time>2026-04-26T13:31:45.871Z</time></trkpt><trkpt lat="45.57509" lon="10.7573578"><ele>208.0</ele><time>2026-04-26T13:31:46.872Z</time></trkpt><trkpt lat="45.575025" lon="10.7573772"><ele>207.83333333333331</ele><time>2026-04-26T13:31:47.872Z</time></trkpt><trkpt lat="45.5749571" lon="10.7573971"><ele>207.66666666666666</ele><time>2026-04-26T13:31:48.872Z</time></trkpt><trkpt lat="45.5748863" lon="10.75742"><ele>207.5</ele><time>2026-04-26T13:31:49.872Z</time></trkpt><trkpt lat="45.5748137" lon="10.7574449"><ele>207.33333333333331</ele><time>2026-04-26T13:31:50.872Z</time></trkpt><trkpt lat="45.5747391" lon="10.7574707"><ele>207.16666666666666</ele><time>2026-04-26T13:31:51.872Z</time></trkpt><trkpt lat="45.5746628" lon="10.7574966"><ele>207.0</ele><time>2026-04-26T13:31:52.872Z</time></trkpt><trkpt lat="45.5745843" lon="10.7575238"><ele>206.66666666666666</ele><time>2026-04-26T13:31:53.872Z</time></trkpt><trkpt lat="45.5745041" lon="10.7575518"><ele>206.33333333333331</ele><time>2026-04-26T13:31:54.871Z</time></trkpt><trkpt lat="45.574424" lon="10.7575791"><ele>206.0</ele><time>2026-04-26T13:31:55.872Z</time></trkpt><trkpt lat="45.5743458" lon="10.7576055"><ele>205.66666666666666</ele><time>2026-04-26T13:31:56.872Z</time></trkpt><trkpt lat="45.5742688" lon="10.7576326"><ele>205.33333333333331</ele><time>2026-04-26T13:31:57.871Z</time></trkpt><trkpt lat="45.5741921" lon="10.7576588"><ele>205.0</ele><time>2026-04-26T13:31:58.872Z</time></trkpt><trkpt lat="45.5741161" lon="10.7576844"><ele>204.85714285714286</ele><time>2026-04-26T13:31:59.872Z</time></trkpt><trkpt lat="45.5740402" lon="10.7577096"><ele>204.7142857142857</ele><time>2026-04-26T13:32:00.872Z</time></trkpt><trkpt lat="45.5739644" lon="10.7577349"><ele>204.57142857142856</ele><time>2026-04-26T13:32:01.872Z</time></trkpt><trkpt lat="45.5738902" lon="10.7577581"><ele>204.42857142857144</ele><time>2026-04-26T13:32:02.872Z</time></trkpt><trkpt lat="45.5738165" lon="10.7577815"><ele>204.28571428571428</ele><time>2026-04-26T13:32:03.872Z</time></trkpt><trkpt lat="45.5737472" lon="10.7578034"><ele>204.14285714285714</ele><time>2026-04-26T13:32:04.871Z</time></trkpt><trkpt lat="45.573683" lon="10.7578218"><ele>204.0</ele><time>2026-04-26T13:32:05.871Z</time></trkpt><trkpt lat="45.5735753" lon="10.7578544"><ele>204.33333333333334</ele><time>2026-04-26T13:32:07.871Z</time></trkpt><trkpt lat="45.5734965" lon="10.7578787"><ele>204.66666666666669</ele><time>2026-04-26T13:32:09.872Z</time></trkpt><trkpt lat="45.5734131" lon="10.7579043"><ele>205.0</ele><time>2026-04-26T13:32:12.872Z</time></trkpt><trkpt lat="45.5733494" lon="10.7579223"><ele>205.33333333333334</ele><time>2026-04-26T13:32:14.872Z</time></trkpt><trkpt lat="45.573261" lon="10.7579419"><ele>205.66666666666669</ele><time>2026-04-26T13:32:16.872Z</time></trkpt><trkpt lat="45.5731519" lon="10.7579697"><ele>206.0</ele><time>2026-04-26T13:32:18.872Z</time></trkpt><trkpt lat="45.5730395" lon="10.7579987"><ele>206.0</ele><time>2026-04-26T13:32:20.872Z</time></trkpt><trkpt lat="45.5729309" lon="10.758031"><ele>206.0</ele><time>2026-04-26T13:32:22.872Z</time></trkpt><trkpt lat="45.5728263" lon="10.7580615"><ele>206.0</ele><time>2026-04-26T13:32:24.872Z</time></trkpt><trkpt lat="45.5727163" lon="10.7580919"><ele>206.0</ele><time>2026-04-26T13:32:26.872Z</time></trkpt><trkpt lat="45.5726251" lon="10.7581196"><ele>206.0</ele><time>2026-04-26T13:32:28.872Z</time></trkpt><trkpt lat="45.5725453" lon="10.7581467"><ele>206.20000000000002</ele><time>2026-04-26T13:32:30.872Z</time></trkpt><trkpt lat="45.5724676" lon="10.7581742"><ele>206.4</ele><time>2026-04-26T13:32:39.872Z</time></trkpt><trkpt lat="45.5723976" lon="10.7582015"><ele>206.6</ele><time>2026-04-26T13:32:42.872Z</time></trkpt><trkpt lat="45.5723038" lon="10.7582409"><ele>206.8</ele><time>2026-04-26T13:32:45.872Z</time></trkpt><trkpt lat="45.5722092" lon="10.7582785"><ele>207.0</ele><time>2026-04-26T13:32:47.872Z</time></trkpt><trkpt lat="45.5720861" lon="10.7583147"><ele>207.00000000000003</ele><time>2026-04-26T13:32:49.871Z</time></trkpt><trkpt lat="45.5720235" lon="10.7583414"><ele>207.0</ele><time>2026-04-26T13:32:50.872Z</time></trkpt><trkpt lat="45.5719639" lon="10.7583893"><ele>207.0</ele><time>2026-04-26T13:32:51.872Z</time></trkpt><trkpt lat="45.5719127" lon="10.7584509"><ele>207.0</ele><time>2026-04-26T13:32:52.871Z</time></trkpt><trkpt lat="45.5718581" lon="10.7585179"><ele>207.0</ele><time>2026-04-26T13:32:53.871Z</time></trkpt><trkpt lat="45.5717947" lon="10.7585842"><ele>207.00000000000003</ele><time>2026-04-26T13:32:54.872Z</time></trkpt><trkpt lat="45.5717239" lon="10.7586438"><ele>207.0</ele><time>2026-04-26T13:32:55.872Z</time></trkpt><trkpt lat="45.5716476" lon="10.7587029"><ele>206.39999999999998</ele><time>2026-04-26T13:32:56.871Z</time></trkpt><trkpt lat="45.5715692" lon="10.7587652"><ele>205.79999999999998</ele><time>2026-04-26T13:32:57.872Z</time></trkpt><trkpt lat="45.5714894" lon="10.7588284"><ele>205.2</ele><time>2026-04-26T13:32:58.871Z</time></trkpt><trkpt lat="45.5714062" lon="10.758894"><ele>204.6</ele><time>2026-04-26T13:32:59.871Z</time></trkpt><trkpt lat="45.5713214" lon="10.7589608"><ele>204.0</ele><time>2026-04-26T13:33:00.872Z</time></trkpt><trkpt lat="45.5712354" lon="10.7590284"><ele>203.79999999999998</ele><time>2026-04-26T13:33:01.872Z</time></trkpt><trkpt lat="45.5711486" lon="10.7590976"><ele>203.6</ele><time>2026-04-26T13:33:02.871Z</time></trkpt><trkpt lat="45.5710611" lon="10.7591669"><ele>203.4</ele><time>2026-04-26T13:33:03.872Z</time></trkpt><trkpt lat="45.5709714" lon="10.7592368"><ele>203.2</ele><time>2026-04-26T13:33:04.872Z</time></trkpt><trkpt lat="45.5708803" lon="10.7593092"><ele>203.0</ele><time>2026-04-26T13:33:05.872Z</time></trkpt><trkpt lat="45.5707898" lon="10.759382"><ele>203.0</ele><time>2026-04-26T13:33:06.872Z</time></trkpt><trkpt lat="45.570698" lon="10.7594548"><ele>203.0</ele><time>2026-04-26T13:33:07.872Z</time></trkpt><trkpt lat="45.5706066" lon="10.7595281"><ele>203.0</ele><time>2026-04-26T13:33:08.872Z</time></trkpt><trkpt lat="45.5705168" lon="10.7596011"><ele>203.0</ele><time>2026-04-26T13:33:09.872Z</time></trkpt><trkpt lat="45.5704277" lon="10.7596718"><ele>203.0</ele><time>2026-04-26T13:33:10.872Z</time></trkpt><trkpt lat="45.5703397" lon="10.7597411"><ele>202.8</ele><time>2026-04-26T13:33:11.872Z</time></trkpt><trkpt lat="45.5702535" lon="10.7598088"><ele>202.60000000000002</ele><time>2026-04-26T13:33:12.872Z</time></trkpt><trkpt lat="45.5701689" lon="10.7598761"><ele>202.39999999999998</ele><time>2026-04-26T13:33:13.871Z</time></trkpt><trkpt lat="45.570085" lon="10.7599436"><ele>202.2</ele><time>2026-04-26T13:33:14.872Z</time></trkpt><trkpt lat="45.5700015" lon="10.7600111"><ele>202.0</ele><time>2026-04-26T13:33:15.872Z</time></trkpt><trkpt lat="45.5699182" lon="10.7600786"><ele>202.0</ele><time>2026-04-26T13:33:16.872Z</time></trkpt><trkpt lat="45.5698356" lon="10.7601463"><ele>202.0</ele><time>2026-04-26T13:33:17.871Z</time></trkpt><trkpt lat="45.5697512" lon="10.7602137"><ele>202.0</ele><time>2026-04-26T13:33:18.871Z</time></trkpt><trkpt lat="45.5696667" lon="10.76028"><ele>202.0</ele><time>2026-04-26T13:33:19.872Z</time></trkpt><trkpt lat="45.5695835" lon="10.760345"><ele>202.0</ele><time>2026-04-26T13:33:20.872Z</time></trkpt><trkpt lat="45.5695016" lon="10.7604092"><ele>202.0</ele><time>2026-04-26T13:33:21.872Z</time></trkpt><trkpt lat="45.5694218" lon="10.7604716"><ele>202.0</ele><time>2026-04-26T13:33:22.872Z</time></trkpt><trkpt lat="45.5693414" lon="10.7605341"><ele>202.0</ele><time>2026-04-26T13:33:23.871Z</time></trkpt><trkpt lat="45.5692577" lon="10.7606003"><ele>202.0</ele><time>2026-04-26T13:33:24.872Z</time></trkpt><trkpt lat="45.569169" lon="10.7606698"><ele>202.0</ele><time>2026-04-26T13:33:25.872Z</time></trkpt><trkpt lat="45.5690772" lon="10.7607428"><ele>202.0</ele><time>2026-04-26T13:33:26.872Z</time></trkpt><trkpt lat="45.5689817" lon="10.7608189"><ele>202.0</ele><time>2026-04-26T13:33:27.872Z</time></trkpt><trkpt lat="45.5688819" lon="10.7608971"><ele>202.0</ele><time>2026-04-26T13:33:28.872Z</time></trkpt><trkpt lat="45.5687782" lon="10.7609794"><ele>202.0</ele><time>2026-04-26T13:33:29.872Z</time></trkpt><trkpt lat="45.5686718" lon="10.7610646"><ele>201.5</ele><time>2026-04-26T13:33:30.872Z</time></trkpt><trkpt lat="45.5685634" lon="10.7611515"><ele>201.0</ele><time>2026-04-26T13:33:31.872Z</time></trkpt><trkpt lat="45.5684541" lon="10.7612378"><ele>200.5</ele><time>2026-04-26T13:33:32.872Z</time></trkpt><trkpt lat="45.5683467" lon="10.7613225"><ele>200.0</ele><time>2026-04-26T13:33:33.872Z</time></trkpt><trkpt lat="45.5682402" lon="10.761406"><ele>200.0</ele><time>2026-04-26T13:33:34.872Z</time></trkpt><trkpt lat="45.5681364" lon="10.7614874"><ele>200.0</ele><time>2026-04-26T13:33:35.872Z</time></trkpt><trkpt lat="45.5680357" lon="10.7615677"><ele>200.0</ele><time>2026-04-26T13:33:36.872Z</time></trkpt><trkpt lat="45.5679393" lon="10.7616445"><ele>200.0</ele><time>2026-04-26T13:33:37.872Z</time></trkpt><trkpt lat="45.5678487" lon="10.7617169"><ele>200.0</ele><time>2026-04-26T13:33:38.872Z</time></trkpt><trkpt lat="45.567762" lon="10.7617872"><ele>200.33333333333334</ele><time>2026-04-26T13:33:39.872Z</time></trkpt><trkpt lat="45.5676788" lon="10.7618538"><ele>200.66666666666669</ele><time>2026-04-26T13:33:40.871Z</time></trkpt><trkpt lat="45.5675986" lon="10.761918"><ele>201.0</ele><time>2026-04-26T13:33:41.872Z</time></trkpt><trkpt lat="45.5675207" lon="10.7619798"><ele>201.33333333333331</ele><time>2026-04-26T13:33:42.872Z</time></trkpt><trkpt lat="45.5674456" lon="10.7620388"><ele>201.66666666666666</ele><time>2026-04-26T13:33:43.872Z</time></trkpt><trkpt lat="45.5673719" lon="10.7620965"><ele>202.0</ele><time>2026-04-26T13:33:44.872Z</time></trkpt><trkpt lat="45.5673003" lon="10.7621528"><ele>201.83333333333331</ele><time>2026-04-26T13:33:45.871Z</time></trkpt><trkpt lat="45.5672292" lon="10.7622085"><ele>201.66666666666666</ele><time>2026-04-26T13:33:46.872Z</time></trkpt><trkpt lat="45.5671585" lon="10.7622642"><ele>201.5</ele><time>2026-04-26T13:33:47.872Z</time></trkpt><trkpt lat="45.5670858" lon="10.7623217"><ele>201.33333333333331</ele><time>2026-04-26T13:33:48.872Z</time></trkpt><trkpt lat="45.5670093" lon="10.7623813"><ele>201.16666666666666</ele><time>2026-04-26T13:33:49.871Z</time></trkpt><trkpt lat="45.5669257" lon="10.7624451"><ele>201.0</ele><time>2026-04-26T13:33:50.872Z</time></trkpt><trkpt lat="45.5668347" lon="10.7625131"><ele>201.0</ele><time>2026-04-26T13:33:51.872Z</time></trkpt><trkpt lat="45.5667398" lon="10.7625809"><ele>201.0</ele><time>2026-04-26T13:33:52.872Z</time></trkpt><trkpt lat="45.5666406" lon="10.7626479"><ele>201.0</ele><time>2026-04-26T13:33:53.872Z</time></trkpt><trkpt lat="45.5665392" lon="10.7627142"><ele>201.0</ele><time>2026-04-26T13:33:54.872Z</time></trkpt><trkpt lat="45.5664329" lon="10.7627778"><ele>201.0</ele><time>2026-04-26T13:33:55.871Z</time></trkpt><trkpt lat="45.5663228" lon="10.7628363"><ele>200.75</ele><time>2026-04-26T13:33:56.872Z</time></trkpt><trkpt lat="45.5662102" lon="10.7628881"><ele>200.5</ele><time>2026-04-26T13:33:57.872Z</time></trkpt><trkpt lat="45.5660958" lon="10.7629332"><ele>200.25</ele><time>2026-04-26T13:33:58.871Z</time></trkpt><trkpt lat="45.5659783" lon="10.7629723"><ele>200.0</ele><time>2026-04-26T13:33:59.872Z</time></trkpt><trkpt lat="45.5658591" lon="10.7630064"><ele>200.0</ele><time>2026-04-26T13:34:00.872Z</time></trkpt><trkpt lat="45.5657397" lon="10.7630355"><ele>200.0</ele><time>2026-04-26T13:34:01.872Z</time></trkpt><trkpt lat="45.56562" lon="10.7630635"><ele>200.0</ele><time>2026-04-26T13:34:02.871Z</time></trkpt><trkpt lat="45.5655006" lon="10.7630894"><ele>200.0</ele><time>2026-04-26T13:34:03.872Z</time></trkpt><trkpt lat="45.5653824" lon="10.7631137"><ele>200.5</ele><time>2026-04-26T13:34:04.872Z</time></trkpt><trkpt lat="45.5652642" lon="10.7631382"><ele>201.0</ele><time>2026-04-26T13:34:05.872Z</time></trkpt><trkpt lat="45.5651465" lon="10.7631632"><ele>201.5</ele><time>2026-04-26T13:34:06.872Z</time></trkpt><trkpt lat="45.5650298" lon="10.7631875"><ele>202.0</ele><time>2026-04-26T13:34:07.872Z</time></trkpt><trkpt lat="45.564915" lon="10.763213"><ele>202.0</ele><time>2026-04-26T13:34:08.872Z</time></trkpt><trkpt lat="45.5648007" lon="10.7632421"><ele>202.0</ele><time>2026-04-26T13:34:09.872Z</time></trkpt><trkpt lat="45.5646875" lon="10.7632758"><ele>202.0</ele><time>2026-04-26T13:34:10.872Z</time></trkpt><trkpt lat="45.5645757" lon="10.7633176"><ele>202.0</ele><time>2026-04-26T13:34:11.872Z</time></trkpt><trkpt lat="45.5644624" lon="10.763365"><ele>202.0</ele><time>2026-04-26T13:34:12.872Z</time></trkpt><trkpt lat="45.5643478" lon="10.7634183"><ele>202.0</ele><time>2026-04-26T13:34:13.872Z</time></trkpt><trkpt lat="45.56423" lon="10.7634759"><ele>202.0</ele><time>2026-04-26T13:34:14.871Z</time></trkpt><trkpt lat="45.5641089" lon="10.7635363"><ele>202.0</ele><time>2026-04-26T13:34:15.871Z</time></trkpt><trkpt lat="45.5639865" lon="10.7635978"><ele>201.5</ele><time>2026-04-26T13:34:16.871Z</time></trkpt><trkpt lat="45.5638635" lon="10.7636597"><ele>201.0</ele><time>2026-04-26T13:34:17.872Z</time></trkpt><trkpt lat="45.5637398" lon="10.7637213"><ele>200.5</ele><time>2026-04-26T13:34:18.871Z</time></trkpt><trkpt lat="45.5636154" lon="10.7637834"><ele>200.0</ele><time>2026-04-26T13:34:19.872Z</time></trkpt><trkpt lat="45.5634896" lon="10.7638466"><ele>199.75</ele><time>2026-04-26T13:34:20.872Z</time></trkpt><trkpt lat="45.563364" lon="10.7639104"><ele>199.5</ele><time>2026-04-26T13:34:21.872Z</time></trkpt><trkpt lat="45.5632379" lon="10.763975"><ele>199.25</ele><time>2026-04-26T13:34:22.872Z</time></trkpt><trkpt lat="45.5631101" lon="10.7640409"><ele>199.0</ele><time>2026-04-26T13:34:23.871Z</time></trkpt><trkpt lat="45.5629816" lon="10.7641069"><ele>198.75</ele><time>2026-04-26T13:34:24.871Z</time></trkpt><trkpt lat="45.5628521" lon="10.7641733"><ele>198.5</ele><time>2026-04-26T13:34:25.872Z</time></trkpt><trkpt lat="45.5627225" lon="10.7642411"><ele>198.25</ele><time>2026-04-26T13:34:26.872Z</time></trkpt><trkpt lat="45.5625919" lon="10.7643104"><ele>198.0</ele><time>2026-04-26T13:34:27.872Z</time></trkpt><trkpt lat="45.5624612" lon="10.76438"><ele>198.0</ele><time>2026-04-26T13:34:28.871Z</time></trkpt><trkpt lat="45.5623289" lon="10.7644515"><ele>198.0</ele><time>2026-04-26T13:34:29.872Z</time></trkpt><trkpt lat="45.5621967" lon="10.764528"><ele>198.0</ele><time>2026-04-26T13:34:30.871Z</time></trkpt><trkpt lat="45.5620652" lon="10.764612"><ele>198.0</ele><time>2026-04-26T13:34:31.871Z</time></trkpt><trkpt lat="45.5619372" lon="10.7647085"><ele>197.5</ele><time>2026-04-26T13:34:32.871Z</time></trkpt><trkpt lat="45.5618124" lon="10.7648155"><ele>197.0</ele><time>2026-04-26T13:34:33.872Z</time></trkpt><trkpt lat="45.5616913" lon="10.7649329"><ele>196.5</ele><time>2026-04-26T13:34:34.872Z</time></trkpt><trkpt lat="45.5615746" lon="10.7650593"><ele>196.0</ele><time>2026-04-26T13:34:35.871Z</time></trkpt><trkpt lat="45.5614614" lon="10.7651971"><ele>196.0</ele><time>2026-04-26T13:34:36.872Z</time></trkpt><trkpt lat="45.5613547" lon="10.7653442"><ele>196.0</ele><time>2026-04-26T13:34:37.872Z</time></trkpt><trkpt lat="45.5612534" lon="10.7655004"><ele>196.0</ele><time>2026-04-26T13:34:38.872Z</time></trkpt><trkpt lat="45.5611572" lon="10.7656636"><ele>196.0</ele><time>2026-04-26T13:34:39.871Z</time></trkpt><trkpt lat="45.561065" lon="10.7658316"><ele>196.75</ele><time>2026-04-26T13:34:40.872Z</time></trkpt><trkpt lat="45.5609751" lon="10.7660024"><ele>197.5</ele><time>2026-04-26T13:34:41.871Z</time></trkpt><trkpt lat="45.5608883" lon="10.7661753"><ele>198.25</ele><time>2026-04-26T13:34:42.871Z</time></trkpt><trkpt lat="45.5608052" lon="10.766351"><ele>199.0</ele><time>2026-04-26T13:34:43.871Z</time></trkpt><trkpt lat="45.560641" lon="10.766691"><ele>199.0</ele><time>2026-04-26T13:34:45.872Z</time></trkpt><trkpt lat="45.5605564" lon="10.766853"><ele>199.0</ele><time>2026-04-26T13:34:46.871Z</time></trkpt><trkpt lat="45.5604703" lon="10.7670087"><ele>199.0</ele><time>2026-04-26T13:34:47.872Z</time></trkpt><trkpt lat="45.560382" lon="10.7671587"><ele>199.0</ele><time>2026-04-26T13:34:48.872Z</time></trkpt><trkpt lat="45.560291" lon="10.7673044"><ele>197.75</ele><time>2026-04-26T13:34:49.872Z</time></trkpt><trkpt lat="45.5601986" lon="10.7674439"><ele>196.5</ele><time>2026-04-26T13:34:50.872Z</time></trkpt><trkpt lat="45.5601057" lon="10.7675821"><ele>195.25</ele><time>2026-04-26T13:34:51.872Z</time></trkpt><trkpt lat="45.5600146" lon="10.7677209"><ele>194.0</ele><time>2026-04-26T13:34:52.872Z</time></trkpt><trkpt lat="45.5599256" lon="10.767857"><ele>194.0</ele><time>2026-04-26T13:34:53.871Z</time></trkpt><trkpt lat="45.5598372" lon="10.7679934"><ele>194.0</ele><time>2026-04-26T13:34:54.872Z</time></trkpt><trkpt lat="45.5597521" lon="10.7681256"><ele>194.0</ele><time>2026-04-26T13:34:55.872Z</time></trkpt><trkpt lat="45.5596682" lon="10.7682535"><ele>194.0</ele><time>2026-04-26T13:34:56.871Z</time></trkpt><trkpt lat="45.5595863" lon="10.7683792"><ele>194.0</ele><time>2026-04-26T13:34:57.872Z</time></trkpt><trkpt lat="45.5595059" lon="10.7685043"><ele>209.0</ele><time>2026-04-26T13:34:58.872Z</time></trkpt></trkseg></trk></gpx>